<?xml version="1.0" encoding="UTF-8" standalone="no" ?>
<gpx xmlns="http://www.topografix.com/GPX/1/1" xmlns:xsi="http://www.w3.org/2001/XMLSchema-instance" xsi:schemaLocation="http://www.topografix.com/GPX/1/1 http://www.topografix.com/GPX/1/1/gpx.xsd" version="1.1" creator="VisuGPX - https://www.visugpx.com">
  <metadata>
    <name>Juvignac_Pignan_12092020</name>
  </metadata>
  <trk>
    <name><![CDATA[Move]]></name>
    <trkseg>
      <trkpt lat="43.61171" lon="3.82754">
        <ele>60.400001525879</ele>
        <time>2020-09-12T08:43:24.000Z</time>
      </trkpt>
      <trkpt lat="43.6117" lon="3.82767">
        <ele>55.3</ele>
        <time>2020-09-12T08:43:57.000Z</time>
      </trkpt>
      <trkpt lat="43.61168" lon="3.82771">
        <ele>55.2</ele>
        <time>2020-09-12T08:43:58.000Z</time>
      </trkpt>
      <trkpt lat="43.61167" lon="3.82774">
        <ele>55.1</ele>
        <time>2020-09-12T08:43:59.000Z</time>
      </trkpt>
      <trkpt lat="43.61166" lon="3.82779">
        <ele>55.1</ele>
        <time>2020-09-12T08:44:00.000Z</time>
      </trkpt>
      <trkpt lat="43.61165" lon="3.82783">
        <ele>59.79999923706</ele>
        <time>2020-09-12T08:44:01.000Z</time>
      </trkpt>
      <trkpt lat="43.61164" lon="3.82788">
        <ele>55.5</ele>
        <time>2020-09-12T08:44:02.000Z</time>
      </trkpt>
      <trkpt lat="43.61163" lon="3.82793">
        <ele>55.8</ele>
        <time>2020-09-12T08:44:03.000Z</time>
      </trkpt>
      <trkpt lat="43.61162" lon="3.82798">
        <ele>56</ele>
        <time>2020-09-12T08:44:04.000Z</time>
      </trkpt>
      <trkpt lat="43.61161" lon="3.82803">
        <ele>56.1</ele>
        <time>2020-09-12T08:44:05.000Z</time>
      </trkpt>
      <trkpt lat="43.61161" lon="3.82808">
        <ele>56.2</ele>
        <time>2020-09-12T08:44:06.000Z</time>
      </trkpt>
      <trkpt lat="43.61161" lon="3.82813">
        <ele>60</ele>
        <time>2020-09-12T08:44:07.000Z</time>
      </trkpt>
      <trkpt lat="43.61161" lon="3.82818">
        <ele>60</ele>
        <time>2020-09-12T08:44:08.000Z</time>
      </trkpt>
      <trkpt lat="43.61161" lon="3.82823">
        <ele>60</ele>
        <time>2020-09-12T08:44:09.000Z</time>
      </trkpt>
      <trkpt lat="43.61162" lon="3.82828">
        <ele>60</ele>
        <time>2020-09-12T08:44:10.000Z</time>
      </trkpt>
      <trkpt lat="43.61163" lon="3.82833">
        <ele>60</ele>
        <time>2020-09-12T08:44:11.000Z</time>
      </trkpt>
      <trkpt lat="43.61164" lon="3.82837">
        <ele>60</ele>
        <time>2020-09-12T08:44:12.000Z</time>
      </trkpt>
      <trkpt lat="43.61165" lon="3.82842">
        <ele>60</ele>
        <time>2020-09-12T08:44:13.000Z</time>
      </trkpt>
      <trkpt lat="43.61167" lon="3.82847">
        <ele>60</ele>
        <time>2020-09-12T08:44:14.000Z</time>
      </trkpt>
      <trkpt lat="43.61168" lon="3.82851">
        <ele>60</ele>
        <time>2020-09-12T08:44:15.000Z</time>
      </trkpt>
      <trkpt lat="43.6117" lon="3.82855">
        <ele>60</ele>
        <time>2020-09-12T08:44:16.000Z</time>
      </trkpt>
      <trkpt lat="43.61172" lon="3.8286">
        <ele>60.05699968</ele>
        <time>2020-09-12T08:44:17.000Z</time>
      </trkpt>
      <trkpt lat="43.61173" lon="3.82864">
        <ele>60.15699968</ele>
        <time>2020-09-12T08:44:18.000Z</time>
      </trkpt>
      <trkpt lat="43.61173" lon="3.82869">
        <ele>60.25699968</ele>
        <time>2020-09-12T08:44:19.000Z</time>
      </trkpt>
      <trkpt lat="43.61174" lon="3.82873">
        <ele>60.35699968</ele>
        <time>2020-09-12T08:44:20.000Z</time>
      </trkpt>
      <trkpt lat="43.61175" lon="3.82877">
        <ele>60.45699968</ele>
        <time>2020-09-12T08:44:21.000Z</time>
      </trkpt>
      <trkpt lat="43.61175" lon="3.82881">
        <ele>60.55699968</ele>
        <time>2020-09-12T08:44:22.000Z</time>
      </trkpt>
      <trkpt lat="43.61175" lon="3.82883">
        <ele>60.65699968</ele>
        <time>2020-09-12T08:44:23.000Z</time>
      </trkpt>
      <trkpt lat="43.61176" lon="3.82886">
        <ele>60.85699968</ele>
        <time>2020-09-12T08:44:25.000Z</time>
      </trkpt>
      <trkpt lat="43.61177" lon="3.82884">
        <ele>60.94300032</ele>
        <time>2020-09-12T08:44:27.000Z</time>
      </trkpt>
      <trkpt lat="43.61177" lon="3.8288">
        <ele>60.84300032</ele>
        <time>2020-09-12T08:44:28.000Z</time>
      </trkpt>
      <trkpt lat="43.61176" lon="3.82876">
        <ele>60.74300032</ele>
        <time>2020-09-12T08:44:29.000Z</time>
      </trkpt>
      <trkpt lat="43.61175" lon="3.82871">
        <ele>60.64300032</ele>
        <time>2020-09-12T08:44:30.000Z</time>
      </trkpt>
      <trkpt lat="43.61173" lon="3.82866">
        <ele>60.54300032</ele>
        <time>2020-09-12T08:44:31.000Z</time>
      </trkpt>
      <trkpt lat="43.61172" lon="3.8286">
        <ele>60.44300032</ele>
        <time>2020-09-12T08:44:32.000Z</time>
      </trkpt>
      <trkpt lat="43.61171" lon="3.82854">
        <ele>60.34300032</ele>
        <time>2020-09-12T08:44:33.000Z</time>
      </trkpt>
      <trkpt lat="43.6117" lon="3.82848">
        <ele>60.24300032</ele>
        <time>2020-09-12T08:44:34.000Z</time>
      </trkpt>
      <trkpt lat="43.61168" lon="3.82841">
        <ele>60.14300032</ele>
        <time>2020-09-12T08:44:35.000Z</time>
      </trkpt>
      <trkpt lat="43.61167" lon="3.82835">
        <ele>60.04300032</ele>
        <time>2020-09-12T08:44:36.000Z</time>
      </trkpt>
      <trkpt lat="43.61166" lon="3.82828">
        <ele>60</ele>
        <time>2020-09-12T08:44:37.000Z</time>
      </trkpt>
      <trkpt lat="43.61165" lon="3.82821">
        <ele>60</ele>
        <time>2020-09-12T08:44:38.000Z</time>
      </trkpt>
      <trkpt lat="43.61164" lon="3.82814">
        <ele>60</ele>
        <time>2020-09-12T08:44:39.000Z</time>
      </trkpt>
      <trkpt lat="43.61164" lon="3.82807">
        <ele>60</ele>
        <time>2020-09-12T08:44:40.000Z</time>
      </trkpt>
      <trkpt lat="43.61164" lon="3.82801">
        <ele>60</ele>
        <time>2020-09-12T08:44:41.000Z</time>
      </trkpt>
      <trkpt lat="43.61165" lon="3.82794">
        <ele>60</ele>
        <time>2020-09-12T08:44:42.000Z</time>
      </trkpt>
      <trkpt lat="43.61166" lon="3.82787">
        <ele>60</ele>
        <time>2020-09-12T08:44:43.000Z</time>
      </trkpt>
      <trkpt lat="43.61168" lon="3.82781">
        <ele>60</ele>
        <time>2020-09-12T08:44:44.000Z</time>
      </trkpt>
      <trkpt lat="43.61169" lon="3.82775">
        <ele>60</ele>
        <time>2020-09-12T08:44:45.000Z</time>
      </trkpt>
      <trkpt lat="43.61171" lon="3.8277">
        <ele>60</ele>
        <time>2020-09-12T08:44:46.000Z</time>
      </trkpt>
      <trkpt lat="43.61173" lon="3.82766">
        <ele>60</ele>
        <time>2020-09-12T08:44:47.000Z</time>
      </trkpt>
      <trkpt lat="43.61175" lon="3.82762">
        <ele>60</ele>
        <time>2020-09-12T08:44:48.000Z</time>
      </trkpt>
      <trkpt lat="43.61175" lon="3.82759">
        <ele>60</ele>
        <time>2020-09-12T08:44:49.000Z</time>
      </trkpt>
      <trkpt lat="43.61175" lon="3.82756">
        <ele>60</ele>
        <time>2020-09-12T08:44:50.000Z</time>
      </trkpt>
      <trkpt lat="43.61173" lon="3.82754">
        <ele>60</ele>
        <time>2020-09-12T08:44:51.000Z</time>
      </trkpt>
      <trkpt lat="43.61173" lon="3.82753">
        <ele>60</ele>
        <time>2020-09-12T08:44:56.000Z</time>
      </trkpt>
      <trkpt lat="43.61171" lon="3.82748">
        <ele>59</ele>
        <time>2020-09-12T08:48:41.000Z</time>
      </trkpt>
      <trkpt lat="43.61171" lon="3.82745">
        <ele>59</ele>
        <time>2020-09-12T08:48:42.000Z</time>
      </trkpt>
      <trkpt lat="43.61172" lon="3.82742">
        <ele>59</ele>
        <time>2020-09-12T08:48:43.000Z</time>
      </trkpt>
      <trkpt lat="43.61172" lon="3.82738">
        <ele>59</ele>
        <time>2020-09-12T08:48:44.000Z</time>
      </trkpt>
      <trkpt lat="43.61173" lon="3.82735">
        <ele>59</ele>
        <time>2020-09-12T08:48:45.000Z</time>
      </trkpt>
      <trkpt lat="43.61173" lon="3.82732">
        <ele>59</ele>
        <time>2020-09-12T08:48:46.000Z</time>
      </trkpt>
      <trkpt lat="43.61172" lon="3.82728">
        <ele>59</ele>
        <time>2020-09-12T08:48:47.000Z</time>
      </trkpt>
      <trkpt lat="43.61172" lon="3.82724">
        <ele>59</ele>
        <time>2020-09-12T08:48:48.000Z</time>
      </trkpt>
      <trkpt lat="43.61173" lon="3.82719">
        <ele>59</ele>
        <time>2020-09-12T08:48:49.000Z</time>
      </trkpt>
      <trkpt lat="43.61174" lon="3.82714">
        <ele>59</ele>
        <time>2020-09-12T08:48:50.000Z</time>
      </trkpt>
      <trkpt lat="43.61174" lon="3.82709">
        <ele>58.944606707749</ele>
        <time>2020-09-12T08:48:51.000Z</time>
      </trkpt>
      <trkpt lat="43.61175" lon="3.82705">
        <ele>58.847424947693</ele>
        <time>2020-09-12T08:48:52.000Z</time>
      </trkpt>
      <trkpt lat="43.61176" lon="3.827">
        <ele>58.750243187636</ele>
        <time>2020-09-12T08:48:53.000Z</time>
      </trkpt>
      <trkpt lat="43.61177" lon="3.82697">
        <ele>58.65306142758</ele>
        <time>2020-09-12T08:48:54.000Z</time>
      </trkpt>
      <trkpt lat="43.61178" lon="3.82693">
        <ele>58.555879667523</ele>
        <time>2020-09-12T08:48:55.000Z</time>
      </trkpt>
      <trkpt lat="43.61178" lon="3.82689">
        <ele>58.458697907467</ele>
        <time>2020-09-12T08:48:56.000Z</time>
      </trkpt>
      <trkpt lat="43.61179" lon="3.82684">
        <ele>58.36151614741</ele>
        <time>2020-09-12T08:48:57.000Z</time>
      </trkpt>
      <trkpt lat="43.6118" lon="3.8268">
        <ele>58.264334387354</ele>
        <time>2020-09-12T08:48:58.000Z</time>
      </trkpt>
      <trkpt lat="43.61181" lon="3.82676">
        <ele>58.167152627297</ele>
        <time>2020-09-12T08:48:59.000Z</time>
      </trkpt>
      <trkpt lat="43.61182" lon="3.82671">
        <ele>58.069970867241</ele>
        <time>2020-09-12T08:49:00.000Z</time>
      </trkpt>
      <trkpt lat="43.61183" lon="3.82662">
        <ele>58</ele>
        <time>2020-09-12T08:49:02.000Z</time>
      </trkpt>
      <trkpt lat="43.61184" lon="3.82657">
        <ele>58</ele>
        <time>2020-09-12T08:49:03.000Z</time>
      </trkpt>
      <trkpt lat="43.61185" lon="3.82652">
        <ele>58</ele>
        <time>2020-09-12T08:49:04.000Z</time>
      </trkpt>
      <trkpt lat="43.61186" lon="3.82647">
        <ele>58</ele>
        <time>2020-09-12T08:49:05.000Z</time>
      </trkpt>
      <trkpt lat="43.61187" lon="3.82642">
        <ele>58</ele>
        <time>2020-09-12T08:49:06.000Z</time>
      </trkpt>
      <trkpt lat="43.61187" lon="3.82637">
        <ele>58</ele>
        <time>2020-09-12T08:49:07.000Z</time>
      </trkpt>
      <trkpt lat="43.61188" lon="3.82632">
        <ele>58</ele>
        <time>2020-09-12T08:49:08.000Z</time>
      </trkpt>
      <trkpt lat="43.61188" lon="3.82627">
        <ele>58</ele>
        <time>2020-09-12T08:49:09.000Z</time>
      </trkpt>
      <trkpt lat="43.61189" lon="3.82622">
        <ele>58</ele>
        <time>2020-09-12T08:49:10.000Z</time>
      </trkpt>
      <trkpt lat="43.61189" lon="3.82617">
        <ele>58</ele>
        <time>2020-09-12T08:49:11.000Z</time>
      </trkpt>
      <trkpt lat="43.6119" lon="3.82612">
        <ele>58</ele>
        <time>2020-09-12T08:49:12.000Z</time>
      </trkpt>
      <trkpt lat="43.61191" lon="3.82607">
        <ele>58</ele>
        <time>2020-09-12T08:49:13.000Z</time>
      </trkpt>
      <trkpt lat="43.61192" lon="3.82601">
        <ele>58</ele>
        <time>2020-09-12T08:49:14.000Z</time>
      </trkpt>
      <trkpt lat="43.61193" lon="3.82596">
        <ele>58</ele>
        <time>2020-09-12T08:49:15.000Z</time>
      </trkpt>
      <trkpt lat="43.61193" lon="3.8259">
        <ele>58</ele>
        <time>2020-09-12T08:49:16.000Z</time>
      </trkpt>
      <trkpt lat="43.61194" lon="3.82585">
        <ele>58</ele>
        <time>2020-09-12T08:49:17.000Z</time>
      </trkpt>
      <trkpt lat="43.61195" lon="3.82579">
        <ele>58</ele>
        <time>2020-09-12T08:49:18.000Z</time>
      </trkpt>
      <trkpt lat="43.61196" lon="3.82574">
        <ele>58</ele>
        <time>2020-09-12T08:49:19.000Z</time>
      </trkpt>
      <trkpt lat="43.61197" lon="3.82569">
        <ele>58</ele>
        <time>2020-09-12T08:49:20.000Z</time>
      </trkpt>
      <trkpt lat="43.61198" lon="3.82564">
        <ele>58</ele>
        <time>2020-09-12T08:49:21.000Z</time>
      </trkpt>
      <trkpt lat="43.61199" lon="3.82559">
        <ele>58</ele>
        <time>2020-09-12T08:49:22.000Z</time>
      </trkpt>
      <trkpt lat="43.61201" lon="3.82554">
        <ele>58</ele>
        <time>2020-09-12T08:49:23.000Z</time>
      </trkpt>
      <trkpt lat="43.61203" lon="3.8255">
        <ele>58</ele>
        <time>2020-09-12T08:49:24.000Z</time>
      </trkpt>
      <trkpt lat="43.61205" lon="3.82546">
        <ele>58</ele>
        <time>2020-09-12T08:49:25.000Z</time>
      </trkpt>
      <trkpt lat="43.61206" lon="3.82543">
        <ele>58</ele>
        <time>2020-09-12T08:49:26.000Z</time>
      </trkpt>
      <trkpt lat="43.61208" lon="3.82541">
        <ele>58</ele>
        <time>2020-09-12T08:49:27.000Z</time>
      </trkpt>
      <trkpt lat="43.6121" lon="3.82539">
        <ele>58</ele>
        <time>2020-09-12T08:49:28.000Z</time>
      </trkpt>
      <trkpt lat="43.61212" lon="3.82537">
        <ele>58</ele>
        <time>2020-09-12T08:49:29.000Z</time>
      </trkpt>
      <trkpt lat="43.61215" lon="3.82536">
        <ele>58</ele>
        <time>2020-09-12T08:49:30.000Z</time>
      </trkpt>
      <trkpt lat="43.61217" lon="3.82535">
        <ele>58</ele>
        <time>2020-09-12T08:49:31.000Z</time>
      </trkpt>
      <trkpt lat="43.61219" lon="3.82533">
        <ele>58</ele>
        <time>2020-09-12T08:49:32.000Z</time>
      </trkpt>
      <trkpt lat="43.61221" lon="3.82532">
        <ele>58</ele>
        <time>2020-09-12T08:49:33.000Z</time>
      </trkpt>
      <trkpt lat="43.61222" lon="3.82531">
        <ele>58</ele>
        <time>2020-09-12T08:49:34.000Z</time>
      </trkpt>
      <trkpt lat="43.61225" lon="3.8253">
        <ele>58</ele>
        <time>2020-09-12T08:49:35.000Z</time>
      </trkpt>
      <trkpt lat="43.61227" lon="3.82528">
        <ele>58</ele>
        <time>2020-09-12T08:49:36.000Z</time>
      </trkpt>
      <trkpt lat="43.61229" lon="3.82527">
        <ele>58</ele>
        <time>2020-09-12T08:49:37.000Z</time>
      </trkpt>
      <trkpt lat="43.61232" lon="3.82525">
        <ele>58</ele>
        <time>2020-09-12T08:49:38.000Z</time>
      </trkpt>
      <trkpt lat="43.61235" lon="3.82523">
        <ele>58</ele>
        <time>2020-09-12T08:49:39.000Z</time>
      </trkpt>
      <trkpt lat="43.61239" lon="3.82521">
        <ele>58</ele>
        <time>2020-09-12T08:49:40.000Z</time>
      </trkpt>
      <trkpt lat="43.61242" lon="3.8252">
        <ele>57.94300032</ele>
        <time>2020-09-12T08:49:41.000Z</time>
      </trkpt>
      <trkpt lat="43.61245" lon="3.82518">
        <ele>57.84300032</ele>
        <time>2020-09-12T08:49:42.000Z</time>
      </trkpt>
      <trkpt lat="43.61248" lon="3.82516">
        <ele>57.74300032</ele>
        <time>2020-09-12T08:49:43.000Z</time>
      </trkpt>
      <trkpt lat="43.61252" lon="3.82514">
        <ele>57.64300032</ele>
        <time>2020-09-12T08:49:44.000Z</time>
      </trkpt>
      <trkpt lat="43.61256" lon="3.82513">
        <ele>57.54300032</ele>
        <time>2020-09-12T08:49:45.000Z</time>
      </trkpt>
      <trkpt lat="43.61259" lon="3.82512">
        <ele>57.44300032</ele>
        <time>2020-09-12T08:49:46.000Z</time>
      </trkpt>
      <trkpt lat="43.61262" lon="3.82509">
        <ele>57.34300032</ele>
        <time>2020-09-12T08:49:47.000Z</time>
      </trkpt>
      <trkpt lat="43.61266" lon="3.82507">
        <ele>57.24300032</ele>
        <time>2020-09-12T08:49:48.000Z</time>
      </trkpt>
      <trkpt lat="43.6127" lon="3.82504">
        <ele>57.14300032</ele>
        <time>2020-09-12T08:49:49.000Z</time>
      </trkpt>
      <trkpt lat="43.61278" lon="3.82496">
        <ele>56.943396490229</ele>
        <time>2020-09-12T08:49:51.000Z</time>
      </trkpt>
      <trkpt lat="43.61282" lon="3.82492">
        <ele>56.84409152962</ele>
        <time>2020-09-12T08:49:52.000Z</time>
      </trkpt>
      <trkpt lat="43.61285" lon="3.82487">
        <ele>56.744786569012</ele>
        <time>2020-09-12T08:49:53.000Z</time>
      </trkpt>
      <trkpt lat="43.61288" lon="3.82483">
        <ele>56.645481608404</ele>
        <time>2020-09-12T08:49:54.000Z</time>
      </trkpt>
      <trkpt lat="43.61291" lon="3.82478">
        <ele>56.546176647795</ele>
        <time>2020-09-12T08:49:55.000Z</time>
      </trkpt>
      <trkpt lat="43.61294" lon="3.82473">
        <ele>56.446871687187</ele>
        <time>2020-09-12T08:49:56.000Z</time>
      </trkpt>
      <trkpt lat="43.61297" lon="3.82469">
        <ele>56.347566726578</ele>
        <time>2020-09-12T08:49:57.000Z</time>
      </trkpt>
      <trkpt lat="43.61299" lon="3.82465">
        <ele>56.24826176597</ele>
        <time>2020-09-12T08:49:58.000Z</time>
      </trkpt>
      <trkpt lat="43.61301" lon="3.82461">
        <ele>56.148956805361</ele>
        <time>2020-09-12T08:49:59.000Z</time>
      </trkpt>
      <trkpt lat="43.61303" lon="3.82457">
        <ele>56.049651844753</ele>
        <time>2020-09-12T08:50:00.000Z</time>
      </trkpt>
      <trkpt lat="43.61304" lon="3.82453">
        <ele>56</ele>
        <time>2020-09-12T08:50:01.000Z</time>
      </trkpt>
      <trkpt lat="43.61306" lon="3.8245">
        <ele>56</ele>
        <time>2020-09-12T08:50:02.000Z</time>
      </trkpt>
      <trkpt lat="43.61307" lon="3.82445">
        <ele>56</ele>
        <time>2020-09-12T08:50:03.000Z</time>
      </trkpt>
      <trkpt lat="43.61308" lon="3.8244">
        <ele>56</ele>
        <time>2020-09-12T08:50:04.000Z</time>
      </trkpt>
      <trkpt lat="43.61309" lon="3.82434">
        <ele>56</ele>
        <time>2020-09-12T08:50:05.000Z</time>
      </trkpt>
      <trkpt lat="43.6131" lon="3.82428">
        <ele>56</ele>
        <time>2020-09-12T08:50:06.000Z</time>
      </trkpt>
      <trkpt lat="43.61311" lon="3.82422">
        <ele>56</ele>
        <time>2020-09-12T08:50:07.000Z</time>
      </trkpt>
      <trkpt lat="43.61311" lon="3.82416">
        <ele>56</ele>
        <time>2020-09-12T08:50:08.000Z</time>
      </trkpt>
      <trkpt lat="43.61311" lon="3.82409">
        <ele>56</ele>
        <time>2020-09-12T08:50:09.000Z</time>
      </trkpt>
      <trkpt lat="43.61311" lon="3.82403">
        <ele>56</ele>
        <time>2020-09-12T08:50:10.000Z</time>
      </trkpt>
      <trkpt lat="43.61312" lon="3.82396">
        <ele>56</ele>
        <time>2020-09-12T08:50:11.000Z</time>
      </trkpt>
      <trkpt lat="43.61311" lon="3.82391">
        <ele>56</ele>
        <time>2020-09-12T08:50:12.000Z</time>
      </trkpt>
      <trkpt lat="43.61311" lon="3.82385">
        <ele>56</ele>
        <time>2020-09-12T08:50:13.000Z</time>
      </trkpt>
      <trkpt lat="43.6131" lon="3.82379">
        <ele>56</ele>
        <time>2020-09-12T08:50:14.000Z</time>
      </trkpt>
      <trkpt lat="43.61309" lon="3.82373">
        <ele>56</ele>
        <time>2020-09-12T08:50:15.000Z</time>
      </trkpt>
      <trkpt lat="43.61307" lon="3.82367">
        <ele>56</ele>
        <time>2020-09-12T08:50:16.000Z</time>
      </trkpt>
      <trkpt lat="43.61306" lon="3.82361">
        <ele>56</ele>
        <time>2020-09-12T08:50:17.000Z</time>
      </trkpt>
      <trkpt lat="43.61306" lon="3.82356">
        <ele>56</ele>
        <time>2020-09-12T08:50:18.000Z</time>
      </trkpt>
      <trkpt lat="43.61305" lon="3.82351">
        <ele>56</ele>
        <time>2020-09-12T08:50:19.000Z</time>
      </trkpt>
      <trkpt lat="43.61305" lon="3.82346">
        <ele>56</ele>
        <time>2020-09-12T08:50:20.000Z</time>
      </trkpt>
      <trkpt lat="43.61304" lon="3.82342">
        <ele>56</ele>
        <time>2020-09-12T08:50:21.000Z</time>
      </trkpt>
      <trkpt lat="43.61304" lon="3.82338">
        <ele>56</ele>
        <time>2020-09-12T08:50:22.000Z</time>
      </trkpt>
      <trkpt lat="43.61305" lon="3.82334">
        <ele>56</ele>
        <time>2020-09-12T08:50:23.000Z</time>
      </trkpt>
      <trkpt lat="43.61305" lon="3.82329">
        <ele>56</ele>
        <time>2020-09-12T08:50:24.000Z</time>
      </trkpt>
      <trkpt lat="43.61306" lon="3.82324">
        <ele>56</ele>
        <time>2020-09-12T08:50:25.000Z</time>
      </trkpt>
      <trkpt lat="43.61307" lon="3.8232">
        <ele>56</ele>
        <time>2020-09-12T08:50:26.000Z</time>
      </trkpt>
      <trkpt lat="43.6131" lon="3.82315">
        <ele>56</ele>
        <time>2020-09-12T08:50:27.000Z</time>
      </trkpt>
      <trkpt lat="43.61313" lon="3.8231">
        <ele>56</ele>
        <time>2020-09-12T08:50:28.000Z</time>
      </trkpt>
      <trkpt lat="43.61316" lon="3.82306">
        <ele>56</ele>
        <time>2020-09-12T08:50:29.000Z</time>
      </trkpt>
      <trkpt lat="43.61319" lon="3.82303">
        <ele>56</ele>
        <time>2020-09-12T08:50:30.000Z</time>
      </trkpt>
      <trkpt lat="43.61323" lon="3.823">
        <ele>55.94300032</ele>
        <time>2020-09-12T08:50:31.000Z</time>
      </trkpt>
      <trkpt lat="43.61326" lon="3.82298">
        <ele>55.84300032</ele>
        <time>2020-09-12T08:50:32.000Z</time>
      </trkpt>
      <trkpt lat="43.61329" lon="3.82296">
        <ele>55.74300032</ele>
        <time>2020-09-12T08:50:33.000Z</time>
      </trkpt>
      <trkpt lat="43.61331" lon="3.82293">
        <ele>55.64300032</ele>
        <time>2020-09-12T08:50:34.000Z</time>
      </trkpt>
      <trkpt lat="43.61334" lon="3.82291">
        <ele>55.54300032</ele>
        <time>2020-09-12T08:50:35.000Z</time>
      </trkpt>
      <trkpt lat="43.61337" lon="3.82288">
        <ele>55.44300032</ele>
        <time>2020-09-12T08:50:36.000Z</time>
      </trkpt>
      <trkpt lat="43.6134" lon="3.82285">
        <ele>55.34300032</ele>
        <time>2020-09-12T08:50:37.000Z</time>
      </trkpt>
      <trkpt lat="43.61344" lon="3.82281">
        <ele>55.24300032</ele>
        <time>2020-09-12T08:50:38.000Z</time>
      </trkpt>
      <trkpt lat="43.61349" lon="3.82276">
        <ele>55.14300032</ele>
        <time>2020-09-12T08:50:39.000Z</time>
      </trkpt>
      <trkpt lat="43.61354" lon="3.82272">
        <ele>55.04300032</ele>
        <time>2020-09-12T08:50:40.000Z</time>
      </trkpt>
      <trkpt lat="43.6136" lon="3.82269">
        <ele>54.94300032</ele>
        <time>2020-09-12T08:50:41.000Z</time>
      </trkpt>
      <trkpt lat="43.61365" lon="3.82265">
        <ele>54.84300032</ele>
        <time>2020-09-12T08:50:42.000Z</time>
      </trkpt>
      <trkpt lat="43.6137" lon="3.82262">
        <ele>54.74300032</ele>
        <time>2020-09-12T08:50:43.000Z</time>
      </trkpt>
      <trkpt lat="43.61377" lon="3.82259">
        <ele>54.64300032</ele>
        <time>2020-09-12T08:50:44.000Z</time>
      </trkpt>
      <trkpt lat="43.61383" lon="3.82257">
        <ele>54.54300032</ele>
        <time>2020-09-12T08:50:45.000Z</time>
      </trkpt>
      <trkpt lat="43.61389" lon="3.82255">
        <ele>54.44300032</ele>
        <time>2020-09-12T08:50:46.000Z</time>
      </trkpt>
      <trkpt lat="43.61395" lon="3.82251">
        <ele>54.34300032</ele>
        <time>2020-09-12T08:50:47.000Z</time>
      </trkpt>
      <trkpt lat="43.614" lon="3.82246">
        <ele>54.24300032</ele>
        <time>2020-09-12T08:50:48.000Z</time>
      </trkpt>
      <trkpt lat="43.61406" lon="3.82242">
        <ele>54.14300032</ele>
        <time>2020-09-12T08:50:49.000Z</time>
      </trkpt>
      <trkpt lat="43.61412" lon="3.82238">
        <ele>54.04300032</ele>
        <time>2020-09-12T08:50:50.000Z</time>
      </trkpt>
      <trkpt lat="43.61417" lon="3.82234">
        <ele>53.838983857768</ele>
        <time>2020-09-12T08:50:51.000Z</time>
      </trkpt>
      <trkpt lat="43.61422" lon="3.82231">
        <ele>53.556497811825</ele>
        <time>2020-09-12T08:50:52.000Z</time>
      </trkpt>
      <trkpt lat="43.61428" lon="3.82228">
        <ele>53.274011765883</ele>
        <time>2020-09-12T08:50:53.000Z</time>
      </trkpt>
      <trkpt lat="43.61433" lon="3.82225">
        <ele>52.99152571994</ele>
        <time>2020-09-12T08:50:54.000Z</time>
      </trkpt>
      <trkpt lat="43.61438" lon="3.82221">
        <ele>52.709039673998</ele>
        <time>2020-09-12T08:50:55.000Z</time>
      </trkpt>
      <trkpt lat="43.61445" lon="3.82217">
        <ele>52.426553628055</ele>
        <time>2020-09-12T08:50:56.000Z</time>
      </trkpt>
      <trkpt lat="43.61452" lon="3.82214">
        <ele>52.144067582112</ele>
        <time>2020-09-12T08:50:57.000Z</time>
      </trkpt>
      <trkpt lat="43.61458" lon="3.82212">
        <ele>51.86158153617</ele>
        <time>2020-09-12T08:50:58.000Z</time>
      </trkpt>
      <trkpt lat="43.61464" lon="3.8221">
        <ele>51.579095490227</ele>
        <time>2020-09-12T08:50:59.000Z</time>
      </trkpt>
      <trkpt lat="43.61469" lon="3.82208">
        <ele>51.296609444284</ele>
        <time>2020-09-12T08:51:00.000Z</time>
      </trkpt>
      <trkpt lat="43.61474" lon="3.82206">
        <ele>51.014123398342</ele>
        <time>2020-09-12T08:51:01.000Z</time>
      </trkpt>
      <trkpt lat="43.61479" lon="3.82206">
        <ele>50.898720410255</ele>
        <time>2020-09-12T08:51:02.000Z</time>
      </trkpt>
      <trkpt lat="43.61484" lon="3.82205">
        <ele>50.792110674892</ele>
        <time>2020-09-12T08:51:03.000Z</time>
      </trkpt>
      <trkpt lat="43.61489" lon="3.82205">
        <ele>50.68550093953</ele>
        <time>2020-09-12T08:51:04.000Z</time>
      </trkpt>
      <trkpt lat="43.61493" lon="3.82205">
        <ele>50.578891204168</ele>
        <time>2020-09-12T08:51:05.000Z</time>
      </trkpt>
      <trkpt lat="43.61498" lon="3.82206">
        <ele>50.472281468806</ele>
        <time>2020-09-12T08:51:06.000Z</time>
      </trkpt>
      <trkpt lat="43.61501" lon="3.82207">
        <ele>50.365671733444</ele>
        <time>2020-09-12T08:51:07.000Z</time>
      </trkpt>
      <trkpt lat="43.61505" lon="3.82206">
        <ele>50.259061998081</ele>
        <time>2020-09-12T08:51:08.000Z</time>
      </trkpt>
      <trkpt lat="43.61508" lon="3.82206">
        <ele>50.152452262719</ele>
        <time>2020-09-12T08:51:09.000Z</time>
      </trkpt>
      <trkpt lat="43.61511" lon="3.82205">
        <ele>50.045842527357</ele>
        <time>2020-09-12T08:51:10.000Z</time>
      </trkpt>
      <trkpt lat="43.61513" lon="3.82203">
        <ele>49.88600064</ele>
        <time>2020-09-12T08:51:11.000Z</time>
      </trkpt>
      <trkpt lat="43.61515" lon="3.82201">
        <ele>49.68600064</ele>
        <time>2020-09-12T08:51:12.000Z</time>
      </trkpt>
      <trkpt lat="43.61517" lon="3.82197">
        <ele>49.48600064</ele>
        <time>2020-09-12T08:51:13.000Z</time>
      </trkpt>
      <trkpt lat="43.61518" lon="3.82193">
        <ele>49.28600064</ele>
        <time>2020-09-12T08:51:14.000Z</time>
      </trkpt>
      <trkpt lat="43.61519" lon="3.82189">
        <ele>49.08600064</ele>
        <time>2020-09-12T08:51:15.000Z</time>
      </trkpt>
      <trkpt lat="43.61519" lon="3.82184">
        <ele>48.88600064</ele>
        <time>2020-09-12T08:51:16.000Z</time>
      </trkpt>
      <trkpt lat="43.6152" lon="3.8218">
        <ele>48.68600064</ele>
        <time>2020-09-12T08:51:17.000Z</time>
      </trkpt>
      <trkpt lat="43.61519" lon="3.82176">
        <ele>48.48600064</ele>
        <time>2020-09-12T08:51:18.000Z</time>
      </trkpt>
      <trkpt lat="43.6152" lon="3.82171">
        <ele>48.28600064</ele>
        <time>2020-09-12T08:51:19.000Z</time>
      </trkpt>
      <trkpt lat="43.6152" lon="3.82166">
        <ele>48.08600064</ele>
        <time>2020-09-12T08:51:20.000Z</time>
      </trkpt>
      <trkpt lat="43.6152" lon="3.82161">
        <ele>47.94300032</ele>
        <time>2020-09-12T08:51:21.000Z</time>
      </trkpt>
      <trkpt lat="43.6152" lon="3.82155">
        <ele>47.84300032</ele>
        <time>2020-09-12T08:51:22.000Z</time>
      </trkpt>
      <trkpt lat="43.61521" lon="3.8215">
        <ele>47.74300032</ele>
        <time>2020-09-12T08:51:23.000Z</time>
      </trkpt>
      <trkpt lat="43.61522" lon="3.82144">
        <ele>47.64300032</ele>
        <time>2020-09-12T08:51:24.000Z</time>
      </trkpt>
      <trkpt lat="43.61523" lon="3.82138">
        <ele>47.54300032</ele>
        <time>2020-09-12T08:51:25.000Z</time>
      </trkpt>
      <trkpt lat="43.61523" lon="3.82132">
        <ele>47.44300032</ele>
        <time>2020-09-12T08:51:26.000Z</time>
      </trkpt>
      <trkpt lat="43.61524" lon="3.82126">
        <ele>47.34300032</ele>
        <time>2020-09-12T08:51:27.000Z</time>
      </trkpt>
      <trkpt lat="43.61525" lon="3.8212">
        <ele>47.24300032</ele>
        <time>2020-09-12T08:51:28.000Z</time>
      </trkpt>
      <trkpt lat="43.61526" lon="3.82114">
        <ele>47.14300032</ele>
        <time>2020-09-12T08:51:29.000Z</time>
      </trkpt>
      <trkpt lat="43.61527" lon="3.82109">
        <ele>47.04300032</ele>
        <time>2020-09-12T08:51:30.000Z</time>
      </trkpt>
      <trkpt lat="43.61528" lon="3.82103">
        <ele>46.94300032</ele>
        <time>2020-09-12T08:51:31.000Z</time>
      </trkpt>
      <trkpt lat="43.61528" lon="3.82098">
        <ele>46.84300032</ele>
        <time>2020-09-12T08:51:32.000Z</time>
      </trkpt>
      <trkpt lat="43.61529" lon="3.82091">
        <ele>46.74300032</ele>
        <time>2020-09-12T08:51:33.000Z</time>
      </trkpt>
      <trkpt lat="43.6153" lon="3.82083">
        <ele>46.64300032</ele>
        <time>2020-09-12T08:51:34.000Z</time>
      </trkpt>
      <trkpt lat="43.61532" lon="3.82076">
        <ele>46.54300032</ele>
        <time>2020-09-12T08:51:35.000Z</time>
      </trkpt>
      <trkpt lat="43.61532" lon="3.82068">
        <ele>46.44300032</ele>
        <time>2020-09-12T08:51:36.000Z</time>
      </trkpt>
      <trkpt lat="43.61533" lon="3.82061">
        <ele>46.34300032</ele>
        <time>2020-09-12T08:51:37.000Z</time>
      </trkpt>
      <trkpt lat="43.61533" lon="3.82054">
        <ele>46.24300032</ele>
        <time>2020-09-12T08:51:38.000Z</time>
      </trkpt>
      <trkpt lat="43.61533" lon="3.82047">
        <ele>46.14300032</ele>
        <time>2020-09-12T08:51:39.000Z</time>
      </trkpt>
      <trkpt lat="43.61533" lon="3.8204">
        <ele>46.04300032</ele>
        <time>2020-09-12T08:51:40.000Z</time>
      </trkpt>
      <trkpt lat="43.61533" lon="3.82035">
        <ele>45.94300032</ele>
        <time>2020-09-12T08:51:41.000Z</time>
      </trkpt>
      <trkpt lat="43.61534" lon="3.82029">
        <ele>45.84300032</ele>
        <time>2020-09-12T08:51:42.000Z</time>
      </trkpt>
      <trkpt lat="43.61534" lon="3.82024">
        <ele>45.74300032</ele>
        <time>2020-09-12T08:51:43.000Z</time>
      </trkpt>
      <trkpt lat="43.61534" lon="3.82019">
        <ele>45.64300032</ele>
        <time>2020-09-12T08:51:44.000Z</time>
      </trkpt>
      <trkpt lat="43.61535" lon="3.82014">
        <ele>45.54300032</ele>
        <time>2020-09-12T08:51:45.000Z</time>
      </trkpt>
      <trkpt lat="43.61536" lon="3.82009">
        <ele>45.44300032</ele>
        <time>2020-09-12T08:51:46.000Z</time>
      </trkpt>
      <trkpt lat="43.61536" lon="3.82005">
        <ele>45.34300032</ele>
        <time>2020-09-12T08:51:47.000Z</time>
      </trkpt>
      <trkpt lat="43.61537" lon="3.82002">
        <ele>45.24300032</ele>
        <time>2020-09-12T08:51:48.000Z</time>
      </trkpt>
      <trkpt lat="43.61538" lon="3.81998">
        <ele>45.14300032</ele>
        <time>2020-09-12T08:51:49.000Z</time>
      </trkpt>
      <trkpt lat="43.61538" lon="3.81994">
        <ele>45.04300032</ele>
        <time>2020-09-12T08:51:50.000Z</time>
      </trkpt>
      <trkpt lat="43.61538" lon="3.8199">
        <ele>44.942994628584</ele>
        <time>2020-09-12T08:51:51.000Z</time>
      </trkpt>
      <trkpt lat="43.61539" lon="3.81986">
        <ele>44.842984643587</ele>
        <time>2020-09-12T08:51:52.000Z</time>
      </trkpt>
      <trkpt lat="43.6154" lon="3.81982">
        <ele>44.74297465859</ele>
        <time>2020-09-12T08:51:53.000Z</time>
      </trkpt>
      <trkpt lat="43.6154" lon="3.81978">
        <ele>44.642964673593</ele>
        <time>2020-09-12T08:51:54.000Z</time>
      </trkpt>
      <trkpt lat="43.6154" lon="3.81974">
        <ele>44.542954688596</ele>
        <time>2020-09-12T08:51:55.000Z</time>
      </trkpt>
      <trkpt lat="43.61541" lon="3.8197">
        <ele>44.442944703599</ele>
        <time>2020-09-12T08:51:56.000Z</time>
      </trkpt>
      <trkpt lat="43.61542" lon="3.81966">
        <ele>44.342934718602</ele>
        <time>2020-09-12T08:51:57.000Z</time>
      </trkpt>
      <trkpt lat="43.61542" lon="3.81962">
        <ele>44.242924733605</ele>
        <time>2020-09-12T08:51:58.000Z</time>
      </trkpt>
      <trkpt lat="43.61543" lon="3.81958">
        <ele>44.142914748608</ele>
        <time>2020-09-12T08:51:59.000Z</time>
      </trkpt>
      <trkpt lat="43.61544" lon="3.81954">
        <ele>44.042904763612</ele>
        <time>2020-09-12T08:52:00.000Z</time>
      </trkpt>
      <trkpt lat="43.61545" lon="3.8195">
        <ele>43.942906180247</ele>
        <time>2020-09-12T08:52:01.000Z</time>
      </trkpt>
      <trkpt lat="43.61546" lon="3.81946">
        <ele>43.84291616325</ele>
        <time>2020-09-12T08:52:02.000Z</time>
      </trkpt>
      <trkpt lat="43.61547" lon="3.81941">
        <ele>43.742926146254</ele>
        <time>2020-09-12T08:52:03.000Z</time>
      </trkpt>
      <trkpt lat="43.61548" lon="3.81937">
        <ele>43.642936129257</ele>
        <time>2020-09-12T08:52:04.000Z</time>
      </trkpt>
      <trkpt lat="43.61548" lon="3.81932">
        <ele>43.54294611226</ele>
        <time>2020-09-12T08:52:05.000Z</time>
      </trkpt>
      <trkpt lat="43.61549" lon="3.81927">
        <ele>43.442956095263</ele>
        <time>2020-09-12T08:52:06.000Z</time>
      </trkpt>
      <trkpt lat="43.6155" lon="3.81923">
        <ele>43.342966078267</ele>
        <time>2020-09-12T08:52:07.000Z</time>
      </trkpt>
      <trkpt lat="43.6155" lon="3.81918">
        <ele>43.24297606127</ele>
        <time>2020-09-12T08:52:08.000Z</time>
      </trkpt>
      <trkpt lat="43.61551" lon="3.81913">
        <ele>43.142986044273</ele>
        <time>2020-09-12T08:52:09.000Z</time>
      </trkpt>
      <trkpt lat="43.61552" lon="3.81908">
        <ele>43.042996027277</ele>
        <time>2020-09-12T08:52:10.000Z</time>
      </trkpt>
      <trkpt lat="43.61552" lon="3.81902">
        <ele>42.94300032</ele>
        <time>2020-09-12T08:52:11.000Z</time>
      </trkpt>
      <trkpt lat="43.61552" lon="3.81897">
        <ele>42.84300032</ele>
        <time>2020-09-12T08:52:12.000Z</time>
      </trkpt>
      <trkpt lat="43.61553" lon="3.81892">
        <ele>42.74300032</ele>
        <time>2020-09-12T08:52:13.000Z</time>
      </trkpt>
      <trkpt lat="43.61553" lon="3.81886">
        <ele>42.64300032</ele>
        <time>2020-09-12T08:52:14.000Z</time>
      </trkpt>
      <trkpt lat="43.61553" lon="3.8188">
        <ele>42.54300032</ele>
        <time>2020-09-12T08:52:15.000Z</time>
      </trkpt>
      <trkpt lat="43.61553" lon="3.81874">
        <ele>42.44300032</ele>
        <time>2020-09-12T08:52:16.000Z</time>
      </trkpt>
      <trkpt lat="43.61552" lon="3.81868">
        <ele>42.34300032</ele>
        <time>2020-09-12T08:52:17.000Z</time>
      </trkpt>
      <trkpt lat="43.61551" lon="3.81863">
        <ele>42.24300032</ele>
        <time>2020-09-12T08:52:18.000Z</time>
      </trkpt>
      <trkpt lat="43.6155" lon="3.81857">
        <ele>42.14300032</ele>
        <time>2020-09-12T08:52:19.000Z</time>
      </trkpt>
      <trkpt lat="43.61549" lon="3.81851">
        <ele>42.04300032</ele>
        <time>2020-09-12T08:52:20.000Z</time>
      </trkpt>
      <trkpt lat="43.61548" lon="3.81846">
        <ele>42</ele>
        <time>2020-09-12T08:52:21.000Z</time>
      </trkpt>
      <trkpt lat="43.61547" lon="3.8184">
        <ele>42</ele>
        <time>2020-09-12T08:52:22.000Z</time>
      </trkpt>
      <trkpt lat="43.61546" lon="3.81835">
        <ele>42</ele>
        <time>2020-09-12T08:52:23.000Z</time>
      </trkpt>
      <trkpt lat="43.61544" lon="3.8183">
        <ele>42</ele>
        <time>2020-09-12T08:52:24.000Z</time>
      </trkpt>
      <trkpt lat="43.61543" lon="3.81825">
        <ele>42</ele>
        <time>2020-09-12T08:52:25.000Z</time>
      </trkpt>
      <trkpt lat="43.61542" lon="3.8182">
        <ele>42</ele>
        <time>2020-09-12T08:52:26.000Z</time>
      </trkpt>
      <trkpt lat="43.6154" lon="3.81815">
        <ele>42</ele>
        <time>2020-09-12T08:52:27.000Z</time>
      </trkpt>
      <trkpt lat="43.61539" lon="3.8181">
        <ele>42</ele>
        <time>2020-09-12T08:52:28.000Z</time>
      </trkpt>
      <trkpt lat="43.61537" lon="3.81805">
        <ele>42</ele>
        <time>2020-09-12T08:52:29.000Z</time>
      </trkpt>
      <trkpt lat="43.61536" lon="3.818">
        <ele>42</ele>
        <time>2020-09-12T08:52:30.000Z</time>
      </trkpt>
      <trkpt lat="43.61535" lon="3.81795">
        <ele>42</ele>
        <time>2020-09-12T08:52:31.000Z</time>
      </trkpt>
      <trkpt lat="43.61534" lon="3.8179">
        <ele>42</ele>
        <time>2020-09-12T08:52:32.000Z</time>
      </trkpt>
      <trkpt lat="43.61532" lon="3.81786">
        <ele>42</ele>
        <time>2020-09-12T08:52:33.000Z</time>
      </trkpt>
      <trkpt lat="43.61531" lon="3.81781">
        <ele>42</ele>
        <time>2020-09-12T08:52:34.000Z</time>
      </trkpt>
      <trkpt lat="43.6153" lon="3.81777">
        <ele>42</ele>
        <time>2020-09-12T08:52:35.000Z</time>
      </trkpt>
      <trkpt lat="43.61529" lon="3.81773">
        <ele>42</ele>
        <time>2020-09-12T08:52:36.000Z</time>
      </trkpt>
      <trkpt lat="43.61528" lon="3.81769">
        <ele>42</ele>
        <time>2020-09-12T08:52:37.000Z</time>
      </trkpt>
      <trkpt lat="43.61527" lon="3.81766">
        <ele>42</ele>
        <time>2020-09-12T08:52:38.000Z</time>
      </trkpt>
      <trkpt lat="43.61526" lon="3.81763">
        <ele>42</ele>
        <time>2020-09-12T08:52:39.000Z</time>
      </trkpt>
      <trkpt lat="43.61525" lon="3.8176">
        <ele>42</ele>
        <time>2020-09-12T08:52:40.000Z</time>
      </trkpt>
      <trkpt lat="43.61525" lon="3.81757">
        <ele>42</ele>
        <time>2020-09-12T08:52:41.000Z</time>
      </trkpt>
      <trkpt lat="43.61524" lon="3.81753">
        <ele>42</ele>
        <time>2020-09-12T08:52:42.000Z</time>
      </trkpt>
      <trkpt lat="43.61523" lon="3.81749">
        <ele>42</ele>
        <time>2020-09-12T08:52:43.000Z</time>
      </trkpt>
      <trkpt lat="43.61521" lon="3.81745">
        <ele>42</ele>
        <time>2020-09-12T08:52:44.000Z</time>
      </trkpt>
      <trkpt lat="43.6152" lon="3.8174">
        <ele>42</ele>
        <time>2020-09-12T08:52:45.000Z</time>
      </trkpt>
      <trkpt lat="43.61519" lon="3.81736">
        <ele>42</ele>
        <time>2020-09-12T08:52:46.000Z</time>
      </trkpt>
      <trkpt lat="43.61518" lon="3.81732">
        <ele>42</ele>
        <time>2020-09-12T08:52:47.000Z</time>
      </trkpt>
      <trkpt lat="43.61517" lon="3.81727">
        <ele>42</ele>
        <time>2020-09-12T08:52:48.000Z</time>
      </trkpt>
      <trkpt lat="43.61516" lon="3.81723">
        <ele>42</ele>
        <time>2020-09-12T08:52:49.000Z</time>
      </trkpt>
      <trkpt lat="43.61514" lon="3.81718">
        <ele>42</ele>
        <time>2020-09-12T08:52:50.000Z</time>
      </trkpt>
      <trkpt lat="43.61513" lon="3.81713">
        <ele>42</ele>
        <time>2020-09-12T08:52:51.000Z</time>
      </trkpt>
      <trkpt lat="43.61512" lon="3.81708">
        <ele>42</ele>
        <time>2020-09-12T08:52:52.000Z</time>
      </trkpt>
      <trkpt lat="43.6151" lon="3.81703">
        <ele>42</ele>
        <time>2020-09-12T08:52:53.000Z</time>
      </trkpt>
      <trkpt lat="43.61509" lon="3.81698">
        <ele>42</ele>
        <time>2020-09-12T08:52:54.000Z</time>
      </trkpt>
      <trkpt lat="43.61508" lon="3.81693">
        <ele>42</ele>
        <time>2020-09-12T08:52:55.000Z</time>
      </trkpt>
      <trkpt lat="43.61506" lon="3.81688">
        <ele>42</ele>
        <time>2020-09-12T08:52:56.000Z</time>
      </trkpt>
      <trkpt lat="43.61505" lon="3.81684">
        <ele>42</ele>
        <time>2020-09-12T08:52:57.000Z</time>
      </trkpt>
      <trkpt lat="43.61503" lon="3.81679">
        <ele>42</ele>
        <time>2020-09-12T08:52:58.000Z</time>
      </trkpt>
      <trkpt lat="43.61502" lon="3.81674">
        <ele>42</ele>
        <time>2020-09-12T08:52:59.000Z</time>
      </trkpt>
      <trkpt lat="43.615" lon="3.8167">
        <ele>42</ele>
        <time>2020-09-12T08:53:00.000Z</time>
      </trkpt>
      <trkpt lat="43.615" lon="3.81665">
        <ele>42</ele>
        <time>2020-09-12T08:53:01.000Z</time>
      </trkpt>
      <trkpt lat="43.61499" lon="3.81661">
        <ele>42</ele>
        <time>2020-09-12T08:53:02.000Z</time>
      </trkpt>
      <trkpt lat="43.61498" lon="3.81656">
        <ele>42</ele>
        <time>2020-09-12T08:53:03.000Z</time>
      </trkpt>
      <trkpt lat="43.61496" lon="3.81652">
        <ele>42</ele>
        <time>2020-09-12T08:53:04.000Z</time>
      </trkpt>
      <trkpt lat="43.61495" lon="3.81647">
        <ele>42</ele>
        <time>2020-09-12T08:53:05.000Z</time>
      </trkpt>
      <trkpt lat="43.61494" lon="3.81643">
        <ele>42</ele>
        <time>2020-09-12T08:53:06.000Z</time>
      </trkpt>
      <trkpt lat="43.61492" lon="3.81638">
        <ele>42</ele>
        <time>2020-09-12T08:53:07.000Z</time>
      </trkpt>
      <trkpt lat="43.6149" lon="3.81633">
        <ele>42</ele>
        <time>2020-09-12T08:53:08.000Z</time>
      </trkpt>
      <trkpt lat="43.61488" lon="3.81628">
        <ele>42</ele>
        <time>2020-09-12T08:53:09.000Z</time>
      </trkpt>
      <trkpt lat="43.61487" lon="3.81622">
        <ele>42</ele>
        <time>2020-09-12T08:53:10.000Z</time>
      </trkpt>
      <trkpt lat="43.61485" lon="3.81616">
        <ele>41.944714128929</ele>
        <time>2020-09-12T08:53:11.000Z</time>
      </trkpt>
      <trkpt lat="43.61484" lon="3.8161">
        <ele>41.84772082814</ele>
        <time>2020-09-12T08:53:12.000Z</time>
      </trkpt>
      <trkpt lat="43.61483" lon="3.81605">
        <ele>41.750727527351</ele>
        <time>2020-09-12T08:53:13.000Z</time>
      </trkpt>
      <trkpt lat="43.61481" lon="3.81599">
        <ele>41.653734226561</ele>
        <time>2020-09-12T08:53:14.000Z</time>
      </trkpt>
      <trkpt lat="43.6148" lon="3.81594">
        <ele>41.556740925772</ele>
        <time>2020-09-12T08:53:15.000Z</time>
      </trkpt>
      <trkpt lat="43.61478" lon="3.81589">
        <ele>41.459747624983</ele>
        <time>2020-09-12T08:53:16.000Z</time>
      </trkpt>
      <trkpt lat="43.61477" lon="3.81584">
        <ele>41.362754324194</ele>
        <time>2020-09-12T08:53:17.000Z</time>
      </trkpt>
      <trkpt lat="43.61476" lon="3.81579">
        <ele>41.265761023405</ele>
        <time>2020-09-12T08:53:18.000Z</time>
      </trkpt>
      <trkpt lat="43.61474" lon="3.81573">
        <ele>41.168767722616</ele>
        <time>2020-09-12T08:53:19.000Z</time>
      </trkpt>
      <trkpt lat="43.61473" lon="3.81569">
        <ele>41.071774421827</ele>
        <time>2020-09-12T08:53:20.000Z</time>
      </trkpt>
      <trkpt lat="43.61472" lon="3.81566">
        <ele>40.973947271216</ele>
        <time>2020-09-12T08:53:21.000Z</time>
      </trkpt>
      <trkpt lat="43.61469" lon="3.81563">
        <ele>40.773546598126</ele>
        <time>2020-09-12T08:53:23.000Z</time>
      </trkpt>
      <trkpt lat="43.61466" lon="3.81563">
        <ele>40.673346261582</ele>
        <time>2020-09-12T08:53:24.000Z</time>
      </trkpt>
      <trkpt lat="43.61464" lon="3.81564">
        <ele>40.573145925037</ele>
        <time>2020-09-12T08:53:25.000Z</time>
      </trkpt>
      <trkpt lat="43.61462" lon="3.81568">
        <ele>40.472945588492</ele>
        <time>2020-09-12T08:53:26.000Z</time>
      </trkpt>
      <trkpt lat="43.6146" lon="3.81574">
        <ele>40.372745251947</ele>
        <time>2020-09-12T08:53:27.000Z</time>
      </trkpt>
      <trkpt lat="43.6146" lon="3.81579">
        <ele>40.272544915402</ele>
        <time>2020-09-12T08:53:28.000Z</time>
      </trkpt>
      <trkpt lat="43.61459" lon="3.81584">
        <ele>40.172344578857</ele>
        <time>2020-09-12T08:53:29.000Z</time>
      </trkpt>
      <trkpt lat="43.61459" lon="3.8159">
        <ele>40.072144242312</ele>
        <time>2020-09-12T08:53:30.000Z</time>
      </trkpt>
      <trkpt lat="43.61458" lon="3.81595">
        <ele>40</ele>
        <time>2020-09-12T08:53:31.000Z</time>
      </trkpt>
      <trkpt lat="43.61457" lon="3.81601">
        <ele>40</ele>
        <time>2020-09-12T08:53:32.000Z</time>
      </trkpt>
      <trkpt lat="43.61456" lon="3.81608">
        <ele>40</ele>
        <time>2020-09-12T08:53:33.000Z</time>
      </trkpt>
      <trkpt lat="43.61455" lon="3.81614">
        <ele>40</ele>
        <time>2020-09-12T08:53:34.000Z</time>
      </trkpt>
      <trkpt lat="43.61454" lon="3.81622">
        <ele>40</ele>
        <time>2020-09-12T08:53:35.000Z</time>
      </trkpt>
      <trkpt lat="43.61453" lon="3.81629">
        <ele>40</ele>
        <time>2020-09-12T08:53:36.000Z</time>
      </trkpt>
      <trkpt lat="43.61451" lon="3.81637">
        <ele>40</ele>
        <time>2020-09-12T08:53:37.000Z</time>
      </trkpt>
      <trkpt lat="43.61451" lon="3.81646">
        <ele>40</ele>
        <time>2020-09-12T08:53:38.000Z</time>
      </trkpt>
      <trkpt lat="43.61451" lon="3.81654">
        <ele>40</ele>
        <time>2020-09-12T08:53:39.000Z</time>
      </trkpt>
      <trkpt lat="43.61451" lon="3.81663">
        <ele>40</ele>
        <time>2020-09-12T08:53:40.000Z</time>
      </trkpt>
      <trkpt lat="43.61451" lon="3.81671">
        <ele>39.973167580763</ele>
        <time>2020-09-12T08:53:41.000Z</time>
      </trkpt>
      <trkpt lat="43.6145" lon="3.81679">
        <ele>39.869968508597</ele>
        <time>2020-09-12T08:53:42.000Z</time>
      </trkpt>
      <trkpt lat="43.61447" lon="3.81686">
        <ele>39.766769436431</ele>
        <time>2020-09-12T08:53:43.000Z</time>
      </trkpt>
      <trkpt lat="43.61443" lon="3.8169">
        <ele>39.663570364265</ele>
        <time>2020-09-12T08:53:44.000Z</time>
      </trkpt>
      <trkpt lat="43.61438" lon="3.81691">
        <ele>39.560371292099</ele>
        <time>2020-09-12T08:53:45.000Z</time>
      </trkpt>
      <trkpt lat="43.61433" lon="3.81692">
        <ele>39.457172219933</ele>
        <time>2020-09-12T08:53:46.000Z</time>
      </trkpt>
      <trkpt lat="43.61429" lon="3.81692">
        <ele>39.353973147767</ele>
        <time>2020-09-12T08:53:47.000Z</time>
      </trkpt>
      <trkpt lat="43.61424" lon="3.81693">
        <ele>39.250774075601</ele>
        <time>2020-09-12T08:53:48.000Z</time>
      </trkpt>
      <trkpt lat="43.6142" lon="3.81693">
        <ele>39.147575003434</ele>
        <time>2020-09-12T08:53:49.000Z</time>
      </trkpt>
      <trkpt lat="43.61417" lon="3.81694">
        <ele>39.044375931268</ele>
        <time>2020-09-12T08:53:50.000Z</time>
      </trkpt>
      <trkpt lat="43.61415" lon="3.81695">
        <ele>39.056885944518</ele>
        <time>2020-09-12T08:53:51.000Z</time>
      </trkpt>
      <trkpt lat="43.61415" lon="3.81699">
        <ele>39.256486870411</ele>
        <time>2020-09-12T08:53:53.000Z</time>
      </trkpt>
      <trkpt lat="43.61416" lon="3.81703">
        <ele>39.356287333357</ele>
        <time>2020-09-12T08:53:54.000Z</time>
      </trkpt>
      <trkpt lat="43.61415" lon="3.81708">
        <ele>39.456087796304</ele>
        <time>2020-09-12T08:53:55.000Z</time>
      </trkpt>
      <trkpt lat="43.61414" lon="3.81712">
        <ele>39.55588825925</ele>
        <time>2020-09-12T08:53:56.000Z</time>
      </trkpt>
      <trkpt lat="43.61413" lon="3.81717">
        <ele>39.655688722196</ele>
        <time>2020-09-12T08:53:57.000Z</time>
      </trkpt>
      <trkpt lat="43.61411" lon="3.81722">
        <ele>39.755489185143</ele>
        <time>2020-09-12T08:53:58.000Z</time>
      </trkpt>
      <trkpt lat="43.61409" lon="3.81726">
        <ele>39.855289648089</ele>
        <time>2020-09-12T08:53:59.000Z</time>
      </trkpt>
      <trkpt lat="43.61406" lon="3.81729">
        <ele>39.955090111036</ele>
        <time>2020-09-12T08:54:00.000Z</time>
      </trkpt>
      <trkpt lat="43.61404" lon="3.81732">
        <ele>40</ele>
        <time>2020-09-12T08:54:01.000Z</time>
      </trkpt>
      <trkpt lat="43.61401" lon="3.81735">
        <ele>40</ele>
        <time>2020-09-12T08:54:02.000Z</time>
      </trkpt>
      <trkpt lat="43.61398" lon="3.81737">
        <ele>40</ele>
        <time>2020-09-12T08:54:03.000Z</time>
      </trkpt>
      <trkpt lat="43.61395" lon="3.81739">
        <ele>40</ele>
        <time>2020-09-12T08:54:04.000Z</time>
      </trkpt>
      <trkpt lat="43.61393" lon="3.81741">
        <ele>40</ele>
        <time>2020-09-12T08:54:05.000Z</time>
      </trkpt>
      <trkpt lat="43.6139" lon="3.81743">
        <ele>40</ele>
        <time>2020-09-12T08:54:06.000Z</time>
      </trkpt>
      <trkpt lat="43.61386" lon="3.81745">
        <ele>40</ele>
        <time>2020-09-12T08:54:07.000Z</time>
      </trkpt>
      <trkpt lat="43.61382" lon="3.81747">
        <ele>40</ele>
        <time>2020-09-12T08:54:08.000Z</time>
      </trkpt>
      <trkpt lat="43.61378" lon="3.81749">
        <ele>40</ele>
        <time>2020-09-12T08:54:09.000Z</time>
      </trkpt>
      <trkpt lat="43.61373" lon="3.8175">
        <ele>40</ele>
        <time>2020-09-12T08:54:10.000Z</time>
      </trkpt>
      <trkpt lat="43.61369" lon="3.81751">
        <ele>39.94617595583</ele>
        <time>2020-09-12T08:54:11.000Z</time>
      </trkpt>
      <trkpt lat="43.61365" lon="3.81752">
        <ele>39.851747278037</ele>
        <time>2020-09-12T08:54:12.000Z</time>
      </trkpt>
      <trkpt lat="43.6136" lon="3.81753">
        <ele>39.757318600244</ele>
        <time>2020-09-12T08:54:13.000Z</time>
      </trkpt>
      <trkpt lat="43.61356" lon="3.81754">
        <ele>39.662889922451</ele>
        <time>2020-09-12T08:54:14.000Z</time>
      </trkpt>
      <trkpt lat="43.61352" lon="3.81755">
        <ele>39.568461244658</ele>
        <time>2020-09-12T08:54:15.000Z</time>
      </trkpt>
      <trkpt lat="43.61348" lon="3.81755">
        <ele>39.474032566865</ele>
        <time>2020-09-12T08:54:16.000Z</time>
      </trkpt>
      <trkpt lat="43.61344" lon="3.81756">
        <ele>39.379603889071</ele>
        <time>2020-09-12T08:54:17.000Z</time>
      </trkpt>
      <trkpt lat="43.6134" lon="3.81757">
        <ele>39.285175211278</ele>
        <time>2020-09-12T08:54:18.000Z</time>
      </trkpt>
      <trkpt lat="43.61336" lon="3.81757">
        <ele>39.190746533486</ele>
        <time>2020-09-12T08:54:19.000Z</time>
      </trkpt>
      <trkpt lat="43.61332" lon="3.81757">
        <ele>39.096317855692</ele>
        <time>2020-09-12T08:54:20.000Z</time>
      </trkpt>
      <trkpt lat="43.61328" lon="3.81756">
        <ele>39.001889177899</ele>
        <time>2020-09-12T08:54:21.000Z</time>
      </trkpt>
      <trkpt lat="43.61324" lon="3.81757">
        <ele>38.896076924956</ele>
        <time>2020-09-12T08:54:22.000Z</time>
      </trkpt>
      <trkpt lat="43.61321" lon="3.81757">
        <ele>38.790032278294</ele>
        <time>2020-09-12T08:54:23.000Z</time>
      </trkpt>
      <trkpt lat="43.61317" lon="3.81757">
        <ele>38.683987631631</ele>
        <time>2020-09-12T08:54:24.000Z</time>
      </trkpt>
      <trkpt lat="43.61313" lon="3.81757">
        <ele>38.577942984969</ele>
        <time>2020-09-12T08:54:25.000Z</time>
      </trkpt>
      <trkpt lat="43.61309" lon="3.81757">
        <ele>38.471898338306</ele>
        <time>2020-09-12T08:54:26.000Z</time>
      </trkpt>
      <trkpt lat="43.61306" lon="3.81757">
        <ele>38.365853691643</ele>
        <time>2020-09-12T08:54:27.000Z</time>
      </trkpt>
      <trkpt lat="43.61302" lon="3.81758">
        <ele>38.259809044981</ele>
        <time>2020-09-12T08:54:28.000Z</time>
      </trkpt>
      <trkpt lat="43.61298" lon="3.81758">
        <ele>38.153764398318</ele>
        <time>2020-09-12T08:54:29.000Z</time>
      </trkpt>
      <trkpt lat="43.61294" lon="3.81758">
        <ele>38.047719751655</ele>
        <time>2020-09-12T08:54:30.000Z</time>
      </trkpt>
      <trkpt lat="43.61291" lon="3.81758">
        <ele>38.055110505741</ele>
        <time>2020-09-12T08:54:31.000Z</time>
      </trkpt>
      <trkpt lat="43.61287" lon="3.81759">
        <ele>38.155310842286</ele>
        <time>2020-09-12T08:54:32.000Z</time>
      </trkpt>
      <trkpt lat="43.61283" lon="3.8176">
        <ele>38.255511178831</ele>
        <time>2020-09-12T08:54:33.000Z</time>
      </trkpt>
      <trkpt lat="43.6128" lon="3.8176">
        <ele>38.355711515375</ele>
        <time>2020-09-12T08:54:34.000Z</time>
      </trkpt>
      <trkpt lat="43.61276" lon="3.81761">
        <ele>38.45591185192</ele>
        <time>2020-09-12T08:54:35.000Z</time>
      </trkpt>
      <trkpt lat="43.61273" lon="3.81762">
        <ele>38.556112188465</ele>
        <time>2020-09-12T08:54:36.000Z</time>
      </trkpt>
      <trkpt lat="43.61269" lon="3.81763">
        <ele>38.65631252501</ele>
        <time>2020-09-12T08:54:37.000Z</time>
      </trkpt>
      <trkpt lat="43.61265" lon="3.81765">
        <ele>38.756512861555</ele>
        <time>2020-09-12T08:54:38.000Z</time>
      </trkpt>
      <trkpt lat="43.61261" lon="3.81767">
        <ele>38.8567131981</ele>
        <time>2020-09-12T08:54:39.000Z</time>
      </trkpt>
      <trkpt lat="43.61257" lon="3.81769">
        <ele>38.956913534645</ele>
        <time>2020-09-12T08:54:40.000Z</time>
      </trkpt>
      <trkpt lat="43.61254" lon="3.81771">
        <ele>39.05699968</ele>
        <time>2020-09-12T08:54:41.000Z</time>
      </trkpt>
      <trkpt lat="43.6125" lon="3.81774">
        <ele>39.15699968</ele>
        <time>2020-09-12T08:54:42.000Z</time>
      </trkpt>
      <trkpt lat="43.61246" lon="3.81776">
        <ele>39.25699968</ele>
        <time>2020-09-12T08:54:43.000Z</time>
      </trkpt>
      <trkpt lat="43.61242" lon="3.81779">
        <ele>39.35699968</ele>
        <time>2020-09-12T08:54:44.000Z</time>
      </trkpt>
      <trkpt lat="43.61238" lon="3.81782">
        <ele>39.45699968</ele>
        <time>2020-09-12T08:54:45.000Z</time>
      </trkpt>
      <trkpt lat="43.61234" lon="3.81785">
        <ele>39.55699968</ele>
        <time>2020-09-12T08:54:46.000Z</time>
      </trkpt>
      <trkpt lat="43.6123" lon="3.81788">
        <ele>39.65699968</ele>
        <time>2020-09-12T08:54:47.000Z</time>
      </trkpt>
      <trkpt lat="43.61226" lon="3.81791">
        <ele>39.75699968</ele>
        <time>2020-09-12T08:54:48.000Z</time>
      </trkpt>
      <trkpt lat="43.61222" lon="3.81794">
        <ele>39.85699968</ele>
        <time>2020-09-12T08:54:49.000Z</time>
      </trkpt>
      <trkpt lat="43.61218" lon="3.81797">
        <ele>39.95699968</ele>
        <time>2020-09-12T08:54:50.000Z</time>
      </trkpt>
      <trkpt lat="43.61214" lon="3.81801">
        <ele>39.944660470469</ele>
        <time>2020-09-12T08:54:51.000Z</time>
      </trkpt>
      <trkpt lat="43.61209" lon="3.81804">
        <ele>39.847573031502</ele>
        <time>2020-09-12T08:54:52.000Z</time>
      </trkpt>
      <trkpt lat="43.61205" lon="3.81808">
        <ele>39.750485592535</ele>
        <time>2020-09-12T08:54:53.000Z</time>
      </trkpt>
      <trkpt lat="43.61201" lon="3.81811">
        <ele>39.653398153568</ele>
        <time>2020-09-12T08:54:54.000Z</time>
      </trkpt>
      <trkpt lat="43.61197" lon="3.81814">
        <ele>39.556310714601</ele>
        <time>2020-09-12T08:54:55.000Z</time>
      </trkpt>
      <trkpt lat="43.61193" lon="3.81818">
        <ele>39.459223275634</ele>
        <time>2020-09-12T08:54:56.000Z</time>
      </trkpt>
      <trkpt lat="43.61189" lon="3.81821">
        <ele>39.362135836667</ele>
        <time>2020-09-12T08:54:57.000Z</time>
      </trkpt>
      <trkpt lat="43.61184" lon="3.81824">
        <ele>39.2650483977</ele>
        <time>2020-09-12T08:54:58.000Z</time>
      </trkpt>
      <trkpt lat="43.6118" lon="3.81827">
        <ele>39.167960958733</ele>
        <time>2020-09-12T08:54:59.000Z</time>
      </trkpt>
      <trkpt lat="43.61176" lon="3.8183">
        <ele>39.070873519766</ele>
        <time>2020-09-12T08:55:00.000Z</time>
      </trkpt>
      <trkpt lat="43.61172" lon="3.81833">
        <ele>39</ele>
        <time>2020-09-12T08:55:01.000Z</time>
      </trkpt>
      <trkpt lat="43.61168" lon="3.81837">
        <ele>39</ele>
        <time>2020-09-12T08:55:02.000Z</time>
      </trkpt>
      <trkpt lat="43.61164" lon="3.8184">
        <ele>39</ele>
        <time>2020-09-12T08:55:03.000Z</time>
      </trkpt>
      <trkpt lat="43.6116" lon="3.81843">
        <ele>39</ele>
        <time>2020-09-12T08:55:04.000Z</time>
      </trkpt>
      <trkpt lat="43.61155" lon="3.81846">
        <ele>39</ele>
        <time>2020-09-12T08:55:05.000Z</time>
      </trkpt>
      <trkpt lat="43.61151" lon="3.81849">
        <ele>39</ele>
        <time>2020-09-12T08:55:06.000Z</time>
      </trkpt>
      <trkpt lat="43.61147" lon="3.81852">
        <ele>39</ele>
        <time>2020-09-12T08:55:07.000Z</time>
      </trkpt>
      <trkpt lat="43.61143" lon="3.81855">
        <ele>39</ele>
        <time>2020-09-12T08:55:08.000Z</time>
      </trkpt>
      <trkpt lat="43.61139" lon="3.81858">
        <ele>39</ele>
        <time>2020-09-12T08:55:09.000Z</time>
      </trkpt>
      <trkpt lat="43.61136" lon="3.8186">
        <ele>39</ele>
        <time>2020-09-12T08:55:10.000Z</time>
      </trkpt>
      <trkpt lat="43.61132" lon="3.81863">
        <ele>38.944606707749</ele>
        <time>2020-09-12T08:55:11.000Z</time>
      </trkpt>
      <trkpt lat="43.61129" lon="3.81866">
        <ele>38.847424947693</ele>
        <time>2020-09-12T08:55:12.000Z</time>
      </trkpt>
      <trkpt lat="43.61126" lon="3.81869">
        <ele>38.750243187636</ele>
        <time>2020-09-12T08:55:13.000Z</time>
      </trkpt>
      <trkpt lat="43.61122" lon="3.81871">
        <ele>38.65306142758</ele>
        <time>2020-09-12T08:55:14.000Z</time>
      </trkpt>
      <trkpt lat="43.61118" lon="3.81873">
        <ele>38.555879667523</ele>
        <time>2020-09-12T08:55:15.000Z</time>
      </trkpt>
      <trkpt lat="43.61115" lon="3.81874">
        <ele>38.458697907467</ele>
        <time>2020-09-12T08:55:16.000Z</time>
      </trkpt>
      <trkpt lat="43.6111" lon="3.81874">
        <ele>38.36151614741</ele>
        <time>2020-09-12T08:55:17.000Z</time>
      </trkpt>
      <trkpt lat="43.61106" lon="3.81875">
        <ele>38.264334387354</ele>
        <time>2020-09-12T08:55:18.000Z</time>
      </trkpt>
      <trkpt lat="43.61103" lon="3.81876">
        <ele>38.167152627297</ele>
        <time>2020-09-12T08:55:19.000Z</time>
      </trkpt>
      <trkpt lat="43.61099" lon="3.81877">
        <ele>38.069970867241</ele>
        <time>2020-09-12T08:55:20.000Z</time>
      </trkpt>
      <trkpt lat="43.61095" lon="3.81879">
        <ele>38</ele>
        <time>2020-09-12T08:55:21.000Z</time>
      </trkpt>
      <trkpt lat="43.61092" lon="3.8188">
        <ele>38</ele>
        <time>2020-09-12T08:55:22.000Z</time>
      </trkpt>
      <trkpt lat="43.61088" lon="3.81881">
        <ele>38</ele>
        <time>2020-09-12T08:55:23.000Z</time>
      </trkpt>
      <trkpt lat="43.61085" lon="3.81882">
        <ele>38</ele>
        <time>2020-09-12T08:55:24.000Z</time>
      </trkpt>
      <trkpt lat="43.61081" lon="3.81883">
        <ele>38</ele>
        <time>2020-09-12T08:55:25.000Z</time>
      </trkpt>
      <trkpt lat="43.61077" lon="3.81884">
        <ele>38</ele>
        <time>2020-09-12T08:55:26.000Z</time>
      </trkpt>
      <trkpt lat="43.61074" lon="3.81886">
        <ele>38</ele>
        <time>2020-09-12T08:55:27.000Z</time>
      </trkpt>
      <trkpt lat="43.61071" lon="3.81887">
        <ele>38</ele>
        <time>2020-09-12T08:55:28.000Z</time>
      </trkpt>
      <trkpt lat="43.61067" lon="3.81888">
        <ele>38</ele>
        <time>2020-09-12T08:55:29.000Z</time>
      </trkpt>
      <trkpt lat="43.61064" lon="3.81889">
        <ele>38</ele>
        <time>2020-09-12T08:55:30.000Z</time>
      </trkpt>
      <trkpt lat="43.61061" lon="3.81891">
        <ele>37.94921875</ele>
        <time>2020-09-12T08:55:31.000Z</time>
      </trkpt>
      <trkpt lat="43.61057" lon="3.81893">
        <ele>37.8515625</ele>
        <time>2020-09-12T08:55:32.000Z</time>
      </trkpt>
      <trkpt lat="43.61054" lon="3.81894">
        <ele>37.75390625</ele>
        <time>2020-09-12T08:55:33.000Z</time>
      </trkpt>
      <trkpt lat="43.61051" lon="3.81896">
        <ele>37.65625</ele>
        <time>2020-09-12T08:55:34.000Z</time>
      </trkpt>
      <trkpt lat="43.61047" lon="3.81897">
        <ele>37.55859375</ele>
        <time>2020-09-12T08:55:35.000Z</time>
      </trkpt>
      <trkpt lat="43.61044" lon="3.81899">
        <ele>37.4609375</ele>
        <time>2020-09-12T08:55:36.000Z</time>
      </trkpt>
      <trkpt lat="43.61041" lon="3.819">
        <ele>37.36328125</ele>
        <time>2020-09-12T08:55:37.000Z</time>
      </trkpt>
      <trkpt lat="43.61038" lon="3.81901">
        <ele>37.265625</ele>
        <time>2020-09-12T08:55:38.000Z</time>
      </trkpt>
      <trkpt lat="43.61035" lon="3.81903">
        <ele>37.16796875</ele>
        <time>2020-09-12T08:55:39.000Z</time>
      </trkpt>
      <trkpt lat="43.61032" lon="3.81904">
        <ele>37.0703125</ele>
        <time>2020-09-12T08:55:40.000Z</time>
      </trkpt>
      <trkpt lat="43.61029" lon="3.81905">
        <ele>37.028836241784</ele>
        <time>2020-09-12T08:55:41.000Z</time>
      </trkpt>
      <trkpt lat="43.61025" lon="3.81907">
        <ele>37.131822819585</ele>
        <time>2020-09-12T08:55:42.000Z</time>
      </trkpt>
      <trkpt lat="43.61022" lon="3.8191">
        <ele>37.234809397385</ele>
        <time>2020-09-12T08:55:43.000Z</time>
      </trkpt>
      <trkpt lat="43.61018" lon="3.81912">
        <ele>37.337795975186</ele>
        <time>2020-09-12T08:55:44.000Z</time>
      </trkpt>
      <trkpt lat="43.61015" lon="3.81914">
        <ele>37.440782552986</ele>
        <time>2020-09-12T08:55:45.000Z</time>
      </trkpt>
      <trkpt lat="43.61012" lon="3.81915">
        <ele>37.543769130787</ele>
        <time>2020-09-12T08:55:46.000Z</time>
      </trkpt>
      <trkpt lat="43.61009" lon="3.81916">
        <ele>37.646755708587</ele>
        <time>2020-09-12T08:55:47.000Z</time>
      </trkpt>
      <trkpt lat="43.61006" lon="3.81918">
        <ele>37.749742286388</ele>
        <time>2020-09-12T08:55:48.000Z</time>
      </trkpt>
      <trkpt lat="43.61004" lon="3.81919">
        <ele>37.852728864188</ele>
        <time>2020-09-12T08:55:49.000Z</time>
      </trkpt>
      <trkpt lat="43.61001" lon="3.81919">
        <ele>37.94300032</ele>
        <time>2020-09-12T08:55:51.000Z</time>
      </trkpt>
      <trkpt lat="43.60999" lon="3.81923">
        <ele>37.74300032</ele>
        <time>2020-09-12T08:55:53.000Z</time>
      </trkpt>
      <trkpt lat="43.60997" lon="3.81926">
        <ele>37.64300032</ele>
        <time>2020-09-12T08:55:54.000Z</time>
      </trkpt>
      <trkpt lat="43.60995" lon="3.81928">
        <ele>37.54300032</ele>
        <time>2020-09-12T08:55:55.000Z</time>
      </trkpt>
      <trkpt lat="43.60993" lon="3.8193">
        <ele>37.44300032</ele>
        <time>2020-09-12T08:55:56.000Z</time>
      </trkpt>
      <trkpt lat="43.6099" lon="3.81931">
        <ele>37.34300032</ele>
        <time>2020-09-12T08:55:57.000Z</time>
      </trkpt>
      <trkpt lat="43.60987" lon="3.81932">
        <ele>37.24300032</ele>
        <time>2020-09-12T08:55:58.000Z</time>
      </trkpt>
      <trkpt lat="43.60984" lon="3.81933">
        <ele>37.14300032</ele>
        <time>2020-09-12T08:55:59.000Z</time>
      </trkpt>
      <trkpt lat="43.60981" lon="3.81933">
        <ele>37.04300032</ele>
        <time>2020-09-12T08:56:00.000Z</time>
      </trkpt>
      <trkpt lat="43.60978" lon="3.81934">
        <ele>36.94300032</ele>
        <time>2020-09-12T08:56:01.000Z</time>
      </trkpt>
      <trkpt lat="43.60975" lon="3.81934">
        <ele>36.84300032</ele>
        <time>2020-09-12T08:56:02.000Z</time>
      </trkpt>
      <trkpt lat="43.60972" lon="3.81935">
        <ele>36.74300032</ele>
        <time>2020-09-12T08:56:03.000Z</time>
      </trkpt>
      <trkpt lat="43.60969" lon="3.81936">
        <ele>36.64300032</ele>
        <time>2020-09-12T08:56:04.000Z</time>
      </trkpt>
      <trkpt lat="43.60965" lon="3.81937">
        <ele>36.54300032</ele>
        <time>2020-09-12T08:56:05.000Z</time>
      </trkpt>
      <trkpt lat="43.60962" lon="3.81938">
        <ele>36.44300032</ele>
        <time>2020-09-12T08:56:06.000Z</time>
      </trkpt>
      <trkpt lat="43.60958" lon="3.81939">
        <ele>36.34300032</ele>
        <time>2020-09-12T08:56:07.000Z</time>
      </trkpt>
      <trkpt lat="43.60954" lon="3.8194">
        <ele>36.24300032</ele>
        <time>2020-09-12T08:56:08.000Z</time>
      </trkpt>
      <trkpt lat="43.6095" lon="3.8194">
        <ele>36.14300032</ele>
        <time>2020-09-12T08:56:09.000Z</time>
      </trkpt>
      <trkpt lat="43.60948" lon="3.8194">
        <ele>36.04300032</ele>
        <time>2020-09-12T08:56:10.000Z</time>
      </trkpt>
      <trkpt lat="43.60946" lon="3.8194">
        <ele>36</ele>
        <time>2020-09-12T08:56:11.000Z</time>
      </trkpt>
      <trkpt lat="43.60943" lon="3.8194">
        <ele>36</ele>
        <time>2020-09-12T08:56:13.000Z</time>
      </trkpt>
      <trkpt lat="43.60941" lon="3.81939">
        <ele>36</ele>
        <time>2020-09-12T08:56:15.000Z</time>
      </trkpt>
      <trkpt lat="43.60938" lon="3.8194">
        <ele>36</ele>
        <time>2020-09-12T08:56:17.000Z</time>
      </trkpt>
      <trkpt lat="43.60935" lon="3.81943">
        <ele>36</ele>
        <time>2020-09-12T08:56:19.000Z</time>
      </trkpt>
      <trkpt lat="43.60933" lon="3.81945">
        <ele>36</ele>
        <time>2020-09-12T08:56:20.000Z</time>
      </trkpt>
      <trkpt lat="43.60931" lon="3.81947">
        <ele>35.94300032</ele>
        <time>2020-09-12T08:56:21.000Z</time>
      </trkpt>
      <trkpt lat="43.60929" lon="3.81948">
        <ele>35.84300032</ele>
        <time>2020-09-12T08:56:22.000Z</time>
      </trkpt>
      <trkpt lat="43.60927" lon="3.81949">
        <ele>35.74300032</ele>
        <time>2020-09-12T08:56:23.000Z</time>
      </trkpt>
      <trkpt lat="43.60924" lon="3.8195">
        <ele>35.64300032</ele>
        <time>2020-09-12T08:56:24.000Z</time>
      </trkpt>
      <trkpt lat="43.60921" lon="3.81951">
        <ele>35.54300032</ele>
        <time>2020-09-12T08:56:25.000Z</time>
      </trkpt>
      <trkpt lat="43.60919" lon="3.8195">
        <ele>35.44300032</ele>
        <time>2020-09-12T08:56:26.000Z</time>
      </trkpt>
      <trkpt lat="43.60917" lon="3.81949">
        <ele>35.34300032</ele>
        <time>2020-09-12T08:56:27.000Z</time>
      </trkpt>
      <trkpt lat="43.60914" lon="3.8195">
        <ele>35.14300032</ele>
        <time>2020-09-12T08:56:29.000Z</time>
      </trkpt>
      <trkpt lat="43.6091" lon="3.81952">
        <ele>35</ele>
        <time>2020-09-12T08:56:31.000Z</time>
      </trkpt>
      <trkpt lat="43.60908" lon="3.81953">
        <ele>35</ele>
        <time>2020-09-12T08:56:32.000Z</time>
      </trkpt>
      <trkpt lat="43.60905" lon="3.81954">
        <ele>35</ele>
        <time>2020-09-12T08:56:33.000Z</time>
      </trkpt>
      <trkpt lat="43.60901" lon="3.81954">
        <ele>35</ele>
        <time>2020-09-12T08:56:34.000Z</time>
      </trkpt>
      <trkpt lat="43.60898" lon="3.81955">
        <ele>35</ele>
        <time>2020-09-12T08:56:35.000Z</time>
      </trkpt>
      <trkpt lat="43.60895" lon="3.81957">
        <ele>35</ele>
        <time>2020-09-12T08:56:36.000Z</time>
      </trkpt>
      <trkpt lat="43.60893" lon="3.81958">
        <ele>35</ele>
        <time>2020-09-12T08:56:37.000Z</time>
      </trkpt>
      <trkpt lat="43.60891" lon="3.81959">
        <ele>35</ele>
        <time>2020-09-12T08:56:38.000Z</time>
      </trkpt>
      <trkpt lat="43.60889" lon="3.8196">
        <ele>35</ele>
        <time>2020-09-12T08:56:39.000Z</time>
      </trkpt>
      <trkpt lat="43.60886" lon="3.81959">
        <ele>35.056942755466</ele>
        <time>2020-09-12T08:56:41.000Z</time>
      </trkpt>
      <trkpt lat="43.60882" lon="3.81959">
        <ele>35.256743019139</ele>
        <time>2020-09-12T08:56:43.000Z</time>
      </trkpt>
      <trkpt lat="43.60879" lon="3.81957">
        <ele>35.456543282811</ele>
        <time>2020-09-12T08:56:45.000Z</time>
      </trkpt>
      <trkpt lat="43.60877" lon="3.81953">
        <ele>35.656343546483</ele>
        <time>2020-09-12T08:56:47.000Z</time>
      </trkpt>
      <trkpt lat="43.60876" lon="3.81951">
        <ele>35.956043941992</ele>
        <time>2020-09-12T08:56:50.000Z</time>
      </trkpt>
      <trkpt lat="43.60875" lon="3.81946">
        <ele>36</ele>
        <time>2020-09-12T08:56:53.000Z</time>
      </trkpt>
      <trkpt lat="43.60874" lon="3.81944">
        <ele>36</ele>
        <time>2020-09-12T08:56:54.000Z</time>
      </trkpt>
      <trkpt lat="43.60872" lon="3.81941">
        <ele>36</ele>
        <time>2020-09-12T08:56:55.000Z</time>
      </trkpt>
      <trkpt lat="43.60869" lon="3.8194">
        <ele>36</ele>
        <time>2020-09-12T08:56:56.000Z</time>
      </trkpt>
      <trkpt lat="43.60866" lon="3.8194">
        <ele>36</ele>
        <time>2020-09-12T08:56:57.000Z</time>
      </trkpt>
      <trkpt lat="43.60863" lon="3.81941">
        <ele>36</ele>
        <time>2020-09-12T08:56:58.000Z</time>
      </trkpt>
      <trkpt lat="43.6086" lon="3.81941">
        <ele>36</ele>
        <time>2020-09-12T08:56:59.000Z</time>
      </trkpt>
      <trkpt lat="43.60857" lon="3.81942">
        <ele>36</ele>
        <time>2020-09-12T08:57:00.000Z</time>
      </trkpt>
      <trkpt lat="43.60854" lon="3.81942">
        <ele>35.94300032</ele>
        <time>2020-09-12T08:57:01.000Z</time>
      </trkpt>
      <trkpt lat="43.60851" lon="3.81943">
        <ele>35.84300032</ele>
        <time>2020-09-12T08:57:02.000Z</time>
      </trkpt>
      <trkpt lat="43.60848" lon="3.81943">
        <ele>35.74300032</ele>
        <time>2020-09-12T08:57:03.000Z</time>
      </trkpt>
      <trkpt lat="43.60845" lon="3.81943">
        <ele>35.64300032</ele>
        <time>2020-09-12T08:57:04.000Z</time>
      </trkpt>
      <trkpt lat="43.60842" lon="3.81943">
        <ele>35.54300032</ele>
        <time>2020-09-12T08:57:05.000Z</time>
      </trkpt>
      <trkpt lat="43.60838" lon="3.81943">
        <ele>35.44300032</ele>
        <time>2020-09-12T08:57:06.000Z</time>
      </trkpt>
      <trkpt lat="43.60835" lon="3.81942">
        <ele>35.34300032</ele>
        <time>2020-09-12T08:57:07.000Z</time>
      </trkpt>
      <trkpt lat="43.60831" lon="3.81942">
        <ele>35.24300032</ele>
        <time>2020-09-12T08:57:08.000Z</time>
      </trkpt>
      <trkpt lat="43.60828" lon="3.81941">
        <ele>35.14300032</ele>
        <time>2020-09-12T08:57:09.000Z</time>
      </trkpt>
      <trkpt lat="43.60824" lon="3.81941">
        <ele>35.04300032</ele>
        <time>2020-09-12T08:57:10.000Z</time>
      </trkpt>
      <trkpt lat="43.6082" lon="3.8194">
        <ele>34.944714128929</ele>
        <time>2020-09-12T08:57:11.000Z</time>
      </trkpt>
      <trkpt lat="43.60817" lon="3.81939">
        <ele>34.84772082814</ele>
        <time>2020-09-12T08:57:12.000Z</time>
      </trkpt>
      <trkpt lat="43.60813" lon="3.81938">
        <ele>34.750727527351</ele>
        <time>2020-09-12T08:57:13.000Z</time>
      </trkpt>
      <trkpt lat="43.60809" lon="3.81937">
        <ele>34.653734226561</ele>
        <time>2020-09-12T08:57:14.000Z</time>
      </trkpt>
      <trkpt lat="43.60805" lon="3.81937">
        <ele>34.556740925772</ele>
        <time>2020-09-12T08:57:15.000Z</time>
      </trkpt>
      <trkpt lat="43.60801" lon="3.81936">
        <ele>34.459747624983</ele>
        <time>2020-09-12T08:57:16.000Z</time>
      </trkpt>
      <trkpt lat="43.60797" lon="3.81934">
        <ele>34.362754324194</ele>
        <time>2020-09-12T08:57:17.000Z</time>
      </trkpt>
      <trkpt lat="43.60794" lon="3.81932">
        <ele>34.265761023405</ele>
        <time>2020-09-12T08:57:18.000Z</time>
      </trkpt>
      <trkpt lat="43.6079" lon="3.8193">
        <ele>34.168767722616</ele>
        <time>2020-09-12T08:57:19.000Z</time>
      </trkpt>
      <trkpt lat="43.60787" lon="3.81928">
        <ele>34.071774421827</ele>
        <time>2020-09-12T08:57:20.000Z</time>
      </trkpt>
      <trkpt lat="43.60784" lon="3.81926">
        <ele>34.026832419237</ele>
        <time>2020-09-12T08:57:21.000Z</time>
      </trkpt>
      <trkpt lat="43.60781" lon="3.81924">
        <ele>34.130031491403</ele>
        <time>2020-09-12T08:57:22.000Z</time>
      </trkpt>
      <trkpt lat="43.60778" lon="3.81922">
        <ele>34.233230563569</ele>
        <time>2020-09-12T08:57:23.000Z</time>
      </trkpt>
      <trkpt lat="43.60775" lon="3.81919">
        <ele>34.336429635735</ele>
        <time>2020-09-12T08:57:24.000Z</time>
      </trkpt>
      <trkpt lat="43.60772" lon="3.81917">
        <ele>34.439628707901</ele>
        <time>2020-09-12T08:57:25.000Z</time>
      </trkpt>
      <trkpt lat="43.60769" lon="3.81914">
        <ele>34.542827780067</ele>
        <time>2020-09-12T08:57:26.000Z</time>
      </trkpt>
      <trkpt lat="43.60766" lon="3.81912">
        <ele>34.646026852233</ele>
        <time>2020-09-12T08:57:27.000Z</time>
      </trkpt>
      <trkpt lat="43.60764" lon="3.81909">
        <ele>34.749225924399</ele>
        <time>2020-09-12T08:57:28.000Z</time>
      </trkpt>
      <trkpt lat="43.60761" lon="3.81907">
        <ele>34.852424996566</ele>
        <time>2020-09-12T08:57:29.000Z</time>
      </trkpt>
      <trkpt lat="43.60758" lon="3.81904">
        <ele>34.955624068732</ele>
        <time>2020-09-12T08:57:30.000Z</time>
      </trkpt>
      <trkpt lat="43.60756" lon="3.81901">
        <ele>35</ele>
        <time>2020-09-12T08:57:31.000Z</time>
      </trkpt>
      <trkpt lat="43.60753" lon="3.81898">
        <ele>35</ele>
        <time>2020-09-12T08:57:32.000Z</time>
      </trkpt>
      <trkpt lat="43.60751" lon="3.81896">
        <ele>35</ele>
        <time>2020-09-12T08:57:33.000Z</time>
      </trkpt>
      <trkpt lat="43.60749" lon="3.81893">
        <ele>35</ele>
        <time>2020-09-12T08:57:34.000Z</time>
      </trkpt>
      <trkpt lat="43.60747" lon="3.8189">
        <ele>35</ele>
        <time>2020-09-12T08:57:35.000Z</time>
      </trkpt>
      <trkpt lat="43.60745" lon="3.81887">
        <ele>35</ele>
        <time>2020-09-12T08:57:36.000Z</time>
      </trkpt>
      <trkpt lat="43.60743" lon="3.81884">
        <ele>35</ele>
        <time>2020-09-12T08:57:37.000Z</time>
      </trkpt>
      <trkpt lat="43.60742" lon="3.81881">
        <ele>35</ele>
        <time>2020-09-12T08:57:38.000Z</time>
      </trkpt>
      <trkpt lat="43.6074" lon="3.81878">
        <ele>35</ele>
        <time>2020-09-12T08:57:39.000Z</time>
      </trkpt>
      <trkpt lat="43.60738" lon="3.81875">
        <ele>35</ele>
        <time>2020-09-12T08:57:40.000Z</time>
      </trkpt>
      <trkpt lat="43.60737" lon="3.81872">
        <ele>34.94300032</ele>
        <time>2020-09-12T08:57:41.000Z</time>
      </trkpt>
      <trkpt lat="43.60735" lon="3.81868">
        <ele>34.84300032</ele>
        <time>2020-09-12T08:57:42.000Z</time>
      </trkpt>
      <trkpt lat="43.60733" lon="3.81865">
        <ele>34.74300032</ele>
        <time>2020-09-12T08:57:43.000Z</time>
      </trkpt>
      <trkpt lat="43.60731" lon="3.81861">
        <ele>34.64300032</ele>
        <time>2020-09-12T08:57:44.000Z</time>
      </trkpt>
      <trkpt lat="43.60729" lon="3.81858">
        <ele>34.54300032</ele>
        <time>2020-09-12T08:57:45.000Z</time>
      </trkpt>
      <trkpt lat="43.60727" lon="3.81854">
        <ele>34.44300032</ele>
        <time>2020-09-12T08:57:46.000Z</time>
      </trkpt>
      <trkpt lat="43.60725" lon="3.81851">
        <ele>34.34300032</ele>
        <time>2020-09-12T08:57:47.000Z</time>
      </trkpt>
      <trkpt lat="43.60722" lon="3.81847">
        <ele>34.24300032</ele>
        <time>2020-09-12T08:57:48.000Z</time>
      </trkpt>
      <trkpt lat="43.6072" lon="3.81844">
        <ele>34.14300032</ele>
        <time>2020-09-12T08:57:49.000Z</time>
      </trkpt>
      <trkpt lat="43.60718" lon="3.81841">
        <ele>34.04300032</ele>
        <time>2020-09-12T08:57:50.000Z</time>
      </trkpt>
      <trkpt lat="43.60716" lon="3.81838">
        <ele>34</ele>
        <time>2020-09-12T08:57:51.000Z</time>
      </trkpt>
      <trkpt lat="43.60714" lon="3.81835">
        <ele>34</ele>
        <time>2020-09-12T08:57:52.000Z</time>
      </trkpt>
      <trkpt lat="43.60712" lon="3.81832">
        <ele>34</ele>
        <time>2020-09-12T08:57:53.000Z</time>
      </trkpt>
      <trkpt lat="43.6071" lon="3.81829">
        <ele>34</ele>
        <time>2020-09-12T08:57:54.000Z</time>
      </trkpt>
      <trkpt lat="43.60709" lon="3.81826">
        <ele>34</ele>
        <time>2020-09-12T08:57:55.000Z</time>
      </trkpt>
      <trkpt lat="43.60707" lon="3.81823">
        <ele>34</ele>
        <time>2020-09-12T08:57:56.000Z</time>
      </trkpt>
      <trkpt lat="43.60705" lon="3.8182">
        <ele>34</ele>
        <time>2020-09-12T08:57:57.000Z</time>
      </trkpt>
      <trkpt lat="43.60703" lon="3.81817">
        <ele>34</ele>
        <time>2020-09-12T08:57:58.000Z</time>
      </trkpt>
      <trkpt lat="43.60701" lon="3.81814">
        <ele>34</ele>
        <time>2020-09-12T08:57:59.000Z</time>
      </trkpt>
      <trkpt lat="43.607" lon="3.81811">
        <ele>34</ele>
        <time>2020-09-12T08:58:00.000Z</time>
      </trkpt>
      <trkpt lat="43.60698" lon="3.81808">
        <ele>34</ele>
        <time>2020-09-12T08:58:01.000Z</time>
      </trkpt>
      <trkpt lat="43.60697" lon="3.81804">
        <ele>34</ele>
        <time>2020-09-12T08:58:02.000Z</time>
      </trkpt>
      <trkpt lat="43.60695" lon="3.81801">
        <ele>34</ele>
        <time>2020-09-12T08:58:03.000Z</time>
      </trkpt>
      <trkpt lat="43.60694" lon="3.81798">
        <ele>34</ele>
        <time>2020-09-12T08:58:04.000Z</time>
      </trkpt>
      <trkpt lat="43.60692" lon="3.81796">
        <ele>34</ele>
        <time>2020-09-12T08:58:05.000Z</time>
      </trkpt>
      <trkpt lat="43.6069" lon="3.81793">
        <ele>34</ele>
        <time>2020-09-12T08:58:06.000Z</time>
      </trkpt>
      <trkpt lat="43.60688" lon="3.81789">
        <ele>34</ele>
        <time>2020-09-12T08:58:07.000Z</time>
      </trkpt>
      <trkpt lat="43.60686" lon="3.81787">
        <ele>34</ele>
        <time>2020-09-12T08:58:08.000Z</time>
      </trkpt>
      <trkpt lat="43.60684" lon="3.81786">
        <ele>34</ele>
        <time>2020-09-12T08:58:09.000Z</time>
      </trkpt>
      <trkpt lat="43.60681" lon="3.81786">
        <ele>34</ele>
        <time>2020-09-12T08:58:10.000Z</time>
      </trkpt>
      <trkpt lat="43.60678" lon="3.81788">
        <ele>34.016684040314</ele>
        <time>2020-09-12T08:58:11.000Z</time>
      </trkpt>
      <trkpt lat="43.60675" lon="3.8179">
        <ele>34.120959292276</ele>
        <time>2020-09-12T08:58:12.000Z</time>
      </trkpt>
      <trkpt lat="43.60673" lon="3.81793">
        <ele>34.225234544239</ele>
        <time>2020-09-12T08:58:13.000Z</time>
      </trkpt>
      <trkpt lat="43.6067" lon="3.81797">
        <ele>34.329509796201</ele>
        <time>2020-09-12T08:58:14.000Z</time>
      </trkpt>
      <trkpt lat="43.60668" lon="3.818">
        <ele>34.433785048164</ele>
        <time>2020-09-12T08:58:15.000Z</time>
      </trkpt>
      <trkpt lat="43.60666" lon="3.81803">
        <ele>34.538060300126</ele>
        <time>2020-09-12T08:58:16.000Z</time>
      </trkpt>
      <trkpt lat="43.60664" lon="3.81806">
        <ele>34.642335552088</ele>
        <time>2020-09-12T08:58:17.000Z</time>
      </trkpt>
      <trkpt lat="43.60647" lon="3.81847">
        <ele>35.753233752273</ele>
        <time>2020-09-12T08:58:28.000Z</time>
      </trkpt>
      <trkpt lat="43.60643" lon="3.81854">
        <ele>36.908542421373</ele>
        <time>2020-09-12T08:58:35.000Z</time>
      </trkpt>
      <trkpt lat="43.60644" lon="3.81855">
        <ele>38.022885537693</ele>
        <time>2020-09-12T08:58:42.000Z</time>
      </trkpt>
      <trkpt lat="43.60631" lon="3.81863">
        <ele>40.886735673469</ele>
        <time>2020-09-12T08:59:11.000Z</time>
      </trkpt>
      <trkpt lat="43.60629" lon="3.81866">
        <ele>40.58061322449</ele>
        <time>2020-09-12T08:59:12.000Z</time>
      </trkpt>
      <trkpt lat="43.60627" lon="3.81869">
        <ele>40.27449077551</ele>
        <time>2020-09-12T08:59:13.000Z</time>
      </trkpt>
      <trkpt lat="43.60625" lon="3.81872">
        <ele>39.968368326531</ele>
        <time>2020-09-12T08:59:14.000Z</time>
      </trkpt>
      <trkpt lat="43.60623" lon="3.81875">
        <ele>39.662245877551</ele>
        <time>2020-09-12T08:59:15.000Z</time>
      </trkpt>
      <trkpt lat="43.60621" lon="3.81877">
        <ele>39.356123428571</ele>
        <time>2020-09-12T08:59:16.000Z</time>
      </trkpt>
      <trkpt lat="43.60619" lon="3.8188">
        <ele>39.050000979592</ele>
        <time>2020-09-12T08:59:17.000Z</time>
      </trkpt>
      <trkpt lat="43.60617" lon="3.81883">
        <ele>38.743878530612</ele>
        <time>2020-09-12T08:59:18.000Z</time>
      </trkpt>
      <trkpt lat="43.60615" lon="3.81887">
        <ele>38.437756081633</ele>
        <time>2020-09-12T08:59:19.000Z</time>
      </trkpt>
      <trkpt lat="43.60613" lon="3.81891">
        <ele>38.131633632653</ele>
        <time>2020-09-12T08:59:20.000Z</time>
      </trkpt>
      <trkpt lat="43.60611" lon="3.81895">
        <ele>37.944606707749</ele>
        <time>2020-09-12T08:59:21.000Z</time>
      </trkpt>
      <trkpt lat="43.60609" lon="3.81899">
        <ele>37.847424947693</ele>
        <time>2020-09-12T08:59:22.000Z</time>
      </trkpt>
      <trkpt lat="43.60606" lon="3.81904">
        <ele>37.750243187636</ele>
        <time>2020-09-12T08:59:23.000Z</time>
      </trkpt>
      <trkpt lat="43.60604" lon="3.81908">
        <ele>37.65306142758</ele>
        <time>2020-09-12T08:59:24.000Z</time>
      </trkpt>
      <trkpt lat="43.60602" lon="3.81913">
        <ele>37.555879667523</ele>
        <time>2020-09-12T08:59:25.000Z</time>
      </trkpt>
      <trkpt lat="43.606" lon="3.81917">
        <ele>37.458697907467</ele>
        <time>2020-09-12T08:59:26.000Z</time>
      </trkpt>
      <trkpt lat="43.60597" lon="3.8192">
        <ele>37.36151614741</ele>
        <time>2020-09-12T08:59:27.000Z</time>
      </trkpt>
      <trkpt lat="43.60595" lon="3.81924">
        <ele>37.264334387354</ele>
        <time>2020-09-12T08:59:28.000Z</time>
      </trkpt>
      <trkpt lat="43.60593" lon="3.81928">
        <ele>37.167152627297</ele>
        <time>2020-09-12T08:59:29.000Z</time>
      </trkpt>
      <trkpt lat="43.60591" lon="3.8193">
        <ele>37.069970867241</ele>
        <time>2020-09-12T08:59:30.000Z</time>
      </trkpt>
      <trkpt lat="43.60588" lon="3.81933">
        <ele>36.971163758216</ele>
        <time>2020-09-12T08:59:31.000Z</time>
      </trkpt>
      <trkpt lat="43.60585" lon="3.81935">
        <ele>36.868177180415</ele>
        <time>2020-09-12T08:59:32.000Z</time>
      </trkpt>
      <trkpt lat="43.60582" lon="3.81936">
        <ele>36.765190602615</ele>
        <time>2020-09-12T08:59:33.000Z</time>
      </trkpt>
      <trkpt lat="43.60579" lon="3.81936">
        <ele>36.662204024814</ele>
        <time>2020-09-12T08:59:34.000Z</time>
      </trkpt>
      <trkpt lat="43.60577" lon="3.81936">
        <ele>36.559217447014</ele>
        <time>2020-09-12T08:59:35.000Z</time>
      </trkpt>
      <trkpt lat="43.60574" lon="3.81935">
        <ele>36.456230869213</ele>
        <time>2020-09-12T08:59:36.000Z</time>
      </trkpt>
      <trkpt lat="43.60571" lon="3.81934">
        <ele>36.353244291413</ele>
        <time>2020-09-12T08:59:37.000Z</time>
      </trkpt>
      <trkpt lat="43.60568" lon="3.81932">
        <ele>36.250257713612</ele>
        <time>2020-09-12T08:59:38.000Z</time>
      </trkpt>
      <trkpt lat="43.60566" lon="3.81929">
        <ele>36.147271135812</ele>
        <time>2020-09-12T08:59:39.000Z</time>
      </trkpt>
      <trkpt lat="43.60563" lon="3.81927">
        <ele>36.044284558011</ele>
        <time>2020-09-12T08:59:40.000Z</time>
      </trkpt>
      <trkpt lat="43.60561" lon="3.81924">
        <ele>35.94300032</ele>
        <time>2020-09-12T08:59:41.000Z</time>
      </trkpt>
      <trkpt lat="43.60558" lon="3.81922">
        <ele>35.84300032</ele>
        <time>2020-09-12T08:59:42.000Z</time>
      </trkpt>
      <trkpt lat="43.60555" lon="3.81919">
        <ele>35.74300032</ele>
        <time>2020-09-12T08:59:43.000Z</time>
      </trkpt>
      <trkpt lat="43.60553" lon="3.81917">
        <ele>35.64300032</ele>
        <time>2020-09-12T08:59:44.000Z</time>
      </trkpt>
      <trkpt lat="43.6055" lon="3.81914">
        <ele>35.54300032</ele>
        <time>2020-09-12T08:59:45.000Z</time>
      </trkpt>
      <trkpt lat="43.60548" lon="3.81911">
        <ele>35.44300032</ele>
        <time>2020-09-12T08:59:46.000Z</time>
      </trkpt>
      <trkpt lat="43.60545" lon="3.81908">
        <ele>35.34300032</ele>
        <time>2020-09-12T08:59:47.000Z</time>
      </trkpt>
      <trkpt lat="43.60543" lon="3.81905">
        <ele>35.24300032</ele>
        <time>2020-09-12T08:59:48.000Z</time>
      </trkpt>
      <trkpt lat="43.6054" lon="3.81901">
        <ele>35.14300032</ele>
        <time>2020-09-12T08:59:49.000Z</time>
      </trkpt>
      <trkpt lat="43.60538" lon="3.81898">
        <ele>35.04300032</ele>
        <time>2020-09-12T08:59:50.000Z</time>
      </trkpt>
      <trkpt lat="43.60535" lon="3.81895">
        <ele>35</ele>
        <time>2020-09-12T08:59:51.000Z</time>
      </trkpt>
      <trkpt lat="43.60533" lon="3.81892">
        <ele>35</ele>
        <time>2020-09-12T08:59:52.000Z</time>
      </trkpt>
      <trkpt lat="43.6053" lon="3.81889">
        <ele>35</ele>
        <time>2020-09-12T08:59:53.000Z</time>
      </trkpt>
      <trkpt lat="43.60528" lon="3.81886">
        <ele>35</ele>
        <time>2020-09-12T08:59:54.000Z</time>
      </trkpt>
      <trkpt lat="43.60525" lon="3.81882">
        <ele>35</ele>
        <time>2020-09-12T08:59:55.000Z</time>
      </trkpt>
      <trkpt lat="43.60523" lon="3.81879">
        <ele>35</ele>
        <time>2020-09-12T08:59:56.000Z</time>
      </trkpt>
      <trkpt lat="43.6052" lon="3.81876">
        <ele>35</ele>
        <time>2020-09-12T08:59:57.000Z</time>
      </trkpt>
      <trkpt lat="43.60518" lon="3.81873">
        <ele>35</ele>
        <time>2020-09-12T08:59:58.000Z</time>
      </trkpt>
      <trkpt lat="43.60515" lon="3.8187">
        <ele>35</ele>
        <time>2020-09-12T08:59:59.000Z</time>
      </trkpt>
      <trkpt lat="43.60512" lon="3.81867">
        <ele>35</ele>
        <time>2020-09-12T09:00:00.000Z</time>
      </trkpt>
      <trkpt lat="43.60509" lon="3.81864">
        <ele>35</ele>
        <time>2020-09-12T09:00:01.000Z</time>
      </trkpt>
      <trkpt lat="43.60506" lon="3.81862">
        <ele>35</ele>
        <time>2020-09-12T09:00:02.000Z</time>
      </trkpt>
      <trkpt lat="43.60503" lon="3.8186">
        <ele>35</ele>
        <time>2020-09-12T09:00:03.000Z</time>
      </trkpt>
      <trkpt lat="43.605" lon="3.81858">
        <ele>35</ele>
        <time>2020-09-12T09:00:04.000Z</time>
      </trkpt>
      <trkpt lat="43.60496" lon="3.81856">
        <ele>35</ele>
        <time>2020-09-12T09:00:05.000Z</time>
      </trkpt>
      <trkpt lat="43.60493" lon="3.81855">
        <ele>35</ele>
        <time>2020-09-12T09:00:06.000Z</time>
      </trkpt>
      <trkpt lat="43.6049" lon="3.81854">
        <ele>35</ele>
        <time>2020-09-12T09:00:07.000Z</time>
      </trkpt>
      <trkpt lat="43.60487" lon="3.81853">
        <ele>35</ele>
        <time>2020-09-12T09:00:08.000Z</time>
      </trkpt>
      <trkpt lat="43.60484" lon="3.81852">
        <ele>35</ele>
        <time>2020-09-12T09:00:09.000Z</time>
      </trkpt>
      <trkpt lat="43.60481" lon="3.81851">
        <ele>35</ele>
        <time>2020-09-12T09:00:10.000Z</time>
      </trkpt>
      <trkpt lat="43.60478" lon="3.8185">
        <ele>34.943114055482</ele>
        <time>2020-09-12T09:00:11.000Z</time>
      </trkpt>
      <trkpt lat="43.60474" lon="3.81849">
        <ele>34.843313592536</ele>
        <time>2020-09-12T09:00:12.000Z</time>
      </trkpt>
      <trkpt lat="43.60471" lon="3.81848">
        <ele>34.743513129589</ele>
        <time>2020-09-12T09:00:13.000Z</time>
      </trkpt>
      <trkpt lat="43.60468" lon="3.81847">
        <ele>34.643712666643</ele>
        <time>2020-09-12T09:00:14.000Z</time>
      </trkpt>
      <trkpt lat="43.60465" lon="3.81846">
        <ele>34.543912203696</ele>
        <time>2020-09-12T09:00:15.000Z</time>
      </trkpt>
      <trkpt lat="43.60462" lon="3.81845">
        <ele>34.44411174075</ele>
        <time>2020-09-12T09:00:16.000Z</time>
      </trkpt>
      <trkpt lat="43.60458" lon="3.81843">
        <ele>34.344311277804</ele>
        <time>2020-09-12T09:00:17.000Z</time>
      </trkpt>
      <trkpt lat="43.60455" lon="3.81842">
        <ele>34.244510814857</ele>
        <time>2020-09-12T09:00:18.000Z</time>
      </trkpt>
      <trkpt lat="43.60452" lon="3.8184">
        <ele>34.144710351911</ele>
        <time>2020-09-12T09:00:19.000Z</time>
      </trkpt>
      <trkpt lat="43.60448" lon="3.81839">
        <ele>34.044909888964</ele>
        <time>2020-09-12T09:00:20.000Z</time>
      </trkpt>
      <trkpt lat="43.60445" lon="3.81838">
        <ele>34</ele>
        <time>2020-09-12T09:00:21.000Z</time>
      </trkpt>
      <trkpt lat="43.60442" lon="3.81836">
        <ele>34</ele>
        <time>2020-09-12T09:00:22.000Z</time>
      </trkpt>
      <trkpt lat="43.60438" lon="3.81834">
        <ele>34</ele>
        <time>2020-09-12T09:00:23.000Z</time>
      </trkpt>
      <trkpt lat="43.60435" lon="3.81833">
        <ele>34</ele>
        <time>2020-09-12T09:00:24.000Z</time>
      </trkpt>
      <trkpt lat="43.60432" lon="3.81832">
        <ele>34</ele>
        <time>2020-09-12T09:00:25.000Z</time>
      </trkpt>
      <trkpt lat="43.60428" lon="3.81831">
        <ele>34</ele>
        <time>2020-09-12T09:00:26.000Z</time>
      </trkpt>
      <trkpt lat="43.60425" lon="3.81829">
        <ele>34</ele>
        <time>2020-09-12T09:00:27.000Z</time>
      </trkpt>
      <trkpt lat="43.60421" lon="3.81828">
        <ele>34</ele>
        <time>2020-09-12T09:00:28.000Z</time>
      </trkpt>
      <trkpt lat="43.60418" lon="3.81828">
        <ele>34</ele>
        <time>2020-09-12T09:00:29.000Z</time>
      </trkpt>
      <trkpt lat="43.60415" lon="3.81827">
        <ele>34</ele>
        <time>2020-09-12T09:00:30.000Z</time>
      </trkpt>
      <trkpt lat="43.60412" lon="3.81826">
        <ele>33.94300032</ele>
        <time>2020-09-12T09:00:31.000Z</time>
      </trkpt>
      <trkpt lat="43.60408" lon="3.81825">
        <ele>33.84300032</ele>
        <time>2020-09-12T09:00:32.000Z</time>
      </trkpt>
      <trkpt lat="43.60405" lon="3.81824">
        <ele>33.74300032</ele>
        <time>2020-09-12T09:00:33.000Z</time>
      </trkpt>
      <trkpt lat="43.60402" lon="3.81823">
        <ele>33.64300032</ele>
        <time>2020-09-12T09:00:34.000Z</time>
      </trkpt>
      <trkpt lat="43.60398" lon="3.81823">
        <ele>33.54300032</ele>
        <time>2020-09-12T09:00:35.000Z</time>
      </trkpt>
      <trkpt lat="43.60395" lon="3.81822">
        <ele>33.44300032</ele>
        <time>2020-09-12T09:00:36.000Z</time>
      </trkpt>
      <trkpt lat="43.60392" lon="3.81821">
        <ele>33.34300032</ele>
        <time>2020-09-12T09:00:37.000Z</time>
      </trkpt>
      <trkpt lat="43.60389" lon="3.81821">
        <ele>33.24300032</ele>
        <time>2020-09-12T09:00:38.000Z</time>
      </trkpt>
      <trkpt lat="43.60386" lon="3.8182">
        <ele>33.14300032</ele>
        <time>2020-09-12T09:00:39.000Z</time>
      </trkpt>
      <trkpt lat="43.60383" lon="3.81819">
        <ele>33.04300032</ele>
        <time>2020-09-12T09:00:40.000Z</time>
      </trkpt>
      <trkpt lat="43.6038" lon="3.81818">
        <ele>33</ele>
        <time>2020-09-12T09:00:41.000Z</time>
      </trkpt>
      <trkpt lat="43.60377" lon="3.81817">
        <ele>33</ele>
        <time>2020-09-12T09:00:42.000Z</time>
      </trkpt>
      <trkpt lat="43.60374" lon="3.81816">
        <ele>33</ele>
        <time>2020-09-12T09:00:43.000Z</time>
      </trkpt>
      <trkpt lat="43.60372" lon="3.81814">
        <ele>33</ele>
        <time>2020-09-12T09:00:44.000Z</time>
      </trkpt>
      <trkpt lat="43.60369" lon="3.81812">
        <ele>33</ele>
        <time>2020-09-12T09:00:45.000Z</time>
      </trkpt>
      <trkpt lat="43.60366" lon="3.81809">
        <ele>33</ele>
        <time>2020-09-12T09:00:46.000Z</time>
      </trkpt>
      <trkpt lat="43.60363" lon="3.81806">
        <ele>33</ele>
        <time>2020-09-12T09:00:47.000Z</time>
      </trkpt>
      <trkpt lat="43.60361" lon="3.81803">
        <ele>33</ele>
        <time>2020-09-12T09:00:48.000Z</time>
      </trkpt>
      <trkpt lat="43.60358" lon="3.818">
        <ele>33</ele>
        <time>2020-09-12T09:00:49.000Z</time>
      </trkpt>
      <trkpt lat="43.60356" lon="3.81796">
        <ele>33</ele>
        <time>2020-09-12T09:00:50.000Z</time>
      </trkpt>
      <trkpt lat="43.60354" lon="3.81793">
        <ele>33</ele>
        <time>2020-09-12T09:00:51.000Z</time>
      </trkpt>
      <trkpt lat="43.60351" lon="3.8179">
        <ele>33</ele>
        <time>2020-09-12T09:00:52.000Z</time>
      </trkpt>
      <trkpt lat="43.60349" lon="3.81787">
        <ele>33</ele>
        <time>2020-09-12T09:00:53.000Z</time>
      </trkpt>
      <trkpt lat="43.60346" lon="3.81784">
        <ele>33</ele>
        <time>2020-09-12T09:00:54.000Z</time>
      </trkpt>
      <trkpt lat="43.60344" lon="3.81781">
        <ele>33</ele>
        <time>2020-09-12T09:00:55.000Z</time>
      </trkpt>
      <trkpt lat="43.60342" lon="3.81779">
        <ele>33</ele>
        <time>2020-09-12T09:00:56.000Z</time>
      </trkpt>
      <trkpt lat="43.60339" lon="3.81776">
        <ele>33</ele>
        <time>2020-09-12T09:00:57.000Z</time>
      </trkpt>
      <trkpt lat="43.60337" lon="3.81773">
        <ele>33</ele>
        <time>2020-09-12T09:00:58.000Z</time>
      </trkpt>
      <trkpt lat="43.60334" lon="3.8177">
        <ele>33</ele>
        <time>2020-09-12T09:00:59.000Z</time>
      </trkpt>
      <trkpt lat="43.60332" lon="3.81767">
        <ele>33</ele>
        <time>2020-09-12T09:01:00.000Z</time>
      </trkpt>
      <trkpt lat="43.6033" lon="3.81764">
        <ele>33</ele>
        <time>2020-09-12T09:01:01.000Z</time>
      </trkpt>
      <trkpt lat="43.60327" lon="3.81761">
        <ele>33</ele>
        <time>2020-09-12T09:01:02.000Z</time>
      </trkpt>
      <trkpt lat="43.60325" lon="3.81758">
        <ele>33</ele>
        <time>2020-09-12T09:01:03.000Z</time>
      </trkpt>
      <trkpt lat="43.60323" lon="3.81754">
        <ele>33</ele>
        <time>2020-09-12T09:01:04.000Z</time>
      </trkpt>
      <trkpt lat="43.60322" lon="3.8175">
        <ele>33</ele>
        <time>2020-09-12T09:01:05.000Z</time>
      </trkpt>
      <trkpt lat="43.6032" lon="3.81746">
        <ele>33</ele>
        <time>2020-09-12T09:01:06.000Z</time>
      </trkpt>
      <trkpt lat="43.60319" lon="3.81742">
        <ele>33</ele>
        <time>2020-09-12T09:01:07.000Z</time>
      </trkpt>
      <trkpt lat="43.60318" lon="3.81737">
        <ele>33</ele>
        <time>2020-09-12T09:01:08.000Z</time>
      </trkpt>
      <trkpt lat="43.60317" lon="3.81732">
        <ele>33</ele>
        <time>2020-09-12T09:01:09.000Z</time>
      </trkpt>
      <trkpt lat="43.60317" lon="3.81728">
        <ele>33</ele>
        <time>2020-09-12T09:01:10.000Z</time>
      </trkpt>
      <trkpt lat="43.60317" lon="3.81723">
        <ele>33.056772589641</ele>
        <time>2020-09-12T09:01:11.000Z</time>
      </trkpt>
      <trkpt lat="43.60317" lon="3.81718">
        <ele>33.156374183267</ele>
        <time>2020-09-12T09:01:12.000Z</time>
      </trkpt>
      <trkpt lat="43.60317" lon="3.81713">
        <ele>33.255975776892</ele>
        <time>2020-09-12T09:01:13.000Z</time>
      </trkpt>
      <trkpt lat="43.60317" lon="3.81709">
        <ele>33.355577370518</ele>
        <time>2020-09-12T09:01:14.000Z</time>
      </trkpt>
      <trkpt lat="43.60318" lon="3.81704">
        <ele>33.455178964143</ele>
        <time>2020-09-12T09:01:15.000Z</time>
      </trkpt>
      <trkpt lat="43.60318" lon="3.817">
        <ele>33.554780557769</ele>
        <time>2020-09-12T09:01:16.000Z</time>
      </trkpt>
      <trkpt lat="43.60319" lon="3.81696">
        <ele>33.654382151394</ele>
        <time>2020-09-12T09:01:17.000Z</time>
      </trkpt>
      <trkpt lat="43.60319" lon="3.81691">
        <ele>33.75398374502</ele>
        <time>2020-09-12T09:01:18.000Z</time>
      </trkpt>
      <trkpt lat="43.6032" lon="3.81686">
        <ele>33.853585338645</ele>
        <time>2020-09-12T09:01:19.000Z</time>
      </trkpt>
      <trkpt lat="43.6032" lon="3.81682">
        <ele>33.953186932271</ele>
        <time>2020-09-12T09:01:20.000Z</time>
      </trkpt>
      <trkpt lat="43.6032" lon="3.81677">
        <ele>34</ele>
        <time>2020-09-12T09:01:21.000Z</time>
      </trkpt>
      <trkpt lat="43.6032" lon="3.81673">
        <ele>34</ele>
        <time>2020-09-12T09:01:22.000Z</time>
      </trkpt>
      <trkpt lat="43.6032" lon="3.81668">
        <ele>34</ele>
        <time>2020-09-12T09:01:23.000Z</time>
      </trkpt>
      <trkpt lat="43.6032" lon="3.81664">
        <ele>34</ele>
        <time>2020-09-12T09:01:24.000Z</time>
      </trkpt>
      <trkpt lat="43.60319" lon="3.8166">
        <ele>34</ele>
        <time>2020-09-12T09:01:25.000Z</time>
      </trkpt>
      <trkpt lat="43.60318" lon="3.81657">
        <ele>34</ele>
        <time>2020-09-12T09:01:26.000Z</time>
      </trkpt>
      <trkpt lat="43.60317" lon="3.81654">
        <ele>34</ele>
        <time>2020-09-12T09:01:27.000Z</time>
      </trkpt>
      <trkpt lat="43.60314" lon="3.8165">
        <ele>34</ele>
        <time>2020-09-12T09:01:28.000Z</time>
      </trkpt>
      <trkpt lat="43.60312" lon="3.81647">
        <ele>34</ele>
        <time>2020-09-12T09:01:29.000Z</time>
      </trkpt>
      <trkpt lat="43.6031" lon="3.81643">
        <ele>34</ele>
        <time>2020-09-12T09:01:30.000Z</time>
      </trkpt>
      <trkpt lat="43.60307" lon="3.8164">
        <ele>34</ele>
        <time>2020-09-12T09:01:31.000Z</time>
      </trkpt>
      <trkpt lat="43.60305" lon="3.81637">
        <ele>34</ele>
        <time>2020-09-12T09:01:32.000Z</time>
      </trkpt>
      <trkpt lat="43.60301" lon="3.81635">
        <ele>34</ele>
        <time>2020-09-12T09:01:33.000Z</time>
      </trkpt>
      <trkpt lat="43.60299" lon="3.81632">
        <ele>34</ele>
        <time>2020-09-12T09:01:34.000Z</time>
      </trkpt>
      <trkpt lat="43.60296" lon="3.8163">
        <ele>34</ele>
        <time>2020-09-12T09:01:35.000Z</time>
      </trkpt>
      <trkpt lat="43.60293" lon="3.81629">
        <ele>34</ele>
        <time>2020-09-12T09:01:36.000Z</time>
      </trkpt>
      <trkpt lat="43.60289" lon="3.81627">
        <ele>34</ele>
        <time>2020-09-12T09:01:37.000Z</time>
      </trkpt>
      <trkpt lat="43.60286" lon="3.81625">
        <ele>34</ele>
        <time>2020-09-12T09:01:38.000Z</time>
      </trkpt>
      <trkpt lat="43.60282" lon="3.81624">
        <ele>34</ele>
        <time>2020-09-12T09:01:39.000Z</time>
      </trkpt>
      <trkpt lat="43.60279" lon="3.81623">
        <ele>34</ele>
        <time>2020-09-12T09:01:40.000Z</time>
      </trkpt>
      <trkpt lat="43.60276" lon="3.81622">
        <ele>34</ele>
        <time>2020-09-12T09:01:41.000Z</time>
      </trkpt>
      <trkpt lat="43.60272" lon="3.8162">
        <ele>34</ele>
        <time>2020-09-12T09:01:42.000Z</time>
      </trkpt>
      <trkpt lat="43.60268" lon="3.81618">
        <ele>34</ele>
        <time>2020-09-12T09:01:43.000Z</time>
      </trkpt>
      <trkpt lat="43.60265" lon="3.81614">
        <ele>34</ele>
        <time>2020-09-12T09:01:44.000Z</time>
      </trkpt>
      <trkpt lat="43.60262" lon="3.8161">
        <ele>34</ele>
        <time>2020-09-12T09:01:45.000Z</time>
      </trkpt>
      <trkpt lat="43.60261" lon="3.81605">
        <ele>34</ele>
        <time>2020-09-12T09:01:46.000Z</time>
      </trkpt>
      <trkpt lat="43.60261" lon="3.816">
        <ele>34</ele>
        <time>2020-09-12T09:01:47.000Z</time>
      </trkpt>
      <trkpt lat="43.60261" lon="3.81596">
        <ele>34</ele>
        <time>2020-09-12T09:01:48.000Z</time>
      </trkpt>
      <trkpt lat="43.60261" lon="3.81591">
        <ele>34</ele>
        <time>2020-09-12T09:01:49.000Z</time>
      </trkpt>
      <trkpt lat="43.60262" lon="3.81586">
        <ele>34</ele>
        <time>2020-09-12T09:01:50.000Z</time>
      </trkpt>
      <trkpt lat="43.60263" lon="3.81581">
        <ele>33.94300032</ele>
        <time>2020-09-12T09:01:51.000Z</time>
      </trkpt>
      <trkpt lat="43.60265" lon="3.81577">
        <ele>33.84300032</ele>
        <time>2020-09-12T09:01:52.000Z</time>
      </trkpt>
      <trkpt lat="43.60266" lon="3.81571">
        <ele>33.74300032</ele>
        <time>2020-09-12T09:01:53.000Z</time>
      </trkpt>
      <trkpt lat="43.60268" lon="3.81566">
        <ele>33.64300032</ele>
        <time>2020-09-12T09:01:54.000Z</time>
      </trkpt>
      <trkpt lat="43.60269" lon="3.81561">
        <ele>33.54300032</ele>
        <time>2020-09-12T09:01:55.000Z</time>
      </trkpt>
      <trkpt lat="43.6027" lon="3.81556">
        <ele>33.44300032</ele>
        <time>2020-09-12T09:01:56.000Z</time>
      </trkpt>
      <trkpt lat="43.60271" lon="3.81551">
        <ele>33.34300032</ele>
        <time>2020-09-12T09:01:57.000Z</time>
      </trkpt>
      <trkpt lat="43.60273" lon="3.81546">
        <ele>33.24300032</ele>
        <time>2020-09-12T09:01:58.000Z</time>
      </trkpt>
      <trkpt lat="43.60275" lon="3.81542">
        <ele>33.14300032</ele>
        <time>2020-09-12T09:01:59.000Z</time>
      </trkpt>
      <trkpt lat="43.60278" lon="3.81538">
        <ele>33.04300032</ele>
        <time>2020-09-12T09:02:00.000Z</time>
      </trkpt>
      <trkpt lat="43.60281" lon="3.81536">
        <ele>33.056942755466</ele>
        <time>2020-09-12T09:02:01.000Z</time>
      </trkpt>
      <trkpt lat="43.60284" lon="3.81534">
        <ele>33.156842887302</ele>
        <time>2020-09-12T09:02:02.000Z</time>
      </trkpt>
      <trkpt lat="43.60288" lon="3.81532">
        <ele>33.256743019139</ele>
        <time>2020-09-12T09:02:03.000Z</time>
      </trkpt>
      <trkpt lat="43.60291" lon="3.81529">
        <ele>33.356643150975</ele>
        <time>2020-09-12T09:02:04.000Z</time>
      </trkpt>
      <trkpt lat="43.60293" lon="3.81526">
        <ele>33.456543282811</ele>
        <time>2020-09-12T09:02:05.000Z</time>
      </trkpt>
      <trkpt lat="43.60294" lon="3.81523">
        <ele>33.556443414647</ele>
        <time>2020-09-12T09:02:06.000Z</time>
      </trkpt>
      <trkpt lat="43.60292" lon="3.81521">
        <ele>33.656343546483</ele>
        <time>2020-09-12T09:02:07.000Z</time>
      </trkpt>
      <trkpt lat="43.6029" lon="3.81519">
        <ele>33.75624367832</ele>
        <time>2020-09-12T09:02:08.000Z</time>
      </trkpt>
      <trkpt lat="43.60288" lon="3.81519">
        <ele>33.856143810156</ele>
        <time>2020-09-12T09:02:09.000Z</time>
      </trkpt>
      <trkpt lat="43.60285" lon="3.81518">
        <ele>33.956043941992</ele>
        <time>2020-09-12T09:02:10.000Z</time>
      </trkpt>
      <trkpt lat="43.60282" lon="3.81517">
        <ele>34.056</ele>
        <time>2020-09-12T09:02:11.000Z</time>
      </trkpt>
      <trkpt lat="43.6028" lon="3.81515">
        <ele>34.156</ele>
        <time>2020-09-12T09:02:12.000Z</time>
      </trkpt>
      <trkpt lat="43.60277" lon="3.81514">
        <ele>34.256</ele>
        <time>2020-09-12T09:02:13.000Z</time>
      </trkpt>
      <trkpt lat="43.60274" lon="3.81513">
        <ele>34.356</ele>
        <time>2020-09-12T09:02:14.000Z</time>
      </trkpt>
      <trkpt lat="43.60272" lon="3.81512">
        <ele>34.456</ele>
        <time>2020-09-12T09:02:15.000Z</time>
      </trkpt>
      <trkpt lat="43.60269" lon="3.81511">
        <ele>34.556</ele>
        <time>2020-09-12T09:02:16.000Z</time>
      </trkpt>
      <trkpt lat="43.60266" lon="3.81509">
        <ele>34.656</ele>
        <time>2020-09-12T09:02:17.000Z</time>
      </trkpt>
      <trkpt lat="43.60264" lon="3.81508">
        <ele>34.756</ele>
        <time>2020-09-12T09:02:18.000Z</time>
      </trkpt>
      <trkpt lat="43.60262" lon="3.81506">
        <ele>34.856</ele>
        <time>2020-09-12T09:02:19.000Z</time>
      </trkpt>
      <trkpt lat="43.60259" lon="3.81504">
        <ele>34.956</ele>
        <time>2020-09-12T09:02:20.000Z</time>
      </trkpt>
      <trkpt lat="43.60257" lon="3.81503">
        <ele>35.0560560381</ele>
        <time>2020-09-12T09:02:21.000Z</time>
      </trkpt>
      <trkpt lat="43.60254" lon="3.81501">
        <ele>35.156156106136</ele>
        <time>2020-09-12T09:02:22.000Z</time>
      </trkpt>
      <trkpt lat="43.60252" lon="3.81499">
        <ele>35.256256174172</ele>
        <time>2020-09-12T09:02:23.000Z</time>
      </trkpt>
      <trkpt lat="43.60249" lon="3.81498">
        <ele>35.356356242208</ele>
        <time>2020-09-12T09:02:24.000Z</time>
      </trkpt>
      <trkpt lat="43.60247" lon="3.81497">
        <ele>35.456456310244</ele>
        <time>2020-09-12T09:02:25.000Z</time>
      </trkpt>
      <trkpt lat="43.60244" lon="3.81495">
        <ele>35.55655637828</ele>
        <time>2020-09-12T09:02:26.000Z</time>
      </trkpt>
      <trkpt lat="43.60241" lon="3.81494">
        <ele>35.656656446316</ele>
        <time>2020-09-12T09:02:27.000Z</time>
      </trkpt>
      <trkpt lat="43.60239" lon="3.81492">
        <ele>35.756756514352</ele>
        <time>2020-09-12T09:02:28.000Z</time>
      </trkpt>
      <trkpt lat="43.60236" lon="3.81491">
        <ele>35.856856582388</ele>
        <time>2020-09-12T09:02:29.000Z</time>
      </trkpt>
      <trkpt lat="43.60233" lon="3.81489">
        <ele>35.956956650424</ele>
        <time>2020-09-12T09:02:30.000Z</time>
      </trkpt>
      <trkpt lat="43.6023" lon="3.81487">
        <ele>35.944606707749</ele>
        <time>2020-09-12T09:02:31.000Z</time>
      </trkpt>
      <trkpt lat="43.60227" lon="3.81485">
        <ele>35.847424947693</ele>
        <time>2020-09-12T09:02:32.000Z</time>
      </trkpt>
      <trkpt lat="43.60224" lon="3.81484">
        <ele>35.750243187636</ele>
        <time>2020-09-12T09:02:33.000Z</time>
      </trkpt>
      <trkpt lat="43.60221" lon="3.81482">
        <ele>35.65306142758</ele>
        <time>2020-09-12T09:02:34.000Z</time>
      </trkpt>
      <trkpt lat="43.60218" lon="3.8148">
        <ele>35.555879667523</ele>
        <time>2020-09-12T09:02:35.000Z</time>
      </trkpt>
      <trkpt lat="43.60215" lon="3.81479">
        <ele>35.458697907467</ele>
        <time>2020-09-12T09:02:36.000Z</time>
      </trkpt>
      <trkpt lat="43.60212" lon="3.81479">
        <ele>35.36151614741</ele>
        <time>2020-09-12T09:02:37.000Z</time>
      </trkpt>
      <trkpt lat="43.60209" lon="3.8148">
        <ele>35.264334387354</ele>
        <time>2020-09-12T09:02:38.000Z</time>
      </trkpt>
      <trkpt lat="43.60206" lon="3.81482">
        <ele>35.167152627297</ele>
        <time>2020-09-12T09:02:39.000Z</time>
      </trkpt>
      <trkpt lat="43.60204" lon="3.81485">
        <ele>35.069970867241</ele>
        <time>2020-09-12T09:02:40.000Z</time>
      </trkpt>
      <trkpt lat="43.60201" lon="3.81488">
        <ele>34.971163758216</ele>
        <time>2020-09-12T09:02:41.000Z</time>
      </trkpt>
      <trkpt lat="43.60198" lon="3.81491">
        <ele>34.868177180415</ele>
        <time>2020-09-12T09:02:42.000Z</time>
      </trkpt>
      <trkpt lat="43.60194" lon="3.81493">
        <ele>34.765190602615</ele>
        <time>2020-09-12T09:02:43.000Z</time>
      </trkpt>
      <trkpt lat="43.60191" lon="3.81495">
        <ele>34.662204024814</ele>
        <time>2020-09-12T09:02:44.000Z</time>
      </trkpt>
      <trkpt lat="43.60187" lon="3.81496">
        <ele>34.559217447014</ele>
        <time>2020-09-12T09:02:45.000Z</time>
      </trkpt>
      <trkpt lat="43.60183" lon="3.81497">
        <ele>34.456230869213</ele>
        <time>2020-09-12T09:02:46.000Z</time>
      </trkpt>
      <trkpt lat="43.60179" lon="3.81498">
        <ele>34.353244291413</ele>
        <time>2020-09-12T09:02:47.000Z</time>
      </trkpt>
      <trkpt lat="43.60175" lon="3.81499">
        <ele>34.250257713612</ele>
        <time>2020-09-12T09:02:48.000Z</time>
      </trkpt>
      <trkpt lat="43.60172" lon="3.815">
        <ele>34.147271135812</ele>
        <time>2020-09-12T09:02:49.000Z</time>
      </trkpt>
      <trkpt lat="43.60168" lon="3.815">
        <ele>34.044284558011</ele>
        <time>2020-09-12T09:02:50.000Z</time>
      </trkpt>
      <trkpt lat="43.60165" lon="3.81501">
        <ele>34</ele>
        <time>2020-09-12T09:02:51.000Z</time>
      </trkpt>
      <trkpt lat="43.60161" lon="3.81501">
        <ele>34</ele>
        <time>2020-09-12T09:02:52.000Z</time>
      </trkpt>
      <trkpt lat="43.60158" lon="3.81502">
        <ele>34</ele>
        <time>2020-09-12T09:02:53.000Z</time>
      </trkpt>
      <trkpt lat="43.60154" lon="3.81502">
        <ele>34</ele>
        <time>2020-09-12T09:02:54.000Z</time>
      </trkpt>
      <trkpt lat="43.60151" lon="3.81503">
        <ele>34</ele>
        <time>2020-09-12T09:02:55.000Z</time>
      </trkpt>
      <trkpt lat="43.60147" lon="3.81503">
        <ele>34</ele>
        <time>2020-09-12T09:02:56.000Z</time>
      </trkpt>
      <trkpt lat="43.60143" lon="3.81504">
        <ele>34</ele>
        <time>2020-09-12T09:02:57.000Z</time>
      </trkpt>
      <trkpt lat="43.60139" lon="3.81505">
        <ele>34</ele>
        <time>2020-09-12T09:02:58.000Z</time>
      </trkpt>
      <trkpt lat="43.60135" lon="3.81505">
        <ele>34</ele>
        <time>2020-09-12T09:02:59.000Z</time>
      </trkpt>
      <trkpt lat="43.6013" lon="3.81506">
        <ele>34</ele>
        <time>2020-09-12T09:03:00.000Z</time>
      </trkpt>
      <trkpt lat="43.60126" lon="3.81506">
        <ele>33.943842626689</ele>
        <time>2020-09-12T09:03:01.000Z</time>
      </trkpt>
      <trkpt lat="43.60122" lon="3.81505">
        <ele>33.845320366017</ele>
        <time>2020-09-12T09:03:02.000Z</time>
      </trkpt>
      <trkpt lat="43.60118" lon="3.81504">
        <ele>33.746798105346</ele>
        <time>2020-09-12T09:03:03.000Z</time>
      </trkpt>
      <trkpt lat="43.60113" lon="3.81504">
        <ele>33.648275844675</ele>
        <time>2020-09-12T09:03:04.000Z</time>
      </trkpt>
      <trkpt lat="43.60109" lon="3.81503">
        <ele>33.549753584003</ele>
        <time>2020-09-12T09:03:05.000Z</time>
      </trkpt>
      <trkpt lat="43.60105" lon="3.81503">
        <ele>33.451231323332</ele>
        <time>2020-09-12T09:03:06.000Z</time>
      </trkpt>
      <trkpt lat="43.60101" lon="3.81502">
        <ele>33.352709062661</ele>
        <time>2020-09-12T09:03:07.000Z</time>
      </trkpt>
      <trkpt lat="43.60096" lon="3.81501">
        <ele>33.254186801989</ele>
        <time>2020-09-12T09:03:08.000Z</time>
      </trkpt>
      <trkpt lat="43.60091" lon="3.81501">
        <ele>33.155664541318</ele>
        <time>2020-09-12T09:03:09.000Z</time>
      </trkpt>
      <trkpt lat="43.60087" lon="3.815">
        <ele>33.057142280647</ele>
        <time>2020-09-12T09:03:10.000Z</time>
      </trkpt>
      <trkpt lat="43.60083" lon="3.815">
        <ele>32.957446173878</ele>
        <time>2020-09-12T09:03:11.000Z</time>
      </trkpt>
      <trkpt lat="43.60078" lon="3.81499">
        <ele>32.856129084132</ele>
        <time>2020-09-12T09:03:12.000Z</time>
      </trkpt>
      <trkpt lat="43.60074" lon="3.81499">
        <ele>32.754811994387</ele>
        <time>2020-09-12T09:03:13.000Z</time>
      </trkpt>
      <trkpt lat="43.6007" lon="3.81499">
        <ele>32.653494904642</ele>
        <time>2020-09-12T09:03:14.000Z</time>
      </trkpt>
      <trkpt lat="43.60065" lon="3.815">
        <ele>32.552177814897</ele>
        <time>2020-09-12T09:03:15.000Z</time>
      </trkpt>
      <trkpt lat="43.60061" lon="3.815">
        <ele>32.450860725152</ele>
        <time>2020-09-12T09:03:16.000Z</time>
      </trkpt>
      <trkpt lat="43.60056" lon="3.81501">
        <ele>32.349543635406</ele>
        <time>2020-09-12T09:03:17.000Z</time>
      </trkpt>
      <trkpt lat="43.60052" lon="3.81501">
        <ele>32.248226545661</ele>
        <time>2020-09-12T09:03:18.000Z</time>
      </trkpt>
      <trkpt lat="43.60047" lon="3.815">
        <ele>32.146909455916</ele>
        <time>2020-09-12T09:03:19.000Z</time>
      </trkpt>
      <trkpt lat="43.60043" lon="3.81501">
        <ele>32.045592366171</ele>
        <time>2020-09-12T09:03:20.000Z</time>
      </trkpt>
      <trkpt lat="43.60038" lon="3.81501">
        <ele>32</ele>
        <time>2020-09-12T09:03:21.000Z</time>
      </trkpt>
      <trkpt lat="43.60034" lon="3.81502">
        <ele>32</ele>
        <time>2020-09-12T09:03:22.000Z</time>
      </trkpt>
      <trkpt lat="43.6003" lon="3.81503">
        <ele>32</ele>
        <time>2020-09-12T09:03:23.000Z</time>
      </trkpt>
      <trkpt lat="43.60026" lon="3.81503">
        <ele>32</ele>
        <time>2020-09-12T09:03:24.000Z</time>
      </trkpt>
      <trkpt lat="43.60023" lon="3.81503">
        <ele>32</ele>
        <time>2020-09-12T09:03:25.000Z</time>
      </trkpt>
      <trkpt lat="43.60021" lon="3.81503">
        <ele>32</ele>
        <time>2020-09-12T09:03:26.000Z</time>
      </trkpt>
      <trkpt lat="43.60019" lon="3.81502">
        <ele>32</ele>
        <time>2020-09-12T09:03:27.000Z</time>
      </trkpt>
      <trkpt lat="43.60017" lon="3.81502">
        <ele>32</ele>
        <time>2020-09-12T09:03:28.000Z</time>
      </trkpt>
      <trkpt lat="43.60014" lon="3.815">
        <ele>32</ele>
        <time>2020-09-12T09:03:29.000Z</time>
      </trkpt>
      <trkpt lat="43.60012" lon="3.81498">
        <ele>32</ele>
        <time>2020-09-12T09:03:30.000Z</time>
      </trkpt>
      <trkpt lat="43.6001" lon="3.81495">
        <ele>32</ele>
        <time>2020-09-12T09:03:31.000Z</time>
      </trkpt>
      <trkpt lat="43.60007" lon="3.81493">
        <ele>32</ele>
        <time>2020-09-12T09:03:32.000Z</time>
      </trkpt>
      <trkpt lat="43.60006" lon="3.81489">
        <ele>32</ele>
        <time>2020-09-12T09:03:33.000Z</time>
      </trkpt>
      <trkpt lat="43.60005" lon="3.81485">
        <ele>32</ele>
        <time>2020-09-12T09:03:34.000Z</time>
      </trkpt>
      <trkpt lat="43.60006" lon="3.81481">
        <ele>32</ele>
        <time>2020-09-12T09:03:35.000Z</time>
      </trkpt>
      <trkpt lat="43.60008" lon="3.81477">
        <ele>32</ele>
        <time>2020-09-12T09:03:36.000Z</time>
      </trkpt>
      <trkpt lat="43.60009" lon="3.81472">
        <ele>32</ele>
        <time>2020-09-12T09:03:37.000Z</time>
      </trkpt>
      <trkpt lat="43.60011" lon="3.81468">
        <ele>32</ele>
        <time>2020-09-12T09:03:38.000Z</time>
      </trkpt>
      <trkpt lat="43.60012" lon="3.81464">
        <ele>32</ele>
        <time>2020-09-12T09:03:39.000Z</time>
      </trkpt>
      <trkpt lat="43.60014" lon="3.81459">
        <ele>32</ele>
        <time>2020-09-12T09:03:40.000Z</time>
      </trkpt>
      <trkpt lat="43.60015" lon="3.81454">
        <ele>32</ele>
        <time>2020-09-12T09:03:41.000Z</time>
      </trkpt>
      <trkpt lat="43.60017" lon="3.8145">
        <ele>32</ele>
        <time>2020-09-12T09:03:42.000Z</time>
      </trkpt>
      <trkpt lat="43.60019" lon="3.81444">
        <ele>32</ele>
        <time>2020-09-12T09:03:43.000Z</time>
      </trkpt>
      <trkpt lat="43.6002" lon="3.81439">
        <ele>32</ele>
        <time>2020-09-12T09:03:44.000Z</time>
      </trkpt>
      <trkpt lat="43.60022" lon="3.81434">
        <ele>32</ele>
        <time>2020-09-12T09:03:45.000Z</time>
      </trkpt>
      <trkpt lat="43.60023" lon="3.81429">
        <ele>32</ele>
        <time>2020-09-12T09:03:46.000Z</time>
      </trkpt>
      <trkpt lat="43.60025" lon="3.81424">
        <ele>32</ele>
        <time>2020-09-12T09:03:47.000Z</time>
      </trkpt>
      <trkpt lat="43.60026" lon="3.81419">
        <ele>32</ele>
        <time>2020-09-12T09:03:48.000Z</time>
      </trkpt>
      <trkpt lat="43.60028" lon="3.81414">
        <ele>32</ele>
        <time>2020-09-12T09:03:49.000Z</time>
      </trkpt>
      <trkpt lat="43.60029" lon="3.81409">
        <ele>32</ele>
        <time>2020-09-12T09:03:50.000Z</time>
      </trkpt>
      <trkpt lat="43.6003" lon="3.81404">
        <ele>32</ele>
        <time>2020-09-12T09:03:51.000Z</time>
      </trkpt>
      <trkpt lat="43.60032" lon="3.81398">
        <ele>32</ele>
        <time>2020-09-12T09:03:52.000Z</time>
      </trkpt>
      <trkpt lat="43.60033" lon="3.81393">
        <ele>32</ele>
        <time>2020-09-12T09:03:53.000Z</time>
      </trkpt>
      <trkpt lat="43.60034" lon="3.81388">
        <ele>32</ele>
        <time>2020-09-12T09:03:54.000Z</time>
      </trkpt>
      <trkpt lat="43.60034" lon="3.81383">
        <ele>32</ele>
        <time>2020-09-12T09:03:55.000Z</time>
      </trkpt>
      <trkpt lat="43.60034" lon="3.81379">
        <ele>32</ele>
        <time>2020-09-12T09:03:56.000Z</time>
      </trkpt>
      <trkpt lat="43.60033" lon="3.81376">
        <ele>32</ele>
        <time>2020-09-12T09:03:57.000Z</time>
      </trkpt>
      <trkpt lat="43.6003" lon="3.81373">
        <ele>32</ele>
        <time>2020-09-12T09:03:58.000Z</time>
      </trkpt>
      <trkpt lat="43.60027" lon="3.81369">
        <ele>32</ele>
        <time>2020-09-12T09:03:59.000Z</time>
      </trkpt>
      <trkpt lat="43.60025" lon="3.81365">
        <ele>32</ele>
        <time>2020-09-12T09:04:00.000Z</time>
      </trkpt>
      <trkpt lat="43.60022" lon="3.81361">
        <ele>32.055393292251</ele>
        <time>2020-09-12T09:04:01.000Z</time>
      </trkpt>
      <trkpt lat="43.60019" lon="3.81357">
        <ele>32.152575052307</ele>
        <time>2020-09-12T09:04:02.000Z</time>
      </trkpt>
      <trkpt lat="43.60017" lon="3.81353">
        <ele>32.249756812364</ele>
        <time>2020-09-12T09:04:03.000Z</time>
      </trkpt>
      <trkpt lat="43.60014" lon="3.81349">
        <ele>32.34693857242</ele>
        <time>2020-09-12T09:04:04.000Z</time>
      </trkpt>
      <trkpt lat="43.60012" lon="3.81345">
        <ele>32.444120332477</ele>
        <time>2020-09-12T09:04:05.000Z</time>
      </trkpt>
      <trkpt lat="43.60009" lon="3.81342">
        <ele>32.541302092533</ele>
        <time>2020-09-12T09:04:06.000Z</time>
      </trkpt>
      <trkpt lat="43.60007" lon="3.81338">
        <ele>32.63848385259</ele>
        <time>2020-09-12T09:04:07.000Z</time>
      </trkpt>
      <trkpt lat="43.60004" lon="3.81335">
        <ele>32.735665612646</ele>
        <time>2020-09-12T09:04:08.000Z</time>
      </trkpt>
      <trkpt lat="43.60002" lon="3.81331">
        <ele>32.832847372703</ele>
        <time>2020-09-12T09:04:09.000Z</time>
      </trkpt>
      <trkpt lat="43.59999" lon="3.81328">
        <ele>32.930029132759</ele>
        <time>2020-09-12T09:04:10.000Z</time>
      </trkpt>
      <trkpt lat="43.59996" lon="3.81324">
        <ele>33.028084261772</ele>
        <time>2020-09-12T09:04:11.000Z</time>
      </trkpt>
      <trkpt lat="43.59994" lon="3.8132">
        <ele>33.128385196673</ele>
        <time>2020-09-12T09:04:12.000Z</time>
      </trkpt>
      <trkpt lat="43.59991" lon="3.81316">
        <ele>33.228686131574</ele>
        <time>2020-09-12T09:04:13.000Z</time>
      </trkpt>
      <trkpt lat="43.59989" lon="3.81313">
        <ele>33.328987066475</ele>
        <time>2020-09-12T09:04:14.000Z</time>
      </trkpt>
      <trkpt lat="43.59987" lon="3.81309">
        <ele>33.429288001376</ele>
        <time>2020-09-12T09:04:15.000Z</time>
      </trkpt>
      <trkpt lat="43.59984" lon="3.81306">
        <ele>33.529588936277</ele>
        <time>2020-09-12T09:04:16.000Z</time>
      </trkpt>
      <trkpt lat="43.59982" lon="3.81303">
        <ele>33.629889871178</ele>
        <time>2020-09-12T09:04:17.000Z</time>
      </trkpt>
      <trkpt lat="43.59979" lon="3.813">
        <ele>33.730190806079</ele>
        <time>2020-09-12T09:04:18.000Z</time>
      </trkpt>
      <trkpt lat="43.59977" lon="3.81298">
        <ele>33.83049174098</ele>
        <time>2020-09-12T09:04:19.000Z</time>
      </trkpt>
      <trkpt lat="43.59975" lon="3.81295">
        <ele>33.930792675881</ele>
        <time>2020-09-12T09:04:20.000Z</time>
      </trkpt>
      <trkpt lat="43.59972" lon="3.81292">
        <ele>34.031827823029</ele>
        <time>2020-09-12T09:04:21.000Z</time>
      </trkpt>
      <trkpt lat="43.5997" lon="3.81289">
        <ele>34.134497160084</ele>
        <time>2020-09-12T09:04:22.000Z</time>
      </trkpt>
      <trkpt lat="43.59968" lon="3.81286">
        <ele>34.237166497139</ele>
        <time>2020-09-12T09:04:23.000Z</time>
      </trkpt>
      <trkpt lat="43.59965" lon="3.81283">
        <ele>34.339835834194</ele>
        <time>2020-09-12T09:04:24.000Z</time>
      </trkpt>
      <trkpt lat="43.59963" lon="3.8128">
        <ele>34.442505171249</ele>
        <time>2020-09-12T09:04:25.000Z</time>
      </trkpt>
      <trkpt lat="43.5996" lon="3.81277">
        <ele>34.545174508304</ele>
        <time>2020-09-12T09:04:26.000Z</time>
      </trkpt>
      <trkpt lat="43.59958" lon="3.81275">
        <ele>34.647843845359</ele>
        <time>2020-09-12T09:04:27.000Z</time>
      </trkpt>
      <trkpt lat="43.59956" lon="3.81272">
        <ele>34.750513182414</ele>
        <time>2020-09-12T09:04:28.000Z</time>
      </trkpt>
      <trkpt lat="43.59953" lon="3.8127">
        <ele>34.853182519469</ele>
        <time>2020-09-12T09:04:29.000Z</time>
      </trkpt>
      <trkpt lat="43.59952" lon="3.81267">
        <ele>34.955851856524</ele>
        <time>2020-09-12T09:04:30.000Z</time>
      </trkpt>
      <trkpt lat="43.5995" lon="3.81264">
        <ele>35.05699968</ele>
        <time>2020-09-12T09:04:31.000Z</time>
      </trkpt>
      <trkpt lat="43.59948" lon="3.81261">
        <ele>35.15699968</ele>
        <time>2020-09-12T09:04:32.000Z</time>
      </trkpt>
      <trkpt lat="43.59946" lon="3.81259">
        <ele>35.25699968</ele>
        <time>2020-09-12T09:04:33.000Z</time>
      </trkpt>
      <trkpt lat="43.59943" lon="3.81257">
        <ele>35.35699968</ele>
        <time>2020-09-12T09:04:34.000Z</time>
      </trkpt>
      <trkpt lat="43.5994" lon="3.81255">
        <ele>35.45699968</ele>
        <time>2020-09-12T09:04:35.000Z</time>
      </trkpt>
      <trkpt lat="43.59938" lon="3.81252">
        <ele>35.55699968</ele>
        <time>2020-09-12T09:04:36.000Z</time>
      </trkpt>
      <trkpt lat="43.59935" lon="3.8125">
        <ele>35.65699968</ele>
        <time>2020-09-12T09:04:37.000Z</time>
      </trkpt>
      <trkpt lat="43.59933" lon="3.81248">
        <ele>35.75699968</ele>
        <time>2020-09-12T09:04:38.000Z</time>
      </trkpt>
      <trkpt lat="43.59931" lon="3.81247">
        <ele>35.85699968</ele>
        <time>2020-09-12T09:04:39.000Z</time>
      </trkpt>
      <trkpt lat="43.59928" lon="3.81245">
        <ele>35.95699968</ele>
        <time>2020-09-12T09:04:40.000Z</time>
      </trkpt>
      <trkpt lat="43.59925" lon="3.81243">
        <ele>36.169473829764</ele>
        <time>2020-09-12T09:04:41.000Z</time>
      </trkpt>
      <trkpt lat="43.59923" lon="3.81241">
        <ele>36.46679800731</ele>
        <time>2020-09-12T09:04:42.000Z</time>
      </trkpt>
      <trkpt lat="43.5992" lon="3.81239">
        <ele>36.764122184855</ele>
        <time>2020-09-12T09:04:43.000Z</time>
      </trkpt>
      <trkpt lat="43.59918" lon="3.81238">
        <ele>37.061446362401</ele>
        <time>2020-09-12T09:04:44.000Z</time>
      </trkpt>
      <trkpt lat="43.59915" lon="3.81236">
        <ele>37.358770539947</ele>
        <time>2020-09-12T09:04:45.000Z</time>
      </trkpt>
      <trkpt lat="43.59912" lon="3.81234">
        <ele>37.656094717493</ele>
        <time>2020-09-12T09:04:46.000Z</time>
      </trkpt>
      <trkpt lat="43.59909" lon="3.81232">
        <ele>37.953418895039</ele>
        <time>2020-09-12T09:04:47.000Z</time>
      </trkpt>
      <trkpt lat="43.59907" lon="3.81229">
        <ele>38.250743072584</ele>
        <time>2020-09-12T09:04:48.000Z</time>
      </trkpt>
      <trkpt lat="43.59904" lon="3.81227">
        <ele>38.54806725013</ele>
        <time>2020-09-12T09:04:49.000Z</time>
      </trkpt>
      <trkpt lat="43.59902" lon="3.81225">
        <ele>38.845391427676</ele>
        <time>2020-09-12T09:04:50.000Z</time>
      </trkpt>
      <trkpt lat="43.59899" lon="3.81223">
        <ele>39.093841612875</ele>
        <time>2020-09-12T09:04:51.000Z</time>
      </trkpt>
      <trkpt lat="43.59897" lon="3.81221">
        <ele>39.28934497303</ele>
        <time>2020-09-12T09:04:52.000Z</time>
      </trkpt>
      <trkpt lat="43.59894" lon="3.81219">
        <ele>39.484848333185</ele>
        <time>2020-09-12T09:04:53.000Z</time>
      </trkpt>
      <trkpt lat="43.59892" lon="3.81217">
        <ele>39.680351693341</ele>
        <time>2020-09-12T09:04:54.000Z</time>
      </trkpt>
      <trkpt lat="43.59889" lon="3.81215">
        <ele>39.875855053496</ele>
        <time>2020-09-12T09:04:55.000Z</time>
      </trkpt>
      <trkpt lat="43.59886" lon="3.81212">
        <ele>40.071358413651</ele>
        <time>2020-09-12T09:04:56.000Z</time>
      </trkpt>
      <trkpt lat="43.59884" lon="3.8121">
        <ele>40.266861773807</ele>
        <time>2020-09-12T09:04:57.000Z</time>
      </trkpt>
      <trkpt lat="43.59881" lon="3.81208">
        <ele>40.462365133962</ele>
        <time>2020-09-12T09:04:58.000Z</time>
      </trkpt>
      <trkpt lat="43.59879" lon="3.81206">
        <ele>40.657868494117</ele>
        <time>2020-09-12T09:04:59.000Z</time>
      </trkpt>
      <trkpt lat="43.59877" lon="3.81204">
        <ele>40.853371854273</ele>
        <time>2020-09-12T09:05:00.000Z</time>
      </trkpt>
      <trkpt lat="43.59875" lon="3.81201">
        <ele>41.077478347107</ele>
        <time>2020-09-12T09:05:01.000Z</time>
      </trkpt>
      <trkpt lat="43.59872" lon="3.81199">
        <ele>41.387395702479</ele>
        <time>2020-09-12T09:05:02.000Z</time>
      </trkpt>
      <trkpt lat="43.5987" lon="3.81196">
        <ele>41.697313057851</ele>
        <time>2020-09-12T09:05:03.000Z</time>
      </trkpt>
      <trkpt lat="43.59868" lon="3.81194">
        <ele>42.007230413223</ele>
        <time>2020-09-12T09:05:04.000Z</time>
      </trkpt>
      <trkpt lat="43.59866" lon="3.81191">
        <ele>42.317147768595</ele>
        <time>2020-09-12T09:05:05.000Z</time>
      </trkpt>
      <trkpt lat="43.59864" lon="3.81189">
        <ele>42.627065123967</ele>
        <time>2020-09-12T09:05:06.000Z</time>
      </trkpt>
      <trkpt lat="43.59862" lon="3.81187">
        <ele>42.936982479339</ele>
        <time>2020-09-12T09:05:07.000Z</time>
      </trkpt>
      <trkpt lat="43.59861" lon="3.81184">
        <ele>43.246899834711</ele>
        <time>2020-09-12T09:05:08.000Z</time>
      </trkpt>
      <trkpt lat="43.59859" lon="3.81182">
        <ele>43.556817190083</ele>
        <time>2020-09-12T09:05:09.000Z</time>
      </trkpt>
      <trkpt lat="43.59857" lon="3.81179">
        <ele>43.866734545454</ele>
        <time>2020-09-12T09:05:10.000Z</time>
      </trkpt>
      <trkpt lat="43.59855" lon="3.81177">
        <ele>44.055447159533</ele>
        <time>2020-09-12T09:05:11.000Z</time>
      </trkpt>
      <trkpt lat="43.59853" lon="3.81174">
        <ele>44.152723424125</ele>
        <time>2020-09-12T09:05:12.000Z</time>
      </trkpt>
      <trkpt lat="43.59851" lon="3.81171">
        <ele>44.249999688716</ele>
        <time>2020-09-12T09:05:13.000Z</time>
      </trkpt>
      <trkpt lat="43.5985" lon="3.81169">
        <ele>44.347275953307</ele>
        <time>2020-09-12T09:05:14.000Z</time>
      </trkpt>
      <trkpt lat="43.59848" lon="3.81166">
        <ele>44.444552217899</ele>
        <time>2020-09-12T09:05:15.000Z</time>
      </trkpt>
      <trkpt lat="43.59846" lon="3.81163">
        <ele>44.54182848249</ele>
        <time>2020-09-12T09:05:16.000Z</time>
      </trkpt>
      <trkpt lat="43.59845" lon="3.81159">
        <ele>44.639104747082</ele>
        <time>2020-09-12T09:05:17.000Z</time>
      </trkpt>
      <trkpt lat="43.59843" lon="3.81156">
        <ele>44.736381011673</ele>
        <time>2020-09-12T09:05:18.000Z</time>
      </trkpt>
      <trkpt lat="43.59841" lon="3.81153">
        <ele>44.833657276265</ele>
        <time>2020-09-12T09:05:19.000Z</time>
      </trkpt>
      <trkpt lat="43.59839" lon="3.8115">
        <ele>44.930933540856</ele>
        <time>2020-09-12T09:05:20.000Z</time>
      </trkpt>
      <trkpt lat="43.59838" lon="3.81148">
        <ele>45.029835061728</ele>
        <time>2020-09-12T09:05:21.000Z</time>
      </trkpt>
      <trkpt lat="43.59836" lon="3.81144">
        <ele>45.132715720165</ele>
        <time>2020-09-12T09:05:22.000Z</time>
      </trkpt>
      <trkpt lat="43.59834" lon="3.81142">
        <ele>45.235596378601</ele>
        <time>2020-09-12T09:05:23.000Z</time>
      </trkpt>
      <trkpt lat="43.59832" lon="3.8114">
        <ele>45.338477037037</ele>
        <time>2020-09-12T09:05:24.000Z</time>
      </trkpt>
      <trkpt lat="43.5983" lon="3.81141">
        <ele>45.441357695473</ele>
        <time>2020-09-12T09:05:25.000Z</time>
      </trkpt>
      <trkpt lat="43.59828" lon="3.81143">
        <ele>45.544238353909</ele>
        <time>2020-09-12T09:05:26.000Z</time>
      </trkpt>
      <trkpt lat="43.59827" lon="3.81145">
        <ele>45.647119012346</ele>
        <time>2020-09-12T09:05:27.000Z</time>
      </trkpt>
      <trkpt lat="43.59825" lon="3.81147">
        <ele>45.749999670782</ele>
        <time>2020-09-12T09:05:28.000Z</time>
      </trkpt>
      <trkpt lat="43.59824" lon="3.8115">
        <ele>45.852880329218</ele>
        <time>2020-09-12T09:05:29.000Z</time>
      </trkpt>
      <trkpt lat="43.59822" lon="3.81153">
        <ele>45.955760987654</ele>
        <time>2020-09-12T09:05:30.000Z</time>
      </trkpt>
      <trkpt lat="43.59821" lon="3.81156">
        <ele>45.94300032</ele>
        <time>2020-09-12T09:05:31.000Z</time>
      </trkpt>
      <trkpt lat="43.5982" lon="3.81159">
        <ele>45.84300032</ele>
        <time>2020-09-12T09:05:32.000Z</time>
      </trkpt>
      <trkpt lat="43.59818" lon="3.81163">
        <ele>45.74300032</ele>
        <time>2020-09-12T09:05:33.000Z</time>
      </trkpt>
      <trkpt lat="43.59817" lon="3.81166">
        <ele>45.64300032</ele>
        <time>2020-09-12T09:05:34.000Z</time>
      </trkpt>
      <trkpt lat="43.59816" lon="3.8117">
        <ele>45.54300032</ele>
        <time>2020-09-12T09:05:35.000Z</time>
      </trkpt>
      <trkpt lat="43.59815" lon="3.81174">
        <ele>45.44300032</ele>
        <time>2020-09-12T09:05:36.000Z</time>
      </trkpt>
      <trkpt lat="43.59814" lon="3.81177">
        <ele>45.34300032</ele>
        <time>2020-09-12T09:05:37.000Z</time>
      </trkpt>
      <trkpt lat="43.59814" lon="3.81181">
        <ele>45.24300032</ele>
        <time>2020-09-12T09:05:38.000Z</time>
      </trkpt>
      <trkpt lat="43.59813" lon="3.81186">
        <ele>45.14300032</ele>
        <time>2020-09-12T09:05:39.000Z</time>
      </trkpt>
      <trkpt lat="43.59812" lon="3.81191">
        <ele>45.04300032</ele>
        <time>2020-09-12T09:05:40.000Z</time>
      </trkpt>
      <trkpt lat="43.59809" lon="3.81196">
        <ele>45</ele>
        <time>2020-09-12T09:05:41.000Z</time>
      </trkpt>
      <trkpt lat="43.59807" lon="3.81201">
        <ele>45</ele>
        <time>2020-09-12T09:05:42.000Z</time>
      </trkpt>
      <trkpt lat="43.59804" lon="3.81206">
        <ele>45</ele>
        <time>2020-09-12T09:05:43.000Z</time>
      </trkpt>
      <trkpt lat="43.59801" lon="3.81211">
        <ele>45</ele>
        <time>2020-09-12T09:05:44.000Z</time>
      </trkpt>
      <trkpt lat="43.59798" lon="3.81216">
        <ele>45</ele>
        <time>2020-09-12T09:05:45.000Z</time>
      </trkpt>
      <trkpt lat="43.59795" lon="3.81221">
        <ele>45</ele>
        <time>2020-09-12T09:05:46.000Z</time>
      </trkpt>
      <trkpt lat="43.59791" lon="3.81226">
        <ele>45</ele>
        <time>2020-09-12T09:05:47.000Z</time>
      </trkpt>
      <trkpt lat="43.59788" lon="3.81231">
        <ele>45</ele>
        <time>2020-09-12T09:05:48.000Z</time>
      </trkpt>
      <trkpt lat="43.59785" lon="3.81236">
        <ele>45</ele>
        <time>2020-09-12T09:05:49.000Z</time>
      </trkpt>
      <trkpt lat="43.59782" lon="3.81241">
        <ele>45</ele>
        <time>2020-09-12T09:05:50.000Z</time>
      </trkpt>
      <trkpt lat="43.59779" lon="3.81247">
        <ele>44.972164636922</ele>
        <time>2020-09-12T09:05:51.000Z</time>
      </trkpt>
      <trkpt lat="43.59776" lon="3.81252">
        <ele>44.869071921437</ele>
        <time>2020-09-12T09:05:52.000Z</time>
      </trkpt>
      <trkpt lat="43.59774" lon="3.81257">
        <ele>44.765979205952</ele>
        <time>2020-09-12T09:05:53.000Z</time>
      </trkpt>
      <trkpt lat="43.59771" lon="3.81262">
        <ele>44.662886490467</ele>
        <time>2020-09-12T09:05:54.000Z</time>
      </trkpt>
      <trkpt lat="43.59768" lon="3.81268">
        <ele>44.559793774981</ele>
        <time>2020-09-12T09:05:55.000Z</time>
      </trkpt>
      <trkpt lat="43.59765" lon="3.81273">
        <ele>44.456701059496</ele>
        <time>2020-09-12T09:05:56.000Z</time>
      </trkpt>
      <trkpt lat="43.59762" lon="3.81279">
        <ele>44.353608344011</ele>
        <time>2020-09-12T09:05:57.000Z</time>
      </trkpt>
      <trkpt lat="43.5976" lon="3.81284">
        <ele>44.250515628526</ele>
        <time>2020-09-12T09:05:58.000Z</time>
      </trkpt>
      <trkpt lat="43.59757" lon="3.8129">
        <ele>44.147422913041</ele>
        <time>2020-09-12T09:05:59.000Z</time>
      </trkpt>
      <trkpt lat="43.59754" lon="3.81296">
        <ele>44.044330197555</ele>
        <time>2020-09-12T09:06:00.000Z</time>
      </trkpt>
      <trkpt lat="43.59751" lon="3.81301">
        <ele>43.889428257858</ele>
        <time>2020-09-12T09:06:01.000Z</time>
      </trkpt>
      <trkpt lat="43.59748" lon="3.81307">
        <ele>43.695441656279</ele>
        <time>2020-09-12T09:06:02.000Z</time>
      </trkpt>
      <trkpt lat="43.59745" lon="3.81313">
        <ele>43.501455054701</ele>
        <time>2020-09-12T09:06:03.000Z</time>
      </trkpt>
      <trkpt lat="43.59742" lon="3.81319">
        <ele>43.307468453123</ele>
        <time>2020-09-12T09:06:04.000Z</time>
      </trkpt>
      <trkpt lat="43.59739" lon="3.81325">
        <ele>43.113481851545</ele>
        <time>2020-09-12T09:06:05.000Z</time>
      </trkpt>
      <trkpt lat="43.59736" lon="3.81331">
        <ele>42.919495249967</ele>
        <time>2020-09-12T09:06:06.000Z</time>
      </trkpt>
      <trkpt lat="43.59733" lon="3.81336">
        <ele>42.725508648388</ele>
        <time>2020-09-12T09:06:07.000Z</time>
      </trkpt>
      <trkpt lat="43.59731" lon="3.81342">
        <ele>42.53152204681</ele>
        <time>2020-09-12T09:06:08.000Z</time>
      </trkpt>
      <trkpt lat="43.59728" lon="3.81347">
        <ele>42.337535445232</ele>
        <time>2020-09-12T09:06:09.000Z</time>
      </trkpt>
      <trkpt lat="43.59725" lon="3.81352">
        <ele>42.143548843654</ele>
        <time>2020-09-12T09:06:10.000Z</time>
      </trkpt>
      <trkpt lat="43.59722" lon="3.81357">
        <ele>41.973167580763</ele>
        <time>2020-09-12T09:06:11.000Z</time>
      </trkpt>
      <trkpt lat="43.5972" lon="3.81361">
        <ele>41.869968508597</ele>
        <time>2020-09-12T09:06:12.000Z</time>
      </trkpt>
      <trkpt lat="43.59718" lon="3.81365">
        <ele>41.766769436431</ele>
        <time>2020-09-12T09:06:13.000Z</time>
      </trkpt>
      <trkpt lat="43.59715" lon="3.81368">
        <ele>41.663570364265</ele>
        <time>2020-09-12T09:06:14.000Z</time>
      </trkpt>
      <trkpt lat="43.59713" lon="3.81372">
        <ele>41.560371292099</ele>
        <time>2020-09-12T09:06:15.000Z</time>
      </trkpt>
      <trkpt lat="43.59712" lon="3.81376">
        <ele>41.457172219933</ele>
        <time>2020-09-12T09:06:16.000Z</time>
      </trkpt>
      <trkpt lat="43.5971" lon="3.81381">
        <ele>41.353973147767</ele>
        <time>2020-09-12T09:06:17.000Z</time>
      </trkpt>
      <trkpt lat="43.59708" lon="3.81386">
        <ele>41.250774075601</ele>
        <time>2020-09-12T09:06:18.000Z</time>
      </trkpt>
      <trkpt lat="43.59705" lon="3.81391">
        <ele>41.147575003434</ele>
        <time>2020-09-12T09:06:19.000Z</time>
      </trkpt>
      <trkpt lat="43.59703" lon="3.81396">
        <ele>41.044375931268</ele>
        <time>2020-09-12T09:06:20.000Z</time>
      </trkpt>
      <trkpt lat="43.597" lon="3.81401">
        <ele>40.88600064</ele>
        <time>2020-09-12T09:06:21.000Z</time>
      </trkpt>
      <trkpt lat="43.59697" lon="3.81406">
        <ele>40.68600064</ele>
        <time>2020-09-12T09:06:22.000Z</time>
      </trkpt>
      <trkpt lat="43.59694" lon="3.81412">
        <ele>40.48600064</ele>
        <time>2020-09-12T09:06:23.000Z</time>
      </trkpt>
      <trkpt lat="43.59692" lon="3.81417">
        <ele>40.28600064</ele>
        <time>2020-09-12T09:06:24.000Z</time>
      </trkpt>
      <trkpt lat="43.59689" lon="3.81421">
        <ele>40.08600064</ele>
        <time>2020-09-12T09:06:25.000Z</time>
      </trkpt>
      <trkpt lat="43.59687" lon="3.81426">
        <ele>39.88600064</ele>
        <time>2020-09-12T09:06:26.000Z</time>
      </trkpt>
      <trkpt lat="43.59685" lon="3.8143">
        <ele>39.68600064</ele>
        <time>2020-09-12T09:06:27.000Z</time>
      </trkpt>
      <trkpt lat="43.59682" lon="3.81433">
        <ele>39.48600064</ele>
        <time>2020-09-12T09:06:28.000Z</time>
      </trkpt>
      <trkpt lat="43.59678" lon="3.81437">
        <ele>39.28600064</ele>
        <time>2020-09-12T09:06:29.000Z</time>
      </trkpt>
      <trkpt lat="43.59674" lon="3.81439">
        <ele>39.08600064</ele>
        <time>2020-09-12T09:06:30.000Z</time>
      </trkpt>
      <trkpt lat="43.5967" lon="3.81439">
        <ele>38.94300032</ele>
        <time>2020-09-12T09:06:31.000Z</time>
      </trkpt>
      <trkpt lat="43.59666" lon="3.81438">
        <ele>38.84300032</ele>
        <time>2020-09-12T09:06:32.000Z</time>
      </trkpt>
      <trkpt lat="43.59661" lon="3.81436">
        <ele>38.74300032</ele>
        <time>2020-09-12T09:06:33.000Z</time>
      </trkpt>
      <trkpt lat="43.59657" lon="3.81434">
        <ele>38.64300032</ele>
        <time>2020-09-12T09:06:34.000Z</time>
      </trkpt>
      <trkpt lat="43.59652" lon="3.81432">
        <ele>38.54300032</ele>
        <time>2020-09-12T09:06:35.000Z</time>
      </trkpt>
      <trkpt lat="43.59648" lon="3.8143">
        <ele>38.44300032</ele>
        <time>2020-09-12T09:06:36.000Z</time>
      </trkpt>
      <trkpt lat="43.59644" lon="3.81428">
        <ele>38.34300032</ele>
        <time>2020-09-12T09:06:37.000Z</time>
      </trkpt>
      <trkpt lat="43.59638" lon="3.81427">
        <ele>38.24300032</ele>
        <time>2020-09-12T09:06:38.000Z</time>
      </trkpt>
      <trkpt lat="43.59633" lon="3.81426">
        <ele>38.14300032</ele>
        <time>2020-09-12T09:06:39.000Z</time>
      </trkpt>
      <trkpt lat="43.59628" lon="3.81425">
        <ele>38.04300032</ele>
        <time>2020-09-12T09:06:40.000Z</time>
      </trkpt>
      <trkpt lat="43.59623" lon="3.81424">
        <ele>37.94300032</ele>
        <time>2020-09-12T09:06:41.000Z</time>
      </trkpt>
      <trkpt lat="43.59618" lon="3.81423">
        <ele>37.84300032</ele>
        <time>2020-09-12T09:06:42.000Z</time>
      </trkpt>
      <trkpt lat="43.59613" lon="3.81422">
        <ele>37.74300032</ele>
        <time>2020-09-12T09:06:43.000Z</time>
      </trkpt>
      <trkpt lat="43.59607" lon="3.81421">
        <ele>37.64300032</ele>
        <time>2020-09-12T09:06:44.000Z</time>
      </trkpt>
      <trkpt lat="43.59602" lon="3.81421">
        <ele>37.54300032</ele>
        <time>2020-09-12T09:06:45.000Z</time>
      </trkpt>
      <trkpt lat="43.59597" lon="3.8142">
        <ele>37.44300032</ele>
        <time>2020-09-12T09:06:46.000Z</time>
      </trkpt>
      <trkpt lat="43.59592" lon="3.8142">
        <ele>37.34300032</ele>
        <time>2020-09-12T09:06:47.000Z</time>
      </trkpt>
      <trkpt lat="43.59587" lon="3.81419">
        <ele>37.24300032</ele>
        <time>2020-09-12T09:06:48.000Z</time>
      </trkpt>
      <trkpt lat="43.59581" lon="3.81419">
        <ele>37.14300032</ele>
        <time>2020-09-12T09:06:49.000Z</time>
      </trkpt>
      <trkpt lat="43.59576" lon="3.81418">
        <ele>37.04300032</ele>
        <time>2020-09-12T09:06:50.000Z</time>
      </trkpt>
      <trkpt lat="43.59571" lon="3.81418">
        <ele>36.943057244534</ele>
        <time>2020-09-12T09:06:51.000Z</time>
      </trkpt>
      <trkpt lat="43.59566" lon="3.81417">
        <ele>36.843157112698</ele>
        <time>2020-09-12T09:06:52.000Z</time>
      </trkpt>
      <trkpt lat="43.59561" lon="3.81417">
        <ele>36.743256980861</ele>
        <time>2020-09-12T09:06:53.000Z</time>
      </trkpt>
      <trkpt lat="43.59556" lon="3.81416">
        <ele>36.643356849025</ele>
        <time>2020-09-12T09:06:54.000Z</time>
      </trkpt>
      <trkpt lat="43.59551" lon="3.81415">
        <ele>36.543456717189</ele>
        <time>2020-09-12T09:06:55.000Z</time>
      </trkpt>
      <trkpt lat="43.59546" lon="3.81415">
        <ele>36.443556585353</ele>
        <time>2020-09-12T09:06:56.000Z</time>
      </trkpt>
      <trkpt lat="43.59541" lon="3.81414">
        <ele>36.343656453517</ele>
        <time>2020-09-12T09:06:57.000Z</time>
      </trkpt>
      <trkpt lat="43.59536" lon="3.81414">
        <ele>36.24375632168</ele>
        <time>2020-09-12T09:06:58.000Z</time>
      </trkpt>
      <trkpt lat="43.59532" lon="3.81413">
        <ele>36.143856189844</ele>
        <time>2020-09-12T09:06:59.000Z</time>
      </trkpt>
      <trkpt lat="43.59527" lon="3.81413">
        <ele>36.043956058008</ele>
        <time>2020-09-12T09:07:00.000Z</time>
      </trkpt>
      <trkpt lat="43.59522" lon="3.81413">
        <ele>35.9439439619</ele>
        <time>2020-09-12T09:07:01.000Z</time>
      </trkpt>
      <trkpt lat="43.59517" lon="3.81412">
        <ele>35.843843893864</ele>
        <time>2020-09-12T09:07:02.000Z</time>
      </trkpt>
      <trkpt lat="43.59512" lon="3.81411">
        <ele>35.743743825828</ele>
        <time>2020-09-12T09:07:03.000Z</time>
      </trkpt>
      <trkpt lat="43.59507" lon="3.81411">
        <ele>35.643643757792</ele>
        <time>2020-09-12T09:07:04.000Z</time>
      </trkpt>
      <trkpt lat="43.59503" lon="3.8141">
        <ele>35.543543689756</ele>
        <time>2020-09-12T09:07:05.000Z</time>
      </trkpt>
      <trkpt lat="43.59498" lon="3.81409">
        <ele>35.44344362172</ele>
        <time>2020-09-12T09:07:06.000Z</time>
      </trkpt>
      <trkpt lat="43.59493" lon="3.81409">
        <ele>35.343343553684</ele>
        <time>2020-09-12T09:07:07.000Z</time>
      </trkpt>
      <trkpt lat="43.59488" lon="3.81408">
        <ele>35.243243485648</ele>
        <time>2020-09-12T09:07:08.000Z</time>
      </trkpt>
      <trkpt lat="43.59484" lon="3.81408">
        <ele>35.143143417612</ele>
        <time>2020-09-12T09:07:09.000Z</time>
      </trkpt>
      <trkpt lat="43.59479" lon="3.81407">
        <ele>35.043043349576</ele>
        <time>2020-09-12T09:07:10.000Z</time>
      </trkpt>
      <trkpt lat="43.59475" lon="3.81407">
        <ele>34.94300032</ele>
        <time>2020-09-12T09:07:11.000Z</time>
      </trkpt>
      <trkpt lat="43.5947" lon="3.81406">
        <ele>34.84300032</ele>
        <time>2020-09-12T09:07:12.000Z</time>
      </trkpt>
      <trkpt lat="43.59465" lon="3.81405">
        <ele>34.74300032</ele>
        <time>2020-09-12T09:07:13.000Z</time>
      </trkpt>
      <trkpt lat="43.59461" lon="3.81404">
        <ele>34.64300032</ele>
        <time>2020-09-12T09:07:14.000Z</time>
      </trkpt>
      <trkpt lat="43.59456" lon="3.81403">
        <ele>34.54300032</ele>
        <time>2020-09-12T09:07:15.000Z</time>
      </trkpt>
      <trkpt lat="43.59451" lon="3.81402">
        <ele>34.44300032</ele>
        <time>2020-09-12T09:07:16.000Z</time>
      </trkpt>
      <trkpt lat="43.59447" lon="3.814">
        <ele>34.34300032</ele>
        <time>2020-09-12T09:07:17.000Z</time>
      </trkpt>
      <trkpt lat="43.59442" lon="3.81398">
        <ele>34.24300032</ele>
        <time>2020-09-12T09:07:18.000Z</time>
      </trkpt>
      <trkpt lat="43.59438" lon="3.81396">
        <ele>34.14300032</ele>
        <time>2020-09-12T09:07:19.000Z</time>
      </trkpt>
      <trkpt lat="43.59433" lon="3.81394">
        <ele>34.04300032</ele>
        <time>2020-09-12T09:07:20.000Z</time>
      </trkpt>
      <trkpt lat="43.59429" lon="3.81392">
        <ele>33.94300032</ele>
        <time>2020-09-12T09:07:21.000Z</time>
      </trkpt>
      <trkpt lat="43.59425" lon="3.81389">
        <ele>33.84300032</ele>
        <time>2020-09-12T09:07:22.000Z</time>
      </trkpt>
      <trkpt lat="43.5942" lon="3.81387">
        <ele>33.74300032</ele>
        <time>2020-09-12T09:07:23.000Z</time>
      </trkpt>
      <trkpt lat="43.59415" lon="3.81385">
        <ele>33.64300032</ele>
        <time>2020-09-12T09:07:24.000Z</time>
      </trkpt>
      <trkpt lat="43.59411" lon="3.81382">
        <ele>33.54300032</ele>
        <time>2020-09-12T09:07:25.000Z</time>
      </trkpt>
      <trkpt lat="43.59406" lon="3.8138">
        <ele>33.44300032</ele>
        <time>2020-09-12T09:07:26.000Z</time>
      </trkpt>
      <trkpt lat="43.59401" lon="3.81378">
        <ele>33.34300032</ele>
        <time>2020-09-12T09:07:27.000Z</time>
      </trkpt>
      <trkpt lat="43.59396" lon="3.81375">
        <ele>33.24300032</ele>
        <time>2020-09-12T09:07:28.000Z</time>
      </trkpt>
      <trkpt lat="43.59392" lon="3.81373">
        <ele>33.14300032</ele>
        <time>2020-09-12T09:07:29.000Z</time>
      </trkpt>
      <trkpt lat="43.59387" lon="3.81371">
        <ele>33.04300032</ele>
        <time>2020-09-12T09:07:30.000Z</time>
      </trkpt>
      <trkpt lat="43.59382" lon="3.81368">
        <ele>33</ele>
        <time>2020-09-12T09:07:31.000Z</time>
      </trkpt>
      <trkpt lat="43.59378" lon="3.81366">
        <ele>33</ele>
        <time>2020-09-12T09:07:32.000Z</time>
      </trkpt>
      <trkpt lat="43.59373" lon="3.81364">
        <ele>33</ele>
        <time>2020-09-12T09:07:33.000Z</time>
      </trkpt>
      <trkpt lat="43.59369" lon="3.81361">
        <ele>33</ele>
        <time>2020-09-12T09:07:34.000Z</time>
      </trkpt>
      <trkpt lat="43.59364" lon="3.81359">
        <ele>33</ele>
        <time>2020-09-12T09:07:35.000Z</time>
      </trkpt>
      <trkpt lat="43.59359" lon="3.81357">
        <ele>33</ele>
        <time>2020-09-12T09:07:36.000Z</time>
      </trkpt>
      <trkpt lat="43.59354" lon="3.81354">
        <ele>33</ele>
        <time>2020-09-12T09:07:37.000Z</time>
      </trkpt>
      <trkpt lat="43.5935" lon="3.81352">
        <ele>33</ele>
        <time>2020-09-12T09:07:38.000Z</time>
      </trkpt>
      <trkpt lat="43.59345" lon="3.81349">
        <ele>33</ele>
        <time>2020-09-12T09:07:39.000Z</time>
      </trkpt>
      <trkpt lat="43.5934" lon="3.81347">
        <ele>33</ele>
        <time>2020-09-12T09:07:40.000Z</time>
      </trkpt>
      <trkpt lat="43.59336" lon="3.81344">
        <ele>33</ele>
        <time>2020-09-12T09:07:41.000Z</time>
      </trkpt>
      <trkpt lat="43.59331" lon="3.81342">
        <ele>33</ele>
        <time>2020-09-12T09:07:42.000Z</time>
      </trkpt>
      <trkpt lat="43.59327" lon="3.81339">
        <ele>33</ele>
        <time>2020-09-12T09:07:43.000Z</time>
      </trkpt>
      <trkpt lat="43.59322" lon="3.81337">
        <ele>33</ele>
        <time>2020-09-12T09:07:44.000Z</time>
      </trkpt>
      <trkpt lat="43.59318" lon="3.81335">
        <ele>33</ele>
        <time>2020-09-12T09:07:45.000Z</time>
      </trkpt>
      <trkpt lat="43.59314" lon="3.81333">
        <ele>33</ele>
        <time>2020-09-12T09:07:46.000Z</time>
      </trkpt>
      <trkpt lat="43.59309" lon="3.8133">
        <ele>33</ele>
        <time>2020-09-12T09:07:47.000Z</time>
      </trkpt>
      <trkpt lat="43.59305" lon="3.81328">
        <ele>33</ele>
        <time>2020-09-12T09:07:48.000Z</time>
      </trkpt>
      <trkpt lat="43.59301" lon="3.81326">
        <ele>33</ele>
        <time>2020-09-12T09:07:49.000Z</time>
      </trkpt>
      <trkpt lat="43.59296" lon="3.81324">
        <ele>33</ele>
        <time>2020-09-12T09:07:50.000Z</time>
      </trkpt>
      <trkpt lat="43.59292" lon="3.81322">
        <ele>33</ele>
        <time>2020-09-12T09:07:51.000Z</time>
      </trkpt>
      <trkpt lat="43.59287" lon="3.81321">
        <ele>33</ele>
        <time>2020-09-12T09:07:52.000Z</time>
      </trkpt>
      <trkpt lat="43.59283" lon="3.8132">
        <ele>33</ele>
        <time>2020-09-12T09:07:53.000Z</time>
      </trkpt>
      <trkpt lat="43.59279" lon="3.81318">
        <ele>33</ele>
        <time>2020-09-12T09:07:54.000Z</time>
      </trkpt>
      <trkpt lat="43.59275" lon="3.81317">
        <ele>33</ele>
        <time>2020-09-12T09:07:55.000Z</time>
      </trkpt>
      <trkpt lat="43.59271" lon="3.81317">
        <ele>33</ele>
        <time>2020-09-12T09:07:56.000Z</time>
      </trkpt>
      <trkpt lat="43.59267" lon="3.81318">
        <ele>33</ele>
        <time>2020-09-12T09:07:57.000Z</time>
      </trkpt>
      <trkpt lat="43.59264" lon="3.81321">
        <ele>33</ele>
        <time>2020-09-12T09:07:58.000Z</time>
      </trkpt>
      <trkpt lat="43.59261" lon="3.81325">
        <ele>33</ele>
        <time>2020-09-12T09:07:59.000Z</time>
      </trkpt>
      <trkpt lat="43.59258" lon="3.8133">
        <ele>33</ele>
        <time>2020-09-12T09:08:00.000Z</time>
      </trkpt>
      <trkpt lat="43.59255" lon="3.81334">
        <ele>32.88600064</ele>
        <time>2020-09-12T09:08:01.000Z</time>
      </trkpt>
      <trkpt lat="43.59251" lon="3.81339">
        <ele>32.68600064</ele>
        <time>2020-09-12T09:08:02.000Z</time>
      </trkpt>
      <trkpt lat="43.59248" lon="3.81344">
        <ele>32.48600064</ele>
        <time>2020-09-12T09:08:03.000Z</time>
      </trkpt>
      <trkpt lat="43.59245" lon="3.81349">
        <ele>32.28600064</ele>
        <time>2020-09-12T09:08:04.000Z</time>
      </trkpt>
      <trkpt lat="43.59242" lon="3.81354">
        <ele>32.08600064</ele>
        <time>2020-09-12T09:08:05.000Z</time>
      </trkpt>
      <trkpt lat="43.59239" lon="3.8136">
        <ele>31.88600064</ele>
        <time>2020-09-12T09:08:06.000Z</time>
      </trkpt>
      <trkpt lat="43.59236" lon="3.81365">
        <ele>31.68600064</ele>
        <time>2020-09-12T09:08:07.000Z</time>
      </trkpt>
      <trkpt lat="43.59233" lon="3.81371">
        <ele>31.48600064</ele>
        <time>2020-09-12T09:08:08.000Z</time>
      </trkpt>
      <trkpt lat="43.5923" lon="3.81376">
        <ele>31.28600064</ele>
        <time>2020-09-12T09:08:09.000Z</time>
      </trkpt>
      <trkpt lat="43.59227" lon="3.81381">
        <ele>31.08600064</ele>
        <time>2020-09-12T09:08:10.000Z</time>
      </trkpt>
      <trkpt lat="43.59224" lon="3.81386">
        <ele>30.944063138273</ele>
        <time>2020-09-12T09:08:11.000Z</time>
      </trkpt>
      <trkpt lat="43.59221" lon="3.81391">
        <ele>30.845927742201</ele>
        <time>2020-09-12T09:08:12.000Z</time>
      </trkpt>
      <trkpt lat="43.59218" lon="3.81396">
        <ele>30.74779234613</ele>
        <time>2020-09-12T09:08:13.000Z</time>
      </trkpt>
      <trkpt lat="43.59216" lon="3.81401">
        <ele>30.649656950059</ele>
        <time>2020-09-12T09:08:14.000Z</time>
      </trkpt>
      <trkpt lat="43.59213" lon="3.81407">
        <ele>30.551521553987</ele>
        <time>2020-09-12T09:08:15.000Z</time>
      </trkpt>
      <trkpt lat="43.5921" lon="3.81412">
        <ele>30.453386157916</ele>
        <time>2020-09-12T09:08:16.000Z</time>
      </trkpt>
      <trkpt lat="43.59207" lon="3.81418">
        <ele>30.355250761845</ele>
        <time>2020-09-12T09:08:17.000Z</time>
      </trkpt>
      <trkpt lat="43.59203" lon="3.81423">
        <ele>30.257115365773</ele>
        <time>2020-09-12T09:08:18.000Z</time>
      </trkpt>
      <trkpt lat="43.592" lon="3.81429">
        <ele>30.158979969702</ele>
        <time>2020-09-12T09:08:19.000Z</time>
      </trkpt>
      <trkpt lat="43.59197" lon="3.81434">
        <ele>30.060844573631</ele>
        <time>2020-09-12T09:08:20.000Z</time>
      </trkpt>
      <trkpt lat="43.59194" lon="3.8144">
        <ele>29.92252931214</ele>
        <time>2020-09-12T09:08:21.000Z</time>
      </trkpt>
      <trkpt lat="43.59191" lon="3.81445">
        <ele>29.718655647268</ele>
        <time>2020-09-12T09:08:22.000Z</time>
      </trkpt>
      <trkpt lat="43.59188" lon="3.81451">
        <ele>29.514781982396</ele>
        <time>2020-09-12T09:08:23.000Z</time>
      </trkpt>
      <trkpt lat="43.59185" lon="3.81456">
        <ele>29.310908317524</ele>
        <time>2020-09-12T09:08:24.000Z</time>
      </trkpt>
      <trkpt lat="43.59182" lon="3.81462">
        <ele>29.107034652651</ele>
        <time>2020-09-12T09:08:25.000Z</time>
      </trkpt>
      <trkpt lat="43.59179" lon="3.81467">
        <ele>28.903160987779</ele>
        <time>2020-09-12T09:08:26.000Z</time>
      </trkpt>
      <trkpt lat="43.59176" lon="3.81472">
        <ele>28.699287322907</ele>
        <time>2020-09-12T09:08:27.000Z</time>
      </trkpt>
      <trkpt lat="43.59173" lon="3.81477">
        <ele>28.495413658035</ele>
        <time>2020-09-12T09:08:28.000Z</time>
      </trkpt>
      <trkpt lat="43.5917" lon="3.81482">
        <ele>28.291539993163</ele>
        <time>2020-09-12T09:08:29.000Z</time>
      </trkpt>
      <trkpt lat="43.59167" lon="3.81487">
        <ele>28.087666328291</ele>
        <time>2020-09-12T09:08:30.000Z</time>
      </trkpt>
      <trkpt lat="43.59164" lon="3.81491">
        <ele>28</ele>
        <time>2020-09-12T09:08:31.000Z</time>
      </trkpt>
      <trkpt lat="43.59162" lon="3.81495">
        <ele>28</ele>
        <time>2020-09-12T09:08:32.000Z</time>
      </trkpt>
      <trkpt lat="43.5916" lon="3.81498">
        <ele>28</ele>
        <time>2020-09-12T09:08:33.000Z</time>
      </trkpt>
      <trkpt lat="43.59157" lon="3.815">
        <ele>28</ele>
        <time>2020-09-12T09:08:34.000Z</time>
      </trkpt>
      <trkpt lat="43.59154" lon="3.815">
        <ele>28</ele>
        <time>2020-09-12T09:08:35.000Z</time>
      </trkpt>
      <trkpt lat="43.59151" lon="3.81498">
        <ele>28</ele>
        <time>2020-09-12T09:08:36.000Z</time>
      </trkpt>
      <trkpt lat="43.59148" lon="3.81495">
        <ele>28</ele>
        <time>2020-09-12T09:08:37.000Z</time>
      </trkpt>
      <trkpt lat="43.59146" lon="3.8149">
        <ele>28</ele>
        <time>2020-09-12T09:08:38.000Z</time>
      </trkpt>
      <trkpt lat="43.59144" lon="3.81484">
        <ele>28</ele>
        <time>2020-09-12T09:08:39.000Z</time>
      </trkpt>
      <trkpt lat="43.59142" lon="3.81479">
        <ele>28</ele>
        <time>2020-09-12T09:08:40.000Z</time>
      </trkpt>
      <trkpt lat="43.59141" lon="3.81474">
        <ele>28</ele>
        <time>2020-09-12T09:08:41.000Z</time>
      </trkpt>
      <trkpt lat="43.59139" lon="3.81469">
        <ele>28</ele>
        <time>2020-09-12T09:08:42.000Z</time>
      </trkpt>
      <trkpt lat="43.59138" lon="3.81465">
        <ele>28</ele>
        <time>2020-09-12T09:08:43.000Z</time>
      </trkpt>
      <trkpt lat="43.59137" lon="3.81462">
        <ele>28</ele>
        <time>2020-09-12T09:08:44.000Z</time>
      </trkpt>
      <trkpt lat="43.59134" lon="3.81461">
        <ele>28</ele>
        <time>2020-09-12T09:08:45.000Z</time>
      </trkpt>
      <trkpt lat="43.59131" lon="3.81461">
        <ele>28</ele>
        <time>2020-09-12T09:08:46.000Z</time>
      </trkpt>
      <trkpt lat="43.59128" lon="3.8146">
        <ele>28</ele>
        <time>2020-09-12T09:08:47.000Z</time>
      </trkpt>
      <trkpt lat="43.59127" lon="3.81456">
        <ele>28</ele>
        <time>2020-09-12T09:08:48.000Z</time>
      </trkpt>
      <trkpt lat="43.59125" lon="3.81452">
        <ele>28</ele>
        <time>2020-09-12T09:08:49.000Z</time>
      </trkpt>
      <trkpt lat="43.59123" lon="3.81447">
        <ele>28</ele>
        <time>2020-09-12T09:08:50.000Z</time>
      </trkpt>
      <trkpt lat="43.59122" lon="3.81442">
        <ele>28.055393292251</ele>
        <time>2020-09-12T09:08:51.000Z</time>
      </trkpt>
      <trkpt lat="43.5912" lon="3.81436">
        <ele>28.152575052307</ele>
        <time>2020-09-12T09:08:52.000Z</time>
      </trkpt>
      <trkpt lat="43.59118" lon="3.81431">
        <ele>28.249756812364</ele>
        <time>2020-09-12T09:08:53.000Z</time>
      </trkpt>
      <trkpt lat="43.59117" lon="3.81426">
        <ele>28.34693857242</ele>
        <time>2020-09-12T09:08:54.000Z</time>
      </trkpt>
      <trkpt lat="43.59115" lon="3.8142">
        <ele>28.444120332477</ele>
        <time>2020-09-12T09:08:55.000Z</time>
      </trkpt>
      <trkpt lat="43.59113" lon="3.81415">
        <ele>28.541302092533</ele>
        <time>2020-09-12T09:08:56.000Z</time>
      </trkpt>
      <trkpt lat="43.59111" lon="3.81409">
        <ele>28.63848385259</ele>
        <time>2020-09-12T09:08:57.000Z</time>
      </trkpt>
      <trkpt lat="43.59109" lon="3.81403">
        <ele>28.735665612646</ele>
        <time>2020-09-12T09:08:58.000Z</time>
      </trkpt>
      <trkpt lat="43.59107" lon="3.81398">
        <ele>28.832847372703</ele>
        <time>2020-09-12T09:08:59.000Z</time>
      </trkpt>
      <trkpt lat="43.59105" lon="3.81392">
        <ele>28.930029132759</ele>
        <time>2020-09-12T09:09:00.000Z</time>
      </trkpt>
      <trkpt lat="43.59103" lon="3.81386">
        <ele>29</ele>
        <time>2020-09-12T09:09:01.000Z</time>
      </trkpt>
      <trkpt lat="43.591" lon="3.81381">
        <ele>29</ele>
        <time>2020-09-12T09:09:02.000Z</time>
      </trkpt>
      <trkpt lat="43.59098" lon="3.81376">
        <ele>29</ele>
        <time>2020-09-12T09:09:03.000Z</time>
      </trkpt>
      <trkpt lat="43.59096" lon="3.8137">
        <ele>29</ele>
        <time>2020-09-12T09:09:04.000Z</time>
      </trkpt>
      <trkpt lat="43.59093" lon="3.81365">
        <ele>29</ele>
        <time>2020-09-12T09:09:05.000Z</time>
      </trkpt>
      <trkpt lat="43.59091" lon="3.81359">
        <ele>29</ele>
        <time>2020-09-12T09:09:06.000Z</time>
      </trkpt>
      <trkpt lat="43.59089" lon="3.81354">
        <ele>29</ele>
        <time>2020-09-12T09:09:07.000Z</time>
      </trkpt>
      <trkpt lat="43.59086" lon="3.81349">
        <ele>29</ele>
        <time>2020-09-12T09:09:08.000Z</time>
      </trkpt>
      <trkpt lat="43.59084" lon="3.81344">
        <ele>29</ele>
        <time>2020-09-12T09:09:09.000Z</time>
      </trkpt>
      <trkpt lat="43.59081" lon="3.81339">
        <ele>29</ele>
        <time>2020-09-12T09:09:10.000Z</time>
      </trkpt>
      <trkpt lat="43.59079" lon="3.81334">
        <ele>29.05699968</ele>
        <time>2020-09-12T09:09:11.000Z</time>
      </trkpt>
      <trkpt lat="43.59076" lon="3.81329">
        <ele>29.15699968</ele>
        <time>2020-09-12T09:09:12.000Z</time>
      </trkpt>
      <trkpt lat="43.59073" lon="3.81324">
        <ele>29.25699968</ele>
        <time>2020-09-12T09:09:13.000Z</time>
      </trkpt>
      <trkpt lat="43.5907" lon="3.81319">
        <ele>29.35699968</ele>
        <time>2020-09-12T09:09:14.000Z</time>
      </trkpt>
      <trkpt lat="43.59067" lon="3.81314">
        <ele>29.45699968</ele>
        <time>2020-09-12T09:09:15.000Z</time>
      </trkpt>
      <trkpt lat="43.59064" lon="3.8131">
        <ele>29.55699968</ele>
        <time>2020-09-12T09:09:16.000Z</time>
      </trkpt>
      <trkpt lat="43.59061" lon="3.81305">
        <ele>29.65699968</ele>
        <time>2020-09-12T09:09:17.000Z</time>
      </trkpt>
      <trkpt lat="43.59058" lon="3.81301">
        <ele>29.75699968</ele>
        <time>2020-09-12T09:09:18.000Z</time>
      </trkpt>
      <trkpt lat="43.59055" lon="3.81296">
        <ele>29.85699968</ele>
        <time>2020-09-12T09:09:19.000Z</time>
      </trkpt>
      <trkpt lat="43.59052" lon="3.81292">
        <ele>29.95699968</ele>
        <time>2020-09-12T09:09:20.000Z</time>
      </trkpt>
      <trkpt lat="43.59049" lon="3.81288">
        <ele>30</ele>
        <time>2020-09-12T09:09:21.000Z</time>
      </trkpt>
      <trkpt lat="43.59046" lon="3.81283">
        <ele>30</ele>
        <time>2020-09-12T09:09:22.000Z</time>
      </trkpt>
      <trkpt lat="43.59043" lon="3.81279">
        <ele>30</ele>
        <time>2020-09-12T09:09:23.000Z</time>
      </trkpt>
      <trkpt lat="43.59039" lon="3.81274">
        <ele>30</ele>
        <time>2020-09-12T09:09:24.000Z</time>
      </trkpt>
      <trkpt lat="43.59036" lon="3.81269">
        <ele>30</ele>
        <time>2020-09-12T09:09:25.000Z</time>
      </trkpt>
      <trkpt lat="43.59032" lon="3.81265">
        <ele>30</ele>
        <time>2020-09-12T09:09:26.000Z</time>
      </trkpt>
      <trkpt lat="43.59029" lon="3.8126">
        <ele>30</ele>
        <time>2020-09-12T09:09:27.000Z</time>
      </trkpt>
      <trkpt lat="43.59025" lon="3.81256">
        <ele>30</ele>
        <time>2020-09-12T09:09:28.000Z</time>
      </trkpt>
      <trkpt lat="43.59022" lon="3.81252">
        <ele>30</ele>
        <time>2020-09-12T09:09:29.000Z</time>
      </trkpt>
      <trkpt lat="43.59018" lon="3.81247">
        <ele>30</ele>
        <time>2020-09-12T09:09:30.000Z</time>
      </trkpt>
      <trkpt lat="43.59015" lon="3.81243">
        <ele>30</ele>
        <time>2020-09-12T09:09:31.000Z</time>
      </trkpt>
      <trkpt lat="43.59011" lon="3.81239">
        <ele>30</ele>
        <time>2020-09-12T09:09:32.000Z</time>
      </trkpt>
      <trkpt lat="43.59008" lon="3.81235">
        <ele>30</ele>
        <time>2020-09-12T09:09:33.000Z</time>
      </trkpt>
      <trkpt lat="43.59004" lon="3.81231">
        <ele>30</ele>
        <time>2020-09-12T09:09:34.000Z</time>
      </trkpt>
      <trkpt lat="43.59" lon="3.81227">
        <ele>30</ele>
        <time>2020-09-12T09:09:35.000Z</time>
      </trkpt>
      <trkpt lat="43.58996" lon="3.81223">
        <ele>30</ele>
        <time>2020-09-12T09:09:36.000Z</time>
      </trkpt>
      <trkpt lat="43.58992" lon="3.81219">
        <ele>30</ele>
        <time>2020-09-12T09:09:37.000Z</time>
      </trkpt>
      <trkpt lat="43.58988" lon="3.81215">
        <ele>30</ele>
        <time>2020-09-12T09:09:38.000Z</time>
      </trkpt>
      <trkpt lat="43.58984" lon="3.81211">
        <ele>30</ele>
        <time>2020-09-12T09:09:39.000Z</time>
      </trkpt>
      <trkpt lat="43.5898" lon="3.81208">
        <ele>30</ele>
        <time>2020-09-12T09:09:40.000Z</time>
      </trkpt>
      <trkpt lat="43.58976" lon="3.81204">
        <ele>30</ele>
        <time>2020-09-12T09:09:41.000Z</time>
      </trkpt>
      <trkpt lat="43.58972" lon="3.812">
        <ele>30</ele>
        <time>2020-09-12T09:09:42.000Z</time>
      </trkpt>
      <trkpt lat="43.58968" lon="3.81196">
        <ele>30</ele>
        <time>2020-09-12T09:09:43.000Z</time>
      </trkpt>
      <trkpt lat="43.58963" lon="3.81192">
        <ele>30</ele>
        <time>2020-09-12T09:09:44.000Z</time>
      </trkpt>
      <trkpt lat="43.58959" lon="3.81188">
        <ele>30</ele>
        <time>2020-09-12T09:09:45.000Z</time>
      </trkpt>
      <trkpt lat="43.58955" lon="3.81184">
        <ele>30</ele>
        <time>2020-09-12T09:09:46.000Z</time>
      </trkpt>
      <trkpt lat="43.58951" lon="3.81181">
        <ele>30</ele>
        <time>2020-09-12T09:09:47.000Z</time>
      </trkpt>
      <trkpt lat="43.58947" lon="3.81177">
        <ele>30</ele>
        <time>2020-09-12T09:09:48.000Z</time>
      </trkpt>
      <trkpt lat="43.58942" lon="3.81173">
        <ele>30</ele>
        <time>2020-09-12T09:09:49.000Z</time>
      </trkpt>
      <trkpt lat="43.58938" lon="3.81169">
        <ele>30</ele>
        <time>2020-09-12T09:09:50.000Z</time>
      </trkpt>
      <trkpt lat="43.58934" lon="3.81165">
        <ele>30</ele>
        <time>2020-09-12T09:09:51.000Z</time>
      </trkpt>
      <trkpt lat="43.5893" lon="3.81161">
        <ele>30</ele>
        <time>2020-09-12T09:09:52.000Z</time>
      </trkpt>
      <trkpt lat="43.58926" lon="3.81157">
        <ele>30</ele>
        <time>2020-09-12T09:09:53.000Z</time>
      </trkpt>
      <trkpt lat="43.58921" lon="3.81153">
        <ele>30</ele>
        <time>2020-09-12T09:09:54.000Z</time>
      </trkpt>
      <trkpt lat="43.58917" lon="3.8115">
        <ele>30</ele>
        <time>2020-09-12T09:09:55.000Z</time>
      </trkpt>
      <trkpt lat="43.58913" lon="3.81146">
        <ele>30</ele>
        <time>2020-09-12T09:09:56.000Z</time>
      </trkpt>
      <trkpt lat="43.58909" lon="3.81142">
        <ele>30</ele>
        <time>2020-09-12T09:09:57.000Z</time>
      </trkpt>
      <trkpt lat="43.58905" lon="3.81138">
        <ele>30</ele>
        <time>2020-09-12T09:09:58.000Z</time>
      </trkpt>
      <trkpt lat="43.589" lon="3.81134">
        <ele>30</ele>
        <time>2020-09-12T09:09:59.000Z</time>
      </trkpt>
      <trkpt lat="43.58896" lon="3.81131">
        <ele>30</ele>
        <time>2020-09-12T09:10:00.000Z</time>
      </trkpt>
      <trkpt lat="43.58892" lon="3.81127">
        <ele>30</ele>
        <time>2020-09-12T09:10:01.000Z</time>
      </trkpt>
      <trkpt lat="43.58887" lon="3.81123">
        <ele>30</ele>
        <time>2020-09-12T09:10:02.000Z</time>
      </trkpt>
      <trkpt lat="43.58883" lon="3.81119">
        <ele>30</ele>
        <time>2020-09-12T09:10:03.000Z</time>
      </trkpt>
      <trkpt lat="43.58879" lon="3.81116">
        <ele>30</ele>
        <time>2020-09-12T09:10:04.000Z</time>
      </trkpt>
      <trkpt lat="43.58875" lon="3.81112">
        <ele>30</ele>
        <time>2020-09-12T09:10:05.000Z</time>
      </trkpt>
      <trkpt lat="43.58871" lon="3.81108">
        <ele>30</ele>
        <time>2020-09-12T09:10:06.000Z</time>
      </trkpt>
      <trkpt lat="43.58867" lon="3.81104">
        <ele>30</ele>
        <time>2020-09-12T09:10:07.000Z</time>
      </trkpt>
      <trkpt lat="43.58862" lon="3.811">
        <ele>30</ele>
        <time>2020-09-12T09:10:08.000Z</time>
      </trkpt>
      <trkpt lat="43.58858" lon="3.81096">
        <ele>30</ele>
        <time>2020-09-12T09:10:09.000Z</time>
      </trkpt>
      <trkpt lat="43.58854" lon="3.81092">
        <ele>30</ele>
        <time>2020-09-12T09:10:10.000Z</time>
      </trkpt>
      <trkpt lat="43.5885" lon="3.81087">
        <ele>30</ele>
        <time>2020-09-12T09:10:11.000Z</time>
      </trkpt>
      <trkpt lat="43.58846" lon="3.81083">
        <ele>30</ele>
        <time>2020-09-12T09:10:12.000Z</time>
      </trkpt>
      <trkpt lat="43.58843" lon="3.81078">
        <ele>30</ele>
        <time>2020-09-12T09:10:13.000Z</time>
      </trkpt>
      <trkpt lat="43.58839" lon="3.81074">
        <ele>30</ele>
        <time>2020-09-12T09:10:14.000Z</time>
      </trkpt>
      <trkpt lat="43.58836" lon="3.81069">
        <ele>30</ele>
        <time>2020-09-12T09:10:15.000Z</time>
      </trkpt>
      <trkpt lat="43.58833" lon="3.81064">
        <ele>30</ele>
        <time>2020-09-12T09:10:16.000Z</time>
      </trkpt>
      <trkpt lat="43.5883" lon="3.81059">
        <ele>30</ele>
        <time>2020-09-12T09:10:17.000Z</time>
      </trkpt>
      <trkpt lat="43.58827" lon="3.81054">
        <ele>30</ele>
        <time>2020-09-12T09:10:18.000Z</time>
      </trkpt>
      <trkpt lat="43.58824" lon="3.81048">
        <ele>30</ele>
        <time>2020-09-12T09:10:19.000Z</time>
      </trkpt>
      <trkpt lat="43.58821" lon="3.81043">
        <ele>30</ele>
        <time>2020-09-12T09:10:20.000Z</time>
      </trkpt>
      <trkpt lat="43.58819" lon="3.81037">
        <ele>30.054441005027</ele>
        <time>2020-09-12T09:10:21.000Z</time>
      </trkpt>
      <trkpt lat="43.58818" lon="3.81031">
        <ele>30.149952076365</ele>
        <time>2020-09-12T09:10:22.000Z</time>
      </trkpt>
      <trkpt lat="43.58817" lon="3.81025">
        <ele>30.245463147703</ele>
        <time>2020-09-12T09:10:23.000Z</time>
      </trkpt>
      <trkpt lat="43.58816" lon="3.8102">
        <ele>30.34097421904</ele>
        <time>2020-09-12T09:10:24.000Z</time>
      </trkpt>
      <trkpt lat="43.58815" lon="3.81014">
        <ele>30.436485290378</ele>
        <time>2020-09-12T09:10:25.000Z</time>
      </trkpt>
      <trkpt lat="43.58813" lon="3.81009">
        <ele>30.531996361716</ele>
        <time>2020-09-12T09:10:26.000Z</time>
      </trkpt>
      <trkpt lat="43.58811" lon="3.81004">
        <ele>30.627507433054</ele>
        <time>2020-09-12T09:10:27.000Z</time>
      </trkpt>
      <trkpt lat="43.58809" lon="3.80999">
        <ele>30.723018504391</ele>
        <time>2020-09-12T09:10:28.000Z</time>
      </trkpt>
      <trkpt lat="43.58806" lon="3.80994">
        <ele>30.818529575729</ele>
        <time>2020-09-12T09:10:29.000Z</time>
      </trkpt>
      <trkpt lat="43.58804" lon="3.80989">
        <ele>30.914040647067</ele>
        <time>2020-09-12T09:10:30.000Z</time>
      </trkpt>
      <trkpt lat="43.58801" lon="3.80984">
        <ele>31</ele>
        <time>2020-09-12T09:10:31.000Z</time>
      </trkpt>
      <trkpt lat="43.58798" lon="3.80979">
        <ele>31</ele>
        <time>2020-09-12T09:10:32.000Z</time>
      </trkpt>
      <trkpt lat="43.58797" lon="3.80973">
        <ele>31</ele>
        <time>2020-09-12T09:10:33.000Z</time>
      </trkpt>
      <trkpt lat="43.58795" lon="3.80967">
        <ele>31</ele>
        <time>2020-09-12T09:10:34.000Z</time>
      </trkpt>
      <trkpt lat="43.58795" lon="3.80961">
        <ele>31</ele>
        <time>2020-09-12T09:10:35.000Z</time>
      </trkpt>
      <trkpt lat="43.58796" lon="3.80954">
        <ele>31</ele>
        <time>2020-09-12T09:10:36.000Z</time>
      </trkpt>
      <trkpt lat="43.58797" lon="3.80948">
        <ele>31</ele>
        <time>2020-09-12T09:10:37.000Z</time>
      </trkpt>
      <trkpt lat="43.58798" lon="3.80941">
        <ele>31</ele>
        <time>2020-09-12T09:10:38.000Z</time>
      </trkpt>
      <trkpt lat="43.588" lon="3.80935">
        <ele>31</ele>
        <time>2020-09-12T09:10:39.000Z</time>
      </trkpt>
      <trkpt lat="43.58801" lon="3.8093">
        <ele>31</ele>
        <time>2020-09-12T09:10:40.000Z</time>
      </trkpt>
      <trkpt lat="43.58803" lon="3.80924">
        <ele>31.029835061728</ele>
        <time>2020-09-12T09:10:41.000Z</time>
      </trkpt>
      <trkpt lat="43.58805" lon="3.80918">
        <ele>31.132715720165</ele>
        <time>2020-09-12T09:10:42.000Z</time>
      </trkpt>
      <trkpt lat="43.58807" lon="3.80913">
        <ele>31.235596378601</ele>
        <time>2020-09-12T09:10:43.000Z</time>
      </trkpt>
      <trkpt lat="43.58809" lon="3.80908">
        <ele>31.338477037037</ele>
        <time>2020-09-12T09:10:44.000Z</time>
      </trkpt>
      <trkpt lat="43.58811" lon="3.80903">
        <ele>31.441357695473</ele>
        <time>2020-09-12T09:10:45.000Z</time>
      </trkpt>
      <trkpt lat="43.58814" lon="3.80898">
        <ele>31.544238353909</ele>
        <time>2020-09-12T09:10:46.000Z</time>
      </trkpt>
      <trkpt lat="43.58816" lon="3.80893">
        <ele>31.647119012346</ele>
        <time>2020-09-12T09:10:47.000Z</time>
      </trkpt>
      <trkpt lat="43.58819" lon="3.80888">
        <ele>31.749999670782</ele>
        <time>2020-09-12T09:10:48.000Z</time>
      </trkpt>
      <trkpt lat="43.58822" lon="3.80884">
        <ele>31.852880329218</ele>
        <time>2020-09-12T09:10:49.000Z</time>
      </trkpt>
      <trkpt lat="43.58825" lon="3.80879">
        <ele>31.955760987654</ele>
        <time>2020-09-12T09:10:50.000Z</time>
      </trkpt>
      <trkpt lat="43.58828" lon="3.80874">
        <ele>32</ele>
        <time>2020-09-12T09:10:51.000Z</time>
      </trkpt>
      <trkpt lat="43.58831" lon="3.8087">
        <ele>32</ele>
        <time>2020-09-12T09:10:52.000Z</time>
      </trkpt>
      <trkpt lat="43.58834" lon="3.80865">
        <ele>32</ele>
        <time>2020-09-12T09:10:53.000Z</time>
      </trkpt>
      <trkpt lat="43.58837" lon="3.80861">
        <ele>32</ele>
        <time>2020-09-12T09:10:54.000Z</time>
      </trkpt>
      <trkpt lat="43.5884" lon="3.80857">
        <ele>32</ele>
        <time>2020-09-12T09:10:55.000Z</time>
      </trkpt>
      <trkpt lat="43.58843" lon="3.80853">
        <ele>32</ele>
        <time>2020-09-12T09:10:56.000Z</time>
      </trkpt>
      <trkpt lat="43.58846" lon="3.80849">
        <ele>32</ele>
        <time>2020-09-12T09:10:57.000Z</time>
      </trkpt>
      <trkpt lat="43.58849" lon="3.80845">
        <ele>32</ele>
        <time>2020-09-12T09:10:58.000Z</time>
      </trkpt>
      <trkpt lat="43.58852" lon="3.80841">
        <ele>32</ele>
        <time>2020-09-12T09:10:59.000Z</time>
      </trkpt>
      <trkpt lat="43.58855" lon="3.80837">
        <ele>32</ele>
        <time>2020-09-12T09:11:00.000Z</time>
      </trkpt>
      <trkpt lat="43.58858" lon="3.80833">
        <ele>32.057672483568</ele>
        <time>2020-09-12T09:11:01.000Z</time>
      </trkpt>
      <trkpt lat="43.58861" lon="3.80829">
        <ele>32.263645639169</ele>
        <time>2020-09-12T09:11:02.000Z</time>
      </trkpt>
      <trkpt lat="43.58864" lon="3.80825">
        <ele>32.46961879477</ele>
        <time>2020-09-12T09:11:03.000Z</time>
      </trkpt>
      <trkpt lat="43.58867" lon="3.80821">
        <ele>32.675591950371</ele>
        <time>2020-09-12T09:11:04.000Z</time>
      </trkpt>
      <trkpt lat="43.5887" lon="3.80817">
        <ele>32.881565105972</ele>
        <time>2020-09-12T09:11:05.000Z</time>
      </trkpt>
      <trkpt lat="43.58872" lon="3.80813">
        <ele>33.087538261573</ele>
        <time>2020-09-12T09:11:06.000Z</time>
      </trkpt>
      <trkpt lat="43.58875" lon="3.80809">
        <ele>33.293511417174</ele>
        <time>2020-09-12T09:11:07.000Z</time>
      </trkpt>
      <trkpt lat="43.58878" lon="3.80805">
        <ele>33.499484572775</ele>
        <time>2020-09-12T09:11:08.000Z</time>
      </trkpt>
      <trkpt lat="43.58881" lon="3.80801">
        <ele>33.705457728376</ele>
        <time>2020-09-12T09:11:09.000Z</time>
      </trkpt>
      <trkpt lat="43.58884" lon="3.80797">
        <ele>33.911430883978</ele>
        <time>2020-09-12T09:11:10.000Z</time>
      </trkpt>
      <trkpt lat="43.58887" lon="3.80794">
        <ele>34.05699968</ele>
        <time>2020-09-12T09:11:11.000Z</time>
      </trkpt>
      <trkpt lat="43.58889" lon="3.8079">
        <ele>34.15699968</ele>
        <time>2020-09-12T09:11:12.000Z</time>
      </trkpt>
      <trkpt lat="43.58892" lon="3.80786">
        <ele>34.25699968</ele>
        <time>2020-09-12T09:11:13.000Z</time>
      </trkpt>
      <trkpt lat="43.58895" lon="3.80782">
        <ele>34.35699968</ele>
        <time>2020-09-12T09:11:14.000Z</time>
      </trkpt>
      <trkpt lat="43.58898" lon="3.80779">
        <ele>34.45699968</ele>
        <time>2020-09-12T09:11:15.000Z</time>
      </trkpt>
      <trkpt lat="43.589" lon="3.80775">
        <ele>34.55699968</ele>
        <time>2020-09-12T09:11:16.000Z</time>
      </trkpt>
      <trkpt lat="43.58903" lon="3.80771">
        <ele>34.65699968</ele>
        <time>2020-09-12T09:11:17.000Z</time>
      </trkpt>
      <trkpt lat="43.58906" lon="3.80767">
        <ele>34.75699968</ele>
        <time>2020-09-12T09:11:18.000Z</time>
      </trkpt>
      <trkpt lat="43.58909" lon="3.80763">
        <ele>34.85699968</ele>
        <time>2020-09-12T09:11:19.000Z</time>
      </trkpt>
      <trkpt lat="43.58911" lon="3.80759">
        <ele>34.95699968</ele>
        <time>2020-09-12T09:11:20.000Z</time>
      </trkpt>
      <trkpt lat="43.58914" lon="3.80755">
        <ele>35</ele>
        <time>2020-09-12T09:11:21.000Z</time>
      </trkpt>
      <trkpt lat="43.58917" lon="3.80752">
        <ele>35</ele>
        <time>2020-09-12T09:11:22.000Z</time>
      </trkpt>
      <trkpt lat="43.5892" lon="3.80748">
        <ele>35</ele>
        <time>2020-09-12T09:11:23.000Z</time>
      </trkpt>
      <trkpt lat="43.58923" lon="3.80744">
        <ele>35</ele>
        <time>2020-09-12T09:11:24.000Z</time>
      </trkpt>
      <trkpt lat="43.58925" lon="3.8074">
        <ele>35</ele>
        <time>2020-09-12T09:11:25.000Z</time>
      </trkpt>
      <trkpt lat="43.58928" lon="3.80736">
        <ele>35</ele>
        <time>2020-09-12T09:11:26.000Z</time>
      </trkpt>
      <trkpt lat="43.58931" lon="3.80733">
        <ele>35</ele>
        <time>2020-09-12T09:11:27.000Z</time>
      </trkpt>
      <trkpt lat="43.58934" lon="3.80729">
        <ele>35</ele>
        <time>2020-09-12T09:11:28.000Z</time>
      </trkpt>
      <trkpt lat="43.58936" lon="3.80725">
        <ele>35</ele>
        <time>2020-09-12T09:11:29.000Z</time>
      </trkpt>
      <trkpt lat="43.58939" lon="3.80721">
        <ele>35</ele>
        <time>2020-09-12T09:11:30.000Z</time>
      </trkpt>
      <trkpt lat="43.58942" lon="3.80717">
        <ele>35.027835363078</ele>
        <time>2020-09-12T09:11:31.000Z</time>
      </trkpt>
      <trkpt lat="43.58945" lon="3.80713">
        <ele>35.130928078563</ele>
        <time>2020-09-12T09:11:32.000Z</time>
      </trkpt>
      <trkpt lat="43.58948" lon="3.8071">
        <ele>35.234020794048</ele>
        <time>2020-09-12T09:11:33.000Z</time>
      </trkpt>
      <trkpt lat="43.5895" lon="3.80706">
        <ele>35.337113509533</ele>
        <time>2020-09-12T09:11:34.000Z</time>
      </trkpt>
      <trkpt lat="43.58953" lon="3.80702">
        <ele>35.440206225019</ele>
        <time>2020-09-12T09:11:35.000Z</time>
      </trkpt>
      <trkpt lat="43.58956" lon="3.80699">
        <ele>35.543298940504</ele>
        <time>2020-09-12T09:11:36.000Z</time>
      </trkpt>
      <trkpt lat="43.58958" lon="3.80695">
        <ele>35.646391655989</ele>
        <time>2020-09-12T09:11:37.000Z</time>
      </trkpt>
      <trkpt lat="43.58961" lon="3.80691">
        <ele>35.749484371474</ele>
        <time>2020-09-12T09:11:38.000Z</time>
      </trkpt>
      <trkpt lat="43.58964" lon="3.80688">
        <ele>35.852577086959</ele>
        <time>2020-09-12T09:11:39.000Z</time>
      </trkpt>
      <trkpt lat="43.58966" lon="3.80684">
        <ele>35.955669802445</ele>
        <time>2020-09-12T09:11:40.000Z</time>
      </trkpt>
      <trkpt lat="43.58969" lon="3.8068">
        <ele>36.05699968</ele>
        <time>2020-09-12T09:11:41.000Z</time>
      </trkpt>
      <trkpt lat="43.58972" lon="3.80676">
        <ele>36.15699968</ele>
        <time>2020-09-12T09:11:42.000Z</time>
      </trkpt>
      <trkpt lat="43.58974" lon="3.80672">
        <ele>36.25699968</ele>
        <time>2020-09-12T09:11:43.000Z</time>
      </trkpt>
      <trkpt lat="43.58977" lon="3.80668">
        <ele>36.35699968</ele>
        <time>2020-09-12T09:11:44.000Z</time>
      </trkpt>
      <trkpt lat="43.5898" lon="3.80664">
        <ele>36.45699968</ele>
        <time>2020-09-12T09:11:45.000Z</time>
      </trkpt>
      <trkpt lat="43.58982" lon="3.8066">
        <ele>36.55699968</ele>
        <time>2020-09-12T09:11:46.000Z</time>
      </trkpt>
      <trkpt lat="43.58985" lon="3.80657">
        <ele>36.65699968</ele>
        <time>2020-09-12T09:11:47.000Z</time>
      </trkpt>
      <trkpt lat="43.58988" lon="3.80653">
        <ele>36.75699968</ele>
        <time>2020-09-12T09:11:48.000Z</time>
      </trkpt>
      <trkpt lat="43.58991" lon="3.8065">
        <ele>36.85699968</ele>
        <time>2020-09-12T09:11:49.000Z</time>
      </trkpt>
      <trkpt lat="43.58993" lon="3.80646">
        <ele>36.95699968</ele>
        <time>2020-09-12T09:11:50.000Z</time>
      </trkpt>
      <trkpt lat="43.58996" lon="3.80642">
        <ele>37.056942755466</ele>
        <time>2020-09-12T09:11:51.000Z</time>
      </trkpt>
      <trkpt lat="43.58999" lon="3.80638">
        <ele>37.156842887302</ele>
        <time>2020-09-12T09:11:52.000Z</time>
      </trkpt>
      <trkpt lat="43.59001" lon="3.80635">
        <ele>37.256743019139</ele>
        <time>2020-09-12T09:11:53.000Z</time>
      </trkpt>
      <trkpt lat="43.59004" lon="3.80631">
        <ele>37.356643150975</ele>
        <time>2020-09-12T09:11:54.000Z</time>
      </trkpt>
      <trkpt lat="43.59007" lon="3.80627">
        <ele>37.456543282811</ele>
        <time>2020-09-12T09:11:55.000Z</time>
      </trkpt>
      <trkpt lat="43.59009" lon="3.80624">
        <ele>37.556443414647</ele>
        <time>2020-09-12T09:11:56.000Z</time>
      </trkpt>
      <trkpt lat="43.59012" lon="3.8062">
        <ele>37.656343546483</ele>
        <time>2020-09-12T09:11:57.000Z</time>
      </trkpt>
      <trkpt lat="43.59014" lon="3.80617">
        <ele>37.75624367832</ele>
        <time>2020-09-12T09:11:58.000Z</time>
      </trkpt>
      <trkpt lat="43.59017" lon="3.80614">
        <ele>37.856143810156</ele>
        <time>2020-09-12T09:11:59.000Z</time>
      </trkpt>
      <trkpt lat="43.59019" lon="3.8061">
        <ele>37.956043941992</ele>
        <time>2020-09-12T09:12:00.000Z</time>
      </trkpt>
      <trkpt lat="43.59021" lon="3.80607">
        <ele>38.052880059564</ele>
        <time>2020-09-12T09:12:01.000Z</time>
      </trkpt>
      <trkpt lat="43.59024" lon="3.80604">
        <ele>38.147308737357</ele>
        <time>2020-09-12T09:12:02.000Z</time>
      </trkpt>
      <trkpt lat="43.59026" lon="3.806">
        <ele>38.24173741515</ele>
        <time>2020-09-12T09:12:03.000Z</time>
      </trkpt>
      <trkpt lat="43.59028" lon="3.80597">
        <ele>38.336166092943</ele>
        <time>2020-09-12T09:12:04.000Z</time>
      </trkpt>
      <trkpt lat="43.59031" lon="3.80594">
        <ele>38.430594770736</ele>
        <time>2020-09-12T09:12:05.000Z</time>
      </trkpt>
      <trkpt lat="43.59033" lon="3.80591">
        <ele>38.525023448529</ele>
        <time>2020-09-12T09:12:06.000Z</time>
      </trkpt>
      <trkpt lat="43.59035" lon="3.80587">
        <ele>38.619452126322</ele>
        <time>2020-09-12T09:12:07.000Z</time>
      </trkpt>
      <trkpt lat="43.59037" lon="3.80584">
        <ele>38.713880804115</ele>
        <time>2020-09-12T09:12:08.000Z</time>
      </trkpt>
      <trkpt lat="43.5904" lon="3.80581">
        <ele>38.808309481908</ele>
        <time>2020-09-12T09:12:09.000Z</time>
      </trkpt>
      <trkpt lat="43.59042" lon="3.80577">
        <ele>38.902738159701</ele>
        <time>2020-09-12T09:12:10.000Z</time>
      </trkpt>
      <trkpt lat="43.59044" lon="3.80574">
        <ele>38.997166837494</ele>
        <time>2020-09-12T09:12:11.000Z</time>
      </trkpt>
      <trkpt lat="43.59046" lon="3.8057">
        <ele>39</ele>
        <time>2020-09-12T09:12:12.000Z</time>
      </trkpt>
      <trkpt lat="43.59048" lon="3.80567">
        <ele>39</ele>
        <time>2020-09-12T09:12:13.000Z</time>
      </trkpt>
      <trkpt lat="43.5905" lon="3.80563">
        <ele>39</ele>
        <time>2020-09-12T09:12:14.000Z</time>
      </trkpt>
      <trkpt lat="43.59052" lon="3.8056">
        <ele>39</ele>
        <time>2020-09-12T09:12:15.000Z</time>
      </trkpt>
      <trkpt lat="43.59054" lon="3.80556">
        <ele>39</ele>
        <time>2020-09-12T09:12:16.000Z</time>
      </trkpt>
      <trkpt lat="43.59056" lon="3.80553">
        <ele>39</ele>
        <time>2020-09-12T09:12:17.000Z</time>
      </trkpt>
      <trkpt lat="43.59058" lon="3.80549">
        <ele>39</ele>
        <time>2020-09-12T09:12:18.000Z</time>
      </trkpt>
      <trkpt lat="43.59059" lon="3.80546">
        <ele>39</ele>
        <time>2020-09-12T09:12:19.000Z</time>
      </trkpt>
      <trkpt lat="43.59061" lon="3.80542">
        <ele>39</ele>
        <time>2020-09-12T09:12:20.000Z</time>
      </trkpt>
      <trkpt lat="43.59063" lon="3.80539">
        <ele>39.041666341463</ele>
        <time>2020-09-12T09:12:21.000Z</time>
      </trkpt>
      <trkpt lat="43.59064" lon="3.80536">
        <ele>39.143292357724</ele>
        <time>2020-09-12T09:12:22.000Z</time>
      </trkpt>
      <trkpt lat="43.59066" lon="3.80532">
        <ele>39.244918373984</ele>
        <time>2020-09-12T09:12:23.000Z</time>
      </trkpt>
      <trkpt lat="43.59067" lon="3.80529">
        <ele>39.346544390244</ele>
        <time>2020-09-12T09:12:24.000Z</time>
      </trkpt>
      <trkpt lat="43.59069" lon="3.80525">
        <ele>39.448170406504</ele>
        <time>2020-09-12T09:12:25.000Z</time>
      </trkpt>
      <trkpt lat="43.5907" lon="3.80522">
        <ele>39.549796422764</ele>
        <time>2020-09-12T09:12:26.000Z</time>
      </trkpt>
      <trkpt lat="43.59071" lon="3.80518">
        <ele>39.651422439024</ele>
        <time>2020-09-12T09:12:27.000Z</time>
      </trkpt>
      <trkpt lat="43.59073" lon="3.80514">
        <ele>39.753048455284</ele>
        <time>2020-09-12T09:12:28.000Z</time>
      </trkpt>
      <trkpt lat="43.59074" lon="3.80511">
        <ele>39.854674471545</ele>
        <time>2020-09-12T09:12:29.000Z</time>
      </trkpt>
      <trkpt lat="43.59076" lon="3.80507">
        <ele>39.956300487805</ele>
        <time>2020-09-12T09:12:30.000Z</time>
      </trkpt>
      <trkpt lat="43.59077" lon="3.80503">
        <ele>40.05699968</ele>
        <time>2020-09-12T09:12:31.000Z</time>
      </trkpt>
      <trkpt lat="43.59078" lon="3.805">
        <ele>40.15699968</ele>
        <time>2020-09-12T09:12:32.000Z</time>
      </trkpt>
      <trkpt lat="43.5908" lon="3.80496">
        <ele>40.25699968</ele>
        <time>2020-09-12T09:12:33.000Z</time>
      </trkpt>
      <trkpt lat="43.59081" lon="3.80492">
        <ele>40.35699968</ele>
        <time>2020-09-12T09:12:34.000Z</time>
      </trkpt>
      <trkpt lat="43.59082" lon="3.80489">
        <ele>40.45699968</ele>
        <time>2020-09-12T09:12:35.000Z</time>
      </trkpt>
      <trkpt lat="43.59083" lon="3.80485">
        <ele>40.55699968</ele>
        <time>2020-09-12T09:12:36.000Z</time>
      </trkpt>
      <trkpt lat="43.59084" lon="3.80481">
        <ele>40.65699968</ele>
        <time>2020-09-12T09:12:37.000Z</time>
      </trkpt>
      <trkpt lat="43.59085" lon="3.80477">
        <ele>40.75699968</ele>
        <time>2020-09-12T09:12:38.000Z</time>
      </trkpt>
      <trkpt lat="43.59086" lon="3.80473">
        <ele>40.85699968</ele>
        <time>2020-09-12T09:12:39.000Z</time>
      </trkpt>
      <trkpt lat="43.59087" lon="3.80468">
        <ele>40.95699968</ele>
        <time>2020-09-12T09:12:40.000Z</time>
      </trkpt>
      <trkpt lat="43.59088" lon="3.80464">
        <ele>41.111873723455</ele>
        <time>2020-09-12T09:12:41.000Z</time>
      </trkpt>
      <trkpt lat="43.59089" lon="3.8046">
        <ele>41.308144515597</ele>
        <time>2020-09-12T09:12:42.000Z</time>
      </trkpt>
      <trkpt lat="43.59089" lon="3.80456">
        <ele>41.50441530774</ele>
        <time>2020-09-12T09:12:43.000Z</time>
      </trkpt>
      <trkpt lat="43.5909" lon="3.80453">
        <ele>41.700686099883</ele>
        <time>2020-09-12T09:12:44.000Z</time>
      </trkpt>
      <trkpt lat="43.59091" lon="3.80449">
        <ele>41.896956892025</ele>
        <time>2020-09-12T09:12:45.000Z</time>
      </trkpt>
      <trkpt lat="43.59092" lon="3.80444">
        <ele>42.093227684168</ele>
        <time>2020-09-12T09:12:46.000Z</time>
      </trkpt>
      <trkpt lat="43.59093" lon="3.8044">
        <ele>42.289498476311</ele>
        <time>2020-09-12T09:12:47.000Z</time>
      </trkpt>
      <trkpt lat="43.59093" lon="3.80436">
        <ele>42.485769268453</ele>
        <time>2020-09-12T09:12:48.000Z</time>
      </trkpt>
      <trkpt lat="43.59094" lon="3.80432">
        <ele>42.682040060596</ele>
        <time>2020-09-12T09:12:49.000Z</time>
      </trkpt>
      <trkpt lat="43.59095" lon="3.80428">
        <ele>42.878310852739</ele>
        <time>2020-09-12T09:12:50.000Z</time>
      </trkpt>
      <trkpt lat="43.59096" lon="3.80423">
        <ele>43.038695911166</ele>
        <time>2020-09-12T09:12:51.000Z</time>
      </trkpt>
      <trkpt lat="43.59096" lon="3.80419">
        <ele>43.140528971424</ele>
        <time>2020-09-12T09:12:52.000Z</time>
      </trkpt>
      <trkpt lat="43.59097" lon="3.80414">
        <ele>43.242362031682</ele>
        <time>2020-09-12T09:12:53.000Z</time>
      </trkpt>
      <trkpt lat="43.59097" lon="3.8041">
        <ele>43.34419509194</ele>
        <time>2020-09-12T09:12:54.000Z</time>
      </trkpt>
      <trkpt lat="43.59097" lon="3.80406">
        <ele>43.446028152198</ele>
        <time>2020-09-12T09:12:55.000Z</time>
      </trkpt>
      <trkpt lat="43.59097" lon="3.80401">
        <ele>43.547861212455</ele>
        <time>2020-09-12T09:12:56.000Z</time>
      </trkpt>
      <trkpt lat="43.59098" lon="3.80396">
        <ele>43.649694272713</ele>
        <time>2020-09-12T09:12:57.000Z</time>
      </trkpt>
      <trkpt lat="43.59098" lon="3.80391">
        <ele>43.751527332971</ele>
        <time>2020-09-12T09:12:58.000Z</time>
      </trkpt>
      <trkpt lat="43.59098" lon="3.80386">
        <ele>43.853360393229</ele>
        <time>2020-09-12T09:12:59.000Z</time>
      </trkpt>
      <trkpt lat="43.59098" lon="3.80381">
        <ele>43.955193453487</ele>
        <time>2020-09-12T09:13:00.000Z</time>
      </trkpt>
      <trkpt lat="43.59099" lon="3.80377">
        <ele>44.0560560381</ele>
        <time>2020-09-12T09:13:01.000Z</time>
      </trkpt>
      <trkpt lat="43.59099" lon="3.80372">
        <ele>44.156156106136</ele>
        <time>2020-09-12T09:13:02.000Z</time>
      </trkpt>
      <trkpt lat="43.59099" lon="3.80367">
        <ele>44.256256174172</ele>
        <time>2020-09-12T09:13:03.000Z</time>
      </trkpt>
      <trkpt lat="43.59099" lon="3.80362">
        <ele>44.356356242208</ele>
        <time>2020-09-12T09:13:04.000Z</time>
      </trkpt>
      <trkpt lat="43.59099" lon="3.80357">
        <ele>44.456456310244</ele>
        <time>2020-09-12T09:13:05.000Z</time>
      </trkpt>
      <trkpt lat="43.59099" lon="3.80352">
        <ele>44.55655637828</ele>
        <time>2020-09-12T09:13:06.000Z</time>
      </trkpt>
      <trkpt lat="43.59099" lon="3.80346">
        <ele>44.656656446316</ele>
        <time>2020-09-12T09:13:07.000Z</time>
      </trkpt>
      <trkpt lat="43.59099" lon="3.80341">
        <ele>44.756756514352</ele>
        <time>2020-09-12T09:13:08.000Z</time>
      </trkpt>
      <trkpt lat="43.59098" lon="3.80336">
        <ele>44.856856582388</ele>
        <time>2020-09-12T09:13:09.000Z</time>
      </trkpt>
      <trkpt lat="43.59098" lon="3.80331">
        <ele>44.956956650424</ele>
        <time>2020-09-12T09:13:10.000Z</time>
      </trkpt>
      <trkpt lat="43.59097" lon="3.80325">
        <ele>45.05699968</ele>
        <time>2020-09-12T09:13:11.000Z</time>
      </trkpt>
      <trkpt lat="43.59097" lon="3.8032">
        <ele>45.15699968</ele>
        <time>2020-09-12T09:13:12.000Z</time>
      </trkpt>
      <trkpt lat="43.59096" lon="3.80315">
        <ele>45.25699968</ele>
        <time>2020-09-12T09:13:13.000Z</time>
      </trkpt>
      <trkpt lat="43.59096" lon="3.80309">
        <ele>45.35699968</ele>
        <time>2020-09-12T09:13:14.000Z</time>
      </trkpt>
      <trkpt lat="43.59095" lon="3.80304">
        <ele>45.45699968</ele>
        <time>2020-09-12T09:13:15.000Z</time>
      </trkpt>
      <trkpt lat="43.59094" lon="3.80298">
        <ele>45.55699968</ele>
        <time>2020-09-12T09:13:16.000Z</time>
      </trkpt>
      <trkpt lat="43.59093" lon="3.80293">
        <ele>45.65699968</ele>
        <time>2020-09-12T09:13:17.000Z</time>
      </trkpt>
      <trkpt lat="43.59092" lon="3.80287">
        <ele>45.75699968</ele>
        <time>2020-09-12T09:13:18.000Z</time>
      </trkpt>
      <trkpt lat="43.59091" lon="3.80281">
        <ele>45.85699968</ele>
        <time>2020-09-12T09:13:19.000Z</time>
      </trkpt>
      <trkpt lat="43.5909" lon="3.80276">
        <ele>45.95699968</ele>
        <time>2020-09-12T09:13:20.000Z</time>
      </trkpt>
      <trkpt lat="43.59088" lon="3.8027">
        <ele>46</ele>
        <time>2020-09-12T09:13:21.000Z</time>
      </trkpt>
      <trkpt lat="43.59087" lon="3.80264">
        <ele>46</ele>
        <time>2020-09-12T09:13:22.000Z</time>
      </trkpt>
      <trkpt lat="43.59085" lon="3.80258">
        <ele>46</ele>
        <time>2020-09-12T09:13:23.000Z</time>
      </trkpt>
      <trkpt lat="43.59084" lon="3.80252">
        <ele>46</ele>
        <time>2020-09-12T09:13:24.000Z</time>
      </trkpt>
      <trkpt lat="43.59082" lon="3.80247">
        <ele>46</ele>
        <time>2020-09-12T09:13:25.000Z</time>
      </trkpt>
      <trkpt lat="43.5908" lon="3.80241">
        <ele>46</ele>
        <time>2020-09-12T09:13:26.000Z</time>
      </trkpt>
      <trkpt lat="43.59078" lon="3.80235">
        <ele>46</ele>
        <time>2020-09-12T09:13:27.000Z</time>
      </trkpt>
      <trkpt lat="43.59076" lon="3.80229">
        <ele>46</ele>
        <time>2020-09-12T09:13:28.000Z</time>
      </trkpt>
      <trkpt lat="43.59075" lon="3.80223">
        <ele>46</ele>
        <time>2020-09-12T09:13:29.000Z</time>
      </trkpt>
      <trkpt lat="43.59073" lon="3.80217">
        <ele>46</ele>
        <time>2020-09-12T09:13:30.000Z</time>
      </trkpt>
      <trkpt lat="43.5907" lon="3.80211">
        <ele>45.94300032</ele>
        <time>2020-09-12T09:13:31.000Z</time>
      </trkpt>
      <trkpt lat="43.59067" lon="3.80204">
        <ele>45.84300032</ele>
        <time>2020-09-12T09:13:32.000Z</time>
      </trkpt>
      <trkpt lat="43.59065" lon="3.80198">
        <ele>45.74300032</ele>
        <time>2020-09-12T09:13:33.000Z</time>
      </trkpt>
      <trkpt lat="43.59062" lon="3.80192">
        <ele>45.64300032</ele>
        <time>2020-09-12T09:13:34.000Z</time>
      </trkpt>
      <trkpt lat="43.59059" lon="3.80186">
        <ele>45.54300032</ele>
        <time>2020-09-12T09:13:35.000Z</time>
      </trkpt>
      <trkpt lat="43.59056" lon="3.8018">
        <ele>45.44300032</ele>
        <time>2020-09-12T09:13:36.000Z</time>
      </trkpt>
      <trkpt lat="43.59053" lon="3.80173">
        <ele>45.34300032</ele>
        <time>2020-09-12T09:13:37.000Z</time>
      </trkpt>
      <trkpt lat="43.5905" lon="3.80167">
        <ele>45.24300032</ele>
        <time>2020-09-12T09:13:38.000Z</time>
      </trkpt>
      <trkpt lat="43.59046" lon="3.8016">
        <ele>45.14300032</ele>
        <time>2020-09-12T09:13:39.000Z</time>
      </trkpt>
      <trkpt lat="43.59043" lon="3.80154">
        <ele>45.04300032</ele>
        <time>2020-09-12T09:13:40.000Z</time>
      </trkpt>
      <trkpt lat="43.5904" lon="3.80147">
        <ele>44.94300032</ele>
        <time>2020-09-12T09:13:41.000Z</time>
      </trkpt>
      <trkpt lat="43.59037" lon="3.8014">
        <ele>44.84300032</ele>
        <time>2020-09-12T09:13:42.000Z</time>
      </trkpt>
      <trkpt lat="43.59033" lon="3.80133">
        <ele>44.74300032</ele>
        <time>2020-09-12T09:13:43.000Z</time>
      </trkpt>
      <trkpt lat="43.5903" lon="3.80127">
        <ele>44.64300032</ele>
        <time>2020-09-12T09:13:44.000Z</time>
      </trkpt>
      <trkpt lat="43.59027" lon="3.8012">
        <ele>44.54300032</ele>
        <time>2020-09-12T09:13:45.000Z</time>
      </trkpt>
      <trkpt lat="43.59024" lon="3.80113">
        <ele>44.44300032</ele>
        <time>2020-09-12T09:13:46.000Z</time>
      </trkpt>
      <trkpt lat="43.59023" lon="3.80107">
        <ele>44.34300032</ele>
        <time>2020-09-12T09:13:47.000Z</time>
      </trkpt>
      <trkpt lat="43.59022" lon="3.80101">
        <ele>44.24300032</ele>
        <time>2020-09-12T09:13:48.000Z</time>
      </trkpt>
      <trkpt lat="43.59023" lon="3.80095">
        <ele>44.14300032</ele>
        <time>2020-09-12T09:13:49.000Z</time>
      </trkpt>
      <trkpt lat="43.59023" lon="3.80091">
        <ele>44.04300032</ele>
        <time>2020-09-12T09:13:50.000Z</time>
      </trkpt>
      <trkpt lat="43.59024" lon="3.80087">
        <ele>44.05699968</ele>
        <time>2020-09-12T09:13:51.000Z</time>
      </trkpt>
      <trkpt lat="43.59023" lon="3.80084">
        <ele>44.15699968</ele>
        <time>2020-09-12T09:13:52.000Z</time>
      </trkpt>
      <trkpt lat="43.59021" lon="3.80081">
        <ele>44.25699968</ele>
        <time>2020-09-12T09:13:53.000Z</time>
      </trkpt>
      <trkpt lat="43.59019" lon="3.80077">
        <ele>44.35699968</ele>
        <time>2020-09-12T09:13:54.000Z</time>
      </trkpt>
      <trkpt lat="43.59016" lon="3.80072">
        <ele>44.45699968</ele>
        <time>2020-09-12T09:13:55.000Z</time>
      </trkpt>
      <trkpt lat="43.59013" lon="3.80067">
        <ele>44.55699968</ele>
        <time>2020-09-12T09:13:56.000Z</time>
      </trkpt>
      <trkpt lat="43.5901" lon="3.80062">
        <ele>44.65699968</ele>
        <time>2020-09-12T09:13:57.000Z</time>
      </trkpt>
      <trkpt lat="43.59007" lon="3.80057">
        <ele>44.75699968</ele>
        <time>2020-09-12T09:13:58.000Z</time>
      </trkpt>
      <trkpt lat="43.59005" lon="3.80053">
        <ele>44.85699968</ele>
        <time>2020-09-12T09:13:59.000Z</time>
      </trkpt>
      <trkpt lat="43.59003" lon="3.80048">
        <ele>44.95699968</ele>
        <time>2020-09-12T09:14:00.000Z</time>
      </trkpt>
      <trkpt lat="43.59" lon="3.80043">
        <ele>45</ele>
        <time>2020-09-12T09:14:01.000Z</time>
      </trkpt>
      <trkpt lat="43.58998" lon="3.80039">
        <ele>45</ele>
        <time>2020-09-12T09:14:02.000Z</time>
      </trkpt>
      <trkpt lat="43.58996" lon="3.80034">
        <ele>45</ele>
        <time>2020-09-12T09:14:03.000Z</time>
      </trkpt>
      <trkpt lat="43.58993" lon="3.80029">
        <ele>45</ele>
        <time>2020-09-12T09:14:04.000Z</time>
      </trkpt>
      <trkpt lat="43.58991" lon="3.80024">
        <ele>45</ele>
        <time>2020-09-12T09:14:05.000Z</time>
      </trkpt>
      <trkpt lat="43.58988" lon="3.80019">
        <ele>45</ele>
        <time>2020-09-12T09:14:06.000Z</time>
      </trkpt>
      <trkpt lat="43.58986" lon="3.80014">
        <ele>45</ele>
        <time>2020-09-12T09:14:07.000Z</time>
      </trkpt>
      <trkpt lat="43.58983" lon="3.80009">
        <ele>45</ele>
        <time>2020-09-12T09:14:08.000Z</time>
      </trkpt>
      <trkpt lat="43.58981" lon="3.80004">
        <ele>45</ele>
        <time>2020-09-12T09:14:09.000Z</time>
      </trkpt>
      <trkpt lat="43.58979" lon="3.79999">
        <ele>45</ele>
        <time>2020-09-12T09:14:10.000Z</time>
      </trkpt>
      <trkpt lat="43.58976" lon="3.79994">
        <ele>45</ele>
        <time>2020-09-12T09:14:11.000Z</time>
      </trkpt>
      <trkpt lat="43.58974" lon="3.79989">
        <ele>45</ele>
        <time>2020-09-12T09:14:12.000Z</time>
      </trkpt>
      <trkpt lat="43.58971" lon="3.79984">
        <ele>45</ele>
        <time>2020-09-12T09:14:13.000Z</time>
      </trkpt>
      <trkpt lat="43.58968" lon="3.79979">
        <ele>45</ele>
        <time>2020-09-12T09:14:14.000Z</time>
      </trkpt>
      <trkpt lat="43.58966" lon="3.79974">
        <ele>45</ele>
        <time>2020-09-12T09:14:15.000Z</time>
      </trkpt>
      <trkpt lat="43.58963" lon="3.79968">
        <ele>45</ele>
        <time>2020-09-12T09:14:16.000Z</time>
      </trkpt>
      <trkpt lat="43.58961" lon="3.79963">
        <ele>45</ele>
        <time>2020-09-12T09:14:17.000Z</time>
      </trkpt>
      <trkpt lat="43.58958" lon="3.79957">
        <ele>45</ele>
        <time>2020-09-12T09:14:18.000Z</time>
      </trkpt>
      <trkpt lat="43.58955" lon="3.79952">
        <ele>45</ele>
        <time>2020-09-12T09:14:19.000Z</time>
      </trkpt>
      <trkpt lat="43.58953" lon="3.79946">
        <ele>45</ele>
        <time>2020-09-12T09:14:20.000Z</time>
      </trkpt>
      <trkpt lat="43.5895" lon="3.7994">
        <ele>44.94300032</ele>
        <time>2020-09-12T09:14:21.000Z</time>
      </trkpt>
      <trkpt lat="43.58947" lon="3.79934">
        <ele>44.84300032</ele>
        <time>2020-09-12T09:14:22.000Z</time>
      </trkpt>
      <trkpt lat="43.58944" lon="3.79928">
        <ele>44.74300032</ele>
        <time>2020-09-12T09:14:23.000Z</time>
      </trkpt>
      <trkpt lat="43.58941" lon="3.79922">
        <ele>44.64300032</ele>
        <time>2020-09-12T09:14:24.000Z</time>
      </trkpt>
      <trkpt lat="43.58938" lon="3.79916">
        <ele>44.54300032</ele>
        <time>2020-09-12T09:14:25.000Z</time>
      </trkpt>
      <trkpt lat="43.58935" lon="3.7991">
        <ele>44.44300032</ele>
        <time>2020-09-12T09:14:26.000Z</time>
      </trkpt>
      <trkpt lat="43.58932" lon="3.79903">
        <ele>44.34300032</ele>
        <time>2020-09-12T09:14:27.000Z</time>
      </trkpt>
      <trkpt lat="43.58929" lon="3.79897">
        <ele>44.24300032</ele>
        <time>2020-09-12T09:14:28.000Z</time>
      </trkpt>
      <trkpt lat="43.58926" lon="3.7989">
        <ele>44.14300032</ele>
        <time>2020-09-12T09:14:29.000Z</time>
      </trkpt>
      <trkpt lat="43.58923" lon="3.79884">
        <ele>44.04300032</ele>
        <time>2020-09-12T09:14:30.000Z</time>
      </trkpt>
      <trkpt lat="43.5892" lon="3.79877">
        <ele>43.94300032</ele>
        <time>2020-09-12T09:14:31.000Z</time>
      </trkpt>
      <trkpt lat="43.58916" lon="3.79871">
        <ele>43.84300032</ele>
        <time>2020-09-12T09:14:32.000Z</time>
      </trkpt>
      <trkpt lat="43.58913" lon="3.79864">
        <ele>43.74300032</ele>
        <time>2020-09-12T09:14:33.000Z</time>
      </trkpt>
      <trkpt lat="43.5891" lon="3.79858">
        <ele>43.64300032</ele>
        <time>2020-09-12T09:14:34.000Z</time>
      </trkpt>
      <trkpt lat="43.58907" lon="3.79851">
        <ele>43.54300032</ele>
        <time>2020-09-12T09:14:35.000Z</time>
      </trkpt>
      <trkpt lat="43.58904" lon="3.79846">
        <ele>43.44300032</ele>
        <time>2020-09-12T09:14:36.000Z</time>
      </trkpt>
      <trkpt lat="43.58901" lon="3.79841">
        <ele>43.34300032</ele>
        <time>2020-09-12T09:14:37.000Z</time>
      </trkpt>
      <trkpt lat="43.58898" lon="3.79836">
        <ele>43.24300032</ele>
        <time>2020-09-12T09:14:38.000Z</time>
      </trkpt>
      <trkpt lat="43.58896" lon="3.79832">
        <ele>43.14300032</ele>
        <time>2020-09-12T09:14:39.000Z</time>
      </trkpt>
      <trkpt lat="43.58893" lon="3.79827">
        <ele>43.04300032</ele>
        <time>2020-09-12T09:14:40.000Z</time>
      </trkpt>
      <trkpt lat="43.58891" lon="3.79822">
        <ele>42.944767751938</ele>
        <time>2020-09-12T09:14:41.000Z</time>
      </trkpt>
      <trkpt lat="43.58889" lon="3.79816">
        <ele>42.847868527132</ele>
        <time>2020-09-12T09:14:42.000Z</time>
      </trkpt>
      <trkpt lat="43.58888" lon="3.79809">
        <ele>42.750969302326</ele>
        <time>2020-09-12T09:14:43.000Z</time>
      </trkpt>
      <trkpt lat="43.58888" lon="3.79803">
        <ele>42.654070077519</ele>
        <time>2020-09-12T09:14:44.000Z</time>
      </trkpt>
      <trkpt lat="43.5889" lon="3.79798">
        <ele>42.557170852713</ele>
        <time>2020-09-12T09:14:45.000Z</time>
      </trkpt>
      <trkpt lat="43.58893" lon="3.79794">
        <ele>42.460271627907</ele>
        <time>2020-09-12T09:14:46.000Z</time>
      </trkpt>
      <trkpt lat="43.58897" lon="3.79791">
        <ele>42.363372403101</ele>
        <time>2020-09-12T09:14:47.000Z</time>
      </trkpt>
      <trkpt lat="43.589" lon="3.79789">
        <ele>42.266473178295</ele>
        <time>2020-09-12T09:14:48.000Z</time>
      </trkpt>
      <trkpt lat="43.58904" lon="3.79786">
        <ele>42.169573953488</ele>
        <time>2020-09-12T09:14:49.000Z</time>
      </trkpt>
      <trkpt lat="43.58907" lon="3.79783">
        <ele>42.072674728682</ele>
        <time>2020-09-12T09:14:50.000Z</time>
      </trkpt>
      <trkpt lat="43.58911" lon="3.79779">
        <ele>42</ele>
        <time>2020-09-12T09:14:51.000Z</time>
      </trkpt>
      <trkpt lat="43.58914" lon="3.79776">
        <ele>42</ele>
        <time>2020-09-12T09:14:52.000Z</time>
      </trkpt>
      <trkpt lat="43.58918" lon="3.79772">
        <ele>42</ele>
        <time>2020-09-12T09:14:53.000Z</time>
      </trkpt>
      <trkpt lat="43.58921" lon="3.79767">
        <ele>42</ele>
        <time>2020-09-12T09:14:54.000Z</time>
      </trkpt>
      <trkpt lat="43.58924" lon="3.79763">
        <ele>42</ele>
        <time>2020-09-12T09:14:55.000Z</time>
      </trkpt>
      <trkpt lat="43.58928" lon="3.79759">
        <ele>42</ele>
        <time>2020-09-12T09:14:56.000Z</time>
      </trkpt>
      <trkpt lat="43.58931" lon="3.79756">
        <ele>42</ele>
        <time>2020-09-12T09:14:57.000Z</time>
      </trkpt>
      <trkpt lat="43.58935" lon="3.79752">
        <ele>42</ele>
        <time>2020-09-12T09:14:58.000Z</time>
      </trkpt>
      <trkpt lat="43.58938" lon="3.79748">
        <ele>42</ele>
        <time>2020-09-12T09:14:59.000Z</time>
      </trkpt>
      <trkpt lat="43.58941" lon="3.79745">
        <ele>42</ele>
        <time>2020-09-12T09:15:00.000Z</time>
      </trkpt>
      <trkpt lat="43.58945" lon="3.79741">
        <ele>42.05699968</ele>
        <time>2020-09-12T09:15:01.000Z</time>
      </trkpt>
      <trkpt lat="43.58948" lon="3.79738">
        <ele>42.15699968</ele>
        <time>2020-09-12T09:15:02.000Z</time>
      </trkpt>
      <trkpt lat="43.58952" lon="3.79735">
        <ele>42.25699968</ele>
        <time>2020-09-12T09:15:03.000Z</time>
      </trkpt>
      <trkpt lat="43.58956" lon="3.79732">
        <ele>42.35699968</ele>
        <time>2020-09-12T09:15:04.000Z</time>
      </trkpt>
      <trkpt lat="43.58959" lon="3.79729">
        <ele>42.45699968</ele>
        <time>2020-09-12T09:15:05.000Z</time>
      </trkpt>
      <trkpt lat="43.58963" lon="3.79727">
        <ele>42.55699968</ele>
        <time>2020-09-12T09:15:06.000Z</time>
      </trkpt>
      <trkpt lat="43.58967" lon="3.79724">
        <ele>42.65699968</ele>
        <time>2020-09-12T09:15:07.000Z</time>
      </trkpt>
      <trkpt lat="43.58971" lon="3.79722">
        <ele>42.75699968</ele>
        <time>2020-09-12T09:15:08.000Z</time>
      </trkpt>
      <trkpt lat="43.58974" lon="3.79719">
        <ele>42.85699968</ele>
        <time>2020-09-12T09:15:09.000Z</time>
      </trkpt>
      <trkpt lat="43.58978" lon="3.79717">
        <ele>42.95699968</ele>
        <time>2020-09-12T09:15:10.000Z</time>
      </trkpt>
      <trkpt lat="43.58982" lon="3.79715">
        <ele>43</ele>
        <time>2020-09-12T09:15:11.000Z</time>
      </trkpt>
      <trkpt lat="43.58986" lon="3.79713">
        <ele>43</ele>
        <time>2020-09-12T09:15:12.000Z</time>
      </trkpt>
      <trkpt lat="43.58989" lon="3.79711">
        <ele>43</ele>
        <time>2020-09-12T09:15:13.000Z</time>
      </trkpt>
      <trkpt lat="43.58991" lon="3.79708">
        <ele>43</ele>
        <time>2020-09-12T09:15:14.000Z</time>
      </trkpt>
      <trkpt lat="43.58992" lon="3.79704">
        <ele>43</ele>
        <time>2020-09-12T09:15:15.000Z</time>
      </trkpt>
      <trkpt lat="43.58992" lon="3.797">
        <ele>43</ele>
        <time>2020-09-12T09:15:16.000Z</time>
      </trkpt>
      <trkpt lat="43.5899" lon="3.79696">
        <ele>43</ele>
        <time>2020-09-12T09:15:17.000Z</time>
      </trkpt>
      <trkpt lat="43.58987" lon="3.79691">
        <ele>43</ele>
        <time>2020-09-12T09:15:18.000Z</time>
      </trkpt>
      <trkpt lat="43.58984" lon="3.79687">
        <ele>43</ele>
        <time>2020-09-12T09:15:19.000Z</time>
      </trkpt>
      <trkpt lat="43.58981" lon="3.79681">
        <ele>43</ele>
        <time>2020-09-12T09:15:20.000Z</time>
      </trkpt>
      <trkpt lat="43.58978" lon="3.79676">
        <ele>42.971163758216</ele>
        <time>2020-09-12T09:15:21.000Z</time>
      </trkpt>
      <trkpt lat="43.58976" lon="3.79669">
        <ele>42.868177180415</ele>
        <time>2020-09-12T09:15:22.000Z</time>
      </trkpt>
      <trkpt lat="43.58975" lon="3.79662">
        <ele>42.765190602615</ele>
        <time>2020-09-12T09:15:23.000Z</time>
      </trkpt>
      <trkpt lat="43.58975" lon="3.79655">
        <ele>42.662204024814</ele>
        <time>2020-09-12T09:15:24.000Z</time>
      </trkpt>
      <trkpt lat="43.58977" lon="3.79649">
        <ele>42.559217447014</ele>
        <time>2020-09-12T09:15:25.000Z</time>
      </trkpt>
      <trkpt lat="43.5898" lon="3.79643">
        <ele>42.456230869213</ele>
        <time>2020-09-12T09:15:26.000Z</time>
      </trkpt>
      <trkpt lat="43.58984" lon="3.79637">
        <ele>42.353244291413</ele>
        <time>2020-09-12T09:15:27.000Z</time>
      </trkpt>
      <trkpt lat="43.58988" lon="3.79632">
        <ele>42.250257713612</ele>
        <time>2020-09-12T09:15:28.000Z</time>
      </trkpt>
      <trkpt lat="43.58993" lon="3.79627">
        <ele>42.147271135812</ele>
        <time>2020-09-12T09:15:29.000Z</time>
      </trkpt>
      <trkpt lat="43.58997" lon="3.79622">
        <ele>42.044284558011</ele>
        <time>2020-09-12T09:15:30.000Z</time>
      </trkpt>
      <trkpt lat="43.59001" lon="3.79618">
        <ele>41.943057244534</ele>
        <time>2020-09-12T09:15:31.000Z</time>
      </trkpt>
      <trkpt lat="43.59005" lon="3.79614">
        <ele>41.843157112698</ele>
        <time>2020-09-12T09:15:32.000Z</time>
      </trkpt>
      <trkpt lat="43.59009" lon="3.7961">
        <ele>41.743256980861</ele>
        <time>2020-09-12T09:15:33.000Z</time>
      </trkpt>
      <trkpt lat="43.59013" lon="3.79606">
        <ele>41.643356849025</ele>
        <time>2020-09-12T09:15:34.000Z</time>
      </trkpt>
      <trkpt lat="43.59017" lon="3.79602">
        <ele>41.543456717189</ele>
        <time>2020-09-12T09:15:35.000Z</time>
      </trkpt>
      <trkpt lat="43.59022" lon="3.79598">
        <ele>41.443556585353</ele>
        <time>2020-09-12T09:15:36.000Z</time>
      </trkpt>
      <trkpt lat="43.59026" lon="3.79594">
        <ele>41.343656453517</ele>
        <time>2020-09-12T09:15:37.000Z</time>
      </trkpt>
      <trkpt lat="43.5903" lon="3.7959">
        <ele>41.24375632168</ele>
        <time>2020-09-12T09:15:38.000Z</time>
      </trkpt>
      <trkpt lat="43.59034" lon="3.79586">
        <ele>41.143856189844</ele>
        <time>2020-09-12T09:15:39.000Z</time>
      </trkpt>
      <trkpt lat="43.59037" lon="3.79582">
        <ele>41.043956058008</ele>
        <time>2020-09-12T09:15:40.000Z</time>
      </trkpt>
      <trkpt lat="43.59041" lon="3.79577">
        <ele>41</ele>
        <time>2020-09-12T09:15:41.000Z</time>
      </trkpt>
      <trkpt lat="43.59044" lon="3.79573">
        <ele>41</ele>
        <time>2020-09-12T09:15:42.000Z</time>
      </trkpt>
      <trkpt lat="43.59047" lon="3.79568">
        <ele>41</ele>
        <time>2020-09-12T09:15:43.000Z</time>
      </trkpt>
      <trkpt lat="43.5905" lon="3.79562">
        <ele>41</ele>
        <time>2020-09-12T09:15:44.000Z</time>
      </trkpt>
      <trkpt lat="43.59053" lon="3.79557">
        <ele>41</ele>
        <time>2020-09-12T09:15:45.000Z</time>
      </trkpt>
      <trkpt lat="43.59055" lon="3.79551">
        <ele>41</ele>
        <time>2020-09-12T09:15:46.000Z</time>
      </trkpt>
      <trkpt lat="43.59058" lon="3.79546">
        <ele>41</ele>
        <time>2020-09-12T09:15:47.000Z</time>
      </trkpt>
      <trkpt lat="43.5906" lon="3.7954">
        <ele>41</ele>
        <time>2020-09-12T09:15:48.000Z</time>
      </trkpt>
      <trkpt lat="43.59062" lon="3.79535">
        <ele>41</ele>
        <time>2020-09-12T09:15:49.000Z</time>
      </trkpt>
      <trkpt lat="43.59064" lon="3.7953">
        <ele>41</ele>
        <time>2020-09-12T09:15:50.000Z</time>
      </trkpt>
      <trkpt lat="43.59067" lon="3.79524">
        <ele>40.94300032</ele>
        <time>2020-09-12T09:15:51.000Z</time>
      </trkpt>
      <trkpt lat="43.59069" lon="3.79519">
        <ele>40.84300032</ele>
        <time>2020-09-12T09:15:52.000Z</time>
      </trkpt>
      <trkpt lat="43.59071" lon="3.79514">
        <ele>40.74300032</ele>
        <time>2020-09-12T09:15:53.000Z</time>
      </trkpt>
      <trkpt lat="43.59074" lon="3.79509">
        <ele>40.64300032</ele>
        <time>2020-09-12T09:15:54.000Z</time>
      </trkpt>
      <trkpt lat="43.59076" lon="3.79504">
        <ele>40.54300032</ele>
        <time>2020-09-12T09:15:55.000Z</time>
      </trkpt>
      <trkpt lat="43.59078" lon="3.79499">
        <ele>40.44300032</ele>
        <time>2020-09-12T09:15:56.000Z</time>
      </trkpt>
      <trkpt lat="43.59079" lon="3.79494">
        <ele>40.34300032</ele>
        <time>2020-09-12T09:15:57.000Z</time>
      </trkpt>
      <trkpt lat="43.59081" lon="3.79489">
        <ele>40.24300032</ele>
        <time>2020-09-12T09:15:58.000Z</time>
      </trkpt>
      <trkpt lat="43.59083" lon="3.79484">
        <ele>40.14300032</ele>
        <time>2020-09-12T09:15:59.000Z</time>
      </trkpt>
      <trkpt lat="43.59085" lon="3.79478">
        <ele>40.04300032</ele>
        <time>2020-09-12T09:16:00.000Z</time>
      </trkpt>
      <trkpt lat="43.59086" lon="3.79473">
        <ele>39.94300032</ele>
        <time>2020-09-12T09:16:01.000Z</time>
      </trkpt>
      <trkpt lat="43.59088" lon="3.79468">
        <ele>39.84300032</ele>
        <time>2020-09-12T09:16:02.000Z</time>
      </trkpt>
      <trkpt lat="43.5909" lon="3.79462">
        <ele>39.74300032</ele>
        <time>2020-09-12T09:16:03.000Z</time>
      </trkpt>
      <trkpt lat="43.59092" lon="3.79456">
        <ele>39.64300032</ele>
        <time>2020-09-12T09:16:04.000Z</time>
      </trkpt>
      <trkpt lat="43.59094" lon="3.79451">
        <ele>39.54300032</ele>
        <time>2020-09-12T09:16:05.000Z</time>
      </trkpt>
      <trkpt lat="43.59095" lon="3.79445">
        <ele>39.44300032</ele>
        <time>2020-09-12T09:16:06.000Z</time>
      </trkpt>
      <trkpt lat="43.59097" lon="3.7944">
        <ele>39.34300032</ele>
        <time>2020-09-12T09:16:07.000Z</time>
      </trkpt>
      <trkpt lat="43.59098" lon="3.79434">
        <ele>39.24300032</ele>
        <time>2020-09-12T09:16:08.000Z</time>
      </trkpt>
      <trkpt lat="43.591" lon="3.79428">
        <ele>39.14300032</ele>
        <time>2020-09-12T09:16:09.000Z</time>
      </trkpt>
      <trkpt lat="43.59101" lon="3.79423">
        <ele>39.04300032</ele>
        <time>2020-09-12T09:16:10.000Z</time>
      </trkpt>
      <trkpt lat="43.59103" lon="3.79417">
        <ele>38.94300032</ele>
        <time>2020-09-12T09:16:11.000Z</time>
      </trkpt>
      <trkpt lat="43.59104" lon="3.79412">
        <ele>38.84300032</ele>
        <time>2020-09-12T09:16:12.000Z</time>
      </trkpt>
      <trkpt lat="43.59105" lon="3.79406">
        <ele>38.74300032</ele>
        <time>2020-09-12T09:16:13.000Z</time>
      </trkpt>
      <trkpt lat="43.59106" lon="3.794">
        <ele>38.64300032</ele>
        <time>2020-09-12T09:16:14.000Z</time>
      </trkpt>
      <trkpt lat="43.59107" lon="3.79395">
        <ele>38.54300032</ele>
        <time>2020-09-12T09:16:15.000Z</time>
      </trkpt>
      <trkpt lat="43.59108" lon="3.79389">
        <ele>38.44300032</ele>
        <time>2020-09-12T09:16:16.000Z</time>
      </trkpt>
      <trkpt lat="43.59109" lon="3.79383">
        <ele>38.34300032</ele>
        <time>2020-09-12T09:16:17.000Z</time>
      </trkpt>
      <trkpt lat="43.59109" lon="3.79378">
        <ele>38.24300032</ele>
        <time>2020-09-12T09:16:18.000Z</time>
      </trkpt>
      <trkpt lat="43.5911" lon="3.79372">
        <ele>38.14300032</ele>
        <time>2020-09-12T09:16:19.000Z</time>
      </trkpt>
      <trkpt lat="43.5911" lon="3.79366">
        <ele>38.04300032</ele>
        <time>2020-09-12T09:16:20.000Z</time>
      </trkpt>
      <trkpt lat="43.5911" lon="3.7936">
        <ele>37.943057244534</ele>
        <time>2020-09-12T09:16:21.000Z</time>
      </trkpt>
      <trkpt lat="43.5911" lon="3.79355">
        <ele>37.843157112698</ele>
        <time>2020-09-12T09:16:22.000Z</time>
      </trkpt>
      <trkpt lat="43.59109" lon="3.79349">
        <ele>37.743256980861</ele>
        <time>2020-09-12T09:16:23.000Z</time>
      </trkpt>
      <trkpt lat="43.59109" lon="3.79344">
        <ele>37.643356849025</ele>
        <time>2020-09-12T09:16:24.000Z</time>
      </trkpt>
      <trkpt lat="43.59109" lon="3.79339">
        <ele>37.543456717189</ele>
        <time>2020-09-12T09:16:25.000Z</time>
      </trkpt>
      <trkpt lat="43.59109" lon="3.79335">
        <ele>37.443556585353</ele>
        <time>2020-09-12T09:16:26.000Z</time>
      </trkpt>
      <trkpt lat="43.59109" lon="3.7933">
        <ele>37.343656453517</ele>
        <time>2020-09-12T09:16:27.000Z</time>
      </trkpt>
      <trkpt lat="43.59109" lon="3.79326">
        <ele>37.24375632168</ele>
        <time>2020-09-12T09:16:28.000Z</time>
      </trkpt>
      <trkpt lat="43.5911" lon="3.79323">
        <ele>37.143856189844</ele>
        <time>2020-09-12T09:16:29.000Z</time>
      </trkpt>
      <trkpt lat="43.59112" lon="3.79319">
        <ele>37.043956058008</ele>
        <time>2020-09-12T09:16:30.000Z</time>
      </trkpt>
      <trkpt lat="43.59115" lon="3.79316">
        <ele>37.0560560381</ele>
        <time>2020-09-12T09:16:31.000Z</time>
      </trkpt>
      <trkpt lat="43.59118" lon="3.79314">
        <ele>37.156156106136</ele>
        <time>2020-09-12T09:16:32.000Z</time>
      </trkpt>
      <trkpt lat="43.59122" lon="3.7931">
        <ele>37.256256174172</ele>
        <time>2020-09-12T09:16:33.000Z</time>
      </trkpt>
      <trkpt lat="43.59125" lon="3.79306">
        <ele>37.356356242208</ele>
        <time>2020-09-12T09:16:34.000Z</time>
      </trkpt>
      <trkpt lat="43.59127" lon="3.79302">
        <ele>37.456456310244</ele>
        <time>2020-09-12T09:16:35.000Z</time>
      </trkpt>
      <trkpt lat="43.5913" lon="3.79298">
        <ele>37.55655637828</ele>
        <time>2020-09-12T09:16:36.000Z</time>
      </trkpt>
      <trkpt lat="43.59131" lon="3.79293">
        <ele>37.656656446316</ele>
        <time>2020-09-12T09:16:37.000Z</time>
      </trkpt>
      <trkpt lat="43.59133" lon="3.79288">
        <ele>37.756756514352</ele>
        <time>2020-09-12T09:16:38.000Z</time>
      </trkpt>
      <trkpt lat="43.59135" lon="3.79283">
        <ele>37.856856582388</ele>
        <time>2020-09-12T09:16:39.000Z</time>
      </trkpt>
      <trkpt lat="43.59136" lon="3.79278">
        <ele>37.956956650424</ele>
        <time>2020-09-12T09:16:40.000Z</time>
      </trkpt>
      <trkpt lat="43.59139" lon="3.79273">
        <ele>38.05699968</ele>
        <time>2020-09-12T09:16:41.000Z</time>
      </trkpt>
      <trkpt lat="43.59141" lon="3.79268">
        <ele>38.15699968</ele>
        <time>2020-09-12T09:16:42.000Z</time>
      </trkpt>
      <trkpt lat="43.59142" lon="3.79263">
        <ele>38.25699968</ele>
        <time>2020-09-12T09:16:43.000Z</time>
      </trkpt>
      <trkpt lat="43.59144" lon="3.79258">
        <ele>38.35699968</ele>
        <time>2020-09-12T09:16:44.000Z</time>
      </trkpt>
      <trkpt lat="43.59146" lon="3.79254">
        <ele>38.45699968</ele>
        <time>2020-09-12T09:16:45.000Z</time>
      </trkpt>
      <trkpt lat="43.59148" lon="3.7925">
        <ele>38.55699968</ele>
        <time>2020-09-12T09:16:46.000Z</time>
      </trkpt>
      <trkpt lat="43.5915" lon="3.79245">
        <ele>38.65699968</ele>
        <time>2020-09-12T09:16:47.000Z</time>
      </trkpt>
      <trkpt lat="43.59152" lon="3.79241">
        <ele>38.75699968</ele>
        <time>2020-09-12T09:16:48.000Z</time>
      </trkpt>
      <trkpt lat="43.59153" lon="3.79237">
        <ele>38.85699968</ele>
        <time>2020-09-12T09:16:49.000Z</time>
      </trkpt>
      <trkpt lat="43.59154" lon="3.79233">
        <ele>38.95699968</ele>
        <time>2020-09-12T09:16:50.000Z</time>
      </trkpt>
      <trkpt lat="43.59156" lon="3.79229">
        <ele>39.05699968</ele>
        <time>2020-09-12T09:16:51.000Z</time>
      </trkpt>
      <trkpt lat="43.59157" lon="3.79225">
        <ele>39.15699968</ele>
        <time>2020-09-12T09:16:52.000Z</time>
      </trkpt>
      <trkpt lat="43.59159" lon="3.79221">
        <ele>39.25699968</ele>
        <time>2020-09-12T09:16:53.000Z</time>
      </trkpt>
      <trkpt lat="43.5916" lon="3.79218">
        <ele>39.35699968</ele>
        <time>2020-09-12T09:16:54.000Z</time>
      </trkpt>
      <trkpt lat="43.59161" lon="3.79214">
        <ele>39.45699968</ele>
        <time>2020-09-12T09:16:55.000Z</time>
      </trkpt>
      <trkpt lat="43.59162" lon="3.7921">
        <ele>39.55699968</ele>
        <time>2020-09-12T09:16:56.000Z</time>
      </trkpt>
      <trkpt lat="43.59162" lon="3.79207">
        <ele>39.65699968</ele>
        <time>2020-09-12T09:16:57.000Z</time>
      </trkpt>
      <trkpt lat="43.59163" lon="3.79203">
        <ele>39.75699968</ele>
        <time>2020-09-12T09:16:58.000Z</time>
      </trkpt>
      <trkpt lat="43.59163" lon="3.79199">
        <ele>39.85699968</ele>
        <time>2020-09-12T09:16:59.000Z</time>
      </trkpt>
      <trkpt lat="43.59164" lon="3.79196">
        <ele>39.95699968</ele>
        <time>2020-09-12T09:17:00.000Z</time>
      </trkpt>
      <trkpt lat="43.59164" lon="3.79193">
        <ele>40.110786584501</ele>
        <time>2020-09-12T09:17:01.000Z</time>
      </trkpt>
      <trkpt lat="43.59164" lon="3.79189">
        <ele>40.305150104614</ele>
        <time>2020-09-12T09:17:02.000Z</time>
      </trkpt>
      <trkpt lat="43.59164" lon="3.79186">
        <ele>40.499513624727</ele>
        <time>2020-09-12T09:17:03.000Z</time>
      </trkpt>
      <trkpt lat="43.59164" lon="3.79183">
        <ele>40.69387714484</ele>
        <time>2020-09-12T09:17:04.000Z</time>
      </trkpt>
      <trkpt lat="43.59164" lon="3.7918">
        <ele>40.888240664953</ele>
        <time>2020-09-12T09:17:05.000Z</time>
      </trkpt>
      <trkpt lat="43.59163" lon="3.79178">
        <ele>41.082604185066</ele>
        <time>2020-09-12T09:17:06.000Z</time>
      </trkpt>
      <trkpt lat="43.59163" lon="3.79175">
        <ele>41.27696770518</ele>
        <time>2020-09-12T09:17:07.000Z</time>
      </trkpt>
      <trkpt lat="43.59163" lon="3.79172">
        <ele>41.471331225293</ele>
        <time>2020-09-12T09:17:08.000Z</time>
      </trkpt>
      <trkpt lat="43.59162" lon="3.7917">
        <ele>41.665694745406</ele>
        <time>2020-09-12T09:17:09.000Z</time>
      </trkpt>
      <trkpt lat="43.59162" lon="3.79167">
        <ele>41.860058265519</ele>
        <time>2020-09-12T09:17:10.000Z</time>
      </trkpt>
      <trkpt lat="43.59162" lon="3.79164">
        <ele>42.057672483568</ele>
        <time>2020-09-12T09:17:11.000Z</time>
      </trkpt>
      <trkpt lat="43.59162" lon="3.79162">
        <ele>42.263645639169</ele>
        <time>2020-09-12T09:17:12.000Z</time>
      </trkpt>
      <trkpt lat="43.59161" lon="3.79159">
        <ele>42.46961879477</ele>
        <time>2020-09-12T09:17:13.000Z</time>
      </trkpt>
      <trkpt lat="43.59162" lon="3.79156">
        <ele>42.675591950371</ele>
        <time>2020-09-12T09:17:14.000Z</time>
      </trkpt>
      <trkpt lat="43.59162" lon="3.79153">
        <ele>42.881565105972</ele>
        <time>2020-09-12T09:17:15.000Z</time>
      </trkpt>
      <trkpt lat="43.59162" lon="3.7915">
        <ele>43.087538261573</ele>
        <time>2020-09-12T09:17:16.000Z</time>
      </trkpt>
      <trkpt lat="43.59162" lon="3.79147">
        <ele>43.293511417174</ele>
        <time>2020-09-12T09:17:17.000Z</time>
      </trkpt>
      <trkpt lat="43.59162" lon="3.79145">
        <ele>43.499484572775</ele>
        <time>2020-09-12T09:17:18.000Z</time>
      </trkpt>
      <trkpt lat="43.59162" lon="3.79142">
        <ele>43.705457728376</ele>
        <time>2020-09-12T09:17:19.000Z</time>
      </trkpt>
      <trkpt lat="43.59163" lon="3.79139">
        <ele>43.911430883978</ele>
        <time>2020-09-12T09:17:20.000Z</time>
      </trkpt>
      <trkpt lat="43.59163" lon="3.79136">
        <ele>44.05699968</ele>
        <time>2020-09-12T09:17:21.000Z</time>
      </trkpt>
      <trkpt lat="43.59164" lon="3.79133">
        <ele>44.15699968</ele>
        <time>2020-09-12T09:17:22.000Z</time>
      </trkpt>
      <trkpt lat="43.59164" lon="3.79129">
        <ele>44.25699968</ele>
        <time>2020-09-12T09:17:23.000Z</time>
      </trkpt>
      <trkpt lat="43.59165" lon="3.79126">
        <ele>44.35699968</ele>
        <time>2020-09-12T09:17:24.000Z</time>
      </trkpt>
      <trkpt lat="43.59165" lon="3.79122">
        <ele>44.45699968</ele>
        <time>2020-09-12T09:17:25.000Z</time>
      </trkpt>
      <trkpt lat="43.59166" lon="3.79119">
        <ele>44.55699968</ele>
        <time>2020-09-12T09:17:26.000Z</time>
      </trkpt>
      <trkpt lat="43.59166" lon="3.79115">
        <ele>44.65699968</ele>
        <time>2020-09-12T09:17:27.000Z</time>
      </trkpt>
      <trkpt lat="43.59167" lon="3.79111">
        <ele>44.75699968</ele>
        <time>2020-09-12T09:17:28.000Z</time>
      </trkpt>
      <trkpt lat="43.59167" lon="3.79107">
        <ele>44.85699968</ele>
        <time>2020-09-12T09:17:29.000Z</time>
      </trkpt>
      <trkpt lat="43.59168" lon="3.79103">
        <ele>44.95699968</ele>
        <time>2020-09-12T09:17:30.000Z</time>
      </trkpt>
      <trkpt lat="43.59169" lon="3.79099">
        <ele>45.056323794466</ele>
        <time>2020-09-12T09:17:31.000Z</time>
      </trkpt>
      <trkpt lat="43.59169" lon="3.79095">
        <ele>45.155138023715</ele>
        <time>2020-09-12T09:17:32.000Z</time>
      </trkpt>
      <trkpt lat="43.5917" lon="3.7909">
        <ele>45.253952252964</ele>
        <time>2020-09-12T09:17:33.000Z</time>
      </trkpt>
      <trkpt lat="43.59171" lon="3.79085">
        <ele>45.352766482213</ele>
        <time>2020-09-12T09:17:34.000Z</time>
      </trkpt>
      <trkpt lat="43.59172" lon="3.7908">
        <ele>45.451580711462</ele>
        <time>2020-09-12T09:17:35.000Z</time>
      </trkpt>
      <trkpt lat="43.59173" lon="3.79074">
        <ele>45.550394940711</ele>
        <time>2020-09-12T09:17:36.000Z</time>
      </trkpt>
      <trkpt lat="43.59174" lon="3.79069">
        <ele>45.64920916996</ele>
        <time>2020-09-12T09:17:37.000Z</time>
      </trkpt>
      <trkpt lat="43.59175" lon="3.79063">
        <ele>45.74802339921</ele>
        <time>2020-09-12T09:17:38.000Z</time>
      </trkpt>
      <trkpt lat="43.59177" lon="3.79058">
        <ele>45.846837628459</ele>
        <time>2020-09-12T09:17:39.000Z</time>
      </trkpt>
      <trkpt lat="43.59178" lon="3.79052">
        <ele>45.945651857708</ele>
        <time>2020-09-12T09:17:40.000Z</time>
      </trkpt>
      <trkpt lat="43.59179" lon="3.79047">
        <ele>45.955835003109</ele>
        <time>2020-09-12T09:17:41.000Z</time>
      </trkpt>
      <trkpt lat="43.59181" lon="3.79042">
        <ele>45.857689867653</ele>
        <time>2020-09-12T09:17:42.000Z</time>
      </trkpt>
      <trkpt lat="43.59182" lon="3.79037">
        <ele>45.759544732197</ele>
        <time>2020-09-12T09:17:43.000Z</time>
      </trkpt>
      <trkpt lat="43.59184" lon="3.79032">
        <ele>45.661399596741</ele>
        <time>2020-09-12T09:17:44.000Z</time>
      </trkpt>
      <trkpt lat="43.59185" lon="3.79026">
        <ele>45.563254461285</ele>
        <time>2020-09-12T09:17:45.000Z</time>
      </trkpt>
      <trkpt lat="43.59186" lon="3.79021">
        <ele>45.465109325829</ele>
        <time>2020-09-12T09:17:46.000Z</time>
      </trkpt>
      <trkpt lat="43.59187" lon="3.79016">
        <ele>45.366964190373</ele>
        <time>2020-09-12T09:17:47.000Z</time>
      </trkpt>
      <trkpt lat="43.59185" lon="3.79011">
        <ele>45.268819054917</ele>
        <time>2020-09-12T09:17:48.000Z</time>
      </trkpt>
      <trkpt lat="43.59183" lon="3.79007">
        <ele>45.170673919461</ele>
        <time>2020-09-12T09:17:49.000Z</time>
      </trkpt>
      <trkpt lat="43.59181" lon="3.79003">
        <ele>45.072528784005</ele>
        <time>2020-09-12T09:17:50.000Z</time>
      </trkpt>
      <trkpt lat="43.59179" lon="3.78997">
        <ele>45</ele>
        <time>2020-09-12T09:17:51.000Z</time>
      </trkpt>
      <trkpt lat="43.59176" lon="3.78992">
        <ele>45</ele>
        <time>2020-09-12T09:17:52.000Z</time>
      </trkpt>
      <trkpt lat="43.59173" lon="3.78986">
        <ele>45</ele>
        <time>2020-09-12T09:17:53.000Z</time>
      </trkpt>
      <trkpt lat="43.5917" lon="3.7898">
        <ele>45</ele>
        <time>2020-09-12T09:17:54.000Z</time>
      </trkpt>
      <trkpt lat="43.59167" lon="3.78974">
        <ele>45</ele>
        <time>2020-09-12T09:17:55.000Z</time>
      </trkpt>
      <trkpt lat="43.59164" lon="3.78969">
        <ele>45</ele>
        <time>2020-09-12T09:17:56.000Z</time>
      </trkpt>
      <trkpt lat="43.5916" lon="3.78963">
        <ele>45</ele>
        <time>2020-09-12T09:17:57.000Z</time>
      </trkpt>
      <trkpt lat="43.59157" lon="3.78958">
        <ele>45</ele>
        <time>2020-09-12T09:17:58.000Z</time>
      </trkpt>
      <trkpt lat="43.59154" lon="3.78952">
        <ele>45</ele>
        <time>2020-09-12T09:17:59.000Z</time>
      </trkpt>
      <trkpt lat="43.59151" lon="3.78947">
        <ele>45</ele>
        <time>2020-09-12T09:18:00.000Z</time>
      </trkpt>
      <trkpt lat="43.59147" lon="3.78942">
        <ele>45</ele>
        <time>2020-09-12T09:18:01.000Z</time>
      </trkpt>
      <trkpt lat="43.59144" lon="3.78936">
        <ele>45</ele>
        <time>2020-09-12T09:18:02.000Z</time>
      </trkpt>
      <trkpt lat="43.59141" lon="3.78931">
        <ele>45</ele>
        <time>2020-09-12T09:18:03.000Z</time>
      </trkpt>
      <trkpt lat="43.59137" lon="3.78926">
        <ele>45</ele>
        <time>2020-09-12T09:18:04.000Z</time>
      </trkpt>
      <trkpt lat="43.59135" lon="3.78921">
        <ele>45</ele>
        <time>2020-09-12T09:18:05.000Z</time>
      </trkpt>
      <trkpt lat="43.59132" lon="3.78916">
        <ele>45</ele>
        <time>2020-09-12T09:18:06.000Z</time>
      </trkpt>
      <trkpt lat="43.5913" lon="3.78911">
        <ele>45</ele>
        <time>2020-09-12T09:18:07.000Z</time>
      </trkpt>
      <trkpt lat="43.59129" lon="3.78906">
        <ele>45</ele>
        <time>2020-09-12T09:18:08.000Z</time>
      </trkpt>
      <trkpt lat="43.59127" lon="3.789">
        <ele>45</ele>
        <time>2020-09-12T09:18:09.000Z</time>
      </trkpt>
      <trkpt lat="43.59126" lon="3.78895">
        <ele>45</ele>
        <time>2020-09-12T09:18:10.000Z</time>
      </trkpt>
      <trkpt lat="43.59125" lon="3.78889">
        <ele>45</ele>
        <time>2020-09-12T09:18:11.000Z</time>
      </trkpt>
      <trkpt lat="43.59124" lon="3.78885">
        <ele>45</ele>
        <time>2020-09-12T09:18:12.000Z</time>
      </trkpt>
      <trkpt lat="43.59124" lon="3.7888">
        <ele>45</ele>
        <time>2020-09-12T09:18:13.000Z</time>
      </trkpt>
      <trkpt lat="43.59123" lon="3.78876">
        <ele>45</ele>
        <time>2020-09-12T09:18:14.000Z</time>
      </trkpt>
      <trkpt lat="43.59123" lon="3.78872">
        <ele>45</ele>
        <time>2020-09-12T09:18:15.000Z</time>
      </trkpt>
      <trkpt lat="43.59122" lon="3.78869">
        <ele>45</ele>
        <time>2020-09-12T09:18:16.000Z</time>
      </trkpt>
      <trkpt lat="43.5912" lon="3.78867">
        <ele>45</ele>
        <time>2020-09-12T09:18:17.000Z</time>
      </trkpt>
      <trkpt lat="43.59117" lon="3.78865">
        <ele>45</ele>
        <time>2020-09-12T09:18:18.000Z</time>
      </trkpt>
      <trkpt lat="43.59115" lon="3.78865">
        <ele>45</ele>
        <time>2020-09-12T09:18:19.000Z</time>
      </trkpt>
      <trkpt lat="43.59112" lon="3.78864">
        <ele>45</ele>
        <time>2020-09-12T09:18:20.000Z</time>
      </trkpt>
      <trkpt lat="43.5911" lon="3.78862">
        <ele>45.055484935024</ele>
        <time>2020-09-12T09:18:21.000Z</time>
      </trkpt>
      <trkpt lat="43.59109" lon="3.78858">
        <ele>45.152657266811</ele>
        <time>2020-09-12T09:18:22.000Z</time>
      </trkpt>
      <trkpt lat="43.59107" lon="3.78854">
        <ele>45.249829598599</ele>
        <time>2020-09-12T09:18:23.000Z</time>
      </trkpt>
      <trkpt lat="43.59106" lon="3.7885">
        <ele>45.347001930387</ele>
        <time>2020-09-12T09:18:24.000Z</time>
      </trkpt>
      <trkpt lat="43.59104" lon="3.78845">
        <ele>45.444174262174</ele>
        <time>2020-09-12T09:18:25.000Z</time>
      </trkpt>
      <trkpt lat="43.59103" lon="3.78841">
        <ele>45.541346593962</ele>
        <time>2020-09-12T09:18:26.000Z</time>
      </trkpt>
      <trkpt lat="43.59101" lon="3.78837">
        <ele>45.63851892575</ele>
        <time>2020-09-12T09:18:27.000Z</time>
      </trkpt>
      <trkpt lat="43.591" lon="3.78834">
        <ele>45.735691257538</ele>
        <time>2020-09-12T09:18:28.000Z</time>
      </trkpt>
      <trkpt lat="43.59099" lon="3.7883">
        <ele>45.832863589325</ele>
        <time>2020-09-12T09:18:29.000Z</time>
      </trkpt>
      <trkpt lat="43.59097" lon="3.78826">
        <ele>45.930035921113</ele>
        <time>2020-09-12T09:18:30.000Z</time>
      </trkpt>
      <trkpt lat="43.59095" lon="3.78823">
        <ele>46.057672483568</ele>
        <time>2020-09-12T09:18:31.000Z</time>
      </trkpt>
      <trkpt lat="43.59094" lon="3.78819">
        <ele>46.263645639169</ele>
        <time>2020-09-12T09:18:32.000Z</time>
      </trkpt>
      <trkpt lat="43.59093" lon="3.78816">
        <ele>46.46961879477</ele>
        <time>2020-09-12T09:18:33.000Z</time>
      </trkpt>
      <trkpt lat="43.59092" lon="3.78812">
        <ele>46.675591950371</ele>
        <time>2020-09-12T09:18:34.000Z</time>
      </trkpt>
      <trkpt lat="43.5909" lon="3.78809">
        <ele>46.881565105972</ele>
        <time>2020-09-12T09:18:35.000Z</time>
      </trkpt>
      <trkpt lat="43.59089" lon="3.78806">
        <ele>47.087538261573</ele>
        <time>2020-09-12T09:18:36.000Z</time>
      </trkpt>
      <trkpt lat="43.59088" lon="3.78803">
        <ele>47.293511417174</ele>
        <time>2020-09-12T09:18:37.000Z</time>
      </trkpt>
      <trkpt lat="43.59087" lon="3.788">
        <ele>47.499484572775</ele>
        <time>2020-09-12T09:18:38.000Z</time>
      </trkpt>
      <trkpt lat="43.59086" lon="3.78797">
        <ele>47.705457728376</ele>
        <time>2020-09-12T09:18:39.000Z</time>
      </trkpt>
      <trkpt lat="43.59085" lon="3.78794">
        <ele>47.911430883978</ele>
        <time>2020-09-12T09:18:40.000Z</time>
      </trkpt>
      <trkpt lat="43.59084" lon="3.78791">
        <ele>48.05699968</ele>
        <time>2020-09-12T09:18:41.000Z</time>
      </trkpt>
      <trkpt lat="43.59084" lon="3.78787">
        <ele>48.15699968</ele>
        <time>2020-09-12T09:18:42.000Z</time>
      </trkpt>
      <trkpt lat="43.59083" lon="3.78784">
        <ele>48.25699968</ele>
        <time>2020-09-12T09:18:43.000Z</time>
      </trkpt>
      <trkpt lat="43.59083" lon="3.7878">
        <ele>48.35699968</ele>
        <time>2020-09-12T09:18:44.000Z</time>
      </trkpt>
      <trkpt lat="43.59082" lon="3.78777">
        <ele>48.45699968</ele>
        <time>2020-09-12T09:18:45.000Z</time>
      </trkpt>
      <trkpt lat="43.59081" lon="3.78773">
        <ele>48.55699968</ele>
        <time>2020-09-12T09:18:46.000Z</time>
      </trkpt>
      <trkpt lat="43.5908" lon="3.7877">
        <ele>48.65699968</ele>
        <time>2020-09-12T09:18:47.000Z</time>
      </trkpt>
      <trkpt lat="43.59079" lon="3.78766">
        <ele>48.75699968</ele>
        <time>2020-09-12T09:18:48.000Z</time>
      </trkpt>
      <trkpt lat="43.59078" lon="3.78763">
        <ele>48.85699968</ele>
        <time>2020-09-12T09:18:49.000Z</time>
      </trkpt>
      <trkpt lat="43.59078" lon="3.7876">
        <ele>48.95699968</ele>
        <time>2020-09-12T09:18:50.000Z</time>
      </trkpt>
      <trkpt lat="43.59076" lon="3.78757">
        <ele>49.056102047244</ele>
        <time>2020-09-12T09:18:51.000Z</time>
      </trkpt>
      <trkpt lat="43.59075" lon="3.78754">
        <ele>49.154527244095</ele>
        <time>2020-09-12T09:18:52.000Z</time>
      </trkpt>
      <trkpt lat="43.59073" lon="3.78751">
        <ele>49.252952440945</ele>
        <time>2020-09-12T09:18:53.000Z</time>
      </trkpt>
      <trkpt lat="43.59072" lon="3.78748">
        <ele>49.351377637795</ele>
        <time>2020-09-12T09:18:54.000Z</time>
      </trkpt>
      <trkpt lat="43.59071" lon="3.78745">
        <ele>49.449802834646</ele>
        <time>2020-09-12T09:18:55.000Z</time>
      </trkpt>
      <trkpt lat="43.59069" lon="3.78743">
        <ele>49.548228031496</ele>
        <time>2020-09-12T09:18:56.000Z</time>
      </trkpt>
      <trkpt lat="43.59068" lon="3.7874">
        <ele>49.646653228347</ele>
        <time>2020-09-12T09:18:57.000Z</time>
      </trkpt>
      <trkpt lat="43.59066" lon="3.78738">
        <ele>49.745078425197</ele>
        <time>2020-09-12T09:18:58.000Z</time>
      </trkpt>
      <trkpt lat="43.59065" lon="3.78735">
        <ele>49.843503622047</ele>
        <time>2020-09-12T09:18:59.000Z</time>
      </trkpt>
      <trkpt lat="43.59064" lon="3.78732">
        <ele>49.941928818898</ele>
        <time>2020-09-12T09:19:00.000Z</time>
      </trkpt>
      <trkpt lat="43.59063" lon="3.78728">
        <ele>50.041666341463</ele>
        <time>2020-09-12T09:19:01.000Z</time>
      </trkpt>
      <trkpt lat="43.59062" lon="3.78725">
        <ele>50.143292357724</ele>
        <time>2020-09-12T09:19:02.000Z</time>
      </trkpt>
      <trkpt lat="43.59062" lon="3.78722">
        <ele>50.244918373984</ele>
        <time>2020-09-12T09:19:03.000Z</time>
      </trkpt>
      <trkpt lat="43.59062" lon="3.78718">
        <ele>50.346544390244</ele>
        <time>2020-09-12T09:19:04.000Z</time>
      </trkpt>
      <trkpt lat="43.59062" lon="3.78715">
        <ele>50.448170406504</ele>
        <time>2020-09-12T09:19:05.000Z</time>
      </trkpt>
      <trkpt lat="43.59063" lon="3.78711">
        <ele>50.549796422764</ele>
        <time>2020-09-12T09:19:06.000Z</time>
      </trkpt>
      <trkpt lat="43.59064" lon="3.78708">
        <ele>50.651422439024</ele>
        <time>2020-09-12T09:19:07.000Z</time>
      </trkpt>
      <trkpt lat="43.59065" lon="3.78704">
        <ele>50.753048455284</ele>
        <time>2020-09-12T09:19:08.000Z</time>
      </trkpt>
      <trkpt lat="43.59066" lon="3.78701">
        <ele>50.854674471545</ele>
        <time>2020-09-12T09:19:09.000Z</time>
      </trkpt>
      <trkpt lat="43.59067" lon="3.78697">
        <ele>50.956300487805</ele>
        <time>2020-09-12T09:19:10.000Z</time>
      </trkpt>
      <trkpt lat="43.59068" lon="3.78694">
        <ele>51.05699968</ele>
        <time>2020-09-12T09:19:11.000Z</time>
      </trkpt>
      <trkpt lat="43.5907" lon="3.7869">
        <ele>51.15699968</ele>
        <time>2020-09-12T09:19:12.000Z</time>
      </trkpt>
      <trkpt lat="43.59071" lon="3.78687">
        <ele>51.25699968</ele>
        <time>2020-09-12T09:19:13.000Z</time>
      </trkpt>
      <trkpt lat="43.59072" lon="3.78684">
        <ele>51.35699968</ele>
        <time>2020-09-12T09:19:14.000Z</time>
      </trkpt>
      <trkpt lat="43.59074" lon="3.7868">
        <ele>51.45699968</ele>
        <time>2020-09-12T09:19:15.000Z</time>
      </trkpt>
      <trkpt lat="43.59074" lon="3.78677">
        <ele>51.55699968</ele>
        <time>2020-09-12T09:19:16.000Z</time>
      </trkpt>
      <trkpt lat="43.59075" lon="3.78674">
        <ele>51.65699968</ele>
        <time>2020-09-12T09:19:17.000Z</time>
      </trkpt>
      <trkpt lat="43.59077" lon="3.78671">
        <ele>51.75699968</ele>
        <time>2020-09-12T09:19:18.000Z</time>
      </trkpt>
      <trkpt lat="43.59078" lon="3.78668">
        <ele>51.85699968</ele>
        <time>2020-09-12T09:19:19.000Z</time>
      </trkpt>
      <trkpt lat="43.59079" lon="3.78665">
        <ele>51.95699968</ele>
        <time>2020-09-12T09:19:20.000Z</time>
      </trkpt>
      <trkpt lat="43.5908" lon="3.78662">
        <ele>52</ele>
        <time>2020-09-12T09:19:21.000Z</time>
      </trkpt>
      <trkpt lat="43.59082" lon="3.78659">
        <ele>52</ele>
        <time>2020-09-12T09:19:22.000Z</time>
      </trkpt>
      <trkpt lat="43.59083" lon="3.78655">
        <ele>52</ele>
        <time>2020-09-12T09:19:23.000Z</time>
      </trkpt>
      <trkpt lat="43.59085" lon="3.78651">
        <ele>52</ele>
        <time>2020-09-12T09:19:24.000Z</time>
      </trkpt>
      <trkpt lat="43.59086" lon="3.78648">
        <ele>52</ele>
        <time>2020-09-12T09:19:25.000Z</time>
      </trkpt>
      <trkpt lat="43.59087" lon="3.78644">
        <ele>52</ele>
        <time>2020-09-12T09:19:26.000Z</time>
      </trkpt>
      <trkpt lat="43.59088" lon="3.78641">
        <ele>52</ele>
        <time>2020-09-12T09:19:27.000Z</time>
      </trkpt>
      <trkpt lat="43.59089" lon="3.78637">
        <ele>52</ele>
        <time>2020-09-12T09:19:28.000Z</time>
      </trkpt>
      <trkpt lat="43.5909" lon="3.78634">
        <ele>52</ele>
        <time>2020-09-12T09:19:29.000Z</time>
      </trkpt>
      <trkpt lat="43.59091" lon="3.78631">
        <ele>52</ele>
        <time>2020-09-12T09:19:30.000Z</time>
      </trkpt>
      <trkpt lat="43.59092" lon="3.78628">
        <ele>52.05699968</ele>
        <time>2020-09-12T09:19:31.000Z</time>
      </trkpt>
      <trkpt lat="43.59093" lon="3.78625">
        <ele>52.15699968</ele>
        <time>2020-09-12T09:19:32.000Z</time>
      </trkpt>
      <trkpt lat="43.59094" lon="3.78622">
        <ele>52.25699968</ele>
        <time>2020-09-12T09:19:33.000Z</time>
      </trkpt>
      <trkpt lat="43.59096" lon="3.78619">
        <ele>52.35699968</ele>
        <time>2020-09-12T09:19:34.000Z</time>
      </trkpt>
      <trkpt lat="43.59097" lon="3.78616">
        <ele>52.45699968</ele>
        <time>2020-09-12T09:19:35.000Z</time>
      </trkpt>
      <trkpt lat="43.59097" lon="3.78612">
        <ele>52.55699968</ele>
        <time>2020-09-12T09:19:36.000Z</time>
      </trkpt>
      <trkpt lat="43.59098" lon="3.78609">
        <ele>52.65699968</ele>
        <time>2020-09-12T09:19:37.000Z</time>
      </trkpt>
      <trkpt lat="43.59098" lon="3.78606">
        <ele>52.75699968</ele>
        <time>2020-09-12T09:19:38.000Z</time>
      </trkpt>
      <trkpt lat="43.59098" lon="3.78603">
        <ele>52.85699968</ele>
        <time>2020-09-12T09:19:39.000Z</time>
      </trkpt>
      <trkpt lat="43.59099" lon="3.786">
        <ele>52.95699968</ele>
        <time>2020-09-12T09:19:40.000Z</time>
      </trkpt>
      <trkpt lat="43.59099" lon="3.78597">
        <ele>53.11399936</ele>
        <time>2020-09-12T09:19:41.000Z</time>
      </trkpt>
      <trkpt lat="43.59099" lon="3.78594">
        <ele>53.31399936</ele>
        <time>2020-09-12T09:19:42.000Z</time>
      </trkpt>
      <trkpt lat="43.59099" lon="3.7859">
        <ele>53.51399936</ele>
        <time>2020-09-12T09:19:43.000Z</time>
      </trkpt>
      <trkpt lat="43.59099" lon="3.78587">
        <ele>53.71399936</ele>
        <time>2020-09-12T09:19:44.000Z</time>
      </trkpt>
      <trkpt lat="43.591" lon="3.78584">
        <ele>53.91399936</ele>
        <time>2020-09-12T09:19:45.000Z</time>
      </trkpt>
      <trkpt lat="43.591" lon="3.78581">
        <ele>54.11399936</ele>
        <time>2020-09-12T09:19:46.000Z</time>
      </trkpt>
      <trkpt lat="43.591" lon="3.78578">
        <ele>54.31399936</ele>
        <time>2020-09-12T09:19:47.000Z</time>
      </trkpt>
      <trkpt lat="43.591" lon="3.78574">
        <ele>54.51399936</ele>
        <time>2020-09-12T09:19:48.000Z</time>
      </trkpt>
      <trkpt lat="43.591" lon="3.78571">
        <ele>54.71399936</ele>
        <time>2020-09-12T09:19:49.000Z</time>
      </trkpt>
      <trkpt lat="43.591" lon="3.78568">
        <ele>54.91399936</ele>
        <time>2020-09-12T09:19:50.000Z</time>
      </trkpt>
      <trkpt lat="43.59101" lon="3.78564">
        <ele>55</ele>
        <time>2020-09-12T09:19:51.000Z</time>
      </trkpt>
      <trkpt lat="43.59102" lon="3.78561">
        <ele>55</ele>
        <time>2020-09-12T09:19:52.000Z</time>
      </trkpt>
      <trkpt lat="43.59102" lon="3.78557">
        <ele>55</ele>
        <time>2020-09-12T09:19:53.000Z</time>
      </trkpt>
      <trkpt lat="43.59102" lon="3.78553">
        <ele>55</ele>
        <time>2020-09-12T09:19:54.000Z</time>
      </trkpt>
      <trkpt lat="43.59102" lon="3.7855">
        <ele>55</ele>
        <time>2020-09-12T09:19:55.000Z</time>
      </trkpt>
      <trkpt lat="43.59102" lon="3.78546">
        <ele>55</ele>
        <time>2020-09-12T09:19:56.000Z</time>
      </trkpt>
      <trkpt lat="43.59102" lon="3.78543">
        <ele>55</ele>
        <time>2020-09-12T09:19:57.000Z</time>
      </trkpt>
      <trkpt lat="43.59102" lon="3.7854">
        <ele>55</ele>
        <time>2020-09-12T09:19:58.000Z</time>
      </trkpt>
      <trkpt lat="43.59102" lon="3.78537">
        <ele>55</ele>
        <time>2020-09-12T09:19:59.000Z</time>
      </trkpt>
      <trkpt lat="43.59101" lon="3.78534">
        <ele>55</ele>
        <time>2020-09-12T09:20:00.000Z</time>
      </trkpt>
      <trkpt lat="43.59101" lon="3.78531">
        <ele>55.05699968</ele>
        <time>2020-09-12T09:20:01.000Z</time>
      </trkpt>
      <trkpt lat="43.59102" lon="3.78527">
        <ele>55.15699968</ele>
        <time>2020-09-12T09:20:02.000Z</time>
      </trkpt>
      <trkpt lat="43.59102" lon="3.78524">
        <ele>55.25699968</ele>
        <time>2020-09-12T09:20:03.000Z</time>
      </trkpt>
      <trkpt lat="43.59102" lon="3.7852">
        <ele>55.35699968</ele>
        <time>2020-09-12T09:20:04.000Z</time>
      </trkpt>
      <trkpt lat="43.59102" lon="3.78516">
        <ele>55.45699968</ele>
        <time>2020-09-12T09:20:05.000Z</time>
      </trkpt>
      <trkpt lat="43.59102" lon="3.78513">
        <ele>55.55699968</ele>
        <time>2020-09-12T09:20:06.000Z</time>
      </trkpt>
      <trkpt lat="43.59102" lon="3.78509">
        <ele>55.65699968</ele>
        <time>2020-09-12T09:20:07.000Z</time>
      </trkpt>
      <trkpt lat="43.59102" lon="3.78506">
        <ele>55.75699968</ele>
        <time>2020-09-12T09:20:08.000Z</time>
      </trkpt>
      <trkpt lat="43.59102" lon="3.78502">
        <ele>55.85699968</ele>
        <time>2020-09-12T09:20:09.000Z</time>
      </trkpt>
      <trkpt lat="43.59102" lon="3.78499">
        <ele>55.95699968</ele>
        <time>2020-09-12T09:20:10.000Z</time>
      </trkpt>
      <trkpt lat="43.59102" lon="3.78495">
        <ele>56.11399936</ele>
        <time>2020-09-12T09:20:11.000Z</time>
      </trkpt>
      <trkpt lat="43.59102" lon="3.78492">
        <ele>56.31399936</ele>
        <time>2020-09-12T09:20:12.000Z</time>
      </trkpt>
      <trkpt lat="43.59102" lon="3.78488">
        <ele>56.51399936</ele>
        <time>2020-09-12T09:20:13.000Z</time>
      </trkpt>
      <trkpt lat="43.59101" lon="3.78485">
        <ele>56.71399936</ele>
        <time>2020-09-12T09:20:14.000Z</time>
      </trkpt>
      <trkpt lat="43.59101" lon="3.78481">
        <ele>56.91399936</ele>
        <time>2020-09-12T09:20:15.000Z</time>
      </trkpt>
      <trkpt lat="43.591" lon="3.78478">
        <ele>57.11399936</ele>
        <time>2020-09-12T09:20:16.000Z</time>
      </trkpt>
      <trkpt lat="43.591" lon="3.78474">
        <ele>57.31399936</ele>
        <time>2020-09-12T09:20:17.000Z</time>
      </trkpt>
      <trkpt lat="43.59099" lon="3.78471">
        <ele>57.51399936</ele>
        <time>2020-09-12T09:20:18.000Z</time>
      </trkpt>
      <trkpt lat="43.59098" lon="3.78468">
        <ele>57.71399936</ele>
        <time>2020-09-12T09:20:19.000Z</time>
      </trkpt>
      <trkpt lat="43.59098" lon="3.78465">
        <ele>57.91399936</ele>
        <time>2020-09-12T09:20:20.000Z</time>
      </trkpt>
      <trkpt lat="43.59098" lon="3.78462">
        <ele>58.11399936</ele>
        <time>2020-09-12T09:20:21.000Z</time>
      </trkpt>
      <trkpt lat="43.59098" lon="3.78458">
        <ele>58.31399936</ele>
        <time>2020-09-12T09:20:22.000Z</time>
      </trkpt>
      <trkpt lat="43.59098" lon="3.78455">
        <ele>58.51399936</ele>
        <time>2020-09-12T09:20:23.000Z</time>
      </trkpt>
      <trkpt lat="43.59098" lon="3.78452">
        <ele>58.71399936</ele>
        <time>2020-09-12T09:20:24.000Z</time>
      </trkpt>
      <trkpt lat="43.59099" lon="3.78448">
        <ele>58.91399936</ele>
        <time>2020-09-12T09:20:25.000Z</time>
      </trkpt>
      <trkpt lat="43.59099" lon="3.78445">
        <ele>59.11399936</ele>
        <time>2020-09-12T09:20:26.000Z</time>
      </trkpt>
      <trkpt lat="43.59099" lon="3.78441">
        <ele>59.31399936</ele>
        <time>2020-09-12T09:20:27.000Z</time>
      </trkpt>
      <trkpt lat="43.59099" lon="3.78438">
        <ele>59.51399936</ele>
        <time>2020-09-12T09:20:28.000Z</time>
      </trkpt>
      <trkpt lat="43.59099" lon="3.78435">
        <ele>59.71399936</ele>
        <time>2020-09-12T09:20:29.000Z</time>
      </trkpt>
      <trkpt lat="43.591" lon="3.78431">
        <ele>59.91399936</ele>
        <time>2020-09-12T09:20:30.000Z</time>
      </trkpt>
      <trkpt lat="43.591" lon="3.78428">
        <ele>60.109299448729</ele>
        <time>2020-09-12T09:20:31.000Z</time>
      </trkpt>
      <trkpt lat="43.591" lon="3.78425">
        <ele>60.301053944068</ele>
        <time>2020-09-12T09:20:32.000Z</time>
      </trkpt>
      <trkpt lat="43.59099" lon="3.78422">
        <ele>60.492808439407</ele>
        <time>2020-09-12T09:20:33.000Z</time>
      </trkpt>
      <trkpt lat="43.59099" lon="3.78419">
        <ele>60.684562934746</ele>
        <time>2020-09-12T09:20:34.000Z</time>
      </trkpt>
      <trkpt lat="43.59099" lon="3.78416">
        <ele>60.876317430085</ele>
        <time>2020-09-12T09:20:35.000Z</time>
      </trkpt>
      <trkpt lat="43.59098" lon="3.78414">
        <ele>61.068071925424</ele>
        <time>2020-09-12T09:20:36.000Z</time>
      </trkpt>
      <trkpt lat="43.59098" lon="3.78411">
        <ele>61.259826420763</ele>
        <time>2020-09-12T09:20:37.000Z</time>
      </trkpt>
      <trkpt lat="43.59097" lon="3.78408">
        <ele>61.451580916102</ele>
        <time>2020-09-12T09:20:38.000Z</time>
      </trkpt>
      <trkpt lat="43.59097" lon="3.78405">
        <ele>61.643335411441</ele>
        <time>2020-09-12T09:20:39.000Z</time>
      </trkpt>
      <trkpt lat="43.59097" lon="3.78402">
        <ele>61.83508990678</ele>
        <time>2020-09-12T09:20:40.000Z</time>
      </trkpt>
      <trkpt lat="43.59096" lon="3.784">
        <ele>62.04388515574</ele>
        <time>2020-09-12T09:20:41.000Z</time>
      </trkpt>
      <trkpt lat="43.59097" lon="3.78397">
        <ele>62.357364884385</ele>
        <time>2020-09-12T09:20:42.000Z</time>
      </trkpt>
      <trkpt lat="43.59097" lon="3.78394">
        <ele>62.670844613031</ele>
        <time>2020-09-12T09:20:43.000Z</time>
      </trkpt>
      <trkpt lat="43.59097" lon="3.7839">
        <ele>63.297804070321</ele>
        <time>2020-09-12T09:20:45.000Z</time>
      </trkpt>
      <trkpt lat="43.59097" lon="3.78385">
        <ele>63.924763527612</ele>
        <time>2020-09-12T09:20:47.000Z</time>
      </trkpt>
      <trkpt lat="43.59096" lon="3.78381">
        <ele>64.551722984902</ele>
        <time>2020-09-12T09:20:49.000Z</time>
      </trkpt>
      <trkpt lat="43.59095" lon="3.78379">
        <ele>64.865202713547</ele>
        <time>2020-09-12T09:20:50.000Z</time>
      </trkpt>
      <trkpt lat="43.59093" lon="3.78375">
        <ele>65.15699968</ele>
        <time>2020-09-12T09:20:52.000Z</time>
      </trkpt>
      <trkpt lat="43.59093" lon="3.78371">
        <ele>65.35699968</ele>
        <time>2020-09-12T09:20:54.000Z</time>
      </trkpt>
      <trkpt lat="43.59091" lon="3.78367">
        <ele>65.55699968</ele>
        <time>2020-09-12T09:20:56.000Z</time>
      </trkpt>
      <trkpt lat="43.59091" lon="3.78364">
        <ele>65.65699968</ele>
        <time>2020-09-12T09:20:57.000Z</time>
      </trkpt>
      <trkpt lat="43.59091" lon="3.78361">
        <ele>65.75699968</ele>
        <time>2020-09-12T09:20:58.000Z</time>
      </trkpt>
      <trkpt lat="43.59091" lon="3.78358">
        <ele>65.85699968</ele>
        <time>2020-09-12T09:20:59.000Z</time>
      </trkpt>
      <trkpt lat="43.59091" lon="3.78355">
        <ele>65.95699968</ele>
        <time>2020-09-12T09:21:00.000Z</time>
      </trkpt>
      <trkpt lat="43.59091" lon="3.78351">
        <ele>66.11399936</ele>
        <time>2020-09-12T09:21:01.000Z</time>
      </trkpt>
      <trkpt lat="43.59091" lon="3.78346">
        <ele>66.31399936</ele>
        <time>2020-09-12T09:21:02.000Z</time>
      </trkpt>
      <trkpt lat="43.5909" lon="3.78342">
        <ele>66.51399936</ele>
        <time>2020-09-12T09:21:03.000Z</time>
      </trkpt>
      <trkpt lat="43.59089" lon="3.78338">
        <ele>66.71399936</ele>
        <time>2020-09-12T09:21:04.000Z</time>
      </trkpt>
      <trkpt lat="43.59088" lon="3.78334">
        <ele>66.91399936</ele>
        <time>2020-09-12T09:21:05.000Z</time>
      </trkpt>
      <trkpt lat="43.59086" lon="3.78331">
        <ele>67.11399936</ele>
        <time>2020-09-12T09:21:06.000Z</time>
      </trkpt>
      <trkpt lat="43.59085" lon="3.78327">
        <ele>67.31399936</ele>
        <time>2020-09-12T09:21:07.000Z</time>
      </trkpt>
      <trkpt lat="43.59083" lon="3.78323">
        <ele>67.51399936</ele>
        <time>2020-09-12T09:21:08.000Z</time>
      </trkpt>
      <trkpt lat="43.59082" lon="3.7832">
        <ele>67.71399936</ele>
        <time>2020-09-12T09:21:09.000Z</time>
      </trkpt>
      <trkpt lat="43.59081" lon="3.78316">
        <ele>67.91399936</ele>
        <time>2020-09-12T09:21:10.000Z</time>
      </trkpt>
      <trkpt lat="43.59079" lon="3.78312">
        <ele>68.05699968</ele>
        <time>2020-09-12T09:21:11.000Z</time>
      </trkpt>
      <trkpt lat="43.59078" lon="3.78308">
        <ele>68.15699968</ele>
        <time>2020-09-12T09:21:12.000Z</time>
      </trkpt>
      <trkpt lat="43.59077" lon="3.78304">
        <ele>68.25699968</ele>
        <time>2020-09-12T09:21:13.000Z</time>
      </trkpt>
      <trkpt lat="43.59075" lon="3.783">
        <ele>68.35699968</ele>
        <time>2020-09-12T09:21:14.000Z</time>
      </trkpt>
      <trkpt lat="43.59073" lon="3.78296">
        <ele>68.45699968</ele>
        <time>2020-09-12T09:21:15.000Z</time>
      </trkpt>
      <trkpt lat="43.59071" lon="3.78292">
        <ele>68.55699968</ele>
        <time>2020-09-12T09:21:16.000Z</time>
      </trkpt>
      <trkpt lat="43.59069" lon="3.78288">
        <ele>68.65699968</ele>
        <time>2020-09-12T09:21:17.000Z</time>
      </trkpt>
      <trkpt lat="43.59067" lon="3.78284">
        <ele>68.75699968</ele>
        <time>2020-09-12T09:21:18.000Z</time>
      </trkpt>
      <trkpt lat="43.59065" lon="3.7828">
        <ele>68.85699968</ele>
        <time>2020-09-12T09:21:19.000Z</time>
      </trkpt>
      <trkpt lat="43.59063" lon="3.78277">
        <ele>68.95699968</ele>
        <time>2020-09-12T09:21:20.000Z</time>
      </trkpt>
      <trkpt lat="43.59061" lon="3.78273">
        <ele>69</ele>
        <time>2020-09-12T09:21:21.000Z</time>
      </trkpt>
      <trkpt lat="43.59059" lon="3.7827">
        <ele>69</ele>
        <time>2020-09-12T09:21:22.000Z</time>
      </trkpt>
      <trkpt lat="43.59057" lon="3.78267">
        <ele>69</ele>
        <time>2020-09-12T09:21:23.000Z</time>
      </trkpt>
      <trkpt lat="43.59055" lon="3.78263">
        <ele>69</ele>
        <time>2020-09-12T09:21:24.000Z</time>
      </trkpt>
      <trkpt lat="43.59052" lon="3.7826">
        <ele>69</ele>
        <time>2020-09-12T09:21:25.000Z</time>
      </trkpt>
      <trkpt lat="43.5905" lon="3.78256">
        <ele>69</ele>
        <time>2020-09-12T09:21:26.000Z</time>
      </trkpt>
      <trkpt lat="43.59048" lon="3.78252">
        <ele>69</ele>
        <time>2020-09-12T09:21:27.000Z</time>
      </trkpt>
      <trkpt lat="43.59046" lon="3.78248">
        <ele>69</ele>
        <time>2020-09-12T09:21:28.000Z</time>
      </trkpt>
      <trkpt lat="43.59045" lon="3.78244">
        <ele>69</ele>
        <time>2020-09-12T09:21:29.000Z</time>
      </trkpt>
      <trkpt lat="43.59043" lon="3.7824">
        <ele>69</ele>
        <time>2020-09-12T09:21:30.000Z</time>
      </trkpt>
      <trkpt lat="43.59041" lon="3.78237">
        <ele>69</ele>
        <time>2020-09-12T09:21:31.000Z</time>
      </trkpt>
      <trkpt lat="43.59038" lon="3.78234">
        <ele>69</ele>
        <time>2020-09-12T09:21:32.000Z</time>
      </trkpt>
      <trkpt lat="43.59035" lon="3.78231">
        <ele>69</ele>
        <time>2020-09-12T09:21:33.000Z</time>
      </trkpt>
      <trkpt lat="43.59032" lon="3.7823">
        <ele>69</ele>
        <time>2020-09-12T09:21:34.000Z</time>
      </trkpt>
      <trkpt lat="43.59029" lon="3.78229">
        <ele>69</ele>
        <time>2020-09-12T09:21:35.000Z</time>
      </trkpt>
      <trkpt lat="43.59026" lon="3.78229">
        <ele>69</ele>
        <time>2020-09-12T09:21:36.000Z</time>
      </trkpt>
      <trkpt lat="43.59023" lon="3.78229">
        <ele>69</ele>
        <time>2020-09-12T09:21:37.000Z</time>
      </trkpt>
      <trkpt lat="43.5902" lon="3.78228">
        <ele>69</ele>
        <time>2020-09-12T09:21:38.000Z</time>
      </trkpt>
      <trkpt lat="43.59018" lon="3.78229">
        <ele>69</ele>
        <time>2020-09-12T09:21:39.000Z</time>
      </trkpt>
      <trkpt lat="43.59016" lon="3.78229">
        <ele>69</ele>
        <time>2020-09-12T09:21:40.000Z</time>
      </trkpt>
      <trkpt lat="43.59014" lon="3.7823">
        <ele>69.055944073828</ele>
        <time>2020-09-12T09:21:41.000Z</time>
      </trkpt>
      <trkpt lat="43.59012" lon="3.78231">
        <ele>69.255744337501</ele>
        <time>2020-09-12T09:21:42.000Z</time>
      </trkpt>
      <trkpt lat="43.5901" lon="3.78231">
        <ele>69.455544601173</ele>
        <time>2020-09-12T09:21:43.000Z</time>
      </trkpt>
      <trkpt lat="43.59006" lon="3.78232">
        <ele>69.855145128518</ele>
        <time>2020-09-12T09:21:45.000Z</time>
      </trkpt>
      <trkpt lat="43.59004" lon="3.78234">
        <ele>70.05494539219</ele>
        <time>2020-09-12T09:21:46.000Z</time>
      </trkpt>
      <trkpt lat="43.59002" lon="3.78234">
        <ele>70.254745655863</ele>
        <time>2020-09-12T09:21:47.000Z</time>
      </trkpt>
      <trkpt lat="43.58999" lon="3.7823">
        <ele>70.654346183208</ele>
        <time>2020-09-12T09:21:49.000Z</time>
      </trkpt>
      <trkpt lat="43.58999" lon="3.78227">
        <ele>70.85414644688</ele>
        <time>2020-09-12T09:21:50.000Z</time>
      </trkpt>
      <trkpt lat="43.58998" lon="3.78224">
        <ele>71</ele>
        <time>2020-09-12T09:21:51.000Z</time>
      </trkpt>
      <trkpt lat="43.58997" lon="3.78221">
        <ele>71</ele>
        <time>2020-09-12T09:21:52.000Z</time>
      </trkpt>
      <trkpt lat="43.58996" lon="3.78217">
        <ele>71</ele>
        <time>2020-09-12T09:21:53.000Z</time>
      </trkpt>
      <trkpt lat="43.58995" lon="3.78213">
        <ele>71</ele>
        <time>2020-09-12T09:21:54.000Z</time>
      </trkpt>
      <trkpt lat="43.58993" lon="3.7821">
        <ele>71</ele>
        <time>2020-09-12T09:21:55.000Z</time>
      </trkpt>
      <trkpt lat="43.58991" lon="3.78208">
        <ele>71</ele>
        <time>2020-09-12T09:21:56.000Z</time>
      </trkpt>
      <trkpt lat="43.58989" lon="3.78205">
        <ele>71</ele>
        <time>2020-09-12T09:21:57.000Z</time>
      </trkpt>
      <trkpt lat="43.58987" lon="3.78202">
        <ele>71</ele>
        <time>2020-09-12T09:21:58.000Z</time>
      </trkpt>
      <trkpt lat="43.58985" lon="3.782">
        <ele>71</ele>
        <time>2020-09-12T09:21:59.000Z</time>
      </trkpt>
      <trkpt lat="43.58982" lon="3.78197">
        <ele>71</ele>
        <time>2020-09-12T09:22:00.000Z</time>
      </trkpt>
      <trkpt lat="43.5898" lon="3.78194">
        <ele>71.05699968</ele>
        <time>2020-09-12T09:22:01.000Z</time>
      </trkpt>
      <trkpt lat="43.58977" lon="3.78192">
        <ele>71.15699968</ele>
        <time>2020-09-12T09:22:02.000Z</time>
      </trkpt>
      <trkpt lat="43.58974" lon="3.7819">
        <ele>71.25699968</ele>
        <time>2020-09-12T09:22:03.000Z</time>
      </trkpt>
      <trkpt lat="43.58971" lon="3.78188">
        <ele>71.35699968</ele>
        <time>2020-09-12T09:22:04.000Z</time>
      </trkpt>
      <trkpt lat="43.58969" lon="3.78185">
        <ele>71.45699968</ele>
        <time>2020-09-12T09:22:05.000Z</time>
      </trkpt>
      <trkpt lat="43.58966" lon="3.78181">
        <ele>71.55699968</ele>
        <time>2020-09-12T09:22:06.000Z</time>
      </trkpt>
      <trkpt lat="43.58964" lon="3.78177">
        <ele>71.65699968</ele>
        <time>2020-09-12T09:22:07.000Z</time>
      </trkpt>
      <trkpt lat="43.58961" lon="3.78175">
        <ele>71.75699968</ele>
        <time>2020-09-12T09:22:08.000Z</time>
      </trkpt>
      <trkpt lat="43.58957" lon="3.78174">
        <ele>71.85699968</ele>
        <time>2020-09-12T09:22:09.000Z</time>
      </trkpt>
      <trkpt lat="43.58954" lon="3.78174">
        <ele>71.95699968</ele>
        <time>2020-09-12T09:22:10.000Z</time>
      </trkpt>
      <trkpt lat="43.58949" lon="3.78176">
        <ele>71.943620512405</ele>
        <time>2020-09-12T09:22:11.000Z</time>
      </trkpt>
      <trkpt lat="43.58945" lon="3.78178">
        <ele>71.844708575364</ele>
        <time>2020-09-12T09:22:12.000Z</time>
      </trkpt>
      <trkpt lat="43.58942" lon="3.78179">
        <ele>71.745796638323</ele>
        <time>2020-09-12T09:22:13.000Z</time>
      </trkpt>
      <trkpt lat="43.58938" lon="3.7818">
        <ele>71.646884701283</ele>
        <time>2020-09-12T09:22:14.000Z</time>
      </trkpt>
      <trkpt lat="43.58934" lon="3.78181">
        <ele>71.547972764242</ele>
        <time>2020-09-12T09:22:15.000Z</time>
      </trkpt>
      <trkpt lat="43.5893" lon="3.78182">
        <ele>71.449060827201</ele>
        <time>2020-09-12T09:22:16.000Z</time>
      </trkpt>
      <trkpt lat="43.58927" lon="3.78184">
        <ele>71.350148890161</ele>
        <time>2020-09-12T09:22:17.000Z</time>
      </trkpt>
      <trkpt lat="43.58924" lon="3.78185">
        <ele>71.25123695312</ele>
        <time>2020-09-12T09:22:18.000Z</time>
      </trkpt>
      <trkpt lat="43.5892" lon="3.78187">
        <ele>71.152325016079</ele>
        <time>2020-09-12T09:22:19.000Z</time>
      </trkpt>
      <trkpt lat="43.58917" lon="3.78189">
        <ele>71.053413079038</ele>
        <time>2020-09-12T09:22:20.000Z</time>
      </trkpt>
      <trkpt lat="43.58913" lon="3.7819">
        <ele>71</ele>
        <time>2020-09-12T09:22:21.000Z</time>
      </trkpt>
      <trkpt lat="43.58909" lon="3.78191">
        <ele>71</ele>
        <time>2020-09-12T09:22:22.000Z</time>
      </trkpt>
      <trkpt lat="43.58905" lon="3.7819">
        <ele>71</ele>
        <time>2020-09-12T09:22:23.000Z</time>
      </trkpt>
      <trkpt lat="43.58902" lon="3.78187">
        <ele>71</ele>
        <time>2020-09-12T09:22:24.000Z</time>
      </trkpt>
      <trkpt lat="43.58898" lon="3.78185">
        <ele>71</ele>
        <time>2020-09-12T09:22:25.000Z</time>
      </trkpt>
      <trkpt lat="43.58895" lon="3.78184">
        <ele>71</ele>
        <time>2020-09-12T09:22:26.000Z</time>
      </trkpt>
      <trkpt lat="43.58891" lon="3.78184">
        <ele>71</ele>
        <time>2020-09-12T09:22:27.000Z</time>
      </trkpt>
      <trkpt lat="43.58887" lon="3.78186">
        <ele>71</ele>
        <time>2020-09-12T09:22:28.000Z</time>
      </trkpt>
      <trkpt lat="43.58884" lon="3.78189">
        <ele>71</ele>
        <time>2020-09-12T09:22:29.000Z</time>
      </trkpt>
      <trkpt lat="43.5888" lon="3.78192">
        <ele>71</ele>
        <time>2020-09-12T09:22:30.000Z</time>
      </trkpt>
      <trkpt lat="43.58876" lon="3.78194">
        <ele>70.971163758216</ele>
        <time>2020-09-12T09:22:31.000Z</time>
      </trkpt>
      <trkpt lat="43.58872" lon="3.78194">
        <ele>70.868177180415</ele>
        <time>2020-09-12T09:22:32.000Z</time>
      </trkpt>
      <trkpt lat="43.58868" lon="3.78194">
        <ele>70.765190602615</ele>
        <time>2020-09-12T09:22:33.000Z</time>
      </trkpt>
      <trkpt lat="43.58865" lon="3.78193">
        <ele>70.662204024814</ele>
        <time>2020-09-12T09:22:34.000Z</time>
      </trkpt>
      <trkpt lat="43.58861" lon="3.78192">
        <ele>70.559217447014</ele>
        <time>2020-09-12T09:22:35.000Z</time>
      </trkpt>
      <trkpt lat="43.58858" lon="3.78191">
        <ele>70.456230869213</ele>
        <time>2020-09-12T09:22:36.000Z</time>
      </trkpt>
      <trkpt lat="43.58854" lon="3.7819">
        <ele>70.353244291413</ele>
        <time>2020-09-12T09:22:37.000Z</time>
      </trkpt>
      <trkpt lat="43.5885" lon="3.78189">
        <ele>70.250257713612</ele>
        <time>2020-09-12T09:22:38.000Z</time>
      </trkpt>
      <trkpt lat="43.58846" lon="3.78189">
        <ele>70.147271135812</ele>
        <time>2020-09-12T09:22:39.000Z</time>
      </trkpt>
      <trkpt lat="43.58842" lon="3.78188">
        <ele>70.044284558011</ele>
        <time>2020-09-12T09:22:40.000Z</time>
      </trkpt>
      <trkpt lat="43.58838" lon="3.78188">
        <ele>70</ele>
        <time>2020-09-12T09:22:41.000Z</time>
      </trkpt>
      <trkpt lat="43.58833" lon="3.78189">
        <ele>70</ele>
        <time>2020-09-12T09:22:42.000Z</time>
      </trkpt>
      <trkpt lat="43.5883" lon="3.78189">
        <ele>70</ele>
        <time>2020-09-12T09:22:43.000Z</time>
      </trkpt>
      <trkpt lat="43.58826" lon="3.78191">
        <ele>70</ele>
        <time>2020-09-12T09:22:44.000Z</time>
      </trkpt>
      <trkpt lat="43.58823" lon="3.78192">
        <ele>70</ele>
        <time>2020-09-12T09:22:45.000Z</time>
      </trkpt>
      <trkpt lat="43.58819" lon="3.78194">
        <ele>70</ele>
        <time>2020-09-12T09:22:46.000Z</time>
      </trkpt>
      <trkpt lat="43.58816" lon="3.78196">
        <ele>70</ele>
        <time>2020-09-12T09:22:47.000Z</time>
      </trkpt>
      <trkpt lat="43.58813" lon="3.78198">
        <ele>70</ele>
        <time>2020-09-12T09:22:48.000Z</time>
      </trkpt>
      <trkpt lat="43.5881" lon="3.782">
        <ele>70</ele>
        <time>2020-09-12T09:22:49.000Z</time>
      </trkpt>
      <trkpt lat="43.58806" lon="3.78201">
        <ele>70</ele>
        <time>2020-09-12T09:22:50.000Z</time>
      </trkpt>
      <trkpt lat="43.58803" lon="3.78202">
        <ele>69.893574939759</ele>
        <time>2020-09-12T09:22:51.000Z</time>
      </trkpt>
      <trkpt lat="43.588" lon="3.78203">
        <ele>69.692771726908</ele>
        <time>2020-09-12T09:22:52.000Z</time>
      </trkpt>
      <trkpt lat="43.58797" lon="3.78205">
        <ele>69.491968514056</ele>
        <time>2020-09-12T09:22:53.000Z</time>
      </trkpt>
      <trkpt lat="43.58794" lon="3.78207">
        <ele>69.291165301205</ele>
        <time>2020-09-12T09:22:54.000Z</time>
      </trkpt>
      <trkpt lat="43.5879" lon="3.7821">
        <ele>69.090362088353</ele>
        <time>2020-09-12T09:22:55.000Z</time>
      </trkpt>
      <trkpt lat="43.58786" lon="3.7821">
        <ele>68.889558875502</ele>
        <time>2020-09-12T09:22:56.000Z</time>
      </trkpt>
      <trkpt lat="43.58782" lon="3.7821">
        <ele>68.688755662651</ele>
        <time>2020-09-12T09:22:57.000Z</time>
      </trkpt>
      <trkpt lat="43.58778" lon="3.78208">
        <ele>68.487952449799</ele>
        <time>2020-09-12T09:22:58.000Z</time>
      </trkpt>
      <trkpt lat="43.58774" lon="3.78205">
        <ele>68.287149236948</ele>
        <time>2020-09-12T09:22:59.000Z</time>
      </trkpt>
      <trkpt lat="43.5877" lon="3.78204">
        <ele>68.086346024096</ele>
        <time>2020-09-12T09:23:00.000Z</time>
      </trkpt>
      <trkpt lat="43.58766" lon="3.78203">
        <ele>67.94300032</ele>
        <time>2020-09-12T09:23:01.000Z</time>
      </trkpt>
      <trkpt lat="43.58762" lon="3.78203">
        <ele>67.84300032</ele>
        <time>2020-09-12T09:23:02.000Z</time>
      </trkpt>
      <trkpt lat="43.58758" lon="3.78204">
        <ele>67.74300032</ele>
        <time>2020-09-12T09:23:03.000Z</time>
      </trkpt>
      <trkpt lat="43.58755" lon="3.78204">
        <ele>67.64300032</ele>
        <time>2020-09-12T09:23:04.000Z</time>
      </trkpt>
      <trkpt lat="43.58751" lon="3.78204">
        <ele>67.54300032</ele>
        <time>2020-09-12T09:23:05.000Z</time>
      </trkpt>
      <trkpt lat="43.58748" lon="3.78205">
        <ele>67.44300032</ele>
        <time>2020-09-12T09:23:06.000Z</time>
      </trkpt>
      <trkpt lat="43.58745" lon="3.78206">
        <ele>67.34300032</ele>
        <time>2020-09-12T09:23:07.000Z</time>
      </trkpt>
      <trkpt lat="43.58742" lon="3.78207">
        <ele>67.24300032</ele>
        <time>2020-09-12T09:23:08.000Z</time>
      </trkpt>
      <trkpt lat="43.58739" lon="3.78207">
        <ele>67.14300032</ele>
        <time>2020-09-12T09:23:09.000Z</time>
      </trkpt>
      <trkpt lat="43.58736" lon="3.78209">
        <ele>67.04300032</ele>
        <time>2020-09-12T09:23:10.000Z</time>
      </trkpt>
      <trkpt lat="43.58733" lon="3.78212">
        <ele>67</ele>
        <time>2020-09-12T09:23:11.000Z</time>
      </trkpt>
      <trkpt lat="43.5873" lon="3.78215">
        <ele>67</ele>
        <time>2020-09-12T09:23:12.000Z</time>
      </trkpt>
      <trkpt lat="43.58727" lon="3.78216">
        <ele>67</ele>
        <time>2020-09-12T09:23:13.000Z</time>
      </trkpt>
      <trkpt lat="43.58723" lon="3.78216">
        <ele>67</ele>
        <time>2020-09-12T09:23:14.000Z</time>
      </trkpt>
      <trkpt lat="43.58719" lon="3.78216">
        <ele>67</ele>
        <time>2020-09-12T09:23:15.000Z</time>
      </trkpt>
      <trkpt lat="43.58716" lon="3.78216">
        <ele>67</ele>
        <time>2020-09-12T09:23:16.000Z</time>
      </trkpt>
      <trkpt lat="43.58712" lon="3.78216">
        <ele>67</ele>
        <time>2020-09-12T09:23:17.000Z</time>
      </trkpt>
      <trkpt lat="43.58708" lon="3.78216">
        <ele>67</ele>
        <time>2020-09-12T09:23:18.000Z</time>
      </trkpt>
      <trkpt lat="43.58704" lon="3.78218">
        <ele>67</ele>
        <time>2020-09-12T09:23:19.000Z</time>
      </trkpt>
      <trkpt lat="43.58699" lon="3.78219">
        <ele>67</ele>
        <time>2020-09-12T09:23:20.000Z</time>
      </trkpt>
      <trkpt lat="43.58695" lon="3.78219">
        <ele>66.88600064</ele>
        <time>2020-09-12T09:23:21.000Z</time>
      </trkpt>
      <trkpt lat="43.58691" lon="3.78219">
        <ele>66.68600064</ele>
        <time>2020-09-12T09:23:22.000Z</time>
      </trkpt>
      <trkpt lat="43.58686" lon="3.78219">
        <ele>66.48600064</ele>
        <time>2020-09-12T09:23:23.000Z</time>
      </trkpt>
      <trkpt lat="43.58682" lon="3.78219">
        <ele>66.28600064</ele>
        <time>2020-09-12T09:23:24.000Z</time>
      </trkpt>
      <trkpt lat="43.58677" lon="3.78219">
        <ele>66.08600064</ele>
        <time>2020-09-12T09:23:25.000Z</time>
      </trkpt>
      <trkpt lat="43.58674" lon="3.78222">
        <ele>65.88600064</ele>
        <time>2020-09-12T09:23:26.000Z</time>
      </trkpt>
      <trkpt lat="43.58671" lon="3.78226">
        <ele>65.68600064</ele>
        <time>2020-09-12T09:23:27.000Z</time>
      </trkpt>
      <trkpt lat="43.58669" lon="3.78231">
        <ele>65.48600064</ele>
        <time>2020-09-12T09:23:28.000Z</time>
      </trkpt>
      <trkpt lat="43.58667" lon="3.78237">
        <ele>65.28600064</ele>
        <time>2020-09-12T09:23:29.000Z</time>
      </trkpt>
      <trkpt lat="43.58665" lon="3.78243">
        <ele>65.08600064</ele>
        <time>2020-09-12T09:23:30.000Z</time>
      </trkpt>
      <trkpt lat="43.58662" lon="3.78248">
        <ele>64.832189414818</ele>
        <time>2020-09-12T09:23:31.000Z</time>
      </trkpt>
      <trkpt lat="43.58659" lon="3.78253">
        <ele>64.537783226604</ele>
        <time>2020-09-12T09:23:32.000Z</time>
      </trkpt>
      <trkpt lat="43.58655" lon="3.78258">
        <ele>64.24337703839</ele>
        <time>2020-09-12T09:23:33.000Z</time>
      </trkpt>
      <trkpt lat="43.58652" lon="3.78263">
        <ele>63.948970850176</ele>
        <time>2020-09-12T09:23:34.000Z</time>
      </trkpt>
      <trkpt lat="43.5865" lon="3.78268">
        <ele>63.654564661962</ele>
        <time>2020-09-12T09:23:35.000Z</time>
      </trkpt>
      <trkpt lat="43.58648" lon="3.78273">
        <ele>63.360158473748</ele>
        <time>2020-09-12T09:23:36.000Z</time>
      </trkpt>
      <trkpt lat="43.58647" lon="3.78278">
        <ele>63.065752285534</ele>
        <time>2020-09-12T09:23:37.000Z</time>
      </trkpt>
      <trkpt lat="43.58645" lon="3.78284">
        <ele>62.77134609732</ele>
        <time>2020-09-12T09:23:38.000Z</time>
      </trkpt>
      <trkpt lat="43.58643" lon="3.78288">
        <ele>62.476939909106</ele>
        <time>2020-09-12T09:23:39.000Z</time>
      </trkpt>
      <trkpt lat="43.58639" lon="3.7829">
        <ele>62.182533720892</ele>
        <time>2020-09-12T09:23:40.000Z</time>
      </trkpt>
      <trkpt lat="43.58634" lon="3.7829">
        <ele>61.92252931214</ele>
        <time>2020-09-12T09:23:41.000Z</time>
      </trkpt>
      <trkpt lat="43.58629" lon="3.78288">
        <ele>61.718655647268</ele>
        <time>2020-09-12T09:23:42.000Z</time>
      </trkpt>
      <trkpt lat="43.58626" lon="3.78284">
        <ele>61.514781982396</ele>
        <time>2020-09-12T09:23:43.000Z</time>
      </trkpt>
      <trkpt lat="43.58623" lon="3.7828">
        <ele>61.310908317524</ele>
        <time>2020-09-12T09:23:44.000Z</time>
      </trkpt>
      <trkpt lat="43.58621" lon="3.78276">
        <ele>61.107034652651</ele>
        <time>2020-09-12T09:23:45.000Z</time>
      </trkpt>
      <trkpt lat="43.58619" lon="3.78272">
        <ele>60.903160987779</ele>
        <time>2020-09-12T09:23:46.000Z</time>
      </trkpt>
      <trkpt lat="43.58616" lon="3.78269">
        <ele>60.699287322907</ele>
        <time>2020-09-12T09:23:47.000Z</time>
      </trkpt>
      <trkpt lat="43.58613" lon="3.78266">
        <ele>60.495413658035</ele>
        <time>2020-09-12T09:23:48.000Z</time>
      </trkpt>
      <trkpt lat="43.5861" lon="3.78264">
        <ele>60.291539993163</ele>
        <time>2020-09-12T09:23:49.000Z</time>
      </trkpt>
      <trkpt lat="43.58607" lon="3.78262">
        <ele>60.087666328291</ele>
        <time>2020-09-12T09:23:50.000Z</time>
      </trkpt>
      <trkpt lat="43.58603" lon="3.78261">
        <ele>59.82900096</ele>
        <time>2020-09-12T09:23:51.000Z</time>
      </trkpt>
      <trkpt lat="43.586" lon="3.78259">
        <ele>59.52900096</ele>
        <time>2020-09-12T09:23:52.000Z</time>
      </trkpt>
      <trkpt lat="43.58596" lon="3.78256">
        <ele>59.22900096</ele>
        <time>2020-09-12T09:23:53.000Z</time>
      </trkpt>
      <trkpt lat="43.58592" lon="3.78253">
        <ele>58.92900096</ele>
        <time>2020-09-12T09:23:54.000Z</time>
      </trkpt>
      <trkpt lat="43.58588" lon="3.78252">
        <ele>58.62900096</ele>
        <time>2020-09-12T09:23:55.000Z</time>
      </trkpt>
      <trkpt lat="43.58584" lon="3.78252">
        <ele>58.32900096</ele>
        <time>2020-09-12T09:23:56.000Z</time>
      </trkpt>
      <trkpt lat="43.5858" lon="3.78252">
        <ele>58.02900096</ele>
        <time>2020-09-12T09:23:57.000Z</time>
      </trkpt>
      <trkpt lat="43.58577" lon="3.7825">
        <ele>57.72900096</ele>
        <time>2020-09-12T09:23:58.000Z</time>
      </trkpt>
      <trkpt lat="43.58574" lon="3.78251">
        <ele>57.42900096</ele>
        <time>2020-09-12T09:23:59.000Z</time>
      </trkpt>
      <trkpt lat="43.58571" lon="3.78253">
        <ele>57.12900096</ele>
        <time>2020-09-12T09:24:00.000Z</time>
      </trkpt>
      <trkpt lat="43.58568" lon="3.78255">
        <ele>56.82900096</ele>
        <time>2020-09-12T09:24:01.000Z</time>
      </trkpt>
      <trkpt lat="43.58564" lon="3.78256">
        <ele>56.52900096</ele>
        <time>2020-09-12T09:24:02.000Z</time>
      </trkpt>
      <trkpt lat="43.58561" lon="3.78257">
        <ele>56.22900096</ele>
        <time>2020-09-12T09:24:03.000Z</time>
      </trkpt>
      <trkpt lat="43.58558" lon="3.78258">
        <ele>55.92900096</ele>
        <time>2020-09-12T09:24:04.000Z</time>
      </trkpt>
      <trkpt lat="43.58554" lon="3.7826">
        <ele>55.62900096</ele>
        <time>2020-09-12T09:24:05.000Z</time>
      </trkpt>
      <trkpt lat="43.58551" lon="3.78263">
        <ele>55.32900096</ele>
        <time>2020-09-12T09:24:06.000Z</time>
      </trkpt>
      <trkpt lat="43.58547" lon="3.78265">
        <ele>55.02900096</ele>
        <time>2020-09-12T09:24:07.000Z</time>
      </trkpt>
      <trkpt lat="43.58543" lon="3.78266">
        <ele>54.72900096</ele>
        <time>2020-09-12T09:24:08.000Z</time>
      </trkpt>
      <trkpt lat="43.58538" lon="3.78267">
        <ele>54.42900096</ele>
        <time>2020-09-12T09:24:09.000Z</time>
      </trkpt>
      <trkpt lat="43.58534" lon="3.78267">
        <ele>54.12900096</ele>
        <time>2020-09-12T09:24:10.000Z</time>
      </trkpt>
      <trkpt lat="43.58531" lon="3.78268">
        <ele>53.88600064</ele>
        <time>2020-09-12T09:24:11.000Z</time>
      </trkpt>
      <trkpt lat="43.58528" lon="3.78269">
        <ele>53.68600064</ele>
        <time>2020-09-12T09:24:12.000Z</time>
      </trkpt>
      <trkpt lat="43.58524" lon="3.7827">
        <ele>53.48600064</ele>
        <time>2020-09-12T09:24:13.000Z</time>
      </trkpt>
      <trkpt lat="43.58521" lon="3.78271">
        <ele>53.28600064</ele>
        <time>2020-09-12T09:24:14.000Z</time>
      </trkpt>
      <trkpt lat="43.58518" lon="3.78269">
        <ele>53.08600064</ele>
        <time>2020-09-12T09:24:15.000Z</time>
      </trkpt>
      <trkpt lat="43.58516" lon="3.78268">
        <ele>52.88600064</ele>
        <time>2020-09-12T09:24:16.000Z</time>
      </trkpt>
      <trkpt lat="43.58513" lon="3.78265">
        <ele>52.68600064</ele>
        <time>2020-09-12T09:24:17.000Z</time>
      </trkpt>
      <trkpt lat="43.58511" lon="3.78262">
        <ele>52.48600064</ele>
        <time>2020-09-12T09:24:18.000Z</time>
      </trkpt>
      <trkpt lat="43.5851" lon="3.78258">
        <ele>52.28600064</ele>
        <time>2020-09-12T09:24:19.000Z</time>
      </trkpt>
      <trkpt lat="43.58509" lon="3.78254">
        <ele>52.08600064</ele>
        <time>2020-09-12T09:24:20.000Z</time>
      </trkpt>
      <trkpt lat="43.58508" lon="3.7825">
        <ele>51.82900096</ele>
        <time>2020-09-12T09:24:21.000Z</time>
      </trkpt>
      <trkpt lat="43.58506" lon="3.78247">
        <ele>51.52900096</ele>
        <time>2020-09-12T09:24:22.000Z</time>
      </trkpt>
      <trkpt lat="43.58503" lon="3.78244">
        <ele>51.22900096</ele>
        <time>2020-09-12T09:24:23.000Z</time>
      </trkpt>
      <trkpt lat="43.58501" lon="3.78242">
        <ele>50.92900096</ele>
        <time>2020-09-12T09:24:24.000Z</time>
      </trkpt>
      <trkpt lat="43.58498" lon="3.78239">
        <ele>50.62900096</ele>
        <time>2020-09-12T09:24:25.000Z</time>
      </trkpt>
      <trkpt lat="43.58496" lon="3.78236">
        <ele>50.32900096</ele>
        <time>2020-09-12T09:24:26.000Z</time>
      </trkpt>
      <trkpt lat="43.58495" lon="3.78232">
        <ele>50.02900096</ele>
        <time>2020-09-12T09:24:27.000Z</time>
      </trkpt>
      <trkpt lat="43.58493" lon="3.78228">
        <ele>49.72900096</ele>
        <time>2020-09-12T09:24:28.000Z</time>
      </trkpt>
      <trkpt lat="43.58491" lon="3.78225">
        <ele>49.42900096</ele>
        <time>2020-09-12T09:24:29.000Z</time>
      </trkpt>
      <trkpt lat="43.5849" lon="3.78221">
        <ele>49.12900096</ele>
        <time>2020-09-12T09:24:30.000Z</time>
      </trkpt>
      <trkpt lat="43.58489" lon="3.78217">
        <ele>48.944606707749</ele>
        <time>2020-09-12T09:24:31.000Z</time>
      </trkpt>
      <trkpt lat="43.58489" lon="3.78212">
        <ele>48.847424947693</ele>
        <time>2020-09-12T09:24:32.000Z</time>
      </trkpt>
      <trkpt lat="43.58489" lon="3.78208">
        <ele>48.750243187636</ele>
        <time>2020-09-12T09:24:33.000Z</time>
      </trkpt>
      <trkpt lat="43.58489" lon="3.78202">
        <ele>48.65306142758</ele>
        <time>2020-09-12T09:24:34.000Z</time>
      </trkpt>
      <trkpt lat="43.58489" lon="3.78197">
        <ele>48.555879667523</ele>
        <time>2020-09-12T09:24:35.000Z</time>
      </trkpt>
      <trkpt lat="43.58488" lon="3.78192">
        <ele>48.458697907467</ele>
        <time>2020-09-12T09:24:36.000Z</time>
      </trkpt>
      <trkpt lat="43.58488" lon="3.78186">
        <ele>48.36151614741</ele>
        <time>2020-09-12T09:24:37.000Z</time>
      </trkpt>
      <trkpt lat="43.58488" lon="3.7818">
        <ele>48.264334387354</ele>
        <time>2020-09-12T09:24:38.000Z</time>
      </trkpt>
      <trkpt lat="43.58488" lon="3.78174">
        <ele>48.167152627297</ele>
        <time>2020-09-12T09:24:39.000Z</time>
      </trkpt>
      <trkpt lat="43.58488" lon="3.78169">
        <ele>48.069970867241</ele>
        <time>2020-09-12T09:24:40.000Z</time>
      </trkpt>
      <trkpt lat="43.58488" lon="3.78163">
        <ele>47.94411174075</ele>
        <time>2020-09-12T09:24:41.000Z</time>
      </trkpt>
      <trkpt lat="43.58488" lon="3.78157">
        <ele>47.744510814857</ele>
        <time>2020-09-12T09:24:42.000Z</time>
      </trkpt>
      <trkpt lat="43.58488" lon="3.78151">
        <ele>47.544909888964</ele>
        <time>2020-09-12T09:24:43.000Z</time>
      </trkpt>
      <trkpt lat="43.58488" lon="3.78145">
        <ele>47.345308963072</ele>
        <time>2020-09-12T09:24:44.000Z</time>
      </trkpt>
      <trkpt lat="43.58488" lon="3.78139">
        <ele>47.145708037179</ele>
        <time>2020-09-12T09:24:45.000Z</time>
      </trkpt>
      <trkpt lat="43.58489" lon="3.78133">
        <ele>46.946107111286</ele>
        <time>2020-09-12T09:24:46.000Z</time>
      </trkpt>
      <trkpt lat="43.58488" lon="3.78126">
        <ele>46.746506185393</ele>
        <time>2020-09-12T09:24:47.000Z</time>
      </trkpt>
      <trkpt lat="43.58488" lon="3.7812">
        <ele>46.5469052595</ele>
        <time>2020-09-12T09:24:48.000Z</time>
      </trkpt>
      <trkpt lat="43.58489" lon="3.78113">
        <ele>46.347304333608</ele>
        <time>2020-09-12T09:24:49.000Z</time>
      </trkpt>
      <trkpt lat="43.58489" lon="3.78106">
        <ele>46.147703407715</ele>
        <time>2020-09-12T09:24:50.000Z</time>
      </trkpt>
      <trkpt lat="43.58489" lon="3.78099">
        <ele>45.973167580763</ele>
        <time>2020-09-12T09:24:51.000Z</time>
      </trkpt>
      <trkpt lat="43.58489" lon="3.78092">
        <ele>45.869968508597</ele>
        <time>2020-09-12T09:24:52.000Z</time>
      </trkpt>
      <trkpt lat="43.58488" lon="3.78086">
        <ele>45.766769436431</ele>
        <time>2020-09-12T09:24:53.000Z</time>
      </trkpt>
      <trkpt lat="43.58489" lon="3.78079">
        <ele>45.663570364265</ele>
        <time>2020-09-12T09:24:54.000Z</time>
      </trkpt>
      <trkpt lat="43.58489" lon="3.78072">
        <ele>45.560371292099</ele>
        <time>2020-09-12T09:24:55.000Z</time>
      </trkpt>
      <trkpt lat="43.58489" lon="3.78065">
        <ele>45.457172219933</ele>
        <time>2020-09-12T09:24:56.000Z</time>
      </trkpt>
      <trkpt lat="43.58489" lon="3.78058">
        <ele>45.353973147767</ele>
        <time>2020-09-12T09:24:57.000Z</time>
      </trkpt>
      <trkpt lat="43.58489" lon="3.78051">
        <ele>45.250774075601</ele>
        <time>2020-09-12T09:24:58.000Z</time>
      </trkpt>
      <trkpt lat="43.58489" lon="3.78043">
        <ele>45.147575003434</ele>
        <time>2020-09-12T09:24:59.000Z</time>
      </trkpt>
      <trkpt lat="43.58489" lon="3.78036">
        <ele>45.044375931268</ele>
        <time>2020-09-12T09:25:00.000Z</time>
      </trkpt>
      <trkpt lat="43.58489" lon="3.78029">
        <ele>44.944660470469</ele>
        <time>2020-09-12T09:25:01.000Z</time>
      </trkpt>
      <trkpt lat="43.58489" lon="3.78022">
        <ele>44.847573031502</ele>
        <time>2020-09-12T09:25:02.000Z</time>
      </trkpt>
      <trkpt lat="43.58489" lon="3.78015">
        <ele>44.750485592535</ele>
        <time>2020-09-12T09:25:03.000Z</time>
      </trkpt>
      <trkpt lat="43.5849" lon="3.78008">
        <ele>44.653398153568</ele>
        <time>2020-09-12T09:25:04.000Z</time>
      </trkpt>
      <trkpt lat="43.58491" lon="3.78001">
        <ele>44.556310714601</ele>
        <time>2020-09-12T09:25:05.000Z</time>
      </trkpt>
      <trkpt lat="43.58491" lon="3.77994">
        <ele>44.459223275634</ele>
        <time>2020-09-12T09:25:06.000Z</time>
      </trkpt>
      <trkpt lat="43.58492" lon="3.77987">
        <ele>44.362135836667</ele>
        <time>2020-09-12T09:25:07.000Z</time>
      </trkpt>
      <trkpt lat="43.58493" lon="3.7798">
        <ele>44.2650483977</ele>
        <time>2020-09-12T09:25:08.000Z</time>
      </trkpt>
      <trkpt lat="43.58494" lon="3.77973">
        <ele>44.167960958733</ele>
        <time>2020-09-12T09:25:09.000Z</time>
      </trkpt>
      <trkpt lat="43.58494" lon="3.77966">
        <ele>44.070873519766</ele>
        <time>2020-09-12T09:25:10.000Z</time>
      </trkpt>
      <trkpt lat="43.58495" lon="3.7796">
        <ele>44</ele>
        <time>2020-09-12T09:25:11.000Z</time>
      </trkpt>
      <trkpt lat="43.58496" lon="3.77953">
        <ele>44</ele>
        <time>2020-09-12T09:25:12.000Z</time>
      </trkpt>
      <trkpt lat="43.58497" lon="3.77946">
        <ele>44</ele>
        <time>2020-09-12T09:25:13.000Z</time>
      </trkpt>
      <trkpt lat="43.58498" lon="3.7794">
        <ele>44</ele>
        <time>2020-09-12T09:25:14.000Z</time>
      </trkpt>
      <trkpt lat="43.58499" lon="3.77934">
        <ele>44</ele>
        <time>2020-09-12T09:25:15.000Z</time>
      </trkpt>
      <trkpt lat="43.58501" lon="3.77928">
        <ele>44</ele>
        <time>2020-09-12T09:25:16.000Z</time>
      </trkpt>
      <trkpt lat="43.58502" lon="3.77922">
        <ele>44</ele>
        <time>2020-09-12T09:25:17.000Z</time>
      </trkpt>
      <trkpt lat="43.58503" lon="3.77916">
        <ele>44</ele>
        <time>2020-09-12T09:25:18.000Z</time>
      </trkpt>
      <trkpt lat="43.58504" lon="3.77911">
        <ele>44</ele>
        <time>2020-09-12T09:25:19.000Z</time>
      </trkpt>
      <trkpt lat="43.58505" lon="3.77905">
        <ele>44</ele>
        <time>2020-09-12T09:25:20.000Z</time>
      </trkpt>
      <trkpt lat="43.58505" lon="3.77901">
        <ele>43.944552840467</ele>
        <time>2020-09-12T09:25:21.000Z</time>
      </trkpt>
      <trkpt lat="43.58504" lon="3.77899">
        <ele>43.847276575875</ele>
        <time>2020-09-12T09:25:22.000Z</time>
      </trkpt>
      <trkpt lat="43.58503" lon="3.77895">
        <ele>43.750000311284</ele>
        <time>2020-09-12T09:25:23.000Z</time>
      </trkpt>
      <trkpt lat="43.58501" lon="3.77891">
        <ele>43.652724046693</ele>
        <time>2020-09-12T09:25:24.000Z</time>
      </trkpt>
      <trkpt lat="43.58499" lon="3.77888">
        <ele>43.555447782101</ele>
        <time>2020-09-12T09:25:25.000Z</time>
      </trkpt>
      <trkpt lat="43.58496" lon="3.77884">
        <ele>43.45817151751</ele>
        <time>2020-09-12T09:25:26.000Z</time>
      </trkpt>
      <trkpt lat="43.58493" lon="3.77881">
        <ele>43.360895252918</ele>
        <time>2020-09-12T09:25:27.000Z</time>
      </trkpt>
      <trkpt lat="43.5849" lon="3.77877">
        <ele>43.263618988327</ele>
        <time>2020-09-12T09:25:28.000Z</time>
      </trkpt>
      <trkpt lat="43.58487" lon="3.77874">
        <ele>43.166342723735</ele>
        <time>2020-09-12T09:25:29.000Z</time>
      </trkpt>
      <trkpt lat="43.58484" lon="3.77871">
        <ele>43.069066459144</ele>
        <time>2020-09-12T09:25:30.000Z</time>
      </trkpt>
      <trkpt lat="43.58482" lon="3.77866">
        <ele>42.970164938272</ele>
        <time>2020-09-12T09:25:31.000Z</time>
      </trkpt>
      <trkpt lat="43.5848" lon="3.77862">
        <ele>42.867284279835</ele>
        <time>2020-09-12T09:25:32.000Z</time>
      </trkpt>
      <trkpt lat="43.58479" lon="3.77857">
        <ele>42.764403621399</ele>
        <time>2020-09-12T09:25:33.000Z</time>
      </trkpt>
      <trkpt lat="43.58479" lon="3.77851">
        <ele>42.661522962963</ele>
        <time>2020-09-12T09:25:34.000Z</time>
      </trkpt>
      <trkpt lat="43.5848" lon="3.77847">
        <ele>42.558642304527</ele>
        <time>2020-09-12T09:25:35.000Z</time>
      </trkpt>
      <trkpt lat="43.5848" lon="3.77842">
        <ele>42.455761646091</ele>
        <time>2020-09-12T09:25:36.000Z</time>
      </trkpt>
      <trkpt lat="43.58481" lon="3.77837">
        <ele>42.352880987654</ele>
        <time>2020-09-12T09:25:37.000Z</time>
      </trkpt>
      <trkpt lat="43.58482" lon="3.77831">
        <ele>42.250000329218</ele>
        <time>2020-09-12T09:25:38.000Z</time>
      </trkpt>
      <trkpt lat="43.58481" lon="3.77826">
        <ele>42.147119670782</ele>
        <time>2020-09-12T09:25:39.000Z</time>
      </trkpt>
      <trkpt lat="43.58479" lon="3.7782">
        <ele>42.044239012346</ele>
        <time>2020-09-12T09:25:40.000Z</time>
      </trkpt>
      <trkpt lat="43.58475" lon="3.77815">
        <ele>42</ele>
        <time>2020-09-12T09:25:41.000Z</time>
      </trkpt>
      <trkpt lat="43.58472" lon="3.77809">
        <ele>42</ele>
        <time>2020-09-12T09:25:42.000Z</time>
      </trkpt>
      <trkpt lat="43.58469" lon="3.77802">
        <ele>42</ele>
        <time>2020-09-12T09:25:43.000Z</time>
      </trkpt>
      <trkpt lat="43.58467" lon="3.77794">
        <ele>42</ele>
        <time>2020-09-12T09:25:44.000Z</time>
      </trkpt>
      <trkpt lat="43.58466" lon="3.77787">
        <ele>42</ele>
        <time>2020-09-12T09:25:45.000Z</time>
      </trkpt>
      <trkpt lat="43.58464" lon="3.7778">
        <ele>42</ele>
        <time>2020-09-12T09:25:46.000Z</time>
      </trkpt>
      <trkpt lat="43.58462" lon="3.77772">
        <ele>42</ele>
        <time>2020-09-12T09:25:47.000Z</time>
      </trkpt>
      <trkpt lat="43.58461" lon="3.77765">
        <ele>42</ele>
        <time>2020-09-12T09:25:48.000Z</time>
      </trkpt>
      <trkpt lat="43.58459" lon="3.77758">
        <ele>42</ele>
        <time>2020-09-12T09:25:49.000Z</time>
      </trkpt>
      <trkpt lat="43.58458" lon="3.77751">
        <ele>42</ele>
        <time>2020-09-12T09:25:50.000Z</time>
      </trkpt>
      <trkpt lat="43.58456" lon="3.77744">
        <ele>42</ele>
        <time>2020-09-12T09:25:51.000Z</time>
      </trkpt>
      <trkpt lat="43.58454" lon="3.77737">
        <ele>42</ele>
        <time>2020-09-12T09:25:52.000Z</time>
      </trkpt>
      <trkpt lat="43.58452" lon="3.7773">
        <ele>42</ele>
        <time>2020-09-12T09:25:53.000Z</time>
      </trkpt>
      <trkpt lat="43.5845" lon="3.77723">
        <ele>42</ele>
        <time>2020-09-12T09:25:54.000Z</time>
      </trkpt>
      <trkpt lat="43.58447" lon="3.77716">
        <ele>42</ele>
        <time>2020-09-12T09:25:55.000Z</time>
      </trkpt>
      <trkpt lat="43.58444" lon="3.7771">
        <ele>42</ele>
        <time>2020-09-12T09:25:56.000Z</time>
      </trkpt>
      <trkpt lat="43.58442" lon="3.77703">
        <ele>42</ele>
        <time>2020-09-12T09:25:57.000Z</time>
      </trkpt>
      <trkpt lat="43.58439" lon="3.77696">
        <ele>42</ele>
        <time>2020-09-12T09:25:58.000Z</time>
      </trkpt>
      <trkpt lat="43.58436" lon="3.77689">
        <ele>42</ele>
        <time>2020-09-12T09:25:59.000Z</time>
      </trkpt>
      <trkpt lat="43.58434" lon="3.77682">
        <ele>42</ele>
        <time>2020-09-12T09:26:00.000Z</time>
      </trkpt>
      <trkpt lat="43.58431" lon="3.77675">
        <ele>42</ele>
        <time>2020-09-12T09:26:01.000Z</time>
      </trkpt>
      <trkpt lat="43.58428" lon="3.77669">
        <ele>42</ele>
        <time>2020-09-12T09:26:02.000Z</time>
      </trkpt>
      <trkpt lat="43.58425" lon="3.77662">
        <ele>42</ele>
        <time>2020-09-12T09:26:03.000Z</time>
      </trkpt>
      <trkpt lat="43.58422" lon="3.77655">
        <ele>42</ele>
        <time>2020-09-12T09:26:04.000Z</time>
      </trkpt>
      <trkpt lat="43.58418" lon="3.77649">
        <ele>42</ele>
        <time>2020-09-12T09:26:05.000Z</time>
      </trkpt>
      <trkpt lat="43.58415" lon="3.77642">
        <ele>42</ele>
        <time>2020-09-12T09:26:06.000Z</time>
      </trkpt>
      <trkpt lat="43.58412" lon="3.77635">
        <ele>42</ele>
        <time>2020-09-12T09:26:07.000Z</time>
      </trkpt>
      <trkpt lat="43.58409" lon="3.77629">
        <ele>42</ele>
        <time>2020-09-12T09:26:08.000Z</time>
      </trkpt>
      <trkpt lat="43.58406" lon="3.77622">
        <ele>42</ele>
        <time>2020-09-12T09:26:09.000Z</time>
      </trkpt>
      <trkpt lat="43.58403" lon="3.77616">
        <ele>42</ele>
        <time>2020-09-12T09:26:10.000Z</time>
      </trkpt>
      <trkpt lat="43.58399" lon="3.77609">
        <ele>41.945838137079</ele>
        <time>2020-09-12T09:26:11.000Z</time>
      </trkpt>
      <trkpt lat="43.58396" lon="3.77603">
        <ele>41.845537202178</ele>
        <time>2020-09-12T09:26:12.000Z</time>
      </trkpt>
      <trkpt lat="43.58393" lon="3.77596">
        <ele>41.745236267277</ele>
        <time>2020-09-12T09:26:13.000Z</time>
      </trkpt>
      <trkpt lat="43.58389" lon="3.77589">
        <ele>41.644935332376</ele>
        <time>2020-09-12T09:26:14.000Z</time>
      </trkpt>
      <trkpt lat="43.58386" lon="3.77583">
        <ele>41.544634397475</ele>
        <time>2020-09-12T09:26:15.000Z</time>
      </trkpt>
      <trkpt lat="43.58382" lon="3.77576">
        <ele>41.444333462574</ele>
        <time>2020-09-12T09:26:16.000Z</time>
      </trkpt>
      <trkpt lat="43.58379" lon="3.77569">
        <ele>41.344032527673</ele>
        <time>2020-09-12T09:26:17.000Z</time>
      </trkpt>
      <trkpt lat="43.58375" lon="3.77563">
        <ele>41.243731592772</ele>
        <time>2020-09-12T09:26:18.000Z</time>
      </trkpt>
      <trkpt lat="43.58372" lon="3.77556">
        <ele>41.143430657871</ele>
        <time>2020-09-12T09:26:19.000Z</time>
      </trkpt>
      <trkpt lat="43.58369" lon="3.77549">
        <ele>41.04312972297</ele>
        <time>2020-09-12T09:26:20.000Z</time>
      </trkpt>
      <trkpt lat="43.58365" lon="3.77543">
        <ele>41</ele>
        <time>2020-09-12T09:26:21.000Z</time>
      </trkpt>
      <trkpt lat="43.58362" lon="3.77536">
        <ele>41</ele>
        <time>2020-09-12T09:26:22.000Z</time>
      </trkpt>
      <trkpt lat="43.58358" lon="3.7753">
        <ele>41</ele>
        <time>2020-09-12T09:26:23.000Z</time>
      </trkpt>
      <trkpt lat="43.58355" lon="3.77523">
        <ele>41</ele>
        <time>2020-09-12T09:26:24.000Z</time>
      </trkpt>
      <trkpt lat="43.58352" lon="3.77516">
        <ele>41</ele>
        <time>2020-09-12T09:26:25.000Z</time>
      </trkpt>
      <trkpt lat="43.58349" lon="3.7751">
        <ele>41</ele>
        <time>2020-09-12T09:26:26.000Z</time>
      </trkpt>
      <trkpt lat="43.58346" lon="3.77503">
        <ele>41</ele>
        <time>2020-09-12T09:26:27.000Z</time>
      </trkpt>
      <trkpt lat="43.58342" lon="3.77497">
        <ele>41</ele>
        <time>2020-09-12T09:26:28.000Z</time>
      </trkpt>
      <trkpt lat="43.58339" lon="3.7749">
        <ele>41</ele>
        <time>2020-09-12T09:26:29.000Z</time>
      </trkpt>
      <trkpt lat="43.58336" lon="3.77484">
        <ele>41</ele>
        <time>2020-09-12T09:26:30.000Z</time>
      </trkpt>
      <trkpt lat="43.58333" lon="3.77477">
        <ele>41</ele>
        <time>2020-09-12T09:26:31.000Z</time>
      </trkpt>
      <trkpt lat="43.5833" lon="3.77471">
        <ele>41</ele>
        <time>2020-09-12T09:26:32.000Z</time>
      </trkpt>
      <trkpt lat="43.58326" lon="3.77465">
        <ele>41</ele>
        <time>2020-09-12T09:26:33.000Z</time>
      </trkpt>
      <trkpt lat="43.58323" lon="3.77458">
        <ele>41</ele>
        <time>2020-09-12T09:26:34.000Z</time>
      </trkpt>
      <trkpt lat="43.5832" lon="3.77452">
        <ele>41</ele>
        <time>2020-09-12T09:26:35.000Z</time>
      </trkpt>
      <trkpt lat="43.58317" lon="3.77446">
        <ele>41</ele>
        <time>2020-09-12T09:26:36.000Z</time>
      </trkpt>
      <trkpt lat="43.58314" lon="3.7744">
        <ele>41</ele>
        <time>2020-09-12T09:26:37.000Z</time>
      </trkpt>
      <trkpt lat="43.58311" lon="3.77433">
        <ele>41</ele>
        <time>2020-09-12T09:26:38.000Z</time>
      </trkpt>
      <trkpt lat="43.58308" lon="3.77427">
        <ele>41</ele>
        <time>2020-09-12T09:26:39.000Z</time>
      </trkpt>
      <trkpt lat="43.58305" lon="3.77421">
        <ele>41</ele>
        <time>2020-09-12T09:26:40.000Z</time>
      </trkpt>
      <trkpt lat="43.58302" lon="3.77415">
        <ele>40.94300032</ele>
        <time>2020-09-12T09:26:41.000Z</time>
      </trkpt>
      <trkpt lat="43.58298" lon="3.77409">
        <ele>40.84300032</ele>
        <time>2020-09-12T09:26:42.000Z</time>
      </trkpt>
      <trkpt lat="43.58295" lon="3.77402">
        <ele>40.74300032</ele>
        <time>2020-09-12T09:26:43.000Z</time>
      </trkpt>
      <trkpt lat="43.58292" lon="3.77396">
        <ele>40.64300032</ele>
        <time>2020-09-12T09:26:44.000Z</time>
      </trkpt>
      <trkpt lat="43.58289" lon="3.77389">
        <ele>40.54300032</ele>
        <time>2020-09-12T09:26:45.000Z</time>
      </trkpt>
      <trkpt lat="43.58285" lon="3.77383">
        <ele>40.44300032</ele>
        <time>2020-09-12T09:26:46.000Z</time>
      </trkpt>
      <trkpt lat="43.58282" lon="3.77376">
        <ele>40.34300032</ele>
        <time>2020-09-12T09:26:47.000Z</time>
      </trkpt>
      <trkpt lat="43.58279" lon="3.7737">
        <ele>40.24300032</ele>
        <time>2020-09-12T09:26:48.000Z</time>
      </trkpt>
      <trkpt lat="43.58276" lon="3.77363">
        <ele>40.14300032</ele>
        <time>2020-09-12T09:26:49.000Z</time>
      </trkpt>
      <trkpt lat="43.58273" lon="3.77357">
        <ele>40.04300032</ele>
        <time>2020-09-12T09:26:50.000Z</time>
      </trkpt>
      <trkpt lat="43.5827" lon="3.7735">
        <ele>40</ele>
        <time>2020-09-12T09:26:51.000Z</time>
      </trkpt>
      <trkpt lat="43.58267" lon="3.77344">
        <ele>40</ele>
        <time>2020-09-12T09:26:52.000Z</time>
      </trkpt>
      <trkpt lat="43.58264" lon="3.77338">
        <ele>40</ele>
        <time>2020-09-12T09:26:53.000Z</time>
      </trkpt>
      <trkpt lat="43.58261" lon="3.77332">
        <ele>40</ele>
        <time>2020-09-12T09:26:54.000Z</time>
      </trkpt>
      <trkpt lat="43.58257" lon="3.77325">
        <ele>40</ele>
        <time>2020-09-12T09:26:55.000Z</time>
      </trkpt>
      <trkpt lat="43.58254" lon="3.77319">
        <ele>40</ele>
        <time>2020-09-12T09:26:56.000Z</time>
      </trkpt>
      <trkpt lat="43.58251" lon="3.77313">
        <ele>40</ele>
        <time>2020-09-12T09:26:57.000Z</time>
      </trkpt>
      <trkpt lat="43.58248" lon="3.77307">
        <ele>40</ele>
        <time>2020-09-12T09:26:58.000Z</time>
      </trkpt>
      <trkpt lat="43.58245" lon="3.77301">
        <ele>40</ele>
        <time>2020-09-12T09:26:59.000Z</time>
      </trkpt>
      <trkpt lat="43.58242" lon="3.77295">
        <ele>40</ele>
        <time>2020-09-12T09:27:00.000Z</time>
      </trkpt>
      <trkpt lat="43.58239" lon="3.77288">
        <ele>40</ele>
        <time>2020-09-12T09:27:01.000Z</time>
      </trkpt>
      <trkpt lat="43.58235" lon="3.77282">
        <ele>40</ele>
        <time>2020-09-12T09:27:02.000Z</time>
      </trkpt>
      <trkpt lat="43.58232" lon="3.77277">
        <ele>40</ele>
        <time>2020-09-12T09:27:03.000Z</time>
      </trkpt>
      <trkpt lat="43.58229" lon="3.77271">
        <ele>40</ele>
        <time>2020-09-12T09:27:04.000Z</time>
      </trkpt>
      <trkpt lat="43.58226" lon="3.77264">
        <ele>40</ele>
        <time>2020-09-12T09:27:05.000Z</time>
      </trkpt>
      <trkpt lat="43.58223" lon="3.77258">
        <ele>40</ele>
        <time>2020-09-12T09:27:06.000Z</time>
      </trkpt>
      <trkpt lat="43.5822" lon="3.77252">
        <ele>40</ele>
        <time>2020-09-12T09:27:07.000Z</time>
      </trkpt>
      <trkpt lat="43.58217" lon="3.77246">
        <ele>40</ele>
        <time>2020-09-12T09:27:08.000Z</time>
      </trkpt>
      <trkpt lat="43.58214" lon="3.7724">
        <ele>40</ele>
        <time>2020-09-12T09:27:09.000Z</time>
      </trkpt>
      <trkpt lat="43.58211" lon="3.77234">
        <ele>40</ele>
        <time>2020-09-12T09:27:10.000Z</time>
      </trkpt>
      <trkpt lat="43.58208" lon="3.77227">
        <ele>40</ele>
        <time>2020-09-12T09:27:11.000Z</time>
      </trkpt>
      <trkpt lat="43.58205" lon="3.77221">
        <ele>40</ele>
        <time>2020-09-12T09:27:12.000Z</time>
      </trkpt>
      <trkpt lat="43.58202" lon="3.77215">
        <ele>40</ele>
        <time>2020-09-12T09:27:13.000Z</time>
      </trkpt>
      <trkpt lat="43.58198" lon="3.77209">
        <ele>40</ele>
        <time>2020-09-12T09:27:14.000Z</time>
      </trkpt>
      <trkpt lat="43.58195" lon="3.77203">
        <ele>40</ele>
        <time>2020-09-12T09:27:15.000Z</time>
      </trkpt>
      <trkpt lat="43.58192" lon="3.77197">
        <ele>40</ele>
        <time>2020-09-12T09:27:16.000Z</time>
      </trkpt>
      <trkpt lat="43.58189" lon="3.77191">
        <ele>40</ele>
        <time>2020-09-12T09:27:17.000Z</time>
      </trkpt>
      <trkpt lat="43.58186" lon="3.77185">
        <ele>40</ele>
        <time>2020-09-12T09:27:18.000Z</time>
      </trkpt>
      <trkpt lat="43.58183" lon="3.77179">
        <ele>40</ele>
        <time>2020-09-12T09:27:19.000Z</time>
      </trkpt>
      <trkpt lat="43.5818" lon="3.77172">
        <ele>40</ele>
        <time>2020-09-12T09:27:20.000Z</time>
      </trkpt>
      <trkpt lat="43.58177" lon="3.77166">
        <ele>40</ele>
        <time>2020-09-12T09:27:21.000Z</time>
      </trkpt>
      <trkpt lat="43.58173" lon="3.77159">
        <ele>40</ele>
        <time>2020-09-12T09:27:22.000Z</time>
      </trkpt>
      <trkpt lat="43.5817" lon="3.77153">
        <ele>40</ele>
        <time>2020-09-12T09:27:23.000Z</time>
      </trkpt>
      <trkpt lat="43.58167" lon="3.77146">
        <ele>40</ele>
        <time>2020-09-12T09:27:24.000Z</time>
      </trkpt>
      <trkpt lat="43.58163" lon="3.7714">
        <ele>40</ele>
        <time>2020-09-12T09:27:25.000Z</time>
      </trkpt>
      <trkpt lat="43.5816" lon="3.77134">
        <ele>40</ele>
        <time>2020-09-12T09:27:26.000Z</time>
      </trkpt>
      <trkpt lat="43.58157" lon="3.77127">
        <ele>40</ele>
        <time>2020-09-12T09:27:27.000Z</time>
      </trkpt>
      <trkpt lat="43.58154" lon="3.77121">
        <ele>40</ele>
        <time>2020-09-12T09:27:28.000Z</time>
      </trkpt>
      <trkpt lat="43.5815" lon="3.77114">
        <ele>40</ele>
        <time>2020-09-12T09:27:29.000Z</time>
      </trkpt>
      <trkpt lat="43.58147" lon="3.77108">
        <ele>40</ele>
        <time>2020-09-12T09:27:30.000Z</time>
      </trkpt>
      <trkpt lat="43.58144" lon="3.77102">
        <ele>40</ele>
        <time>2020-09-12T09:27:31.000Z</time>
      </trkpt>
      <trkpt lat="43.5814" lon="3.77096">
        <ele>40</ele>
        <time>2020-09-12T09:27:32.000Z</time>
      </trkpt>
      <trkpt lat="43.58137" lon="3.77089">
        <ele>40</ele>
        <time>2020-09-12T09:27:33.000Z</time>
      </trkpt>
      <trkpt lat="43.58134" lon="3.77083">
        <ele>40</ele>
        <time>2020-09-12T09:27:34.000Z</time>
      </trkpt>
      <trkpt lat="43.58131" lon="3.77077">
        <ele>40</ele>
        <time>2020-09-12T09:27:35.000Z</time>
      </trkpt>
      <trkpt lat="43.58128" lon="3.77071">
        <ele>40</ele>
        <time>2020-09-12T09:27:36.000Z</time>
      </trkpt>
      <trkpt lat="43.58126" lon="3.77064">
        <ele>40</ele>
        <time>2020-09-12T09:27:37.000Z</time>
      </trkpt>
      <trkpt lat="43.58123" lon="3.77059">
        <ele>40</ele>
        <time>2020-09-12T09:27:38.000Z</time>
      </trkpt>
      <trkpt lat="43.5812" lon="3.77053">
        <ele>40</ele>
        <time>2020-09-12T09:27:39.000Z</time>
      </trkpt>
      <trkpt lat="43.58117" lon="3.77047">
        <ele>40</ele>
        <time>2020-09-12T09:27:40.000Z</time>
      </trkpt>
      <trkpt lat="43.58114" lon="3.77041">
        <ele>40</ele>
        <time>2020-09-12T09:27:41.000Z</time>
      </trkpt>
      <trkpt lat="43.58111" lon="3.77035">
        <ele>40</ele>
        <time>2020-09-12T09:27:42.000Z</time>
      </trkpt>
      <trkpt lat="43.58107" lon="3.77029">
        <ele>40</ele>
        <time>2020-09-12T09:27:43.000Z</time>
      </trkpt>
      <trkpt lat="43.58104" lon="3.77022">
        <ele>40</ele>
        <time>2020-09-12T09:27:44.000Z</time>
      </trkpt>
      <trkpt lat="43.58101" lon="3.77016">
        <ele>40</ele>
        <time>2020-09-12T09:27:45.000Z</time>
      </trkpt>
      <trkpt lat="43.58098" lon="3.7701">
        <ele>40</ele>
        <time>2020-09-12T09:27:46.000Z</time>
      </trkpt>
      <trkpt lat="43.58095" lon="3.77003">
        <ele>40</ele>
        <time>2020-09-12T09:27:47.000Z</time>
      </trkpt>
      <trkpt lat="43.58092" lon="3.76997">
        <ele>40</ele>
        <time>2020-09-12T09:27:48.000Z</time>
      </trkpt>
      <trkpt lat="43.58089" lon="3.76991">
        <ele>40</ele>
        <time>2020-09-12T09:27:49.000Z</time>
      </trkpt>
      <trkpt lat="43.58086" lon="3.76985">
        <ele>40</ele>
        <time>2020-09-12T09:27:50.000Z</time>
      </trkpt>
      <trkpt lat="43.58082" lon="3.76979">
        <ele>40</ele>
        <time>2020-09-12T09:27:51.000Z</time>
      </trkpt>
      <trkpt lat="43.58079" lon="3.76972">
        <ele>40</ele>
        <time>2020-09-12T09:27:52.000Z</time>
      </trkpt>
      <trkpt lat="43.58076" lon="3.76966">
        <ele>40</ele>
        <time>2020-09-12T09:27:53.000Z</time>
      </trkpt>
      <trkpt lat="43.58073" lon="3.7696">
        <ele>40</ele>
        <time>2020-09-12T09:27:54.000Z</time>
      </trkpt>
      <trkpt lat="43.5807" lon="3.76954">
        <ele>40</ele>
        <time>2020-09-12T09:27:55.000Z</time>
      </trkpt>
      <trkpt lat="43.58067" lon="3.76947">
        <ele>40</ele>
        <time>2020-09-12T09:27:56.000Z</time>
      </trkpt>
      <trkpt lat="43.58064" lon="3.76941">
        <ele>40</ele>
        <time>2020-09-12T09:27:57.000Z</time>
      </trkpt>
      <trkpt lat="43.58061" lon="3.76935">
        <ele>40</ele>
        <time>2020-09-12T09:27:58.000Z</time>
      </trkpt>
      <trkpt lat="43.58058" lon="3.76929">
        <ele>40</ele>
        <time>2020-09-12T09:27:59.000Z</time>
      </trkpt>
      <trkpt lat="43.58055" lon="3.76922">
        <ele>40</ele>
        <time>2020-09-12T09:28:00.000Z</time>
      </trkpt>
      <trkpt lat="43.58052" lon="3.76916">
        <ele>40</ele>
        <time>2020-09-12T09:28:01.000Z</time>
      </trkpt>
      <trkpt lat="43.58048" lon="3.7691">
        <ele>40</ele>
        <time>2020-09-12T09:28:02.000Z</time>
      </trkpt>
      <trkpt lat="43.58045" lon="3.76904">
        <ele>40</ele>
        <time>2020-09-12T09:28:03.000Z</time>
      </trkpt>
      <trkpt lat="43.58042" lon="3.76897">
        <ele>40</ele>
        <time>2020-09-12T09:28:04.000Z</time>
      </trkpt>
      <trkpt lat="43.58039" lon="3.76891">
        <ele>40</ele>
        <time>2020-09-12T09:28:05.000Z</time>
      </trkpt>
      <trkpt lat="43.58036" lon="3.76885">
        <ele>40</ele>
        <time>2020-09-12T09:28:06.000Z</time>
      </trkpt>
      <trkpt lat="43.58033" lon="3.76879">
        <ele>40</ele>
        <time>2020-09-12T09:28:07.000Z</time>
      </trkpt>
      <trkpt lat="43.5803" lon="3.76873">
        <ele>40</ele>
        <time>2020-09-12T09:28:08.000Z</time>
      </trkpt>
      <trkpt lat="43.58027" lon="3.76867">
        <ele>40</ele>
        <time>2020-09-12T09:28:09.000Z</time>
      </trkpt>
      <trkpt lat="43.58025" lon="3.76861">
        <ele>40</ele>
        <time>2020-09-12T09:28:10.000Z</time>
      </trkpt>
      <trkpt lat="43.58022" lon="3.76855">
        <ele>40</ele>
        <time>2020-09-12T09:28:11.000Z</time>
      </trkpt>
      <trkpt lat="43.5802" lon="3.76849">
        <ele>40</ele>
        <time>2020-09-12T09:28:12.000Z</time>
      </trkpt>
      <trkpt lat="43.58019" lon="3.76842">
        <ele>40</ele>
        <time>2020-09-12T09:28:13.000Z</time>
      </trkpt>
      <trkpt lat="43.58018" lon="3.76835">
        <ele>40</ele>
        <time>2020-09-12T09:28:14.000Z</time>
      </trkpt>
      <trkpt lat="43.58017" lon="3.76828">
        <ele>40</ele>
        <time>2020-09-12T09:28:15.000Z</time>
      </trkpt>
      <trkpt lat="43.58017" lon="3.76822">
        <ele>40</ele>
        <time>2020-09-12T09:28:16.000Z</time>
      </trkpt>
      <trkpt lat="43.58018" lon="3.76816">
        <ele>40</ele>
        <time>2020-09-12T09:28:17.000Z</time>
      </trkpt>
      <trkpt lat="43.58018" lon="3.76809">
        <ele>40</ele>
        <time>2020-09-12T09:28:18.000Z</time>
      </trkpt>
      <trkpt lat="43.58018" lon="3.76803">
        <ele>40</ele>
        <time>2020-09-12T09:28:19.000Z</time>
      </trkpt>
      <trkpt lat="43.58019" lon="3.76797">
        <ele>40</ele>
        <time>2020-09-12T09:28:20.000Z</time>
      </trkpt>
      <trkpt lat="43.58019" lon="3.76791">
        <ele>40</ele>
        <time>2020-09-12T09:28:21.000Z</time>
      </trkpt>
      <trkpt lat="43.58018" lon="3.76785">
        <ele>40</ele>
        <time>2020-09-12T09:28:22.000Z</time>
      </trkpt>
      <trkpt lat="43.58017" lon="3.7678">
        <ele>40</ele>
        <time>2020-09-12T09:28:23.000Z</time>
      </trkpt>
      <trkpt lat="43.58015" lon="3.76774">
        <ele>40</ele>
        <time>2020-09-12T09:28:24.000Z</time>
      </trkpt>
      <trkpt lat="43.58012" lon="3.76769">
        <ele>40</ele>
        <time>2020-09-12T09:28:25.000Z</time>
      </trkpt>
      <trkpt lat="43.5801" lon="3.76765">
        <ele>40</ele>
        <time>2020-09-12T09:28:26.000Z</time>
      </trkpt>
      <trkpt lat="43.58007" lon="3.7676">
        <ele>40</ele>
        <time>2020-09-12T09:28:27.000Z</time>
      </trkpt>
      <trkpt lat="43.58005" lon="3.76755">
        <ele>40</ele>
        <time>2020-09-12T09:28:28.000Z</time>
      </trkpt>
      <trkpt lat="43.58001" lon="3.76751">
        <ele>40</ele>
        <time>2020-09-12T09:28:29.000Z</time>
      </trkpt>
      <trkpt lat="43.57997" lon="3.76748">
        <ele>40</ele>
        <time>2020-09-12T09:28:30.000Z</time>
      </trkpt>
      <trkpt lat="43.57992" lon="3.76746">
        <ele>40</ele>
        <time>2020-09-12T09:28:31.000Z</time>
      </trkpt>
      <trkpt lat="43.57987" lon="3.76744">
        <ele>40</ele>
        <time>2020-09-12T09:28:32.000Z</time>
      </trkpt>
      <trkpt lat="43.57983" lon="3.76743">
        <ele>40</ele>
        <time>2020-09-12T09:28:33.000Z</time>
      </trkpt>
      <trkpt lat="43.57978" lon="3.7674">
        <ele>40</ele>
        <time>2020-09-12T09:28:34.000Z</time>
      </trkpt>
      <trkpt lat="43.57973" lon="3.76738">
        <ele>40</ele>
        <time>2020-09-12T09:28:35.000Z</time>
      </trkpt>
      <trkpt lat="43.57969" lon="3.76735">
        <ele>40</ele>
        <time>2020-09-12T09:28:36.000Z</time>
      </trkpt>
      <trkpt lat="43.57964" lon="3.76732">
        <ele>40</ele>
        <time>2020-09-12T09:28:37.000Z</time>
      </trkpt>
      <trkpt lat="43.57959" lon="3.76728">
        <ele>40</ele>
        <time>2020-09-12T09:28:38.000Z</time>
      </trkpt>
      <trkpt lat="43.57955" lon="3.76723">
        <ele>40</ele>
        <time>2020-09-12T09:28:39.000Z</time>
      </trkpt>
      <trkpt lat="43.57952" lon="3.76717">
        <ele>40</ele>
        <time>2020-09-12T09:28:40.000Z</time>
      </trkpt>
      <trkpt lat="43.57948" lon="3.76711">
        <ele>40</ele>
        <time>2020-09-12T09:28:41.000Z</time>
      </trkpt>
      <trkpt lat="43.57945" lon="3.76705">
        <ele>40</ele>
        <time>2020-09-12T09:28:42.000Z</time>
      </trkpt>
      <trkpt lat="43.57942" lon="3.76699">
        <ele>40</ele>
        <time>2020-09-12T09:28:43.000Z</time>
      </trkpt>
      <trkpt lat="43.57939" lon="3.76693">
        <ele>40</ele>
        <time>2020-09-12T09:28:44.000Z</time>
      </trkpt>
      <trkpt lat="43.57936" lon="3.76687">
        <ele>40</ele>
        <time>2020-09-12T09:28:45.000Z</time>
      </trkpt>
      <trkpt lat="43.57933" lon="3.76681">
        <ele>40</ele>
        <time>2020-09-12T09:28:46.000Z</time>
      </trkpt>
      <trkpt lat="43.5793" lon="3.76675">
        <ele>40</ele>
        <time>2020-09-12T09:28:47.000Z</time>
      </trkpt>
      <trkpt lat="43.57927" lon="3.76669">
        <ele>40</ele>
        <time>2020-09-12T09:28:48.000Z</time>
      </trkpt>
      <trkpt lat="43.57924" lon="3.76663">
        <ele>40</ele>
        <time>2020-09-12T09:28:49.000Z</time>
      </trkpt>
      <trkpt lat="43.57921" lon="3.76657">
        <ele>40</ele>
        <time>2020-09-12T09:28:50.000Z</time>
      </trkpt>
      <trkpt lat="43.57918" lon="3.76651">
        <ele>40</ele>
        <time>2020-09-12T09:28:51.000Z</time>
      </trkpt>
      <trkpt lat="43.57915" lon="3.76644">
        <ele>40</ele>
        <time>2020-09-12T09:28:52.000Z</time>
      </trkpt>
      <trkpt lat="43.57912" lon="3.76638">
        <ele>40</ele>
        <time>2020-09-12T09:28:53.000Z</time>
      </trkpt>
      <trkpt lat="43.57909" lon="3.76632">
        <ele>40</ele>
        <time>2020-09-12T09:28:54.000Z</time>
      </trkpt>
      <trkpt lat="43.57906" lon="3.76625">
        <ele>40</ele>
        <time>2020-09-12T09:28:55.000Z</time>
      </trkpt>
      <trkpt lat="43.57903" lon="3.76619">
        <ele>40</ele>
        <time>2020-09-12T09:28:56.000Z</time>
      </trkpt>
      <trkpt lat="43.579" lon="3.76613">
        <ele>40</ele>
        <time>2020-09-12T09:28:57.000Z</time>
      </trkpt>
      <trkpt lat="43.57897" lon="3.76606">
        <ele>40</ele>
        <time>2020-09-12T09:28:58.000Z</time>
      </trkpt>
      <trkpt lat="43.57894" lon="3.766">
        <ele>40</ele>
        <time>2020-09-12T09:28:59.000Z</time>
      </trkpt>
      <trkpt lat="43.57891" lon="3.76593">
        <ele>40</ele>
        <time>2020-09-12T09:29:00.000Z</time>
      </trkpt>
      <trkpt lat="43.57888" lon="3.76587">
        <ele>40</ele>
        <time>2020-09-12T09:29:01.000Z</time>
      </trkpt>
      <trkpt lat="43.57885" lon="3.76581">
        <ele>40</ele>
        <time>2020-09-12T09:29:02.000Z</time>
      </trkpt>
      <trkpt lat="43.57882" lon="3.76574">
        <ele>40</ele>
        <time>2020-09-12T09:29:03.000Z</time>
      </trkpt>
      <trkpt lat="43.57879" lon="3.76568">
        <ele>40</ele>
        <time>2020-09-12T09:29:04.000Z</time>
      </trkpt>
      <trkpt lat="43.57877" lon="3.76561">
        <ele>40</ele>
        <time>2020-09-12T09:29:05.000Z</time>
      </trkpt>
      <trkpt lat="43.57874" lon="3.76554">
        <ele>40</ele>
        <time>2020-09-12T09:29:06.000Z</time>
      </trkpt>
      <trkpt lat="43.57871" lon="3.76547">
        <ele>40</ele>
        <time>2020-09-12T09:29:07.000Z</time>
      </trkpt>
      <trkpt lat="43.57869" lon="3.76541">
        <ele>40</ele>
        <time>2020-09-12T09:29:08.000Z</time>
      </trkpt>
      <trkpt lat="43.57866" lon="3.76534">
        <ele>40</ele>
        <time>2020-09-12T09:29:09.000Z</time>
      </trkpt>
      <trkpt lat="43.57864" lon="3.76527">
        <ele>40</ele>
        <time>2020-09-12T09:29:10.000Z</time>
      </trkpt>
      <trkpt lat="43.57862" lon="3.7652">
        <ele>40</ele>
        <time>2020-09-12T09:29:11.000Z</time>
      </trkpt>
      <trkpt lat="43.57859" lon="3.76513">
        <ele>40</ele>
        <time>2020-09-12T09:29:12.000Z</time>
      </trkpt>
      <trkpt lat="43.57857" lon="3.76506">
        <ele>40</ele>
        <time>2020-09-12T09:29:13.000Z</time>
      </trkpt>
      <trkpt lat="43.57854" lon="3.76499">
        <ele>40</ele>
        <time>2020-09-12T09:29:14.000Z</time>
      </trkpt>
      <trkpt lat="43.57852" lon="3.76492">
        <ele>40</ele>
        <time>2020-09-12T09:29:15.000Z</time>
      </trkpt>
      <trkpt lat="43.5785" lon="3.76486">
        <ele>40</ele>
        <time>2020-09-12T09:29:16.000Z</time>
      </trkpt>
      <trkpt lat="43.57847" lon="3.76479">
        <ele>40</ele>
        <time>2020-09-12T09:29:17.000Z</time>
      </trkpt>
      <trkpt lat="43.57845" lon="3.76472">
        <ele>40</ele>
        <time>2020-09-12T09:29:18.000Z</time>
      </trkpt>
      <trkpt lat="43.57843" lon="3.76465">
        <ele>40</ele>
        <time>2020-09-12T09:29:19.000Z</time>
      </trkpt>
      <trkpt lat="43.57841" lon="3.76458">
        <ele>40</ele>
        <time>2020-09-12T09:29:20.000Z</time>
      </trkpt>
      <trkpt lat="43.57839" lon="3.76451">
        <ele>40.05699968</ele>
        <time>2020-09-12T09:29:21.000Z</time>
      </trkpt>
      <trkpt lat="43.57837" lon="3.76444">
        <ele>40.15699968</ele>
        <time>2020-09-12T09:29:22.000Z</time>
      </trkpt>
      <trkpt lat="43.57835" lon="3.76437">
        <ele>40.25699968</ele>
        <time>2020-09-12T09:29:23.000Z</time>
      </trkpt>
      <trkpt lat="43.57833" lon="3.76429">
        <ele>40.35699968</ele>
        <time>2020-09-12T09:29:24.000Z</time>
      </trkpt>
      <trkpt lat="43.57831" lon="3.76422">
        <ele>40.45699968</ele>
        <time>2020-09-12T09:29:25.000Z</time>
      </trkpt>
      <trkpt lat="43.5783" lon="3.76415">
        <ele>40.55699968</ele>
        <time>2020-09-12T09:29:26.000Z</time>
      </trkpt>
      <trkpt lat="43.57828" lon="3.76408">
        <ele>40.65699968</ele>
        <time>2020-09-12T09:29:27.000Z</time>
      </trkpt>
      <trkpt lat="43.57826" lon="3.76401">
        <ele>40.75699968</ele>
        <time>2020-09-12T09:29:28.000Z</time>
      </trkpt>
      <trkpt lat="43.57824" lon="3.76394">
        <ele>40.85699968</ele>
        <time>2020-09-12T09:29:29.000Z</time>
      </trkpt>
      <trkpt lat="43.57823" lon="3.76386">
        <ele>40.95699968</ele>
        <time>2020-09-12T09:29:30.000Z</time>
      </trkpt>
      <trkpt lat="43.57822" lon="3.76379">
        <ele>41.05699968</ele>
        <time>2020-09-12T09:29:31.000Z</time>
      </trkpt>
      <trkpt lat="43.5782" lon="3.76372">
        <ele>41.15699968</ele>
        <time>2020-09-12T09:29:32.000Z</time>
      </trkpt>
      <trkpt lat="43.57819" lon="3.76364">
        <ele>41.25699968</ele>
        <time>2020-09-12T09:29:33.000Z</time>
      </trkpt>
      <trkpt lat="43.57818" lon="3.76357">
        <ele>41.35699968</ele>
        <time>2020-09-12T09:29:34.000Z</time>
      </trkpt>
      <trkpt lat="43.57817" lon="3.7635">
        <ele>41.45699968</ele>
        <time>2020-09-12T09:29:35.000Z</time>
      </trkpt>
      <trkpt lat="43.57815" lon="3.76342">
        <ele>41.55699968</ele>
        <time>2020-09-12T09:29:36.000Z</time>
      </trkpt>
      <trkpt lat="43.57814" lon="3.76335">
        <ele>41.65699968</ele>
        <time>2020-09-12T09:29:37.000Z</time>
      </trkpt>
      <trkpt lat="43.57813" lon="3.76328">
        <ele>41.75699968</ele>
        <time>2020-09-12T09:29:38.000Z</time>
      </trkpt>
      <trkpt lat="43.57812" lon="3.7632">
        <ele>41.85699968</ele>
        <time>2020-09-12T09:29:39.000Z</time>
      </trkpt>
      <trkpt lat="43.57811" lon="3.76313">
        <ele>41.95699968</ele>
        <time>2020-09-12T09:29:40.000Z</time>
      </trkpt>
      <trkpt lat="43.5781" lon="3.76305">
        <ele>42</ele>
        <time>2020-09-12T09:29:41.000Z</time>
      </trkpt>
      <trkpt lat="43.5781" lon="3.76298">
        <ele>42</ele>
        <time>2020-09-12T09:29:42.000Z</time>
      </trkpt>
      <trkpt lat="43.57809" lon="3.7629">
        <ele>42</ele>
        <time>2020-09-12T09:29:43.000Z</time>
      </trkpt>
      <trkpt lat="43.57808" lon="3.76283">
        <ele>42</ele>
        <time>2020-09-12T09:29:44.000Z</time>
      </trkpt>
      <trkpt lat="43.57807" lon="3.76276">
        <ele>42</ele>
        <time>2020-09-12T09:29:45.000Z</time>
      </trkpt>
      <trkpt lat="43.57807" lon="3.76268">
        <ele>42</ele>
        <time>2020-09-12T09:29:46.000Z</time>
      </trkpt>
      <trkpt lat="43.57806" lon="3.76261">
        <ele>42</ele>
        <time>2020-09-12T09:29:47.000Z</time>
      </trkpt>
      <trkpt lat="43.57806" lon="3.76254">
        <ele>42</ele>
        <time>2020-09-12T09:29:48.000Z</time>
      </trkpt>
      <trkpt lat="43.57805" lon="3.76246">
        <ele>42</ele>
        <time>2020-09-12T09:29:49.000Z</time>
      </trkpt>
      <trkpt lat="43.57805" lon="3.76239">
        <ele>42</ele>
        <time>2020-09-12T09:29:50.000Z</time>
      </trkpt>
      <trkpt lat="43.57805" lon="3.76232">
        <ele>42</ele>
        <time>2020-09-12T09:29:51.000Z</time>
      </trkpt>
      <trkpt lat="43.57805" lon="3.76225">
        <ele>42</ele>
        <time>2020-09-12T09:29:52.000Z</time>
      </trkpt>
      <trkpt lat="43.57804" lon="3.76218">
        <ele>42</ele>
        <time>2020-09-12T09:29:53.000Z</time>
      </trkpt>
      <trkpt lat="43.57804" lon="3.76211">
        <ele>42</ele>
        <time>2020-09-12T09:29:54.000Z</time>
      </trkpt>
      <trkpt lat="43.57804" lon="3.76204">
        <ele>42</ele>
        <time>2020-09-12T09:29:55.000Z</time>
      </trkpt>
      <trkpt lat="43.57805" lon="3.76196">
        <ele>42</ele>
        <time>2020-09-12T09:29:56.000Z</time>
      </trkpt>
      <trkpt lat="43.57805" lon="3.76189">
        <ele>42</ele>
        <time>2020-09-12T09:29:57.000Z</time>
      </trkpt>
      <trkpt lat="43.57805" lon="3.76182">
        <ele>42</ele>
        <time>2020-09-12T09:29:58.000Z</time>
      </trkpt>
      <trkpt lat="43.57806" lon="3.76175">
        <ele>42</ele>
        <time>2020-09-12T09:29:59.000Z</time>
      </trkpt>
      <trkpt lat="43.57807" lon="3.76168">
        <ele>42</ele>
        <time>2020-09-12T09:30:00.000Z</time>
      </trkpt>
      <trkpt lat="43.57808" lon="3.7616">
        <ele>42.055393292251</ele>
        <time>2020-09-12T09:30:01.000Z</time>
      </trkpt>
      <trkpt lat="43.57809" lon="3.76153">
        <ele>42.152575052307</ele>
        <time>2020-09-12T09:30:02.000Z</time>
      </trkpt>
      <trkpt lat="43.57811" lon="3.76147">
        <ele>42.249756812364</ele>
        <time>2020-09-12T09:30:03.000Z</time>
      </trkpt>
      <trkpt lat="43.57812" lon="3.7614">
        <ele>42.34693857242</ele>
        <time>2020-09-12T09:30:04.000Z</time>
      </trkpt>
      <trkpt lat="43.57814" lon="3.76134">
        <ele>42.444120332477</ele>
        <time>2020-09-12T09:30:05.000Z</time>
      </trkpt>
      <trkpt lat="43.57814" lon="3.76127">
        <ele>42.541302092533</ele>
        <time>2020-09-12T09:30:06.000Z</time>
      </trkpt>
      <trkpt lat="43.57812" lon="3.76121">
        <ele>42.63848385259</ele>
        <time>2020-09-12T09:30:07.000Z</time>
      </trkpt>
      <trkpt lat="43.57811" lon="3.76114">
        <ele>42.735665612646</ele>
        <time>2020-09-12T09:30:08.000Z</time>
      </trkpt>
      <trkpt lat="43.5781" lon="3.76107">
        <ele>42.832847372703</ele>
        <time>2020-09-12T09:30:09.000Z</time>
      </trkpt>
      <trkpt lat="43.57809" lon="3.761">
        <ele>42.930029132759</ele>
        <time>2020-09-12T09:30:10.000Z</time>
      </trkpt>
      <trkpt lat="43.57809" lon="3.76093">
        <ele>43.028836241784</ele>
        <time>2020-09-12T09:30:11.000Z</time>
      </trkpt>
      <trkpt lat="43.57809" lon="3.76086">
        <ele>43.131822819585</ele>
        <time>2020-09-12T09:30:12.000Z</time>
      </trkpt>
      <trkpt lat="43.57809" lon="3.76079">
        <ele>43.234809397385</ele>
        <time>2020-09-12T09:30:13.000Z</time>
      </trkpt>
      <trkpt lat="43.5781" lon="3.76073">
        <ele>43.337795975186</ele>
        <time>2020-09-12T09:30:14.000Z</time>
      </trkpt>
      <trkpt lat="43.57811" lon="3.76066">
        <ele>43.440782552986</ele>
        <time>2020-09-12T09:30:15.000Z</time>
      </trkpt>
      <trkpt lat="43.57811" lon="3.7606">
        <ele>43.543769130787</ele>
        <time>2020-09-12T09:30:16.000Z</time>
      </trkpt>
      <trkpt lat="43.57812" lon="3.76054">
        <ele>43.646755708587</ele>
        <time>2020-09-12T09:30:17.000Z</time>
      </trkpt>
      <trkpt lat="43.57813" lon="3.76047">
        <ele>43.749742286388</ele>
        <time>2020-09-12T09:30:18.000Z</time>
      </trkpt>
      <trkpt lat="43.57813" lon="3.76041">
        <ele>43.852728864188</ele>
        <time>2020-09-12T09:30:19.000Z</time>
      </trkpt>
      <trkpt lat="43.57814" lon="3.76034">
        <ele>43.955715441989</ele>
        <time>2020-09-12T09:30:20.000Z</time>
      </trkpt>
      <trkpt lat="43.57815" lon="3.76028">
        <ele>44.05699968</ele>
        <time>2020-09-12T09:30:21.000Z</time>
      </trkpt>
      <trkpt lat="43.57816" lon="3.76021">
        <ele>44.15699968</ele>
        <time>2020-09-12T09:30:22.000Z</time>
      </trkpt>
      <trkpt lat="43.57817" lon="3.76015">
        <ele>44.25699968</ele>
        <time>2020-09-12T09:30:23.000Z</time>
      </trkpt>
      <trkpt lat="43.57818" lon="3.76008">
        <ele>44.35699968</ele>
        <time>2020-09-12T09:30:24.000Z</time>
      </trkpt>
      <trkpt lat="43.57818" lon="3.76002">
        <ele>44.45699968</ele>
        <time>2020-09-12T09:30:25.000Z</time>
      </trkpt>
      <trkpt lat="43.57819" lon="3.75996">
        <ele>44.55699968</ele>
        <time>2020-09-12T09:30:26.000Z</time>
      </trkpt>
      <trkpt lat="43.5782" lon="3.75989">
        <ele>44.65699968</ele>
        <time>2020-09-12T09:30:27.000Z</time>
      </trkpt>
      <trkpt lat="43.57821" lon="3.75983">
        <ele>44.75699968</ele>
        <time>2020-09-12T09:30:28.000Z</time>
      </trkpt>
      <trkpt lat="43.57822" lon="3.75976">
        <ele>44.85699968</ele>
        <time>2020-09-12T09:30:29.000Z</time>
      </trkpt>
      <trkpt lat="43.57822" lon="3.7597">
        <ele>44.95699968</ele>
        <time>2020-09-12T09:30:30.000Z</time>
      </trkpt>
      <trkpt lat="43.57823" lon="3.75963">
        <ele>45.056829174292</ele>
        <time>2020-09-12T09:30:31.000Z</time>
      </trkpt>
      <trkpt lat="43.57824" lon="3.75957">
        <ele>45.156530039791</ele>
        <time>2020-09-12T09:30:32.000Z</time>
      </trkpt>
      <trkpt lat="43.57825" lon="3.7595">
        <ele>45.25623090529</ele>
        <time>2020-09-12T09:30:33.000Z</time>
      </trkpt>
      <trkpt lat="43.57826" lon="3.75944">
        <ele>45.35593177079</ele>
        <time>2020-09-12T09:30:34.000Z</time>
      </trkpt>
      <trkpt lat="43.57827" lon="3.75937">
        <ele>45.455632636289</ele>
        <time>2020-09-12T09:30:35.000Z</time>
      </trkpt>
      <trkpt lat="43.57828" lon="3.75931">
        <ele>45.555333501788</ele>
        <time>2020-09-12T09:30:36.000Z</time>
      </trkpt>
      <trkpt lat="43.57829" lon="3.75925">
        <ele>45.655034367287</ele>
        <time>2020-09-12T09:30:37.000Z</time>
      </trkpt>
      <trkpt lat="43.5783" lon="3.75919">
        <ele>45.754735232786</ele>
        <time>2020-09-12T09:30:38.000Z</time>
      </trkpt>
      <trkpt lat="43.57831" lon="3.75912">
        <ele>45.854436098286</ele>
        <time>2020-09-12T09:30:39.000Z</time>
      </trkpt>
      <trkpt lat="43.57832" lon="3.75906">
        <ele>45.954136963785</ele>
        <time>2020-09-12T09:30:40.000Z</time>
      </trkpt>
      <trkpt lat="43.57832" lon="3.759">
        <ele>46.054161862921</ele>
        <time>2020-09-12T09:30:41.000Z</time>
      </trkpt>
      <trkpt lat="43.57833" lon="3.75894">
        <ele>46.154462797822</ele>
        <time>2020-09-12T09:30:42.000Z</time>
      </trkpt>
      <trkpt lat="43.57834" lon="3.75888">
        <ele>46.254763732723</ele>
        <time>2020-09-12T09:30:43.000Z</time>
      </trkpt>
      <trkpt lat="43.57835" lon="3.75881">
        <ele>46.355064667624</ele>
        <time>2020-09-12T09:30:44.000Z</time>
      </trkpt>
      <trkpt lat="43.57836" lon="3.75875">
        <ele>46.455365602525</ele>
        <time>2020-09-12T09:30:45.000Z</time>
      </trkpt>
      <trkpt lat="43.57836" lon="3.75869">
        <ele>46.555666537426</ele>
        <time>2020-09-12T09:30:46.000Z</time>
      </trkpt>
      <trkpt lat="43.57837" lon="3.75863">
        <ele>46.655967472327</ele>
        <time>2020-09-12T09:30:47.000Z</time>
      </trkpt>
      <trkpt lat="43.57838" lon="3.75857">
        <ele>46.756268407228</ele>
        <time>2020-09-12T09:30:48.000Z</time>
      </trkpt>
      <trkpt lat="43.57839" lon="3.75851">
        <ele>46.856569342129</ele>
        <time>2020-09-12T09:30:49.000Z</time>
      </trkpt>
      <trkpt lat="43.5784" lon="3.75845">
        <ele>46.95687027703</ele>
        <time>2020-09-12T09:30:50.000Z</time>
      </trkpt>
      <trkpt lat="43.5784" lon="3.75839">
        <ele>47.05699968</ele>
        <time>2020-09-12T09:30:51.000Z</time>
      </trkpt>
      <trkpt lat="43.57841" lon="3.75833">
        <ele>47.15699968</ele>
        <time>2020-09-12T09:30:52.000Z</time>
      </trkpt>
      <trkpt lat="43.57842" lon="3.75827">
        <ele>47.25699968</ele>
        <time>2020-09-12T09:30:53.000Z</time>
      </trkpt>
      <trkpt lat="43.57843" lon="3.75821">
        <ele>47.35699968</ele>
        <time>2020-09-12T09:30:54.000Z</time>
      </trkpt>
      <trkpt lat="43.57844" lon="3.75815">
        <ele>47.45699968</ele>
        <time>2020-09-12T09:30:55.000Z</time>
      </trkpt>
      <trkpt lat="43.57844" lon="3.75808">
        <ele>47.55699968</ele>
        <time>2020-09-12T09:30:56.000Z</time>
      </trkpt>
      <trkpt lat="43.57845" lon="3.75802">
        <ele>47.65699968</ele>
        <time>2020-09-12T09:30:57.000Z</time>
      </trkpt>
      <trkpt lat="43.57846" lon="3.75796">
        <ele>47.75699968</ele>
        <time>2020-09-12T09:30:58.000Z</time>
      </trkpt>
      <trkpt lat="43.57846" lon="3.7579">
        <ele>47.85699968</ele>
        <time>2020-09-12T09:30:59.000Z</time>
      </trkpt>
      <trkpt lat="43.57847" lon="3.75784">
        <ele>47.95699968</ele>
        <time>2020-09-12T09:31:00.000Z</time>
      </trkpt>
      <trkpt lat="43.57848" lon="3.75778">
        <ele>48.053672047411</ele>
        <time>2020-09-12T09:31:01.000Z</time>
      </trkpt>
      <trkpt lat="43.57849" lon="3.75772">
        <ele>48.147834062725</ele>
        <time>2020-09-12T09:31:02.000Z</time>
      </trkpt>
      <trkpt lat="43.57849" lon="3.75766">
        <ele>48.241996078039</ele>
        <time>2020-09-12T09:31:03.000Z</time>
      </trkpt>
      <trkpt lat="43.5785" lon="3.7576">
        <ele>48.336158093353</ele>
        <time>2020-09-12T09:31:04.000Z</time>
      </trkpt>
      <trkpt lat="43.57851" lon="3.75753">
        <ele>48.430320108668</ele>
        <time>2020-09-12T09:31:05.000Z</time>
      </trkpt>
      <trkpt lat="43.57852" lon="3.75747">
        <ele>48.524482123982</ele>
        <time>2020-09-12T09:31:06.000Z</time>
      </trkpt>
      <trkpt lat="43.57852" lon="3.7574">
        <ele>48.618644139296</ele>
        <time>2020-09-12T09:31:07.000Z</time>
      </trkpt>
      <trkpt lat="43.57853" lon="3.75734">
        <ele>48.71280615461</ele>
        <time>2020-09-12T09:31:08.000Z</time>
      </trkpt>
      <trkpt lat="43.57853" lon="3.75728">
        <ele>48.806968169924</ele>
        <time>2020-09-12T09:31:09.000Z</time>
      </trkpt>
      <trkpt lat="43.57854" lon="3.75721">
        <ele>48.901130185239</ele>
        <time>2020-09-12T09:31:10.000Z</time>
      </trkpt>
      <trkpt lat="43.57854" lon="3.75715">
        <ele>48.995292200553</ele>
        <time>2020-09-12T09:31:11.000Z</time>
      </trkpt>
      <trkpt lat="43.57855" lon="3.75709">
        <ele>49</ele>
        <time>2020-09-12T09:31:12.000Z</time>
      </trkpt>
      <trkpt lat="43.57855" lon="3.75703">
        <ele>49</ele>
        <time>2020-09-12T09:31:13.000Z</time>
      </trkpt>
      <trkpt lat="43.57855" lon="3.75696">
        <ele>49</ele>
        <time>2020-09-12T09:31:14.000Z</time>
      </trkpt>
      <trkpt lat="43.57855" lon="3.7569">
        <ele>49</ele>
        <time>2020-09-12T09:31:15.000Z</time>
      </trkpt>
      <trkpt lat="43.57856" lon="3.75683">
        <ele>49</ele>
        <time>2020-09-12T09:31:16.000Z</time>
      </trkpt>
      <trkpt lat="43.57857" lon="3.75677">
        <ele>49</ele>
        <time>2020-09-12T09:31:17.000Z</time>
      </trkpt>
      <trkpt lat="43.57858" lon="3.7567">
        <ele>49</ele>
        <time>2020-09-12T09:31:18.000Z</time>
      </trkpt>
      <trkpt lat="43.57859" lon="3.75664">
        <ele>49</ele>
        <time>2020-09-12T09:31:19.000Z</time>
      </trkpt>
      <trkpt lat="43.57861" lon="3.75659">
        <ele>49</ele>
        <time>2020-09-12T09:31:20.000Z</time>
      </trkpt>
      <trkpt lat="43.57863" lon="3.75654">
        <ele>49</ele>
        <time>2020-09-12T09:31:21.000Z</time>
      </trkpt>
      <trkpt lat="43.57864" lon="3.75649">
        <ele>49</ele>
        <time>2020-09-12T09:31:22.000Z</time>
      </trkpt>
      <trkpt lat="43.57865" lon="3.75644">
        <ele>49</ele>
        <time>2020-09-12T09:31:23.000Z</time>
      </trkpt>
      <trkpt lat="43.57867" lon="3.75639">
        <ele>49</ele>
        <time>2020-09-12T09:31:24.000Z</time>
      </trkpt>
      <trkpt lat="43.57868" lon="3.75634">
        <ele>49</ele>
        <time>2020-09-12T09:31:25.000Z</time>
      </trkpt>
      <trkpt lat="43.57868" lon="3.75629">
        <ele>49</ele>
        <time>2020-09-12T09:31:26.000Z</time>
      </trkpt>
      <trkpt lat="43.57868" lon="3.75624">
        <ele>49</ele>
        <time>2020-09-12T09:31:27.000Z</time>
      </trkpt>
      <trkpt lat="43.57867" lon="3.75619">
        <ele>49</ele>
        <time>2020-09-12T09:31:28.000Z</time>
      </trkpt>
      <trkpt lat="43.57867" lon="3.75614">
        <ele>49</ele>
        <time>2020-09-12T09:31:29.000Z</time>
      </trkpt>
      <trkpt lat="43.57866" lon="3.75609">
        <ele>49</ele>
        <time>2020-09-12T09:31:30.000Z</time>
      </trkpt>
      <trkpt lat="43.57865" lon="3.75605">
        <ele>49</ele>
        <time>2020-09-12T09:31:31.000Z</time>
      </trkpt>
      <trkpt lat="43.57862" lon="3.75601">
        <ele>49</ele>
        <time>2020-09-12T09:31:32.000Z</time>
      </trkpt>
      <trkpt lat="43.57859" lon="3.75596">
        <ele>49</ele>
        <time>2020-09-12T09:31:33.000Z</time>
      </trkpt>
      <trkpt lat="43.57856" lon="3.75592">
        <ele>49</ele>
        <time>2020-09-12T09:31:34.000Z</time>
      </trkpt>
      <trkpt lat="43.57852" lon="3.75587">
        <ele>49</ele>
        <time>2020-09-12T09:31:35.000Z</time>
      </trkpt>
      <trkpt lat="43.57848" lon="3.75582">
        <ele>49</ele>
        <time>2020-09-12T09:31:36.000Z</time>
      </trkpt>
      <trkpt lat="43.57845" lon="3.75576">
        <ele>49</ele>
        <time>2020-09-12T09:31:37.000Z</time>
      </trkpt>
      <trkpt lat="43.57843" lon="3.75568">
        <ele>49</ele>
        <time>2020-09-12T09:31:38.000Z</time>
      </trkpt>
      <trkpt lat="43.57842" lon="3.75561">
        <ele>49</ele>
        <time>2020-09-12T09:31:39.000Z</time>
      </trkpt>
      <trkpt lat="43.5784" lon="3.75554">
        <ele>49</ele>
        <time>2020-09-12T09:31:40.000Z</time>
      </trkpt>
      <trkpt lat="43.57839" lon="3.75546">
        <ele>49.05699968</ele>
        <time>2020-09-12T09:31:41.000Z</time>
      </trkpt>
      <trkpt lat="43.57837" lon="3.75539">
        <ele>49.15699968</ele>
        <time>2020-09-12T09:31:42.000Z</time>
      </trkpt>
      <trkpt lat="43.57835" lon="3.75532">
        <ele>49.25699968</ele>
        <time>2020-09-12T09:31:43.000Z</time>
      </trkpt>
      <trkpt lat="43.57834" lon="3.75525">
        <ele>49.35699968</ele>
        <time>2020-09-12T09:31:44.000Z</time>
      </trkpt>
      <trkpt lat="43.57832" lon="3.75518">
        <ele>49.45699968</ele>
        <time>2020-09-12T09:31:45.000Z</time>
      </trkpt>
      <trkpt lat="43.5783" lon="3.75511">
        <ele>49.55699968</ele>
        <time>2020-09-12T09:31:46.000Z</time>
      </trkpt>
      <trkpt lat="43.57828" lon="3.75504">
        <ele>49.65699968</ele>
        <time>2020-09-12T09:31:47.000Z</time>
      </trkpt>
      <trkpt lat="43.57825" lon="3.75497">
        <ele>49.75699968</ele>
        <time>2020-09-12T09:31:48.000Z</time>
      </trkpt>
      <trkpt lat="43.57823" lon="3.7549">
        <ele>49.85699968</ele>
        <time>2020-09-12T09:31:49.000Z</time>
      </trkpt>
      <trkpt lat="43.57821" lon="3.75484">
        <ele>49.95699968</ele>
        <time>2020-09-12T09:31:50.000Z</time>
      </trkpt>
      <trkpt lat="43.57818" lon="3.75477">
        <ele>49.944714128929</ele>
        <time>2020-09-12T09:31:51.000Z</time>
      </trkpt>
      <trkpt lat="43.57815" lon="3.7547">
        <ele>49.84772082814</ele>
        <time>2020-09-12T09:31:52.000Z</time>
      </trkpt>
      <trkpt lat="43.57813" lon="3.75463">
        <ele>49.750727527351</ele>
        <time>2020-09-12T09:31:53.000Z</time>
      </trkpt>
      <trkpt lat="43.5781" lon="3.75456">
        <ele>49.653734226561</ele>
        <time>2020-09-12T09:31:54.000Z</time>
      </trkpt>
      <trkpt lat="43.57808" lon="3.75449">
        <ele>49.556740925772</ele>
        <time>2020-09-12T09:31:55.000Z</time>
      </trkpt>
      <trkpt lat="43.57805" lon="3.75443">
        <ele>49.459747624983</ele>
        <time>2020-09-12T09:31:56.000Z</time>
      </trkpt>
      <trkpt lat="43.57802" lon="3.75436">
        <ele>49.362754324194</ele>
        <time>2020-09-12T09:31:57.000Z</time>
      </trkpt>
      <trkpt lat="43.578" lon="3.75429">
        <ele>49.265761023405</ele>
        <time>2020-09-12T09:31:58.000Z</time>
      </trkpt>
      <trkpt lat="43.57797" lon="3.75423">
        <ele>49.168767722616</ele>
        <time>2020-09-12T09:31:59.000Z</time>
      </trkpt>
      <trkpt lat="43.57794" lon="3.75416">
        <ele>49.071774421827</ele>
        <time>2020-09-12T09:32:00.000Z</time>
      </trkpt>
      <trkpt lat="43.57791" lon="3.7541">
        <ele>49</ele>
        <time>2020-09-12T09:32:01.000Z</time>
      </trkpt>
      <trkpt lat="43.57789" lon="3.75403">
        <ele>49</ele>
        <time>2020-09-12T09:32:02.000Z</time>
      </trkpt>
      <trkpt lat="43.57786" lon="3.75396">
        <ele>49</ele>
        <time>2020-09-12T09:32:03.000Z</time>
      </trkpt>
      <trkpt lat="43.57783" lon="3.7539">
        <ele>49</ele>
        <time>2020-09-12T09:32:04.000Z</time>
      </trkpt>
      <trkpt lat="43.57781" lon="3.75383">
        <ele>49</ele>
        <time>2020-09-12T09:32:05.000Z</time>
      </trkpt>
      <trkpt lat="43.5778" lon="3.75376">
        <ele>49</ele>
        <time>2020-09-12T09:32:06.000Z</time>
      </trkpt>
      <trkpt lat="43.57779" lon="3.75368">
        <ele>49</ele>
        <time>2020-09-12T09:32:07.000Z</time>
      </trkpt>
      <trkpt lat="43.57778" lon="3.75361">
        <ele>49</ele>
        <time>2020-09-12T09:32:08.000Z</time>
      </trkpt>
      <trkpt lat="43.57776" lon="3.75353">
        <ele>49</ele>
        <time>2020-09-12T09:32:09.000Z</time>
      </trkpt>
      <trkpt lat="43.57774" lon="3.75346">
        <ele>49</ele>
        <time>2020-09-12T09:32:10.000Z</time>
      </trkpt>
      <trkpt lat="43.5777" lon="3.75341">
        <ele>48.973947271216</ele>
        <time>2020-09-12T09:32:11.000Z</time>
      </trkpt>
      <trkpt lat="43.57766" lon="3.75336">
        <ele>48.873746934671</ele>
        <time>2020-09-12T09:32:12.000Z</time>
      </trkpt>
      <trkpt lat="43.57762" lon="3.75332">
        <ele>48.773546598126</ele>
        <time>2020-09-12T09:32:13.000Z</time>
      </trkpt>
      <trkpt lat="43.57758" lon="3.75327">
        <ele>48.673346261582</ele>
        <time>2020-09-12T09:32:14.000Z</time>
      </trkpt>
      <trkpt lat="43.57755" lon="3.75322">
        <ele>48.573145925037</ele>
        <time>2020-09-12T09:32:15.000Z</time>
      </trkpt>
      <trkpt lat="43.57752" lon="3.75316">
        <ele>48.472945588492</ele>
        <time>2020-09-12T09:32:16.000Z</time>
      </trkpt>
      <trkpt lat="43.57749" lon="3.7531">
        <ele>48.372745251947</ele>
        <time>2020-09-12T09:32:17.000Z</time>
      </trkpt>
      <trkpt lat="43.57746" lon="3.75304">
        <ele>48.272544915402</ele>
        <time>2020-09-12T09:32:18.000Z</time>
      </trkpt>
      <trkpt lat="43.57743" lon="3.75298">
        <ele>48.172344578857</ele>
        <time>2020-09-12T09:32:19.000Z</time>
      </trkpt>
      <trkpt lat="43.57741" lon="3.75292">
        <ele>48.072144242312</ele>
        <time>2020-09-12T09:32:20.000Z</time>
      </trkpt>
      <trkpt lat="43.57738" lon="3.75287">
        <ele>48</ele>
        <time>2020-09-12T09:32:21.000Z</time>
      </trkpt>
      <trkpt lat="43.57736" lon="3.75282">
        <ele>48</ele>
        <time>2020-09-12T09:32:22.000Z</time>
      </trkpt>
      <trkpt lat="43.57736" lon="3.75277">
        <ele>48</ele>
        <time>2020-09-12T09:32:23.000Z</time>
      </trkpt>
      <trkpt lat="43.57737" lon="3.75273">
        <ele>48</ele>
        <time>2020-09-12T09:32:24.000Z</time>
      </trkpt>
      <trkpt lat="43.5774" lon="3.75272">
        <ele>48</ele>
        <time>2020-09-12T09:32:25.000Z</time>
      </trkpt>
      <trkpt lat="43.57742" lon="3.75272">
        <ele>48</ele>
        <time>2020-09-12T09:32:26.000Z</time>
      </trkpt>
      <trkpt lat="43.57745" lon="3.75271">
        <ele>48</ele>
        <time>2020-09-12T09:32:27.000Z</time>
      </trkpt>
      <trkpt lat="43.57748" lon="3.7527">
        <ele>48</ele>
        <time>2020-09-12T09:32:28.000Z</time>
      </trkpt>
      <trkpt lat="43.57751" lon="3.75267">
        <ele>48</ele>
        <time>2020-09-12T09:32:29.000Z</time>
      </trkpt>
      <trkpt lat="43.57754" lon="3.75263">
        <ele>48</ele>
        <time>2020-09-12T09:32:30.000Z</time>
      </trkpt>
      <trkpt lat="43.57757" lon="3.75259">
        <ele>48</ele>
        <time>2020-09-12T09:32:31.000Z</time>
      </trkpt>
      <trkpt lat="43.5776" lon="3.75254">
        <ele>48</ele>
        <time>2020-09-12T09:32:32.000Z</time>
      </trkpt>
      <trkpt lat="43.57763" lon="3.75249">
        <ele>48</ele>
        <time>2020-09-12T09:32:33.000Z</time>
      </trkpt>
      <trkpt lat="43.57766" lon="3.75244">
        <ele>48</ele>
        <time>2020-09-12T09:32:34.000Z</time>
      </trkpt>
      <trkpt lat="43.57769" lon="3.75239">
        <ele>48</ele>
        <time>2020-09-12T09:32:35.000Z</time>
      </trkpt>
      <trkpt lat="43.57772" lon="3.75234">
        <ele>48</ele>
        <time>2020-09-12T09:32:36.000Z</time>
      </trkpt>
      <trkpt lat="43.57774" lon="3.75228">
        <ele>48</ele>
        <time>2020-09-12T09:32:37.000Z</time>
      </trkpt>
      <trkpt lat="43.57775" lon="3.75222">
        <ele>48</ele>
        <time>2020-09-12T09:32:38.000Z</time>
      </trkpt>
      <trkpt lat="43.57777" lon="3.75216">
        <ele>48</ele>
        <time>2020-09-12T09:32:39.000Z</time>
      </trkpt>
      <trkpt lat="43.57778" lon="3.7521">
        <ele>48</ele>
        <time>2020-09-12T09:32:40.000Z</time>
      </trkpt>
      <trkpt lat="43.5778" lon="3.75204">
        <ele>48.11399936</ele>
        <time>2020-09-12T09:32:41.000Z</time>
      </trkpt>
      <trkpt lat="43.57783" lon="3.75198">
        <ele>48.31399936</ele>
        <time>2020-09-12T09:32:42.000Z</time>
      </trkpt>
      <trkpt lat="43.57785" lon="3.75192">
        <ele>48.51399936</ele>
        <time>2020-09-12T09:32:43.000Z</time>
      </trkpt>
      <trkpt lat="43.57788" lon="3.75186">
        <ele>48.71399936</ele>
        <time>2020-09-12T09:32:44.000Z</time>
      </trkpt>
      <trkpt lat="43.5779" lon="3.75181">
        <ele>48.91399936</ele>
        <time>2020-09-12T09:32:45.000Z</time>
      </trkpt>
      <trkpt lat="43.57793" lon="3.75176">
        <ele>49.11399936</ele>
        <time>2020-09-12T09:32:46.000Z</time>
      </trkpt>
      <trkpt lat="43.57795" lon="3.75171">
        <ele>49.31399936</ele>
        <time>2020-09-12T09:32:47.000Z</time>
      </trkpt>
      <trkpt lat="43.57797" lon="3.75166">
        <ele>49.51399936</ele>
        <time>2020-09-12T09:32:48.000Z</time>
      </trkpt>
      <trkpt lat="43.578" lon="3.75161">
        <ele>49.71399936</ele>
        <time>2020-09-12T09:32:49.000Z</time>
      </trkpt>
      <trkpt lat="43.57802" lon="3.75156">
        <ele>49.91399936</ele>
        <time>2020-09-12T09:32:50.000Z</time>
      </trkpt>
      <trkpt lat="43.57805" lon="3.75151">
        <ele>50.05699968</ele>
        <time>2020-09-12T09:32:51.000Z</time>
      </trkpt>
      <trkpt lat="43.57808" lon="3.75146">
        <ele>50.15699968</ele>
        <time>2020-09-12T09:32:52.000Z</time>
      </trkpt>
      <trkpt lat="43.57811" lon="3.75141">
        <ele>50.25699968</ele>
        <time>2020-09-12T09:32:53.000Z</time>
      </trkpt>
      <trkpt lat="43.57814" lon="3.75136">
        <ele>50.35699968</ele>
        <time>2020-09-12T09:32:54.000Z</time>
      </trkpt>
      <trkpt lat="43.57816" lon="3.75131">
        <ele>50.45699968</ele>
        <time>2020-09-12T09:32:55.000Z</time>
      </trkpt>
      <trkpt lat="43.57819" lon="3.75126">
        <ele>50.55699968</ele>
        <time>2020-09-12T09:32:56.000Z</time>
      </trkpt>
      <trkpt lat="43.57823" lon="3.75121">
        <ele>50.65699968</ele>
        <time>2020-09-12T09:32:57.000Z</time>
      </trkpt>
      <trkpt lat="43.57826" lon="3.75116">
        <ele>50.75699968</ele>
        <time>2020-09-12T09:32:58.000Z</time>
      </trkpt>
      <trkpt lat="43.57829" lon="3.75111">
        <ele>50.85699968</ele>
        <time>2020-09-12T09:32:59.000Z</time>
      </trkpt>
      <trkpt lat="43.57832" lon="3.75107">
        <ele>50.95699968</ele>
        <time>2020-09-12T09:33:00.000Z</time>
      </trkpt>
      <trkpt lat="43.57835" lon="3.75102">
        <ele>51</ele>
        <time>2020-09-12T09:33:01.000Z</time>
      </trkpt>
      <trkpt lat="43.57838" lon="3.75098">
        <ele>51</ele>
        <time>2020-09-12T09:33:02.000Z</time>
      </trkpt>
      <trkpt lat="43.57842" lon="3.75093">
        <ele>51</ele>
        <time>2020-09-12T09:33:03.000Z</time>
      </trkpt>
      <trkpt lat="43.57845" lon="3.7509">
        <ele>51</ele>
        <time>2020-09-12T09:33:04.000Z</time>
      </trkpt>
      <trkpt lat="43.57848" lon="3.75086">
        <ele>51</ele>
        <time>2020-09-12T09:33:05.000Z</time>
      </trkpt>
      <trkpt lat="43.57851" lon="3.75082">
        <ele>51</ele>
        <time>2020-09-12T09:33:06.000Z</time>
      </trkpt>
      <trkpt lat="43.57854" lon="3.75078">
        <ele>51</ele>
        <time>2020-09-12T09:33:07.000Z</time>
      </trkpt>
      <trkpt lat="43.57857" lon="3.75074">
        <ele>51</ele>
        <time>2020-09-12T09:33:08.000Z</time>
      </trkpt>
      <trkpt lat="43.5786" lon="3.75069">
        <ele>51</ele>
        <time>2020-09-12T09:33:09.000Z</time>
      </trkpt>
      <trkpt lat="43.57862" lon="3.75065">
        <ele>51</ele>
        <time>2020-09-12T09:33:10.000Z</time>
      </trkpt>
      <trkpt lat="43.57865" lon="3.7506">
        <ele>51.05699968</ele>
        <time>2020-09-12T09:33:11.000Z</time>
      </trkpt>
      <trkpt lat="43.57867" lon="3.75055">
        <ele>51.15699968</ele>
        <time>2020-09-12T09:33:12.000Z</time>
      </trkpt>
      <trkpt lat="43.57869" lon="3.75051">
        <ele>51.25699968</ele>
        <time>2020-09-12T09:33:13.000Z</time>
      </trkpt>
      <trkpt lat="43.57872" lon="3.75046">
        <ele>51.35699968</ele>
        <time>2020-09-12T09:33:14.000Z</time>
      </trkpt>
      <trkpt lat="43.57875" lon="3.75043">
        <ele>51.45699968</ele>
        <time>2020-09-12T09:33:15.000Z</time>
      </trkpt>
      <trkpt lat="43.57878" lon="3.75039">
        <ele>51.55699968</ele>
        <time>2020-09-12T09:33:16.000Z</time>
      </trkpt>
      <trkpt lat="43.57881" lon="3.75035">
        <ele>51.65699968</ele>
        <time>2020-09-12T09:33:17.000Z</time>
      </trkpt>
      <trkpt lat="43.57884" lon="3.75031">
        <ele>51.75699968</ele>
        <time>2020-09-12T09:33:18.000Z</time>
      </trkpt>
      <trkpt lat="43.57887" lon="3.75027">
        <ele>51.85699968</ele>
        <time>2020-09-12T09:33:19.000Z</time>
      </trkpt>
      <trkpt lat="43.5789" lon="3.75022">
        <ele>51.95699968</ele>
        <time>2020-09-12T09:33:20.000Z</time>
      </trkpt>
      <trkpt lat="43.57892" lon="3.75018">
        <ele>52.055393292251</ele>
        <time>2020-09-12T09:33:21.000Z</time>
      </trkpt>
      <trkpt lat="43.57895" lon="3.75014">
        <ele>52.152575052307</ele>
        <time>2020-09-12T09:33:22.000Z</time>
      </trkpt>
      <trkpt lat="43.57898" lon="3.7501">
        <ele>52.249756812364</ele>
        <time>2020-09-12T09:33:23.000Z</time>
      </trkpt>
      <trkpt lat="43.57901" lon="3.75006">
        <ele>52.34693857242</ele>
        <time>2020-09-12T09:33:24.000Z</time>
      </trkpt>
      <trkpt lat="43.57904" lon="3.75003">
        <ele>52.444120332477</ele>
        <time>2020-09-12T09:33:25.000Z</time>
      </trkpt>
      <trkpt lat="43.57908" lon="3.74999">
        <ele>52.541302092533</ele>
        <time>2020-09-12T09:33:26.000Z</time>
      </trkpt>
      <trkpt lat="43.57911" lon="3.74996">
        <ele>52.63848385259</ele>
        <time>2020-09-12T09:33:27.000Z</time>
      </trkpt>
      <trkpt lat="43.57914" lon="3.74994">
        <ele>52.735665612646</ele>
        <time>2020-09-12T09:33:28.000Z</time>
      </trkpt>
      <trkpt lat="43.57918" lon="3.74991">
        <ele>52.832847372703</ele>
        <time>2020-09-12T09:33:29.000Z</time>
      </trkpt>
      <trkpt lat="43.57921" lon="3.74988">
        <ele>52.930029132759</ele>
        <time>2020-09-12T09:33:30.000Z</time>
      </trkpt>
      <trkpt lat="43.57925" lon="3.74986">
        <ele>53.028836241784</ele>
        <time>2020-09-12T09:33:31.000Z</time>
      </trkpt>
      <trkpt lat="43.57929" lon="3.74984">
        <ele>53.131822819585</ele>
        <time>2020-09-12T09:33:32.000Z</time>
      </trkpt>
      <trkpt lat="43.57932" lon="3.74981">
        <ele>53.234809397385</ele>
        <time>2020-09-12T09:33:33.000Z</time>
      </trkpt>
      <trkpt lat="43.57936" lon="3.74979">
        <ele>53.337795975186</ele>
        <time>2020-09-12T09:33:34.000Z</time>
      </trkpt>
      <trkpt lat="43.57939" lon="3.74976">
        <ele>53.440782552986</ele>
        <time>2020-09-12T09:33:35.000Z</time>
      </trkpt>
      <trkpt lat="43.57943" lon="3.74974">
        <ele>53.543769130787</ele>
        <time>2020-09-12T09:33:36.000Z</time>
      </trkpt>
      <trkpt lat="43.57947" lon="3.74972">
        <ele>53.646755708587</ele>
        <time>2020-09-12T09:33:37.000Z</time>
      </trkpt>
      <trkpt lat="43.5795" lon="3.74971">
        <ele>53.749742286388</ele>
        <time>2020-09-12T09:33:38.000Z</time>
      </trkpt>
      <trkpt lat="43.57954" lon="3.74969">
        <ele>53.852728864188</ele>
        <time>2020-09-12T09:33:39.000Z</time>
      </trkpt>
      <trkpt lat="43.57958" lon="3.74968">
        <ele>53.955715441989</ele>
        <time>2020-09-12T09:33:40.000Z</time>
      </trkpt>
      <trkpt lat="43.57961" lon="3.74966">
        <ele>54.055555278319</ele>
        <time>2020-09-12T09:33:41.000Z</time>
      </trkpt>
      <trkpt lat="43.57965" lon="3.74965">
        <ele>54.153021226056</ele>
        <time>2020-09-12T09:33:42.000Z</time>
      </trkpt>
      <trkpt lat="43.57969" lon="3.74963">
        <ele>54.250487173793</ele>
        <time>2020-09-12T09:33:43.000Z</time>
      </trkpt>
      <trkpt lat="43.57973" lon="3.74961">
        <ele>54.34795312153</ele>
        <time>2020-09-12T09:33:44.000Z</time>
      </trkpt>
      <trkpt lat="43.57976" lon="3.74959">
        <ele>54.445419069267</ele>
        <time>2020-09-12T09:33:45.000Z</time>
      </trkpt>
      <trkpt lat="43.5798" lon="3.74956">
        <ele>54.542885017004</ele>
        <time>2020-09-12T09:33:46.000Z</time>
      </trkpt>
      <trkpt lat="43.57983" lon="3.74954">
        <ele>54.640350964741</ele>
        <time>2020-09-12T09:33:47.000Z</time>
      </trkpt>
      <trkpt lat="43.57987" lon="3.74952">
        <ele>54.737816912478</ele>
        <time>2020-09-12T09:33:48.000Z</time>
      </trkpt>
      <trkpt lat="43.57991" lon="3.7495">
        <ele>54.835282860215</ele>
        <time>2020-09-12T09:33:49.000Z</time>
      </trkpt>
      <trkpt lat="43.57994" lon="3.74949">
        <ele>54.932748807952</ele>
        <time>2020-09-12T09:33:50.000Z</time>
      </trkpt>
      <trkpt lat="43.57998" lon="3.74947">
        <ele>55.031827823029</ele>
        <time>2020-09-12T09:33:51.000Z</time>
      </trkpt>
      <trkpt lat="43.58002" lon="3.74945">
        <ele>55.134497160084</ele>
        <time>2020-09-12T09:33:52.000Z</time>
      </trkpt>
      <trkpt lat="43.58006" lon="3.74943">
        <ele>55.237166497139</ele>
        <time>2020-09-12T09:33:53.000Z</time>
      </trkpt>
      <trkpt lat="43.58009" lon="3.74941">
        <ele>55.339835834194</ele>
        <time>2020-09-12T09:33:54.000Z</time>
      </trkpt>
      <trkpt lat="43.58013" lon="3.74939">
        <ele>55.442505171249</ele>
        <time>2020-09-12T09:33:55.000Z</time>
      </trkpt>
      <trkpt lat="43.58017" lon="3.74938">
        <ele>55.545174508304</ele>
        <time>2020-09-12T09:33:56.000Z</time>
      </trkpt>
      <trkpt lat="43.58021" lon="3.74936">
        <ele>55.647843845359</ele>
        <time>2020-09-12T09:33:57.000Z</time>
      </trkpt>
      <trkpt lat="43.58025" lon="3.74934">
        <ele>55.750513182414</ele>
        <time>2020-09-12T09:33:58.000Z</time>
      </trkpt>
      <trkpt lat="43.58028" lon="3.74933">
        <ele>55.853182519469</ele>
        <time>2020-09-12T09:33:59.000Z</time>
      </trkpt>
      <trkpt lat="43.58032" lon="3.74931">
        <ele>55.955851856524</ele>
        <time>2020-09-12T09:34:00.000Z</time>
      </trkpt>
      <trkpt lat="43.58035" lon="3.74929">
        <ele>56.11399936</ele>
        <time>2020-09-12T09:34:01.000Z</time>
      </trkpt>
      <trkpt lat="43.58039" lon="3.74928">
        <ele>56.31399936</ele>
        <time>2020-09-12T09:34:02.000Z</time>
      </trkpt>
      <trkpt lat="43.58043" lon="3.74927">
        <ele>56.51399936</ele>
        <time>2020-09-12T09:34:03.000Z</time>
      </trkpt>
      <trkpt lat="43.58047" lon="3.74926">
        <ele>56.71399936</ele>
        <time>2020-09-12T09:34:04.000Z</time>
      </trkpt>
      <trkpt lat="43.58051" lon="3.74926">
        <ele>56.91399936</ele>
        <time>2020-09-12T09:34:05.000Z</time>
      </trkpt>
      <trkpt lat="43.58055" lon="3.74925">
        <ele>57.11399936</ele>
        <time>2020-09-12T09:34:06.000Z</time>
      </trkpt>
      <trkpt lat="43.58059" lon="3.74925">
        <ele>57.31399936</ele>
        <time>2020-09-12T09:34:07.000Z</time>
      </trkpt>
      <trkpt lat="43.58063" lon="3.74926">
        <ele>57.51399936</ele>
        <time>2020-09-12T09:34:08.000Z</time>
      </trkpt>
      <trkpt lat="43.58067" lon="3.74927">
        <ele>57.71399936</ele>
        <time>2020-09-12T09:34:09.000Z</time>
      </trkpt>
      <trkpt lat="43.58071" lon="3.74929">
        <ele>57.91399936</ele>
        <time>2020-09-12T09:34:10.000Z</time>
      </trkpt>
      <trkpt lat="43.58074" lon="3.74932">
        <ele>58</ele>
        <time>2020-09-12T09:34:11.000Z</time>
      </trkpt>
      <trkpt lat="43.58078" lon="3.74935">
        <ele>58</ele>
        <time>2020-09-12T09:34:12.000Z</time>
      </trkpt>
      <trkpt lat="43.58081" lon="3.74938">
        <ele>58</ele>
        <time>2020-09-12T09:34:13.000Z</time>
      </trkpt>
      <trkpt lat="43.58084" lon="3.74942">
        <ele>58</ele>
        <time>2020-09-12T09:34:14.000Z</time>
      </trkpt>
      <trkpt lat="43.58087" lon="3.74945">
        <ele>58</ele>
        <time>2020-09-12T09:34:15.000Z</time>
      </trkpt>
      <trkpt lat="43.58089" lon="3.74949">
        <ele>58</ele>
        <time>2020-09-12T09:34:16.000Z</time>
      </trkpt>
      <trkpt lat="43.58092" lon="3.74952">
        <ele>58</ele>
        <time>2020-09-12T09:34:17.000Z</time>
      </trkpt>
      <trkpt lat="43.58095" lon="3.74956">
        <ele>58</ele>
        <time>2020-09-12T09:34:18.000Z</time>
      </trkpt>
      <trkpt lat="43.58098" lon="3.74959">
        <ele>58</ele>
        <time>2020-09-12T09:34:19.000Z</time>
      </trkpt>
      <trkpt lat="43.58101" lon="3.74962">
        <ele>58</ele>
        <time>2020-09-12T09:34:20.000Z</time>
      </trkpt>
      <trkpt lat="43.58104" lon="3.74963">
        <ele>58</ele>
        <time>2020-09-12T09:34:21.000Z</time>
      </trkpt>
      <trkpt lat="43.58106" lon="3.74964">
        <ele>58</ele>
        <time>2020-09-12T09:34:22.000Z</time>
      </trkpt>
      <trkpt lat="43.58109" lon="3.74962">
        <ele>58</ele>
        <time>2020-09-12T09:34:24.000Z</time>
      </trkpt>
      <trkpt lat="43.58109" lon="3.7496">
        <ele>58</ele>
        <time>2020-09-12T09:34:25.000Z</time>
      </trkpt>
      <trkpt lat="43.58109" lon="3.74957">
        <ele>58</ele>
        <time>2020-09-12T09:34:26.000Z</time>
      </trkpt>
      <trkpt lat="43.58107" lon="3.74954">
        <ele>58</ele>
        <time>2020-09-12T09:34:27.000Z</time>
      </trkpt>
      <trkpt lat="43.58105" lon="3.74951">
        <ele>58</ele>
        <time>2020-09-12T09:34:28.000Z</time>
      </trkpt>
      <trkpt lat="43.58104" lon="3.74947">
        <ele>58</ele>
        <time>2020-09-12T09:34:29.000Z</time>
      </trkpt>
      <trkpt lat="43.58102" lon="3.74943">
        <ele>58</ele>
        <time>2020-09-12T09:34:30.000Z</time>
      </trkpt>
      <trkpt lat="43.581" lon="3.74939">
        <ele>58</ele>
        <time>2020-09-12T09:34:31.000Z</time>
      </trkpt>
      <trkpt lat="43.58098" lon="3.74935">
        <ele>58</ele>
        <time>2020-09-12T09:34:32.000Z</time>
      </trkpt>
      <trkpt lat="43.58097" lon="3.74931">
        <ele>58</ele>
        <time>2020-09-12T09:34:33.000Z</time>
      </trkpt>
      <trkpt lat="43.58095" lon="3.74926">
        <ele>58</ele>
        <time>2020-09-12T09:34:34.000Z</time>
      </trkpt>
      <trkpt lat="43.58093" lon="3.74922">
        <ele>58</ele>
        <time>2020-09-12T09:34:35.000Z</time>
      </trkpt>
      <trkpt lat="43.58091" lon="3.74918">
        <ele>58</ele>
        <time>2020-09-12T09:34:36.000Z</time>
      </trkpt>
      <trkpt lat="43.58089" lon="3.74914">
        <ele>58</ele>
        <time>2020-09-12T09:34:37.000Z</time>
      </trkpt>
      <trkpt lat="43.58087" lon="3.74909">
        <ele>58</ele>
        <time>2020-09-12T09:34:38.000Z</time>
      </trkpt>
      <trkpt lat="43.58086" lon="3.74905">
        <ele>58</ele>
        <time>2020-09-12T09:34:39.000Z</time>
      </trkpt>
      <trkpt lat="43.58085" lon="3.74901">
        <ele>58</ele>
        <time>2020-09-12T09:34:40.000Z</time>
      </trkpt>
      <trkpt lat="43.58083" lon="3.74897">
        <ele>58.05699968</ele>
        <time>2020-09-12T09:34:41.000Z</time>
      </trkpt>
      <trkpt lat="43.5808" lon="3.74893">
        <ele>58.15699968</ele>
        <time>2020-09-12T09:34:42.000Z</time>
      </trkpt>
      <trkpt lat="43.58077" lon="3.74889">
        <ele>58.25699968</ele>
        <time>2020-09-12T09:34:43.000Z</time>
      </trkpt>
      <trkpt lat="43.58075" lon="3.74885">
        <ele>58.35699968</ele>
        <time>2020-09-12T09:34:44.000Z</time>
      </trkpt>
      <trkpt lat="43.58072" lon="3.74881">
        <ele>58.45699968</ele>
        <time>2020-09-12T09:34:45.000Z</time>
      </trkpt>
      <trkpt lat="43.5807" lon="3.74877">
        <ele>58.55699968</ele>
        <time>2020-09-12T09:34:46.000Z</time>
      </trkpt>
      <trkpt lat="43.58067" lon="3.74873">
        <ele>58.65699968</ele>
        <time>2020-09-12T09:34:47.000Z</time>
      </trkpt>
      <trkpt lat="43.58065" lon="3.74868">
        <ele>58.75699968</ele>
        <time>2020-09-12T09:34:48.000Z</time>
      </trkpt>
      <trkpt lat="43.58063" lon="3.74863">
        <ele>58.85699968</ele>
        <time>2020-09-12T09:34:49.000Z</time>
      </trkpt>
      <trkpt lat="43.58061" lon="3.74859">
        <ele>58.95699968</ele>
        <time>2020-09-12T09:34:50.000Z</time>
      </trkpt>
      <trkpt lat="43.58058" lon="3.74854">
        <ele>59.05699968</ele>
        <time>2020-09-12T09:34:51.000Z</time>
      </trkpt>
      <trkpt lat="43.58056" lon="3.74849">
        <ele>59.15699968</ele>
        <time>2020-09-12T09:34:52.000Z</time>
      </trkpt>
      <trkpt lat="43.58054" lon="3.74844">
        <ele>59.25699968</ele>
        <time>2020-09-12T09:34:53.000Z</time>
      </trkpt>
      <trkpt lat="43.58052" lon="3.7484">
        <ele>59.35699968</ele>
        <time>2020-09-12T09:34:54.000Z</time>
      </trkpt>
      <trkpt lat="43.5805" lon="3.74836">
        <ele>59.45699968</ele>
        <time>2020-09-12T09:34:55.000Z</time>
      </trkpt>
      <trkpt lat="43.58047" lon="3.74831">
        <ele>59.55699968</ele>
        <time>2020-09-12T09:34:56.000Z</time>
      </trkpt>
      <trkpt lat="43.58045" lon="3.74827">
        <ele>59.65699968</ele>
        <time>2020-09-12T09:34:57.000Z</time>
      </trkpt>
      <trkpt lat="43.58042" lon="3.74822">
        <ele>59.75699968</ele>
        <time>2020-09-12T09:34:58.000Z</time>
      </trkpt>
      <trkpt lat="43.5804" lon="3.74817">
        <ele>59.85699968</ele>
        <time>2020-09-12T09:34:59.000Z</time>
      </trkpt>
      <trkpt lat="43.58038" lon="3.74813">
        <ele>59.95699968</ele>
        <time>2020-09-12T09:35:00.000Z</time>
      </trkpt>
      <trkpt lat="43.58035" lon="3.74808">
        <ele>60.056659757716</ele>
        <time>2020-09-12T09:35:01.000Z</time>
      </trkpt>
      <trkpt lat="43.58033" lon="3.74803">
        <ele>60.156063399484</ele>
        <time>2020-09-12T09:35:02.000Z</time>
      </trkpt>
      <trkpt lat="43.5803" lon="3.74798">
        <ele>60.255467041251</ele>
        <time>2020-09-12T09:35:03.000Z</time>
      </trkpt>
      <trkpt lat="43.58028" lon="3.74793">
        <ele>60.354870683019</ele>
        <time>2020-09-12T09:35:04.000Z</time>
      </trkpt>
      <trkpt lat="43.58026" lon="3.74787">
        <ele>60.454274324787</ele>
        <time>2020-09-12T09:35:05.000Z</time>
      </trkpt>
      <trkpt lat="43.58023" lon="3.74782">
        <ele>60.553677966555</ele>
        <time>2020-09-12T09:35:06.000Z</time>
      </trkpt>
      <trkpt lat="43.58021" lon="3.74777">
        <ele>60.653081608322</ele>
        <time>2020-09-12T09:35:07.000Z</time>
      </trkpt>
      <trkpt lat="43.58019" lon="3.74772">
        <ele>60.75248525009</ele>
        <time>2020-09-12T09:35:08.000Z</time>
      </trkpt>
      <trkpt lat="43.58016" lon="3.74766">
        <ele>60.851888891858</ele>
        <time>2020-09-12T09:35:09.000Z</time>
      </trkpt>
      <trkpt lat="43.58014" lon="3.74761">
        <ele>60.951292533625</ele>
        <time>2020-09-12T09:35:10.000Z</time>
      </trkpt>
      <trkpt lat="43.58011" lon="3.74756">
        <ele>61</ele>
        <time>2020-09-12T09:35:11.000Z</time>
      </trkpt>
      <trkpt lat="43.58009" lon="3.7475">
        <ele>61</ele>
        <time>2020-09-12T09:35:12.000Z</time>
      </trkpt>
      <trkpt lat="43.58006" lon="3.74745">
        <ele>61</ele>
        <time>2020-09-12T09:35:13.000Z</time>
      </trkpt>
      <trkpt lat="43.58004" lon="3.74739">
        <ele>61</ele>
        <time>2020-09-12T09:35:14.000Z</time>
      </trkpt>
      <trkpt lat="43.58001" lon="3.74734">
        <ele>61</ele>
        <time>2020-09-12T09:35:15.000Z</time>
      </trkpt>
      <trkpt lat="43.57998" lon="3.74729">
        <ele>61</ele>
        <time>2020-09-12T09:35:16.000Z</time>
      </trkpt>
      <trkpt lat="43.57996" lon="3.74723">
        <ele>61</ele>
        <time>2020-09-12T09:35:17.000Z</time>
      </trkpt>
      <trkpt lat="43.57993" lon="3.74717">
        <ele>61</ele>
        <time>2020-09-12T09:35:18.000Z</time>
      </trkpt>
      <trkpt lat="43.5799" lon="3.74712">
        <ele>61</ele>
        <time>2020-09-12T09:35:19.000Z</time>
      </trkpt>
      <trkpt lat="43.57987" lon="3.74707">
        <ele>61</ele>
        <time>2020-09-12T09:35:20.000Z</time>
      </trkpt>
      <trkpt lat="43.57985" lon="3.74701">
        <ele>61.05699968</ele>
        <time>2020-09-12T09:35:21.000Z</time>
      </trkpt>
      <trkpt lat="43.57982" lon="3.74696">
        <ele>61.15699968</ele>
        <time>2020-09-12T09:35:22.000Z</time>
      </trkpt>
      <trkpt lat="43.57979" lon="3.7469">
        <ele>61.25699968</ele>
        <time>2020-09-12T09:35:23.000Z</time>
      </trkpt>
      <trkpt lat="43.57976" lon="3.74685">
        <ele>61.35699968</ele>
        <time>2020-09-12T09:35:24.000Z</time>
      </trkpt>
      <trkpt lat="43.57974" lon="3.74679">
        <ele>61.45699968</ele>
        <time>2020-09-12T09:35:25.000Z</time>
      </trkpt>
      <trkpt lat="43.57971" lon="3.74674">
        <ele>61.55699968</ele>
        <time>2020-09-12T09:35:26.000Z</time>
      </trkpt>
      <trkpt lat="43.57969" lon="3.74668">
        <ele>61.65699968</ele>
        <time>2020-09-12T09:35:27.000Z</time>
      </trkpt>
      <trkpt lat="43.57966" lon="3.74663">
        <ele>61.75699968</ele>
        <time>2020-09-12T09:35:28.000Z</time>
      </trkpt>
      <trkpt lat="43.57964" lon="3.74658">
        <ele>61.85699968</ele>
        <time>2020-09-12T09:35:29.000Z</time>
      </trkpt>
      <trkpt lat="43.57961" lon="3.74652">
        <ele>61.95699968</ele>
        <time>2020-09-12T09:35:30.000Z</time>
      </trkpt>
      <trkpt lat="43.57959" lon="3.74647">
        <ele>62</ele>
        <time>2020-09-12T09:35:31.000Z</time>
      </trkpt>
      <trkpt lat="43.57956" lon="3.74642">
        <ele>62</ele>
        <time>2020-09-12T09:35:32.000Z</time>
      </trkpt>
      <trkpt lat="43.57953" lon="3.74636">
        <ele>62</ele>
        <time>2020-09-12T09:35:33.000Z</time>
      </trkpt>
      <trkpt lat="43.57951" lon="3.74631">
        <ele>62</ele>
        <time>2020-09-12T09:35:34.000Z</time>
      </trkpt>
      <trkpt lat="43.57949" lon="3.74625">
        <ele>62</ele>
        <time>2020-09-12T09:35:35.000Z</time>
      </trkpt>
      <trkpt lat="43.57946" lon="3.74619">
        <ele>62</ele>
        <time>2020-09-12T09:35:36.000Z</time>
      </trkpt>
      <trkpt lat="43.57944" lon="3.74614">
        <ele>62</ele>
        <time>2020-09-12T09:35:37.000Z</time>
      </trkpt>
      <trkpt lat="43.57941" lon="3.74608">
        <ele>62</ele>
        <time>2020-09-12T09:35:38.000Z</time>
      </trkpt>
      <trkpt lat="43.57938" lon="3.74602">
        <ele>62</ele>
        <time>2020-09-12T09:35:39.000Z</time>
      </trkpt>
      <trkpt lat="43.57936" lon="3.74597">
        <ele>62</ele>
        <time>2020-09-12T09:35:40.000Z</time>
      </trkpt>
      <trkpt lat="43.57933" lon="3.74591">
        <ele>62.11399936</ele>
        <time>2020-09-12T09:35:41.000Z</time>
      </trkpt>
      <trkpt lat="43.57931" lon="3.74586">
        <ele>62.31399936</ele>
        <time>2020-09-12T09:35:42.000Z</time>
      </trkpt>
      <trkpt lat="43.57928" lon="3.74581">
        <ele>62.51399936</ele>
        <time>2020-09-12T09:35:43.000Z</time>
      </trkpt>
      <trkpt lat="43.57927" lon="3.74575">
        <ele>62.71399936</ele>
        <time>2020-09-12T09:35:44.000Z</time>
      </trkpt>
      <trkpt lat="43.57926" lon="3.7457">
        <ele>62.91399936</ele>
        <time>2020-09-12T09:35:45.000Z</time>
      </trkpt>
      <trkpt lat="43.57925" lon="3.74566">
        <ele>63.11399936</ele>
        <time>2020-09-12T09:35:46.000Z</time>
      </trkpt>
      <trkpt lat="43.57925" lon="3.74562">
        <ele>63.31399936</ele>
        <time>2020-09-12T09:35:47.000Z</time>
      </trkpt>
      <trkpt lat="43.57925" lon="3.74559">
        <ele>63.51399936</ele>
        <time>2020-09-12T09:35:48.000Z</time>
      </trkpt>
      <trkpt lat="43.57924" lon="3.74556">
        <ele>63.71399936</ele>
        <time>2020-09-12T09:35:49.000Z</time>
      </trkpt>
      <trkpt lat="43.57923" lon="3.74553">
        <ele>63.91399936</ele>
        <time>2020-09-12T09:35:50.000Z</time>
      </trkpt>
      <trkpt lat="43.57923" lon="3.74549">
        <ele>64.05699968</ele>
        <time>2020-09-12T09:35:51.000Z</time>
      </trkpt>
      <trkpt lat="43.57922" lon="3.74546">
        <ele>64.15699968</ele>
        <time>2020-09-12T09:35:52.000Z</time>
      </trkpt>
      <trkpt lat="43.57922" lon="3.74543">
        <ele>64.25699968</ele>
        <time>2020-09-12T09:35:53.000Z</time>
      </trkpt>
      <trkpt lat="43.57921" lon="3.7454">
        <ele>64.35699968</ele>
        <time>2020-09-12T09:35:54.000Z</time>
      </trkpt>
      <trkpt lat="43.5792" lon="3.74537">
        <ele>64.45699968</ele>
        <time>2020-09-12T09:35:55.000Z</time>
      </trkpt>
      <trkpt lat="43.5792" lon="3.74535">
        <ele>64.55699968</ele>
        <time>2020-09-12T09:35:56.000Z</time>
      </trkpt>
      <trkpt lat="43.57919" lon="3.7453">
        <ele>64.75699968</ele>
        <time>2020-09-12T09:35:58.000Z</time>
      </trkpt>
      <trkpt lat="43.57918" lon="3.74527">
        <ele>64.85699968</ele>
        <time>2020-09-12T09:35:59.000Z</time>
      </trkpt>
      <trkpt lat="43.57918" lon="3.74525">
        <ele>64.95699968</ele>
        <time>2020-09-12T09:36:00.000Z</time>
      </trkpt>
      <trkpt lat="43.57917" lon="3.74522">
        <ele>65.11399936</ele>
        <time>2020-09-12T09:36:01.000Z</time>
      </trkpt>
      <trkpt lat="43.57916" lon="3.7452">
        <ele>65.31399936</ele>
        <time>2020-09-12T09:36:02.000Z</time>
      </trkpt>
      <trkpt lat="43.57915" lon="3.74517">
        <ele>65.51399936</ele>
        <time>2020-09-12T09:36:03.000Z</time>
      </trkpt>
      <trkpt lat="43.57914" lon="3.74515">
        <ele>65.71399936</ele>
        <time>2020-09-12T09:36:04.000Z</time>
      </trkpt>
      <trkpt lat="43.57913" lon="3.74513">
        <ele>65.91399936</ele>
        <time>2020-09-12T09:36:05.000Z</time>
      </trkpt>
      <trkpt lat="43.57911" lon="3.74509">
        <ele>66.31399936</ele>
        <time>2020-09-12T09:36:07.000Z</time>
      </trkpt>
      <trkpt lat="43.57909" lon="3.74505">
        <ele>66.71399936</ele>
        <time>2020-09-12T09:36:09.000Z</time>
      </trkpt>
      <trkpt lat="43.57907" lon="3.745">
        <ele>67.055339529531</ele>
        <time>2020-09-12T09:36:11.000Z</time>
      </trkpt>
      <trkpt lat="43.57906" lon="3.74498">
        <ele>67.152426968498</ele>
        <time>2020-09-12T09:36:12.000Z</time>
      </trkpt>
      <trkpt lat="43.57905" lon="3.74495">
        <ele>67.249514407465</ele>
        <time>2020-09-12T09:36:13.000Z</time>
      </trkpt>
      <trkpt lat="43.57904" lon="3.74492">
        <ele>67.346601846432</ele>
        <time>2020-09-12T09:36:14.000Z</time>
      </trkpt>
      <trkpt lat="43.57902" lon="3.7449">
        <ele>67.443689285399</ele>
        <time>2020-09-12T09:36:15.000Z</time>
      </trkpt>
      <trkpt lat="43.57901" lon="3.74487">
        <ele>67.540776724366</ele>
        <time>2020-09-12T09:36:16.000Z</time>
      </trkpt>
      <trkpt lat="43.579" lon="3.74484">
        <ele>67.637864163333</ele>
        <time>2020-09-12T09:36:17.000Z</time>
      </trkpt>
      <trkpt lat="43.57898" lon="3.74481">
        <ele>67.7349516023</ele>
        <time>2020-09-12T09:36:18.000Z</time>
      </trkpt>
      <trkpt lat="43.57897" lon="3.74478">
        <ele>67.832039041267</ele>
        <time>2020-09-12T09:36:19.000Z</time>
      </trkpt>
      <trkpt lat="43.57896" lon="3.74475">
        <ele>67.929126480234</ele>
        <time>2020-09-12T09:36:20.000Z</time>
      </trkpt>
      <trkpt lat="43.57894" lon="3.74472">
        <ele>68.027835363078</ele>
        <time>2020-09-12T09:36:21.000Z</time>
      </trkpt>
      <trkpt lat="43.57893" lon="3.74469">
        <ele>68.130928078563</ele>
        <time>2020-09-12T09:36:22.000Z</time>
      </trkpt>
      <trkpt lat="43.57892" lon="3.74466">
        <ele>68.234020794048</ele>
        <time>2020-09-12T09:36:23.000Z</time>
      </trkpt>
      <trkpt lat="43.5789" lon="3.74463">
        <ele>68.337113509533</ele>
        <time>2020-09-12T09:36:24.000Z</time>
      </trkpt>
      <trkpt lat="43.57889" lon="3.7446">
        <ele>68.440206225019</ele>
        <time>2020-09-12T09:36:25.000Z</time>
      </trkpt>
      <trkpt lat="43.57888" lon="3.74458">
        <ele>68.543298940504</ele>
        <time>2020-09-12T09:36:26.000Z</time>
      </trkpt>
      <trkpt lat="43.57886" lon="3.74455">
        <ele>68.646391655989</ele>
        <time>2020-09-12T09:36:27.000Z</time>
      </trkpt>
      <trkpt lat="43.57885" lon="3.74452">
        <ele>68.749484371474</ele>
        <time>2020-09-12T09:36:28.000Z</time>
      </trkpt>
      <trkpt lat="43.57883" lon="3.74449">
        <ele>68.852577086959</ele>
        <time>2020-09-12T09:36:29.000Z</time>
      </trkpt>
      <trkpt lat="43.57882" lon="3.74446">
        <ele>68.955669802445</ele>
        <time>2020-09-12T09:36:30.000Z</time>
      </trkpt>
      <trkpt lat="43.57881" lon="3.74443">
        <ele>69.05699968</ele>
        <time>2020-09-12T09:36:31.000Z</time>
      </trkpt>
      <trkpt lat="43.57879" lon="3.7444">
        <ele>69.15699968</ele>
        <time>2020-09-12T09:36:32.000Z</time>
      </trkpt>
      <trkpt lat="43.57878" lon="3.74437">
        <ele>69.25699968</ele>
        <time>2020-09-12T09:36:33.000Z</time>
      </trkpt>
      <trkpt lat="43.57876" lon="3.74434">
        <ele>69.35699968</ele>
        <time>2020-09-12T09:36:34.000Z</time>
      </trkpt>
      <trkpt lat="43.57875" lon="3.74431">
        <ele>69.45699968</ele>
        <time>2020-09-12T09:36:35.000Z</time>
      </trkpt>
      <trkpt lat="43.57873" lon="3.74428">
        <ele>69.55699968</ele>
        <time>2020-09-12T09:36:36.000Z</time>
      </trkpt>
      <trkpt lat="43.57872" lon="3.74425">
        <ele>69.65699968</ele>
        <time>2020-09-12T09:36:37.000Z</time>
      </trkpt>
      <trkpt lat="43.57871" lon="3.74422">
        <ele>69.75699968</ele>
        <time>2020-09-12T09:36:38.000Z</time>
      </trkpt>
      <trkpt lat="43.57869" lon="3.7442">
        <ele>69.85699968</ele>
        <time>2020-09-12T09:36:39.000Z</time>
      </trkpt>
      <trkpt lat="43.57868" lon="3.74418">
        <ele>69.95699968</ele>
        <time>2020-09-12T09:36:40.000Z</time>
      </trkpt>
      <trkpt lat="43.57866" lon="3.74416">
        <ele>69.94300032</ele>
        <time>2020-09-12T09:36:41.000Z</time>
      </trkpt>
      <trkpt lat="43.57865" lon="3.74414">
        <ele>69.84300032</ele>
        <time>2020-09-12T09:36:42.000Z</time>
      </trkpt>
      <trkpt lat="43.57863" lon="3.74412">
        <ele>69.74300032</ele>
        <time>2020-09-12T09:36:43.000Z</time>
      </trkpt>
      <trkpt lat="43.57861" lon="3.7441">
        <ele>69.64300032</ele>
        <time>2020-09-12T09:36:44.000Z</time>
      </trkpt>
      <trkpt lat="43.57859" lon="3.74407">
        <ele>69.54300032</ele>
        <time>2020-09-12T09:36:45.000Z</time>
      </trkpt>
      <trkpt lat="43.57856" lon="3.74403">
        <ele>69.44300032</ele>
        <time>2020-09-12T09:36:46.000Z</time>
      </trkpt>
      <trkpt lat="43.57854" lon="3.74399">
        <ele>69.34300032</ele>
        <time>2020-09-12T09:36:47.000Z</time>
      </trkpt>
      <trkpt lat="43.57851" lon="3.74395">
        <ele>69.24300032</ele>
        <time>2020-09-12T09:36:48.000Z</time>
      </trkpt>
      <trkpt lat="43.57848" lon="3.7439">
        <ele>69.14300032</ele>
        <time>2020-09-12T09:36:49.000Z</time>
      </trkpt>
      <trkpt lat="43.57845" lon="3.74386">
        <ele>69.04300032</ele>
        <time>2020-09-12T09:36:50.000Z</time>
      </trkpt>
      <trkpt lat="43.57841" lon="3.74381">
        <ele>68.889213415499</ele>
        <time>2020-09-12T09:36:51.000Z</time>
      </trkpt>
      <trkpt lat="43.57838" lon="3.74376">
        <ele>68.694849895386</ele>
        <time>2020-09-12T09:36:52.000Z</time>
      </trkpt>
      <trkpt lat="43.57835" lon="3.74372">
        <ele>68.500486375273</ele>
        <time>2020-09-12T09:36:53.000Z</time>
      </trkpt>
      <trkpt lat="43.57832" lon="3.74367">
        <ele>68.30612285516</ele>
        <time>2020-09-12T09:36:54.000Z</time>
      </trkpt>
      <trkpt lat="43.57829" lon="3.74362">
        <ele>68.111759335047</ele>
        <time>2020-09-12T09:36:55.000Z</time>
      </trkpt>
      <trkpt lat="43.57827" lon="3.74357">
        <ele>67.917395814934</ele>
        <time>2020-09-12T09:36:56.000Z</time>
      </trkpt>
      <trkpt lat="43.57825" lon="3.74352">
        <ele>67.72303229482</ele>
        <time>2020-09-12T09:36:57.000Z</time>
      </trkpt>
      <trkpt lat="43.57822" lon="3.74347">
        <ele>67.528668774707</ele>
        <time>2020-09-12T09:36:58.000Z</time>
      </trkpt>
      <trkpt lat="43.57819" lon="3.74342">
        <ele>67.334305254594</ele>
        <time>2020-09-12T09:36:59.000Z</time>
      </trkpt>
      <trkpt lat="43.57816" lon="3.74337">
        <ele>67.139941734481</ele>
        <time>2020-09-12T09:37:00.000Z</time>
      </trkpt>
      <trkpt lat="43.57813" lon="3.74332">
        <ele>66.971163758216</ele>
        <time>2020-09-12T09:37:01.000Z</time>
      </trkpt>
      <trkpt lat="43.5781" lon="3.74326">
        <ele>66.868177180415</ele>
        <time>2020-09-12T09:37:02.000Z</time>
      </trkpt>
      <trkpt lat="43.57807" lon="3.74321">
        <ele>66.765190602615</ele>
        <time>2020-09-12T09:37:03.000Z</time>
      </trkpt>
      <trkpt lat="43.57805" lon="3.74316">
        <ele>66.662204024814</ele>
        <time>2020-09-12T09:37:04.000Z</time>
      </trkpt>
      <trkpt lat="43.57803" lon="3.74311">
        <ele>66.559217447014</ele>
        <time>2020-09-12T09:37:05.000Z</time>
      </trkpt>
      <trkpt lat="43.578" lon="3.74305">
        <ele>66.456230869213</ele>
        <time>2020-09-12T09:37:06.000Z</time>
      </trkpt>
      <trkpt lat="43.57798" lon="3.743">
        <ele>66.353244291413</ele>
        <time>2020-09-12T09:37:07.000Z</time>
      </trkpt>
      <trkpt lat="43.57795" lon="3.74295">
        <ele>66.250257713612</ele>
        <time>2020-09-12T09:37:08.000Z</time>
      </trkpt>
      <trkpt lat="43.57792" lon="3.74289">
        <ele>66.147271135812</ele>
        <time>2020-09-12T09:37:09.000Z</time>
      </trkpt>
      <trkpt lat="43.57789" lon="3.74284">
        <ele>66.044284558011</ele>
        <time>2020-09-12T09:37:10.000Z</time>
      </trkpt>
      <trkpt lat="43.57786" lon="3.74278">
        <ele>65.889320940937</ele>
        <time>2020-09-12T09:37:11.000Z</time>
      </trkpt>
      <trkpt lat="43.57783" lon="3.74273">
        <ele>65.695146063003</ele>
        <time>2020-09-12T09:37:12.000Z</time>
      </trkpt>
      <trkpt lat="43.5778" lon="3.74267">
        <ele>65.50097118507</ele>
        <time>2020-09-12T09:37:13.000Z</time>
      </trkpt>
      <trkpt lat="43.57777" lon="3.74262">
        <ele>65.306796307136</ele>
        <time>2020-09-12T09:37:14.000Z</time>
      </trkpt>
      <trkpt lat="43.57775" lon="3.74256">
        <ele>65.112621429202</ele>
        <time>2020-09-12T09:37:15.000Z</time>
      </trkpt>
      <trkpt lat="43.57772" lon="3.74251">
        <ele>64.918446551268</ele>
        <time>2020-09-12T09:37:16.000Z</time>
      </trkpt>
      <trkpt lat="43.5777" lon="3.74245">
        <ele>64.724271673334</ele>
        <time>2020-09-12T09:37:17.000Z</time>
      </trkpt>
      <trkpt lat="43.57768" lon="3.74239">
        <ele>64.5300967954</ele>
        <time>2020-09-12T09:37:18.000Z</time>
      </trkpt>
      <trkpt lat="43.57768" lon="3.74232">
        <ele>64.335921917466</ele>
        <time>2020-09-12T09:37:19.000Z</time>
      </trkpt>
      <trkpt lat="43.57767" lon="3.74225">
        <ele>64.141747039532</ele>
        <time>2020-09-12T09:37:20.000Z</time>
      </trkpt>
      <trkpt lat="43.57766" lon="3.74219">
        <ele>64</ele>
        <time>2020-09-12T09:37:21.000Z</time>
      </trkpt>
      <trkpt lat="43.57765" lon="3.74212">
        <ele>64</ele>
        <time>2020-09-12T09:37:22.000Z</time>
      </trkpt>
      <trkpt lat="43.57765" lon="3.74206">
        <ele>64</ele>
        <time>2020-09-12T09:37:23.000Z</time>
      </trkpt>
      <trkpt lat="43.57764" lon="3.742">
        <ele>64</ele>
        <time>2020-09-12T09:37:24.000Z</time>
      </trkpt>
      <trkpt lat="43.57763" lon="3.74194">
        <ele>64</ele>
        <time>2020-09-12T09:37:25.000Z</time>
      </trkpt>
      <trkpt lat="43.57763" lon="3.74188">
        <ele>64</ele>
        <time>2020-09-12T09:37:26.000Z</time>
      </trkpt>
      <trkpt lat="43.57763" lon="3.74183">
        <ele>64</ele>
        <time>2020-09-12T09:37:27.000Z</time>
      </trkpt>
      <trkpt lat="43.57764" lon="3.74178">
        <ele>64</ele>
        <time>2020-09-12T09:37:28.000Z</time>
      </trkpt>
      <trkpt lat="43.57764" lon="3.74172">
        <ele>64</ele>
        <time>2020-09-12T09:37:29.000Z</time>
      </trkpt>
      <trkpt lat="43.57764" lon="3.74167">
        <ele>64</ele>
        <time>2020-09-12T09:37:30.000Z</time>
      </trkpt>
      <trkpt lat="43.57765" lon="3.74162">
        <ele>63.945836922765</ele>
        <time>2020-09-12T09:37:31.000Z</time>
      </trkpt>
      <trkpt lat="43.57765" lon="3.74156">
        <ele>63.745235310506</ele>
        <time>2020-09-12T09:37:32.000Z</time>
      </trkpt>
      <trkpt lat="43.57766" lon="3.74151">
        <ele>63.544633698246</ele>
        <time>2020-09-12T09:37:33.000Z</time>
      </trkpt>
      <trkpt lat="43.57767" lon="3.74145">
        <ele>63.344032085987</ele>
        <time>2020-09-12T09:37:34.000Z</time>
      </trkpt>
      <trkpt lat="43.57768" lon="3.7414">
        <ele>63.143430473728</ele>
        <time>2020-09-12T09:37:35.000Z</time>
      </trkpt>
      <trkpt lat="43.5777" lon="3.74134">
        <ele>62.942828861469</ele>
        <time>2020-09-12T09:37:36.000Z</time>
      </trkpt>
      <trkpt lat="43.57772" lon="3.74129">
        <ele>62.742227249209</ele>
        <time>2020-09-12T09:37:37.000Z</time>
      </trkpt>
      <trkpt lat="43.57774" lon="3.74123">
        <ele>62.54162563695</ele>
        <time>2020-09-12T09:37:38.000Z</time>
      </trkpt>
      <trkpt lat="43.57776" lon="3.74117">
        <ele>62.341024024691</ele>
        <time>2020-09-12T09:37:39.000Z</time>
      </trkpt>
      <trkpt lat="43.57778" lon="3.74112">
        <ele>62.140422412432</ele>
        <time>2020-09-12T09:37:40.000Z</time>
      </trkpt>
      <trkpt lat="43.5778" lon="3.74108">
        <ele>61.969168170744</ele>
        <time>2020-09-12T09:37:41.000Z</time>
      </trkpt>
      <trkpt lat="43.57783" lon="3.74104">
        <ele>61.866393214024</ele>
        <time>2020-09-12T09:37:42.000Z</time>
      </trkpt>
      <trkpt lat="43.57786" lon="3.741">
        <ele>61.763618257305</ele>
        <time>2020-09-12T09:37:43.000Z</time>
      </trkpt>
      <trkpt lat="43.5779" lon="3.74096">
        <ele>61.660843300586</ele>
        <time>2020-09-12T09:37:44.000Z</time>
      </trkpt>
      <trkpt lat="43.57793" lon="3.74092">
        <ele>61.558068343866</ele>
        <time>2020-09-12T09:37:45.000Z</time>
      </trkpt>
      <trkpt lat="43.57797" lon="3.74089">
        <ele>61.455293387147</ele>
        <time>2020-09-12T09:37:46.000Z</time>
      </trkpt>
      <trkpt lat="43.578" lon="3.74086">
        <ele>61.352518430427</ele>
        <time>2020-09-12T09:37:47.000Z</time>
      </trkpt>
      <trkpt lat="43.57803" lon="3.74083">
        <ele>61.249743473708</ele>
        <time>2020-09-12T09:37:48.000Z</time>
      </trkpt>
      <trkpt lat="43.57806" lon="3.7408">
        <ele>61.146968516989</ele>
        <time>2020-09-12T09:37:49.000Z</time>
      </trkpt>
      <trkpt lat="43.57808" lon="3.74077">
        <ele>61.044193560269</ele>
        <time>2020-09-12T09:37:50.000Z</time>
      </trkpt>
      <trkpt lat="43.57811" lon="3.74074">
        <ele>61.055393292251</ele>
        <time>2020-09-12T09:37:51.000Z</time>
      </trkpt>
      <trkpt lat="43.57813" lon="3.74071">
        <ele>61.152575052307</ele>
        <time>2020-09-12T09:37:52.000Z</time>
      </trkpt>
      <trkpt lat="43.57815" lon="3.74068">
        <ele>61.249756812364</ele>
        <time>2020-09-12T09:37:53.000Z</time>
      </trkpt>
      <trkpt lat="43.57818" lon="3.74065">
        <ele>61.34693857242</ele>
        <time>2020-09-12T09:37:54.000Z</time>
      </trkpt>
      <trkpt lat="43.5782" lon="3.74062">
        <ele>61.444120332477</ele>
        <time>2020-09-12T09:37:55.000Z</time>
      </trkpt>
      <trkpt lat="43.57823" lon="3.74059">
        <ele>61.541302092533</ele>
        <time>2020-09-12T09:37:56.000Z</time>
      </trkpt>
      <trkpt lat="43.57825" lon="3.74057">
        <ele>61.63848385259</ele>
        <time>2020-09-12T09:37:57.000Z</time>
      </trkpt>
      <trkpt lat="43.57828" lon="3.74055">
        <ele>61.735665612646</ele>
        <time>2020-09-12T09:37:58.000Z</time>
      </trkpt>
      <trkpt lat="43.57831" lon="3.74052">
        <ele>61.832847372703</ele>
        <time>2020-09-12T09:37:59.000Z</time>
      </trkpt>
      <trkpt lat="43.57833" lon="3.7405">
        <ele>61.930029132759</ele>
        <time>2020-09-12T09:38:00.000Z</time>
      </trkpt>
      <trkpt lat="43.57836" lon="3.74048">
        <ele>62.02791624234</ele>
        <time>2020-09-12T09:38:01.000Z</time>
      </trkpt>
      <trkpt lat="43.57839" lon="3.74045">
        <ele>62.127617107839</ele>
        <time>2020-09-12T09:38:02.000Z</time>
      </trkpt>
      <trkpt lat="43.57841" lon="3.74043">
        <ele>62.227317973338</ele>
        <time>2020-09-12T09:38:03.000Z</time>
      </trkpt>
      <trkpt lat="43.57844" lon="3.7404">
        <ele>62.327018838838</ele>
        <time>2020-09-12T09:38:04.000Z</time>
      </trkpt>
      <trkpt lat="43.57847" lon="3.74038">
        <ele>62.426719704337</ele>
        <time>2020-09-12T09:38:05.000Z</time>
      </trkpt>
      <trkpt lat="43.57849" lon="3.74035">
        <ele>62.526420569836</ele>
        <time>2020-09-12T09:38:06.000Z</time>
      </trkpt>
      <trkpt lat="43.57852" lon="3.74033">
        <ele>62.626121435335</ele>
        <time>2020-09-12T09:38:07.000Z</time>
      </trkpt>
      <trkpt lat="43.57855" lon="3.74031">
        <ele>62.725822300834</ele>
        <time>2020-09-12T09:38:08.000Z</time>
      </trkpt>
      <trkpt lat="43.57858" lon="3.74029">
        <ele>62.825523166334</ele>
        <time>2020-09-12T09:38:09.000Z</time>
      </trkpt>
      <trkpt lat="43.57861" lon="3.74027">
        <ele>62.925224031833</ele>
        <time>2020-09-12T09:38:10.000Z</time>
      </trkpt>
      <trkpt lat="43.57864" lon="3.74026">
        <ele>63</ele>
        <time>2020-09-12T09:38:11.000Z</time>
      </trkpt>
      <trkpt lat="43.57867" lon="3.74026">
        <ele>63</ele>
        <time>2020-09-12T09:38:12.000Z</time>
      </trkpt>
      <trkpt lat="43.5787" lon="3.74025">
        <ele>63</ele>
        <time>2020-09-12T09:38:13.000Z</time>
      </trkpt>
      <trkpt lat="43.57873" lon="3.74024">
        <ele>63</ele>
        <time>2020-09-12T09:38:14.000Z</time>
      </trkpt>
      <trkpt lat="43.57876" lon="3.74024">
        <ele>63</ele>
        <time>2020-09-12T09:38:15.000Z</time>
      </trkpt>
      <trkpt lat="43.5788" lon="3.74023">
        <ele>63</ele>
        <time>2020-09-12T09:38:16.000Z</time>
      </trkpt>
      <trkpt lat="43.57883" lon="3.74021">
        <ele>63</ele>
        <time>2020-09-12T09:38:17.000Z</time>
      </trkpt>
      <trkpt lat="43.57887" lon="3.74021">
        <ele>63</ele>
        <time>2020-09-12T09:38:18.000Z</time>
      </trkpt>
      <trkpt lat="43.5789" lon="3.7402">
        <ele>63</ele>
        <time>2020-09-12T09:38:19.000Z</time>
      </trkpt>
      <trkpt lat="43.57893" lon="3.74019">
        <ele>63</ele>
        <time>2020-09-12T09:38:20.000Z</time>
      </trkpt>
      <trkpt lat="43.57896" lon="3.74019">
        <ele>63.05699968</ele>
        <time>2020-09-12T09:38:21.000Z</time>
      </trkpt>
      <trkpt lat="43.57899" lon="3.74019">
        <ele>63.15699968</ele>
        <time>2020-09-12T09:38:22.000Z</time>
      </trkpt>
      <trkpt lat="43.57902" lon="3.7402">
        <ele>63.25699968</ele>
        <time>2020-09-12T09:38:23.000Z</time>
      </trkpt>
      <trkpt lat="43.57905" lon="3.74021">
        <ele>63.35699968</ele>
        <time>2020-09-12T09:38:24.000Z</time>
      </trkpt>
      <trkpt lat="43.57907" lon="3.74022">
        <ele>63.45699968</ele>
        <time>2020-09-12T09:38:25.000Z</time>
      </trkpt>
      <trkpt lat="43.5791" lon="3.74023">
        <ele>63.55699968</ele>
        <time>2020-09-12T09:38:26.000Z</time>
      </trkpt>
      <trkpt lat="43.57912" lon="3.74023">
        <ele>63.65699968</ele>
        <time>2020-09-12T09:38:27.000Z</time>
      </trkpt>
      <trkpt lat="43.57915" lon="3.74023">
        <ele>63.75699968</ele>
        <time>2020-09-12T09:38:28.000Z</time>
      </trkpt>
      <trkpt lat="43.57917" lon="3.74024">
        <ele>63.85699968</ele>
        <time>2020-09-12T09:38:29.000Z</time>
      </trkpt>
      <trkpt lat="43.5792" lon="3.74024">
        <ele>63.95699968</ele>
        <time>2020-09-12T09:38:30.000Z</time>
      </trkpt>
      <trkpt lat="43.57922" lon="3.74024">
        <ele>64.05699968</ele>
        <time>2020-09-12T09:38:31.000Z</time>
      </trkpt>
      <trkpt lat="43.57925" lon="3.74024">
        <ele>64.15699968</ele>
        <time>2020-09-12T09:38:32.000Z</time>
      </trkpt>
      <trkpt lat="43.57928" lon="3.74024">
        <ele>64.25699968</ele>
        <time>2020-09-12T09:38:33.000Z</time>
      </trkpt>
      <trkpt lat="43.57931" lon="3.74024">
        <ele>64.35699968</ele>
        <time>2020-09-12T09:38:34.000Z</time>
      </trkpt>
      <trkpt lat="43.57934" lon="3.74023">
        <ele>64.45699968</ele>
        <time>2020-09-12T09:38:35.000Z</time>
      </trkpt>
      <trkpt lat="43.57937" lon="3.74021">
        <ele>64.55699968</ele>
        <time>2020-09-12T09:38:36.000Z</time>
      </trkpt>
      <trkpt lat="43.5794" lon="3.74019">
        <ele>64.65699968</ele>
        <time>2020-09-12T09:38:37.000Z</time>
      </trkpt>
      <trkpt lat="43.57942" lon="3.74016">
        <ele>64.75699968</ele>
        <time>2020-09-12T09:38:38.000Z</time>
      </trkpt>
      <trkpt lat="43.57944" lon="3.74012">
        <ele>64.85699968</ele>
        <time>2020-09-12T09:38:39.000Z</time>
      </trkpt>
      <trkpt lat="43.57946" lon="3.74008">
        <ele>64.95699968</ele>
        <time>2020-09-12T09:38:40.000Z</time>
      </trkpt>
      <trkpt lat="43.57947" lon="3.74003">
        <ele>65</ele>
        <time>2020-09-12T09:38:41.000Z</time>
      </trkpt>
      <trkpt lat="43.57949" lon="3.73999">
        <ele>65</ele>
        <time>2020-09-12T09:38:42.000Z</time>
      </trkpt>
      <trkpt lat="43.5795" lon="3.73995">
        <ele>65</ele>
        <time>2020-09-12T09:38:43.000Z</time>
      </trkpt>
      <trkpt lat="43.57951" lon="3.73991">
        <ele>65</ele>
        <time>2020-09-12T09:38:44.000Z</time>
      </trkpt>
      <trkpt lat="43.57952" lon="3.73987">
        <ele>65</ele>
        <time>2020-09-12T09:38:45.000Z</time>
      </trkpt>
      <trkpt lat="43.57953" lon="3.73983">
        <ele>65</ele>
        <time>2020-09-12T09:38:46.000Z</time>
      </trkpt>
      <trkpt lat="43.57955" lon="3.73979">
        <ele>65</ele>
        <time>2020-09-12T09:38:47.000Z</time>
      </trkpt>
      <trkpt lat="43.57956" lon="3.73976">
        <ele>65</ele>
        <time>2020-09-12T09:38:48.000Z</time>
      </trkpt>
      <trkpt lat="43.57958" lon="3.73972">
        <ele>65</ele>
        <time>2020-09-12T09:38:49.000Z</time>
      </trkpt>
      <trkpt lat="43.5796" lon="3.73969">
        <ele>65</ele>
        <time>2020-09-12T09:38:50.000Z</time>
      </trkpt>
      <trkpt lat="43.57962" lon="3.73965">
        <ele>65.05699968</ele>
        <time>2020-09-12T09:38:51.000Z</time>
      </trkpt>
      <trkpt lat="43.57964" lon="3.73961">
        <ele>65.15699968</ele>
        <time>2020-09-12T09:38:52.000Z</time>
      </trkpt>
      <trkpt lat="43.57966" lon="3.73957">
        <ele>65.25699968</ele>
        <time>2020-09-12T09:38:53.000Z</time>
      </trkpt>
      <trkpt lat="43.57969" lon="3.73954">
        <ele>65.35699968</ele>
        <time>2020-09-12T09:38:54.000Z</time>
      </trkpt>
      <trkpt lat="43.57971" lon="3.7395">
        <ele>65.45699968</ele>
        <time>2020-09-12T09:38:55.000Z</time>
      </trkpt>
      <trkpt lat="43.57973" lon="3.73947">
        <ele>65.55699968</ele>
        <time>2020-09-12T09:38:56.000Z</time>
      </trkpt>
      <trkpt lat="43.57975" lon="3.73943">
        <ele>65.65699968</ele>
        <time>2020-09-12T09:38:57.000Z</time>
      </trkpt>
      <trkpt lat="43.57977" lon="3.73939">
        <ele>65.75699968</ele>
        <time>2020-09-12T09:38:58.000Z</time>
      </trkpt>
      <trkpt lat="43.57979" lon="3.73936">
        <ele>65.85699968</ele>
        <time>2020-09-12T09:38:59.000Z</time>
      </trkpt>
      <trkpt lat="43.57981" lon="3.73932">
        <ele>65.95699968</ele>
        <time>2020-09-12T09:39:00.000Z</time>
      </trkpt>
      <trkpt lat="43.57982" lon="3.73928">
        <ele>66</ele>
        <time>2020-09-12T09:39:01.000Z</time>
      </trkpt>
      <trkpt lat="43.57984" lon="3.73924">
        <ele>66</ele>
        <time>2020-09-12T09:39:02.000Z</time>
      </trkpt>
      <trkpt lat="43.57985" lon="3.7392">
        <ele>66</ele>
        <time>2020-09-12T09:39:03.000Z</time>
      </trkpt>
      <trkpt lat="43.57987" lon="3.73917">
        <ele>66</ele>
        <time>2020-09-12T09:39:04.000Z</time>
      </trkpt>
      <trkpt lat="43.57988" lon="3.73913">
        <ele>66</ele>
        <time>2020-09-12T09:39:05.000Z</time>
      </trkpt>
      <trkpt lat="43.57989" lon="3.73909">
        <ele>66</ele>
        <time>2020-09-12T09:39:06.000Z</time>
      </trkpt>
      <trkpt lat="43.57991" lon="3.73905">
        <ele>66</ele>
        <time>2020-09-12T09:39:07.000Z</time>
      </trkpt>
      <trkpt lat="43.57992" lon="3.73901">
        <ele>66</ele>
        <time>2020-09-12T09:39:08.000Z</time>
      </trkpt>
      <trkpt lat="43.57994" lon="3.73897">
        <ele>66</ele>
        <time>2020-09-12T09:39:09.000Z</time>
      </trkpt>
      <trkpt lat="43.57996" lon="3.73893">
        <ele>66</ele>
        <time>2020-09-12T09:39:10.000Z</time>
      </trkpt>
      <trkpt lat="43.57998" lon="3.73889">
        <ele>66.05699968</ele>
        <time>2020-09-12T09:39:11.000Z</time>
      </trkpt>
      <trkpt lat="43.58" lon="3.73886">
        <ele>66.15699968</ele>
        <time>2020-09-12T09:39:12.000Z</time>
      </trkpt>
      <trkpt lat="43.58002" lon="3.73883">
        <ele>66.25699968</ele>
        <time>2020-09-12T09:39:13.000Z</time>
      </trkpt>
      <trkpt lat="43.58004" lon="3.73879">
        <ele>66.35699968</ele>
        <time>2020-09-12T09:39:14.000Z</time>
      </trkpt>
      <trkpt lat="43.58006" lon="3.73875">
        <ele>66.45699968</ele>
        <time>2020-09-12T09:39:15.000Z</time>
      </trkpt>
      <trkpt lat="43.58007" lon="3.73872">
        <ele>66.55699968</ele>
        <time>2020-09-12T09:39:16.000Z</time>
      </trkpt>
      <trkpt lat="43.58009" lon="3.73868">
        <ele>66.65699968</ele>
        <time>2020-09-12T09:39:17.000Z</time>
      </trkpt>
      <trkpt lat="43.5801" lon="3.73864">
        <ele>66.75699968</ele>
        <time>2020-09-12T09:39:18.000Z</time>
      </trkpt>
      <trkpt lat="43.58011" lon="3.73859">
        <ele>66.85699968</ele>
        <time>2020-09-12T09:39:19.000Z</time>
      </trkpt>
      <trkpt lat="43.58012" lon="3.73855">
        <ele>66.95699968</ele>
        <time>2020-09-12T09:39:20.000Z</time>
      </trkpt>
      <trkpt lat="43.58014" lon="3.73852">
        <ele>67</ele>
        <time>2020-09-12T09:39:21.000Z</time>
      </trkpt>
      <trkpt lat="43.58015" lon="3.73848">
        <ele>67</ele>
        <time>2020-09-12T09:39:22.000Z</time>
      </trkpt>
      <trkpt lat="43.58017" lon="3.73844">
        <ele>67</ele>
        <time>2020-09-12T09:39:23.000Z</time>
      </trkpt>
      <trkpt lat="43.58018" lon="3.7384">
        <ele>67</ele>
        <time>2020-09-12T09:39:24.000Z</time>
      </trkpt>
      <trkpt lat="43.5802" lon="3.73836">
        <ele>67</ele>
        <time>2020-09-12T09:39:25.000Z</time>
      </trkpt>
      <trkpt lat="43.58022" lon="3.73833">
        <ele>67</ele>
        <time>2020-09-12T09:39:26.000Z</time>
      </trkpt>
      <trkpt lat="43.58024" lon="3.73829">
        <ele>67</ele>
        <time>2020-09-12T09:39:27.000Z</time>
      </trkpt>
      <trkpt lat="43.58026" lon="3.73826">
        <ele>67</ele>
        <time>2020-09-12T09:39:28.000Z</time>
      </trkpt>
      <trkpt lat="43.58028" lon="3.73822">
        <ele>67</ele>
        <time>2020-09-12T09:39:29.000Z</time>
      </trkpt>
      <trkpt lat="43.5803" lon="3.73819">
        <ele>67</ele>
        <time>2020-09-12T09:39:30.000Z</time>
      </trkpt>
      <trkpt lat="43.58032" lon="3.73816">
        <ele>67.028836241784</ele>
        <time>2020-09-12T09:39:31.000Z</time>
      </trkpt>
      <trkpt lat="43.58034" lon="3.73812">
        <ele>67.131822819585</ele>
        <time>2020-09-12T09:39:32.000Z</time>
      </trkpt>
      <trkpt lat="43.58036" lon="3.73809">
        <ele>67.234809397385</ele>
        <time>2020-09-12T09:39:33.000Z</time>
      </trkpt>
      <trkpt lat="43.58038" lon="3.73806">
        <ele>67.337795975186</ele>
        <time>2020-09-12T09:39:34.000Z</time>
      </trkpt>
      <trkpt lat="43.5804" lon="3.73804">
        <ele>67.440782552986</ele>
        <time>2020-09-12T09:39:35.000Z</time>
      </trkpt>
      <trkpt lat="43.58043" lon="3.73801">
        <ele>67.543769130787</ele>
        <time>2020-09-12T09:39:36.000Z</time>
      </trkpt>
      <trkpt lat="43.58045" lon="3.73799">
        <ele>67.646755708587</ele>
        <time>2020-09-12T09:39:37.000Z</time>
      </trkpt>
      <trkpt lat="43.58047" lon="3.73796">
        <ele>67.749742286388</ele>
        <time>2020-09-12T09:39:38.000Z</time>
      </trkpt>
      <trkpt lat="43.58049" lon="3.73795">
        <ele>67.852728864188</ele>
        <time>2020-09-12T09:39:39.000Z</time>
      </trkpt>
      <trkpt lat="43.58051" lon="3.73793">
        <ele>67.955715441989</ele>
        <time>2020-09-12T09:39:40.000Z</time>
      </trkpt>
      <trkpt lat="43.58053" lon="3.73792">
        <ele>68.05699968</ele>
        <time>2020-09-12T09:39:41.000Z</time>
      </trkpt>
      <trkpt lat="43.58055" lon="3.73792">
        <ele>68.15699968</ele>
        <time>2020-09-12T09:39:42.000Z</time>
      </trkpt>
      <trkpt lat="43.58057" lon="3.73791">
        <ele>68.25699968</ele>
        <time>2020-09-12T09:39:43.000Z</time>
      </trkpt>
      <trkpt lat="43.58059" lon="3.7379">
        <ele>68.35699968</ele>
        <time>2020-09-12T09:39:44.000Z</time>
      </trkpt>
      <trkpt lat="43.58061" lon="3.7379">
        <ele>68.45699968</ele>
        <time>2020-09-12T09:39:45.000Z</time>
      </trkpt>
      <trkpt lat="43.58063" lon="3.73789">
        <ele>68.55699968</ele>
        <time>2020-09-12T09:39:46.000Z</time>
      </trkpt>
      <trkpt lat="43.58065" lon="3.73788">
        <ele>68.65699968</ele>
        <time>2020-09-12T09:39:47.000Z</time>
      </trkpt>
      <trkpt lat="43.58066" lon="3.73787">
        <ele>68.75699968</ele>
        <time>2020-09-12T09:39:48.000Z</time>
      </trkpt>
      <trkpt lat="43.58069" lon="3.73784">
        <ele>68.95699968</ele>
        <time>2020-09-12T09:39:50.000Z</time>
      </trkpt>
      <trkpt lat="43.5807" lon="3.73782">
        <ele>69.055339529531</ele>
        <time>2020-09-12T09:39:51.000Z</time>
      </trkpt>
      <trkpt lat="43.58071" lon="3.73779">
        <ele>69.152426968498</ele>
        <time>2020-09-12T09:39:52.000Z</time>
      </trkpt>
      <trkpt lat="43.58073" lon="3.73776">
        <ele>69.249514407465</ele>
        <time>2020-09-12T09:39:53.000Z</time>
      </trkpt>
      <trkpt lat="43.58074" lon="3.73773">
        <ele>69.346601846432</ele>
        <time>2020-09-12T09:39:54.000Z</time>
      </trkpt>
      <trkpt lat="43.58075" lon="3.7377">
        <ele>69.443689285399</ele>
        <time>2020-09-12T09:39:55.000Z</time>
      </trkpt>
      <trkpt lat="43.58076" lon="3.73768">
        <ele>69.540776724366</ele>
        <time>2020-09-12T09:39:56.000Z</time>
      </trkpt>
      <trkpt lat="43.58079" lon="3.73766">
        <ele>69.637864163333</ele>
        <time>2020-09-12T09:39:57.000Z</time>
      </trkpt>
      <trkpt lat="43.58081" lon="3.73765">
        <ele>69.7349516023</ele>
        <time>2020-09-12T09:39:58.000Z</time>
      </trkpt>
      <trkpt lat="43.58084" lon="3.73764">
        <ele>69.832039041267</ele>
        <time>2020-09-12T09:39:59.000Z</time>
      </trkpt>
      <trkpt lat="43.58086" lon="3.73763">
        <ele>69.929126480234</ele>
        <time>2020-09-12T09:40:00.000Z</time>
      </trkpt>
      <trkpt lat="43.58089" lon="3.73763">
        <ele>70</ele>
        <time>2020-09-12T09:40:01.000Z</time>
      </trkpt>
      <trkpt lat="43.58092" lon="3.73762">
        <ele>70</ele>
        <time>2020-09-12T09:40:02.000Z</time>
      </trkpt>
      <trkpt lat="43.58095" lon="3.73762">
        <ele>70</ele>
        <time>2020-09-12T09:40:03.000Z</time>
      </trkpt>
      <trkpt lat="43.58097" lon="3.73761">
        <ele>70</ele>
        <time>2020-09-12T09:40:04.000Z</time>
      </trkpt>
      <trkpt lat="43.581" lon="3.73761">
        <ele>70</ele>
        <time>2020-09-12T09:40:05.000Z</time>
      </trkpt>
      <trkpt lat="43.58102" lon="3.7376">
        <ele>70</ele>
        <time>2020-09-12T09:40:06.000Z</time>
      </trkpt>
      <trkpt lat="43.58105" lon="3.7376">
        <ele>70</ele>
        <time>2020-09-12T09:40:07.000Z</time>
      </trkpt>
      <trkpt lat="43.58107" lon="3.73759">
        <ele>70</ele>
        <time>2020-09-12T09:40:08.000Z</time>
      </trkpt>
      <trkpt lat="43.58109" lon="3.73759">
        <ele>70</ele>
        <time>2020-09-12T09:40:09.000Z</time>
      </trkpt>
      <trkpt lat="43.58112" lon="3.73759">
        <ele>70</ele>
        <time>2020-09-12T09:40:10.000Z</time>
      </trkpt>
      <trkpt lat="43.58114" lon="3.73758">
        <ele>70.05699968</ele>
        <time>2020-09-12T09:40:11.000Z</time>
      </trkpt>
      <trkpt lat="43.58117" lon="3.73758">
        <ele>70.15699968</ele>
        <time>2020-09-12T09:40:12.000Z</time>
      </trkpt>
      <trkpt lat="43.58119" lon="3.73758">
        <ele>70.25699968</ele>
        <time>2020-09-12T09:40:13.000Z</time>
      </trkpt>
      <trkpt lat="43.58122" lon="3.73758">
        <ele>70.35699968</ele>
        <time>2020-09-12T09:40:14.000Z</time>
      </trkpt>
      <trkpt lat="43.58124" lon="3.73757">
        <ele>70.45699968</ele>
        <time>2020-09-12T09:40:15.000Z</time>
      </trkpt>
      <trkpt lat="43.58127" lon="3.73756">
        <ele>70.55699968</ele>
        <time>2020-09-12T09:40:16.000Z</time>
      </trkpt>
      <trkpt lat="43.5813" lon="3.73756">
        <ele>70.65699968</ele>
        <time>2020-09-12T09:40:17.000Z</time>
      </trkpt>
      <trkpt lat="43.58132" lon="3.73755">
        <ele>70.75699968</ele>
        <time>2020-09-12T09:40:18.000Z</time>
      </trkpt>
      <trkpt lat="43.58135" lon="3.73755">
        <ele>70.85699968</ele>
        <time>2020-09-12T09:40:19.000Z</time>
      </trkpt>
      <trkpt lat="43.58138" lon="3.73755">
        <ele>70.95699968</ele>
        <time>2020-09-12T09:40:20.000Z</time>
      </trkpt>
      <trkpt lat="43.58141" lon="3.73754">
        <ele>71</ele>
        <time>2020-09-12T09:40:21.000Z</time>
      </trkpt>
      <trkpt lat="43.58144" lon="3.73753">
        <ele>71</ele>
        <time>2020-09-12T09:40:22.000Z</time>
      </trkpt>
      <trkpt lat="43.58147" lon="3.73752">
        <ele>71</ele>
        <time>2020-09-12T09:40:23.000Z</time>
      </trkpt>
      <trkpt lat="43.58149" lon="3.73751">
        <ele>71</ele>
        <time>2020-09-12T09:40:24.000Z</time>
      </trkpt>
      <trkpt lat="43.58152" lon="3.7375">
        <ele>71</ele>
        <time>2020-09-12T09:40:25.000Z</time>
      </trkpt>
      <trkpt lat="43.58155" lon="3.73749">
        <ele>71</ele>
        <time>2020-09-12T09:40:26.000Z</time>
      </trkpt>
      <trkpt lat="43.58157" lon="3.73748">
        <ele>71</ele>
        <time>2020-09-12T09:40:27.000Z</time>
      </trkpt>
      <trkpt lat="43.5816" lon="3.73746">
        <ele>71</ele>
        <time>2020-09-12T09:40:28.000Z</time>
      </trkpt>
      <trkpt lat="43.58163" lon="3.73745">
        <ele>71</ele>
        <time>2020-09-12T09:40:29.000Z</time>
      </trkpt>
      <trkpt lat="43.58166" lon="3.73744">
        <ele>71</ele>
        <time>2020-09-12T09:40:30.000Z</time>
      </trkpt>
      <trkpt lat="43.58168" lon="3.73742">
        <ele>71.055393292251</ele>
        <time>2020-09-12T09:40:31.000Z</time>
      </trkpt>
      <trkpt lat="43.58171" lon="3.73741">
        <ele>71.152575052307</ele>
        <time>2020-09-12T09:40:32.000Z</time>
      </trkpt>
      <trkpt lat="43.58174" lon="3.73739">
        <ele>71.249756812364</ele>
        <time>2020-09-12T09:40:33.000Z</time>
      </trkpt>
      <trkpt lat="43.58176" lon="3.73738">
        <ele>71.34693857242</ele>
        <time>2020-09-12T09:40:34.000Z</time>
      </trkpt>
      <trkpt lat="43.58178" lon="3.73736">
        <ele>71.444120332477</ele>
        <time>2020-09-12T09:40:35.000Z</time>
      </trkpt>
      <trkpt lat="43.5818" lon="3.73733">
        <ele>71.541302092533</ele>
        <time>2020-09-12T09:40:36.000Z</time>
      </trkpt>
      <trkpt lat="43.58181" lon="3.7373">
        <ele>71.63848385259</ele>
        <time>2020-09-12T09:40:37.000Z</time>
      </trkpt>
      <trkpt lat="43.58181" lon="3.73728">
        <ele>71.735665612646</ele>
        <time>2020-09-12T09:40:38.000Z</time>
      </trkpt>
      <trkpt lat="43.58181" lon="3.73724">
        <ele>71.930029132759</ele>
        <time>2020-09-12T09:40:40.000Z</time>
      </trkpt>
      <trkpt lat="43.58181" lon="3.7372">
        <ele>72.131822819585</ele>
        <time>2020-09-12T09:40:42.000Z</time>
      </trkpt>
      <trkpt lat="43.58184" lon="3.73716">
        <ele>72.337795975186</ele>
        <time>2020-09-12T09:40:44.000Z</time>
      </trkpt>
      <trkpt lat="43.58185" lon="3.73714">
        <ele>72.440782552986</ele>
        <time>2020-09-12T09:40:45.000Z</time>
      </trkpt>
      <trkpt lat="43.58188" lon="3.73712">
        <ele>72.543769130787</ele>
        <time>2020-09-12T09:40:46.000Z</time>
      </trkpt>
      <trkpt lat="43.5819" lon="3.7371">
        <ele>72.646755708587</ele>
        <time>2020-09-12T09:40:47.000Z</time>
      </trkpt>
      <trkpt lat="43.58192" lon="3.73709">
        <ele>72.749742286388</ele>
        <time>2020-09-12T09:40:48.000Z</time>
      </trkpt>
      <trkpt lat="43.58195" lon="3.73708">
        <ele>72.852728864188</ele>
        <time>2020-09-12T09:40:49.000Z</time>
      </trkpt>
      <trkpt lat="43.58198" lon="3.73707">
        <ele>72.955715441989</ele>
        <time>2020-09-12T09:40:50.000Z</time>
      </trkpt>
      <trkpt lat="43.58201" lon="3.73706">
        <ele>73.055393292251</ele>
        <time>2020-09-12T09:40:51.000Z</time>
      </trkpt>
      <trkpt lat="43.58204" lon="3.73705">
        <ele>73.152575052307</ele>
        <time>2020-09-12T09:40:52.000Z</time>
      </trkpt>
      <trkpt lat="43.58206" lon="3.73705">
        <ele>73.249756812364</ele>
        <time>2020-09-12T09:40:53.000Z</time>
      </trkpt>
      <trkpt lat="43.58209" lon="3.73704">
        <ele>73.34693857242</ele>
        <time>2020-09-12T09:40:54.000Z</time>
      </trkpt>
      <trkpt lat="43.58212" lon="3.73703">
        <ele>73.444120332477</ele>
        <time>2020-09-12T09:40:55.000Z</time>
      </trkpt>
      <trkpt lat="43.58215" lon="3.73701">
        <ele>73.541302092533</ele>
        <time>2020-09-12T09:40:56.000Z</time>
      </trkpt>
      <trkpt lat="43.58218" lon="3.73699">
        <ele>73.63848385259</ele>
        <time>2020-09-12T09:40:57.000Z</time>
      </trkpt>
      <trkpt lat="43.5822" lon="3.73696">
        <ele>73.735665612646</ele>
        <time>2020-09-12T09:40:58.000Z</time>
      </trkpt>
      <trkpt lat="43.58222" lon="3.73694">
        <ele>73.832847372703</ele>
        <time>2020-09-12T09:40:59.000Z</time>
      </trkpt>
      <trkpt lat="43.58225" lon="3.73692">
        <ele>73.930029132759</ele>
        <time>2020-09-12T09:41:00.000Z</time>
      </trkpt>
      <trkpt lat="43.58227" lon="3.73689">
        <ele>74</ele>
        <time>2020-09-12T09:41:01.000Z</time>
      </trkpt>
      <trkpt lat="43.5823" lon="3.73687">
        <ele>74</ele>
        <time>2020-09-12T09:41:02.000Z</time>
      </trkpt>
      <trkpt lat="43.58232" lon="3.73685">
        <ele>74</ele>
        <time>2020-09-12T09:41:03.000Z</time>
      </trkpt>
      <trkpt lat="43.58234" lon="3.73683">
        <ele>74</ele>
        <time>2020-09-12T09:41:04.000Z</time>
      </trkpt>
      <trkpt lat="43.58237" lon="3.73681">
        <ele>74</ele>
        <time>2020-09-12T09:41:05.000Z</time>
      </trkpt>
      <trkpt lat="43.58239" lon="3.73679">
        <ele>74</ele>
        <time>2020-09-12T09:41:06.000Z</time>
      </trkpt>
      <trkpt lat="43.58241" lon="3.73676">
        <ele>74</ele>
        <time>2020-09-12T09:41:07.000Z</time>
      </trkpt>
      <trkpt lat="43.58242" lon="3.73673">
        <ele>74</ele>
        <time>2020-09-12T09:41:08.000Z</time>
      </trkpt>
      <trkpt lat="43.58243" lon="3.7367">
        <ele>74</ele>
        <time>2020-09-12T09:41:09.000Z</time>
      </trkpt>
      <trkpt lat="43.58245" lon="3.73666">
        <ele>74</ele>
        <time>2020-09-12T09:41:10.000Z</time>
      </trkpt>
      <trkpt lat="43.58246" lon="3.73663">
        <ele>74</ele>
        <time>2020-09-12T09:41:11.000Z</time>
      </trkpt>
      <trkpt lat="43.58247" lon="3.73661">
        <ele>74</ele>
        <time>2020-09-12T09:41:12.000Z</time>
      </trkpt>
      <trkpt lat="43.58249" lon="3.73658">
        <ele>74</ele>
        <time>2020-09-12T09:41:13.000Z</time>
      </trkpt>
      <trkpt lat="43.58251" lon="3.73655">
        <ele>74</ele>
        <time>2020-09-12T09:41:14.000Z</time>
      </trkpt>
      <trkpt lat="43.58253" lon="3.73652">
        <ele>74</ele>
        <time>2020-09-12T09:41:15.000Z</time>
      </trkpt>
      <trkpt lat="43.58256" lon="3.73649">
        <ele>74</ele>
        <time>2020-09-12T09:41:16.000Z</time>
      </trkpt>
      <trkpt lat="43.58258" lon="3.73645">
        <ele>74</ele>
        <time>2020-09-12T09:41:17.000Z</time>
      </trkpt>
      <trkpt lat="43.5826" lon="3.73641">
        <ele>74</ele>
        <time>2020-09-12T09:41:18.000Z</time>
      </trkpt>
      <trkpt lat="43.58262" lon="3.73636">
        <ele>74</ele>
        <time>2020-09-12T09:41:19.000Z</time>
      </trkpt>
      <trkpt lat="43.58263" lon="3.73632">
        <ele>74</ele>
        <time>2020-09-12T09:41:20.000Z</time>
      </trkpt>
      <trkpt lat="43.58263" lon="3.73629">
        <ele>74.05699968</ele>
        <time>2020-09-12T09:41:21.000Z</time>
      </trkpt>
      <trkpt lat="43.58264" lon="3.73624">
        <ele>74.25699968</ele>
        <time>2020-09-12T09:41:23.000Z</time>
      </trkpt>
      <trkpt lat="43.58266" lon="3.7362">
        <ele>74.45699968</ele>
        <time>2020-09-12T09:41:25.000Z</time>
      </trkpt>
      <trkpt lat="43.58267" lon="3.73618">
        <ele>74.55699968</ele>
        <time>2020-09-12T09:41:26.000Z</time>
      </trkpt>
      <trkpt lat="43.58268" lon="3.73614">
        <ele>74.65699968</ele>
        <time>2020-09-12T09:41:27.000Z</time>
      </trkpt>
      <trkpt lat="43.58269" lon="3.73611">
        <ele>74.75699968</ele>
        <time>2020-09-12T09:41:28.000Z</time>
      </trkpt>
      <trkpt lat="43.5827" lon="3.73607">
        <ele>74.85699968</ele>
        <time>2020-09-12T09:41:29.000Z</time>
      </trkpt>
      <trkpt lat="43.5827" lon="3.73604">
        <ele>74.95699968</ele>
        <time>2020-09-12T09:41:30.000Z</time>
      </trkpt>
      <trkpt lat="43.5827" lon="3.736">
        <ele>75</ele>
        <time>2020-09-12T09:41:31.000Z</time>
      </trkpt>
      <trkpt lat="43.58269" lon="3.73596">
        <ele>75</ele>
        <time>2020-09-12T09:41:32.000Z</time>
      </trkpt>
      <trkpt lat="43.58269" lon="3.73593">
        <ele>75</ele>
        <time>2020-09-12T09:41:33.000Z</time>
      </trkpt>
      <trkpt lat="43.58269" lon="3.73589">
        <ele>75</ele>
        <time>2020-09-12T09:41:34.000Z</time>
      </trkpt>
      <trkpt lat="43.58269" lon="3.73585">
        <ele>75</ele>
        <time>2020-09-12T09:41:35.000Z</time>
      </trkpt>
      <trkpt lat="43.58269" lon="3.73581">
        <ele>75</ele>
        <time>2020-09-12T09:41:36.000Z</time>
      </trkpt>
      <trkpt lat="43.58269" lon="3.73577">
        <ele>75</ele>
        <time>2020-09-12T09:41:37.000Z</time>
      </trkpt>
      <trkpt lat="43.58269" lon="3.73573">
        <ele>75</ele>
        <time>2020-09-12T09:41:38.000Z</time>
      </trkpt>
      <trkpt lat="43.58269" lon="3.7357">
        <ele>75</ele>
        <time>2020-09-12T09:41:39.000Z</time>
      </trkpt>
      <trkpt lat="43.58269" lon="3.73566">
        <ele>75</ele>
        <time>2020-09-12T09:41:40.000Z</time>
      </trkpt>
      <trkpt lat="43.58268" lon="3.73563">
        <ele>75.05699968</ele>
        <time>2020-09-12T09:41:41.000Z</time>
      </trkpt>
      <trkpt lat="43.58266" lon="3.7356">
        <ele>75.15699968</ele>
        <time>2020-09-12T09:41:42.000Z</time>
      </trkpt>
      <trkpt lat="43.58265" lon="3.73557">
        <ele>75.25699968</ele>
        <time>2020-09-12T09:41:43.000Z</time>
      </trkpt>
      <trkpt lat="43.58264" lon="3.73554">
        <ele>75.35699968</ele>
        <time>2020-09-12T09:41:44.000Z</time>
      </trkpt>
      <trkpt lat="43.58263" lon="3.73552">
        <ele>75.45699968</ele>
        <time>2020-09-12T09:41:45.000Z</time>
      </trkpt>
      <trkpt lat="43.58262" lon="3.7355">
        <ele>75.55699968</ele>
        <time>2020-09-12T09:41:46.000Z</time>
      </trkpt>
      <trkpt lat="43.58259" lon="3.73548">
        <ele>75.75699968</ele>
        <time>2020-09-12T09:41:48.000Z</time>
      </trkpt>
      <trkpt lat="43.58255" lon="3.73548">
        <ele>75.95699968</ele>
        <time>2020-09-12T09:41:50.000Z</time>
      </trkpt>
      <trkpt lat="43.58252" lon="3.73546">
        <ele>76.15699968</ele>
        <time>2020-09-12T09:41:52.000Z</time>
      </trkpt>
      <trkpt lat="43.58249" lon="3.73543">
        <ele>76.35699968</ele>
        <time>2020-09-12T09:41:54.000Z</time>
      </trkpt>
      <trkpt lat="43.58248" lon="3.73542">
        <ele>76.45699968</ele>
        <time>2020-09-12T09:41:55.000Z</time>
      </trkpt>
      <trkpt lat="43.58247" lon="3.73537">
        <ele>76.65699968</ele>
        <time>2020-09-12T09:41:57.000Z</time>
      </trkpt>
      <trkpt lat="43.58247" lon="3.73534">
        <ele>76.75699968</ele>
        <time>2020-09-12T09:41:58.000Z</time>
      </trkpt>
      <trkpt lat="43.58247" lon="3.73531">
        <ele>76.85699968</ele>
        <time>2020-09-12T09:41:59.000Z</time>
      </trkpt>
      <trkpt lat="43.58247" lon="3.73528">
        <ele>76.95699968</ele>
        <time>2020-09-12T09:42:00.000Z</time>
      </trkpt>
      <trkpt lat="43.58247" lon="3.73524">
        <ele>77</ele>
        <time>2020-09-12T09:42:01.000Z</time>
      </trkpt>
      <trkpt lat="43.58246" lon="3.73521">
        <ele>77</ele>
        <time>2020-09-12T09:42:02.000Z</time>
      </trkpt>
      <trkpt lat="43.58245" lon="3.73518">
        <ele>77</ele>
        <time>2020-09-12T09:42:03.000Z</time>
      </trkpt>
      <trkpt lat="43.58244" lon="3.73516">
        <ele>77</ele>
        <time>2020-09-12T09:42:04.000Z</time>
      </trkpt>
      <trkpt lat="43.58243" lon="3.73513">
        <ele>77</ele>
        <time>2020-09-12T09:42:05.000Z</time>
      </trkpt>
      <trkpt lat="43.58243" lon="3.73509">
        <ele>77</ele>
        <time>2020-09-12T09:42:06.000Z</time>
      </trkpt>
      <trkpt lat="43.58244" lon="3.73506">
        <ele>77</ele>
        <time>2020-09-12T09:42:07.000Z</time>
      </trkpt>
      <trkpt lat="43.58245" lon="3.73504">
        <ele>77</ele>
        <time>2020-09-12T09:42:08.000Z</time>
      </trkpt>
      <trkpt lat="43.58247" lon="3.73504">
        <ele>77</ele>
        <time>2020-09-12T09:42:09.000Z</time>
      </trkpt>
      <trkpt lat="43.58249" lon="3.73506">
        <ele>77</ele>
        <time>2020-09-12T09:42:10.000Z</time>
      </trkpt>
      <trkpt lat="43.58251" lon="3.73507">
        <ele>76.920168443848</ele>
        <time>2020-09-12T09:42:11.000Z</time>
      </trkpt>
      <trkpt lat="43.58252" lon="3.73507">
        <ele>76</ele>
        <time>2020-09-12T09:42:18.000Z</time>
      </trkpt>
      <trkpt lat="43.58259" lon="3.73498">
        <ele>76</ele>
        <time>2020-09-12T09:43:05.000Z</time>
      </trkpt>
      <trkpt lat="43.58259" lon="3.73497">
        <ele>76</ele>
        <time>2020-09-12T09:43:06.000Z</time>
      </trkpt>
      <trkpt lat="43.58259" lon="3.73497">
        <ele>75.991424788836</ele>
        <time>2020-09-12T09:43:12.000Z</time>
      </trkpt>
      <trkpt lat="43.58267" lon="3.73505">
        <ele>74.009453445378</ele>
        <time>2020-09-12T09:43:33.000Z</time>
      </trkpt>
      <trkpt lat="43.58268" lon="3.73507">
        <ele>74.114495462185</ele>
        <time>2020-09-12T09:43:34.000Z</time>
      </trkpt>
      <trkpt lat="43.58269" lon="3.73509">
        <ele>74.219537478992</ele>
        <time>2020-09-12T09:43:35.000Z</time>
      </trkpt>
      <trkpt lat="43.5827" lon="3.73512">
        <ele>74.324579495798</ele>
        <time>2020-09-12T09:43:36.000Z</time>
      </trkpt>
      <trkpt lat="43.58272" lon="3.73513">
        <ele>74.429621512605</ele>
        <time>2020-09-12T09:43:37.000Z</time>
      </trkpt>
      <trkpt lat="43.58274" lon="3.73515">
        <ele>74.534663529412</ele>
        <time>2020-09-12T09:43:38.000Z</time>
      </trkpt>
      <trkpt lat="43.58276" lon="3.73517">
        <ele>74.639705546218</ele>
        <time>2020-09-12T09:43:39.000Z</time>
      </trkpt>
      <trkpt lat="43.58277" lon="3.7352">
        <ele>74.744747563025</ele>
        <time>2020-09-12T09:43:40.000Z</time>
      </trkpt>
      <trkpt lat="43.58278" lon="3.73522">
        <ele>74.849789579832</ele>
        <time>2020-09-12T09:43:41.000Z</time>
      </trkpt>
      <trkpt lat="43.58279" lon="3.73525">
        <ele>74.954831596639</ele>
        <time>2020-09-12T09:43:42.000Z</time>
      </trkpt>
      <trkpt lat="43.58281" lon="3.73527">
        <ele>75</ele>
        <time>2020-09-12T09:43:43.000Z</time>
      </trkpt>
      <trkpt lat="43.58282" lon="3.73529">
        <ele>75</ele>
        <time>2020-09-12T09:43:44.000Z</time>
      </trkpt>
      <trkpt lat="43.58284" lon="3.73531">
        <ele>75</ele>
        <time>2020-09-12T09:43:45.000Z</time>
      </trkpt>
      <trkpt lat="43.58285" lon="3.73534">
        <ele>75</ele>
        <time>2020-09-12T09:43:46.000Z</time>
      </trkpt>
      <trkpt lat="43.58285" lon="3.73538">
        <ele>75</ele>
        <time>2020-09-12T09:43:47.000Z</time>
      </trkpt>
      <trkpt lat="43.58286" lon="3.73542">
        <ele>75</ele>
        <time>2020-09-12T09:43:48.000Z</time>
      </trkpt>
      <trkpt lat="43.58286" lon="3.73546">
        <ele>75</ele>
        <time>2020-09-12T09:43:49.000Z</time>
      </trkpt>
      <trkpt lat="43.58287" lon="3.7355">
        <ele>75</ele>
        <time>2020-09-12T09:43:50.000Z</time>
      </trkpt>
      <trkpt lat="43.58288" lon="3.73554">
        <ele>75</ele>
        <time>2020-09-12T09:43:51.000Z</time>
      </trkpt>
      <trkpt lat="43.58288" lon="3.73558">
        <ele>75</ele>
        <time>2020-09-12T09:43:52.000Z</time>
      </trkpt>
      <trkpt lat="43.58289" lon="3.73562">
        <ele>75</ele>
        <time>2020-09-12T09:43:53.000Z</time>
      </trkpt>
      <trkpt lat="43.58289" lon="3.73567">
        <ele>75</ele>
        <time>2020-09-12T09:43:54.000Z</time>
      </trkpt>
      <trkpt lat="43.5829" lon="3.73572">
        <ele>75</ele>
        <time>2020-09-12T09:43:55.000Z</time>
      </trkpt>
      <trkpt lat="43.58289" lon="3.73577">
        <ele>75</ele>
        <time>2020-09-12T09:43:56.000Z</time>
      </trkpt>
      <trkpt lat="43.58288" lon="3.73582">
        <ele>75</ele>
        <time>2020-09-12T09:43:57.000Z</time>
      </trkpt>
      <trkpt lat="43.58287" lon="3.73587">
        <ele>75</ele>
        <time>2020-09-12T09:43:58.000Z</time>
      </trkpt>
      <trkpt lat="43.58285" lon="3.73592">
        <ele>75</ele>
        <time>2020-09-12T09:43:59.000Z</time>
      </trkpt>
      <trkpt lat="43.58284" lon="3.73598">
        <ele>75</ele>
        <time>2020-09-12T09:44:00.000Z</time>
      </trkpt>
      <trkpt lat="43.58283" lon="3.73603">
        <ele>75</ele>
        <time>2020-09-12T09:44:01.000Z</time>
      </trkpt>
      <trkpt lat="43.58281" lon="3.73609">
        <ele>75</ele>
        <time>2020-09-12T09:44:02.000Z</time>
      </trkpt>
      <trkpt lat="43.5828" lon="3.73614">
        <ele>74.944660470469</ele>
        <time>2020-09-12T09:44:03.000Z</time>
      </trkpt>
      <trkpt lat="43.58278" lon="3.7362">
        <ele>74.847573031502</ele>
        <time>2020-09-12T09:44:04.000Z</time>
      </trkpt>
      <trkpt lat="43.58277" lon="3.73625">
        <ele>74.750485592535</ele>
        <time>2020-09-12T09:44:05.000Z</time>
      </trkpt>
      <trkpt lat="43.58275" lon="3.7363">
        <ele>74.653398153568</ele>
        <time>2020-09-12T09:44:06.000Z</time>
      </trkpt>
      <trkpt lat="43.58273" lon="3.73634">
        <ele>74.556310714601</ele>
        <time>2020-09-12T09:44:07.000Z</time>
      </trkpt>
      <trkpt lat="43.58271" lon="3.73637">
        <ele>74.459223275634</ele>
        <time>2020-09-12T09:44:08.000Z</time>
      </trkpt>
      <trkpt lat="43.58268" lon="3.73641">
        <ele>74.362135836667</ele>
        <time>2020-09-12T09:44:09.000Z</time>
      </trkpt>
      <trkpt lat="43.58267" lon="3.73645">
        <ele>74.2650483977</ele>
        <time>2020-09-12T09:44:10.000Z</time>
      </trkpt>
      <trkpt lat="43.58265" lon="3.7365">
        <ele>74.167960958733</ele>
        <time>2020-09-12T09:44:11.000Z</time>
      </trkpt>
      <trkpt lat="43.58264" lon="3.73655">
        <ele>74.070873519766</ele>
        <time>2020-09-12T09:44:12.000Z</time>
      </trkpt>
      <trkpt lat="43.58263" lon="3.73658">
        <ele>74</ele>
        <time>2020-09-12T09:44:13.000Z</time>
      </trkpt>
      <trkpt lat="43.58263" lon="3.73658">
        <ele>74</ele>
        <time>2020-09-12T09:44:20.000Z</time>
      </trkpt>
      <trkpt lat="43.58266" lon="3.73662">
        <ele>74.036524868399</ele>
        <time>2020-09-12T09:44:31.000Z</time>
      </trkpt>
      <trkpt lat="43.58268" lon="3.73665">
        <ele>74.233958297006</ele>
        <time>2020-09-12T09:44:33.000Z</time>
      </trkpt>
      <trkpt lat="43.58269" lon="3.73669">
        <ele>74.431391725612</ele>
        <time>2020-09-12T09:44:35.000Z</time>
      </trkpt>
      <trkpt lat="43.58269" lon="3.73672">
        <ele>74.530108439916</ele>
        <time>2020-09-12T09:44:36.000Z</time>
      </trkpt>
      <trkpt lat="43.58268" lon="3.73675">
        <ele>74.628825154219</ele>
        <time>2020-09-12T09:44:37.000Z</time>
      </trkpt>
      <trkpt lat="43.58268" lon="3.73679">
        <ele>74.727541868523</ele>
        <time>2020-09-12T09:44:38.000Z</time>
      </trkpt>
      <trkpt lat="43.58267" lon="3.73682">
        <ele>74.826258582826</ele>
        <time>2020-09-12T09:44:39.000Z</time>
      </trkpt>
      <trkpt lat="43.58267" lon="3.73686">
        <ele>74.924975297129</ele>
        <time>2020-09-12T09:44:40.000Z</time>
      </trkpt>
      <trkpt lat="43.58267" lon="3.73689">
        <ele>75</ele>
        <time>2020-09-12T09:44:41.000Z</time>
      </trkpt>
      <trkpt lat="43.58267" lon="3.73693">
        <ele>75</ele>
        <time>2020-09-12T09:44:42.000Z</time>
      </trkpt>
      <trkpt lat="43.58267" lon="3.73696">
        <ele>75</ele>
        <time>2020-09-12T09:44:43.000Z</time>
      </trkpt>
      <trkpt lat="43.58266" lon="3.737">
        <ele>75</ele>
        <time>2020-09-12T09:44:44.000Z</time>
      </trkpt>
      <trkpt lat="43.58265" lon="3.73704">
        <ele>75</ele>
        <time>2020-09-12T09:44:45.000Z</time>
      </trkpt>
      <trkpt lat="43.58264" lon="3.73708">
        <ele>75</ele>
        <time>2020-09-12T09:44:46.000Z</time>
      </trkpt>
      <trkpt lat="43.58263" lon="3.73712">
        <ele>75</ele>
        <time>2020-09-12T09:44:47.000Z</time>
      </trkpt>
      <trkpt lat="43.58262" lon="3.73716">
        <ele>75</ele>
        <time>2020-09-12T09:44:48.000Z</time>
      </trkpt>
      <trkpt lat="43.5826" lon="3.73721">
        <ele>75</ele>
        <time>2020-09-12T09:44:49.000Z</time>
      </trkpt>
      <trkpt lat="43.58258" lon="3.73725">
        <ele>75</ele>
        <time>2020-09-12T09:44:50.000Z</time>
      </trkpt>
      <trkpt lat="43.58257" lon="3.73729">
        <ele>75</ele>
        <time>2020-09-12T09:44:51.000Z</time>
      </trkpt>
      <trkpt lat="43.58257" lon="3.73732">
        <ele>75</ele>
        <time>2020-09-12T09:44:52.000Z</time>
      </trkpt>
      <trkpt lat="43.58257" lon="3.73735">
        <ele>75</ele>
        <time>2020-09-12T09:44:53.000Z</time>
      </trkpt>
      <trkpt lat="43.58256" lon="3.73737">
        <ele>75</ele>
        <time>2020-09-12T09:44:54.000Z</time>
      </trkpt>
      <trkpt lat="43.58253" lon="3.7374">
        <ele>75</ele>
        <time>2020-09-12T09:44:56.000Z</time>
      </trkpt>
      <trkpt lat="43.58251" lon="3.73741">
        <ele>75</ele>
        <time>2020-09-12T09:44:57.000Z</time>
      </trkpt>
      <trkpt lat="43.58249" lon="3.73743">
        <ele>75</ele>
        <time>2020-09-12T09:44:58.000Z</time>
      </trkpt>
      <trkpt lat="43.58248" lon="3.73746">
        <ele>75</ele>
        <time>2020-09-12T09:44:59.000Z</time>
      </trkpt>
      <trkpt lat="43.58245" lon="3.73749">
        <ele>75</ele>
        <time>2020-09-12T09:45:00.000Z</time>
      </trkpt>
      <trkpt lat="43.58243" lon="3.73752">
        <ele>75</ele>
        <time>2020-09-12T09:45:01.000Z</time>
      </trkpt>
      <trkpt lat="43.5824" lon="3.73755">
        <ele>75</ele>
        <time>2020-09-12T09:45:02.000Z</time>
      </trkpt>
      <trkpt lat="43.58237" lon="3.73758">
        <ele>75</ele>
        <time>2020-09-12T09:45:03.000Z</time>
      </trkpt>
      <trkpt lat="43.58234" lon="3.73761">
        <ele>75</ele>
        <time>2020-09-12T09:45:04.000Z</time>
      </trkpt>
      <trkpt lat="43.58232" lon="3.73764">
        <ele>75</ele>
        <time>2020-09-12T09:45:05.000Z</time>
      </trkpt>
      <trkpt lat="43.58229" lon="3.73767">
        <ele>75</ele>
        <time>2020-09-12T09:45:06.000Z</time>
      </trkpt>
      <trkpt lat="43.58227" lon="3.73771">
        <ele>75</ele>
        <time>2020-09-12T09:45:07.000Z</time>
      </trkpt>
      <trkpt lat="43.58224" lon="3.73773">
        <ele>75</ele>
        <time>2020-09-12T09:45:08.000Z</time>
      </trkpt>
      <trkpt lat="43.58222" lon="3.73776">
        <ele>75</ele>
        <time>2020-09-12T09:45:09.000Z</time>
      </trkpt>
      <trkpt lat="43.5822" lon="3.73778">
        <ele>75</ele>
        <time>2020-09-12T09:45:10.000Z</time>
      </trkpt>
      <trkpt lat="43.58219" lon="3.7378">
        <ele>75</ele>
        <time>2020-09-12T09:45:11.000Z</time>
      </trkpt>
      <trkpt lat="43.58218" lon="3.73783">
        <ele>75</ele>
        <time>2020-09-12T09:45:12.000Z</time>
      </trkpt>
      <trkpt lat="43.58217" lon="3.73785">
        <ele>75</ele>
        <time>2020-09-12T09:45:13.000Z</time>
      </trkpt>
      <trkpt lat="43.58215" lon="3.73787">
        <ele>75</ele>
        <time>2020-09-12T09:45:14.000Z</time>
      </trkpt>
      <trkpt lat="43.58214" lon="3.73789">
        <ele>75</ele>
        <time>2020-09-12T09:45:15.000Z</time>
      </trkpt>
      <trkpt lat="43.58213" lon="3.7379">
        <ele>75</ele>
        <time>2020-09-12T09:45:16.000Z</time>
      </trkpt>
      <trkpt lat="43.58211" lon="3.73792">
        <ele>75</ele>
        <time>2020-09-12T09:45:17.000Z</time>
      </trkpt>
      <trkpt lat="43.5821" lon="3.73794">
        <ele>75</ele>
        <time>2020-09-12T09:45:18.000Z</time>
      </trkpt>
      <trkpt lat="43.58208" lon="3.73797">
        <ele>75</ele>
        <time>2020-09-12T09:45:19.000Z</time>
      </trkpt>
      <trkpt lat="43.58207" lon="3.738">
        <ele>75</ele>
        <time>2020-09-12T09:45:20.000Z</time>
      </trkpt>
      <trkpt lat="43.58206" lon="3.73802">
        <ele>75.055393292251</ele>
        <time>2020-09-12T09:45:21.000Z</time>
      </trkpt>
      <trkpt lat="43.58206" lon="3.73806">
        <ele>75.249756812364</ele>
        <time>2020-09-12T09:45:23.000Z</time>
      </trkpt>
      <trkpt lat="43.58206" lon="3.7381">
        <ele>75.444120332477</ele>
        <time>2020-09-12T09:45:25.000Z</time>
      </trkpt>
      <trkpt lat="43.58204" lon="3.73814">
        <ele>75.63848385259</ele>
        <time>2020-09-12T09:45:27.000Z</time>
      </trkpt>
      <trkpt lat="43.58204" lon="3.73818">
        <ele>75.832847372703</ele>
        <time>2020-09-12T09:45:29.000Z</time>
      </trkpt>
      <trkpt lat="43.58204" lon="3.73822">
        <ele>76.028836241784</ele>
        <time>2020-09-12T09:45:31.000Z</time>
      </trkpt>
      <trkpt lat="43.58202" lon="3.73825">
        <ele>76.234809397385</ele>
        <time>2020-09-12T09:45:33.000Z</time>
      </trkpt>
      <trkpt lat="43.58201" lon="3.73828">
        <ele>76.440782552986</ele>
        <time>2020-09-12T09:45:35.000Z</time>
      </trkpt>
      <trkpt lat="43.582" lon="3.73831">
        <ele>76.646755708587</ele>
        <time>2020-09-12T09:45:37.000Z</time>
      </trkpt>
      <trkpt lat="43.58201" lon="3.73833">
        <ele>76.955715441989</ele>
        <time>2020-09-12T09:45:40.000Z</time>
      </trkpt>
      <trkpt lat="43.58203" lon="3.73832">
        <ele>77</ele>
        <time>2020-09-12T09:45:45.000Z</time>
      </trkpt>
      <trkpt lat="43.58205" lon="3.73832">
        <ele>77</ele>
        <time>2020-09-12T09:45:47.000Z</time>
      </trkpt>
      <trkpt lat="43.58208" lon="3.73831">
        <ele>77</ele>
        <time>2020-09-12T09:45:49.000Z</time>
      </trkpt>
      <trkpt lat="43.58211" lon="3.73831">
        <ele>77.054107609849</ele>
        <time>2020-09-12T09:45:51.000Z</time>
      </trkpt>
      <trkpt lat="43.58213" lon="3.73833">
        <ele>77.254508539965</ele>
        <time>2020-09-12T09:45:53.000Z</time>
      </trkpt>
      <trkpt lat="43.58215" lon="3.73836">
        <ele>77.454909470082</ele>
        <time>2020-09-12T09:45:55.000Z</time>
      </trkpt>
      <trkpt lat="43.58217" lon="3.73839">
        <ele>77.655310400199</ele>
        <time>2020-09-12T09:45:57.000Z</time>
      </trkpt>
      <trkpt lat="43.5822" lon="3.73843">
        <ele>77.855711330316</ele>
        <time>2020-09-12T09:45:59.000Z</time>
      </trkpt>
      <trkpt lat="43.58222" lon="3.73846">
        <ele>78.112</ele>
        <time>2020-09-12T09:46:01.000Z</time>
      </trkpt>
      <trkpt lat="43.58225" lon="3.73849">
        <ele>78.512</ele>
        <time>2020-09-12T09:46:03.000Z</time>
      </trkpt>
      <trkpt lat="43.58227" lon="3.73852">
        <ele>78.912</ele>
        <time>2020-09-12T09:46:05.000Z</time>
      </trkpt>
      <trkpt lat="43.5823" lon="3.73855">
        <ele>79.312</ele>
        <time>2020-09-12T09:46:07.000Z</time>
      </trkpt>
      <trkpt lat="43.58233" lon="3.73858">
        <ele>79.712</ele>
        <time>2020-09-12T09:46:09.000Z</time>
      </trkpt>
      <trkpt lat="43.58235" lon="3.73861">
        <ele>80.0560560381</ele>
        <time>2020-09-12T09:46:11.000Z</time>
      </trkpt>
      <trkpt lat="43.58237" lon="3.73865">
        <ele>80.256256174172</ele>
        <time>2020-09-12T09:46:13.000Z</time>
      </trkpt>
      <trkpt lat="43.58239" lon="3.73869">
        <ele>80.456456310244</ele>
        <time>2020-09-12T09:46:15.000Z</time>
      </trkpt>
      <trkpt lat="43.5824" lon="3.73873">
        <ele>80.656656446316</ele>
        <time>2020-09-12T09:46:17.000Z</time>
      </trkpt>
      <trkpt lat="43.58242" lon="3.73878">
        <ele>80.856856582388</ele>
        <time>2020-09-12T09:46:19.000Z</time>
      </trkpt>
      <trkpt lat="43.58244" lon="3.73881">
        <ele>81.05699968</ele>
        <time>2020-09-12T09:46:21.000Z</time>
      </trkpt>
      <trkpt lat="43.58245" lon="3.73884">
        <ele>81.25699968</ele>
        <time>2020-09-12T09:46:23.000Z</time>
      </trkpt>
      <trkpt lat="43.58247" lon="3.73886">
        <ele>81.45699968</ele>
        <time>2020-09-12T09:46:25.000Z</time>
      </trkpt>
      <trkpt lat="43.5825" lon="3.73887">
        <ele>81.65699968</ele>
        <time>2020-09-12T09:46:27.000Z</time>
      </trkpt>
      <trkpt lat="43.5825" lon="3.73887">
        <ele>82.01376099206</ele>
        <time>2020-09-12T09:46:34.000Z</time>
      </trkpt>
      <trkpt lat="43.58255" lon="3.73894">
        <ele>83</ele>
        <time>2020-09-12T09:46:47.000Z</time>
      </trkpt>
      <trkpt lat="43.58256" lon="3.73896">
        <ele>83</ele>
        <time>2020-09-12T09:46:52.000Z</time>
      </trkpt>
      <trkpt lat="43.58258" lon="3.739">
        <ele>83</ele>
        <time>2020-09-12T09:46:55.000Z</time>
      </trkpt>
      <trkpt lat="43.58259" lon="3.73901">
        <ele>83.18522312099</ele>
        <time>2020-09-12T09:46:56.000Z</time>
      </trkpt>
      <trkpt lat="43.58262" lon="3.73905">
        <ele>83.601456350121</ele>
        <time>2020-09-12T09:46:58.000Z</time>
      </trkpt>
      <trkpt lat="43.58264" lon="3.73908">
        <ele>84.017689579251</ele>
        <time>2020-09-12T09:47:00.000Z</time>
      </trkpt>
      <trkpt lat="43.58267" lon="3.73911">
        <ele>84.433922808382</ele>
        <time>2020-09-12T09:47:02.000Z</time>
      </trkpt>
      <trkpt lat="43.58269" lon="3.73912">
        <ele>84.642039422948</ele>
        <time>2020-09-12T09:47:03.000Z</time>
      </trkpt>
      <trkpt lat="43.58272" lon="3.73914">
        <ele>85.028</ele>
        <time>2020-09-12T09:47:05.000Z</time>
      </trkpt>
      <trkpt lat="43.58275" lon="3.73915">
        <ele>85.228</ele>
        <time>2020-09-12T09:47:07.000Z</time>
      </trkpt>
      <trkpt lat="43.58279" lon="3.73915">
        <ele>85.428</ele>
        <time>2020-09-12T09:47:09.000Z</time>
      </trkpt>
      <trkpt lat="43.58281" lon="3.73915">
        <ele>85.528</ele>
        <time>2020-09-12T09:47:10.000Z</time>
      </trkpt>
      <trkpt lat="43.58284" lon="3.73916">
        <ele>85.728</ele>
        <time>2020-09-12T09:47:12.000Z</time>
      </trkpt>
      <trkpt lat="43.58286" lon="3.73916">
        <ele>85.828</ele>
        <time>2020-09-12T09:47:13.000Z</time>
      </trkpt>
      <trkpt lat="43.58288" lon="3.73917">
        <ele>85.928</ele>
        <time>2020-09-12T09:47:14.000Z</time>
      </trkpt>
      <trkpt lat="43.5829" lon="3.73917">
        <ele>86.027944129625</ele>
        <time>2020-09-12T09:47:15.000Z</time>
      </trkpt>
      <trkpt lat="43.58291" lon="3.73918">
        <ele>86.127744592571</ele>
        <time>2020-09-12T09:47:16.000Z</time>
      </trkpt>
      <trkpt lat="43.58293" lon="3.73919">
        <ele>86.227545055518</ele>
        <time>2020-09-12T09:47:17.000Z</time>
      </trkpt>
      <trkpt lat="43.58296" lon="3.73921">
        <ele>86.427145981411</ele>
        <time>2020-09-12T09:47:19.000Z</time>
      </trkpt>
      <trkpt lat="43.58298" lon="3.73923">
        <ele>86.526946444357</ele>
        <time>2020-09-12T09:47:20.000Z</time>
      </trkpt>
      <trkpt lat="43.583" lon="3.73926">
        <ele>86.72654737025</ele>
        <time>2020-09-12T09:47:22.000Z</time>
      </trkpt>
      <trkpt lat="43.58301" lon="3.73931">
        <ele>86.926148296143</ele>
        <time>2020-09-12T09:47:24.000Z</time>
      </trkpt>
      <trkpt lat="43.58303" lon="3.73934">
        <ele>87.126379657648</ele>
        <time>2020-09-12T09:47:26.000Z</time>
      </trkpt>
      <trkpt lat="43.58306" lon="3.73935">
        <ele>87.326981269908</ele>
        <time>2020-09-12T09:47:28.000Z</time>
      </trkpt>
      <trkpt lat="43.58307" lon="3.73935">
        <ele>87.427282076037</ele>
        <time>2020-09-12T09:47:29.000Z</time>
      </trkpt>
      <trkpt lat="43.58309" lon="3.73936">
        <ele>87.527582882167</ele>
        <time>2020-09-12T09:47:30.000Z</time>
      </trkpt>
      <trkpt lat="43.58311" lon="3.73938">
        <ele>87.627883688297</ele>
        <time>2020-09-12T09:47:31.000Z</time>
      </trkpt>
      <trkpt lat="43.58312" lon="3.7394">
        <ele>87.728184494426</ele>
        <time>2020-09-12T09:47:32.000Z</time>
      </trkpt>
      <trkpt lat="43.58313" lon="3.73942">
        <ele>87.828485300556</ele>
        <time>2020-09-12T09:47:33.000Z</time>
      </trkpt>
      <trkpt lat="43.58314" lon="3.73944">
        <ele>87.928786106685</ele>
        <time>2020-09-12T09:47:34.000Z</time>
      </trkpt>
      <trkpt lat="43.58315" lon="3.73946">
        <ele>88.029835061728</ele>
        <time>2020-09-12T09:47:35.000Z</time>
      </trkpt>
      <trkpt lat="43.58318" lon="3.73949">
        <ele>88.235596378601</ele>
        <time>2020-09-12T09:47:37.000Z</time>
      </trkpt>
      <trkpt lat="43.58321" lon="3.73951">
        <ele>88.441357695473</ele>
        <time>2020-09-12T09:47:39.000Z</time>
      </trkpt>
      <trkpt lat="43.58324" lon="3.73954">
        <ele>88.647119012346</ele>
        <time>2020-09-12T09:47:41.000Z</time>
      </trkpt>
      <trkpt lat="43.58324" lon="3.73956">
        <ele>88.749999670782</ele>
        <time>2020-09-12T09:47:42.000Z</time>
      </trkpt>
      <trkpt lat="43.58324" lon="3.73959">
        <ele>88.852880329218</ele>
        <time>2020-09-12T09:47:43.000Z</time>
      </trkpt>
      <trkpt lat="43.58324" lon="3.73962">
        <ele>88.955760987654</ele>
        <time>2020-09-12T09:47:44.000Z</time>
      </trkpt>
      <trkpt lat="43.58324" lon="3.73965">
        <ele>89.055339529531</ele>
        <time>2020-09-12T09:47:45.000Z</time>
      </trkpt>
      <trkpt lat="43.58324" lon="3.73967">
        <ele>89.152426968498</ele>
        <time>2020-09-12T09:47:46.000Z</time>
      </trkpt>
      <trkpt lat="43.58324" lon="3.7397">
        <ele>89.249514407465</ele>
        <time>2020-09-12T09:47:47.000Z</time>
      </trkpt>
      <trkpt lat="43.58324" lon="3.73972">
        <ele>89.346601846432</ele>
        <time>2020-09-12T09:47:48.000Z</time>
      </trkpt>
      <trkpt lat="43.58324" lon="3.73975">
        <ele>89.443689285399</ele>
        <time>2020-09-12T09:47:49.000Z</time>
      </trkpt>
      <trkpt lat="43.58324" lon="3.73978">
        <ele>89.540776724366</ele>
        <time>2020-09-12T09:47:50.000Z</time>
      </trkpt>
      <trkpt lat="43.58322" lon="3.7398">
        <ele>89.637864163333</ele>
        <time>2020-09-12T09:47:51.000Z</time>
      </trkpt>
      <trkpt lat="43.58321" lon="3.73981">
        <ele>89.7349516023</ele>
        <time>2020-09-12T09:47:52.000Z</time>
      </trkpt>
      <trkpt lat="43.58319" lon="3.73983">
        <ele>89.832039041267</ele>
        <time>2020-09-12T09:47:53.000Z</time>
      </trkpt>
      <trkpt lat="43.58318" lon="3.73987">
        <ele>90.055670726155</ele>
        <time>2020-09-12T09:47:55.000Z</time>
      </trkpt>
      <trkpt lat="43.58319" lon="3.7399">
        <ele>90.468041588096</ele>
        <time>2020-09-12T09:47:57.000Z</time>
      </trkpt>
      <trkpt lat="43.58322" lon="3.73993">
        <ele>90.880412450037</ele>
        <time>2020-09-12T09:47:59.000Z</time>
      </trkpt>
      <trkpt lat="43.58323" lon="3.73997">
        <ele>91.292783311978</ele>
        <time>2020-09-12T09:48:01.000Z</time>
      </trkpt>
      <trkpt lat="43.58324" lon="3.74">
        <ele>91.498968742949</ele>
        <time>2020-09-12T09:48:02.000Z</time>
      </trkpt>
      <trkpt lat="43.58323" lon="3.74004">
        <ele>91.911339604889</ele>
        <time>2020-09-12T09:48:04.000Z</time>
      </trkpt>
      <trkpt lat="43.58322" lon="3.74009">
        <ele>92.31399936</ele>
        <time>2020-09-12T09:48:06.000Z</time>
      </trkpt>
      <trkpt lat="43.58321" lon="3.74012">
        <ele>92.71399936</ele>
        <time>2020-09-12T09:48:08.000Z</time>
      </trkpt>
      <trkpt lat="43.58319" lon="3.74015">
        <ele>93.11399936</ele>
        <time>2020-09-12T09:48:10.000Z</time>
      </trkpt>
      <trkpt lat="43.58318" lon="3.74019">
        <ele>93.51399936</ele>
        <time>2020-09-12T09:48:12.000Z</time>
      </trkpt>
      <trkpt lat="43.58316" lon="3.74022">
        <ele>93.91399936</ele>
        <time>2020-09-12T09:48:14.000Z</time>
      </trkpt>
      <trkpt lat="43.58316" lon="3.74025">
        <ele>94</ele>
        <time>2020-09-12T09:48:16.000Z</time>
      </trkpt>
      <trkpt lat="43.58316" lon="3.74026">
        <ele>94.02676100926</ele>
        <time>2020-09-12T09:48:22.000Z</time>
      </trkpt>
      <trkpt lat="43.5832" lon="3.74041">
        <ele>99.073778096537</ele>
        <time>2020-09-12T09:49:33.000Z</time>
      </trkpt>
      <trkpt lat="43.58319" lon="3.74043">
        <ele>99.273180082007</ele>
        <time>2020-09-12T09:49:34.000Z</time>
      </trkpt>
      <trkpt lat="43.58318" lon="3.74047">
        <ele>99.671984052946</ele>
        <time>2020-09-12T09:49:36.000Z</time>
      </trkpt>
      <trkpt lat="43.58316" lon="3.74051">
        <ele>100.07078802389</ele>
        <time>2020-09-12T09:49:38.000Z</time>
      </trkpt>
      <trkpt lat="43.58315" lon="3.74054">
        <ele>100.46959199482</ele>
        <time>2020-09-12T09:49:40.000Z</time>
      </trkpt>
      <trkpt lat="43.58315" lon="3.74058">
        <ele>100.86839596576</ele>
        <time>2020-09-12T09:49:42.000Z</time>
      </trkpt>
      <trkpt lat="43.58315" lon="3.74061">
        <ele>101.13320134667</ele>
        <time>2020-09-12T09:49:44.000Z</time>
      </trkpt>
      <trkpt lat="43.58316" lon="3.74063">
        <ele>101.33200837725</ele>
        <time>2020-09-12T09:49:46.000Z</time>
      </trkpt>
      <trkpt lat="43.58318" lon="3.74066">
        <ele>101.53081540783</ele>
        <time>2020-09-12T09:49:48.000Z</time>
      </trkpt>
      <trkpt lat="43.58321" lon="3.74068">
        <ele>101.72962243841</ele>
        <time>2020-09-12T09:49:50.000Z</time>
      </trkpt>
      <trkpt lat="43.58323" lon="3.7407">
        <ele>101.92842946899</ele>
        <time>2020-09-12T09:49:52.000Z</time>
      </trkpt>
      <trkpt lat="43.58325" lon="3.74074">
        <ele>102.13182281958</ele>
        <time>2020-09-12T09:49:54.000Z</time>
      </trkpt>
      <trkpt lat="43.58327" lon="3.74078">
        <ele>102.33779597519</ele>
        <time>2020-09-12T09:49:56.000Z</time>
      </trkpt>
      <trkpt lat="43.58327" lon="3.74082">
        <ele>102.54376913079</ele>
        <time>2020-09-12T09:49:58.000Z</time>
      </trkpt>
      <trkpt lat="43.58327" lon="3.74086">
        <ele>102.74974228639</ele>
        <time>2020-09-12T09:50:00.000Z</time>
      </trkpt>
      <trkpt lat="43.58326" lon="3.74091">
        <ele>102.95571544199</ele>
        <time>2020-09-12T09:50:02.000Z</time>
      </trkpt>
      <trkpt lat="43.58326" lon="3.74096">
        <ele>103</ele>
        <time>2020-09-12T09:50:04.000Z</time>
      </trkpt>
      <trkpt lat="43.58326" lon="3.74098">
        <ele>103</ele>
        <time>2020-09-12T09:50:05.000Z</time>
      </trkpt>
      <trkpt lat="43.58326" lon="3.74101">
        <ele>103</ele>
        <time>2020-09-12T09:50:06.000Z</time>
      </trkpt>
      <trkpt lat="43.58326" lon="3.74103">
        <ele>103</ele>
        <time>2020-09-12T09:50:07.000Z</time>
      </trkpt>
      <trkpt lat="43.58325" lon="3.74106">
        <ele>103</ele>
        <time>2020-09-12T09:50:08.000Z</time>
      </trkpt>
      <trkpt lat="43.58325" lon="3.74108">
        <ele>103</ele>
        <time>2020-09-12T09:50:09.000Z</time>
      </trkpt>
      <trkpt lat="43.58324" lon="3.74111">
        <ele>103</ele>
        <time>2020-09-12T09:50:10.000Z</time>
      </trkpt>
      <trkpt lat="43.58324" lon="3.74113">
        <ele>103</ele>
        <time>2020-09-12T09:50:11.000Z</time>
      </trkpt>
      <trkpt lat="43.58323" lon="3.74116">
        <ele>103</ele>
        <time>2020-09-12T09:50:12.000Z</time>
      </trkpt>
      <trkpt lat="43.58323" lon="3.74119">
        <ele>103</ele>
        <time>2020-09-12T09:50:13.000Z</time>
      </trkpt>
      <trkpt lat="43.58322" lon="3.74122">
        <ele>103</ele>
        <time>2020-09-12T09:50:14.000Z</time>
      </trkpt>
      <trkpt lat="43.58321" lon="3.74124">
        <ele>103</ele>
        <time>2020-09-12T09:50:15.000Z</time>
      </trkpt>
      <trkpt lat="43.58321" lon="3.74127">
        <ele>103</ele>
        <time>2020-09-12T09:50:16.000Z</time>
      </trkpt>
      <trkpt lat="43.5832" lon="3.7413">
        <ele>103</ele>
        <time>2020-09-12T09:50:17.000Z</time>
      </trkpt>
      <trkpt lat="43.58319" lon="3.74132">
        <ele>103</ele>
        <time>2020-09-12T09:50:18.000Z</time>
      </trkpt>
      <trkpt lat="43.58318" lon="3.74135">
        <ele>103</ele>
        <time>2020-09-12T09:50:19.000Z</time>
      </trkpt>
      <trkpt lat="43.58317" lon="3.74137">
        <ele>103</ele>
        <time>2020-09-12T09:50:20.000Z</time>
      </trkpt>
      <trkpt lat="43.58316" lon="3.7414">
        <ele>103</ele>
        <time>2020-09-12T09:50:21.000Z</time>
      </trkpt>
      <trkpt lat="43.58314" lon="3.74143">
        <ele>103</ele>
        <time>2020-09-12T09:50:22.000Z</time>
      </trkpt>
      <trkpt lat="43.58312" lon="3.74146">
        <ele>102.94300032</ele>
        <time>2020-09-12T09:50:23.000Z</time>
      </trkpt>
      <trkpt lat="43.58311" lon="3.74149">
        <ele>102.84300032</ele>
        <time>2020-09-12T09:50:24.000Z</time>
      </trkpt>
      <trkpt lat="43.58309" lon="3.74151">
        <ele>102.74300032</ele>
        <time>2020-09-12T09:50:25.000Z</time>
      </trkpt>
      <trkpt lat="43.58308" lon="3.74155">
        <ele>102.64300032</ele>
        <time>2020-09-12T09:50:26.000Z</time>
      </trkpt>
      <trkpt lat="43.58309" lon="3.74159">
        <ele>102.54300032</ele>
        <time>2020-09-12T09:50:27.000Z</time>
      </trkpt>
      <trkpt lat="43.5831" lon="3.74163">
        <ele>102.44300032</ele>
        <time>2020-09-12T09:50:28.000Z</time>
      </trkpt>
      <trkpt lat="43.58313" lon="3.74167">
        <ele>102.34300032</ele>
        <time>2020-09-12T09:50:29.000Z</time>
      </trkpt>
      <trkpt lat="43.58315" lon="3.74172">
        <ele>102.24300032</ele>
        <time>2020-09-12T09:50:30.000Z</time>
      </trkpt>
      <trkpt lat="43.58317" lon="3.74177">
        <ele>102.14300032</ele>
        <time>2020-09-12T09:50:31.000Z</time>
      </trkpt>
      <trkpt lat="43.58318" lon="3.74183">
        <ele>102.04300032</ele>
        <time>2020-09-12T09:50:32.000Z</time>
      </trkpt>
      <trkpt lat="43.58319" lon="3.74189">
        <ele>101.88600064</ele>
        <time>2020-09-12T09:50:33.000Z</time>
      </trkpt>
      <trkpt lat="43.58321" lon="3.74194">
        <ele>101.68600064</ele>
        <time>2020-09-12T09:50:34.000Z</time>
      </trkpt>
      <trkpt lat="43.58322" lon="3.74198">
        <ele>101.48600064</ele>
        <time>2020-09-12T09:50:35.000Z</time>
      </trkpt>
      <trkpt lat="43.58324" lon="3.74202">
        <ele>101.28600064</ele>
        <time>2020-09-12T09:50:36.000Z</time>
      </trkpt>
      <trkpt lat="43.58326" lon="3.74205">
        <ele>101.08600064</ele>
        <time>2020-09-12T09:50:37.000Z</time>
      </trkpt>
      <trkpt lat="43.58328" lon="3.74209">
        <ele>100.88600064</ele>
        <time>2020-09-12T09:50:38.000Z</time>
      </trkpt>
      <trkpt lat="43.5833" lon="3.74213">
        <ele>100.68600064</ele>
        <time>2020-09-12T09:50:39.000Z</time>
      </trkpt>
      <trkpt lat="43.58331" lon="3.74219">
        <ele>100.48600064</ele>
        <time>2020-09-12T09:50:40.000Z</time>
      </trkpt>
      <trkpt lat="43.58334" lon="3.74223">
        <ele>100.28600064</ele>
        <time>2020-09-12T09:50:41.000Z</time>
      </trkpt>
      <trkpt lat="43.58338" lon="3.74227">
        <ele>100.08600064</ele>
        <time>2020-09-12T09:50:42.000Z</time>
      </trkpt>
      <trkpt lat="43.58342" lon="3.74231">
        <ele>99.88600064</ele>
        <time>2020-09-12T09:50:43.000Z</time>
      </trkpt>
      <trkpt lat="43.58346" lon="3.74234">
        <ele>99.68600064</ele>
        <time>2020-09-12T09:50:44.000Z</time>
      </trkpt>
      <trkpt lat="43.58348" lon="3.74237">
        <ele>99.48600064</ele>
        <time>2020-09-12T09:50:45.000Z</time>
      </trkpt>
      <trkpt lat="43.58351" lon="3.74241">
        <ele>99.28600064</ele>
        <time>2020-09-12T09:50:46.000Z</time>
      </trkpt>
      <trkpt lat="43.58353" lon="3.74246">
        <ele>99.08600064</ele>
        <time>2020-09-12T09:50:47.000Z</time>
      </trkpt>
      <trkpt lat="43.58357" lon="3.7425">
        <ele>98.88600064</ele>
        <time>2020-09-12T09:50:48.000Z</time>
      </trkpt>
      <trkpt lat="43.5836" lon="3.74254">
        <ele>98.68600064</ele>
        <time>2020-09-12T09:50:49.000Z</time>
      </trkpt>
      <trkpt lat="43.58364" lon="3.74257">
        <ele>98.48600064</ele>
        <time>2020-09-12T09:50:50.000Z</time>
      </trkpt>
      <trkpt lat="43.58367" lon="3.74259">
        <ele>98.28600064</ele>
        <time>2020-09-12T09:50:51.000Z</time>
      </trkpt>
      <trkpt lat="43.5837" lon="3.74261">
        <ele>98.08600064</ele>
        <time>2020-09-12T09:50:52.000Z</time>
      </trkpt>
      <trkpt lat="43.58372" lon="3.74262">
        <ele>97.82900096</ele>
        <time>2020-09-12T09:50:53.000Z</time>
      </trkpt>
      <trkpt lat="43.58375" lon="3.74262">
        <ele>97.52900096</ele>
        <time>2020-09-12T09:50:54.000Z</time>
      </trkpt>
      <trkpt lat="43.58377" lon="3.74263">
        <ele>97.22900096</ele>
        <time>2020-09-12T09:50:55.000Z</time>
      </trkpt>
      <trkpt lat="43.58379" lon="3.74264">
        <ele>96.92900096</ele>
        <time>2020-09-12T09:50:56.000Z</time>
      </trkpt>
      <trkpt lat="43.58382" lon="3.74264">
        <ele>96.62900096</ele>
        <time>2020-09-12T09:50:57.000Z</time>
      </trkpt>
      <trkpt lat="43.58384" lon="3.74266">
        <ele>96.32900096</ele>
        <time>2020-09-12T09:50:58.000Z</time>
      </trkpt>
      <trkpt lat="43.58387" lon="3.74268">
        <ele>96.02900096</ele>
        <time>2020-09-12T09:50:59.000Z</time>
      </trkpt>
      <trkpt lat="43.58389" lon="3.74269">
        <ele>95.72900096</ele>
        <time>2020-09-12T09:51:00.000Z</time>
      </trkpt>
      <trkpt lat="43.58391" lon="3.74269">
        <ele>95.42900096</ele>
        <time>2020-09-12T09:51:01.000Z</time>
      </trkpt>
      <trkpt lat="43.58392" lon="3.74269">
        <ele>95.12900096</ele>
        <time>2020-09-12T09:51:02.000Z</time>
      </trkpt>
      <trkpt lat="43.58394" lon="3.74267">
        <ele>95</ele>
        <time>2020-09-12T09:51:03.000Z</time>
      </trkpt>
      <trkpt lat="43.58395" lon="3.74265">
        <ele>95</ele>
        <time>2020-09-12T09:51:04.000Z</time>
      </trkpt>
      <trkpt lat="43.58396" lon="3.74262">
        <ele>95</ele>
        <time>2020-09-12T09:51:05.000Z</time>
      </trkpt>
      <trkpt lat="43.58397" lon="3.74259">
        <ele>95</ele>
        <time>2020-09-12T09:51:06.000Z</time>
      </trkpt>
      <trkpt lat="43.58398" lon="3.74257">
        <ele>95</ele>
        <time>2020-09-12T09:51:07.000Z</time>
      </trkpt>
      <trkpt lat="43.58399" lon="3.74254">
        <ele>95</ele>
        <time>2020-09-12T09:51:08.000Z</time>
      </trkpt>
      <trkpt lat="43.584" lon="3.74251">
        <ele>95</ele>
        <time>2020-09-12T09:51:09.000Z</time>
      </trkpt>
      <trkpt lat="43.584" lon="3.74248">
        <ele>95</ele>
        <time>2020-09-12T09:51:10.000Z</time>
      </trkpt>
      <trkpt lat="43.58401" lon="3.74245">
        <ele>95</ele>
        <time>2020-09-12T09:51:11.000Z</time>
      </trkpt>
      <trkpt lat="43.58402" lon="3.74242">
        <ele>95</ele>
        <time>2020-09-12T09:51:12.000Z</time>
      </trkpt>
      <trkpt lat="43.58403" lon="3.74239">
        <ele>94.94300032</ele>
        <time>2020-09-12T09:51:13.000Z</time>
      </trkpt>
      <trkpt lat="43.58403" lon="3.74236">
        <ele>94.84300032</ele>
        <time>2020-09-12T09:51:14.000Z</time>
      </trkpt>
      <trkpt lat="43.58403" lon="3.74233">
        <ele>94.74300032</ele>
        <time>2020-09-12T09:51:15.000Z</time>
      </trkpt>
      <trkpt lat="43.58404" lon="3.7423">
        <ele>94.64300032</ele>
        <time>2020-09-12T09:51:16.000Z</time>
      </trkpt>
      <trkpt lat="43.58404" lon="3.74227">
        <ele>94.54300032</ele>
        <time>2020-09-12T09:51:17.000Z</time>
      </trkpt>
      <trkpt lat="43.58405" lon="3.74224">
        <ele>94.44300032</ele>
        <time>2020-09-12T09:51:18.000Z</time>
      </trkpt>
      <trkpt lat="43.58405" lon="3.74221">
        <ele>94.34300032</ele>
        <time>2020-09-12T09:51:19.000Z</time>
      </trkpt>
      <trkpt lat="43.58405" lon="3.74218">
        <ele>94.24300032</ele>
        <time>2020-09-12T09:51:20.000Z</time>
      </trkpt>
      <trkpt lat="43.58406" lon="3.74214">
        <ele>94.14300032</ele>
        <time>2020-09-12T09:51:21.000Z</time>
      </trkpt>
      <trkpt lat="43.58407" lon="3.74208">
        <ele>94.04300032</ele>
        <time>2020-09-12T09:51:22.000Z</time>
      </trkpt>
      <trkpt lat="43.58408" lon="3.74202">
        <ele>93.94300032</ele>
        <time>2020-09-12T09:51:23.000Z</time>
      </trkpt>
      <trkpt lat="43.5841" lon="3.74196">
        <ele>93.84300032</ele>
        <time>2020-09-12T09:51:24.000Z</time>
      </trkpt>
      <trkpt lat="43.58412" lon="3.74189">
        <ele>93.74300032</ele>
        <time>2020-09-12T09:51:25.000Z</time>
      </trkpt>
      <trkpt lat="43.58414" lon="3.74181">
        <ele>93.64300032</ele>
        <time>2020-09-12T09:51:26.000Z</time>
      </trkpt>
      <trkpt lat="43.58417" lon="3.74173">
        <ele>93.54300032</ele>
        <time>2020-09-12T09:51:27.000Z</time>
      </trkpt>
      <trkpt lat="43.58419" lon="3.74165">
        <ele>93.44300032</ele>
        <time>2020-09-12T09:51:28.000Z</time>
      </trkpt>
      <trkpt lat="43.58422" lon="3.74158">
        <ele>93.34300032</ele>
        <time>2020-09-12T09:51:29.000Z</time>
      </trkpt>
      <trkpt lat="43.58425" lon="3.74152">
        <ele>93.24300032</ele>
        <time>2020-09-12T09:51:30.000Z</time>
      </trkpt>
      <trkpt lat="43.58429" lon="3.74147">
        <ele>93.14300032</ele>
        <time>2020-09-12T09:51:31.000Z</time>
      </trkpt>
      <trkpt lat="43.58433" lon="3.74142">
        <ele>93.04300032</ele>
        <time>2020-09-12T09:51:32.000Z</time>
      </trkpt>
      <trkpt lat="43.58439" lon="3.74138">
        <ele>93</ele>
        <time>2020-09-12T09:51:33.000Z</time>
      </trkpt>
      <trkpt lat="43.58443" lon="3.74132">
        <ele>93</ele>
        <time>2020-09-12T09:51:34.000Z</time>
      </trkpt>
      <trkpt lat="43.58447" lon="3.74126">
        <ele>93</ele>
        <time>2020-09-12T09:51:35.000Z</time>
      </trkpt>
      <trkpt lat="43.5845" lon="3.74121">
        <ele>93</ele>
        <time>2020-09-12T09:51:36.000Z</time>
      </trkpt>
      <trkpt lat="43.58452" lon="3.74117">
        <ele>93</ele>
        <time>2020-09-12T09:51:37.000Z</time>
      </trkpt>
      <trkpt lat="43.58454" lon="3.74114">
        <ele>93</ele>
        <time>2020-09-12T09:51:38.000Z</time>
      </trkpt>
      <trkpt lat="43.58456" lon="3.74111">
        <ele>93</ele>
        <time>2020-09-12T09:51:39.000Z</time>
      </trkpt>
      <trkpt lat="43.58458" lon="3.74108">
        <ele>93</ele>
        <time>2020-09-12T09:51:40.000Z</time>
      </trkpt>
      <trkpt lat="43.5846" lon="3.74106">
        <ele>93</ele>
        <time>2020-09-12T09:51:41.000Z</time>
      </trkpt>
      <trkpt lat="43.58463" lon="3.74104">
        <ele>93</ele>
        <time>2020-09-12T09:51:42.000Z</time>
      </trkpt>
      <trkpt lat="43.58465" lon="3.74102">
        <ele>93.05699968</ele>
        <time>2020-09-12T09:51:43.000Z</time>
      </trkpt>
      <trkpt lat="43.58468" lon="3.741">
        <ele>93.15699968</ele>
        <time>2020-09-12T09:51:44.000Z</time>
      </trkpt>
      <trkpt lat="43.5847" lon="3.74098">
        <ele>93.25699968</ele>
        <time>2020-09-12T09:51:45.000Z</time>
      </trkpt>
      <trkpt lat="43.58472" lon="3.74096">
        <ele>93.35699968</ele>
        <time>2020-09-12T09:51:46.000Z</time>
      </trkpt>
      <trkpt lat="43.58475" lon="3.74093">
        <ele>93.45699968</ele>
        <time>2020-09-12T09:51:47.000Z</time>
      </trkpt>
      <trkpt lat="43.58477" lon="3.74091">
        <ele>93.55699968</ele>
        <time>2020-09-12T09:51:48.000Z</time>
      </trkpt>
      <trkpt lat="43.58479" lon="3.74089">
        <ele>93.65699968</ele>
        <time>2020-09-12T09:51:49.000Z</time>
      </trkpt>
      <trkpt lat="43.58481" lon="3.74088">
        <ele>93.75699968</ele>
        <time>2020-09-12T09:51:50.000Z</time>
      </trkpt>
      <trkpt lat="43.58484" lon="3.74086">
        <ele>93.85699968</ele>
        <time>2020-09-12T09:51:51.000Z</time>
      </trkpt>
      <trkpt lat="43.58486" lon="3.74085">
        <ele>93.95699968</ele>
        <time>2020-09-12T09:51:52.000Z</time>
      </trkpt>
      <trkpt lat="43.58489" lon="3.74083">
        <ele>94</ele>
        <time>2020-09-12T09:51:53.000Z</time>
      </trkpt>
      <trkpt lat="43.58492" lon="3.74082">
        <ele>94</ele>
        <time>2020-09-12T09:51:54.000Z</time>
      </trkpt>
      <trkpt lat="43.58495" lon="3.7408">
        <ele>94</ele>
        <time>2020-09-12T09:51:55.000Z</time>
      </trkpt>
      <trkpt lat="43.58497" lon="3.74078">
        <ele>94</ele>
        <time>2020-09-12T09:51:56.000Z</time>
      </trkpt>
      <trkpt lat="43.585" lon="3.74076">
        <ele>94</ele>
        <time>2020-09-12T09:51:57.000Z</time>
      </trkpt>
      <trkpt lat="43.58502" lon="3.74073">
        <ele>94</ele>
        <time>2020-09-12T09:51:58.000Z</time>
      </trkpt>
      <trkpt lat="43.58504" lon="3.74071">
        <ele>94</ele>
        <time>2020-09-12T09:51:59.000Z</time>
      </trkpt>
      <trkpt lat="43.58507" lon="3.74068">
        <ele>94</ele>
        <time>2020-09-12T09:52:00.000Z</time>
      </trkpt>
      <trkpt lat="43.58509" lon="3.74065">
        <ele>94</ele>
        <time>2020-09-12T09:52:01.000Z</time>
      </trkpt>
      <trkpt lat="43.58511" lon="3.74063">
        <ele>94</ele>
        <time>2020-09-12T09:52:02.000Z</time>
      </trkpt>
      <trkpt lat="43.58512" lon="3.7406">
        <ele>94.055501131684</ele>
        <time>2020-09-12T09:52:03.000Z</time>
      </trkpt>
      <trkpt lat="43.58513" lon="3.74058">
        <ele>94.152872084792</ele>
        <time>2020-09-12T09:52:04.000Z</time>
      </trkpt>
      <trkpt lat="43.58514" lon="3.74055">
        <ele>94.250243037899</ele>
        <time>2020-09-12T09:52:05.000Z</time>
      </trkpt>
      <trkpt lat="43.58516" lon="3.74051">
        <ele>94.444984944114</ele>
        <time>2020-09-12T09:52:07.000Z</time>
      </trkpt>
      <trkpt lat="43.58517" lon="3.74047">
        <ele>94.639726850329</ele>
        <time>2020-09-12T09:52:09.000Z</time>
      </trkpt>
      <trkpt lat="43.58518" lon="3.74042">
        <ele>94.834468756543</ele>
        <time>2020-09-12T09:52:11.000Z</time>
      </trkpt>
      <trkpt lat="43.58519" lon="3.74038">
        <ele>95.061663658512</ele>
        <time>2020-09-12T09:52:13.000Z</time>
      </trkpt>
      <trkpt lat="43.5852" lon="3.74034">
        <ele>95.47276348539</ele>
        <time>2020-09-12T09:52:15.000Z</time>
      </trkpt>
      <trkpt lat="43.5852" lon="3.74031">
        <ele>95.883863312267</ele>
        <time>2020-09-12T09:52:17.000Z</time>
      </trkpt>
      <trkpt lat="43.58522" lon="3.74026">
        <ele>96.294963139145</ele>
        <time>2020-09-12T09:52:19.000Z</time>
      </trkpt>
      <trkpt lat="43.58523" lon="3.74023">
        <ele>96.706062966023</ele>
        <time>2020-09-12T09:52:21.000Z</time>
      </trkpt>
      <trkpt lat="43.58525" lon="3.7402">
        <ele>97</ele>
        <time>2020-09-12T09:52:23.000Z</time>
      </trkpt>
      <trkpt lat="43.58527" lon="3.74019">
        <ele>97</ele>
        <time>2020-09-12T09:52:24.000Z</time>
      </trkpt>
      <trkpt lat="43.58529" lon="3.74017">
        <ele>97</ele>
        <time>2020-09-12T09:52:25.000Z</time>
      </trkpt>
      <trkpt lat="43.58531" lon="3.74015">
        <ele>97</ele>
        <time>2020-09-12T09:52:26.000Z</time>
      </trkpt>
      <trkpt lat="43.58534" lon="3.74014">
        <ele>97</ele>
        <time>2020-09-12T09:52:27.000Z</time>
      </trkpt>
      <trkpt lat="43.58536" lon="3.74012">
        <ele>97</ele>
        <time>2020-09-12T09:52:28.000Z</time>
      </trkpt>
      <trkpt lat="43.58539" lon="3.7401">
        <ele>97</ele>
        <time>2020-09-12T09:52:29.000Z</time>
      </trkpt>
      <trkpt lat="43.58542" lon="3.74007">
        <ele>97</ele>
        <time>2020-09-12T09:52:30.000Z</time>
      </trkpt>
      <trkpt lat="43.58544" lon="3.74004">
        <ele>97</ele>
        <time>2020-09-12T09:52:31.000Z</time>
      </trkpt>
      <trkpt lat="43.58546" lon="3.74001">
        <ele>97</ele>
        <time>2020-09-12T09:52:32.000Z</time>
      </trkpt>
      <trkpt lat="43.58548" lon="3.73999">
        <ele>97.026832419237</ele>
        <time>2020-09-12T09:52:33.000Z</time>
      </trkpt>
      <trkpt lat="43.5855" lon="3.73997">
        <ele>97.130031491403</ele>
        <time>2020-09-12T09:52:34.000Z</time>
      </trkpt>
      <trkpt lat="43.58552" lon="3.73996">
        <ele>97.233230563569</ele>
        <time>2020-09-12T09:52:35.000Z</time>
      </trkpt>
      <trkpt lat="43.58554" lon="3.73995">
        <ele>97.336429635735</ele>
        <time>2020-09-12T09:52:36.000Z</time>
      </trkpt>
      <trkpt lat="43.58557" lon="3.73995">
        <ele>97.439628707901</ele>
        <time>2020-09-12T09:52:37.000Z</time>
      </trkpt>
      <trkpt lat="43.5856" lon="3.73996">
        <ele>97.542827780067</ele>
        <time>2020-09-12T09:52:38.000Z</time>
      </trkpt>
      <trkpt lat="43.58564" lon="3.73996">
        <ele>97.646026852234</ele>
        <time>2020-09-12T09:52:39.000Z</time>
      </trkpt>
      <trkpt lat="43.58568" lon="3.73997">
        <ele>97.749225924399</ele>
        <time>2020-09-12T09:52:40.000Z</time>
      </trkpt>
      <trkpt lat="43.58572" lon="3.73998">
        <ele>97.852424996566</ele>
        <time>2020-09-12T09:52:41.000Z</time>
      </trkpt>
      <trkpt lat="43.58575" lon="3.73999">
        <ele>97.955624068732</ele>
        <time>2020-09-12T09:52:42.000Z</time>
      </trkpt>
      <trkpt lat="43.58578" lon="3.73998">
        <ele>98.05699968</ele>
        <time>2020-09-12T09:52:43.000Z</time>
      </trkpt>
      <trkpt lat="43.5858" lon="3.73997">
        <ele>98.15699968</ele>
        <time>2020-09-12T09:52:44.000Z</time>
      </trkpt>
      <trkpt lat="43.58582" lon="3.73996">
        <ele>98.25699968</ele>
        <time>2020-09-12T09:52:45.000Z</time>
      </trkpt>
      <trkpt lat="43.58584" lon="3.73996">
        <ele>98.35699968</ele>
        <time>2020-09-12T09:52:46.000Z</time>
      </trkpt>
      <trkpt lat="43.58586" lon="3.73995">
        <ele>98.45699968</ele>
        <time>2020-09-12T09:52:47.000Z</time>
      </trkpt>
      <trkpt lat="43.58588" lon="3.73994">
        <ele>98.55699968</ele>
        <time>2020-09-12T09:52:48.000Z</time>
      </trkpt>
      <trkpt lat="43.5859" lon="3.73994">
        <ele>98.65699968</ele>
        <time>2020-09-12T09:52:49.000Z</time>
      </trkpt>
      <trkpt lat="43.58592" lon="3.73993">
        <ele>98.75699968</ele>
        <time>2020-09-12T09:52:50.000Z</time>
      </trkpt>
      <trkpt lat="43.58593" lon="3.73992">
        <ele>98.85699968</ele>
        <time>2020-09-12T09:52:51.000Z</time>
      </trkpt>
      <trkpt lat="43.58595" lon="3.73991">
        <ele>98.95699968</ele>
        <time>2020-09-12T09:52:52.000Z</time>
      </trkpt>
      <trkpt lat="43.58597" lon="3.7399">
        <ele>99.055393292251</ele>
        <time>2020-09-12T09:52:53.000Z</time>
      </trkpt>
      <trkpt lat="43.58598" lon="3.73989">
        <ele>99.152575052307</ele>
        <time>2020-09-12T09:52:54.000Z</time>
      </trkpt>
      <trkpt lat="43.586" lon="3.73989">
        <ele>99.249756812364</ele>
        <time>2020-09-12T09:52:55.000Z</time>
      </trkpt>
      <trkpt lat="43.58602" lon="3.73988">
        <ele>99.34693857242</ele>
        <time>2020-09-12T09:52:56.000Z</time>
      </trkpt>
      <trkpt lat="43.58604" lon="3.73988">
        <ele>99.444120332477</ele>
        <time>2020-09-12T09:52:57.000Z</time>
      </trkpt>
      <trkpt lat="43.58606" lon="3.73988">
        <ele>99.541302092533</ele>
        <time>2020-09-12T09:52:58.000Z</time>
      </trkpt>
      <trkpt lat="43.58608" lon="3.73987">
        <ele>99.63848385259</ele>
        <time>2020-09-12T09:52:59.000Z</time>
      </trkpt>
      <trkpt lat="43.5861" lon="3.73987">
        <ele>99.735665612646</ele>
        <time>2020-09-12T09:53:00.000Z</time>
      </trkpt>
      <trkpt lat="43.58612" lon="3.73986">
        <ele>99.832847372703</ele>
        <time>2020-09-12T09:53:01.000Z</time>
      </trkpt>
      <trkpt lat="43.58614" lon="3.73986">
        <ele>99.930029132759</ele>
        <time>2020-09-12T09:53:02.000Z</time>
      </trkpt>
      <trkpt lat="43.58615" lon="3.73986">
        <ele>100.05761908713</ele>
        <time>2020-09-12T09:53:03.000Z</time>
      </trkpt>
      <trkpt lat="43.58617" lon="3.73985">
        <ele>100.26340154116</ele>
        <time>2020-09-12T09:53:04.000Z</time>
      </trkpt>
      <trkpt lat="43.58619" lon="3.73985">
        <ele>100.4691839952</ele>
        <time>2020-09-12T09:53:05.000Z</time>
      </trkpt>
      <trkpt lat="43.58621" lon="3.73984">
        <ele>100.67496644923</ele>
        <time>2020-09-12T09:53:06.000Z</time>
      </trkpt>
      <trkpt lat="43.58623" lon="3.73984">
        <ele>100.88074890326</ele>
        <time>2020-09-12T09:53:07.000Z</time>
      </trkpt>
      <trkpt lat="43.58625" lon="3.73983">
        <ele>101.0865313573</ele>
        <time>2020-09-12T09:53:08.000Z</time>
      </trkpt>
      <trkpt lat="43.58627" lon="3.73983">
        <ele>101.29231381133</ele>
        <time>2020-09-12T09:53:09.000Z</time>
      </trkpt>
      <trkpt lat="43.58629" lon="3.73982">
        <ele>101.49809626536</ele>
        <time>2020-09-12T09:53:10.000Z</time>
      </trkpt>
      <trkpt lat="43.58631" lon="3.73982">
        <ele>101.70387871939</ele>
        <time>2020-09-12T09:53:11.000Z</time>
      </trkpt>
      <trkpt lat="43.58632" lon="3.73981">
        <ele>101.90966117343</ele>
        <time>2020-09-12T09:53:12.000Z</time>
      </trkpt>
      <trkpt lat="43.58635" lon="3.7398">
        <ele>102.05615036635</ele>
        <time>2020-09-12T09:53:13.000Z</time>
      </trkpt>
      <trkpt lat="43.58637" lon="3.7398">
        <ele>102.15624043139</ele>
        <time>2020-09-12T09:53:14.000Z</time>
      </trkpt>
      <trkpt lat="43.58639" lon="3.73979">
        <ele>102.25633049643</ele>
        <time>2020-09-12T09:53:15.000Z</time>
      </trkpt>
      <trkpt lat="43.58641" lon="3.73978">
        <ele>102.35642056148</ele>
        <time>2020-09-12T09:53:16.000Z</time>
      </trkpt>
      <trkpt lat="43.58644" lon="3.73978">
        <ele>102.45651062652</ele>
        <time>2020-09-12T09:53:17.000Z</time>
      </trkpt>
      <trkpt lat="43.58646" lon="3.73978">
        <ele>102.55660069157</ele>
        <time>2020-09-12T09:53:18.000Z</time>
      </trkpt>
      <trkpt lat="43.58648" lon="3.73977">
        <ele>102.65669075661</ele>
        <time>2020-09-12T09:53:19.000Z</time>
      </trkpt>
      <trkpt lat="43.5865" lon="3.73976">
        <ele>102.75678082165</ele>
        <time>2020-09-12T09:53:20.000Z</time>
      </trkpt>
      <trkpt lat="43.58653" lon="3.73976">
        <ele>102.8568708867</ele>
        <time>2020-09-12T09:53:21.000Z</time>
      </trkpt>
      <trkpt lat="43.58655" lon="3.73975">
        <ele>102.95696095174</ele>
        <time>2020-09-12T09:53:22.000Z</time>
      </trkpt>
      <trkpt lat="43.58658" lon="3.73974">
        <ele>103.05677258964</ele>
        <time>2020-09-12T09:53:23.000Z</time>
      </trkpt>
      <trkpt lat="43.5866" lon="3.73974">
        <ele>103.15637418327</ele>
        <time>2020-09-12T09:53:24.000Z</time>
      </trkpt>
      <trkpt lat="43.58662" lon="3.73973">
        <ele>103.25597577689</ele>
        <time>2020-09-12T09:53:25.000Z</time>
      </trkpt>
      <trkpt lat="43.58665" lon="3.73972">
        <ele>103.35557737052</ele>
        <time>2020-09-12T09:53:26.000Z</time>
      </trkpt>
      <trkpt lat="43.58667" lon="3.73972">
        <ele>103.45517896414</ele>
        <time>2020-09-12T09:53:27.000Z</time>
      </trkpt>
      <trkpt lat="43.5867" lon="3.73972">
        <ele>103.55478055777</ele>
        <time>2020-09-12T09:53:28.000Z</time>
      </trkpt>
      <trkpt lat="43.58672" lon="3.73971">
        <ele>103.65438215139</ele>
        <time>2020-09-12T09:53:29.000Z</time>
      </trkpt>
      <trkpt lat="43.58675" lon="3.73971">
        <ele>103.75398374502</ele>
        <time>2020-09-12T09:53:30.000Z</time>
      </trkpt>
      <trkpt lat="43.58677" lon="3.7397">
        <ele>103.85358533865</ele>
        <time>2020-09-12T09:53:31.000Z</time>
      </trkpt>
      <trkpt lat="43.58679" lon="3.7397">
        <ele>103.95318693227</ele>
        <time>2020-09-12T09:53:32.000Z</time>
      </trkpt>
      <trkpt lat="43.58682" lon="3.7397">
        <ele>104.05321253012</ele>
        <time>2020-09-12T09:53:33.000Z</time>
      </trkpt>
      <trkpt lat="43.58684" lon="3.73969">
        <ele>104.15361413655</ele>
        <time>2020-09-12T09:53:34.000Z</time>
      </trkpt>
      <trkpt lat="43.58687" lon="3.73969">
        <ele>104.25401574297</ele>
        <time>2020-09-12T09:53:35.000Z</time>
      </trkpt>
      <trkpt lat="43.58689" lon="3.73968">
        <ele>104.3544173494</ele>
        <time>2020-09-12T09:53:36.000Z</time>
      </trkpt>
      <trkpt lat="43.58691" lon="3.73968">
        <ele>104.45481895582</ele>
        <time>2020-09-12T09:53:37.000Z</time>
      </trkpt>
      <trkpt lat="43.58694" lon="3.73968">
        <ele>104.55522056225</ele>
        <time>2020-09-12T09:53:38.000Z</time>
      </trkpt>
      <trkpt lat="43.58696" lon="3.73967">
        <ele>104.65562216867</ele>
        <time>2020-09-12T09:53:39.000Z</time>
      </trkpt>
      <trkpt lat="43.58699" lon="3.73967">
        <ele>104.7560237751</ele>
        <time>2020-09-12T09:53:40.000Z</time>
      </trkpt>
      <trkpt lat="43.58702" lon="3.73966">
        <ele>104.85642538153</ele>
        <time>2020-09-12T09:53:41.000Z</time>
      </trkpt>
      <trkpt lat="43.58704" lon="3.73966">
        <ele>104.95682698795</ele>
        <time>2020-09-12T09:53:42.000Z</time>
      </trkpt>
      <trkpt lat="43.58706" lon="3.73965">
        <ele>105.11399936</ele>
        <time>2020-09-12T09:53:43.000Z</time>
      </trkpt>
      <trkpt lat="43.58708" lon="3.73963">
        <ele>105.31399936</ele>
        <time>2020-09-12T09:53:44.000Z</time>
      </trkpt>
      <trkpt lat="43.58709" lon="3.73961">
        <ele>105.51399936</ele>
        <time>2020-09-12T09:53:45.000Z</time>
      </trkpt>
      <trkpt lat="43.5871" lon="3.73958">
        <ele>105.71399936</ele>
        <time>2020-09-12T09:53:46.000Z</time>
      </trkpt>
      <trkpt lat="43.58709" lon="3.73956">
        <ele>105.91399936</ele>
        <time>2020-09-12T09:53:47.000Z</time>
      </trkpt>
      <trkpt lat="43.58709" lon="3.73954">
        <ele>106.11399936</ele>
        <time>2020-09-12T09:53:48.000Z</time>
      </trkpt>
      <trkpt lat="43.58707" lon="3.73949">
        <ele>106.51399936</ele>
        <time>2020-09-12T09:53:50.000Z</time>
      </trkpt>
      <trkpt lat="43.58705" lon="3.73946">
        <ele>106.91399936</ele>
        <time>2020-09-12T09:53:52.000Z</time>
      </trkpt>
      <trkpt lat="43.58704" lon="3.73942">
        <ele>107.31399936</ele>
        <time>2020-09-12T09:53:54.000Z</time>
      </trkpt>
      <trkpt lat="43.58702" lon="3.73939">
        <ele>107.71399936</ele>
        <time>2020-09-12T09:53:56.000Z</time>
      </trkpt>
      <trkpt lat="43.58701" lon="3.73935">
        <ele>108.11399936</ele>
        <time>2020-09-12T09:53:58.000Z</time>
      </trkpt>
      <trkpt lat="43.58699" lon="3.73932">
        <ele>108.51399936</ele>
        <time>2020-09-12T09:54:00.000Z</time>
      </trkpt>
      <trkpt lat="43.58699" lon="3.73928">
        <ele>108.91399936</ele>
        <time>2020-09-12T09:54:02.000Z</time>
      </trkpt>
      <trkpt lat="43.58701" lon="3.73925">
        <ele>109.15699968</ele>
        <time>2020-09-12T09:54:04.000Z</time>
      </trkpt>
      <trkpt lat="43.58703" lon="3.73923">
        <ele>109.35699968</ele>
        <time>2020-09-12T09:54:06.000Z</time>
      </trkpt>
      <trkpt lat="43.58706" lon="3.73921">
        <ele>109.55699968</ele>
        <time>2020-09-12T09:54:08.000Z</time>
      </trkpt>
      <trkpt lat="43.58709" lon="3.7392">
        <ele>109.75699968</ele>
        <time>2020-09-12T09:54:10.000Z</time>
      </trkpt>
      <trkpt lat="43.58712" lon="3.73917">
        <ele>109.95699968</ele>
        <time>2020-09-12T09:54:12.000Z</time>
      </trkpt>
      <trkpt lat="43.58715" lon="3.73914">
        <ele>110.15699968</ele>
        <time>2020-09-12T09:54:14.000Z</time>
      </trkpt>
      <trkpt lat="43.58716" lon="3.73913">
        <ele>110.25699968</ele>
        <time>2020-09-12T09:54:15.000Z</time>
      </trkpt>
      <trkpt lat="43.58718" lon="3.73912">
        <ele>110.35699968</ele>
        <time>2020-09-12T09:54:16.000Z</time>
      </trkpt>
      <trkpt lat="43.58721" lon="3.73909">
        <ele>110.55699968</ele>
        <time>2020-09-12T09:54:18.000Z</time>
      </trkpt>
      <trkpt lat="43.58723" lon="3.73909">
        <ele>110.65699968</ele>
        <time>2020-09-12T09:54:19.000Z</time>
      </trkpt>
      <trkpt lat="43.58726" lon="3.73907">
        <ele>110.85699968</ele>
        <time>2020-09-12T09:54:21.000Z</time>
      </trkpt>
      <trkpt lat="43.58728" lon="3.73905">
        <ele>111.11365834858</ele>
        <time>2020-09-12T09:54:23.000Z</time>
      </trkpt>
      <trkpt lat="43.58731" lon="3.73902">
        <ele>111.51246181058</ele>
        <time>2020-09-12T09:54:25.000Z</time>
      </trkpt>
      <trkpt lat="43.58734" lon="3.739">
        <ele>111.91126527258</ele>
        <time>2020-09-12T09:54:27.000Z</time>
      </trkpt>
      <trkpt lat="43.58737" lon="3.73898">
        <ele>112.31006873457</ele>
        <time>2020-09-12T09:54:29.000Z</time>
      </trkpt>
      <trkpt lat="43.58739" lon="3.73897">
        <ele>112.70887219657</ele>
        <time>2020-09-12T09:54:31.000Z</time>
      </trkpt>
      <trkpt lat="43.58742" lon="3.73895">
        <ele>113.05416186292</ele>
        <time>2020-09-12T09:54:33.000Z</time>
      </trkpt>
      <trkpt lat="43.58744" lon="3.73892">
        <ele>113.25476373272</ele>
        <time>2020-09-12T09:54:35.000Z</time>
      </trkpt>
      <trkpt lat="43.58747" lon="3.7389">
        <ele>113.45536560253</ele>
        <time>2020-09-12T09:54:37.000Z</time>
      </trkpt>
      <trkpt lat="43.5875" lon="3.73888">
        <ele>113.65596747233</ele>
        <time>2020-09-12T09:54:39.000Z</time>
      </trkpt>
      <trkpt lat="43.58752" lon="3.73886">
        <ele>113.85656934213</ele>
        <time>2020-09-12T09:54:41.000Z</time>
      </trkpt>
      <trkpt lat="43.58755" lon="3.73884">
        <ele>114.11220409449</ele>
        <time>2020-09-12T09:54:43.000Z</time>
      </trkpt>
      <trkpt lat="43.58758" lon="3.73883">
        <ele>114.50590488189</ele>
        <time>2020-09-12T09:54:45.000Z</time>
      </trkpt>
      <trkpt lat="43.58761" lon="3.73881">
        <ele>114.89960566929</ele>
        <time>2020-09-12T09:54:47.000Z</time>
      </trkpt>
      <trkpt lat="43.58763" lon="3.73879">
        <ele>115.29330645669</ele>
        <time>2020-09-12T09:54:49.000Z</time>
      </trkpt>
      <trkpt lat="43.58766" lon="3.73877">
        <ele>115.68700724409</ele>
        <time>2020-09-12T09:54:51.000Z</time>
      </trkpt>
      <trkpt lat="43.58769" lon="3.73875">
        <ele>116.04166634146</ele>
        <time>2020-09-12T09:54:53.000Z</time>
      </trkpt>
      <trkpt lat="43.58772" lon="3.73873">
        <ele>116.24491837398</ele>
        <time>2020-09-12T09:54:55.000Z</time>
      </trkpt>
      <trkpt lat="43.58774" lon="3.73872">
        <ele>116.4481704065</ele>
        <time>2020-09-12T09:54:57.000Z</time>
      </trkpt>
      <trkpt lat="43.58777" lon="3.7387">
        <ele>116.65142243902</ele>
        <time>2020-09-12T09:54:59.000Z</time>
      </trkpt>
      <trkpt lat="43.5878" lon="3.73868">
        <ele>116.85467447154</ele>
        <time>2020-09-12T09:55:01.000Z</time>
      </trkpt>
      <trkpt lat="43.58782" lon="3.73866">
        <ele>117.11399936</ele>
        <time>2020-09-12T09:55:03.000Z</time>
      </trkpt>
      <trkpt lat="43.58785" lon="3.73864">
        <ele>117.51399936</ele>
        <time>2020-09-12T09:55:05.000Z</time>
      </trkpt>
      <trkpt lat="43.58788" lon="3.73862">
        <ele>117.91399936</ele>
        <time>2020-09-12T09:55:07.000Z</time>
      </trkpt>
      <trkpt lat="43.5879" lon="3.73861">
        <ele>118.31399936</ele>
        <time>2020-09-12T09:55:09.000Z</time>
      </trkpt>
      <trkpt lat="43.58792" lon="3.73859">
        <ele>118.71399936</ele>
        <time>2020-09-12T09:55:11.000Z</time>
      </trkpt>
      <trkpt lat="43.58795" lon="3.73857">
        <ele>119.05699968</ele>
        <time>2020-09-12T09:55:13.000Z</time>
      </trkpt>
      <trkpt lat="43.58797" lon="3.73855">
        <ele>119.25699968</ele>
        <time>2020-09-12T09:55:15.000Z</time>
      </trkpt>
      <trkpt lat="43.58799" lon="3.73854">
        <ele>119.45699968</ele>
        <time>2020-09-12T09:55:17.000Z</time>
      </trkpt>
      <trkpt lat="43.58801" lon="3.73852">
        <ele>119.65699968</ele>
        <time>2020-09-12T09:55:19.000Z</time>
      </trkpt>
      <trkpt lat="43.58803" lon="3.73849">
        <ele>119.85699968</ele>
        <time>2020-09-12T09:55:21.000Z</time>
      </trkpt>
      <trkpt lat="43.58804" lon="3.73846">
        <ele>120.11067905906</ele>
        <time>2020-09-12T09:55:23.000Z</time>
      </trkpt>
      <trkpt lat="43.58805" lon="3.73843">
        <ele>120.49902881493</ele>
        <time>2020-09-12T09:55:25.000Z</time>
      </trkpt>
      <trkpt lat="43.58806" lon="3.7384">
        <ele>120.8873785708</ele>
        <time>2020-09-12T09:55:27.000Z</time>
      </trkpt>
      <trkpt lat="43.58805" lon="3.73836">
        <ele>121.27572832667</ele>
        <time>2020-09-12T09:55:29.000Z</time>
      </trkpt>
      <trkpt lat="43.58805" lon="3.73833">
        <ele>121.66407808253</ele>
        <time>2020-09-12T09:55:31.000Z</time>
      </trkpt>
      <trkpt lat="43.58805" lon="3.7383">
        <ele>122.02783536308</ele>
        <time>2020-09-12T09:55:33.000Z</time>
      </trkpt>
      <trkpt lat="43.58805" lon="3.73827">
        <ele>122.23402079405</ele>
        <time>2020-09-12T09:55:35.000Z</time>
      </trkpt>
      <trkpt lat="43.58805" lon="3.73823">
        <ele>122.44020622502</ele>
        <time>2020-09-12T09:55:37.000Z</time>
      </trkpt>
      <trkpt lat="43.58804" lon="3.7382">
        <ele>122.64639165599</ele>
        <time>2020-09-12T09:55:39.000Z</time>
      </trkpt>
      <trkpt lat="43.58804" lon="3.73817">
        <ele>122.85257708696</ele>
        <time>2020-09-12T09:55:41.000Z</time>
      </trkpt>
      <trkpt lat="43.58804" lon="3.73813">
        <ele>123.11399936</ele>
        <time>2020-09-12T09:55:43.000Z</time>
      </trkpt>
      <trkpt lat="43.58804" lon="3.7381">
        <ele>123.51399936</ele>
        <time>2020-09-12T09:55:45.000Z</time>
      </trkpt>
      <trkpt lat="43.58805" lon="3.73806">
        <ele>123.91399936</ele>
        <time>2020-09-12T09:55:47.000Z</time>
      </trkpt>
      <trkpt lat="43.58806" lon="3.73803">
        <ele>124.31399936</ele>
        <time>2020-09-12T09:55:49.000Z</time>
      </trkpt>
      <trkpt lat="43.58807" lon="3.73801">
        <ele>124.71399936</ele>
        <time>2020-09-12T09:55:51.000Z</time>
      </trkpt>
      <trkpt lat="43.58808" lon="3.73798">
        <ele>125.05699968</ele>
        <time>2020-09-12T09:55:53.000Z</time>
      </trkpt>
      <trkpt lat="43.58809" lon="3.73794">
        <ele>125.25699968</ele>
        <time>2020-09-12T09:55:55.000Z</time>
      </trkpt>
      <trkpt lat="43.5881" lon="3.73791">
        <ele>125.45699968</ele>
        <time>2020-09-12T09:55:57.000Z</time>
      </trkpt>
      <trkpt lat="43.58812" lon="3.73788">
        <ele>125.65699968</ele>
        <time>2020-09-12T09:55:59.000Z</time>
      </trkpt>
      <trkpt lat="43.58813" lon="3.73785">
        <ele>125.85699968</ele>
        <time>2020-09-12T09:56:01.000Z</time>
      </trkpt>
      <trkpt lat="43.58815" lon="3.73783">
        <ele>126.1107865845</ele>
        <time>2020-09-12T09:56:03.000Z</time>
      </trkpt>
      <trkpt lat="43.58817" lon="3.7378">
        <ele>126.49951362473</ele>
        <time>2020-09-12T09:56:05.000Z</time>
      </trkpt>
      <trkpt lat="43.58818" lon="3.73777">
        <ele>126.88824066495</ele>
        <time>2020-09-12T09:56:07.000Z</time>
      </trkpt>
      <trkpt lat="43.5882" lon="3.73775">
        <ele>127.27696770518</ele>
        <time>2020-09-12T09:56:09.000Z</time>
      </trkpt>
      <trkpt lat="43.58822" lon="3.73773">
        <ele>127.66569474541</ele>
        <time>2020-09-12T09:56:11.000Z</time>
      </trkpt>
      <trkpt lat="43.58823" lon="3.7377">
        <ele>128.05767248357</ele>
        <time>2020-09-12T09:56:13.000Z</time>
      </trkpt>
      <trkpt lat="43.58824" lon="3.73767">
        <ele>128.46961879477</ele>
        <time>2020-09-12T09:56:15.000Z</time>
      </trkpt>
      <trkpt lat="43.58824" lon="3.73764">
        <ele>128.88156510597</ele>
        <time>2020-09-12T09:56:17.000Z</time>
      </trkpt>
      <trkpt lat="43.58824" lon="3.7376">
        <ele>129.29351141717</ele>
        <time>2020-09-12T09:56:19.000Z</time>
      </trkpt>
      <trkpt lat="43.58824" lon="3.73756">
        <ele>129.70545772838</ele>
        <time>2020-09-12T09:56:21.000Z</time>
      </trkpt>
      <trkpt lat="43.58824" lon="3.73751">
        <ele>130.05533952953</ele>
        <time>2020-09-12T09:56:23.000Z</time>
      </trkpt>
      <trkpt lat="43.58825" lon="3.73749">
        <ele>130.1524269685</ele>
        <time>2020-09-12T09:56:24.000Z</time>
      </trkpt>
      <trkpt lat="43.58825" lon="3.73746">
        <ele>130.24951440746</ele>
        <time>2020-09-12T09:56:25.000Z</time>
      </trkpt>
      <trkpt lat="43.58826" lon="3.73743">
        <ele>130.34660184643</ele>
        <time>2020-09-12T09:56:26.000Z</time>
      </trkpt>
      <trkpt lat="43.58827" lon="3.73741">
        <ele>130.4436892854</ele>
        <time>2020-09-12T09:56:27.000Z</time>
      </trkpt>
      <trkpt lat="43.58827" lon="3.73738">
        <ele>130.54077672437</ele>
        <time>2020-09-12T09:56:28.000Z</time>
      </trkpt>
      <trkpt lat="43.58827" lon="3.73735">
        <ele>130.63786416333</ele>
        <time>2020-09-12T09:56:29.000Z</time>
      </trkpt>
      <trkpt lat="43.58827" lon="3.73732">
        <ele>130.7349516023</ele>
        <time>2020-09-12T09:56:30.000Z</time>
      </trkpt>
      <trkpt lat="43.58827" lon="3.73728">
        <ele>130.83203904127</ele>
        <time>2020-09-12T09:56:31.000Z</time>
      </trkpt>
      <trkpt lat="43.58828" lon="3.73725">
        <ele>130.92912648023</ele>
        <time>2020-09-12T09:56:32.000Z</time>
      </trkpt>
      <trkpt lat="43.58828" lon="3.73722">
        <ele>131</ele>
        <time>2020-09-12T09:56:33.000Z</time>
      </trkpt>
      <trkpt lat="43.58827" lon="3.73718">
        <ele>131</ele>
        <time>2020-09-12T09:56:34.000Z</time>
      </trkpt>
      <trkpt lat="43.58825" lon="3.73714">
        <ele>131</ele>
        <time>2020-09-12T09:56:35.000Z</time>
      </trkpt>
      <trkpt lat="43.58824" lon="3.7371">
        <ele>131</ele>
        <time>2020-09-12T09:56:36.000Z</time>
      </trkpt>
      <trkpt lat="43.58823" lon="3.73704">
        <ele>131</ele>
        <time>2020-09-12T09:56:37.000Z</time>
      </trkpt>
      <trkpt lat="43.58824" lon="3.737">
        <ele>131</ele>
        <time>2020-09-12T09:56:38.000Z</time>
      </trkpt>
      <trkpt lat="43.58825" lon="3.73696">
        <ele>131</ele>
        <time>2020-09-12T09:56:39.000Z</time>
      </trkpt>
      <trkpt lat="43.58826" lon="3.73693">
        <ele>131</ele>
        <time>2020-09-12T09:56:40.000Z</time>
      </trkpt>
      <trkpt lat="43.58827" lon="3.73691">
        <ele>131</ele>
        <time>2020-09-12T09:56:41.000Z</time>
      </trkpt>
      <trkpt lat="43.5883" lon="3.73688">
        <ele>130.96268435733</ele>
        <time>2020-09-12T09:56:47.000Z</time>
      </trkpt>
      <trkpt lat="43.58832" lon="3.73683">
        <ele>130</ele>
        <time>2020-09-12T09:56:50.000Z</time>
      </trkpt>
      <trkpt lat="43.58833" lon="3.7368">
        <ele>130</ele>
        <time>2020-09-12T09:56:51.000Z</time>
      </trkpt>
      <trkpt lat="43.58834" lon="3.73677">
        <ele>130</ele>
        <time>2020-09-12T09:56:52.000Z</time>
      </trkpt>
      <trkpt lat="43.58836" lon="3.73674">
        <ele>130</ele>
        <time>2020-09-12T09:56:53.000Z</time>
      </trkpt>
      <trkpt lat="43.58837" lon="3.7367">
        <ele>130</ele>
        <time>2020-09-12T09:56:54.000Z</time>
      </trkpt>
      <trkpt lat="43.58839" lon="3.73666">
        <ele>130</ele>
        <time>2020-09-12T09:56:55.000Z</time>
      </trkpt>
      <trkpt lat="43.5884" lon="3.73663">
        <ele>130</ele>
        <time>2020-09-12T09:56:56.000Z</time>
      </trkpt>
      <trkpt lat="43.58841" lon="3.73659">
        <ele>130</ele>
        <time>2020-09-12T09:56:57.000Z</time>
      </trkpt>
      <trkpt lat="43.58841" lon="3.73656">
        <ele>130</ele>
        <time>2020-09-12T09:56:58.000Z</time>
      </trkpt>
      <trkpt lat="43.58841" lon="3.73652">
        <ele>130</ele>
        <time>2020-09-12T09:56:59.000Z</time>
      </trkpt>
      <trkpt lat="43.58839" lon="3.73647">
        <ele>130</ele>
        <time>2020-09-12T09:57:00.000Z</time>
      </trkpt>
      <trkpt lat="43.58838" lon="3.73643">
        <ele>130</ele>
        <time>2020-09-12T09:57:01.000Z</time>
      </trkpt>
      <trkpt lat="43.58838" lon="3.73639">
        <ele>130</ele>
        <time>2020-09-12T09:57:02.000Z</time>
      </trkpt>
      <trkpt lat="43.5884" lon="3.73635">
        <ele>130</ele>
        <time>2020-09-12T09:57:03.000Z</time>
      </trkpt>
      <trkpt lat="43.58842" lon="3.73633">
        <ele>130</ele>
        <time>2020-09-12T09:57:04.000Z</time>
      </trkpt>
      <trkpt lat="43.58844" lon="3.7363">
        <ele>130</ele>
        <time>2020-09-12T09:57:05.000Z</time>
      </trkpt>
      <trkpt lat="43.58846" lon="3.73628">
        <ele>130</ele>
        <time>2020-09-12T09:57:06.000Z</time>
      </trkpt>
      <trkpt lat="43.58849" lon="3.73625">
        <ele>130</ele>
        <time>2020-09-12T09:57:07.000Z</time>
      </trkpt>
      <trkpt lat="43.58851" lon="3.73622">
        <ele>130</ele>
        <time>2020-09-12T09:57:08.000Z</time>
      </trkpt>
      <trkpt lat="43.58853" lon="3.73619">
        <ele>130</ele>
        <time>2020-09-12T09:57:09.000Z</time>
      </trkpt>
      <trkpt lat="43.58854" lon="3.73617">
        <ele>130</ele>
        <time>2020-09-12T09:57:10.000Z</time>
      </trkpt>
      <trkpt lat="43.58856" lon="3.73615">
        <ele>130</ele>
        <time>2020-09-12T09:57:11.000Z</time>
      </trkpt>
      <trkpt lat="43.58858" lon="3.73614">
        <ele>130</ele>
        <time>2020-09-12T09:57:12.000Z</time>
      </trkpt>
      <trkpt lat="43.58859" lon="3.73612">
        <ele>130</ele>
        <time>2020-09-12T09:57:14.000Z</time>
      </trkpt>
      <trkpt lat="43.58859" lon="3.73611">
        <ele>130</ele>
        <time>2020-09-12T09:57:19.000Z</time>
      </trkpt>
      <trkpt lat="43.58861" lon="3.73602">
        <ele>132.99263124707</ele>
        <time>2020-09-12T10:02:40.000Z</time>
      </trkpt>
      <trkpt lat="43.58864" lon="3.73599">
        <ele>132.78210507311</ele>
        <time>2020-09-12T10:02:42.000Z</time>
      </trkpt>
      <trkpt lat="43.58865" lon="3.73598">
        <ele>132.67684198613</ele>
        <time>2020-09-12T10:02:43.000Z</time>
      </trkpt>
      <trkpt lat="43.58867" lon="3.73596">
        <ele>132.57157889915</ele>
        <time>2020-09-12T10:02:44.000Z</time>
      </trkpt>
      <trkpt lat="43.5887" lon="3.73593">
        <ele>132.36105272519</ele>
        <time>2020-09-12T10:02:46.000Z</time>
      </trkpt>
      <trkpt lat="43.58872" lon="3.7359">
        <ele>132.15052655122</ele>
        <time>2020-09-12T10:02:48.000Z</time>
      </trkpt>
      <trkpt lat="43.58874" lon="3.73586">
        <ele>132</ele>
        <time>2020-09-12T10:02:50.000Z</time>
      </trkpt>
      <trkpt lat="43.58875" lon="3.73583">
        <ele>132</ele>
        <time>2020-09-12T10:02:51.000Z</time>
      </trkpt>
      <trkpt lat="43.58876" lon="3.73581">
        <ele>132</ele>
        <time>2020-09-12T10:02:52.000Z</time>
      </trkpt>
      <trkpt lat="43.58877" lon="3.73578">
        <ele>132</ele>
        <time>2020-09-12T10:02:53.000Z</time>
      </trkpt>
      <trkpt lat="43.58878" lon="3.73576">
        <ele>132</ele>
        <time>2020-09-12T10:02:54.000Z</time>
      </trkpt>
      <trkpt lat="43.5888" lon="3.73574">
        <ele>132</ele>
        <time>2020-09-12T10:02:55.000Z</time>
      </trkpt>
      <trkpt lat="43.58882" lon="3.73571">
        <ele>132</ele>
        <time>2020-09-12T10:02:56.000Z</time>
      </trkpt>
      <trkpt lat="43.58883" lon="3.7357">
        <ele>132</ele>
        <time>2020-09-12T10:02:57.000Z</time>
      </trkpt>
      <trkpt lat="43.58885" lon="3.73568">
        <ele>132</ele>
        <time>2020-09-12T10:02:58.000Z</time>
      </trkpt>
      <trkpt lat="43.58887" lon="3.73564">
        <ele>132.02883624178</ele>
        <time>2020-09-12T10:03:00.000Z</time>
      </trkpt>
      <trkpt lat="43.58888" lon="3.73562">
        <ele>132.13182281959</ele>
        <time>2020-09-12T10:03:01.000Z</time>
      </trkpt>
      <trkpt lat="43.5889" lon="3.7356">
        <ele>132.23480939738</ele>
        <time>2020-09-12T10:03:02.000Z</time>
      </trkpt>
      <trkpt lat="43.58891" lon="3.73558">
        <ele>132.33779597519</ele>
        <time>2020-09-12T10:03:03.000Z</time>
      </trkpt>
      <trkpt lat="43.58892" lon="3.73556">
        <ele>132.44078255299</ele>
        <time>2020-09-12T10:03:04.000Z</time>
      </trkpt>
      <trkpt lat="43.58893" lon="3.73553">
        <ele>132.54376913079</ele>
        <time>2020-09-12T10:03:05.000Z</time>
      </trkpt>
      <trkpt lat="43.58893" lon="3.73551">
        <ele>132.64675570859</ele>
        <time>2020-09-12T10:03:06.000Z</time>
      </trkpt>
      <trkpt lat="43.58894" lon="3.73548">
        <ele>132.74974228639</ele>
        <time>2020-09-12T10:03:07.000Z</time>
      </trkpt>
      <trkpt lat="43.58896" lon="3.73545">
        <ele>132.85272886419</ele>
        <time>2020-09-12T10:03:08.000Z</time>
      </trkpt>
      <trkpt lat="43.58897" lon="3.73543">
        <ele>132.95571544199</ele>
        <time>2020-09-12T10:03:09.000Z</time>
      </trkpt>
      <trkpt lat="43.58898" lon="3.7354">
        <ele>132.94460670775</ele>
        <time>2020-09-12T10:03:10.000Z</time>
      </trkpt>
      <trkpt lat="43.589" lon="3.73538">
        <ele>132.84742494769</ele>
        <time>2020-09-12T10:03:11.000Z</time>
      </trkpt>
      <trkpt lat="43.58901" lon="3.73535">
        <ele>132.75024318764</ele>
        <time>2020-09-12T10:03:12.000Z</time>
      </trkpt>
      <trkpt lat="43.58903" lon="3.73532">
        <ele>132.65306142758</ele>
        <time>2020-09-12T10:03:13.000Z</time>
      </trkpt>
      <trkpt lat="43.58904" lon="3.73529">
        <ele>132.55587966752</ele>
        <time>2020-09-12T10:03:14.000Z</time>
      </trkpt>
      <trkpt lat="43.58906" lon="3.73527">
        <ele>132.45869790747</ele>
        <time>2020-09-12T10:03:15.000Z</time>
      </trkpt>
      <trkpt lat="43.58908" lon="3.73524">
        <ele>132.36151614741</ele>
        <time>2020-09-12T10:03:16.000Z</time>
      </trkpt>
      <trkpt lat="43.5891" lon="3.73521">
        <ele>132.26433438735</ele>
        <time>2020-09-12T10:03:17.000Z</time>
      </trkpt>
      <trkpt lat="43.58911" lon="3.73518">
        <ele>132.1671526273</ele>
        <time>2020-09-12T10:03:18.000Z</time>
      </trkpt>
      <trkpt lat="43.58913" lon="3.73515">
        <ele>132.06997086724</ele>
        <time>2020-09-12T10:03:19.000Z</time>
      </trkpt>
      <trkpt lat="43.58915" lon="3.73512">
        <ele>132</ele>
        <time>2020-09-12T10:03:20.000Z</time>
      </trkpt>
      <trkpt lat="43.58916" lon="3.73509">
        <ele>132</ele>
        <time>2020-09-12T10:03:21.000Z</time>
      </trkpt>
      <trkpt lat="43.58918" lon="3.73506">
        <ele>132</ele>
        <time>2020-09-12T10:03:22.000Z</time>
      </trkpt>
      <trkpt lat="43.5892" lon="3.73503">
        <ele>132</ele>
        <time>2020-09-12T10:03:23.000Z</time>
      </trkpt>
      <trkpt lat="43.58922" lon="3.735">
        <ele>132</ele>
        <time>2020-09-12T10:03:24.000Z</time>
      </trkpt>
      <trkpt lat="43.58924" lon="3.73496">
        <ele>132</ele>
        <time>2020-09-12T10:03:25.000Z</time>
      </trkpt>
      <trkpt lat="43.58926" lon="3.73493">
        <ele>132</ele>
        <time>2020-09-12T10:03:26.000Z</time>
      </trkpt>
      <trkpt lat="43.58928" lon="3.7349">
        <ele>132</ele>
        <time>2020-09-12T10:03:27.000Z</time>
      </trkpt>
      <trkpt lat="43.5893" lon="3.73487">
        <ele>132</ele>
        <time>2020-09-12T10:03:28.000Z</time>
      </trkpt>
      <trkpt lat="43.58931" lon="3.73484">
        <ele>132</ele>
        <time>2020-09-12T10:03:29.000Z</time>
      </trkpt>
      <trkpt lat="43.58933" lon="3.73481">
        <ele>132</ele>
        <time>2020-09-12T10:03:30.000Z</time>
      </trkpt>
      <trkpt lat="43.58935" lon="3.73478">
        <ele>132</ele>
        <time>2020-09-12T10:03:31.000Z</time>
      </trkpt>
      <trkpt lat="43.58937" lon="3.73475">
        <ele>132</ele>
        <time>2020-09-12T10:03:32.000Z</time>
      </trkpt>
      <trkpt lat="43.58938" lon="3.73471">
        <ele>132</ele>
        <time>2020-09-12T10:03:33.000Z</time>
      </trkpt>
      <trkpt lat="43.5894" lon="3.73468">
        <ele>132</ele>
        <time>2020-09-12T10:03:34.000Z</time>
      </trkpt>
      <trkpt lat="43.58942" lon="3.73464">
        <ele>132</ele>
        <time>2020-09-12T10:03:35.000Z</time>
      </trkpt>
      <trkpt lat="43.58943" lon="3.73462">
        <ele>132</ele>
        <time>2020-09-12T10:03:36.000Z</time>
      </trkpt>
      <trkpt lat="43.58945" lon="3.73459">
        <ele>132</ele>
        <time>2020-09-12T10:03:37.000Z</time>
      </trkpt>
      <trkpt lat="43.58948" lon="3.73456">
        <ele>132</ele>
        <time>2020-09-12T10:03:38.000Z</time>
      </trkpt>
      <trkpt lat="43.5895" lon="3.73453">
        <ele>132</ele>
        <time>2020-09-12T10:03:39.000Z</time>
      </trkpt>
      <trkpt lat="43.58952" lon="3.73451">
        <ele>131.94300032</ele>
        <time>2020-09-12T10:03:40.000Z</time>
      </trkpt>
      <trkpt lat="43.58954" lon="3.73448">
        <ele>131.84300032</ele>
        <time>2020-09-12T10:03:41.000Z</time>
      </trkpt>
      <trkpt lat="43.58957" lon="3.73446">
        <ele>131.74300032</ele>
        <time>2020-09-12T10:03:42.000Z</time>
      </trkpt>
      <trkpt lat="43.5896" lon="3.73443">
        <ele>131.64300032</ele>
        <time>2020-09-12T10:03:43.000Z</time>
      </trkpt>
      <trkpt lat="43.58962" lon="3.73441">
        <ele>131.54300032</ele>
        <time>2020-09-12T10:03:44.000Z</time>
      </trkpt>
      <trkpt lat="43.58965" lon="3.73439">
        <ele>131.44300032</ele>
        <time>2020-09-12T10:03:45.000Z</time>
      </trkpt>
      <trkpt lat="43.58968" lon="3.73438">
        <ele>131.34300032</ele>
        <time>2020-09-12T10:03:46.000Z</time>
      </trkpt>
      <trkpt lat="43.58971" lon="3.73436">
        <ele>131.24300032</ele>
        <time>2020-09-12T10:03:47.000Z</time>
      </trkpt>
      <trkpt lat="43.58974" lon="3.73435">
        <ele>131.14300032</ele>
        <time>2020-09-12T10:03:48.000Z</time>
      </trkpt>
      <trkpt lat="43.58977" lon="3.73435">
        <ele>131.04300032</ele>
        <time>2020-09-12T10:03:49.000Z</time>
      </trkpt>
      <trkpt lat="43.5898" lon="3.73434">
        <ele>131</ele>
        <time>2020-09-12T10:03:50.000Z</time>
      </trkpt>
      <trkpt lat="43.58983" lon="3.73433">
        <ele>131</ele>
        <time>2020-09-12T10:03:51.000Z</time>
      </trkpt>
      <trkpt lat="43.58986" lon="3.73433">
        <ele>131</ele>
        <time>2020-09-12T10:03:52.000Z</time>
      </trkpt>
      <trkpt lat="43.5899" lon="3.73433">
        <ele>131</ele>
        <time>2020-09-12T10:03:53.000Z</time>
      </trkpt>
      <trkpt lat="43.58993" lon="3.73433">
        <ele>131</ele>
        <time>2020-09-12T10:03:54.000Z</time>
      </trkpt>
      <trkpt lat="43.58997" lon="3.73434">
        <ele>131</ele>
        <time>2020-09-12T10:03:55.000Z</time>
      </trkpt>
      <trkpt lat="43.59001" lon="3.73435">
        <ele>131</ele>
        <time>2020-09-12T10:03:56.000Z</time>
      </trkpt>
      <trkpt lat="43.59005" lon="3.73435">
        <ele>131</ele>
        <time>2020-09-12T10:03:57.000Z</time>
      </trkpt>
      <trkpt lat="43.59008" lon="3.73436">
        <ele>131</ele>
        <time>2020-09-12T10:03:58.000Z</time>
      </trkpt>
      <trkpt lat="43.59012" lon="3.73436">
        <ele>131</ele>
        <time>2020-09-12T10:03:59.000Z</time>
      </trkpt>
      <trkpt lat="43.59016" lon="3.73437">
        <ele>131</ele>
        <time>2020-09-12T10:04:00.000Z</time>
      </trkpt>
      <trkpt lat="43.59019" lon="3.73437">
        <ele>131</ele>
        <time>2020-09-12T10:04:01.000Z</time>
      </trkpt>
      <trkpt lat="43.59022" lon="3.73437">
        <ele>131</ele>
        <time>2020-09-12T10:04:02.000Z</time>
      </trkpt>
      <trkpt lat="43.59024" lon="3.73437">
        <ele>131</ele>
        <time>2020-09-12T10:04:03.000Z</time>
      </trkpt>
      <trkpt lat="43.59027" lon="3.73436">
        <ele>131</ele>
        <time>2020-09-12T10:04:04.000Z</time>
      </trkpt>
      <trkpt lat="43.5903" lon="3.73436">
        <ele>131</ele>
        <time>2020-09-12T10:04:05.000Z</time>
      </trkpt>
      <trkpt lat="43.59033" lon="3.73435">
        <ele>131</ele>
        <time>2020-09-12T10:04:06.000Z</time>
      </trkpt>
      <trkpt lat="43.59036" lon="3.73434">
        <ele>131</ele>
        <time>2020-09-12T10:04:07.000Z</time>
      </trkpt>
      <trkpt lat="43.59039" lon="3.73434">
        <ele>131</ele>
        <time>2020-09-12T10:04:08.000Z</time>
      </trkpt>
      <trkpt lat="43.59042" lon="3.73432">
        <ele>131</ele>
        <time>2020-09-12T10:04:09.000Z</time>
      </trkpt>
      <trkpt lat="43.59045" lon="3.7343">
        <ele>131.04263895802</ele>
        <time>2020-09-12T10:04:10.000Z</time>
      </trkpt>
      <trkpt lat="43.59048" lon="3.73429">
        <ele>131.14416183364</ele>
        <time>2020-09-12T10:04:11.000Z</time>
      </trkpt>
      <trkpt lat="43.59052" lon="3.73427">
        <ele>131.24568470926</ele>
        <time>2020-09-12T10:04:12.000Z</time>
      </trkpt>
      <trkpt lat="43.59055" lon="3.73426">
        <ele>131.34720758488</ele>
        <time>2020-09-12T10:04:13.000Z</time>
      </trkpt>
      <trkpt lat="43.59059" lon="3.73424">
        <ele>131.4487304605</ele>
        <time>2020-09-12T10:04:14.000Z</time>
      </trkpt>
      <trkpt lat="43.59062" lon="3.73423">
        <ele>131.55025333612</ele>
        <time>2020-09-12T10:04:15.000Z</time>
      </trkpt>
      <trkpt lat="43.59066" lon="3.73422">
        <ele>131.65177621174</ele>
        <time>2020-09-12T10:04:16.000Z</time>
      </trkpt>
      <trkpt lat="43.59069" lon="3.73421">
        <ele>131.75329908737</ele>
        <time>2020-09-12T10:04:17.000Z</time>
      </trkpt>
      <trkpt lat="43.59072" lon="3.7342">
        <ele>131.85482196299</ele>
        <time>2020-09-12T10:04:18.000Z</time>
      </trkpt>
      <trkpt lat="43.59075" lon="3.73418">
        <ele>131.95634483861</ele>
        <time>2020-09-12T10:04:19.000Z</time>
      </trkpt>
      <trkpt lat="43.59078" lon="3.73416">
        <ele>132.05699968</ele>
        <time>2020-09-12T10:04:20.000Z</time>
      </trkpt>
      <trkpt lat="43.5908" lon="3.73414">
        <ele>132.15699968</ele>
        <time>2020-09-12T10:04:21.000Z</time>
      </trkpt>
      <trkpt lat="43.59083" lon="3.73412">
        <ele>132.25699968</ele>
        <time>2020-09-12T10:04:22.000Z</time>
      </trkpt>
      <trkpt lat="43.59086" lon="3.7341">
        <ele>132.35699968</ele>
        <time>2020-09-12T10:04:23.000Z</time>
      </trkpt>
      <trkpt lat="43.59089" lon="3.73408">
        <ele>132.45699968</ele>
        <time>2020-09-12T10:04:24.000Z</time>
      </trkpt>
      <trkpt lat="43.59092" lon="3.73406">
        <ele>132.55699968</ele>
        <time>2020-09-12T10:04:25.000Z</time>
      </trkpt>
      <trkpt lat="43.59094" lon="3.73403">
        <ele>132.65699968</ele>
        <time>2020-09-12T10:04:26.000Z</time>
      </trkpt>
      <trkpt lat="43.59097" lon="3.73401">
        <ele>132.75699968</ele>
        <time>2020-09-12T10:04:27.000Z</time>
      </trkpt>
      <trkpt lat="43.591" lon="3.734">
        <ele>132.85699968</ele>
        <time>2020-09-12T10:04:28.000Z</time>
      </trkpt>
      <trkpt lat="43.59102" lon="3.73399">
        <ele>132.95699968</ele>
        <time>2020-09-12T10:04:29.000Z</time>
      </trkpt>
      <trkpt lat="43.59103" lon="3.73397">
        <ele>133.05615730249</ele>
        <time>2020-09-12T10:04:30.000Z</time>
      </trkpt>
      <trkpt lat="43.59105" lon="3.73396">
        <ele>133.15467943892</ele>
        <time>2020-09-12T10:04:31.000Z</time>
      </trkpt>
      <trkpt lat="43.59108" lon="3.73395">
        <ele>133.25320157535</ele>
        <time>2020-09-12T10:04:32.000Z</time>
      </trkpt>
      <trkpt lat="43.59111" lon="3.73394">
        <ele>133.35172371177</ele>
        <time>2020-09-12T10:04:33.000Z</time>
      </trkpt>
      <trkpt lat="43.59113" lon="3.73394">
        <ele>133.4502458482</ele>
        <time>2020-09-12T10:04:34.000Z</time>
      </trkpt>
      <trkpt lat="43.59115" lon="3.73393">
        <ele>133.54876798462</ele>
        <time>2020-09-12T10:04:35.000Z</time>
      </trkpt>
      <trkpt lat="43.59118" lon="3.73392">
        <ele>133.64729012105</ele>
        <time>2020-09-12T10:04:36.000Z</time>
      </trkpt>
      <trkpt lat="43.5912" lon="3.73391">
        <ele>133.74581225748</ele>
        <time>2020-09-12T10:04:37.000Z</time>
      </trkpt>
      <trkpt lat="43.59122" lon="3.73389">
        <ele>133.8443343939</ele>
        <time>2020-09-12T10:04:38.000Z</time>
      </trkpt>
      <trkpt lat="43.59125" lon="3.73388">
        <ele>133.94285653033</ele>
        <time>2020-09-12T10:04:39.000Z</time>
      </trkpt>
      <trkpt lat="43.59127" lon="3.73386">
        <ele>134.04263895802</ele>
        <time>2020-09-12T10:04:40.000Z</time>
      </trkpt>
      <trkpt lat="43.5913" lon="3.73385">
        <ele>134.14416183364</ele>
        <time>2020-09-12T10:04:41.000Z</time>
      </trkpt>
      <trkpt lat="43.59132" lon="3.73384">
        <ele>134.24568470926</ele>
        <time>2020-09-12T10:04:42.000Z</time>
      </trkpt>
      <trkpt lat="43.59135" lon="3.73382">
        <ele>134.34720758488</ele>
        <time>2020-09-12T10:04:43.000Z</time>
      </trkpt>
      <trkpt lat="43.59137" lon="3.73381">
        <ele>134.4487304605</ele>
        <time>2020-09-12T10:04:44.000Z</time>
      </trkpt>
      <trkpt lat="43.59139" lon="3.7338">
        <ele>134.55025333612</ele>
        <time>2020-09-12T10:04:45.000Z</time>
      </trkpt>
      <trkpt lat="43.59141" lon="3.73379">
        <ele>134.65177621174</ele>
        <time>2020-09-12T10:04:46.000Z</time>
      </trkpt>
      <trkpt lat="43.59143" lon="3.73378">
        <ele>134.75329908737</ele>
        <time>2020-09-12T10:04:47.000Z</time>
      </trkpt>
      <trkpt lat="43.59146" lon="3.73376">
        <ele>134.85482196299</ele>
        <time>2020-09-12T10:04:48.000Z</time>
      </trkpt>
      <trkpt lat="43.59147" lon="3.73375">
        <ele>134.95634483861</ele>
        <time>2020-09-12T10:04:49.000Z</time>
      </trkpt>
      <trkpt lat="43.5915" lon="3.73373">
        <ele>135.11399936</ele>
        <time>2020-09-12T10:04:50.000Z</time>
      </trkpt>
      <trkpt lat="43.59152" lon="3.73371">
        <ele>135.31399936</ele>
        <time>2020-09-12T10:04:51.000Z</time>
      </trkpt>
      <trkpt lat="43.59155" lon="3.73369">
        <ele>135.51399936</ele>
        <time>2020-09-12T10:04:52.000Z</time>
      </trkpt>
      <trkpt lat="43.59157" lon="3.73368">
        <ele>135.71399936</ele>
        <time>2020-09-12T10:04:53.000Z</time>
      </trkpt>
      <trkpt lat="43.59159" lon="3.73366">
        <ele>135.91399936</ele>
        <time>2020-09-12T10:04:54.000Z</time>
      </trkpt>
      <trkpt lat="43.59161" lon="3.73364">
        <ele>136.11399936</ele>
        <time>2020-09-12T10:04:55.000Z</time>
      </trkpt>
      <trkpt lat="43.59163" lon="3.73362">
        <ele>136.31399936</ele>
        <time>2020-09-12T10:04:56.000Z</time>
      </trkpt>
      <trkpt lat="43.59164" lon="3.73361">
        <ele>136.51399936</ele>
        <time>2020-09-12T10:04:57.000Z</time>
      </trkpt>
      <trkpt lat="43.59166" lon="3.73359">
        <ele>136.71399936</ele>
        <time>2020-09-12T10:04:58.000Z</time>
      </trkpt>
      <trkpt lat="43.59168" lon="3.73358">
        <ele>136.91399936</ele>
        <time>2020-09-12T10:04:59.000Z</time>
      </trkpt>
      <trkpt lat="43.59169" lon="3.73357">
        <ele>137.11399936</ele>
        <time>2020-09-12T10:05:00.000Z</time>
      </trkpt>
      <trkpt lat="43.59172" lon="3.73355">
        <ele>137.31399936</ele>
        <time>2020-09-12T10:05:01.000Z</time>
      </trkpt>
      <trkpt lat="43.59173" lon="3.73354">
        <ele>137.51399936</ele>
        <time>2020-09-12T10:05:02.000Z</time>
      </trkpt>
      <trkpt lat="43.59177" lon="3.73353">
        <ele>137.91399936</ele>
        <time>2020-09-12T10:05:04.000Z</time>
      </trkpt>
      <trkpt lat="43.5918" lon="3.73352">
        <ele>138.31399936</ele>
        <time>2020-09-12T10:05:06.000Z</time>
      </trkpt>
      <trkpt lat="43.59182" lon="3.73351">
        <ele>138.71399936</ele>
        <time>2020-09-12T10:05:08.000Z</time>
      </trkpt>
      <trkpt lat="43.59185" lon="3.73351">
        <ele>139.05539329225</ele>
        <time>2020-09-12T10:05:10.000Z</time>
      </trkpt>
      <trkpt lat="43.59188" lon="3.73353">
        <ele>139.24975681236</ele>
        <time>2020-09-12T10:05:12.000Z</time>
      </trkpt>
      <trkpt lat="43.59191" lon="3.73355">
        <ele>139.44412033248</ele>
        <time>2020-09-12T10:05:14.000Z</time>
      </trkpt>
      <trkpt lat="43.59193" lon="3.73357">
        <ele>139.63848385259</ele>
        <time>2020-09-12T10:05:16.000Z</time>
      </trkpt>
      <trkpt lat="43.59196" lon="3.73358">
        <ele>139.8328473727</ele>
        <time>2020-09-12T10:05:18.000Z</time>
      </trkpt>
      <trkpt lat="43.59198" lon="3.7336">
        <ele>140.02883624178</ele>
        <time>2020-09-12T10:05:20.000Z</time>
      </trkpt>
      <trkpt lat="43.59201" lon="3.7336">
        <ele>140.23480939738</ele>
        <time>2020-09-12T10:05:22.000Z</time>
      </trkpt>
      <trkpt lat="43.59204" lon="3.7336">
        <ele>140.44078255299</ele>
        <time>2020-09-12T10:05:24.000Z</time>
      </trkpt>
      <trkpt lat="43.59207" lon="3.73361">
        <ele>140.64675570859</ele>
        <time>2020-09-12T10:05:26.000Z</time>
      </trkpt>
      <trkpt lat="43.5921" lon="3.73361">
        <ele>140.85272886419</ele>
        <time>2020-09-12T10:05:28.000Z</time>
      </trkpt>
      <trkpt lat="43.59212" lon="3.73362">
        <ele>140.95571544199</ele>
        <time>2020-09-12T10:05:29.000Z</time>
      </trkpt>
      <trkpt lat="43.59215" lon="3.73362">
        <ele>141.35628733336</ele>
        <time>2020-09-12T10:05:33.000Z</time>
      </trkpt>
      <trkpt lat="43.59217" lon="3.73363">
        <ele>141.55588825925</ele>
        <time>2020-09-12T10:05:35.000Z</time>
      </trkpt>
      <trkpt lat="43.59221" lon="3.73364">
        <ele>141.75548918514</ele>
        <time>2020-09-12T10:05:37.000Z</time>
      </trkpt>
      <trkpt lat="43.59224" lon="3.73365">
        <ele>141.95509011104</ele>
        <time>2020-09-12T10:05:39.000Z</time>
      </trkpt>
      <trkpt lat="43.59227" lon="3.73366">
        <ele>142.30938167864</ele>
        <time>2020-09-12T10:05:41.000Z</time>
      </trkpt>
      <trkpt lat="43.59231" lon="3.73367">
        <ele>142.70858302047</ele>
        <time>2020-09-12T10:05:43.000Z</time>
      </trkpt>
      <trkpt lat="43.59234" lon="3.73368">
        <ele>143.10778436229</ele>
        <time>2020-09-12T10:05:45.000Z</time>
      </trkpt>
      <trkpt lat="43.59237" lon="3.7337">
        <ele>143.50698570412</ele>
        <time>2020-09-12T10:05:47.000Z</time>
      </trkpt>
      <trkpt lat="43.5924" lon="3.73372">
        <ele>143.90618704595</ele>
        <time>2020-09-12T10:05:49.000Z</time>
      </trkpt>
      <trkpt lat="43.59242" lon="3.73375">
        <ele>144.15361413655</ele>
        <time>2020-09-12T10:05:51.000Z</time>
      </trkpt>
      <trkpt lat="43.59245" lon="3.73378">
        <ele>144.3544173494</ele>
        <time>2020-09-12T10:05:53.000Z</time>
      </trkpt>
      <trkpt lat="43.59246" lon="3.73379">
        <ele>145</ele>
        <time>2020-09-12T10:06:01.000Z</time>
      </trkpt>
      <trkpt lat="43.59251" lon="3.73379">
        <ele>145.00945344538</ele>
        <time>2020-09-12T10:06:16.000Z</time>
      </trkpt>
      <trkpt lat="43.59252" lon="3.7338">
        <ele>145.11449546219</ele>
        <time>2020-09-12T10:06:17.000Z</time>
      </trkpt>
      <trkpt lat="43.59254" lon="3.73381">
        <ele>145.4296215126</ele>
        <time>2020-09-12T10:06:20.000Z</time>
      </trkpt>
      <trkpt lat="43.59256" lon="3.73382">
        <ele>145.74474756302</ele>
        <time>2020-09-12T10:06:23.000Z</time>
      </trkpt>
      <trkpt lat="43.59258" lon="3.73384">
        <ele>145.95483159664</ele>
        <time>2020-09-12T10:06:25.000Z</time>
      </trkpt>
      <trkpt lat="43.59261" lon="3.73385">
        <ele>146.15257505231</ele>
        <time>2020-09-12T10:06:27.000Z</time>
      </trkpt>
      <trkpt lat="43.59264" lon="3.73386">
        <ele>146.34693857242</ele>
        <time>2020-09-12T10:06:29.000Z</time>
      </trkpt>
      <trkpt lat="43.59265" lon="3.73387">
        <ele>146.44412033248</ele>
        <time>2020-09-12T10:06:30.000Z</time>
      </trkpt>
      <trkpt lat="43.59267" lon="3.73388">
        <ele>146.54130209253</ele>
        <time>2020-09-12T10:06:31.000Z</time>
      </trkpt>
      <trkpt lat="43.59269" lon="3.73389">
        <ele>146.63848385259</ele>
        <time>2020-09-12T10:06:32.000Z</time>
      </trkpt>
      <trkpt lat="43.59272" lon="3.73391">
        <ele>146.8328473727</ele>
        <time>2020-09-12T10:06:34.000Z</time>
      </trkpt>
      <trkpt lat="43.59274" lon="3.73393">
        <ele>147.02883624178</ele>
        <time>2020-09-12T10:06:36.000Z</time>
      </trkpt>
      <trkpt lat="43.59278" lon="3.73395">
        <ele>147.23480939738</ele>
        <time>2020-09-12T10:06:38.000Z</time>
      </trkpt>
      <trkpt lat="43.5928" lon="3.73396">
        <ele>147.33779597519</ele>
        <time>2020-09-12T10:06:39.000Z</time>
      </trkpt>
      <trkpt lat="43.59283" lon="3.73397">
        <ele>147.54376913079</ele>
        <time>2020-09-12T10:06:41.000Z</time>
      </trkpt>
      <trkpt lat="43.59286" lon="3.73398">
        <ele>147.74974228639</ele>
        <time>2020-09-12T10:06:43.000Z</time>
      </trkpt>
      <trkpt lat="43.59289" lon="3.73399">
        <ele>147.95571544199</ele>
        <time>2020-09-12T10:06:45.000Z</time>
      </trkpt>
      <trkpt lat="43.59291" lon="3.734">
        <ele>148.05699968</ele>
        <time>2020-09-12T10:06:46.000Z</time>
      </trkpt>
      <trkpt lat="43.59294" lon="3.73402">
        <ele>148.25699968</ele>
        <time>2020-09-12T10:06:48.000Z</time>
      </trkpt>
      <trkpt lat="43.59296" lon="3.73404">
        <ele>148.45699968</ele>
        <time>2020-09-12T10:06:50.000Z</time>
      </trkpt>
      <trkpt lat="43.59298" lon="3.73406">
        <ele>148.65699968</ele>
        <time>2020-09-12T10:06:52.000Z</time>
      </trkpt>
      <trkpt lat="43.59302" lon="3.73407">
        <ele>148.85699968</ele>
        <time>2020-09-12T10:06:54.000Z</time>
      </trkpt>
      <trkpt lat="43.59303" lon="3.73407">
        <ele>148.95699968</ele>
        <time>2020-09-12T10:06:55.000Z</time>
      </trkpt>
      <trkpt lat="43.59307" lon="3.73408">
        <ele>149</ele>
        <time>2020-09-12T10:06:57.000Z</time>
      </trkpt>
      <trkpt lat="43.59311" lon="3.73407">
        <ele>149</ele>
        <time>2020-09-12T10:06:59.000Z</time>
      </trkpt>
      <trkpt lat="43.59313" lon="3.73407">
        <ele>149</ele>
        <time>2020-09-12T10:07:00.000Z</time>
      </trkpt>
      <trkpt lat="43.59316" lon="3.73404">
        <ele>149</ele>
        <time>2020-09-12T10:07:01.000Z</time>
      </trkpt>
      <trkpt lat="43.59319" lon="3.73401">
        <ele>149</ele>
        <time>2020-09-12T10:07:02.000Z</time>
      </trkpt>
      <trkpt lat="43.59322" lon="3.73397">
        <ele>149</ele>
        <time>2020-09-12T10:07:03.000Z</time>
      </trkpt>
      <trkpt lat="43.59325" lon="3.73393">
        <ele>149</ele>
        <time>2020-09-12T10:07:04.000Z</time>
      </trkpt>
      <trkpt lat="43.59328" lon="3.7339">
        <ele>149</ele>
        <time>2020-09-12T10:07:05.000Z</time>
      </trkpt>
      <trkpt lat="43.5933" lon="3.73387">
        <ele>149</ele>
        <time>2020-09-12T10:07:06.000Z</time>
      </trkpt>
      <trkpt lat="43.59333" lon="3.73385">
        <ele>149</ele>
        <time>2020-09-12T10:07:07.000Z</time>
      </trkpt>
      <trkpt lat="43.59334" lon="3.73382">
        <ele>149</ele>
        <time>2020-09-12T10:07:08.000Z</time>
      </trkpt>
      <trkpt lat="43.59334" lon="3.7338">
        <ele>149</ele>
        <time>2020-09-12T10:07:09.000Z</time>
      </trkpt>
      <trkpt lat="43.59334" lon="3.73375">
        <ele>149</ele>
        <time>2020-09-12T10:07:11.000Z</time>
      </trkpt>
      <trkpt lat="43.59332" lon="3.73371">
        <ele>149</ele>
        <time>2020-09-12T10:07:13.000Z</time>
      </trkpt>
      <trkpt lat="43.59329" lon="3.73368">
        <ele>149</ele>
        <time>2020-09-12T10:07:15.000Z</time>
      </trkpt>
      <trkpt lat="43.59326" lon="3.73367">
        <ele>149</ele>
        <time>2020-09-12T10:07:16.000Z</time>
      </trkpt>
      <trkpt lat="43.59323" lon="3.73366">
        <ele>149</ele>
        <time>2020-09-12T10:07:17.000Z</time>
      </trkpt>
      <trkpt lat="43.5932" lon="3.73365">
        <ele>149</ele>
        <time>2020-09-12T10:07:18.000Z</time>
      </trkpt>
      <trkpt lat="43.59316" lon="3.73363">
        <ele>149</ele>
        <time>2020-09-12T10:07:19.000Z</time>
      </trkpt>
      <trkpt lat="43.59313" lon="3.73361">
        <ele>149</ele>
        <time>2020-09-12T10:07:20.000Z</time>
      </trkpt>
      <trkpt lat="43.59311" lon="3.73359">
        <ele>149</ele>
        <time>2020-09-12T10:07:21.000Z</time>
      </trkpt>
      <trkpt lat="43.59308" lon="3.73358">
        <ele>149</ele>
        <time>2020-09-12T10:07:22.000Z</time>
      </trkpt>
      <trkpt lat="43.59306" lon="3.73356">
        <ele>149</ele>
        <time>2020-09-12T10:07:23.000Z</time>
      </trkpt>
      <trkpt lat="43.59303" lon="3.73354">
        <ele>149</ele>
        <time>2020-09-12T10:07:24.000Z</time>
      </trkpt>
      <trkpt lat="43.593" lon="3.73352">
        <ele>149</ele>
        <time>2020-09-12T10:07:25.000Z</time>
      </trkpt>
      <trkpt lat="43.59298" lon="3.73351">
        <ele>149</ele>
        <time>2020-09-12T10:07:26.000Z</time>
      </trkpt>
      <trkpt lat="43.59295" lon="3.73351">
        <ele>149</ele>
        <time>2020-09-12T10:07:27.000Z</time>
      </trkpt>
      <trkpt lat="43.59291" lon="3.73351">
        <ele>149</ele>
        <time>2020-09-12T10:07:28.000Z</time>
      </trkpt>
      <trkpt lat="43.59288" lon="3.7335">
        <ele>149</ele>
        <time>2020-09-12T10:07:29.000Z</time>
      </trkpt>
      <trkpt lat="43.59285" lon="3.73348">
        <ele>149</ele>
        <time>2020-09-12T10:07:30.000Z</time>
      </trkpt>
      <trkpt lat="43.59281" lon="3.73346">
        <ele>149</ele>
        <time>2020-09-12T10:07:31.000Z</time>
      </trkpt>
      <trkpt lat="43.59276" lon="3.73345">
        <ele>149</ele>
        <time>2020-09-12T10:07:32.000Z</time>
      </trkpt>
      <trkpt lat="43.59271" lon="3.73345">
        <ele>149</ele>
        <time>2020-09-12T10:07:33.000Z</time>
      </trkpt>
      <trkpt lat="43.59267" lon="3.73345">
        <ele>149</ele>
        <time>2020-09-12T10:07:34.000Z</time>
      </trkpt>
      <trkpt lat="43.59263" lon="3.73343">
        <ele>149</ele>
        <time>2020-09-12T10:07:35.000Z</time>
      </trkpt>
      <trkpt lat="43.59259" lon="3.7334">
        <ele>149</ele>
        <time>2020-09-12T10:07:36.000Z</time>
      </trkpt>
      <trkpt lat="43.59257" lon="3.73336">
        <ele>149</ele>
        <time>2020-09-12T10:07:37.000Z</time>
      </trkpt>
      <trkpt lat="43.59254" lon="3.73334">
        <ele>149</ele>
        <time>2020-09-12T10:07:38.000Z</time>
      </trkpt>
      <trkpt lat="43.59252" lon="3.73334">
        <ele>149</ele>
        <time>2020-09-12T10:07:39.000Z</time>
      </trkpt>
      <trkpt lat="43.59249" lon="3.73333">
        <ele>149</ele>
        <time>2020-09-12T10:07:41.000Z</time>
      </trkpt>
      <trkpt lat="43.59246" lon="3.73331">
        <ele>149</ele>
        <time>2020-09-12T10:07:43.000Z</time>
      </trkpt>
      <trkpt lat="43.59242" lon="3.73329">
        <ele>149</ele>
        <time>2020-09-12T10:07:45.000Z</time>
      </trkpt>
      <trkpt lat="43.59239" lon="3.73327">
        <ele>148.88600064</ele>
        <time>2020-09-12T10:07:46.000Z</time>
      </trkpt>
      <trkpt lat="43.59237" lon="3.73325">
        <ele>148.68600064</ele>
        <time>2020-09-12T10:07:47.000Z</time>
      </trkpt>
      <trkpt lat="43.59234" lon="3.73323">
        <ele>148.48600064</ele>
        <time>2020-09-12T10:07:48.000Z</time>
      </trkpt>
      <trkpt lat="43.59231" lon="3.73322">
        <ele>148.28600064</ele>
        <time>2020-09-12T10:07:49.000Z</time>
      </trkpt>
      <trkpt lat="43.59228" lon="3.73319">
        <ele>148.08600064</ele>
        <time>2020-09-12T10:07:50.000Z</time>
      </trkpt>
      <trkpt lat="43.59226" lon="3.73316">
        <ele>147.88600064</ele>
        <time>2020-09-12T10:07:51.000Z</time>
      </trkpt>
      <trkpt lat="43.59224" lon="3.73313">
        <ele>147.68600064</ele>
        <time>2020-09-12T10:07:52.000Z</time>
      </trkpt>
      <trkpt lat="43.59223" lon="3.7331">
        <ele>147.48600064</ele>
        <time>2020-09-12T10:07:53.000Z</time>
      </trkpt>
      <trkpt lat="43.59223" lon="3.73307">
        <ele>147.28600064</ele>
        <time>2020-09-12T10:07:54.000Z</time>
      </trkpt>
      <trkpt lat="43.59224" lon="3.73305">
        <ele>147.08600064</ele>
        <time>2020-09-12T10:07:55.000Z</time>
      </trkpt>
      <trkpt lat="43.59225" lon="3.73301">
        <ele>147</ele>
        <time>2020-09-12T10:07:57.000Z</time>
      </trkpt>
      <trkpt lat="43.59228" lon="3.73297">
        <ele>147</ele>
        <time>2020-09-12T10:07:59.000Z</time>
      </trkpt>
      <trkpt lat="43.59229" lon="3.73294">
        <ele>147</ele>
        <time>2020-09-12T10:08:01.000Z</time>
      </trkpt>
      <trkpt lat="43.5923" lon="3.73291">
        <ele>147</ele>
        <time>2020-09-12T10:08:03.000Z</time>
      </trkpt>
      <trkpt lat="43.59232" lon="3.73288">
        <ele>147</ele>
        <time>2020-09-12T10:08:05.000Z</time>
      </trkpt>
      <trkpt lat="43.59234" lon="3.73286">
        <ele>146.84300032</ele>
        <time>2020-09-12T10:08:07.000Z</time>
      </trkpt>
      <trkpt lat="43.59235" lon="3.73283">
        <ele>146.24300032</ele>
        <time>2020-09-12T10:08:13.000Z</time>
      </trkpt>
      <trkpt lat="43.59236" lon="3.7328">
        <ele>146.05699968</ele>
        <time>2020-09-12T10:08:16.000Z</time>
      </trkpt>
      <trkpt lat="43.59237" lon="3.73278">
        <ele>146.25699968</ele>
        <time>2020-09-12T10:08:18.000Z</time>
      </trkpt>
      <trkpt lat="43.59238" lon="3.73276">
        <ele>146.55699968</ele>
        <time>2020-09-12T10:08:21.000Z</time>
      </trkpt>
      <trkpt lat="43.5924" lon="3.73275">
        <ele>146.85699968</ele>
        <time>2020-09-12T10:08:24.000Z</time>
      </trkpt>
      <trkpt lat="43.59241" lon="3.73272">
        <ele>147</ele>
        <time>2020-09-12T10:08:27.000Z</time>
      </trkpt>
      <trkpt lat="43.59243" lon="3.73269">
        <ele>147</ele>
        <time>2020-09-12T10:08:30.000Z</time>
      </trkpt>
      <trkpt lat="43.59244" lon="3.73266">
        <ele>147</ele>
        <time>2020-09-12T10:08:33.000Z</time>
      </trkpt>
      <trkpt lat="43.59244" lon="3.73263">
        <ele>148</ele>
        <time>2020-09-12T10:08:39.000Z</time>
      </trkpt>
      <trkpt lat="43.59247" lon="3.73259">
        <ele>148.03775477551</ele>
        <time>2020-09-12T10:08:48.000Z</time>
      </trkpt>
      <trkpt lat="43.59248" lon="3.73258">
        <ele>148.13979559184</ele>
        <time>2020-09-12T10:08:49.000Z</time>
      </trkpt>
      <trkpt lat="43.5925" lon="3.73255">
        <ele>148.34387722449</ele>
        <time>2020-09-12T10:08:51.000Z</time>
      </trkpt>
      <trkpt lat="43.59252" lon="3.73252">
        <ele>148.54795885714</ele>
        <time>2020-09-12T10:08:53.000Z</time>
      </trkpt>
      <trkpt lat="43.59253" lon="3.73248">
        <ele>148.7520404898</ele>
        <time>2020-09-12T10:08:55.000Z</time>
      </trkpt>
      <trkpt lat="43.59255" lon="3.73246">
        <ele>148.95612212245</ele>
        <time>2020-09-12T10:08:57.000Z</time>
      </trkpt>
      <trkpt lat="43.59256" lon="3.73243">
        <ele>149.15621863681</ele>
        <time>2020-09-12T10:08:59.000Z</time>
      </trkpt>
      <trkpt lat="43.59258" lon="3.7324">
        <ele>149.3552236753</ele>
        <time>2020-09-12T10:09:01.000Z</time>
      </trkpt>
      <trkpt lat="43.59259" lon="3.73236">
        <ele>149.55422871378</ele>
        <time>2020-09-12T10:09:03.000Z</time>
      </trkpt>
      <trkpt lat="43.59261" lon="3.73234">
        <ele>149.75323375227</ele>
        <time>2020-09-12T10:09:05.000Z</time>
      </trkpt>
      <trkpt lat="43.59262" lon="3.73231">
        <ele>149.95223879076</ele>
        <time>2020-09-12T10:09:07.000Z</time>
      </trkpt>
      <trkpt lat="43.59264" lon="3.73227">
        <ele>150.15169650989</ele>
        <time>2020-09-12T10:09:09.000Z</time>
      </trkpt>
      <trkpt lat="43.59265" lon="3.73224">
        <ele>150.35129718081</ele>
        <time>2020-09-12T10:09:11.000Z</time>
      </trkpt>
      <trkpt lat="43.59266" lon="3.73222">
        <ele>150.55089785172</ele>
        <time>2020-09-12T10:09:13.000Z</time>
      </trkpt>
      <trkpt lat="43.59268" lon="3.73219">
        <ele>150.75049852264</ele>
        <time>2020-09-12T10:09:15.000Z</time>
      </trkpt>
      <trkpt lat="43.59269" lon="3.73216">
        <ele>150.95009919355</ele>
        <time>2020-09-12T10:09:17.000Z</time>
      </trkpt>
      <trkpt lat="43.5927" lon="3.73213">
        <ele>151.15105680598</ele>
        <time>2020-09-12T10:09:19.000Z</time>
      </trkpt>
      <trkpt lat="43.59271" lon="3.73209">
        <ele>151.35246673997</ele>
        <time>2020-09-12T10:09:21.000Z</time>
      </trkpt>
      <trkpt lat="43.59272" lon="3.73205">
        <ele>151.55387667396</ele>
        <time>2020-09-12T10:09:23.000Z</time>
      </trkpt>
      <trkpt lat="43.59274" lon="3.73201">
        <ele>151.75528660795</ele>
        <time>2020-09-12T10:09:25.000Z</time>
      </trkpt>
      <trkpt lat="43.59276" lon="3.73198">
        <ele>151.95669654194</ele>
        <time>2020-09-12T10:09:27.000Z</time>
      </trkpt>
      <trkpt lat="43.59278" lon="3.73195">
        <ele>152.15699968</ele>
        <time>2020-09-12T10:09:29.000Z</time>
      </trkpt>
      <trkpt lat="43.59279" lon="3.73192">
        <ele>152.35699968</ele>
        <time>2020-09-12T10:09:31.000Z</time>
      </trkpt>
      <trkpt lat="43.59281" lon="3.73189">
        <ele>152.55699968</ele>
        <time>2020-09-12T10:09:33.000Z</time>
      </trkpt>
      <trkpt lat="43.59283" lon="3.73185">
        <ele>152.75699968</ele>
        <time>2020-09-12T10:09:35.000Z</time>
      </trkpt>
      <trkpt lat="43.59284" lon="3.73183">
        <ele>152.85699968</ele>
        <time>2020-09-12T10:09:36.000Z</time>
      </trkpt>
      <trkpt lat="43.59285" lon="3.7318">
        <ele>152.95699968</ele>
        <time>2020-09-12T10:09:37.000Z</time>
      </trkpt>
      <trkpt lat="43.59286" lon="3.73178">
        <ele>152.94311405548</ele>
        <time>2020-09-12T10:09:38.000Z</time>
      </trkpt>
      <trkpt lat="43.59287" lon="3.73175">
        <ele>152.84331359254</ele>
        <time>2020-09-12T10:09:39.000Z</time>
      </trkpt>
      <trkpt lat="43.59288" lon="3.73173">
        <ele>152.74351312959</ele>
        <time>2020-09-12T10:09:40.000Z</time>
      </trkpt>
      <trkpt lat="43.59289" lon="3.7317">
        <ele>152.64371266664</ele>
        <time>2020-09-12T10:09:41.000Z</time>
      </trkpt>
      <trkpt lat="43.5929" lon="3.73168">
        <ele>152.5439122037</ele>
        <time>2020-09-12T10:09:42.000Z</time>
      </trkpt>
      <trkpt lat="43.59292" lon="3.73165">
        <ele>152.44411174075</ele>
        <time>2020-09-12T10:09:43.000Z</time>
      </trkpt>
      <trkpt lat="43.59293" lon="3.73162">
        <ele>152.3443112778</ele>
        <time>2020-09-12T10:09:44.000Z</time>
      </trkpt>
      <trkpt lat="43.59294" lon="3.7316">
        <ele>152.24451081486</ele>
        <time>2020-09-12T10:09:45.000Z</time>
      </trkpt>
      <trkpt lat="43.59295" lon="3.73157">
        <ele>152.14471035191</ele>
        <time>2020-09-12T10:09:46.000Z</time>
      </trkpt>
      <trkpt lat="43.59296" lon="3.73154">
        <ele>152.04490988896</ele>
        <time>2020-09-12T10:09:47.000Z</time>
      </trkpt>
      <trkpt lat="43.59297" lon="3.7315">
        <ele>152</ele>
        <time>2020-09-12T10:09:48.000Z</time>
      </trkpt>
      <trkpt lat="43.59297" lon="3.73147">
        <ele>152</ele>
        <time>2020-09-12T10:09:49.000Z</time>
      </trkpt>
      <trkpt lat="43.59299" lon="3.73143">
        <ele>152</ele>
        <time>2020-09-12T10:09:50.000Z</time>
      </trkpt>
      <trkpt lat="43.593" lon="3.7314">
        <ele>152</ele>
        <time>2020-09-12T10:09:51.000Z</time>
      </trkpt>
      <trkpt lat="43.59303" lon="3.73137">
        <ele>152</ele>
        <time>2020-09-12T10:09:52.000Z</time>
      </trkpt>
      <trkpt lat="43.59306" lon="3.73135">
        <ele>152</ele>
        <time>2020-09-12T10:09:53.000Z</time>
      </trkpt>
      <trkpt lat="43.59309" lon="3.73134">
        <ele>152</ele>
        <time>2020-09-12T10:09:54.000Z</time>
      </trkpt>
      <trkpt lat="43.59312" lon="3.73133">
        <ele>152</ele>
        <time>2020-09-12T10:09:55.000Z</time>
      </trkpt>
      <trkpt lat="43.59314" lon="3.73133">
        <ele>152</ele>
        <time>2020-09-12T10:09:56.000Z</time>
      </trkpt>
      <trkpt lat="43.59317" lon="3.73132">
        <ele>152</ele>
        <time>2020-09-12T10:09:57.000Z</time>
      </trkpt>
      <trkpt lat="43.5932" lon="3.73132">
        <ele>152</ele>
        <time>2020-09-12T10:09:58.000Z</time>
      </trkpt>
      <trkpt lat="43.59323" lon="3.73131">
        <ele>152</ele>
        <time>2020-09-12T10:09:59.000Z</time>
      </trkpt>
      <trkpt lat="43.59326" lon="3.73131">
        <ele>152</ele>
        <time>2020-09-12T10:10:00.000Z</time>
      </trkpt>
      <trkpt lat="43.59329" lon="3.73131">
        <ele>152</ele>
        <time>2020-09-12T10:10:01.000Z</time>
      </trkpt>
      <trkpt lat="43.59333" lon="3.7313">
        <ele>152</ele>
        <time>2020-09-12T10:10:02.000Z</time>
      </trkpt>
      <trkpt lat="43.59336" lon="3.7313">
        <ele>152</ele>
        <time>2020-09-12T10:10:03.000Z</time>
      </trkpt>
      <trkpt lat="43.5934" lon="3.73129">
        <ele>152</ele>
        <time>2020-09-12T10:10:04.000Z</time>
      </trkpt>
      <trkpt lat="43.59343" lon="3.73128">
        <ele>152</ele>
        <time>2020-09-12T10:10:05.000Z</time>
      </trkpt>
      <trkpt lat="43.59348" lon="3.73128">
        <ele>152</ele>
        <time>2020-09-12T10:10:06.000Z</time>
      </trkpt>
      <trkpt lat="43.59353" lon="3.73127">
        <ele>152</ele>
        <time>2020-09-12T10:10:07.000Z</time>
      </trkpt>
      <trkpt lat="43.59358" lon="3.73126">
        <ele>151.94581779468</ele>
        <time>2020-09-12T10:10:08.000Z</time>
      </trkpt>
      <trkpt lat="43.59363" lon="3.73125">
        <ele>151.85076076046</ele>
        <time>2020-09-12T10:10:09.000Z</time>
      </trkpt>
      <trkpt lat="43.59369" lon="3.73123">
        <ele>151.75570372624</ele>
        <time>2020-09-12T10:10:10.000Z</time>
      </trkpt>
      <trkpt lat="43.59375" lon="3.73121">
        <ele>151.66064669202</ele>
        <time>2020-09-12T10:10:11.000Z</time>
      </trkpt>
      <trkpt lat="43.59381" lon="3.73118">
        <ele>151.56558965779</ele>
        <time>2020-09-12T10:10:12.000Z</time>
      </trkpt>
      <trkpt lat="43.59388" lon="3.73116">
        <ele>151.47053262357</ele>
        <time>2020-09-12T10:10:13.000Z</time>
      </trkpt>
      <trkpt lat="43.59394" lon="3.73114">
        <ele>151.37547558935</ele>
        <time>2020-09-12T10:10:14.000Z</time>
      </trkpt>
      <trkpt lat="43.594" lon="3.73111">
        <ele>151.28041855513</ele>
        <time>2020-09-12T10:10:15.000Z</time>
      </trkpt>
      <trkpt lat="43.59405" lon="3.73109">
        <ele>151.18536152091</ele>
        <time>2020-09-12T10:10:16.000Z</time>
      </trkpt>
      <trkpt lat="43.59411" lon="3.73107">
        <ele>151.09030448669</ele>
        <time>2020-09-12T10:10:17.000Z</time>
      </trkpt>
      <trkpt lat="43.59416" lon="3.73105">
        <ele>151.00527392405</ele>
        <time>2020-09-12T10:10:18.000Z</time>
      </trkpt>
      <trkpt lat="43.5942" lon="3.73104">
        <ele>151.11075915612</ele>
        <time>2020-09-12T10:10:19.000Z</time>
      </trkpt>
      <trkpt lat="43.59424" lon="3.73102">
        <ele>151.21624438819</ele>
        <time>2020-09-12T10:10:20.000Z</time>
      </trkpt>
      <trkpt lat="43.59428" lon="3.731">
        <ele>151.32172962025</ele>
        <time>2020-09-12T10:10:21.000Z</time>
      </trkpt>
      <trkpt lat="43.59432" lon="3.73097">
        <ele>151.42721485232</ele>
        <time>2020-09-12T10:10:22.000Z</time>
      </trkpt>
      <trkpt lat="43.59435" lon="3.73095">
        <ele>151.53270008439</ele>
        <time>2020-09-12T10:10:23.000Z</time>
      </trkpt>
      <trkpt lat="43.59439" lon="3.73094">
        <ele>151.63818531646</ele>
        <time>2020-09-12T10:10:24.000Z</time>
      </trkpt>
      <trkpt lat="43.59442" lon="3.73092">
        <ele>151.74367054852</ele>
        <time>2020-09-12T10:10:25.000Z</time>
      </trkpt>
      <trkpt lat="43.59445" lon="3.7309">
        <ele>151.84915578059</ele>
        <time>2020-09-12T10:10:26.000Z</time>
      </trkpt>
      <trkpt lat="43.59448" lon="3.73089">
        <ele>151.95464101266</ele>
        <time>2020-09-12T10:10:27.000Z</time>
      </trkpt>
      <trkpt lat="43.59451" lon="3.73088">
        <ele>152</ele>
        <time>2020-09-12T10:10:28.000Z</time>
      </trkpt>
      <trkpt lat="43.59453" lon="3.73086">
        <ele>152</ele>
        <time>2020-09-12T10:10:29.000Z</time>
      </trkpt>
      <trkpt lat="43.59456" lon="3.73085">
        <ele>152</ele>
        <time>2020-09-12T10:10:30.000Z</time>
      </trkpt>
      <trkpt lat="43.59459" lon="3.73083">
        <ele>152</ele>
        <time>2020-09-12T10:10:31.000Z</time>
      </trkpt>
      <trkpt lat="43.59463" lon="3.73081">
        <ele>152</ele>
        <time>2020-09-12T10:10:32.000Z</time>
      </trkpt>
      <trkpt lat="43.59466" lon="3.73079">
        <ele>152</ele>
        <time>2020-09-12T10:10:33.000Z</time>
      </trkpt>
      <trkpt lat="43.59469" lon="3.73077">
        <ele>152</ele>
        <time>2020-09-12T10:10:34.000Z</time>
      </trkpt>
      <trkpt lat="43.59473" lon="3.73075">
        <ele>152</ele>
        <time>2020-09-12T10:10:35.000Z</time>
      </trkpt>
      <trkpt lat="43.59477" lon="3.73073">
        <ele>152</ele>
        <time>2020-09-12T10:10:36.000Z</time>
      </trkpt>
      <trkpt lat="43.5948" lon="3.73071">
        <ele>152</ele>
        <time>2020-09-12T10:10:37.000Z</time>
      </trkpt>
      <trkpt lat="43.59484" lon="3.73069">
        <ele>151.94300032</ele>
        <time>2020-09-12T10:10:38.000Z</time>
      </trkpt>
      <trkpt lat="43.59487" lon="3.73067">
        <ele>151.84300032</ele>
        <time>2020-09-12T10:10:39.000Z</time>
      </trkpt>
      <trkpt lat="43.59491" lon="3.73065">
        <ele>151.74300032</ele>
        <time>2020-09-12T10:10:40.000Z</time>
      </trkpt>
      <trkpt lat="43.59495" lon="3.73062">
        <ele>151.64300032</ele>
        <time>2020-09-12T10:10:41.000Z</time>
      </trkpt>
      <trkpt lat="43.59498" lon="3.7306">
        <ele>151.54300032</ele>
        <time>2020-09-12T10:10:42.000Z</time>
      </trkpt>
      <trkpt lat="43.59502" lon="3.73057">
        <ele>151.44300032</ele>
        <time>2020-09-12T10:10:43.000Z</time>
      </trkpt>
      <trkpt lat="43.59505" lon="3.73055">
        <ele>151.34300032</ele>
        <time>2020-09-12T10:10:44.000Z</time>
      </trkpt>
      <trkpt lat="43.59509" lon="3.73052">
        <ele>151.24300032</ele>
        <time>2020-09-12T10:10:45.000Z</time>
      </trkpt>
      <trkpt lat="43.59513" lon="3.7305">
        <ele>151.14300032</ele>
        <time>2020-09-12T10:10:46.000Z</time>
      </trkpt>
      <trkpt lat="43.59517" lon="3.73047">
        <ele>151.04300032</ele>
        <time>2020-09-12T10:10:47.000Z</time>
      </trkpt>
      <trkpt lat="43.59521" lon="3.73045">
        <ele>150.94300032</ele>
        <time>2020-09-12T10:10:48.000Z</time>
      </trkpt>
      <trkpt lat="43.59525" lon="3.73043">
        <ele>150.84300032</ele>
        <time>2020-09-12T10:10:49.000Z</time>
      </trkpt>
      <trkpt lat="43.59528" lon="3.7304">
        <ele>150.74300032</ele>
        <time>2020-09-12T10:10:50.000Z</time>
      </trkpt>
      <trkpt lat="43.59531" lon="3.73037">
        <ele>150.64300032</ele>
        <time>2020-09-12T10:10:51.000Z</time>
      </trkpt>
      <trkpt lat="43.59534" lon="3.73033">
        <ele>150.54300032</ele>
        <time>2020-09-12T10:10:52.000Z</time>
      </trkpt>
      <trkpt lat="43.59535" lon="3.73029">
        <ele>150.44300032</ele>
        <time>2020-09-12T10:10:53.000Z</time>
      </trkpt>
      <trkpt lat="43.59534" lon="3.73024">
        <ele>150.34300032</ele>
        <time>2020-09-12T10:10:54.000Z</time>
      </trkpt>
      <trkpt lat="43.59532" lon="3.73019">
        <ele>150.24300032</ele>
        <time>2020-09-12T10:10:55.000Z</time>
      </trkpt>
      <trkpt lat="43.59528" lon="3.73016">
        <ele>150.14300032</ele>
        <time>2020-09-12T10:10:56.000Z</time>
      </trkpt>
      <trkpt lat="43.59523" lon="3.73013">
        <ele>150.04300032</ele>
        <time>2020-09-12T10:10:57.000Z</time>
      </trkpt>
      <trkpt lat="43.59518" lon="3.73011">
        <ele>149.77200128</ele>
        <time>2020-09-12T10:10:58.000Z</time>
      </trkpt>
      <trkpt lat="43.59512" lon="3.73009">
        <ele>149.37200128</ele>
        <time>2020-09-12T10:10:59.000Z</time>
      </trkpt>
      <trkpt lat="43.59506" lon="3.73007">
        <ele>148.97200128</ele>
        <time>2020-09-12T10:11:00.000Z</time>
      </trkpt>
      <trkpt lat="43.59501" lon="3.73005">
        <ele>148.57200128</ele>
        <time>2020-09-12T10:11:01.000Z</time>
      </trkpt>
      <trkpt lat="43.59495" lon="3.73003">
        <ele>148.17200128</ele>
        <time>2020-09-12T10:11:02.000Z</time>
      </trkpt>
      <trkpt lat="43.59488" lon="3.73001">
        <ele>147.77200128</ele>
        <time>2020-09-12T10:11:03.000Z</time>
      </trkpt>
      <trkpt lat="43.59482" lon="3.73">
        <ele>147.37200128</ele>
        <time>2020-09-12T10:11:04.000Z</time>
      </trkpt>
      <trkpt lat="43.59475" lon="3.72998">
        <ele>146.97200128</ele>
        <time>2020-09-12T10:11:05.000Z</time>
      </trkpt>
      <trkpt lat="43.59469" lon="3.72996">
        <ele>146.57200128</ele>
        <time>2020-09-12T10:11:06.000Z</time>
      </trkpt>
      <trkpt lat="43.59464" lon="3.72993">
        <ele>146.17200128</ele>
        <time>2020-09-12T10:11:07.000Z</time>
      </trkpt>
      <trkpt lat="43.59459" lon="3.72988">
        <ele>145.77200128</ele>
        <time>2020-09-12T10:11:08.000Z</time>
      </trkpt>
      <trkpt lat="43.59456" lon="3.72981">
        <ele>145.37200128</ele>
        <time>2020-09-12T10:11:09.000Z</time>
      </trkpt>
      <trkpt lat="43.59455" lon="3.72972">
        <ele>144.97200128</ele>
        <time>2020-09-12T10:11:10.000Z</time>
      </trkpt>
      <trkpt lat="43.59454" lon="3.72962">
        <ele>144.57200128</ele>
        <time>2020-09-12T10:11:11.000Z</time>
      </trkpt>
      <trkpt lat="43.59454" lon="3.72951">
        <ele>144.17200128</ele>
        <time>2020-09-12T10:11:12.000Z</time>
      </trkpt>
      <trkpt lat="43.59454" lon="3.7294">
        <ele>143.77200128</ele>
        <time>2020-09-12T10:11:13.000Z</time>
      </trkpt>
      <trkpt lat="43.59455" lon="3.72929">
        <ele>143.37200128</ele>
        <time>2020-09-12T10:11:14.000Z</time>
      </trkpt>
      <trkpt lat="43.59456" lon="3.72918">
        <ele>142.97200128</ele>
        <time>2020-09-12T10:11:15.000Z</time>
      </trkpt>
      <trkpt lat="43.59459" lon="3.72907">
        <ele>142.57200128</ele>
        <time>2020-09-12T10:11:16.000Z</time>
      </trkpt>
      <trkpt lat="43.59462" lon="3.72897">
        <ele>142.17200128</ele>
        <time>2020-09-12T10:11:17.000Z</time>
      </trkpt>
      <trkpt lat="43.59466" lon="3.72887">
        <ele>141.77200128</ele>
        <time>2020-09-12T10:11:18.000Z</time>
      </trkpt>
      <trkpt lat="43.5947" lon="3.72878">
        <ele>141.37200128</ele>
        <time>2020-09-12T10:11:19.000Z</time>
      </trkpt>
      <trkpt lat="43.59473" lon="3.72869">
        <ele>140.97200128</ele>
        <time>2020-09-12T10:11:20.000Z</time>
      </trkpt>
      <trkpt lat="43.59476" lon="3.7286">
        <ele>140.57200128</ele>
        <time>2020-09-12T10:11:21.000Z</time>
      </trkpt>
      <trkpt lat="43.59479" lon="3.72852">
        <ele>140.17200128</ele>
        <time>2020-09-12T10:11:22.000Z</time>
      </trkpt>
      <trkpt lat="43.59482" lon="3.72845">
        <ele>139.77200128</ele>
        <time>2020-09-12T10:11:23.000Z</time>
      </trkpt>
      <trkpt lat="43.59484" lon="3.72837">
        <ele>139.37200128</ele>
        <time>2020-09-12T10:11:24.000Z</time>
      </trkpt>
      <trkpt lat="43.59487" lon="3.7283">
        <ele>138.97200128</ele>
        <time>2020-09-12T10:11:25.000Z</time>
      </trkpt>
      <trkpt lat="43.5949" lon="3.72821">
        <ele>138.57200128</ele>
        <time>2020-09-12T10:11:26.000Z</time>
      </trkpt>
      <trkpt lat="43.59493" lon="3.72812">
        <ele>138.17200128</ele>
        <time>2020-09-12T10:11:27.000Z</time>
      </trkpt>
      <trkpt lat="43.59496" lon="3.72803">
        <ele>137.88600064</ele>
        <time>2020-09-12T10:11:28.000Z</time>
      </trkpt>
      <trkpt lat="43.59499" lon="3.72793">
        <ele>137.68600064</ele>
        <time>2020-09-12T10:11:29.000Z</time>
      </trkpt>
      <trkpt lat="43.59503" lon="3.72783">
        <ele>137.48600064</ele>
        <time>2020-09-12T10:11:30.000Z</time>
      </trkpt>
      <trkpt lat="43.59506" lon="3.72774">
        <ele>137.28600064</ele>
        <time>2020-09-12T10:11:31.000Z</time>
      </trkpt>
      <trkpt lat="43.59508" lon="3.72766">
        <ele>137.08600064</ele>
        <time>2020-09-12T10:11:32.000Z</time>
      </trkpt>
      <trkpt lat="43.59511" lon="3.72761">
        <ele>136.88600064</ele>
        <time>2020-09-12T10:11:33.000Z</time>
      </trkpt>
      <trkpt lat="43.59514" lon="3.72759">
        <ele>136.68600064</ele>
        <time>2020-09-12T10:11:34.000Z</time>
      </trkpt>
      <trkpt lat="43.59517" lon="3.72759">
        <ele>136.48600064</ele>
        <time>2020-09-12T10:11:35.000Z</time>
      </trkpt>
      <trkpt lat="43.59519" lon="3.7276">
        <ele>136.28600064</ele>
        <time>2020-09-12T10:11:36.000Z</time>
      </trkpt>
      <trkpt lat="43.59522" lon="3.72762">
        <ele>136.08600064</ele>
        <time>2020-09-12T10:11:37.000Z</time>
      </trkpt>
      <trkpt lat="43.59525" lon="3.72763">
        <ele>136</ele>
        <time>2020-09-12T10:11:38.000Z</time>
      </trkpt>
      <trkpt lat="43.59528" lon="3.72765">
        <ele>136</ele>
        <time>2020-09-12T10:11:39.000Z</time>
      </trkpt>
      <trkpt lat="43.59531" lon="3.72766">
        <ele>136</ele>
        <time>2020-09-12T10:11:40.000Z</time>
      </trkpt>
      <trkpt lat="43.59534" lon="3.72767">
        <ele>136</ele>
        <time>2020-09-12T10:11:41.000Z</time>
      </trkpt>
      <trkpt lat="43.59537" lon="3.72768">
        <ele>136</ele>
        <time>2020-09-12T10:11:42.000Z</time>
      </trkpt>
      <trkpt lat="43.5954" lon="3.72769">
        <ele>136</ele>
        <time>2020-09-12T10:11:43.000Z</time>
      </trkpt>
      <trkpt lat="43.59543" lon="3.7277">
        <ele>136</ele>
        <time>2020-09-12T10:11:44.000Z</time>
      </trkpt>
      <trkpt lat="43.59545" lon="3.72771">
        <ele>136</ele>
        <time>2020-09-12T10:11:45.000Z</time>
      </trkpt>
      <trkpt lat="43.59548" lon="3.72771">
        <ele>136</ele>
        <time>2020-09-12T10:11:46.000Z</time>
      </trkpt>
      <trkpt lat="43.59551" lon="3.72772">
        <ele>136</ele>
        <time>2020-09-12T10:11:47.000Z</time>
      </trkpt>
      <trkpt lat="43.59554" lon="3.72772">
        <ele>136.05699968</ele>
        <time>2020-09-12T10:11:48.000Z</time>
      </trkpt>
      <trkpt lat="43.59557" lon="3.72771">
        <ele>136.15699968</ele>
        <time>2020-09-12T10:11:49.000Z</time>
      </trkpt>
      <trkpt lat="43.5956" lon="3.72771">
        <ele>136.25699968</ele>
        <time>2020-09-12T10:11:50.000Z</time>
      </trkpt>
      <trkpt lat="43.59563" lon="3.7277">
        <ele>136.35699968</ele>
        <time>2020-09-12T10:11:51.000Z</time>
      </trkpt>
      <trkpt lat="43.59565" lon="3.72769">
        <ele>136.45699968</ele>
        <time>2020-09-12T10:11:52.000Z</time>
      </trkpt>
      <trkpt lat="43.59568" lon="3.72767">
        <ele>136.55699968</ele>
        <time>2020-09-12T10:11:53.000Z</time>
      </trkpt>
      <trkpt lat="43.5957" lon="3.72765">
        <ele>136.65699968</ele>
        <time>2020-09-12T10:11:54.000Z</time>
      </trkpt>
      <trkpt lat="43.59573" lon="3.72763">
        <ele>136.75699968</ele>
        <time>2020-09-12T10:11:55.000Z</time>
      </trkpt>
      <trkpt lat="43.59575" lon="3.72761">
        <ele>136.85699968</ele>
        <time>2020-09-12T10:11:56.000Z</time>
      </trkpt>
      <trkpt lat="43.59578" lon="3.7276">
        <ele>136.95699968</ele>
        <time>2020-09-12T10:11:57.000Z</time>
      </trkpt>
      <trkpt lat="43.5958" lon="3.72759">
        <ele>137.11399936</ele>
        <time>2020-09-12T10:11:58.000Z</time>
      </trkpt>
      <trkpt lat="43.59583" lon="3.72758">
        <ele>137.31399936</ele>
        <time>2020-09-12T10:11:59.000Z</time>
      </trkpt>
      <trkpt lat="43.59585" lon="3.72758">
        <ele>137.51399936</ele>
        <time>2020-09-12T10:12:00.000Z</time>
      </trkpt>
      <trkpt lat="43.59588" lon="3.72757">
        <ele>137.71399936</ele>
        <time>2020-09-12T10:12:01.000Z</time>
      </trkpt>
      <trkpt lat="43.5959" lon="3.72757">
        <ele>137.91399936</ele>
        <time>2020-09-12T10:12:02.000Z</time>
      </trkpt>
      <trkpt lat="43.59592" lon="3.72757">
        <ele>138.11399936</ele>
        <time>2020-09-12T10:12:03.000Z</time>
      </trkpt>
      <trkpt lat="43.59595" lon="3.72757">
        <ele>138.31399936</ele>
        <time>2020-09-12T10:12:04.000Z</time>
      </trkpt>
      <trkpt lat="43.59597" lon="3.72757">
        <ele>138.51399936</ele>
        <time>2020-09-12T10:12:05.000Z</time>
      </trkpt>
      <trkpt lat="43.59599" lon="3.72756">
        <ele>138.71399936</ele>
        <time>2020-09-12T10:12:06.000Z</time>
      </trkpt>
      <trkpt lat="43.59602" lon="3.72756">
        <ele>138.91399936</ele>
        <time>2020-09-12T10:12:07.000Z</time>
      </trkpt>
      <trkpt lat="43.59604" lon="3.72756">
        <ele>139.05544715953</ele>
        <time>2020-09-12T10:12:08.000Z</time>
      </trkpt>
      <trkpt lat="43.59606" lon="3.72755">
        <ele>139.15272342413</ele>
        <time>2020-09-12T10:12:09.000Z</time>
      </trkpt>
      <trkpt lat="43.59608" lon="3.72754">
        <ele>139.24999968872</ele>
        <time>2020-09-12T10:12:10.000Z</time>
      </trkpt>
      <trkpt lat="43.5961" lon="3.72753">
        <ele>139.34727595331</ele>
        <time>2020-09-12T10:12:11.000Z</time>
      </trkpt>
      <trkpt lat="43.59612" lon="3.72752">
        <ele>139.4445522179</ele>
        <time>2020-09-12T10:12:12.000Z</time>
      </trkpt>
      <trkpt lat="43.59613" lon="3.72751">
        <ele>139.54182848249</ele>
        <time>2020-09-12T10:12:13.000Z</time>
      </trkpt>
      <trkpt lat="43.59615" lon="3.7275">
        <ele>139.63910474708</ele>
        <time>2020-09-12T10:12:14.000Z</time>
      </trkpt>
      <trkpt lat="43.59618" lon="3.72747">
        <ele>139.83365727627</ele>
        <time>2020-09-12T10:12:16.000Z</time>
      </trkpt>
      <trkpt lat="43.59621" lon="3.72745">
        <ele>140.02983506173</ele>
        <time>2020-09-12T10:12:18.000Z</time>
      </trkpt>
      <trkpt lat="43.59622" lon="3.72743">
        <ele>140.13271572017</ele>
        <time>2020-09-12T10:12:19.000Z</time>
      </trkpt>
      <trkpt lat="43.59624" lon="3.72743">
        <ele>140.2355963786</ele>
        <time>2020-09-12T10:12:20.000Z</time>
      </trkpt>
      <trkpt lat="43.59626" lon="3.72742">
        <ele>140.33847703704</ele>
        <time>2020-09-12T10:12:21.000Z</time>
      </trkpt>
      <trkpt lat="43.59628" lon="3.72741">
        <ele>140.44135769547</ele>
        <time>2020-09-12T10:12:22.000Z</time>
      </trkpt>
      <trkpt lat="43.5963" lon="3.7274">
        <ele>140.54423835391</ele>
        <time>2020-09-12T10:12:23.000Z</time>
      </trkpt>
      <trkpt lat="43.59632" lon="3.72739">
        <ele>140.64711901235</ele>
        <time>2020-09-12T10:12:24.000Z</time>
      </trkpt>
      <trkpt lat="43.59634" lon="3.72737">
        <ele>140.74999967078</ele>
        <time>2020-09-12T10:12:25.000Z</time>
      </trkpt>
      <trkpt lat="43.59635" lon="3.72736">
        <ele>140.85288032922</ele>
        <time>2020-09-12T10:12:26.000Z</time>
      </trkpt>
      <trkpt lat="43.59637" lon="3.72735">
        <ele>140.95576098765</ele>
        <time>2020-09-12T10:12:27.000Z</time>
      </trkpt>
      <trkpt lat="43.59639" lon="3.72733">
        <ele>141.11057160487</ele>
        <time>2020-09-12T10:12:28.000Z</time>
      </trkpt>
      <trkpt lat="43.59641" lon="3.72731">
        <ele>141.30455796561</ele>
        <time>2020-09-12T10:12:29.000Z</time>
      </trkpt>
      <trkpt lat="43.59642" lon="3.72728">
        <ele>141.49854432635</ele>
        <time>2020-09-12T10:12:30.000Z</time>
      </trkpt>
      <trkpt lat="43.59644" lon="3.72726">
        <ele>141.69253068709</ele>
        <time>2020-09-12T10:12:31.000Z</time>
      </trkpt>
      <trkpt lat="43.59646" lon="3.72724">
        <ele>141.88651704783</ele>
        <time>2020-09-12T10:12:32.000Z</time>
      </trkpt>
      <trkpt lat="43.59647" lon="3.72722">
        <ele>142.08050340857</ele>
        <time>2020-09-12T10:12:33.000Z</time>
      </trkpt>
      <trkpt lat="43.59649" lon="3.72719">
        <ele>142.27448976932</ele>
        <time>2020-09-12T10:12:34.000Z</time>
      </trkpt>
      <trkpt lat="43.5965" lon="3.72717">
        <ele>142.46847613006</ele>
        <time>2020-09-12T10:12:35.000Z</time>
      </trkpt>
      <trkpt lat="43.59652" lon="3.72715">
        <ele>142.6624624908</ele>
        <time>2020-09-12T10:12:36.000Z</time>
      </trkpt>
      <trkpt lat="43.59653" lon="3.72712">
        <ele>142.85644885154</ele>
        <time>2020-09-12T10:12:37.000Z</time>
      </trkpt>
      <trkpt lat="43.59655" lon="3.7271">
        <ele>143</ele>
        <time>2020-09-12T10:12:38.000Z</time>
      </trkpt>
      <trkpt lat="43.59657" lon="3.72707">
        <ele>143</ele>
        <time>2020-09-12T10:12:39.000Z</time>
      </trkpt>
      <trkpt lat="43.59659" lon="3.72704">
        <ele>143</ele>
        <time>2020-09-12T10:12:40.000Z</time>
      </trkpt>
      <trkpt lat="43.59661" lon="3.72701">
        <ele>143</ele>
        <time>2020-09-12T10:12:41.000Z</time>
      </trkpt>
      <trkpt lat="43.59663" lon="3.72698">
        <ele>143</ele>
        <time>2020-09-12T10:12:42.000Z</time>
      </trkpt>
      <trkpt lat="43.59665" lon="3.72696">
        <ele>143</ele>
        <time>2020-09-12T10:12:43.000Z</time>
      </trkpt>
      <trkpt lat="43.59667" lon="3.72693">
        <ele>143</ele>
        <time>2020-09-12T10:12:44.000Z</time>
      </trkpt>
      <trkpt lat="43.59669" lon="3.72691">
        <ele>143</ele>
        <time>2020-09-12T10:12:45.000Z</time>
      </trkpt>
      <trkpt lat="43.5967" lon="3.72688">
        <ele>143</ele>
        <time>2020-09-12T10:12:46.000Z</time>
      </trkpt>
      <trkpt lat="43.59672" lon="3.72685">
        <ele>143</ele>
        <time>2020-09-12T10:12:47.000Z</time>
      </trkpt>
      <trkpt lat="43.59674" lon="3.72683">
        <ele>143.05699968</ele>
        <time>2020-09-12T10:12:48.000Z</time>
      </trkpt>
      <trkpt lat="43.59677" lon="3.72681">
        <ele>143.15699968</ele>
        <time>2020-09-12T10:12:49.000Z</time>
      </trkpt>
      <trkpt lat="43.59679" lon="3.72678">
        <ele>143.25699968</ele>
        <time>2020-09-12T10:12:50.000Z</time>
      </trkpt>
      <trkpt lat="43.59681" lon="3.72676">
        <ele>143.35699968</ele>
        <time>2020-09-12T10:12:51.000Z</time>
      </trkpt>
      <trkpt lat="43.59684" lon="3.72674">
        <ele>143.45699968</ele>
        <time>2020-09-12T10:12:52.000Z</time>
      </trkpt>
      <trkpt lat="43.59686" lon="3.72671">
        <ele>143.55699968</ele>
        <time>2020-09-12T10:12:53.000Z</time>
      </trkpt>
      <trkpt lat="43.59689" lon="3.72669">
        <ele>143.65699968</ele>
        <time>2020-09-12T10:12:54.000Z</time>
      </trkpt>
      <trkpt lat="43.59692" lon="3.72667">
        <ele>143.75699968</ele>
        <time>2020-09-12T10:12:55.000Z</time>
      </trkpt>
      <trkpt lat="43.59695" lon="3.72665">
        <ele>143.85699968</ele>
        <time>2020-09-12T10:12:56.000Z</time>
      </trkpt>
      <trkpt lat="43.59698" lon="3.72662">
        <ele>143.95699968</ele>
        <time>2020-09-12T10:12:57.000Z</time>
      </trkpt>
      <trkpt lat="43.59701" lon="3.7266">
        <ele>143.94300032</ele>
        <time>2020-09-12T10:12:58.000Z</time>
      </trkpt>
      <trkpt lat="43.59704" lon="3.72659">
        <ele>143.84300032</ele>
        <time>2020-09-12T10:12:59.000Z</time>
      </trkpt>
      <trkpt lat="43.59707" lon="3.72656">
        <ele>143.74300032</ele>
        <time>2020-09-12T10:13:00.000Z</time>
      </trkpt>
      <trkpt lat="43.59711" lon="3.72654">
        <ele>143.64300032</ele>
        <time>2020-09-12T10:13:01.000Z</time>
      </trkpt>
      <trkpt lat="43.59714" lon="3.72652">
        <ele>143.54300032</ele>
        <time>2020-09-12T10:13:02.000Z</time>
      </trkpt>
      <trkpt lat="43.59717" lon="3.72649">
        <ele>143.44300032</ele>
        <time>2020-09-12T10:13:03.000Z</time>
      </trkpt>
      <trkpt lat="43.59721" lon="3.72647">
        <ele>143.34300032</ele>
        <time>2020-09-12T10:13:04.000Z</time>
      </trkpt>
      <trkpt lat="43.59725" lon="3.72644">
        <ele>143.24300032</ele>
        <time>2020-09-12T10:13:05.000Z</time>
      </trkpt>
      <trkpt lat="43.59728" lon="3.72642">
        <ele>143.14300032</ele>
        <time>2020-09-12T10:13:06.000Z</time>
      </trkpt>
      <trkpt lat="43.59732" lon="3.7264">
        <ele>143.04300032</ele>
        <time>2020-09-12T10:13:07.000Z</time>
      </trkpt>
      <trkpt lat="43.59736" lon="3.72637">
        <ele>142.94622671698</ele>
        <time>2020-09-12T10:13:08.000Z</time>
      </trkpt>
      <trkpt lat="43.59741" lon="3.72635">
        <ele>142.85188709434</ele>
        <time>2020-09-12T10:13:09.000Z</time>
      </trkpt>
      <trkpt lat="43.59745" lon="3.72632">
        <ele>142.7575474717</ele>
        <time>2020-09-12T10:13:10.000Z</time>
      </trkpt>
      <trkpt lat="43.5975" lon="3.7263">
        <ele>142.66320784906</ele>
        <time>2020-09-12T10:13:11.000Z</time>
      </trkpt>
      <trkpt lat="43.59755" lon="3.72627">
        <ele>142.56886822641</ele>
        <time>2020-09-12T10:13:12.000Z</time>
      </trkpt>
      <trkpt lat="43.5976" lon="3.72625">
        <ele>142.47452860377</ele>
        <time>2020-09-12T10:13:13.000Z</time>
      </trkpt>
      <trkpt lat="43.59764" lon="3.72622">
        <ele>142.38018898113</ele>
        <time>2020-09-12T10:13:14.000Z</time>
      </trkpt>
      <trkpt lat="43.59769" lon="3.7262">
        <ele>142.28584935849</ele>
        <time>2020-09-12T10:13:15.000Z</time>
      </trkpt>
      <trkpt lat="43.59774" lon="3.72618">
        <ele>142.19150973585</ele>
        <time>2020-09-12T10:13:16.000Z</time>
      </trkpt>
      <trkpt lat="43.59779" lon="3.72616">
        <ele>142.09717011321</ele>
        <time>2020-09-12T10:13:17.000Z</time>
      </trkpt>
      <trkpt lat="43.59785" lon="3.72615">
        <ele>142.00283049057</ele>
        <time>2020-09-12T10:13:18.000Z</time>
      </trkpt>
      <trkpt lat="43.5979" lon="3.72613">
        <ele>142</ele>
        <time>2020-09-12T10:13:19.000Z</time>
      </trkpt>
      <trkpt lat="43.59795" lon="3.72612">
        <ele>142</ele>
        <time>2020-09-12T10:13:20.000Z</time>
      </trkpt>
      <trkpt lat="43.598" lon="3.72611">
        <ele>142</ele>
        <time>2020-09-12T10:13:21.000Z</time>
      </trkpt>
      <trkpt lat="43.59805" lon="3.7261">
        <ele>142</ele>
        <time>2020-09-12T10:13:22.000Z</time>
      </trkpt>
      <trkpt lat="43.5981" lon="3.72609">
        <ele>142</ele>
        <time>2020-09-12T10:13:23.000Z</time>
      </trkpt>
      <trkpt lat="43.59815" lon="3.72609">
        <ele>142</ele>
        <time>2020-09-12T10:13:24.000Z</time>
      </trkpt>
      <trkpt lat="43.5982" lon="3.72608">
        <ele>142</ele>
        <time>2020-09-12T10:13:25.000Z</time>
      </trkpt>
      <trkpt lat="43.59825" lon="3.72607">
        <ele>142</ele>
        <time>2020-09-12T10:13:26.000Z</time>
      </trkpt>
      <trkpt lat="43.5983" lon="3.72605">
        <ele>142</ele>
        <time>2020-09-12T10:13:27.000Z</time>
      </trkpt>
      <trkpt lat="43.59836" lon="3.72603">
        <ele>142</ele>
        <time>2020-09-12T10:13:28.000Z</time>
      </trkpt>
      <trkpt lat="43.59841" lon="3.72601">
        <ele>142</ele>
        <time>2020-09-12T10:13:29.000Z</time>
      </trkpt>
      <trkpt lat="43.59845" lon="3.72599">
        <ele>142</ele>
        <time>2020-09-12T10:13:30.000Z</time>
      </trkpt>
      <trkpt lat="43.5985" lon="3.72597">
        <ele>142</ele>
        <time>2020-09-12T10:13:31.000Z</time>
      </trkpt>
      <trkpt lat="43.59855" lon="3.72595">
        <ele>142</ele>
        <time>2020-09-12T10:13:32.000Z</time>
      </trkpt>
      <trkpt lat="43.5986" lon="3.72593">
        <ele>142</ele>
        <time>2020-09-12T10:13:33.000Z</time>
      </trkpt>
      <trkpt lat="43.59865" lon="3.72592">
        <ele>142</ele>
        <time>2020-09-12T10:13:34.000Z</time>
      </trkpt>
      <trkpt lat="43.59869" lon="3.72592">
        <ele>142</ele>
        <time>2020-09-12T10:13:35.000Z</time>
      </trkpt>
      <trkpt lat="43.59873" lon="3.72591">
        <ele>142</ele>
        <time>2020-09-12T10:13:36.000Z</time>
      </trkpt>
      <trkpt lat="43.59878" lon="3.72592">
        <ele>142</ele>
        <time>2020-09-12T10:13:37.000Z</time>
      </trkpt>
      <trkpt lat="43.59882" lon="3.72593">
        <ele>141.97262952958</ele>
        <time>2020-09-12T10:13:38.000Z</time>
      </trkpt>
      <trkpt lat="43.59886" lon="3.72595">
        <ele>141.8748778495</ele>
        <time>2020-09-12T10:13:39.000Z</time>
      </trkpt>
      <trkpt lat="43.59889" lon="3.72598">
        <ele>141.77712616942</ele>
        <time>2020-09-12T10:13:40.000Z</time>
      </trkpt>
      <trkpt lat="43.59893" lon="3.726">
        <ele>141.67937448935</ele>
        <time>2020-09-12T10:13:41.000Z</time>
      </trkpt>
      <trkpt lat="43.59896" lon="3.72602">
        <ele>141.58162280927</ele>
        <time>2020-09-12T10:13:42.000Z</time>
      </trkpt>
      <trkpt lat="43.59899" lon="3.72605">
        <ele>141.48387112919</ele>
        <time>2020-09-12T10:13:43.000Z</time>
      </trkpt>
      <trkpt lat="43.59901" lon="3.72607">
        <ele>141.38611944911</ele>
        <time>2020-09-12T10:13:44.000Z</time>
      </trkpt>
      <trkpt lat="43.59904" lon="3.7261">
        <ele>141.28836776904</ele>
        <time>2020-09-12T10:13:45.000Z</time>
      </trkpt>
      <trkpt lat="43.59906" lon="3.72613">
        <ele>141.19061608896</ele>
        <time>2020-09-12T10:13:46.000Z</time>
      </trkpt>
      <trkpt lat="43.59908" lon="3.72617">
        <ele>141.09286440888</ele>
        <time>2020-09-12T10:13:47.000Z</time>
      </trkpt>
      <trkpt lat="43.59911" lon="3.7262">
        <ele>141</ele>
        <time>2020-09-12T10:13:48.000Z</time>
      </trkpt>
      <trkpt lat="43.59913" lon="3.72623">
        <ele>141</ele>
        <time>2020-09-12T10:13:49.000Z</time>
      </trkpt>
      <trkpt lat="43.59915" lon="3.72627">
        <ele>141</ele>
        <time>2020-09-12T10:13:50.000Z</time>
      </trkpt>
      <trkpt lat="43.59915" lon="3.72632">
        <ele>141</ele>
        <time>2020-09-12T10:13:51.000Z</time>
      </trkpt>
      <trkpt lat="43.59915" lon="3.72637">
        <ele>141</ele>
        <time>2020-09-12T10:13:52.000Z</time>
      </trkpt>
      <trkpt lat="43.59916" lon="3.72642">
        <ele>141</ele>
        <time>2020-09-12T10:13:53.000Z</time>
      </trkpt>
      <trkpt lat="43.59918" lon="3.72647">
        <ele>141</ele>
        <time>2020-09-12T10:13:54.000Z</time>
      </trkpt>
      <trkpt lat="43.59921" lon="3.7265">
        <ele>141</ele>
        <time>2020-09-12T10:13:55.000Z</time>
      </trkpt>
      <trkpt lat="43.59924" lon="3.72654">
        <ele>141</ele>
        <time>2020-09-12T10:13:56.000Z</time>
      </trkpt>
      <trkpt lat="43.59927" lon="3.72658">
        <ele>141</ele>
        <time>2020-09-12T10:13:57.000Z</time>
      </trkpt>
      <trkpt lat="43.5993" lon="3.72661">
        <ele>141.05544715953</ele>
        <time>2020-09-12T10:13:58.000Z</time>
      </trkpt>
      <trkpt lat="43.59933" lon="3.72665">
        <ele>141.15272342413</ele>
        <time>2020-09-12T10:13:59.000Z</time>
      </trkpt>
      <trkpt lat="43.59936" lon="3.72667">
        <ele>141.24999968872</ele>
        <time>2020-09-12T10:14:00.000Z</time>
      </trkpt>
      <trkpt lat="43.59938" lon="3.7267">
        <ele>141.34727595331</ele>
        <time>2020-09-12T10:14:01.000Z</time>
      </trkpt>
      <trkpt lat="43.59941" lon="3.72673">
        <ele>141.4445522179</ele>
        <time>2020-09-12T10:14:02.000Z</time>
      </trkpt>
      <trkpt lat="43.59944" lon="3.72675">
        <ele>141.54182848249</ele>
        <time>2020-09-12T10:14:03.000Z</time>
      </trkpt>
      <trkpt lat="43.59946" lon="3.72677">
        <ele>141.63910474708</ele>
        <time>2020-09-12T10:14:04.000Z</time>
      </trkpt>
      <trkpt lat="43.59947" lon="3.72679">
        <ele>141.73638101167</ele>
        <time>2020-09-12T10:14:05.000Z</time>
      </trkpt>
      <trkpt lat="43.59949" lon="3.72682">
        <ele>141.83365727627</ele>
        <time>2020-09-12T10:14:06.000Z</time>
      </trkpt>
      <trkpt lat="43.59951" lon="3.72684">
        <ele>141.93093354086</ele>
        <time>2020-09-12T10:14:07.000Z</time>
      </trkpt>
      <trkpt lat="43.59953" lon="3.72688">
        <ele>141.91049481481</ele>
        <time>2020-09-12T10:14:08.000Z</time>
      </trkpt>
      <trkpt lat="43.59954" lon="3.72692">
        <ele>141.60185283951</ele>
        <time>2020-09-12T10:14:09.000Z</time>
      </trkpt>
      <trkpt lat="43.59955" lon="3.72697">
        <ele>141.2932108642</ele>
        <time>2020-09-12T10:14:10.000Z</time>
      </trkpt>
      <trkpt lat="43.59957" lon="3.72701">
        <ele>140.98456888889</ele>
        <time>2020-09-12T10:14:11.000Z</time>
      </trkpt>
      <trkpt lat="43.59959" lon="3.72706">
        <ele>140.67592691358</ele>
        <time>2020-09-12T10:14:12.000Z</time>
      </trkpt>
      <trkpt lat="43.59962" lon="3.72711">
        <ele>140.36728493827</ele>
        <time>2020-09-12T10:14:13.000Z</time>
      </trkpt>
      <trkpt lat="43.59966" lon="3.72716">
        <ele>140.05864296296</ele>
        <time>2020-09-12T10:14:14.000Z</time>
      </trkpt>
      <trkpt lat="43.59969" lon="3.72722">
        <ele>139.75000098765</ele>
        <time>2020-09-12T10:14:15.000Z</time>
      </trkpt>
      <trkpt lat="43.59972" lon="3.72729">
        <ele>139.44135901235</ele>
        <time>2020-09-12T10:14:16.000Z</time>
      </trkpt>
      <trkpt lat="43.59973" lon="3.72736">
        <ele>139.13271703704</ele>
        <time>2020-09-12T10:14:17.000Z</time>
      </trkpt>
      <trkpt lat="43.59972" lon="3.72744">
        <ele>138.89049049467</ele>
        <time>2020-09-12T10:14:18.000Z</time>
      </trkpt>
      <trkpt lat="43.59971" lon="3.7275">
        <ele>138.69836747692</ele>
        <time>2020-09-12T10:14:19.000Z</time>
      </trkpt>
      <trkpt lat="43.59969" lon="3.72755">
        <ele>138.50624445917</ele>
        <time>2020-09-12T10:14:20.000Z</time>
      </trkpt>
      <trkpt lat="43.59968" lon="3.7276">
        <ele>138.31412144142</ele>
        <time>2020-09-12T10:14:21.000Z</time>
      </trkpt>
      <trkpt lat="43.59965" lon="3.72765">
        <ele>138.12199842367</ele>
        <time>2020-09-12T10:14:22.000Z</time>
      </trkpt>
      <trkpt lat="43.59963" lon="3.72772">
        <ele>137.92987540592</ele>
        <time>2020-09-12T10:14:23.000Z</time>
      </trkpt>
      <trkpt lat="43.59961" lon="3.72779">
        <ele>137.73775238817</ele>
        <time>2020-09-12T10:14:24.000Z</time>
      </trkpt>
      <trkpt lat="43.59958" lon="3.72787">
        <ele>137.54562937041</ele>
        <time>2020-09-12T10:14:25.000Z</time>
      </trkpt>
      <trkpt lat="43.59955" lon="3.72795">
        <ele>137.35350635266</ele>
        <time>2020-09-12T10:14:26.000Z</time>
      </trkpt>
      <trkpt lat="43.5995" lon="3.72802">
        <ele>137.16138333491</ele>
        <time>2020-09-12T10:14:27.000Z</time>
      </trkpt>
      <trkpt lat="43.59945" lon="3.72809">
        <ele>136.98331595969</ele>
        <time>2020-09-12T10:14:28.000Z</time>
      </trkpt>
      <trkpt lat="43.5994" lon="3.72816">
        <ele>136.87904070772</ele>
        <time>2020-09-12T10:14:29.000Z</time>
      </trkpt>
      <trkpt lat="43.59936" lon="3.72822">
        <ele>136.77476545576</ele>
        <time>2020-09-12T10:14:30.000Z</time>
      </trkpt>
      <trkpt lat="43.59933" lon="3.72828">
        <ele>136.6704902038</ele>
        <time>2020-09-12T10:14:31.000Z</time>
      </trkpt>
      <trkpt lat="43.59931" lon="3.72833">
        <ele>136.56621495184</ele>
        <time>2020-09-12T10:14:32.000Z</time>
      </trkpt>
      <trkpt lat="43.5993" lon="3.72838">
        <ele>136.46193969987</ele>
        <time>2020-09-12T10:14:33.000Z</time>
      </trkpt>
      <trkpt lat="43.59928" lon="3.72843">
        <ele>136.35766444791</ele>
        <time>2020-09-12T10:14:34.000Z</time>
      </trkpt>
      <trkpt lat="43.59927" lon="3.72848">
        <ele>136.25338919595</ele>
        <time>2020-09-12T10:14:35.000Z</time>
      </trkpt>
      <trkpt lat="43.59926" lon="3.72853">
        <ele>136.14911394399</ele>
        <time>2020-09-12T10:14:36.000Z</time>
      </trkpt>
      <trkpt lat="43.59925" lon="3.72858">
        <ele>136.04483869202</ele>
        <time>2020-09-12T10:14:37.000Z</time>
      </trkpt>
      <trkpt lat="43.59923" lon="3.72862">
        <ele>136</ele>
        <time>2020-09-12T10:14:38.000Z</time>
      </trkpt>
      <trkpt lat="43.59922" lon="3.72867">
        <ele>136</ele>
        <time>2020-09-12T10:14:39.000Z</time>
      </trkpt>
      <trkpt lat="43.59921" lon="3.72872">
        <ele>136</ele>
        <time>2020-09-12T10:14:40.000Z</time>
      </trkpt>
      <trkpt lat="43.59919" lon="3.72877">
        <ele>136</ele>
        <time>2020-09-12T10:14:41.000Z</time>
      </trkpt>
      <trkpt lat="43.59917" lon="3.72881">
        <ele>136</ele>
        <time>2020-09-12T10:14:42.000Z</time>
      </trkpt>
      <trkpt lat="43.59915" lon="3.72885">
        <ele>136</ele>
        <time>2020-09-12T10:14:43.000Z</time>
      </trkpt>
      <trkpt lat="43.59914" lon="3.72889">
        <ele>136</ele>
        <time>2020-09-12T10:14:44.000Z</time>
      </trkpt>
      <trkpt lat="43.59911" lon="3.72892">
        <ele>136</ele>
        <time>2020-09-12T10:14:45.000Z</time>
      </trkpt>
      <trkpt lat="43.59909" lon="3.72895">
        <ele>136</ele>
        <time>2020-09-12T10:14:46.000Z</time>
      </trkpt>
      <trkpt lat="43.59906" lon="3.72897">
        <ele>136</ele>
        <time>2020-09-12T10:14:47.000Z</time>
      </trkpt>
      <trkpt lat="43.59904" lon="3.72899">
        <ele>136</ele>
        <time>2020-09-12T10:14:48.000Z</time>
      </trkpt>
      <trkpt lat="43.59902" lon="3.72902">
        <ele>136</ele>
        <time>2020-09-12T10:14:49.000Z</time>
      </trkpt>
      <trkpt lat="43.599" lon="3.72905">
        <ele>136</ele>
        <time>2020-09-12T10:14:50.000Z</time>
      </trkpt>
      <trkpt lat="43.59898" lon="3.72908">
        <ele>136</ele>
        <time>2020-09-12T10:14:51.000Z</time>
      </trkpt>
      <trkpt lat="43.59895" lon="3.72912">
        <ele>136</ele>
        <time>2020-09-12T10:14:52.000Z</time>
      </trkpt>
      <trkpt lat="43.59893" lon="3.72915">
        <ele>136</ele>
        <time>2020-09-12T10:14:53.000Z</time>
      </trkpt>
      <trkpt lat="43.59892" lon="3.72919">
        <ele>136</ele>
        <time>2020-09-12T10:14:54.000Z</time>
      </trkpt>
      <trkpt lat="43.59891" lon="3.72924">
        <ele>136</ele>
        <time>2020-09-12T10:14:55.000Z</time>
      </trkpt>
      <trkpt lat="43.5989" lon="3.72929">
        <ele>136</ele>
        <time>2020-09-12T10:14:56.000Z</time>
      </trkpt>
      <trkpt lat="43.59888" lon="3.72935">
        <ele>136</ele>
        <time>2020-09-12T10:14:57.000Z</time>
      </trkpt>
      <trkpt lat="43.59886" lon="3.72941">
        <ele>135.9741738843</ele>
        <time>2020-09-12T10:14:58.000Z</time>
      </trkpt>
      <trkpt lat="43.59885" lon="3.72947">
        <ele>135.87086809917</ele>
        <time>2020-09-12T10:14:59.000Z</time>
      </trkpt>
      <trkpt lat="43.59882" lon="3.72952">
        <ele>135.76756231405</ele>
        <time>2020-09-12T10:15:00.000Z</time>
      </trkpt>
      <trkpt lat="43.59879" lon="3.72958">
        <ele>135.66425652893</ele>
        <time>2020-09-12T10:15:01.000Z</time>
      </trkpt>
      <trkpt lat="43.59876" lon="3.72962">
        <ele>135.5609507438</ele>
        <time>2020-09-12T10:15:02.000Z</time>
      </trkpt>
      <trkpt lat="43.59874" lon="3.72967">
        <ele>135.45764495868</ele>
        <time>2020-09-12T10:15:03.000Z</time>
      </trkpt>
      <trkpt lat="43.59872" lon="3.72973">
        <ele>135.35433917355</ele>
        <time>2020-09-12T10:15:04.000Z</time>
      </trkpt>
      <trkpt lat="43.5987" lon="3.7298">
        <ele>135.25103338843</ele>
        <time>2020-09-12T10:15:05.000Z</time>
      </trkpt>
      <trkpt lat="43.59867" lon="3.72986">
        <ele>135.14772760331</ele>
        <time>2020-09-12T10:15:06.000Z</time>
      </trkpt>
      <trkpt lat="43.59863" lon="3.72993">
        <ele>135.04442181818</ele>
        <time>2020-09-12T10:15:07.000Z</time>
      </trkpt>
      <trkpt lat="43.5986" lon="3.72999">
        <ele>135</ele>
        <time>2020-09-12T10:15:08.000Z</time>
      </trkpt>
      <trkpt lat="43.59857" lon="3.73005">
        <ele>135</ele>
        <time>2020-09-12T10:15:09.000Z</time>
      </trkpt>
      <trkpt lat="43.59854" lon="3.73011">
        <ele>135</ele>
        <time>2020-09-12T10:15:10.000Z</time>
      </trkpt>
      <trkpt lat="43.59852" lon="3.73017">
        <ele>135</ele>
        <time>2020-09-12T10:15:11.000Z</time>
      </trkpt>
      <trkpt lat="43.5985" lon="3.73024">
        <ele>135</ele>
        <time>2020-09-12T10:15:12.000Z</time>
      </trkpt>
      <trkpt lat="43.59848" lon="3.73031">
        <ele>135</ele>
        <time>2020-09-12T10:15:13.000Z</time>
      </trkpt>
      <trkpt lat="43.59846" lon="3.73039">
        <ele>135</ele>
        <time>2020-09-12T10:15:14.000Z</time>
      </trkpt>
      <trkpt lat="43.59845" lon="3.73046">
        <ele>135</ele>
        <time>2020-09-12T10:15:15.000Z</time>
      </trkpt>
      <trkpt lat="43.59844" lon="3.73053">
        <ele>135</ele>
        <time>2020-09-12T10:15:16.000Z</time>
      </trkpt>
      <trkpt lat="43.59843" lon="3.7306">
        <ele>135</ele>
        <time>2020-09-12T10:15:17.000Z</time>
      </trkpt>
      <trkpt lat="43.59842" lon="3.73066">
        <ele>134.94524524734</ele>
        <time>2020-09-12T10:15:18.000Z</time>
      </trkpt>
      <trkpt lat="43.59843" lon="3.73072">
        <ele>134.84918373846</ele>
        <time>2020-09-12T10:15:19.000Z</time>
      </trkpt>
      <trkpt lat="43.59843" lon="3.73079">
        <ele>134.75312222959</ele>
        <time>2020-09-12T10:15:20.000Z</time>
      </trkpt>
      <trkpt lat="43.59843" lon="3.73085">
        <ele>134.65706072071</ele>
        <time>2020-09-12T10:15:21.000Z</time>
      </trkpt>
      <trkpt lat="43.59843" lon="3.73092">
        <ele>134.56099921183</ele>
        <time>2020-09-12T10:15:22.000Z</time>
      </trkpt>
      <trkpt lat="43.59841" lon="3.73098">
        <ele>134.46493770296</ele>
        <time>2020-09-12T10:15:23.000Z</time>
      </trkpt>
      <trkpt lat="43.59839" lon="3.73103">
        <ele>134.36887619408</ele>
        <time>2020-09-12T10:15:24.000Z</time>
      </trkpt>
      <trkpt lat="43.59836" lon="3.73107">
        <ele>134.27281468521</ele>
        <time>2020-09-12T10:15:25.000Z</time>
      </trkpt>
      <trkpt lat="43.59834" lon="3.73111">
        <ele>134.17675317633</ele>
        <time>2020-09-12T10:15:26.000Z</time>
      </trkpt>
      <trkpt lat="43.59833" lon="3.73115">
        <ele>134.08069166746</ele>
        <time>2020-09-12T10:15:27.000Z</time>
      </trkpt>
      <trkpt lat="43.59834" lon="3.73117">
        <ele>133.98383839429</ele>
        <time>2020-09-12T10:15:28.000Z</time>
      </trkpt>
      <trkpt lat="43.59836" lon="3.73119">
        <ele>133.88282835858</ele>
        <time>2020-09-12T10:15:29.000Z</time>
      </trkpt>
      <trkpt lat="43.59839" lon="3.73122">
        <ele>133.78181832287</ele>
        <time>2020-09-12T10:15:30.000Z</time>
      </trkpt>
      <trkpt lat="43.59842" lon="3.73125">
        <ele>133.68080828715</ele>
        <time>2020-09-12T10:15:31.000Z</time>
      </trkpt>
      <trkpt lat="43.59845" lon="3.73128">
        <ele>133.57979825144</ele>
        <time>2020-09-12T10:15:32.000Z</time>
      </trkpt>
      <trkpt lat="43.59848" lon="3.73131">
        <ele>133.47878821573</ele>
        <time>2020-09-12T10:15:33.000Z</time>
      </trkpt>
      <trkpt lat="43.59851" lon="3.73134">
        <ele>133.37777818002</ele>
        <time>2020-09-12T10:15:34.000Z</time>
      </trkpt>
      <trkpt lat="43.59854" lon="3.73139">
        <ele>133.27676814431</ele>
        <time>2020-09-12T10:15:35.000Z</time>
      </trkpt>
      <trkpt lat="43.59857" lon="3.73144">
        <ele>133.1757581086</ele>
        <time>2020-09-12T10:15:36.000Z</time>
      </trkpt>
      <trkpt lat="43.5986" lon="3.73151">
        <ele>133.07474807289</ele>
        <time>2020-09-12T10:15:37.000Z</time>
      </trkpt>
      <trkpt lat="43.59863" lon="3.73157">
        <ele>133</ele>
        <time>2020-09-12T10:15:38.000Z</time>
      </trkpt>
      <trkpt lat="43.59866" lon="3.73161">
        <ele>133</ele>
        <time>2020-09-12T10:15:39.000Z</time>
      </trkpt>
      <trkpt lat="43.59869" lon="3.73166">
        <ele>133</ele>
        <time>2020-09-12T10:15:40.000Z</time>
      </trkpt>
      <trkpt lat="43.59871" lon="3.73171">
        <ele>133</ele>
        <time>2020-09-12T10:15:41.000Z</time>
      </trkpt>
      <trkpt lat="43.59872" lon="3.73177">
        <ele>133</ele>
        <time>2020-09-12T10:15:42.000Z</time>
      </trkpt>
      <trkpt lat="43.59872" lon="3.73181">
        <ele>133</ele>
        <time>2020-09-12T10:15:43.000Z</time>
      </trkpt>
      <trkpt lat="43.59873" lon="3.73185">
        <ele>133</ele>
        <time>2020-09-12T10:15:44.000Z</time>
      </trkpt>
      <trkpt lat="43.59874" lon="3.73188">
        <ele>133</ele>
        <time>2020-09-12T10:15:45.000Z</time>
      </trkpt>
      <trkpt lat="43.59875" lon="3.73191">
        <ele>133</ele>
        <time>2020-09-12T10:15:46.000Z</time>
      </trkpt>
      <trkpt lat="43.59877" lon="3.73195">
        <ele>133</ele>
        <time>2020-09-12T10:15:47.000Z</time>
      </trkpt>
      <trkpt lat="43.59879" lon="3.73199">
        <ele>132.97216463692</ele>
        <time>2020-09-12T10:15:48.000Z</time>
      </trkpt>
      <trkpt lat="43.59882" lon="3.73204">
        <ele>132.86907192144</ele>
        <time>2020-09-12T10:15:49.000Z</time>
      </trkpt>
      <trkpt lat="43.59885" lon="3.7321">
        <ele>132.76597920595</ele>
        <time>2020-09-12T10:15:50.000Z</time>
      </trkpt>
      <trkpt lat="43.59887" lon="3.73216">
        <ele>132.66288649047</ele>
        <time>2020-09-12T10:15:51.000Z</time>
      </trkpt>
      <trkpt lat="43.59888" lon="3.73221">
        <ele>132.55979377498</ele>
        <time>2020-09-12T10:15:52.000Z</time>
      </trkpt>
      <trkpt lat="43.5989" lon="3.73224">
        <ele>132.4567010595</ele>
        <time>2020-09-12T10:15:53.000Z</time>
      </trkpt>
      <trkpt lat="43.59895" lon="3.73225">
        <ele>132.25051562853</ele>
        <time>2020-09-12T10:15:55.000Z</time>
      </trkpt>
      <trkpt lat="43.59899" lon="3.73224">
        <ele>132.14742291304</ele>
        <time>2020-09-12T10:15:56.000Z</time>
      </trkpt>
      <trkpt lat="43.59903" lon="3.73225">
        <ele>132.04433019756</ele>
        <time>2020-09-12T10:15:57.000Z</time>
      </trkpt>
      <trkpt lat="43.59906" lon="3.73227">
        <ele>131.88600064</ele>
        <time>2020-09-12T10:15:58.000Z</time>
      </trkpt>
      <trkpt lat="43.59909" lon="3.7323">
        <ele>131.68600064</ele>
        <time>2020-09-12T10:15:59.000Z</time>
      </trkpt>
      <trkpt lat="43.59913" lon="3.73232">
        <ele>131.48600064</ele>
        <time>2020-09-12T10:16:00.000Z</time>
      </trkpt>
      <trkpt lat="43.59917" lon="3.73233">
        <ele>131.28600064</ele>
        <time>2020-09-12T10:16:01.000Z</time>
      </trkpt>
      <trkpt lat="43.59921" lon="3.73232">
        <ele>131.08600064</ele>
        <time>2020-09-12T10:16:02.000Z</time>
      </trkpt>
      <trkpt lat="43.59925" lon="3.73231">
        <ele>130.88600064</ele>
        <time>2020-09-12T10:16:03.000Z</time>
      </trkpt>
      <trkpt lat="43.59929" lon="3.73229">
        <ele>130.68600064</ele>
        <time>2020-09-12T10:16:04.000Z</time>
      </trkpt>
      <trkpt lat="43.59933" lon="3.73227">
        <ele>130.48600064</ele>
        <time>2020-09-12T10:16:05.000Z</time>
      </trkpt>
      <trkpt lat="43.59937" lon="3.73225">
        <ele>130.28600064</ele>
        <time>2020-09-12T10:16:06.000Z</time>
      </trkpt>
      <trkpt lat="43.59941" lon="3.73223">
        <ele>130.08600064</ele>
        <time>2020-09-12T10:16:07.000Z</time>
      </trkpt>
      <trkpt lat="43.59946" lon="3.73221">
        <ele>130</ele>
        <time>2020-09-12T10:16:08.000Z</time>
      </trkpt>
      <trkpt lat="43.5995" lon="3.73219">
        <ele>130</ele>
        <time>2020-09-12T10:16:09.000Z</time>
      </trkpt>
      <trkpt lat="43.59954" lon="3.73218">
        <ele>130</ele>
        <time>2020-09-12T10:16:10.000Z</time>
      </trkpt>
      <trkpt lat="43.59958" lon="3.73218">
        <ele>130</ele>
        <time>2020-09-12T10:16:11.000Z</time>
      </trkpt>
      <trkpt lat="43.59963" lon="3.73219">
        <ele>130</ele>
        <time>2020-09-12T10:16:12.000Z</time>
      </trkpt>
      <trkpt lat="43.59967" lon="3.73222">
        <ele>130</ele>
        <time>2020-09-12T10:16:13.000Z</time>
      </trkpt>
      <trkpt lat="43.5997" lon="3.73225">
        <ele>130</ele>
        <time>2020-09-12T10:16:14.000Z</time>
      </trkpt>
      <trkpt lat="43.59973" lon="3.73229">
        <ele>130</ele>
        <time>2020-09-12T10:16:15.000Z</time>
      </trkpt>
      <trkpt lat="43.59976" lon="3.73234">
        <ele>130</ele>
        <time>2020-09-12T10:16:16.000Z</time>
      </trkpt>
      <trkpt lat="43.59978" lon="3.73239">
        <ele>130</ele>
        <time>2020-09-12T10:16:17.000Z</time>
      </trkpt>
      <trkpt lat="43.5998" lon="3.73244">
        <ele>130.05528580243</ele>
        <time>2020-09-12T10:16:18.000Z</time>
      </trkpt>
      <trkpt lat="43.59982" lon="3.73249">
        <ele>130.1522789828</ele>
        <time>2020-09-12T10:16:19.000Z</time>
      </trkpt>
      <trkpt lat="43.59984" lon="3.73254">
        <ele>130.24927216317</ele>
        <time>2020-09-12T10:16:20.000Z</time>
      </trkpt>
      <trkpt lat="43.59986" lon="3.73259">
        <ele>130.34626534355</ele>
        <time>2020-09-12T10:16:21.000Z</time>
      </trkpt>
      <trkpt lat="43.59987" lon="3.73264">
        <ele>130.44325852392</ele>
        <time>2020-09-12T10:16:22.000Z</time>
      </trkpt>
      <trkpt lat="43.59989" lon="3.7327">
        <ele>130.54025170429</ele>
        <time>2020-09-12T10:16:23.000Z</time>
      </trkpt>
      <trkpt lat="43.59991" lon="3.73275">
        <ele>130.63724488466</ele>
        <time>2020-09-12T10:16:24.000Z</time>
      </trkpt>
      <trkpt lat="43.59993" lon="3.7328">
        <ele>130.73423806503</ele>
        <time>2020-09-12T10:16:25.000Z</time>
      </trkpt>
      <trkpt lat="43.59995" lon="3.73286">
        <ele>130.8312312454</ele>
        <time>2020-09-12T10:16:26.000Z</time>
      </trkpt>
      <trkpt lat="43.59997" lon="3.73291">
        <ele>130.92822442577</ele>
        <time>2020-09-12T10:16:27.000Z</time>
      </trkpt>
      <trkpt lat="43.59998" lon="3.73296">
        <ele>130.97316886627</ele>
        <time>2020-09-12T10:16:28.000Z</time>
      </trkpt>
      <trkpt lat="43.6" lon="3.73301">
        <ele>130.86996965778</ele>
        <time>2020-09-12T10:16:29.000Z</time>
      </trkpt>
      <trkpt lat="43.60002" lon="3.73307">
        <ele>130.76677044929</ele>
        <time>2020-09-12T10:16:30.000Z</time>
      </trkpt>
      <trkpt lat="43.60004" lon="3.73312">
        <ele>130.66357124081</ele>
        <time>2020-09-12T10:16:31.000Z</time>
      </trkpt>
      <trkpt lat="43.60006" lon="3.73316">
        <ele>130.56037203232</ele>
        <time>2020-09-12T10:16:32.000Z</time>
      </trkpt>
      <trkpt lat="43.60009" lon="3.73321">
        <ele>130.45717282383</ele>
        <time>2020-09-12T10:16:33.000Z</time>
      </trkpt>
      <trkpt lat="43.60011" lon="3.73327">
        <ele>130.35397361535</ele>
        <time>2020-09-12T10:16:34.000Z</time>
      </trkpt>
      <trkpt lat="43.60015" lon="3.73332">
        <ele>130.25077440686</ele>
        <time>2020-09-12T10:16:35.000Z</time>
      </trkpt>
      <trkpt lat="43.60019" lon="3.73337">
        <ele>130.14757519837</ele>
        <time>2020-09-12T10:16:36.000Z</time>
      </trkpt>
      <trkpt lat="43.60023" lon="3.73343">
        <ele>130.04437598989</ele>
        <time>2020-09-12T10:16:37.000Z</time>
      </trkpt>
      <trkpt lat="43.60027" lon="3.73349">
        <ele>129.88878107747</ele>
        <time>2020-09-12T10:16:38.000Z</time>
      </trkpt>
      <trkpt lat="43.60032" lon="3.73355">
        <ele>129.69365906534</ele>
        <time>2020-09-12T10:16:39.000Z</time>
      </trkpt>
      <trkpt lat="43.60036" lon="3.73362">
        <ele>129.4985370532</ele>
        <time>2020-09-12T10:16:40.000Z</time>
      </trkpt>
      <trkpt lat="43.6004" lon="3.73369">
        <ele>129.30341504107</ele>
        <time>2020-09-12T10:16:41.000Z</time>
      </trkpt>
      <trkpt lat="43.60043" lon="3.73378">
        <ele>129.10829302893</ele>
        <time>2020-09-12T10:16:42.000Z</time>
      </trkpt>
      <trkpt lat="43.60046" lon="3.73387">
        <ele>128.91317101679</ele>
        <time>2020-09-12T10:16:43.000Z</time>
      </trkpt>
      <trkpt lat="43.60049" lon="3.73396">
        <ele>128.71804900466</ele>
        <time>2020-09-12T10:16:44.000Z</time>
      </trkpt>
      <trkpt lat="43.60053" lon="3.73406">
        <ele>128.52292699252</ele>
        <time>2020-09-12T10:16:45.000Z</time>
      </trkpt>
      <trkpt lat="43.60056" lon="3.73415">
        <ele>128.32780498039</ele>
        <time>2020-09-12T10:16:46.000Z</time>
      </trkpt>
      <trkpt lat="43.6006" lon="3.73423">
        <ele>128.13268296825</ele>
        <time>2020-09-12T10:16:47.000Z</time>
      </trkpt>
      <trkpt lat="43.60063" lon="3.73431">
        <ele>127.90153849385</ele>
        <time>2020-09-12T10:16:48.000Z</time>
      </trkpt>
      <trkpt lat="43.60067" lon="3.73439">
        <ele>127.59384628715</ele>
        <time>2020-09-12T10:16:49.000Z</time>
      </trkpt>
      <trkpt lat="43.6007" lon="3.73447">
        <ele>127.28615408044</ele>
        <time>2020-09-12T10:16:50.000Z</time>
      </trkpt>
      <trkpt lat="43.60072" lon="3.73455">
        <ele>126.97846187374</ele>
        <time>2020-09-12T10:16:51.000Z</time>
      </trkpt>
      <trkpt lat="43.60075" lon="3.73464">
        <ele>126.67076966703</ele>
        <time>2020-09-12T10:16:52.000Z</time>
      </trkpt>
      <trkpt lat="43.60077" lon="3.73474">
        <ele>126.36307746032</ele>
        <time>2020-09-12T10:16:53.000Z</time>
      </trkpt>
      <trkpt lat="43.6008" lon="3.73483">
        <ele>126.05538525362</ele>
        <time>2020-09-12T10:16:54.000Z</time>
      </trkpt>
      <trkpt lat="43.60083" lon="3.73493">
        <ele>125.74769304691</ele>
        <time>2020-09-12T10:16:55.000Z</time>
      </trkpt>
      <trkpt lat="43.60086" lon="3.73503">
        <ele>125.44000084021</ele>
        <time>2020-09-12T10:16:56.000Z</time>
      </trkpt>
      <trkpt lat="43.60088" lon="3.73514">
        <ele>125.1323086335</ele>
        <time>2020-09-12T10:16:57.000Z</time>
      </trkpt>
      <trkpt lat="43.6009" lon="3.73526">
        <ele>124.77200128</ele>
        <time>2020-09-12T10:16:58.000Z</time>
      </trkpt>
      <trkpt lat="43.60092" lon="3.73537">
        <ele>124.37200128</ele>
        <time>2020-09-12T10:16:59.000Z</time>
      </trkpt>
      <trkpt lat="43.60095" lon="3.73549">
        <ele>123.97200128</ele>
        <time>2020-09-12T10:17:00.000Z</time>
      </trkpt>
      <trkpt lat="43.60097" lon="3.73561">
        <ele>123.57200128</ele>
        <time>2020-09-12T10:17:01.000Z</time>
      </trkpt>
      <trkpt lat="43.601" lon="3.73573">
        <ele>123.17200128</ele>
        <time>2020-09-12T10:17:02.000Z</time>
      </trkpt>
      <trkpt lat="43.60103" lon="3.73585">
        <ele>122.77200128</ele>
        <time>2020-09-12T10:17:03.000Z</time>
      </trkpt>
      <trkpt lat="43.60106" lon="3.73597">
        <ele>122.37200128</ele>
        <time>2020-09-12T10:17:04.000Z</time>
      </trkpt>
      <trkpt lat="43.60108" lon="3.73608">
        <ele>121.97200128</ele>
        <time>2020-09-12T10:17:05.000Z</time>
      </trkpt>
      <trkpt lat="43.60111" lon="3.7362">
        <ele>121.57200128</ele>
        <time>2020-09-12T10:17:06.000Z</time>
      </trkpt>
      <trkpt lat="43.60113" lon="3.73632">
        <ele>121.17200128</ele>
        <time>2020-09-12T10:17:07.000Z</time>
      </trkpt>
      <trkpt lat="43.60114" lon="3.73643">
        <ele>120.94300032</ele>
        <time>2020-09-12T10:17:08.000Z</time>
      </trkpt>
      <trkpt lat="43.60117" lon="3.73655">
        <ele>120.84300032</ele>
        <time>2020-09-12T10:17:09.000Z</time>
      </trkpt>
      <trkpt lat="43.60118" lon="3.73666">
        <ele>120.74300032</ele>
        <time>2020-09-12T10:17:10.000Z</time>
      </trkpt>
      <trkpt lat="43.6012" lon="3.73677">
        <ele>120.64300032</ele>
        <time>2020-09-12T10:17:11.000Z</time>
      </trkpt>
      <trkpt lat="43.6012" lon="3.73688">
        <ele>120.54300032</ele>
        <time>2020-09-12T10:17:12.000Z</time>
      </trkpt>
      <trkpt lat="43.60121" lon="3.73699">
        <ele>120.44300032</ele>
        <time>2020-09-12T10:17:13.000Z</time>
      </trkpt>
      <trkpt lat="43.60121" lon="3.73709">
        <ele>120.34300032</ele>
        <time>2020-09-12T10:17:14.000Z</time>
      </trkpt>
      <trkpt lat="43.60121" lon="3.73719">
        <ele>120.24300032</ele>
        <time>2020-09-12T10:17:15.000Z</time>
      </trkpt>
      <trkpt lat="43.60122" lon="3.73728">
        <ele>120.14300032</ele>
        <time>2020-09-12T10:17:16.000Z</time>
      </trkpt>
      <trkpt lat="43.60122" lon="3.73738">
        <ele>120.04300032</ele>
        <time>2020-09-12T10:17:17.000Z</time>
      </trkpt>
      <trkpt lat="43.60122" lon="3.73747">
        <ele>120.05699968</ele>
        <time>2020-09-12T10:17:18.000Z</time>
      </trkpt>
      <trkpt lat="43.60121" lon="3.73755">
        <ele>120.15699968</ele>
        <time>2020-09-12T10:17:19.000Z</time>
      </trkpt>
      <trkpt lat="43.60119" lon="3.73764">
        <ele>120.25699968</ele>
        <time>2020-09-12T10:17:20.000Z</time>
      </trkpt>
      <trkpt lat="43.60117" lon="3.73772">
        <ele>120.35699968</ele>
        <time>2020-09-12T10:17:21.000Z</time>
      </trkpt>
      <trkpt lat="43.60116" lon="3.7378">
        <ele>120.45699968</ele>
        <time>2020-09-12T10:17:22.000Z</time>
      </trkpt>
      <trkpt lat="43.60114" lon="3.73789">
        <ele>120.55699968</ele>
        <time>2020-09-12T10:17:23.000Z</time>
      </trkpt>
      <trkpt lat="43.60112" lon="3.73797">
        <ele>120.65699968</ele>
        <time>2020-09-12T10:17:24.000Z</time>
      </trkpt>
      <trkpt lat="43.60111" lon="3.73805">
        <ele>120.75699968</ele>
        <time>2020-09-12T10:17:25.000Z</time>
      </trkpt>
      <trkpt lat="43.60109" lon="3.73812">
        <ele>120.85699968</ele>
        <time>2020-09-12T10:17:26.000Z</time>
      </trkpt>
      <trkpt lat="43.60108" lon="3.7382">
        <ele>120.95699968</ele>
        <time>2020-09-12T10:17:27.000Z</time>
      </trkpt>
      <trkpt lat="43.60108" lon="3.73827">
        <ele>121</ele>
        <time>2020-09-12T10:17:28.000Z</time>
      </trkpt>
      <trkpt lat="43.60107" lon="3.73833">
        <ele>121</ele>
        <time>2020-09-12T10:17:29.000Z</time>
      </trkpt>
      <trkpt lat="43.60106" lon="3.73839">
        <ele>121</ele>
        <time>2020-09-12T10:17:30.000Z</time>
      </trkpt>
      <trkpt lat="43.60106" lon="3.73845">
        <ele>121</ele>
        <time>2020-09-12T10:17:31.000Z</time>
      </trkpt>
      <trkpt lat="43.60105" lon="3.73851">
        <ele>121</ele>
        <time>2020-09-12T10:17:32.000Z</time>
      </trkpt>
      <trkpt lat="43.60104" lon="3.73856">
        <ele>121</ele>
        <time>2020-09-12T10:17:33.000Z</time>
      </trkpt>
      <trkpt lat="43.60103" lon="3.73861">
        <ele>121</ele>
        <time>2020-09-12T10:17:34.000Z</time>
      </trkpt>
      <trkpt lat="43.60101" lon="3.73866">
        <ele>121</ele>
        <time>2020-09-12T10:17:35.000Z</time>
      </trkpt>
      <trkpt lat="43.601" lon="3.73871">
        <ele>121</ele>
        <time>2020-09-12T10:17:36.000Z</time>
      </trkpt>
      <trkpt lat="43.60098" lon="3.73876">
        <ele>121</ele>
        <time>2020-09-12T10:17:37.000Z</time>
      </trkpt>
      <trkpt lat="43.60097" lon="3.73881">
        <ele>121</ele>
        <time>2020-09-12T10:17:38.000Z</time>
      </trkpt>
      <trkpt lat="43.60095" lon="3.73886">
        <ele>121</ele>
        <time>2020-09-12T10:17:39.000Z</time>
      </trkpt>
      <trkpt lat="43.60093" lon="3.73891">
        <ele>121</ele>
        <time>2020-09-12T10:17:40.000Z</time>
      </trkpt>
      <trkpt lat="43.60091" lon="3.73895">
        <ele>121</ele>
        <time>2020-09-12T10:17:41.000Z</time>
      </trkpt>
      <trkpt lat="43.60088" lon="3.739">
        <ele>121</ele>
        <time>2020-09-12T10:17:42.000Z</time>
      </trkpt>
      <trkpt lat="43.60086" lon="3.73905">
        <ele>121</ele>
        <time>2020-09-12T10:17:43.000Z</time>
      </trkpt>
      <trkpt lat="43.60083" lon="3.7391">
        <ele>121</ele>
        <time>2020-09-12T10:17:44.000Z</time>
      </trkpt>
      <trkpt lat="43.60081" lon="3.73915">
        <ele>121</ele>
        <time>2020-09-12T10:17:45.000Z</time>
      </trkpt>
      <trkpt lat="43.60079" lon="3.73921">
        <ele>121</ele>
        <time>2020-09-12T10:17:46.000Z</time>
      </trkpt>
      <trkpt lat="43.60076" lon="3.73926">
        <ele>121</ele>
        <time>2020-09-12T10:17:47.000Z</time>
      </trkpt>
      <trkpt lat="43.60074" lon="3.73931">
        <ele>121</ele>
        <time>2020-09-12T10:17:48.000Z</time>
      </trkpt>
      <trkpt lat="43.60071" lon="3.73937">
        <ele>121</ele>
        <time>2020-09-12T10:17:49.000Z</time>
      </trkpt>
      <trkpt lat="43.60069" lon="3.73942">
        <ele>121</ele>
        <time>2020-09-12T10:17:50.000Z</time>
      </trkpt>
      <trkpt lat="43.60067" lon="3.73948">
        <ele>121</ele>
        <time>2020-09-12T10:17:51.000Z</time>
      </trkpt>
      <trkpt lat="43.60065" lon="3.73954">
        <ele>121</ele>
        <time>2020-09-12T10:17:52.000Z</time>
      </trkpt>
      <trkpt lat="43.60065" lon="3.7396">
        <ele>121</ele>
        <time>2020-09-12T10:17:53.000Z</time>
      </trkpt>
      <trkpt lat="43.60067" lon="3.73965">
        <ele>121</ele>
        <time>2020-09-12T10:17:54.000Z</time>
      </trkpt>
      <trkpt lat="43.60072" lon="3.73969">
        <ele>121</ele>
        <time>2020-09-12T10:17:55.000Z</time>
      </trkpt>
      <trkpt lat="43.60077" lon="3.73969">
        <ele>121</ele>
        <time>2020-09-12T10:17:56.000Z</time>
      </trkpt>
      <trkpt lat="43.60082" lon="3.73966">
        <ele>121</ele>
        <time>2020-09-12T10:17:57.000Z</time>
      </trkpt>
      <trkpt lat="43.60088" lon="3.73962">
        <ele>120.91950659881</ele>
        <time>2020-09-12T10:17:58.000Z</time>
      </trkpt>
      <trkpt lat="43.60094" lon="3.73958">
        <ele>120.60990897335</ele>
        <time>2020-09-12T10:17:59.000Z</time>
      </trkpt>
      <trkpt lat="43.601" lon="3.73955">
        <ele>120.30031134788</ele>
        <time>2020-09-12T10:18:00.000Z</time>
      </trkpt>
      <trkpt lat="43.60107" lon="3.73951">
        <ele>119.99071372242</ele>
        <time>2020-09-12T10:18:01.000Z</time>
      </trkpt>
      <trkpt lat="43.60114" lon="3.73948">
        <ele>119.68111609696</ele>
        <time>2020-09-12T10:18:02.000Z</time>
      </trkpt>
      <trkpt lat="43.60121" lon="3.73945">
        <ele>119.3715184715</ele>
        <time>2020-09-12T10:18:03.000Z</time>
      </trkpt>
      <trkpt lat="43.60128" lon="3.73942">
        <ele>119.06192084604</ele>
        <time>2020-09-12T10:18:04.000Z</time>
      </trkpt>
      <trkpt lat="43.60136" lon="3.73939">
        <ele>118.75232322058</ele>
        <time>2020-09-12T10:18:05.000Z</time>
      </trkpt>
      <trkpt lat="43.60143" lon="3.73935">
        <ele>118.44272559512</ele>
        <time>2020-09-12T10:18:06.000Z</time>
      </trkpt>
      <trkpt lat="43.60151" lon="3.73932">
        <ele>118.13312796966</ele>
        <time>2020-09-12T10:18:07.000Z</time>
      </trkpt>
      <trkpt lat="43.60159" lon="3.73928">
        <ele>117.89483453875</ele>
        <time>2020-09-12T10:18:08.000Z</time>
      </trkpt>
      <trkpt lat="43.60166" lon="3.73925">
        <ele>117.71033269373</ele>
        <time>2020-09-12T10:18:09.000Z</time>
      </trkpt>
      <trkpt lat="43.60174" lon="3.73921">
        <ele>117.52583084871</ele>
        <time>2020-09-12T10:18:10.000Z</time>
      </trkpt>
      <trkpt lat="43.60182" lon="3.73918">
        <ele>117.34132900369</ele>
        <time>2020-09-12T10:18:11.000Z</time>
      </trkpt>
      <trkpt lat="43.6019" lon="3.73916">
        <ele>117.15682715867</ele>
        <time>2020-09-12T10:18:12.000Z</time>
      </trkpt>
      <trkpt lat="43.60198" lon="3.73913">
        <ele>116.97232531365</ele>
        <time>2020-09-12T10:18:13.000Z</time>
      </trkpt>
      <trkpt lat="43.60206" lon="3.73911">
        <ele>116.78782346863</ele>
        <time>2020-09-12T10:18:14.000Z</time>
      </trkpt>
      <trkpt lat="43.60214" lon="3.7391">
        <ele>116.60332162362</ele>
        <time>2020-09-12T10:18:15.000Z</time>
      </trkpt>
      <trkpt lat="43.60222" lon="3.7391">
        <ele>116.4188197786</ele>
        <time>2020-09-12T10:18:16.000Z</time>
      </trkpt>
      <trkpt lat="43.6023" lon="3.7391">
        <ele>116.23431793358</ele>
        <time>2020-09-12T10:18:17.000Z</time>
      </trkpt>
      <trkpt lat="43.60237" lon="3.73912">
        <ele>116.04981608856</ele>
        <time>2020-09-12T10:18:18.000Z</time>
      </trkpt>
      <trkpt lat="43.60244" lon="3.73914">
        <ele>116.0796939738</ele>
        <time>2020-09-12T10:18:19.000Z</time>
      </trkpt>
      <trkpt lat="43.6025" lon="3.73916">
        <ele>116.18886427948</ele>
        <time>2020-09-12T10:18:20.000Z</time>
      </trkpt>
      <trkpt lat="43.60256" lon="3.73918">
        <ele>116.29803458515</ele>
        <time>2020-09-12T10:18:21.000Z</time>
      </trkpt>
      <trkpt lat="43.60261" lon="3.7392">
        <ele>116.40720489083</ele>
        <time>2020-09-12T10:18:22.000Z</time>
      </trkpt>
      <trkpt lat="43.60267" lon="3.73922">
        <ele>116.51637519651</ele>
        <time>2020-09-12T10:18:23.000Z</time>
      </trkpt>
      <trkpt lat="43.60272" lon="3.73925">
        <ele>116.62554550218</ele>
        <time>2020-09-12T10:18:24.000Z</time>
      </trkpt>
      <trkpt lat="43.60277" lon="3.73927">
        <ele>116.73471580786</ele>
        <time>2020-09-12T10:18:25.000Z</time>
      </trkpt>
      <trkpt lat="43.60282" lon="3.73929">
        <ele>116.84388611354</ele>
        <time>2020-09-12T10:18:26.000Z</time>
      </trkpt>
      <trkpt lat="43.60286" lon="3.73931">
        <ele>116.95305641921</ele>
        <time>2020-09-12T10:18:27.000Z</time>
      </trkpt>
      <trkpt lat="43.60291" lon="3.73933">
        <ele>117.16617987675</ele>
        <time>2020-09-12T10:18:28.000Z</time>
      </trkpt>
      <trkpt lat="43.60296" lon="3.73936">
        <ele>117.45772515692</ele>
        <time>2020-09-12T10:18:29.000Z</time>
      </trkpt>
      <trkpt lat="43.60301" lon="3.73938">
        <ele>117.74927043709</ele>
        <time>2020-09-12T10:18:30.000Z</time>
      </trkpt>
      <trkpt lat="43.60305" lon="3.73941">
        <ele>118.04081571726</ele>
        <time>2020-09-12T10:18:31.000Z</time>
      </trkpt>
      <trkpt lat="43.60309" lon="3.73943">
        <ele>118.33236099743</ele>
        <time>2020-09-12T10:18:32.000Z</time>
      </trkpt>
      <trkpt lat="43.60314" lon="3.73946">
        <ele>118.6239062776</ele>
        <time>2020-09-12T10:18:33.000Z</time>
      </trkpt>
      <trkpt lat="43.60317" lon="3.73948">
        <ele>118.91545155777</ele>
        <time>2020-09-12T10:18:34.000Z</time>
      </trkpt>
      <trkpt lat="43.60321" lon="3.7395">
        <ele>119.20699683794</ele>
        <time>2020-09-12T10:18:35.000Z</time>
      </trkpt>
      <trkpt lat="43.60325" lon="3.73952">
        <ele>119.49854211811</ele>
        <time>2020-09-12T10:18:36.000Z</time>
      </trkpt>
      <trkpt lat="43.60329" lon="3.73954">
        <ele>119.79008739828</ele>
        <time>2020-09-12T10:18:37.000Z</time>
      </trkpt>
      <trkpt lat="43.60332" lon="3.73956">
        <ele>120.05767248357</ele>
        <time>2020-09-12T10:18:38.000Z</time>
      </trkpt>
      <trkpt lat="43.60336" lon="3.73957">
        <ele>120.26364563917</ele>
        <time>2020-09-12T10:18:39.000Z</time>
      </trkpt>
      <trkpt lat="43.60339" lon="3.73958">
        <ele>120.46961879477</ele>
        <time>2020-09-12T10:18:40.000Z</time>
      </trkpt>
      <trkpt lat="43.60343" lon="3.73958">
        <ele>120.67559195037</ele>
        <time>2020-09-12T10:18:41.000Z</time>
      </trkpt>
      <trkpt lat="43.60346" lon="3.73959">
        <ele>120.88156510597</ele>
        <time>2020-09-12T10:18:42.000Z</time>
      </trkpt>
      <trkpt lat="43.6035" lon="3.73959">
        <ele>121.08753826157</ele>
        <time>2020-09-12T10:18:43.000Z</time>
      </trkpt>
      <trkpt lat="43.60353" lon="3.73959">
        <ele>121.29351141717</ele>
        <time>2020-09-12T10:18:44.000Z</time>
      </trkpt>
      <trkpt lat="43.60357" lon="3.73959">
        <ele>121.49948457278</ele>
        <time>2020-09-12T10:18:45.000Z</time>
      </trkpt>
      <trkpt lat="43.6036" lon="3.73958">
        <ele>121.70545772838</ele>
        <time>2020-09-12T10:18:46.000Z</time>
      </trkpt>
      <trkpt lat="43.60363" lon="3.73958">
        <ele>121.91143088398</ele>
        <time>2020-09-12T10:18:47.000Z</time>
      </trkpt>
      <trkpt lat="43.60367" lon="3.73958">
        <ele>122</ele>
        <time>2020-09-12T10:18:48.000Z</time>
      </trkpt>
      <trkpt lat="43.6037" lon="3.73957">
        <ele>122</ele>
        <time>2020-09-12T10:18:49.000Z</time>
      </trkpt>
      <trkpt lat="43.60374" lon="3.73956">
        <ele>122</ele>
        <time>2020-09-12T10:18:50.000Z</time>
      </trkpt>
      <trkpt lat="43.60377" lon="3.73955">
        <ele>122</ele>
        <time>2020-09-12T10:18:51.000Z</time>
      </trkpt>
      <trkpt lat="43.60381" lon="3.73955">
        <ele>122</ele>
        <time>2020-09-12T10:18:52.000Z</time>
      </trkpt>
      <trkpt lat="43.60385" lon="3.73954">
        <ele>122</ele>
        <time>2020-09-12T10:18:53.000Z</time>
      </trkpt>
      <trkpt lat="43.60388" lon="3.73953">
        <ele>122</ele>
        <time>2020-09-12T10:18:54.000Z</time>
      </trkpt>
      <trkpt lat="43.60392" lon="3.73953">
        <ele>122</ele>
        <time>2020-09-12T10:18:55.000Z</time>
      </trkpt>
      <trkpt lat="43.60396" lon="3.73952">
        <ele>122</ele>
        <time>2020-09-12T10:18:56.000Z</time>
      </trkpt>
      <trkpt lat="43.60399" lon="3.73952">
        <ele>122</ele>
        <time>2020-09-12T10:18:57.000Z</time>
      </trkpt>
      <trkpt lat="43.60403" lon="3.73952">
        <ele>121.88600064</ele>
        <time>2020-09-12T10:18:58.000Z</time>
      </trkpt>
      <trkpt lat="43.60407" lon="3.73953">
        <ele>121.68600064</ele>
        <time>2020-09-12T10:18:59.000Z</time>
      </trkpt>
      <trkpt lat="43.60411" lon="3.73954">
        <ele>121.48600064</ele>
        <time>2020-09-12T10:19:00.000Z</time>
      </trkpt>
      <trkpt lat="43.60414" lon="3.73957">
        <ele>121.28600064</ele>
        <time>2020-09-12T10:19:01.000Z</time>
      </trkpt>
      <trkpt lat="43.60418" lon="3.73962">
        <ele>121.08600064</ele>
        <time>2020-09-12T10:19:02.000Z</time>
      </trkpt>
      <trkpt lat="43.60421" lon="3.73969">
        <ele>120.88600064</ele>
        <time>2020-09-12T10:19:03.000Z</time>
      </trkpt>
      <trkpt lat="43.60424" lon="3.73977">
        <ele>120.68600064</ele>
        <time>2020-09-12T10:19:04.000Z</time>
      </trkpt>
      <trkpt lat="43.60427" lon="3.73986">
        <ele>120.48600064</ele>
        <time>2020-09-12T10:19:05.000Z</time>
      </trkpt>
      <trkpt lat="43.60429" lon="3.73996">
        <ele>120.28600064</ele>
        <time>2020-09-12T10:19:06.000Z</time>
      </trkpt>
      <trkpt lat="43.60428" lon="3.74007">
        <ele>120.08600064</ele>
        <time>2020-09-12T10:19:07.000Z</time>
      </trkpt>
      <trkpt lat="43.60427" lon="3.74018">
        <ele>119.83333416504</ele>
        <time>2020-09-12T10:19:08.000Z</time>
      </trkpt>
      <trkpt lat="43.60427" lon="3.7403">
        <ele>119.54093632183</ele>
        <time>2020-09-12T10:19:09.000Z</time>
      </trkpt>
      <trkpt lat="43.60426" lon="3.74041">
        <ele>119.24853847862</ele>
        <time>2020-09-12T10:19:10.000Z</time>
      </trkpt>
      <trkpt lat="43.60426" lon="3.74053">
        <ele>118.95614063541</ele>
        <time>2020-09-12T10:19:11.000Z</time>
      </trkpt>
      <trkpt lat="43.60426" lon="3.74065">
        <ele>118.6637427922</ele>
        <time>2020-09-12T10:19:12.000Z</time>
      </trkpt>
      <trkpt lat="43.60426" lon="3.74077">
        <ele>118.37134494899</ele>
        <time>2020-09-12T10:19:13.000Z</time>
      </trkpt>
      <trkpt lat="43.60426" lon="3.74089">
        <ele>118.07894710578</ele>
        <time>2020-09-12T10:19:14.000Z</time>
      </trkpt>
      <trkpt lat="43.60425" lon="3.74101">
        <ele>117.78654926257</ele>
        <time>2020-09-12T10:19:15.000Z</time>
      </trkpt>
      <trkpt lat="43.60425" lon="3.74113">
        <ele>117.49415141935</ele>
        <time>2020-09-12T10:19:16.000Z</time>
      </trkpt>
      <trkpt lat="43.60425" lon="3.74125">
        <ele>117.20175357614</ele>
        <time>2020-09-12T10:19:17.000Z</time>
      </trkpt>
      <trkpt lat="43.60426" lon="3.74137">
        <ele>116.96918459217</ele>
        <time>2020-09-12T10:19:18.000Z</time>
      </trkpt>
      <trkpt lat="43.60425" lon="3.74148">
        <ele>116.86978107688</ele>
        <time>2020-09-12T10:19:19.000Z</time>
      </trkpt>
      <trkpt lat="43.60425" lon="3.74159">
        <ele>116.77037756159</ele>
        <time>2020-09-12T10:19:20.000Z</time>
      </trkpt>
      <trkpt lat="43.60425" lon="3.7417">
        <ele>116.6709740463</ele>
        <time>2020-09-12T10:19:21.000Z</time>
      </trkpt>
      <trkpt lat="43.60425" lon="3.7418">
        <ele>116.57157053101</ele>
        <time>2020-09-12T10:19:22.000Z</time>
      </trkpt>
      <trkpt lat="43.60424" lon="3.74191">
        <ele>116.47216701572</ele>
        <time>2020-09-12T10:19:23.000Z</time>
      </trkpt>
      <trkpt lat="43.60424" lon="3.742">
        <ele>116.37276350043</ele>
        <time>2020-09-12T10:19:24.000Z</time>
      </trkpt>
      <trkpt lat="43.60423" lon="3.7421">
        <ele>116.27335998514</ele>
        <time>2020-09-12T10:19:25.000Z</time>
      </trkpt>
      <trkpt lat="43.60423" lon="3.7422">
        <ele>116.17395646985</ele>
        <time>2020-09-12T10:19:26.000Z</time>
      </trkpt>
      <trkpt lat="43.60422" lon="3.74229">
        <ele>116.07455295456</ele>
        <time>2020-09-12T10:19:27.000Z</time>
      </trkpt>
      <trkpt lat="43.60421" lon="3.74238">
        <ele>115.9741738843</ele>
        <time>2020-09-12T10:19:28.000Z</time>
      </trkpt>
      <trkpt lat="43.60421" lon="3.74247">
        <ele>115.87086809917</ele>
        <time>2020-09-12T10:19:29.000Z</time>
      </trkpt>
      <trkpt lat="43.60421" lon="3.74256">
        <ele>115.76756231405</ele>
        <time>2020-09-12T10:19:30.000Z</time>
      </trkpt>
      <trkpt lat="43.6042" lon="3.74265">
        <ele>115.66425652893</ele>
        <time>2020-09-12T10:19:31.000Z</time>
      </trkpt>
      <trkpt lat="43.6042" lon="3.74274">
        <ele>115.5609507438</ele>
        <time>2020-09-12T10:19:32.000Z</time>
      </trkpt>
      <trkpt lat="43.60419" lon="3.74282">
        <ele>115.45764495868</ele>
        <time>2020-09-12T10:19:33.000Z</time>
      </trkpt>
      <trkpt lat="43.60419" lon="3.7429">
        <ele>115.35433917355</ele>
        <time>2020-09-12T10:19:34.000Z</time>
      </trkpt>
      <trkpt lat="43.60419" lon="3.74299">
        <ele>115.25103338843</ele>
        <time>2020-09-12T10:19:35.000Z</time>
      </trkpt>
      <trkpt lat="43.60419" lon="3.74307">
        <ele>115.14772760331</ele>
        <time>2020-09-12T10:19:36.000Z</time>
      </trkpt>
      <trkpt lat="43.60419" lon="3.74316">
        <ele>115.04442181818</ele>
        <time>2020-09-12T10:19:37.000Z</time>
      </trkpt>
      <trkpt lat="43.60418" lon="3.74324">
        <ele>114.8291717336</ele>
        <time>2020-09-12T10:19:38.000Z</time>
      </trkpt>
      <trkpt lat="43.60418" lon="3.74333">
        <ele>114.52947133809</ele>
        <time>2020-09-12T10:19:39.000Z</time>
      </trkpt>
      <trkpt lat="43.60418" lon="3.74342">
        <ele>114.22977094258</ele>
        <time>2020-09-12T10:19:40.000Z</time>
      </trkpt>
      <trkpt lat="43.60418" lon="3.74351">
        <ele>113.93007054708</ele>
        <time>2020-09-12T10:19:41.000Z</time>
      </trkpt>
      <trkpt lat="43.60418" lon="3.7436">
        <ele>113.63037015157</ele>
        <time>2020-09-12T10:19:42.000Z</time>
      </trkpt>
      <trkpt lat="43.60418" lon="3.74369">
        <ele>113.33066975606</ele>
        <time>2020-09-12T10:19:43.000Z</time>
      </trkpt>
      <trkpt lat="43.60419" lon="3.74377">
        <ele>113.03096936055</ele>
        <time>2020-09-12T10:19:44.000Z</time>
      </trkpt>
      <trkpt lat="43.60419" lon="3.74386">
        <ele>112.73126896504</ele>
        <time>2020-09-12T10:19:45.000Z</time>
      </trkpt>
      <trkpt lat="43.6042" lon="3.74395">
        <ele>112.43156856953</ele>
        <time>2020-09-12T10:19:46.000Z</time>
      </trkpt>
      <trkpt lat="43.6042" lon="3.74404">
        <ele>112.13186817402</ele>
        <time>2020-09-12T10:19:47.000Z</time>
      </trkpt>
      <trkpt lat="43.60419" lon="3.74414">
        <ele>111.83689330523</ele>
        <time>2020-09-12T10:19:48.000Z</time>
      </trkpt>
      <trkpt lat="43.60419" lon="3.74423">
        <ele>111.54563135029</ele>
        <time>2020-09-12T10:19:49.000Z</time>
      </trkpt>
      <trkpt lat="43.60419" lon="3.74433">
        <ele>111.25436939534</ele>
        <time>2020-09-12T10:19:50.000Z</time>
      </trkpt>
      <trkpt lat="43.6042" lon="3.74443">
        <ele>110.9631074404</ele>
        <time>2020-09-12T10:19:51.000Z</time>
      </trkpt>
      <trkpt lat="43.6042" lon="3.74453">
        <ele>110.67184548545</ele>
        <time>2020-09-12T10:19:52.000Z</time>
      </trkpt>
      <trkpt lat="43.6042" lon="3.74463">
        <ele>110.38058353051</ele>
        <time>2020-09-12T10:19:53.000Z</time>
      </trkpt>
      <trkpt lat="43.6042" lon="3.74473">
        <ele>110.08932157557</ele>
        <time>2020-09-12T10:19:54.000Z</time>
      </trkpt>
      <trkpt lat="43.60421" lon="3.74484">
        <ele>109.79805962062</ele>
        <time>2020-09-12T10:19:55.000Z</time>
      </trkpt>
      <trkpt lat="43.60421" lon="3.74494">
        <ele>109.50679766568</ele>
        <time>2020-09-12T10:19:56.000Z</time>
      </trkpt>
      <trkpt lat="43.60421" lon="3.74505">
        <ele>109.21553571073</ele>
        <time>2020-09-12T10:19:57.000Z</time>
      </trkpt>
      <trkpt lat="43.60421" lon="3.74516">
        <ele>108.89267546507</ele>
        <time>2020-09-12T10:19:58.000Z</time>
      </trkpt>
      <trkpt lat="43.6042" lon="3.74527">
        <ele>108.47987863113</ele>
        <time>2020-09-12T10:19:59.000Z</time>
      </trkpt>
      <trkpt lat="43.60421" lon="3.74539">
        <ele>108.06708179718</ele>
        <time>2020-09-12T10:20:00.000Z</time>
      </trkpt>
      <trkpt lat="43.60421" lon="3.74551">
        <ele>107.65428496323</ele>
        <time>2020-09-12T10:20:01.000Z</time>
      </trkpt>
      <trkpt lat="43.6042" lon="3.74562">
        <ele>107.24148812928</ele>
        <time>2020-09-12T10:20:02.000Z</time>
      </trkpt>
      <trkpt lat="43.6042" lon="3.74574">
        <ele>106.82869129534</ele>
        <time>2020-09-12T10:20:03.000Z</time>
      </trkpt>
      <trkpt lat="43.6042" lon="3.74586">
        <ele>106.41589446139</ele>
        <time>2020-09-12T10:20:04.000Z</time>
      </trkpt>
      <trkpt lat="43.6042" lon="3.74598">
        <ele>106.00309762744</ele>
        <time>2020-09-12T10:20:05.000Z</time>
      </trkpt>
      <trkpt lat="43.6042" lon="3.7461">
        <ele>105.5903007935</ele>
        <time>2020-09-12T10:20:06.000Z</time>
      </trkpt>
      <trkpt lat="43.6042" lon="3.74621">
        <ele>105.17750395955</ele>
        <time>2020-09-12T10:20:07.000Z</time>
      </trkpt>
      <trkpt lat="43.6042" lon="3.74632">
        <ele>104.94476775194</ele>
        <time>2020-09-12T10:20:08.000Z</time>
      </trkpt>
      <trkpt lat="43.6042" lon="3.74643">
        <ele>104.84786852713</ele>
        <time>2020-09-12T10:20:09.000Z</time>
      </trkpt>
      <trkpt lat="43.60421" lon="3.74654">
        <ele>104.75096930233</ele>
        <time>2020-09-12T10:20:10.000Z</time>
      </trkpt>
      <trkpt lat="43.60421" lon="3.74665">
        <ele>104.65407007752</ele>
        <time>2020-09-12T10:20:11.000Z</time>
      </trkpt>
      <trkpt lat="43.60422" lon="3.74675">
        <ele>104.55717085271</ele>
        <time>2020-09-12T10:20:12.000Z</time>
      </trkpt>
      <trkpt lat="43.60423" lon="3.74685">
        <ele>104.46027162791</ele>
        <time>2020-09-12T10:20:13.000Z</time>
      </trkpt>
      <trkpt lat="43.60424" lon="3.74694">
        <ele>104.3633724031</ele>
        <time>2020-09-12T10:20:14.000Z</time>
      </trkpt>
      <trkpt lat="43.60425" lon="3.74704">
        <ele>104.2664731783</ele>
        <time>2020-09-12T10:20:15.000Z</time>
      </trkpt>
      <trkpt lat="43.60426" lon="3.74713">
        <ele>104.16957395349</ele>
        <time>2020-09-12T10:20:16.000Z</time>
      </trkpt>
      <trkpt lat="43.60427" lon="3.74722">
        <ele>104.07267472868</ele>
        <time>2020-09-12T10:20:17.000Z</time>
      </trkpt>
      <trkpt lat="43.60429" lon="3.74731">
        <ele>104</ele>
        <time>2020-09-12T10:20:18.000Z</time>
      </trkpt>
      <trkpt lat="43.6043" lon="3.74739">
        <ele>104</ele>
        <time>2020-09-12T10:20:19.000Z</time>
      </trkpt>
      <trkpt lat="43.60431" lon="3.74748">
        <ele>104</ele>
        <time>2020-09-12T10:20:20.000Z</time>
      </trkpt>
      <trkpt lat="43.60432" lon="3.74756">
        <ele>104</ele>
        <time>2020-09-12T10:20:21.000Z</time>
      </trkpt>
      <trkpt lat="43.60433" lon="3.74764">
        <ele>104</ele>
        <time>2020-09-12T10:20:22.000Z</time>
      </trkpt>
      <trkpt lat="43.60434" lon="3.74772">
        <ele>104</ele>
        <time>2020-09-12T10:20:23.000Z</time>
      </trkpt>
      <trkpt lat="43.60434" lon="3.7478">
        <ele>104</ele>
        <time>2020-09-12T10:20:24.000Z</time>
      </trkpt>
      <trkpt lat="43.60434" lon="3.74788">
        <ele>104</ele>
        <time>2020-09-12T10:20:25.000Z</time>
      </trkpt>
      <trkpt lat="43.60433" lon="3.74796">
        <ele>104</ele>
        <time>2020-09-12T10:20:26.000Z</time>
      </trkpt>
      <trkpt lat="43.60432" lon="3.74803">
        <ele>104</ele>
        <time>2020-09-12T10:20:27.000Z</time>
      </trkpt>
      <trkpt lat="43.60431" lon="3.74811">
        <ele>104</ele>
        <time>2020-09-12T10:20:28.000Z</time>
      </trkpt>
      <trkpt lat="43.60431" lon="3.74818">
        <ele>104</ele>
        <time>2020-09-12T10:20:29.000Z</time>
      </trkpt>
      <trkpt lat="43.60429" lon="3.74826">
        <ele>104</ele>
        <time>2020-09-12T10:20:30.000Z</time>
      </trkpt>
      <trkpt lat="43.60428" lon="3.74834">
        <ele>104</ele>
        <time>2020-09-12T10:20:31.000Z</time>
      </trkpt>
      <trkpt lat="43.60427" lon="3.74842">
        <ele>104</ele>
        <time>2020-09-12T10:20:32.000Z</time>
      </trkpt>
      <trkpt lat="43.60426" lon="3.7485">
        <ele>104</ele>
        <time>2020-09-12T10:20:33.000Z</time>
      </trkpt>
      <trkpt lat="43.60426" lon="3.74858">
        <ele>104</ele>
        <time>2020-09-12T10:20:34.000Z</time>
      </trkpt>
      <trkpt lat="43.60425" lon="3.74866">
        <ele>104</ele>
        <time>2020-09-12T10:20:35.000Z</time>
      </trkpt>
      <trkpt lat="43.60425" lon="3.74874">
        <ele>104</ele>
        <time>2020-09-12T10:20:36.000Z</time>
      </trkpt>
      <trkpt lat="43.60425" lon="3.74882">
        <ele>104</ele>
        <time>2020-09-12T10:20:37.000Z</time>
      </trkpt>
      <trkpt lat="43.60425" lon="3.7489">
        <ele>103.94300032</ele>
        <time>2020-09-12T10:20:38.000Z</time>
      </trkpt>
      <trkpt lat="43.60426" lon="3.74898">
        <ele>103.84300032</ele>
        <time>2020-09-12T10:20:39.000Z</time>
      </trkpt>
      <trkpt lat="43.60427" lon="3.74906">
        <ele>103.74300032</ele>
        <time>2020-09-12T10:20:40.000Z</time>
      </trkpt>
      <trkpt lat="43.60429" lon="3.74913">
        <ele>103.64300032</ele>
        <time>2020-09-12T10:20:41.000Z</time>
      </trkpt>
      <trkpt lat="43.60432" lon="3.74921">
        <ele>103.54300032</ele>
        <time>2020-09-12T10:20:42.000Z</time>
      </trkpt>
      <trkpt lat="43.60434" lon="3.74929">
        <ele>103.44300032</ele>
        <time>2020-09-12T10:20:43.000Z</time>
      </trkpt>
      <trkpt lat="43.60436" lon="3.74937">
        <ele>103.34300032</ele>
        <time>2020-09-12T10:20:44.000Z</time>
      </trkpt>
      <trkpt lat="43.60438" lon="3.74945">
        <ele>103.24300032</ele>
        <time>2020-09-12T10:20:45.000Z</time>
      </trkpt>
      <trkpt lat="43.6044" lon="3.74954">
        <ele>103.14300032</ele>
        <time>2020-09-12T10:20:46.000Z</time>
      </trkpt>
      <trkpt lat="43.60442" lon="3.74962">
        <ele>103.04300032</ele>
        <time>2020-09-12T10:20:47.000Z</time>
      </trkpt>
      <trkpt lat="43.60445" lon="3.7497">
        <ele>103</ele>
        <time>2020-09-12T10:20:48.000Z</time>
      </trkpt>
      <trkpt lat="43.60447" lon="3.74978">
        <ele>103</ele>
        <time>2020-09-12T10:20:49.000Z</time>
      </trkpt>
      <trkpt lat="43.60449" lon="3.74986">
        <ele>103</ele>
        <time>2020-09-12T10:20:50.000Z</time>
      </trkpt>
      <trkpt lat="43.60451" lon="3.74994">
        <ele>103</ele>
        <time>2020-09-12T10:20:51.000Z</time>
      </trkpt>
      <trkpt lat="43.60453" lon="3.75001">
        <ele>103</ele>
        <time>2020-09-12T10:20:52.000Z</time>
      </trkpt>
      <trkpt lat="43.60455" lon="3.75009">
        <ele>103</ele>
        <time>2020-09-12T10:20:53.000Z</time>
      </trkpt>
      <trkpt lat="43.60457" lon="3.75016">
        <ele>103</ele>
        <time>2020-09-12T10:20:54.000Z</time>
      </trkpt>
      <trkpt lat="43.60459" lon="3.75023">
        <ele>103</ele>
        <time>2020-09-12T10:20:55.000Z</time>
      </trkpt>
      <trkpt lat="43.60461" lon="3.75029">
        <ele>103</ele>
        <time>2020-09-12T10:20:56.000Z</time>
      </trkpt>
      <trkpt lat="43.60459" lon="3.75036">
        <ele>103</ele>
        <time>2020-09-12T10:20:57.000Z</time>
      </trkpt>
      <trkpt lat="43.60457" lon="3.75042">
        <ele>103.04554623482</ele>
        <time>2020-09-12T10:20:58.000Z</time>
      </trkpt>
      <trkpt lat="43.60454" lon="3.75047">
        <ele>103.14676080972</ele>
        <time>2020-09-12T10:20:59.000Z</time>
      </trkpt>
      <trkpt lat="43.60451" lon="3.75053">
        <ele>103.24797538462</ele>
        <time>2020-09-12T10:21:00.000Z</time>
      </trkpt>
      <trkpt lat="43.60447" lon="3.75058">
        <ele>103.34918995951</ele>
        <time>2020-09-12T10:21:01.000Z</time>
      </trkpt>
      <trkpt lat="43.60444" lon="3.75064">
        <ele>103.45040453441</ele>
        <time>2020-09-12T10:21:02.000Z</time>
      </trkpt>
      <trkpt lat="43.6044" lon="3.75069">
        <ele>103.55161910931</ele>
        <time>2020-09-12T10:21:03.000Z</time>
      </trkpt>
      <trkpt lat="43.60437" lon="3.75075">
        <ele>103.65283368421</ele>
        <time>2020-09-12T10:21:04.000Z</time>
      </trkpt>
      <trkpt lat="43.60433" lon="3.75081">
        <ele>103.75404825911</ele>
        <time>2020-09-12T10:21:05.000Z</time>
      </trkpt>
      <trkpt lat="43.6043" lon="3.75087">
        <ele>103.85526283401</ele>
        <time>2020-09-12T10:21:06.000Z</time>
      </trkpt>
      <trkpt lat="43.60426" lon="3.75093">
        <ele>103.95647740891</ele>
        <time>2020-09-12T10:21:07.000Z</time>
      </trkpt>
      <trkpt lat="43.60423" lon="3.75099">
        <ele>104</ele>
        <time>2020-09-12T10:21:08.000Z</time>
      </trkpt>
      <trkpt lat="43.60419" lon="3.75105">
        <ele>104</ele>
        <time>2020-09-12T10:21:09.000Z</time>
      </trkpt>
      <trkpt lat="43.60415" lon="3.7511">
        <ele>104</ele>
        <time>2020-09-12T10:21:10.000Z</time>
      </trkpt>
      <trkpt lat="43.60412" lon="3.75116">
        <ele>104</ele>
        <time>2020-09-12T10:21:11.000Z</time>
      </trkpt>
      <trkpt lat="43.60408" lon="3.75121">
        <ele>104</ele>
        <time>2020-09-12T10:21:12.000Z</time>
      </trkpt>
      <trkpt lat="43.60404" lon="3.75126">
        <ele>104</ele>
        <time>2020-09-12T10:21:13.000Z</time>
      </trkpt>
      <trkpt lat="43.604" lon="3.75132">
        <ele>104</ele>
        <time>2020-09-12T10:21:14.000Z</time>
      </trkpt>
      <trkpt lat="43.60395" lon="3.75137">
        <ele>104</ele>
        <time>2020-09-12T10:21:15.000Z</time>
      </trkpt>
      <trkpt lat="43.60391" lon="3.75141">
        <ele>104</ele>
        <time>2020-09-12T10:21:16.000Z</time>
      </trkpt>
      <trkpt lat="43.60387" lon="3.75146">
        <ele>104</ele>
        <time>2020-09-12T10:21:17.000Z</time>
      </trkpt>
      <trkpt lat="43.60383" lon="3.75151">
        <ele>104</ele>
        <time>2020-09-12T10:21:18.000Z</time>
      </trkpt>
      <trkpt lat="43.60379" lon="3.75156">
        <ele>104</ele>
        <time>2020-09-12T10:21:19.000Z</time>
      </trkpt>
      <trkpt lat="43.60376" lon="3.75161">
        <ele>104</ele>
        <time>2020-09-12T10:21:20.000Z</time>
      </trkpt>
      <trkpt lat="43.60372" lon="3.75166">
        <ele>104</ele>
        <time>2020-09-12T10:21:21.000Z</time>
      </trkpt>
      <trkpt lat="43.60368" lon="3.75171">
        <ele>104</ele>
        <time>2020-09-12T10:21:22.000Z</time>
      </trkpt>
      <trkpt lat="43.60364" lon="3.75177">
        <ele>104</ele>
        <time>2020-09-12T10:21:23.000Z</time>
      </trkpt>
      <trkpt lat="43.60361" lon="3.75182">
        <ele>104</ele>
        <time>2020-09-12T10:21:24.000Z</time>
      </trkpt>
      <trkpt lat="43.60357" lon="3.75187">
        <ele>104</ele>
        <time>2020-09-12T10:21:25.000Z</time>
      </trkpt>
      <trkpt lat="43.60353" lon="3.75193">
        <ele>104</ele>
        <time>2020-09-12T10:21:26.000Z</time>
      </trkpt>
      <trkpt lat="43.60349" lon="3.75198">
        <ele>104</ele>
        <time>2020-09-12T10:21:27.000Z</time>
      </trkpt>
      <trkpt lat="43.60346" lon="3.75203">
        <ele>104</ele>
        <time>2020-09-12T10:21:28.000Z</time>
      </trkpt>
      <trkpt lat="43.60342" lon="3.75209">
        <ele>104</ele>
        <time>2020-09-12T10:21:29.000Z</time>
      </trkpt>
      <trkpt lat="43.60338" lon="3.75214">
        <ele>104</ele>
        <time>2020-09-12T10:21:30.000Z</time>
      </trkpt>
      <trkpt lat="43.60334" lon="3.75219">
        <ele>104</ele>
        <time>2020-09-12T10:21:31.000Z</time>
      </trkpt>
      <trkpt lat="43.6033" lon="3.75225">
        <ele>104</ele>
        <time>2020-09-12T10:21:32.000Z</time>
      </trkpt>
      <trkpt lat="43.60326" lon="3.7523">
        <ele>104</ele>
        <time>2020-09-12T10:21:33.000Z</time>
      </trkpt>
      <trkpt lat="43.60323" lon="3.75236">
        <ele>104</ele>
        <time>2020-09-12T10:21:34.000Z</time>
      </trkpt>
      <trkpt lat="43.60319" lon="3.75241">
        <ele>104</ele>
        <time>2020-09-12T10:21:35.000Z</time>
      </trkpt>
      <trkpt lat="43.60315" lon="3.75246">
        <ele>104</ele>
        <time>2020-09-12T10:21:36.000Z</time>
      </trkpt>
      <trkpt lat="43.60311" lon="3.75251">
        <ele>104</ele>
        <time>2020-09-12T10:21:37.000Z</time>
      </trkpt>
      <trkpt lat="43.60308" lon="3.75256">
        <ele>104.05252974004</ele>
        <time>2020-09-12T10:21:38.000Z</time>
      </trkpt>
      <trkpt lat="43.60304" lon="3.75262">
        <ele>104.14980588351</ele>
        <time>2020-09-12T10:21:39.000Z</time>
      </trkpt>
      <trkpt lat="43.60301" lon="3.75267">
        <ele>104.24708202698</ele>
        <time>2020-09-12T10:21:40.000Z</time>
      </trkpt>
      <trkpt lat="43.60297" lon="3.75272">
        <ele>104.34435817045</ele>
        <time>2020-09-12T10:21:41.000Z</time>
      </trkpt>
      <trkpt lat="43.60293" lon="3.75276">
        <ele>104.44163431392</ele>
        <time>2020-09-12T10:21:42.000Z</time>
      </trkpt>
      <trkpt lat="43.6029" lon="3.75281">
        <ele>104.53891045739</ele>
        <time>2020-09-12T10:21:43.000Z</time>
      </trkpt>
      <trkpt lat="43.60286" lon="3.75286">
        <ele>104.63618660086</ele>
        <time>2020-09-12T10:21:44.000Z</time>
      </trkpt>
      <trkpt lat="43.60283" lon="3.7529">
        <ele>104.73346274433</ele>
        <time>2020-09-12T10:21:45.000Z</time>
      </trkpt>
      <trkpt lat="43.60279" lon="3.75295">
        <ele>104.8307388878</ele>
        <time>2020-09-12T10:21:46.000Z</time>
      </trkpt>
      <trkpt lat="43.60276" lon="3.753">
        <ele>104.92801503127</ele>
        <time>2020-09-12T10:21:47.000Z</time>
      </trkpt>
      <trkpt lat="43.60274" lon="3.75305">
        <ele>105</ele>
        <time>2020-09-12T10:21:48.000Z</time>
      </trkpt>
      <trkpt lat="43.60273" lon="3.75311">
        <ele>105</ele>
        <time>2020-09-12T10:21:49.000Z</time>
      </trkpt>
      <trkpt lat="43.60272" lon="3.75317">
        <ele>105</ele>
        <time>2020-09-12T10:21:50.000Z</time>
      </trkpt>
      <trkpt lat="43.60273" lon="3.75324">
        <ele>105</ele>
        <time>2020-09-12T10:21:51.000Z</time>
      </trkpt>
      <trkpt lat="43.60274" lon="3.7533">
        <ele>105</ele>
        <time>2020-09-12T10:21:52.000Z</time>
      </trkpt>
      <trkpt lat="43.60275" lon="3.75337">
        <ele>105</ele>
        <time>2020-09-12T10:21:53.000Z</time>
      </trkpt>
      <trkpt lat="43.60276" lon="3.75343">
        <ele>105</ele>
        <time>2020-09-12T10:21:54.000Z</time>
      </trkpt>
      <trkpt lat="43.60276" lon="3.7535">
        <ele>105</ele>
        <time>2020-09-12T10:21:55.000Z</time>
      </trkpt>
      <trkpt lat="43.60277" lon="3.75357">
        <ele>105</ele>
        <time>2020-09-12T10:21:56.000Z</time>
      </trkpt>
      <trkpt lat="43.60277" lon="3.75364">
        <ele>105</ele>
        <time>2020-09-12T10:21:57.000Z</time>
      </trkpt>
      <trkpt lat="43.60277" lon="3.75372">
        <ele>104.94460670775</ele>
        <time>2020-09-12T10:21:58.000Z</time>
      </trkpt>
      <trkpt lat="43.60276" lon="3.75379">
        <ele>104.84742494769</ele>
        <time>2020-09-12T10:21:59.000Z</time>
      </trkpt>
      <trkpt lat="43.60275" lon="3.75387">
        <ele>104.75024318764</ele>
        <time>2020-09-12T10:22:00.000Z</time>
      </trkpt>
      <trkpt lat="43.60275" lon="3.75395">
        <ele>104.65306142758</ele>
        <time>2020-09-12T10:22:01.000Z</time>
      </trkpt>
      <trkpt lat="43.60275" lon="3.75403">
        <ele>104.55587966752</ele>
        <time>2020-09-12T10:22:02.000Z</time>
      </trkpt>
      <trkpt lat="43.60277" lon="3.7541">
        <ele>104.45869790747</ele>
        <time>2020-09-12T10:22:03.000Z</time>
      </trkpt>
      <trkpt lat="43.6028" lon="3.75417">
        <ele>104.36151614741</ele>
        <time>2020-09-12T10:22:04.000Z</time>
      </trkpt>
      <trkpt lat="43.60283" lon="3.75423">
        <ele>104.26433438735</ele>
        <time>2020-09-12T10:22:05.000Z</time>
      </trkpt>
      <trkpt lat="43.60287" lon="3.75428">
        <ele>104.1671526273</ele>
        <time>2020-09-12T10:22:06.000Z</time>
      </trkpt>
      <trkpt lat="43.60292" lon="3.75433">
        <ele>104.06997086724</ele>
        <time>2020-09-12T10:22:07.000Z</time>
      </trkpt>
      <trkpt lat="43.60296" lon="3.75438">
        <ele>103.97116375822</ele>
        <time>2020-09-12T10:22:08.000Z</time>
      </trkpt>
      <trkpt lat="43.603" lon="3.75443">
        <ele>103.86817718042</ele>
        <time>2020-09-12T10:22:09.000Z</time>
      </trkpt>
      <trkpt lat="43.60304" lon="3.75448">
        <ele>103.76519060261</ele>
        <time>2020-09-12T10:22:10.000Z</time>
      </trkpt>
      <trkpt lat="43.60307" lon="3.75454">
        <ele>103.66220402481</ele>
        <time>2020-09-12T10:22:11.000Z</time>
      </trkpt>
      <trkpt lat="43.6031" lon="3.7546">
        <ele>103.55921744701</ele>
        <time>2020-09-12T10:22:12.000Z</time>
      </trkpt>
      <trkpt lat="43.60312" lon="3.75467">
        <ele>103.45623086921</ele>
        <time>2020-09-12T10:22:13.000Z</time>
      </trkpt>
      <trkpt lat="43.60314" lon="3.75474">
        <ele>103.35324429141</ele>
        <time>2020-09-12T10:22:14.000Z</time>
      </trkpt>
      <trkpt lat="43.60315" lon="3.75481">
        <ele>103.25025771361</ele>
        <time>2020-09-12T10:22:15.000Z</time>
      </trkpt>
      <trkpt lat="43.60316" lon="3.75488">
        <ele>103.14727113581</ele>
        <time>2020-09-12T10:22:16.000Z</time>
      </trkpt>
      <trkpt lat="43.60316" lon="3.75496">
        <ele>103.04428455801</ele>
        <time>2020-09-12T10:22:17.000Z</time>
      </trkpt>
      <trkpt lat="43.60315" lon="3.75504">
        <ele>103</ele>
        <time>2020-09-12T10:22:18.000Z</time>
      </trkpt>
      <trkpt lat="43.60314" lon="3.75512">
        <ele>103</ele>
        <time>2020-09-12T10:22:19.000Z</time>
      </trkpt>
      <trkpt lat="43.60313" lon="3.7552">
        <ele>103</ele>
        <time>2020-09-12T10:22:20.000Z</time>
      </trkpt>
      <trkpt lat="43.60312" lon="3.75528">
        <ele>103</ele>
        <time>2020-09-12T10:22:21.000Z</time>
      </trkpt>
      <trkpt lat="43.60311" lon="3.75536">
        <ele>103</ele>
        <time>2020-09-12T10:22:22.000Z</time>
      </trkpt>
      <trkpt lat="43.6031" lon="3.75544">
        <ele>103</ele>
        <time>2020-09-12T10:22:23.000Z</time>
      </trkpt>
      <trkpt lat="43.6031" lon="3.75552">
        <ele>103</ele>
        <time>2020-09-12T10:22:24.000Z</time>
      </trkpt>
      <trkpt lat="43.60311" lon="3.7556">
        <ele>103</ele>
        <time>2020-09-12T10:22:25.000Z</time>
      </trkpt>
      <trkpt lat="43.60312" lon="3.75567">
        <ele>103</ele>
        <time>2020-09-12T10:22:26.000Z</time>
      </trkpt>
      <trkpt lat="43.60312" lon="3.75575">
        <ele>103</ele>
        <time>2020-09-12T10:22:27.000Z</time>
      </trkpt>
      <trkpt lat="43.60313" lon="3.75582">
        <ele>102.94466047047</ele>
        <time>2020-09-12T10:22:28.000Z</time>
      </trkpt>
      <trkpt lat="43.60314" lon="3.7559">
        <ele>102.8475730315</ele>
        <time>2020-09-12T10:22:29.000Z</time>
      </trkpt>
      <trkpt lat="43.60315" lon="3.75598">
        <ele>102.75048559254</ele>
        <time>2020-09-12T10:22:30.000Z</time>
      </trkpt>
      <trkpt lat="43.60315" lon="3.75606">
        <ele>102.65339815357</ele>
        <time>2020-09-12T10:22:31.000Z</time>
      </trkpt>
      <trkpt lat="43.60315" lon="3.75614">
        <ele>102.5563107146</ele>
        <time>2020-09-12T10:22:32.000Z</time>
      </trkpt>
      <trkpt lat="43.60315" lon="3.75622">
        <ele>102.45922327563</ele>
        <time>2020-09-12T10:22:33.000Z</time>
      </trkpt>
      <trkpt lat="43.60314" lon="3.7563">
        <ele>102.36213583667</ele>
        <time>2020-09-12T10:22:34.000Z</time>
      </trkpt>
      <trkpt lat="43.60312" lon="3.75639">
        <ele>102.2650483977</ele>
        <time>2020-09-12T10:22:35.000Z</time>
      </trkpt>
      <trkpt lat="43.6031" lon="3.75646">
        <ele>102.16796095873</ele>
        <time>2020-09-12T10:22:36.000Z</time>
      </trkpt>
      <trkpt lat="43.60307" lon="3.75654">
        <ele>102.07087351977</ele>
        <time>2020-09-12T10:22:37.000Z</time>
      </trkpt>
      <trkpt lat="43.60304" lon="3.75662">
        <ele>101.97216463692</ele>
        <time>2020-09-12T10:22:38.000Z</time>
      </trkpt>
      <trkpt lat="43.60301" lon="3.75669">
        <ele>101.86907192144</ele>
        <time>2020-09-12T10:22:39.000Z</time>
      </trkpt>
      <trkpt lat="43.60298" lon="3.75676">
        <ele>101.76597920595</ele>
        <time>2020-09-12T10:22:40.000Z</time>
      </trkpt>
      <trkpt lat="43.60296" lon="3.75683">
        <ele>101.66288649047</ele>
        <time>2020-09-12T10:22:41.000Z</time>
      </trkpt>
      <trkpt lat="43.60293" lon="3.7569">
        <ele>101.55979377498</ele>
        <time>2020-09-12T10:22:42.000Z</time>
      </trkpt>
      <trkpt lat="43.6029" lon="3.75697">
        <ele>101.4567010595</ele>
        <time>2020-09-12T10:22:43.000Z</time>
      </trkpt>
      <trkpt lat="43.60287" lon="3.75704">
        <ele>101.35360834401</ele>
        <time>2020-09-12T10:22:44.000Z</time>
      </trkpt>
      <trkpt lat="43.60284" lon="3.75711">
        <ele>101.25051562853</ele>
        <time>2020-09-12T10:22:45.000Z</time>
      </trkpt>
      <trkpt lat="43.60281" lon="3.75718">
        <ele>101.14742291304</ele>
        <time>2020-09-12T10:22:46.000Z</time>
      </trkpt>
      <trkpt lat="43.60279" lon="3.75725">
        <ele>101.04433019755</ele>
        <time>2020-09-12T10:22:47.000Z</time>
      </trkpt>
      <trkpt lat="43.60276" lon="3.75732">
        <ele>100.94471419757</ele>
        <time>2020-09-12T10:22:48.000Z</time>
      </trkpt>
      <trkpt lat="43.60273" lon="3.75739">
        <ele>100.8477210172</ele>
        <time>2020-09-12T10:22:49.000Z</time>
      </trkpt>
      <trkpt lat="43.6027" lon="3.75746">
        <ele>100.75072783683</ele>
        <time>2020-09-12T10:22:50.000Z</time>
      </trkpt>
      <trkpt lat="43.60267" lon="3.75752">
        <ele>100.65373465646</ele>
        <time>2020-09-12T10:22:51.000Z</time>
      </trkpt>
      <trkpt lat="43.60265" lon="3.75759">
        <ele>100.55674147608</ele>
        <time>2020-09-12T10:22:52.000Z</time>
      </trkpt>
      <trkpt lat="43.60262" lon="3.75766">
        <ele>100.45974829571</ele>
        <time>2020-09-12T10:22:53.000Z</time>
      </trkpt>
      <trkpt lat="43.6026" lon="3.75773">
        <ele>100.36275511534</ele>
        <time>2020-09-12T10:22:54.000Z</time>
      </trkpt>
      <trkpt lat="43.60257" lon="3.75779">
        <ele>100.26576193497</ele>
        <time>2020-09-12T10:22:55.000Z</time>
      </trkpt>
      <trkpt lat="43.60255" lon="3.75786">
        <ele>100.1687687546</ele>
        <time>2020-09-12T10:22:56.000Z</time>
      </trkpt>
      <trkpt lat="43.60252" lon="3.75792">
        <ele>100.07177557423</ele>
        <time>2020-09-12T10:22:57.000Z</time>
      </trkpt>
      <trkpt lat="43.60249" lon="3.75798">
        <ele>100</ele>
        <time>2020-09-12T10:22:58.000Z</time>
      </trkpt>
      <trkpt lat="43.60246" lon="3.75804">
        <ele>100</ele>
        <time>2020-09-12T10:22:59.000Z</time>
      </trkpt>
      <trkpt lat="43.60243" lon="3.7581">
        <ele>100</ele>
        <time>2020-09-12T10:23:00.000Z</time>
      </trkpt>
      <trkpt lat="43.6024" lon="3.75816">
        <ele>100</ele>
        <time>2020-09-12T10:23:01.000Z</time>
      </trkpt>
      <trkpt lat="43.60237" lon="3.75822">
        <ele>100</ele>
        <time>2020-09-12T10:23:02.000Z</time>
      </trkpt>
      <trkpt lat="43.60234" lon="3.75828">
        <ele>100</ele>
        <time>2020-09-12T10:23:03.000Z</time>
      </trkpt>
      <trkpt lat="43.6023" lon="3.75833">
        <ele>100</ele>
        <time>2020-09-12T10:23:04.000Z</time>
      </trkpt>
      <trkpt lat="43.60226" lon="3.75838">
        <ele>100</ele>
        <time>2020-09-12T10:23:05.000Z</time>
      </trkpt>
      <trkpt lat="43.60221" lon="3.75843">
        <ele>100</ele>
        <time>2020-09-12T10:23:06.000Z</time>
      </trkpt>
      <trkpt lat="43.60216" lon="3.75846">
        <ele>100</ele>
        <time>2020-09-12T10:23:07.000Z</time>
      </trkpt>
      <trkpt lat="43.60211" lon="3.7585">
        <ele>99.946337732537</ele>
        <time>2020-09-12T10:23:08.000Z</time>
      </trkpt>
      <trkpt lat="43.60205" lon="3.75854">
        <ele>99.739939315563</ele>
        <time>2020-09-12T10:23:09.000Z</time>
      </trkpt>
      <trkpt lat="43.602" lon="3.75858">
        <ele>99.533540898589</ele>
        <time>2020-09-12T10:23:10.000Z</time>
      </trkpt>
      <trkpt lat="43.60195" lon="3.75862">
        <ele>99.327142481616</ele>
        <time>2020-09-12T10:23:11.000Z</time>
      </trkpt>
      <trkpt lat="43.6019" lon="3.75867">
        <ele>99.120744064642</ele>
        <time>2020-09-12T10:23:12.000Z</time>
      </trkpt>
      <trkpt lat="43.60185" lon="3.75872">
        <ele>98.914345647668</ele>
        <time>2020-09-12T10:23:13.000Z</time>
      </trkpt>
      <trkpt lat="43.6018" lon="3.75877">
        <ele>98.707947230695</ele>
        <time>2020-09-12T10:23:14.000Z</time>
      </trkpt>
      <trkpt lat="43.60175" lon="3.75881">
        <ele>98.501548813721</ele>
        <time>2020-09-12T10:23:15.000Z</time>
      </trkpt>
      <trkpt lat="43.6017" lon="3.75885">
        <ele>98.295150396747</ele>
        <time>2020-09-12T10:23:16.000Z</time>
      </trkpt>
      <trkpt lat="43.60165" lon="3.75888">
        <ele>98.088751979774</ele>
        <time>2020-09-12T10:23:17.000Z</time>
      </trkpt>
      <trkpt lat="43.60159" lon="3.7589">
        <ele>97.88600064</ele>
        <time>2020-09-12T10:23:18.000Z</time>
      </trkpt>
      <trkpt lat="43.60153" lon="3.7589">
        <ele>97.68600064</ele>
        <time>2020-09-12T10:23:19.000Z</time>
      </trkpt>
      <trkpt lat="43.60148" lon="3.75892">
        <ele>97.48600064</ele>
        <time>2020-09-12T10:23:20.000Z</time>
      </trkpt>
      <trkpt lat="43.60142" lon="3.75895">
        <ele>97.28600064</ele>
        <time>2020-09-12T10:23:21.000Z</time>
      </trkpt>
      <trkpt lat="43.60137" lon="3.75898">
        <ele>97.08600064</ele>
        <time>2020-09-12T10:23:22.000Z</time>
      </trkpt>
      <trkpt lat="43.60132" lon="3.75902">
        <ele>96.88600064</ele>
        <time>2020-09-12T10:23:23.000Z</time>
      </trkpt>
      <trkpt lat="43.60127" lon="3.75906">
        <ele>96.68600064</ele>
        <time>2020-09-12T10:23:24.000Z</time>
      </trkpt>
      <trkpt lat="43.60123" lon="3.7591">
        <ele>96.48600064</ele>
        <time>2020-09-12T10:23:25.000Z</time>
      </trkpt>
      <trkpt lat="43.60119" lon="3.75915">
        <ele>96.28600064</ele>
        <time>2020-09-12T10:23:26.000Z</time>
      </trkpt>
      <trkpt lat="43.60114" lon="3.7592">
        <ele>96.08600064</ele>
        <time>2020-09-12T10:23:27.000Z</time>
      </trkpt>
      <trkpt lat="43.6011" lon="3.75926">
        <ele>95.94300032</ele>
        <time>2020-09-12T10:23:28.000Z</time>
      </trkpt>
      <trkpt lat="43.60106" lon="3.75932">
        <ele>95.84300032</ele>
        <time>2020-09-12T10:23:29.000Z</time>
      </trkpt>
      <trkpt lat="43.60102" lon="3.75939">
        <ele>95.74300032</ele>
        <time>2020-09-12T10:23:30.000Z</time>
      </trkpt>
      <trkpt lat="43.60099" lon="3.75946">
        <ele>95.64300032</ele>
        <time>2020-09-12T10:23:31.000Z</time>
      </trkpt>
      <trkpt lat="43.60095" lon="3.75953">
        <ele>95.54300032</ele>
        <time>2020-09-12T10:23:32.000Z</time>
      </trkpt>
      <trkpt lat="43.60092" lon="3.7596">
        <ele>95.44300032</ele>
        <time>2020-09-12T10:23:33.000Z</time>
      </trkpt>
      <trkpt lat="43.60089" lon="3.75967">
        <ele>95.34300032</ele>
        <time>2020-09-12T10:23:34.000Z</time>
      </trkpt>
      <trkpt lat="43.60087" lon="3.75974">
        <ele>95.24300032</ele>
        <time>2020-09-12T10:23:35.000Z</time>
      </trkpt>
      <trkpt lat="43.60085" lon="3.75981">
        <ele>95.14300032</ele>
        <time>2020-09-12T10:23:36.000Z</time>
      </trkpt>
      <trkpt lat="43.60083" lon="3.75989">
        <ele>95.04300032</ele>
        <time>2020-09-12T10:23:37.000Z</time>
      </trkpt>
      <trkpt lat="43.60082" lon="3.75996">
        <ele>94.94300032</ele>
        <time>2020-09-12T10:23:38.000Z</time>
      </trkpt>
      <trkpt lat="43.60081" lon="3.76004">
        <ele>94.84300032</ele>
        <time>2020-09-12T10:23:39.000Z</time>
      </trkpt>
      <trkpt lat="43.6008" lon="3.76012">
        <ele>94.74300032</ele>
        <time>2020-09-12T10:23:40.000Z</time>
      </trkpt>
      <trkpt lat="43.60079" lon="3.7602">
        <ele>94.64300032</ele>
        <time>2020-09-12T10:23:41.000Z</time>
      </trkpt>
      <trkpt lat="43.60077" lon="3.76027">
        <ele>94.54300032</ele>
        <time>2020-09-12T10:23:42.000Z</time>
      </trkpt>
      <trkpt lat="43.60074" lon="3.76033">
        <ele>94.44300032</ele>
        <time>2020-09-12T10:23:43.000Z</time>
      </trkpt>
      <trkpt lat="43.6007" lon="3.76038">
        <ele>94.34300032</ele>
        <time>2020-09-12T10:23:44.000Z</time>
      </trkpt>
      <trkpt lat="43.60067" lon="3.76043">
        <ele>94.24300032</ele>
        <time>2020-09-12T10:23:45.000Z</time>
      </trkpt>
      <trkpt lat="43.60064" lon="3.76048">
        <ele>94.14300032</ele>
        <time>2020-09-12T10:23:46.000Z</time>
      </trkpt>
      <trkpt lat="43.60062" lon="3.76054">
        <ele>94.04300032</ele>
        <time>2020-09-12T10:23:47.000Z</time>
      </trkpt>
      <trkpt lat="43.60062" lon="3.7606">
        <ele>94</ele>
        <time>2020-09-12T10:23:48.000Z</time>
      </trkpt>
      <trkpt lat="43.60062" lon="3.76067">
        <ele>94</ele>
        <time>2020-09-12T10:23:49.000Z</time>
      </trkpt>
      <trkpt lat="43.60063" lon="3.76074">
        <ele>94</ele>
        <time>2020-09-12T10:23:50.000Z</time>
      </trkpt>
      <trkpt lat="43.60064" lon="3.76081">
        <ele>94</ele>
        <time>2020-09-12T10:23:51.000Z</time>
      </trkpt>
      <trkpt lat="43.60065" lon="3.76088">
        <ele>94</ele>
        <time>2020-09-12T10:23:52.000Z</time>
      </trkpt>
      <trkpt lat="43.60066" lon="3.76095">
        <ele>94</ele>
        <time>2020-09-12T10:23:53.000Z</time>
      </trkpt>
      <trkpt lat="43.60068" lon="3.76102">
        <ele>94</ele>
        <time>2020-09-12T10:23:54.000Z</time>
      </trkpt>
      <trkpt lat="43.6007" lon="3.76108">
        <ele>94</ele>
        <time>2020-09-12T10:23:55.000Z</time>
      </trkpt>
      <trkpt lat="43.60073" lon="3.76115">
        <ele>94</ele>
        <time>2020-09-12T10:23:56.000Z</time>
      </trkpt>
      <trkpt lat="43.60075" lon="3.76122">
        <ele>94</ele>
        <time>2020-09-12T10:23:57.000Z</time>
      </trkpt>
      <trkpt lat="43.60078" lon="3.76128">
        <ele>94</ele>
        <time>2020-09-12T10:23:58.000Z</time>
      </trkpt>
      <trkpt lat="43.60081" lon="3.76133">
        <ele>94</ele>
        <time>2020-09-12T10:23:59.000Z</time>
      </trkpt>
      <trkpt lat="43.60085" lon="3.76139">
        <ele>94</ele>
        <time>2020-09-12T10:24:00.000Z</time>
      </trkpt>
      <trkpt lat="43.60089" lon="3.76144">
        <ele>94</ele>
        <time>2020-09-12T10:24:01.000Z</time>
      </trkpt>
      <trkpt lat="43.60093" lon="3.76149">
        <ele>94</ele>
        <time>2020-09-12T10:24:02.000Z</time>
      </trkpt>
      <trkpt lat="43.60097" lon="3.76154">
        <ele>94</ele>
        <time>2020-09-12T10:24:03.000Z</time>
      </trkpt>
      <trkpt lat="43.60101" lon="3.76159">
        <ele>94</ele>
        <time>2020-09-12T10:24:04.000Z</time>
      </trkpt>
      <trkpt lat="43.60105" lon="3.76164">
        <ele>94</ele>
        <time>2020-09-12T10:24:05.000Z</time>
      </trkpt>
      <trkpt lat="43.60108" lon="3.76169">
        <ele>94</ele>
        <time>2020-09-12T10:24:06.000Z</time>
      </trkpt>
      <trkpt lat="43.60112" lon="3.76174">
        <ele>94</ele>
        <time>2020-09-12T10:24:07.000Z</time>
      </trkpt>
      <trkpt lat="43.60115" lon="3.76179">
        <ele>93.94300032</ele>
        <time>2020-09-12T10:24:08.000Z</time>
      </trkpt>
      <trkpt lat="43.60118" lon="3.76184">
        <ele>93.84300032</ele>
        <time>2020-09-12T10:24:09.000Z</time>
      </trkpt>
      <trkpt lat="43.6012" lon="3.76188">
        <ele>93.74300032</ele>
        <time>2020-09-12T10:24:10.000Z</time>
      </trkpt>
      <trkpt lat="43.60123" lon="3.76192">
        <ele>93.64300032</ele>
        <time>2020-09-12T10:24:11.000Z</time>
      </trkpt>
      <trkpt lat="43.60127" lon="3.76197">
        <ele>93.54300032</ele>
        <time>2020-09-12T10:24:12.000Z</time>
      </trkpt>
      <trkpt lat="43.6013" lon="3.76202">
        <ele>93.44300032</ele>
        <time>2020-09-12T10:24:13.000Z</time>
      </trkpt>
      <trkpt lat="43.60133" lon="3.76207">
        <ele>93.34300032</ele>
        <time>2020-09-12T10:24:14.000Z</time>
      </trkpt>
      <trkpt lat="43.60137" lon="3.76213">
        <ele>93.24300032</ele>
        <time>2020-09-12T10:24:15.000Z</time>
      </trkpt>
      <trkpt lat="43.60141" lon="3.76219">
        <ele>93.14300032</ele>
        <time>2020-09-12T10:24:16.000Z</time>
      </trkpt>
      <trkpt lat="43.60143" lon="3.76226">
        <ele>93.04300032</ele>
        <time>2020-09-12T10:24:17.000Z</time>
      </trkpt>
      <trkpt lat="43.60145" lon="3.76234">
        <ele>93</ele>
        <time>2020-09-12T10:24:18.000Z</time>
      </trkpt>
      <trkpt lat="43.60147" lon="3.76242">
        <ele>93</ele>
        <time>2020-09-12T10:24:19.000Z</time>
      </trkpt>
      <trkpt lat="43.60148" lon="3.7625">
        <ele>93</ele>
        <time>2020-09-12T10:24:20.000Z</time>
      </trkpt>
      <trkpt lat="43.60149" lon="3.76258">
        <ele>93</ele>
        <time>2020-09-12T10:24:21.000Z</time>
      </trkpt>
      <trkpt lat="43.6015" lon="3.76265">
        <ele>93</ele>
        <time>2020-09-12T10:24:22.000Z</time>
      </trkpt>
      <trkpt lat="43.60151" lon="3.76272">
        <ele>93</ele>
        <time>2020-09-12T10:24:23.000Z</time>
      </trkpt>
      <trkpt lat="43.60151" lon="3.76278">
        <ele>93</ele>
        <time>2020-09-12T10:24:24.000Z</time>
      </trkpt>
      <trkpt lat="43.60151" lon="3.76282">
        <ele>93</ele>
        <time>2020-09-12T10:24:25.000Z</time>
      </trkpt>
      <trkpt lat="43.60151" lon="3.76286">
        <ele>93</ele>
        <time>2020-09-12T10:24:26.000Z</time>
      </trkpt>
      <trkpt lat="43.60151" lon="3.7629">
        <ele>93</ele>
        <time>2020-09-12T10:24:27.000Z</time>
      </trkpt>
      <trkpt lat="43.60151" lon="3.76295">
        <ele>93</ele>
        <time>2020-09-12T10:24:28.000Z</time>
      </trkpt>
      <trkpt lat="43.6015" lon="3.76301">
        <ele>93</ele>
        <time>2020-09-12T10:24:29.000Z</time>
      </trkpt>
      <trkpt lat="43.60149" lon="3.76306">
        <ele>93</ele>
        <time>2020-09-12T10:24:30.000Z</time>
      </trkpt>
      <trkpt lat="43.60148" lon="3.7631">
        <ele>93</ele>
        <time>2020-09-12T10:24:31.000Z</time>
      </trkpt>
      <trkpt lat="43.60147" lon="3.76314">
        <ele>93</ele>
        <time>2020-09-12T10:24:32.000Z</time>
      </trkpt>
      <trkpt lat="43.60146" lon="3.76318">
        <ele>93</ele>
        <time>2020-09-12T10:24:33.000Z</time>
      </trkpt>
      <trkpt lat="43.60145" lon="3.76322">
        <ele>93</ele>
        <time>2020-09-12T10:24:34.000Z</time>
      </trkpt>
      <trkpt lat="43.60144" lon="3.76325">
        <ele>93</ele>
        <time>2020-09-12T10:24:35.000Z</time>
      </trkpt>
      <trkpt lat="43.60142" lon="3.76329">
        <ele>93</ele>
        <time>2020-09-12T10:24:36.000Z</time>
      </trkpt>
      <trkpt lat="43.60141" lon="3.76333">
        <ele>93</ele>
        <time>2020-09-12T10:24:37.000Z</time>
      </trkpt>
      <trkpt lat="43.60139" lon="3.76337">
        <ele>93</ele>
        <time>2020-09-12T10:24:38.000Z</time>
      </trkpt>
      <trkpt lat="43.60138" lon="3.76341">
        <ele>93</ele>
        <time>2020-09-12T10:24:39.000Z</time>
      </trkpt>
      <trkpt lat="43.60135" lon="3.76346">
        <ele>93</ele>
        <time>2020-09-12T10:24:40.000Z</time>
      </trkpt>
      <trkpt lat="43.60133" lon="3.76351">
        <ele>93</ele>
        <time>2020-09-12T10:24:41.000Z</time>
      </trkpt>
      <trkpt lat="43.60131" lon="3.76357">
        <ele>93</ele>
        <time>2020-09-12T10:24:42.000Z</time>
      </trkpt>
      <trkpt lat="43.60129" lon="3.76363">
        <ele>93</ele>
        <time>2020-09-12T10:24:43.000Z</time>
      </trkpt>
      <trkpt lat="43.60126" lon="3.76368">
        <ele>93</ele>
        <time>2020-09-12T10:24:44.000Z</time>
      </trkpt>
      <trkpt lat="43.60123" lon="3.76375">
        <ele>93</ele>
        <time>2020-09-12T10:24:45.000Z</time>
      </trkpt>
      <trkpt lat="43.60119" lon="3.7638">
        <ele>93</ele>
        <time>2020-09-12T10:24:46.000Z</time>
      </trkpt>
      <trkpt lat="43.60116" lon="3.76387">
        <ele>93</ele>
        <time>2020-09-12T10:24:47.000Z</time>
      </trkpt>
      <trkpt lat="43.60112" lon="3.76393">
        <ele>92.944606707749</ele>
        <time>2020-09-12T10:24:48.000Z</time>
      </trkpt>
      <trkpt lat="43.60109" lon="3.76401">
        <ele>92.847424947693</ele>
        <time>2020-09-12T10:24:49.000Z</time>
      </trkpt>
      <trkpt lat="43.60106" lon="3.76409">
        <ele>92.750243187636</ele>
        <time>2020-09-12T10:24:50.000Z</time>
      </trkpt>
      <trkpt lat="43.60103" lon="3.76417">
        <ele>92.65306142758</ele>
        <time>2020-09-12T10:24:51.000Z</time>
      </trkpt>
      <trkpt lat="43.60099" lon="3.76424">
        <ele>92.555879667523</ele>
        <time>2020-09-12T10:24:52.000Z</time>
      </trkpt>
      <trkpt lat="43.60095" lon="3.76431">
        <ele>92.458697907467</ele>
        <time>2020-09-12T10:24:53.000Z</time>
      </trkpt>
      <trkpt lat="43.6009" lon="3.76439">
        <ele>92.36151614741</ele>
        <time>2020-09-12T10:24:54.000Z</time>
      </trkpt>
      <trkpt lat="43.60085" lon="3.76446">
        <ele>92.264334387354</ele>
        <time>2020-09-12T10:24:55.000Z</time>
      </trkpt>
      <trkpt lat="43.6008" lon="3.76453">
        <ele>92.167152627297</ele>
        <time>2020-09-12T10:24:56.000Z</time>
      </trkpt>
      <trkpt lat="43.60076" lon="3.7646">
        <ele>92.069970867241</ele>
        <time>2020-09-12T10:24:57.000Z</time>
      </trkpt>
      <trkpt lat="43.6007" lon="3.76466">
        <ele>91.942327516432</ele>
        <time>2020-09-12T10:24:58.000Z</time>
      </trkpt>
      <trkpt lat="43.60064" lon="3.76472">
        <ele>91.736354360831</ele>
        <time>2020-09-12T10:24:59.000Z</time>
      </trkpt>
      <trkpt lat="43.60059" lon="3.76478">
        <ele>91.53038120523</ele>
        <time>2020-09-12T10:25:00.000Z</time>
      </trkpt>
      <trkpt lat="43.60053" lon="3.76484">
        <ele>91.324408049629</ele>
        <time>2020-09-12T10:25:01.000Z</time>
      </trkpt>
      <trkpt lat="43.60047" lon="3.7649">
        <ele>91.118434894028</ele>
        <time>2020-09-12T10:25:02.000Z</time>
      </trkpt>
      <trkpt lat="43.60041" lon="3.76496">
        <ele>90.912461738427</ele>
        <time>2020-09-12T10:25:03.000Z</time>
      </trkpt>
      <trkpt lat="43.60034" lon="3.76502">
        <ele>90.706488582826</ele>
        <time>2020-09-12T10:25:04.000Z</time>
      </trkpt>
      <trkpt lat="43.60028" lon="3.76508">
        <ele>90.500515427225</ele>
        <time>2020-09-12T10:25:05.000Z</time>
      </trkpt>
      <trkpt lat="43.60021" lon="3.76514">
        <ele>90.294542271624</ele>
        <time>2020-09-12T10:25:06.000Z</time>
      </trkpt>
      <trkpt lat="43.60015" lon="3.7652">
        <ele>90.088569116022</ele>
        <time>2020-09-12T10:25:07.000Z</time>
      </trkpt>
      <trkpt lat="43.60008" lon="3.76525">
        <ele>89.889320940937</ele>
        <time>2020-09-12T10:25:08.000Z</time>
      </trkpt>
      <trkpt lat="43.60003" lon="3.76531">
        <ele>89.695146063003</ele>
        <time>2020-09-12T10:25:09.000Z</time>
      </trkpt>
      <trkpt lat="43.59997" lon="3.76538">
        <ele>89.50097118507</ele>
        <time>2020-09-12T10:25:10.000Z</time>
      </trkpt>
      <trkpt lat="43.59991" lon="3.76545">
        <ele>89.306796307136</ele>
        <time>2020-09-12T10:25:11.000Z</time>
      </trkpt>
      <trkpt lat="43.59986" lon="3.76552">
        <ele>89.112621429202</ele>
        <time>2020-09-12T10:25:12.000Z</time>
      </trkpt>
      <trkpt lat="43.5998" lon="3.76559">
        <ele>88.918446551268</ele>
        <time>2020-09-12T10:25:13.000Z</time>
      </trkpt>
      <trkpt lat="43.59976" lon="3.76567">
        <ele>88.724271673334</ele>
        <time>2020-09-12T10:25:14.000Z</time>
      </trkpt>
      <trkpt lat="43.59972" lon="3.76575">
        <ele>88.5300967954</ele>
        <time>2020-09-12T10:25:15.000Z</time>
      </trkpt>
      <trkpt lat="43.59969" lon="3.76584">
        <ele>88.335921917466</ele>
        <time>2020-09-12T10:25:16.000Z</time>
      </trkpt>
      <trkpt lat="43.59967" lon="3.76593">
        <ele>88.141747039532</ele>
        <time>2020-09-12T10:25:17.000Z</time>
      </trkpt>
      <trkpt lat="43.59964" lon="3.76602">
        <ele>87.945232652182</ele>
        <time>2020-09-12T10:25:18.000Z</time>
      </trkpt>
      <trkpt lat="43.59962" lon="3.76611">
        <ele>87.74239302725</ele>
        <time>2020-09-12T10:25:19.000Z</time>
      </trkpt>
      <trkpt lat="43.5996" lon="3.7662">
        <ele>87.539553402318</ele>
        <time>2020-09-12T10:25:20.000Z</time>
      </trkpt>
      <trkpt lat="43.59959" lon="3.76628">
        <ele>87.336713777387</ele>
        <time>2020-09-12T10:25:21.000Z</time>
      </trkpt>
      <trkpt lat="43.59958" lon="3.76637">
        <ele>87.133874152455</ele>
        <time>2020-09-12T10:25:22.000Z</time>
      </trkpt>
      <trkpt lat="43.59958" lon="3.76646">
        <ele>86.931034527523</ele>
        <time>2020-09-12T10:25:23.000Z</time>
      </trkpt>
      <trkpt lat="43.59958" lon="3.76656">
        <ele>86.728194902591</ele>
        <time>2020-09-12T10:25:24.000Z</time>
      </trkpt>
      <trkpt lat="43.59957" lon="3.76666">
        <ele>86.52535527766</ele>
        <time>2020-09-12T10:25:25.000Z</time>
      </trkpt>
      <trkpt lat="43.59956" lon="3.76677">
        <ele>86.322515652728</ele>
        <time>2020-09-12T10:25:26.000Z</time>
      </trkpt>
      <trkpt lat="43.59956" lon="3.76687">
        <ele>86.119676027797</ele>
        <time>2020-09-12T10:25:27.000Z</time>
      </trkpt>
      <trkpt lat="43.59955" lon="3.76697">
        <ele>85.87500097561</ele>
        <time>2020-09-12T10:25:28.000Z</time>
      </trkpt>
      <trkpt lat="43.59953" lon="3.76707">
        <ele>85.570122926829</ele>
        <time>2020-09-12T10:25:29.000Z</time>
      </trkpt>
      <trkpt lat="43.59952" lon="3.76717">
        <ele>85.265244878049</ele>
        <time>2020-09-12T10:25:30.000Z</time>
      </trkpt>
      <trkpt lat="43.5995" lon="3.76727">
        <ele>84.960366829268</ele>
        <time>2020-09-12T10:25:31.000Z</time>
      </trkpt>
      <trkpt lat="43.59949" lon="3.76737">
        <ele>84.655488780488</ele>
        <time>2020-09-12T10:25:32.000Z</time>
      </trkpt>
      <trkpt lat="43.59947" lon="3.76746">
        <ele>84.350610731707</ele>
        <time>2020-09-12T10:25:33.000Z</time>
      </trkpt>
      <trkpt lat="43.59944" lon="3.76756">
        <ele>84.045732682927</ele>
        <time>2020-09-12T10:25:34.000Z</time>
      </trkpt>
      <trkpt lat="43.59942" lon="3.76766">
        <ele>83.740854634146</ele>
        <time>2020-09-12T10:25:35.000Z</time>
      </trkpt>
      <trkpt lat="43.5994" lon="3.76776">
        <ele>83.435976585366</ele>
        <time>2020-09-12T10:25:36.000Z</time>
      </trkpt>
      <trkpt lat="43.59938" lon="3.76786">
        <ele>83.131098536585</ele>
        <time>2020-09-12T10:25:37.000Z</time>
      </trkpt>
      <trkpt lat="43.59936" lon="3.76795">
        <ele>82.88600064</ele>
        <time>2020-09-12T10:25:38.000Z</time>
      </trkpt>
      <trkpt lat="43.59934" lon="3.76805">
        <ele>82.68600064</ele>
        <time>2020-09-12T10:25:39.000Z</time>
      </trkpt>
      <trkpt lat="43.59932" lon="3.76814">
        <ele>82.48600064</ele>
        <time>2020-09-12T10:25:40.000Z</time>
      </trkpt>
      <trkpt lat="43.5993" lon="3.76823">
        <ele>82.28600064</ele>
        <time>2020-09-12T10:25:41.000Z</time>
      </trkpt>
      <trkpt lat="43.59928" lon="3.76832">
        <ele>82.08600064</ele>
        <time>2020-09-12T10:25:42.000Z</time>
      </trkpt>
      <trkpt lat="43.59926" lon="3.76841">
        <ele>81.88600064</ele>
        <time>2020-09-12T10:25:43.000Z</time>
      </trkpt>
      <trkpt lat="43.59923" lon="3.7685">
        <ele>81.68600064</ele>
        <time>2020-09-12T10:25:44.000Z</time>
      </trkpt>
      <trkpt lat="43.59922" lon="3.76859">
        <ele>81.48600064</ele>
        <time>2020-09-12T10:25:45.000Z</time>
      </trkpt>
      <trkpt lat="43.5992" lon="3.76868">
        <ele>81.28600064</ele>
        <time>2020-09-12T10:25:46.000Z</time>
      </trkpt>
      <trkpt lat="43.59919" lon="3.76877">
        <ele>81.08600064</ele>
        <time>2020-09-12T10:25:47.000Z</time>
      </trkpt>
      <trkpt lat="43.59918" lon="3.76885">
        <ele>80.834142592701</ele>
        <time>2020-09-12T10:25:48.000Z</time>
      </trkpt>
      <trkpt lat="43.59916" lon="3.76894">
        <ele>80.543163051589</ele>
        <time>2020-09-12T10:25:49.000Z</time>
      </trkpt>
      <trkpt lat="43.59915" lon="3.76902">
        <ele>80.252183510476</ele>
        <time>2020-09-12T10:25:50.000Z</time>
      </trkpt>
      <trkpt lat="43.59913" lon="3.76911">
        <ele>79.961203969364</ele>
        <time>2020-09-12T10:25:51.000Z</time>
      </trkpt>
      <trkpt lat="43.59911" lon="3.76919">
        <ele>79.670224428252</ele>
        <time>2020-09-12T10:25:52.000Z</time>
      </trkpt>
      <trkpt lat="43.59909" lon="3.76927">
        <ele>79.37924488714</ele>
        <time>2020-09-12T10:25:53.000Z</time>
      </trkpt>
      <trkpt lat="43.59907" lon="3.76935">
        <ele>79.088265346028</ele>
        <time>2020-09-12T10:25:54.000Z</time>
      </trkpt>
      <trkpt lat="43.59904" lon="3.76943">
        <ele>78.797285804916</ele>
        <time>2020-09-12T10:25:55.000Z</time>
      </trkpt>
      <trkpt lat="43.59901" lon="3.7695">
        <ele>78.506306263804</ele>
        <time>2020-09-12T10:25:56.000Z</time>
      </trkpt>
      <trkpt lat="43.59897" lon="3.76958">
        <ele>78.215326722692</ele>
        <time>2020-09-12T10:25:57.000Z</time>
      </trkpt>
      <trkpt lat="43.59894" lon="3.76965">
        <ele>77.946337732537</ele>
        <time>2020-09-12T10:25:58.000Z</time>
      </trkpt>
      <trkpt lat="43.59891" lon="3.76973">
        <ele>77.739939315563</ele>
        <time>2020-09-12T10:25:59.000Z</time>
      </trkpt>
      <trkpt lat="43.59888" lon="3.7698">
        <ele>77.533540898589</ele>
        <time>2020-09-12T10:26:00.000Z</time>
      </trkpt>
      <trkpt lat="43.59884" lon="3.76987">
        <ele>77.327142481616</ele>
        <time>2020-09-12T10:26:01.000Z</time>
      </trkpt>
      <trkpt lat="43.59881" lon="3.76993">
        <ele>77.120744064642</ele>
        <time>2020-09-12T10:26:02.000Z</time>
      </trkpt>
      <trkpt lat="43.59878" lon="3.76998">
        <ele>76.914345647668</ele>
        <time>2020-09-12T10:26:03.000Z</time>
      </trkpt>
      <trkpt lat="43.59874" lon="3.77004">
        <ele>76.707947230695</ele>
        <time>2020-09-12T10:26:04.000Z</time>
      </trkpt>
      <trkpt lat="43.5987" lon="3.7701">
        <ele>76.501548813721</ele>
        <time>2020-09-12T10:26:05.000Z</time>
      </trkpt>
      <trkpt lat="43.59865" lon="3.77017">
        <ele>76.295150396747</ele>
        <time>2020-09-12T10:26:06.000Z</time>
      </trkpt>
      <trkpt lat="43.59861" lon="3.77024">
        <ele>76.088751979774</ele>
        <time>2020-09-12T10:26:07.000Z</time>
      </trkpt>
      <trkpt lat="43.59856" lon="3.77031">
        <ele>75.82900096</ele>
        <time>2020-09-12T10:26:08.000Z</time>
      </trkpt>
      <trkpt lat="43.59852" lon="3.77038">
        <ele>75.52900096</ele>
        <time>2020-09-12T10:26:09.000Z</time>
      </trkpt>
      <trkpt lat="43.59847" lon="3.77045">
        <ele>75.22900096</ele>
        <time>2020-09-12T10:26:10.000Z</time>
      </trkpt>
      <trkpt lat="43.59843" lon="3.77052">
        <ele>74.92900096</ele>
        <time>2020-09-12T10:26:11.000Z</time>
      </trkpt>
      <trkpt lat="43.59838" lon="3.77058">
        <ele>74.62900096</ele>
        <time>2020-09-12T10:26:12.000Z</time>
      </trkpt>
      <trkpt lat="43.59834" lon="3.77065">
        <ele>74.32900096</ele>
        <time>2020-09-12T10:26:13.000Z</time>
      </trkpt>
      <trkpt lat="43.59829" lon="3.77071">
        <ele>74.02900096</ele>
        <time>2020-09-12T10:26:14.000Z</time>
      </trkpt>
      <trkpt lat="43.59824" lon="3.77077">
        <ele>73.72900096</ele>
        <time>2020-09-12T10:26:15.000Z</time>
      </trkpt>
      <trkpt lat="43.5982" lon="3.77083">
        <ele>73.42900096</ele>
        <time>2020-09-12T10:26:16.000Z</time>
      </trkpt>
      <trkpt lat="43.59815" lon="3.7709">
        <ele>73.12900096</ele>
        <time>2020-09-12T10:26:17.000Z</time>
      </trkpt>
      <trkpt lat="43.5981" lon="3.77096">
        <ele>72.834142592701</ele>
        <time>2020-09-12T10:26:18.000Z</time>
      </trkpt>
      <trkpt lat="43.59805" lon="3.77102">
        <ele>72.543163051589</ele>
        <time>2020-09-12T10:26:19.000Z</time>
      </trkpt>
      <trkpt lat="43.598" lon="3.77109">
        <ele>72.252183510476</ele>
        <time>2020-09-12T10:26:20.000Z</time>
      </trkpt>
      <trkpt lat="43.59794" lon="3.77115">
        <ele>71.961203969364</ele>
        <time>2020-09-12T10:26:21.000Z</time>
      </trkpt>
      <trkpt lat="43.59788" lon="3.7712">
        <ele>71.670224428252</ele>
        <time>2020-09-12T10:26:22.000Z</time>
      </trkpt>
      <trkpt lat="43.59783" lon="3.77126">
        <ele>71.37924488714</ele>
        <time>2020-09-12T10:26:23.000Z</time>
      </trkpt>
      <trkpt lat="43.59777" lon="3.77131">
        <ele>71.088265346028</ele>
        <time>2020-09-12T10:26:24.000Z</time>
      </trkpt>
      <trkpt lat="43.5977" lon="3.77137">
        <ele>70.797285804916</ele>
        <time>2020-09-12T10:26:25.000Z</time>
      </trkpt>
      <trkpt lat="43.59764" lon="3.77143">
        <ele>70.506306263804</ele>
        <time>2020-09-12T10:26:26.000Z</time>
      </trkpt>
      <trkpt lat="43.59758" lon="3.77149">
        <ele>70.215326722692</ele>
        <time>2020-09-12T10:26:27.000Z</time>
      </trkpt>
      <trkpt lat="43.59753" lon="3.77155">
        <ele>69.946337732537</ele>
        <time>2020-09-12T10:26:28.000Z</time>
      </trkpt>
      <trkpt lat="43.59747" lon="3.77161">
        <ele>69.739939315563</ele>
        <time>2020-09-12T10:26:29.000Z</time>
      </trkpt>
      <trkpt lat="43.59742" lon="3.77166">
        <ele>69.533540898589</ele>
        <time>2020-09-12T10:26:30.000Z</time>
      </trkpt>
      <trkpt lat="43.59737" lon="3.77171">
        <ele>69.327142481616</ele>
        <time>2020-09-12T10:26:31.000Z</time>
      </trkpt>
      <trkpt lat="43.59733" lon="3.77174">
        <ele>69.120744064642</ele>
        <time>2020-09-12T10:26:32.000Z</time>
      </trkpt>
      <trkpt lat="43.5973" lon="3.77178">
        <ele>68.914345647668</ele>
        <time>2020-09-12T10:26:33.000Z</time>
      </trkpt>
      <trkpt lat="43.59729" lon="3.77182">
        <ele>68.707947230695</ele>
        <time>2020-09-12T10:26:34.000Z</time>
      </trkpt>
      <trkpt lat="43.5973" lon="3.77185">
        <ele>68.501548813721</ele>
        <time>2020-09-12T10:26:35.000Z</time>
      </trkpt>
      <trkpt lat="43.59732" lon="3.77188">
        <ele>68.295150396747</ele>
        <time>2020-09-12T10:26:36.000Z</time>
      </trkpt>
      <trkpt lat="43.59734" lon="3.77191">
        <ele>68.088751979774</ele>
        <time>2020-09-12T10:26:37.000Z</time>
      </trkpt>
      <trkpt lat="43.59738" lon="3.77194">
        <ele>68</ele>
        <time>2020-09-12T10:26:38.000Z</time>
      </trkpt>
      <trkpt lat="43.59741" lon="3.77196">
        <ele>68</ele>
        <time>2020-09-12T10:26:39.000Z</time>
      </trkpt>
      <trkpt lat="43.59745" lon="3.772">
        <ele>68</ele>
        <time>2020-09-12T10:26:40.000Z</time>
      </trkpt>
      <trkpt lat="43.59748" lon="3.77203">
        <ele>68</ele>
        <time>2020-09-12T10:26:41.000Z</time>
      </trkpt>
      <trkpt lat="43.59752" lon="3.77206">
        <ele>68</ele>
        <time>2020-09-12T10:26:42.000Z</time>
      </trkpt>
      <trkpt lat="43.59755" lon="3.7721">
        <ele>68</ele>
        <time>2020-09-12T10:26:43.000Z</time>
      </trkpt>
      <trkpt lat="43.59759" lon="3.77213">
        <ele>68</ele>
        <time>2020-09-12T10:26:44.000Z</time>
      </trkpt>
      <trkpt lat="43.59762" lon="3.77217">
        <ele>68</ele>
        <time>2020-09-12T10:26:45.000Z</time>
      </trkpt>
      <trkpt lat="43.59766" lon="3.77221">
        <ele>68</ele>
        <time>2020-09-12T10:26:46.000Z</time>
      </trkpt>
      <trkpt lat="43.59769" lon="3.77225">
        <ele>68</ele>
        <time>2020-09-12T10:26:47.000Z</time>
      </trkpt>
      <trkpt lat="43.59773" lon="3.77229">
        <ele>68</ele>
        <time>2020-09-12T10:26:48.000Z</time>
      </trkpt>
      <trkpt lat="43.59776" lon="3.77232">
        <ele>68</ele>
        <time>2020-09-12T10:26:49.000Z</time>
      </trkpt>
      <trkpt lat="43.5978" lon="3.77235">
        <ele>68</ele>
        <time>2020-09-12T10:26:50.000Z</time>
      </trkpt>
      <trkpt lat="43.59784" lon="3.77238">
        <ele>68</ele>
        <time>2020-09-12T10:26:51.000Z</time>
      </trkpt>
      <trkpt lat="43.59788" lon="3.77242">
        <ele>68</ele>
        <time>2020-09-12T10:26:52.000Z</time>
      </trkpt>
      <trkpt lat="43.59792" lon="3.77245">
        <ele>68</ele>
        <time>2020-09-12T10:26:53.000Z</time>
      </trkpt>
      <trkpt lat="43.59796" lon="3.77248">
        <ele>68</ele>
        <time>2020-09-12T10:26:54.000Z</time>
      </trkpt>
      <trkpt lat="43.598" lon="3.77251">
        <ele>68</ele>
        <time>2020-09-12T10:26:55.000Z</time>
      </trkpt>
      <trkpt lat="43.59804" lon="3.77254">
        <ele>68</ele>
        <time>2020-09-12T10:26:56.000Z</time>
      </trkpt>
      <trkpt lat="43.59808" lon="3.77257">
        <ele>68</ele>
        <time>2020-09-12T10:26:57.000Z</time>
      </trkpt>
      <trkpt lat="43.59811" lon="3.7726">
        <ele>68</ele>
        <time>2020-09-12T10:26:58.000Z</time>
      </trkpt>
      <trkpt lat="43.59815" lon="3.77263">
        <ele>68</ele>
        <time>2020-09-12T10:26:59.000Z</time>
      </trkpt>
      <trkpt lat="43.59819" lon="3.77266">
        <ele>68</ele>
        <time>2020-09-12T10:27:00.000Z</time>
      </trkpt>
      <trkpt lat="43.59823" lon="3.77269">
        <ele>68</ele>
        <time>2020-09-12T10:27:01.000Z</time>
      </trkpt>
      <trkpt lat="43.59826" lon="3.77272">
        <ele>68</ele>
        <time>2020-09-12T10:27:02.000Z</time>
      </trkpt>
      <trkpt lat="43.5983" lon="3.77274">
        <ele>68</ele>
        <time>2020-09-12T10:27:03.000Z</time>
      </trkpt>
      <trkpt lat="43.59834" lon="3.77277">
        <ele>68</ele>
        <time>2020-09-12T10:27:04.000Z</time>
      </trkpt>
      <trkpt lat="43.59837" lon="3.77279">
        <ele>68</ele>
        <time>2020-09-12T10:27:05.000Z</time>
      </trkpt>
      <trkpt lat="43.59841" lon="3.77282">
        <ele>68</ele>
        <time>2020-09-12T10:27:06.000Z</time>
      </trkpt>
      <trkpt lat="43.59844" lon="3.77284">
        <ele>68</ele>
        <time>2020-09-12T10:27:07.000Z</time>
      </trkpt>
      <trkpt lat="43.59847" lon="3.77286">
        <ele>68.05699968</ele>
        <time>2020-09-12T10:27:08.000Z</time>
      </trkpt>
      <trkpt lat="43.59851" lon="3.77287">
        <ele>68.15699968</ele>
        <time>2020-09-12T10:27:09.000Z</time>
      </trkpt>
      <trkpt lat="43.59854" lon="3.77289">
        <ele>68.25699968</ele>
        <time>2020-09-12T10:27:10.000Z</time>
      </trkpt>
      <trkpt lat="43.59856" lon="3.77293">
        <ele>68.35699968</ele>
        <time>2020-09-12T10:27:11.000Z</time>
      </trkpt>
      <trkpt lat="43.59858" lon="3.77297">
        <ele>68.45699968</ele>
        <time>2020-09-12T10:27:12.000Z</time>
      </trkpt>
      <trkpt lat="43.5986" lon="3.77301">
        <ele>68.55699968</ele>
        <time>2020-09-12T10:27:13.000Z</time>
      </trkpt>
      <trkpt lat="43.59862" lon="3.77305">
        <ele>68.65699968</ele>
        <time>2020-09-12T10:27:14.000Z</time>
      </trkpt>
      <trkpt lat="43.59865" lon="3.77308">
        <ele>68.75699968</ele>
        <time>2020-09-12T10:27:15.000Z</time>
      </trkpt>
      <trkpt lat="43.59867" lon="3.77312">
        <ele>68.85699968</ele>
        <time>2020-09-12T10:27:16.000Z</time>
      </trkpt>
      <trkpt lat="43.59869" lon="3.77315">
        <ele>68.95699968</ele>
        <time>2020-09-12T10:27:17.000Z</time>
      </trkpt>
      <trkpt lat="43.59872" lon="3.77319">
        <ele>69</ele>
        <time>2020-09-12T10:27:18.000Z</time>
      </trkpt>
      <trkpt lat="43.59874" lon="3.77322">
        <ele>69</ele>
        <time>2020-09-12T10:27:19.000Z</time>
      </trkpt>
      <trkpt lat="43.59877" lon="3.77325">
        <ele>69</ele>
        <time>2020-09-12T10:27:20.000Z</time>
      </trkpt>
      <trkpt lat="43.59879" lon="3.77328">
        <ele>69</ele>
        <time>2020-09-12T10:27:21.000Z</time>
      </trkpt>
      <trkpt lat="43.59882" lon="3.77331">
        <ele>69</ele>
        <time>2020-09-12T10:27:22.000Z</time>
      </trkpt>
      <trkpt lat="43.59884" lon="3.77334">
        <ele>69</ele>
        <time>2020-09-12T10:27:23.000Z</time>
      </trkpt>
      <trkpt lat="43.59887" lon="3.77337">
        <ele>69</ele>
        <time>2020-09-12T10:27:24.000Z</time>
      </trkpt>
      <trkpt lat="43.59889" lon="3.77341">
        <ele>69</ele>
        <time>2020-09-12T10:27:25.000Z</time>
      </trkpt>
      <trkpt lat="43.59891" lon="3.77344">
        <ele>69</ele>
        <time>2020-09-12T10:27:26.000Z</time>
      </trkpt>
      <trkpt lat="43.59894" lon="3.77348">
        <ele>69</ele>
        <time>2020-09-12T10:27:27.000Z</time>
      </trkpt>
      <trkpt lat="43.59896" lon="3.77351">
        <ele>69</ele>
        <time>2020-09-12T10:27:28.000Z</time>
      </trkpt>
      <trkpt lat="43.59899" lon="3.77354">
        <ele>69</ele>
        <time>2020-09-12T10:27:29.000Z</time>
      </trkpt>
      <trkpt lat="43.59902" lon="3.77357">
        <ele>69</ele>
        <time>2020-09-12T10:27:30.000Z</time>
      </trkpt>
      <trkpt lat="43.59905" lon="3.77361">
        <ele>69</ele>
        <time>2020-09-12T10:27:31.000Z</time>
      </trkpt>
      <trkpt lat="43.59907" lon="3.77365">
        <ele>69</ele>
        <time>2020-09-12T10:27:32.000Z</time>
      </trkpt>
      <trkpt lat="43.5991" lon="3.77369">
        <ele>69</ele>
        <time>2020-09-12T10:27:33.000Z</time>
      </trkpt>
      <trkpt lat="43.59913" lon="3.77373">
        <ele>69</ele>
        <time>2020-09-12T10:27:34.000Z</time>
      </trkpt>
      <trkpt lat="43.59916" lon="3.77377">
        <ele>69</ele>
        <time>2020-09-12T10:27:35.000Z</time>
      </trkpt>
      <trkpt lat="43.59919" lon="3.77381">
        <ele>69</ele>
        <time>2020-09-12T10:27:36.000Z</time>
      </trkpt>
      <trkpt lat="43.59922" lon="3.77385">
        <ele>69</ele>
        <time>2020-09-12T10:27:37.000Z</time>
      </trkpt>
      <trkpt lat="43.59926" lon="3.77389">
        <ele>69</ele>
        <time>2020-09-12T10:27:38.000Z</time>
      </trkpt>
      <trkpt lat="43.59929" lon="3.77393">
        <ele>69</ele>
        <time>2020-09-12T10:27:39.000Z</time>
      </trkpt>
      <trkpt lat="43.59932" lon="3.77397">
        <ele>69</ele>
        <time>2020-09-12T10:27:40.000Z</time>
      </trkpt>
      <trkpt lat="43.59935" lon="3.77401">
        <ele>69</ele>
        <time>2020-09-12T10:27:41.000Z</time>
      </trkpt>
      <trkpt lat="43.59938" lon="3.77404">
        <ele>69</ele>
        <time>2020-09-12T10:27:42.000Z</time>
      </trkpt>
      <trkpt lat="43.59941" lon="3.77407">
        <ele>69</ele>
        <time>2020-09-12T10:27:43.000Z</time>
      </trkpt>
      <trkpt lat="43.59943" lon="3.7741">
        <ele>69</ele>
        <time>2020-09-12T10:27:44.000Z</time>
      </trkpt>
      <trkpt lat="43.59946" lon="3.77413">
        <ele>69</ele>
        <time>2020-09-12T10:27:45.000Z</time>
      </trkpt>
      <trkpt lat="43.59949" lon="3.77416">
        <ele>69</ele>
        <time>2020-09-12T10:27:46.000Z</time>
      </trkpt>
      <trkpt lat="43.59953" lon="3.77419">
        <ele>69</ele>
        <time>2020-09-12T10:27:47.000Z</time>
      </trkpt>
      <trkpt lat="43.59956" lon="3.77421">
        <ele>68.94300032</ele>
        <time>2020-09-12T10:27:48.000Z</time>
      </trkpt>
      <trkpt lat="43.59959" lon="3.77424">
        <ele>68.84300032</ele>
        <time>2020-09-12T10:27:49.000Z</time>
      </trkpt>
      <trkpt lat="43.59962" lon="3.77426">
        <ele>68.74300032</ele>
        <time>2020-09-12T10:27:50.000Z</time>
      </trkpt>
      <trkpt lat="43.59966" lon="3.77429">
        <ele>68.64300032</ele>
        <time>2020-09-12T10:27:51.000Z</time>
      </trkpt>
      <trkpt lat="43.59971" lon="3.77432">
        <ele>68.54300032</ele>
        <time>2020-09-12T10:27:52.000Z</time>
      </trkpt>
      <trkpt lat="43.59976" lon="3.77436">
        <ele>68.44300032</ele>
        <time>2020-09-12T10:27:53.000Z</time>
      </trkpt>
      <trkpt lat="43.59982" lon="3.77441">
        <ele>68.34300032</ele>
        <time>2020-09-12T10:27:54.000Z</time>
      </trkpt>
      <trkpt lat="43.59987" lon="3.77446">
        <ele>68.24300032</ele>
        <time>2020-09-12T10:27:55.000Z</time>
      </trkpt>
      <trkpt lat="43.59992" lon="3.77451">
        <ele>68.14300032</ele>
        <time>2020-09-12T10:27:56.000Z</time>
      </trkpt>
      <trkpt lat="43.59998" lon="3.77456">
        <ele>68.04300032</ele>
        <time>2020-09-12T10:27:57.000Z</time>
      </trkpt>
      <trkpt lat="43.60003" lon="3.77462">
        <ele>67.889105680934</ele>
        <time>2020-09-12T10:27:58.000Z</time>
      </trkpt>
      <trkpt lat="43.60009" lon="3.77468">
        <ele>67.694553151751</ele>
        <time>2020-09-12T10:27:59.000Z</time>
      </trkpt>
      <trkpt lat="43.60015" lon="3.77474">
        <ele>67.500000622568</ele>
        <time>2020-09-12T10:28:00.000Z</time>
      </trkpt>
      <trkpt lat="43.60021" lon="3.77479">
        <ele>67.305448093385</ele>
        <time>2020-09-12T10:28:01.000Z</time>
      </trkpt>
      <trkpt lat="43.60027" lon="3.77484">
        <ele>67.110895564202</ele>
        <time>2020-09-12T10:28:02.000Z</time>
      </trkpt>
      <trkpt lat="43.60033" lon="3.77489">
        <ele>66.916343035019</ele>
        <time>2020-09-12T10:28:03.000Z</time>
      </trkpt>
      <trkpt lat="43.60039" lon="3.77493">
        <ele>66.721790505837</ele>
        <time>2020-09-12T10:28:04.000Z</time>
      </trkpt>
      <trkpt lat="43.60045" lon="3.77497">
        <ele>66.527237976654</ele>
        <time>2020-09-12T10:28:05.000Z</time>
      </trkpt>
      <trkpt lat="43.60051" lon="3.77501">
        <ele>66.332685447471</ele>
        <time>2020-09-12T10:28:06.000Z</time>
      </trkpt>
      <trkpt lat="43.60056" lon="3.77504">
        <ele>66.138132918288</ele>
        <time>2020-09-12T10:28:07.000Z</time>
      </trkpt>
      <trkpt lat="43.60062" lon="3.77507">
        <ele>65.911225469388</ele>
        <time>2020-09-12T10:28:08.000Z</time>
      </trkpt>
      <trkpt lat="43.60066" lon="3.77511">
        <ele>65.605103020408</ele>
        <time>2020-09-12T10:28:09.000Z</time>
      </trkpt>
      <trkpt lat="43.6007" lon="3.77517">
        <ele>65.298980571429</ele>
        <time>2020-09-12T10:28:10.000Z</time>
      </trkpt>
      <trkpt lat="43.60073" lon="3.77523">
        <ele>64.992858122449</ele>
        <time>2020-09-12T10:28:11.000Z</time>
      </trkpt>
      <trkpt lat="43.60076" lon="3.77531">
        <ele>64.686735673469</ele>
        <time>2020-09-12T10:28:12.000Z</time>
      </trkpt>
      <trkpt lat="43.60078" lon="3.77538">
        <ele>64.38061322449</ele>
        <time>2020-09-12T10:28:13.000Z</time>
      </trkpt>
      <trkpt lat="43.6008" lon="3.77546">
        <ele>64.07449077551</ele>
        <time>2020-09-12T10:28:14.000Z</time>
      </trkpt>
      <trkpt lat="43.60084" lon="3.77554">
        <ele>63.768368326531</ele>
        <time>2020-09-12T10:28:15.000Z</time>
      </trkpt>
      <trkpt lat="43.60088" lon="3.77562">
        <ele>63.462245877551</ele>
        <time>2020-09-12T10:28:16.000Z</time>
      </trkpt>
      <trkpt lat="43.60092" lon="3.77569">
        <ele>63.156123428571</ele>
        <time>2020-09-12T10:28:17.000Z</time>
      </trkpt>
      <trkpt lat="43.60098" lon="3.77576">
        <ele>62.802420645161</ele>
        <time>2020-09-12T10:28:18.000Z</time>
      </trkpt>
      <trkpt lat="43.60103" lon="3.77583">
        <ele>62.39919483871</ele>
        <time>2020-09-12T10:28:19.000Z</time>
      </trkpt>
      <trkpt lat="43.60109" lon="3.7759">
        <ele>61.995969032258</ele>
        <time>2020-09-12T10:28:20.000Z</time>
      </trkpt>
      <trkpt lat="43.60115" lon="3.77597">
        <ele>61.592743225807</ele>
        <time>2020-09-12T10:28:21.000Z</time>
      </trkpt>
      <trkpt lat="43.60121" lon="3.77603">
        <ele>61.189517419355</ele>
        <time>2020-09-12T10:28:22.000Z</time>
      </trkpt>
      <trkpt lat="43.60127" lon="3.7761">
        <ele>60.786291612903</ele>
        <time>2020-09-12T10:28:23.000Z</time>
      </trkpt>
      <trkpt lat="43.60133" lon="3.77617">
        <ele>60.383065806452</ele>
        <time>2020-09-12T10:28:24.000Z</time>
      </trkpt>
      <trkpt lat="43.60139" lon="3.77623">
        <ele>59.97984</ele>
        <time>2020-09-12T10:28:25.000Z</time>
      </trkpt>
      <trkpt lat="43.60144" lon="3.7763">
        <ele>59.576614193548</ele>
        <time>2020-09-12T10:28:26.000Z</time>
      </trkpt>
      <trkpt lat="43.6015" lon="3.77636">
        <ele>59.173388387097</ele>
        <time>2020-09-12T10:28:27.000Z</time>
      </trkpt>
      <trkpt lat="43.60156" lon="3.77641">
        <ele>58.889428395134</ele>
        <time>2020-09-12T10:28:28.000Z</time>
      </trkpt>
      <trkpt lat="43.60163" lon="3.77645">
        <ele>58.695442034392</ele>
        <time>2020-09-12T10:28:29.000Z</time>
      </trkpt>
      <trkpt lat="43.60169" lon="3.77649">
        <ele>58.501455673651</ele>
        <time>2020-09-12T10:28:30.000Z</time>
      </trkpt>
      <trkpt lat="43.60176" lon="3.77653">
        <ele>58.30746931291</ele>
        <time>2020-09-12T10:28:31.000Z</time>
      </trkpt>
      <trkpt lat="43.60182" lon="3.77657">
        <ele>58.113482952168</ele>
        <time>2020-09-12T10:28:32.000Z</time>
      </trkpt>
      <trkpt lat="43.60188" lon="3.77661">
        <ele>57.919496591427</ele>
        <time>2020-09-12T10:28:33.000Z</time>
      </trkpt>
      <trkpt lat="43.60194" lon="3.77665">
        <ele>57.725510230686</ele>
        <time>2020-09-12T10:28:34.000Z</time>
      </trkpt>
      <trkpt lat="43.602" lon="3.77669">
        <ele>57.531523869944</ele>
        <time>2020-09-12T10:28:35.000Z</time>
      </trkpt>
      <trkpt lat="43.60206" lon="3.77672">
        <ele>57.337537509203</ele>
        <time>2020-09-12T10:28:36.000Z</time>
      </trkpt>
      <trkpt lat="43.60212" lon="3.77676">
        <ele>57.143551148461</ele>
        <time>2020-09-12T10:28:37.000Z</time>
      </trkpt>
      <trkpt lat="43.60218" lon="3.7768">
        <ele>56.973168866268</ele>
        <time>2020-09-12T10:28:38.000Z</time>
      </trkpt>
      <trkpt lat="43.60225" lon="3.77683">
        <ele>56.869969657782</ele>
        <time>2020-09-12T10:28:39.000Z</time>
      </trkpt>
      <trkpt lat="43.60231" lon="3.77687">
        <ele>56.766770449295</ele>
        <time>2020-09-12T10:28:40.000Z</time>
      </trkpt>
      <trkpt lat="43.60237" lon="3.7769">
        <ele>56.663571240808</ele>
        <time>2020-09-12T10:28:41.000Z</time>
      </trkpt>
      <trkpt lat="43.60243" lon="3.77694">
        <ele>56.560372032321</ele>
        <time>2020-09-12T10:28:42.000Z</time>
      </trkpt>
      <trkpt lat="43.60249" lon="3.77697">
        <ele>56.457172823834</ele>
        <time>2020-09-12T10:28:43.000Z</time>
      </trkpt>
      <trkpt lat="43.60255" lon="3.777">
        <ele>56.353973615347</ele>
        <time>2020-09-12T10:28:44.000Z</time>
      </trkpt>
      <trkpt lat="43.60261" lon="3.77703">
        <ele>56.250774406861</ele>
        <time>2020-09-12T10:28:45.000Z</time>
      </trkpt>
      <trkpt lat="43.60267" lon="3.77706">
        <ele>56.147575198374</ele>
        <time>2020-09-12T10:28:46.000Z</time>
      </trkpt>
      <trkpt lat="43.60274" lon="3.77709">
        <ele>56.044375989887</ele>
        <time>2020-09-12T10:28:47.000Z</time>
      </trkpt>
      <trkpt lat="43.6028" lon="3.77712">
        <ele>55.88600064</ele>
        <time>2020-09-12T10:28:48.000Z</time>
      </trkpt>
      <trkpt lat="43.60286" lon="3.77714">
        <ele>55.68600064</ele>
        <time>2020-09-12T10:28:49.000Z</time>
      </trkpt>
      <trkpt lat="43.60292" lon="3.77717">
        <ele>55.48600064</ele>
        <time>2020-09-12T10:28:50.000Z</time>
      </trkpt>
      <trkpt lat="43.60299" lon="3.7772">
        <ele>55.28600064</ele>
        <time>2020-09-12T10:28:51.000Z</time>
      </trkpt>
      <trkpt lat="43.60305" lon="3.77722">
        <ele>55.08600064</ele>
        <time>2020-09-12T10:28:52.000Z</time>
      </trkpt>
      <trkpt lat="43.60311" lon="3.77725">
        <ele>54.88600064</ele>
        <time>2020-09-12T10:28:53.000Z</time>
      </trkpt>
      <trkpt lat="43.60318" lon="3.77728">
        <ele>54.68600064</ele>
        <time>2020-09-12T10:28:54.000Z</time>
      </trkpt>
      <trkpt lat="43.60324" lon="3.77731">
        <ele>54.48600064</ele>
        <time>2020-09-12T10:28:55.000Z</time>
      </trkpt>
      <trkpt lat="43.60331" lon="3.77734">
        <ele>54.28600064</ele>
        <time>2020-09-12T10:28:56.000Z</time>
      </trkpt>
      <trkpt lat="43.60338" lon="3.77738">
        <ele>54.08600064</ele>
        <time>2020-09-12T10:28:57.000Z</time>
      </trkpt>
      <trkpt lat="43.60345" lon="3.77742">
        <ele>54.055285802433</ele>
        <time>2020-09-12T10:28:58.000Z</time>
      </trkpt>
      <trkpt lat="43.60352" lon="3.77745">
        <ele>54.152278982804</ele>
        <time>2020-09-12T10:28:59.000Z</time>
      </trkpt>
      <trkpt lat="43.60359" lon="3.77746">
        <ele>54.249272163175</ele>
        <time>2020-09-12T10:29:00.000Z</time>
      </trkpt>
      <trkpt lat="43.60366" lon="3.77746">
        <ele>54.346265343545</ele>
        <time>2020-09-12T10:29:01.000Z</time>
      </trkpt>
      <trkpt lat="43.60374" lon="3.77748">
        <ele>54.443258523916</ele>
        <time>2020-09-12T10:29:02.000Z</time>
      </trkpt>
      <trkpt lat="43.6038" lon="3.77751">
        <ele>54.540251704287</ele>
        <time>2020-09-12T10:29:03.000Z</time>
      </trkpt>
      <trkpt lat="43.60386" lon="3.77756">
        <ele>54.637244884657</ele>
        <time>2020-09-12T10:29:04.000Z</time>
      </trkpt>
      <trkpt lat="43.6039" lon="3.77762">
        <ele>54.734238065028</ele>
        <time>2020-09-12T10:29:05.000Z</time>
      </trkpt>
      <trkpt lat="43.60395" lon="3.77768">
        <ele>54.831231245399</ele>
        <time>2020-09-12T10:29:06.000Z</time>
      </trkpt>
      <trkpt lat="43.60399" lon="3.77774">
        <ele>54.928224425769</ele>
        <time>2020-09-12T10:29:07.000Z</time>
      </trkpt>
      <trkpt lat="43.60402" lon="3.77779">
        <ele>55.052102959264</ele>
        <time>2020-09-12T10:29:08.000Z</time>
      </trkpt>
      <trkpt lat="43.60406" lon="3.77784">
        <ele>55.252503889381</ele>
        <time>2020-09-12T10:29:09.000Z</time>
      </trkpt>
      <trkpt lat="43.6041" lon="3.77789">
        <ele>55.452904819498</ele>
        <time>2020-09-12T10:29:10.000Z</time>
      </trkpt>
      <trkpt lat="43.60413" lon="3.77794">
        <ele>55.653305749615</ele>
        <time>2020-09-12T10:29:11.000Z</time>
      </trkpt>
      <trkpt lat="43.60417" lon="3.77798">
        <ele>55.853706679732</ele>
        <time>2020-09-12T10:29:12.000Z</time>
      </trkpt>
      <trkpt lat="43.6042" lon="3.77803">
        <ele>56.054107609849</ele>
        <time>2020-09-12T10:29:13.000Z</time>
      </trkpt>
      <trkpt lat="43.60423" lon="3.77807">
        <ele>56.254508539965</ele>
        <time>2020-09-12T10:29:14.000Z</time>
      </trkpt>
      <trkpt lat="43.60426" lon="3.77811">
        <ele>56.454909470082</ele>
        <time>2020-09-12T10:29:15.000Z</time>
      </trkpt>
      <trkpt lat="43.60429" lon="3.77815">
        <ele>56.655310400199</ele>
        <time>2020-09-12T10:29:16.000Z</time>
      </trkpt>
      <trkpt lat="43.60432" lon="3.77819">
        <ele>56.855711330316</ele>
        <time>2020-09-12T10:29:17.000Z</time>
      </trkpt>
      <trkpt lat="43.60434" lon="3.77823">
        <ele>57.028717939293</ele>
        <time>2020-09-12T10:29:18.000Z</time>
      </trkpt>
      <trkpt lat="43.60437" lon="3.77826">
        <ele>57.131282008195</ele>
        <time>2020-09-12T10:29:19.000Z</time>
      </trkpt>
      <trkpt lat="43.6044" lon="3.7783">
        <ele>57.233846077097</ele>
        <time>2020-09-12T10:29:20.000Z</time>
      </trkpt>
      <trkpt lat="43.60442" lon="3.77834">
        <ele>57.336410145999</ele>
        <time>2020-09-12T10:29:21.000Z</time>
      </trkpt>
      <trkpt lat="43.60444" lon="3.77838">
        <ele>57.438974214901</ele>
        <time>2020-09-12T10:29:22.000Z</time>
      </trkpt>
      <trkpt lat="43.60446" lon="3.77841">
        <ele>57.541538283803</ele>
        <time>2020-09-12T10:29:23.000Z</time>
      </trkpt>
      <trkpt lat="43.60449" lon="3.77845">
        <ele>57.644102352705</ele>
        <time>2020-09-12T10:29:24.000Z</time>
      </trkpt>
      <trkpt lat="43.60451" lon="3.77848">
        <ele>57.746666421607</ele>
        <time>2020-09-12T10:29:25.000Z</time>
      </trkpt>
      <trkpt lat="43.60453" lon="3.77851">
        <ele>57.849230490509</ele>
        <time>2020-09-12T10:29:26.000Z</time>
      </trkpt>
      <trkpt lat="43.60455" lon="3.77855">
        <ele>57.951794559411</ele>
        <time>2020-09-12T10:29:27.000Z</time>
      </trkpt>
      <trkpt lat="43.60457" lon="3.77859">
        <ele>58.106425060241</ele>
        <time>2020-09-12T10:29:28.000Z</time>
      </trkpt>
      <trkpt lat="43.6046" lon="3.77862">
        <ele>58.307228273092</ele>
        <time>2020-09-12T10:29:29.000Z</time>
      </trkpt>
      <trkpt lat="43.60462" lon="3.77866">
        <ele>58.508031485944</ele>
        <time>2020-09-12T10:29:30.000Z</time>
      </trkpt>
      <trkpt lat="43.60464" lon="3.7787">
        <ele>58.708834698795</ele>
        <time>2020-09-12T10:29:31.000Z</time>
      </trkpt>
      <trkpt lat="43.60466" lon="3.77874">
        <ele>58.909637911647</ele>
        <time>2020-09-12T10:29:32.000Z</time>
      </trkpt>
      <trkpt lat="43.60468" lon="3.77877">
        <ele>59.110441124498</ele>
        <time>2020-09-12T10:29:33.000Z</time>
      </trkpt>
      <trkpt lat="43.6047" lon="3.77881">
        <ele>59.311244337349</ele>
        <time>2020-09-12T10:29:34.000Z</time>
      </trkpt>
      <trkpt lat="43.60473" lon="3.77885">
        <ele>59.512047550201</ele>
        <time>2020-09-12T10:29:35.000Z</time>
      </trkpt>
      <trkpt lat="43.60475" lon="3.77889">
        <ele>59.712850763052</ele>
        <time>2020-09-12T10:29:36.000Z</time>
      </trkpt>
      <trkpt lat="43.60477" lon="3.77893">
        <ele>59.913653975904</ele>
        <time>2020-09-12T10:29:37.000Z</time>
      </trkpt>
      <trkpt lat="43.60479" lon="3.77897">
        <ele>60.056942755466</ele>
        <time>2020-09-12T10:29:38.000Z</time>
      </trkpt>
      <trkpt lat="43.60482" lon="3.779">
        <ele>60.156842887302</ele>
        <time>2020-09-12T10:29:39.000Z</time>
      </trkpt>
      <trkpt lat="43.60484" lon="3.77904">
        <ele>60.256743019139</ele>
        <time>2020-09-12T10:29:40.000Z</time>
      </trkpt>
      <trkpt lat="43.60486" lon="3.77908">
        <ele>60.356643150975</ele>
        <time>2020-09-12T10:29:41.000Z</time>
      </trkpt>
      <trkpt lat="43.60488" lon="3.77912">
        <ele>60.456543282811</ele>
        <time>2020-09-12T10:29:42.000Z</time>
      </trkpt>
      <trkpt lat="43.60491" lon="3.77917">
        <ele>60.556443414647</ele>
        <time>2020-09-12T10:29:43.000Z</time>
      </trkpt>
      <trkpt lat="43.60493" lon="3.77921">
        <ele>60.656343546483</ele>
        <time>2020-09-12T10:29:44.000Z</time>
      </trkpt>
      <trkpt lat="43.60496" lon="3.77925">
        <ele>60.75624367832</ele>
        <time>2020-09-12T10:29:45.000Z</time>
      </trkpt>
      <trkpt lat="43.60498" lon="3.7793">
        <ele>60.856143810156</ele>
        <time>2020-09-12T10:29:46.000Z</time>
      </trkpt>
      <trkpt lat="43.60501" lon="3.77934">
        <ele>60.956043941992</ele>
        <time>2020-09-12T10:29:47.000Z</time>
      </trkpt>
      <trkpt lat="43.60504" lon="3.77938">
        <ele>61</ele>
        <time>2020-09-12T10:29:48.000Z</time>
      </trkpt>
      <trkpt lat="43.60507" lon="3.77942">
        <ele>61</ele>
        <time>2020-09-12T10:29:49.000Z</time>
      </trkpt>
      <trkpt lat="43.6051" lon="3.77945">
        <ele>61</ele>
        <time>2020-09-12T10:29:50.000Z</time>
      </trkpt>
      <trkpt lat="43.60513" lon="3.77948">
        <ele>61</ele>
        <time>2020-09-12T10:29:51.000Z</time>
      </trkpt>
      <trkpt lat="43.60517" lon="3.77952">
        <ele>61</ele>
        <time>2020-09-12T10:29:52.000Z</time>
      </trkpt>
      <trkpt lat="43.6052" lon="3.77956">
        <ele>61</ele>
        <time>2020-09-12T10:29:53.000Z</time>
      </trkpt>
      <trkpt lat="43.60523" lon="3.7796">
        <ele>61</ele>
        <time>2020-09-12T10:29:54.000Z</time>
      </trkpt>
      <trkpt lat="43.60527" lon="3.77963">
        <ele>61</ele>
        <time>2020-09-12T10:29:55.000Z</time>
      </trkpt>
      <trkpt lat="43.6053" lon="3.77967">
        <ele>61</ele>
        <time>2020-09-12T10:29:56.000Z</time>
      </trkpt>
      <trkpt lat="43.60533" lon="3.7797">
        <ele>61</ele>
        <time>2020-09-12T10:29:57.000Z</time>
      </trkpt>
      <trkpt lat="43.60536" lon="3.77974">
        <ele>61</ele>
        <time>2020-09-12T10:29:58.000Z</time>
      </trkpt>
      <trkpt lat="43.60539" lon="3.77977">
        <ele>61</ele>
        <time>2020-09-12T10:29:59.000Z</time>
      </trkpt>
      <trkpt lat="43.60542" lon="3.7798">
        <ele>61</ele>
        <time>2020-09-12T10:30:00.000Z</time>
      </trkpt>
      <trkpt lat="43.60545" lon="3.77983">
        <ele>61</ele>
        <time>2020-09-12T10:30:01.000Z</time>
      </trkpt>
      <trkpt lat="43.60548" lon="3.77987">
        <ele>61</ele>
        <time>2020-09-12T10:30:02.000Z</time>
      </trkpt>
      <trkpt lat="43.6055" lon="3.7799">
        <ele>61</ele>
        <time>2020-09-12T10:30:03.000Z</time>
      </trkpt>
      <trkpt lat="43.60553" lon="3.77993">
        <ele>61</ele>
        <time>2020-09-12T10:30:04.000Z</time>
      </trkpt>
      <trkpt lat="43.60556" lon="3.77996">
        <ele>61</ele>
        <time>2020-09-12T10:30:05.000Z</time>
      </trkpt>
      <trkpt lat="43.60559" lon="3.77998">
        <ele>61</ele>
        <time>2020-09-12T10:30:06.000Z</time>
      </trkpt>
      <trkpt lat="43.60562" lon="3.78001">
        <ele>61</ele>
        <time>2020-09-12T10:30:07.000Z</time>
      </trkpt>
      <trkpt lat="43.60564" lon="3.78005">
        <ele>60.943508723412</ele>
        <time>2020-09-12T10:30:08.000Z</time>
      </trkpt>
      <trkpt lat="43.60564" lon="3.78009">
        <ele>60.84440066423</ele>
        <time>2020-09-12T10:30:09.000Z</time>
      </trkpt>
      <trkpt lat="43.60562" lon="3.78013">
        <ele>60.745292605048</ele>
        <time>2020-09-12T10:30:10.000Z</time>
      </trkpt>
      <trkpt lat="43.60559" lon="3.78016">
        <ele>60.646184545866</ele>
        <time>2020-09-12T10:30:11.000Z</time>
      </trkpt>
      <trkpt lat="43.60557" lon="3.7802">
        <ele>60.547076486684</ele>
        <time>2020-09-12T10:30:12.000Z</time>
      </trkpt>
      <trkpt lat="43.60558" lon="3.78026">
        <ele>60.447968427502</ele>
        <time>2020-09-12T10:30:13.000Z</time>
      </trkpt>
      <trkpt lat="43.60559" lon="3.78032">
        <ele>60.34886036832</ele>
        <time>2020-09-12T10:30:14.000Z</time>
      </trkpt>
      <trkpt lat="43.60559" lon="3.78038">
        <ele>60.249752309139</ele>
        <time>2020-09-12T10:30:15.000Z</time>
      </trkpt>
      <trkpt lat="43.60559" lon="3.78045">
        <ele>60.150644249956</ele>
        <time>2020-09-12T10:30:16.000Z</time>
      </trkpt>
      <trkpt lat="43.6056" lon="3.78051">
        <ele>60.051536190775</ele>
        <time>2020-09-12T10:30:17.000Z</time>
      </trkpt>
      <trkpt lat="43.60561" lon="3.78057">
        <ele>60</ele>
        <time>2020-09-12T10:30:18.000Z</time>
      </trkpt>
      <trkpt lat="43.60562" lon="3.78064">
        <ele>60</ele>
        <time>2020-09-12T10:30:19.000Z</time>
      </trkpt>
      <trkpt lat="43.60563" lon="3.7807">
        <ele>60</ele>
        <time>2020-09-12T10:30:20.000Z</time>
      </trkpt>
      <trkpt lat="43.60564" lon="3.78076">
        <ele>60</ele>
        <time>2020-09-12T10:30:21.000Z</time>
      </trkpt>
      <trkpt lat="43.60565" lon="3.78083">
        <ele>60</ele>
        <time>2020-09-12T10:30:22.000Z</time>
      </trkpt>
      <trkpt lat="43.60566" lon="3.78089">
        <ele>60</ele>
        <time>2020-09-12T10:30:23.000Z</time>
      </trkpt>
      <trkpt lat="43.60567" lon="3.78095">
        <ele>60</ele>
        <time>2020-09-12T10:30:24.000Z</time>
      </trkpt>
      <trkpt lat="43.60568" lon="3.78101">
        <ele>60</ele>
        <time>2020-09-12T10:30:25.000Z</time>
      </trkpt>
      <trkpt lat="43.60569" lon="3.78107">
        <ele>60</ele>
        <time>2020-09-12T10:30:26.000Z</time>
      </trkpt>
      <trkpt lat="43.6057" lon="3.78113">
        <ele>60</ele>
        <time>2020-09-12T10:30:27.000Z</time>
      </trkpt>
      <trkpt lat="43.60572" lon="3.78118">
        <ele>60</ele>
        <time>2020-09-12T10:30:28.000Z</time>
      </trkpt>
      <trkpt lat="43.60573" lon="3.78124">
        <ele>60</ele>
        <time>2020-09-12T10:30:29.000Z</time>
      </trkpt>
      <trkpt lat="43.60574" lon="3.7813">
        <ele>60</ele>
        <time>2020-09-12T10:30:30.000Z</time>
      </trkpt>
      <trkpt lat="43.60576" lon="3.78136">
        <ele>60</ele>
        <time>2020-09-12T10:30:31.000Z</time>
      </trkpt>
      <trkpt lat="43.60577" lon="3.78141">
        <ele>60</ele>
        <time>2020-09-12T10:30:32.000Z</time>
      </trkpt>
      <trkpt lat="43.60578" lon="3.78147">
        <ele>60</ele>
        <time>2020-09-12T10:30:33.000Z</time>
      </trkpt>
      <trkpt lat="43.60579" lon="3.78152">
        <ele>60</ele>
        <time>2020-09-12T10:30:34.000Z</time>
      </trkpt>
      <trkpt lat="43.6058" lon="3.78158">
        <ele>60</ele>
        <time>2020-09-12T10:30:35.000Z</time>
      </trkpt>
      <trkpt lat="43.60582" lon="3.78163">
        <ele>60</ele>
        <time>2020-09-12T10:30:36.000Z</time>
      </trkpt>
      <trkpt lat="43.60583" lon="3.78169">
        <ele>60</ele>
        <time>2020-09-12T10:30:37.000Z</time>
      </trkpt>
      <trkpt lat="43.60585" lon="3.78174">
        <ele>60</ele>
        <time>2020-09-12T10:30:38.000Z</time>
      </trkpt>
      <trkpt lat="43.60587" lon="3.7818">
        <ele>60</ele>
        <time>2020-09-12T10:30:39.000Z</time>
      </trkpt>
      <trkpt lat="43.60588" lon="3.78185">
        <ele>60</ele>
        <time>2020-09-12T10:30:40.000Z</time>
      </trkpt>
      <trkpt lat="43.6059" lon="3.7819">
        <ele>60</ele>
        <time>2020-09-12T10:30:41.000Z</time>
      </trkpt>
      <trkpt lat="43.60592" lon="3.78195">
        <ele>60</ele>
        <time>2020-09-12T10:30:42.000Z</time>
      </trkpt>
      <trkpt lat="43.60593" lon="3.78201">
        <ele>60</ele>
        <time>2020-09-12T10:30:43.000Z</time>
      </trkpt>
      <trkpt lat="43.60595" lon="3.78206">
        <ele>60</ele>
        <time>2020-09-12T10:30:44.000Z</time>
      </trkpt>
      <trkpt lat="43.60596" lon="3.78211">
        <ele>60</ele>
        <time>2020-09-12T10:30:45.000Z</time>
      </trkpt>
      <trkpt lat="43.60598" lon="3.78216">
        <ele>60</ele>
        <time>2020-09-12T10:30:46.000Z</time>
      </trkpt>
      <trkpt lat="43.606" lon="3.78221">
        <ele>60</ele>
        <time>2020-09-12T10:30:47.000Z</time>
      </trkpt>
      <trkpt lat="43.60602" lon="3.78226">
        <ele>60.028836241784</ele>
        <time>2020-09-12T10:30:48.000Z</time>
      </trkpt>
      <trkpt lat="43.60603" lon="3.78231">
        <ele>60.131822819585</ele>
        <time>2020-09-12T10:30:49.000Z</time>
      </trkpt>
      <trkpt lat="43.60605" lon="3.78236">
        <ele>60.234809397385</ele>
        <time>2020-09-12T10:30:50.000Z</time>
      </trkpt>
      <trkpt lat="43.60606" lon="3.78241">
        <ele>60.337795975186</ele>
        <time>2020-09-12T10:30:51.000Z</time>
      </trkpt>
      <trkpt lat="43.60608" lon="3.78246">
        <ele>60.440782552986</ele>
        <time>2020-09-12T10:30:52.000Z</time>
      </trkpt>
      <trkpt lat="43.6061" lon="3.7825">
        <ele>60.543769130787</ele>
        <time>2020-09-12T10:30:53.000Z</time>
      </trkpt>
      <trkpt lat="43.60612" lon="3.78255">
        <ele>60.646755708587</ele>
        <time>2020-09-12T10:30:54.000Z</time>
      </trkpt>
      <trkpt lat="43.60614" lon="3.7826">
        <ele>60.749742286388</ele>
        <time>2020-09-12T10:30:55.000Z</time>
      </trkpt>
      <trkpt lat="43.60616" lon="3.78264">
        <ele>60.852728864188</ele>
        <time>2020-09-12T10:30:56.000Z</time>
      </trkpt>
      <trkpt lat="43.60618" lon="3.78269">
        <ele>60.955715441989</ele>
        <time>2020-09-12T10:30:57.000Z</time>
      </trkpt>
      <trkpt lat="43.6062" lon="3.78274">
        <ele>61</ele>
        <time>2020-09-12T10:30:58.000Z</time>
      </trkpt>
      <trkpt lat="43.60622" lon="3.78278">
        <ele>61</ele>
        <time>2020-09-12T10:30:59.000Z</time>
      </trkpt>
      <trkpt lat="43.60624" lon="3.78283">
        <ele>61</ele>
        <time>2020-09-12T10:31:00.000Z</time>
      </trkpt>
      <trkpt lat="43.60627" lon="3.78287">
        <ele>61</ele>
        <time>2020-09-12T10:31:01.000Z</time>
      </trkpt>
      <trkpt lat="43.60629" lon="3.78292">
        <ele>61</ele>
        <time>2020-09-12T10:31:02.000Z</time>
      </trkpt>
      <trkpt lat="43.60632" lon="3.78297">
        <ele>61</ele>
        <time>2020-09-12T10:31:03.000Z</time>
      </trkpt>
      <trkpt lat="43.60635" lon="3.78302">
        <ele>61</ele>
        <time>2020-09-12T10:31:04.000Z</time>
      </trkpt>
      <trkpt lat="43.60638" lon="3.78306">
        <ele>61</ele>
        <time>2020-09-12T10:31:05.000Z</time>
      </trkpt>
      <trkpt lat="43.6064" lon="3.78311">
        <ele>61</ele>
        <time>2020-09-12T10:31:06.000Z</time>
      </trkpt>
      <trkpt lat="43.60642" lon="3.78316">
        <ele>61</ele>
        <time>2020-09-12T10:31:07.000Z</time>
      </trkpt>
      <trkpt lat="43.60645" lon="3.7832">
        <ele>61.055393292251</ele>
        <time>2020-09-12T10:31:08.000Z</time>
      </trkpt>
      <trkpt lat="43.60647" lon="3.78325">
        <ele>61.152575052307</ele>
        <time>2020-09-12T10:31:09.000Z</time>
      </trkpt>
      <trkpt lat="43.60649" lon="3.78329">
        <ele>61.249756812364</ele>
        <time>2020-09-12T10:31:10.000Z</time>
      </trkpt>
      <trkpt lat="43.60651" lon="3.78333">
        <ele>61.34693857242</ele>
        <time>2020-09-12T10:31:11.000Z</time>
      </trkpt>
      <trkpt lat="43.60653" lon="3.78337">
        <ele>61.444120332477</ele>
        <time>2020-09-12T10:31:12.000Z</time>
      </trkpt>
      <trkpt lat="43.60655" lon="3.78342">
        <ele>61.541302092533</ele>
        <time>2020-09-12T10:31:13.000Z</time>
      </trkpt>
      <trkpt lat="43.60657" lon="3.78346">
        <ele>61.63848385259</ele>
        <time>2020-09-12T10:31:14.000Z</time>
      </trkpt>
      <trkpt lat="43.60658" lon="3.7835">
        <ele>61.735665612646</ele>
        <time>2020-09-12T10:31:15.000Z</time>
      </trkpt>
      <trkpt lat="43.60659" lon="3.78355">
        <ele>61.832847372703</ele>
        <time>2020-09-12T10:31:16.000Z</time>
      </trkpt>
      <trkpt lat="43.60659" lon="3.7836">
        <ele>61.930029132759</ele>
        <time>2020-09-12T10:31:17.000Z</time>
      </trkpt>
      <trkpt lat="43.60658" lon="3.78364">
        <ele>62</ele>
        <time>2020-09-12T10:31:18.000Z</time>
      </trkpt>
      <trkpt lat="43.60657" lon="3.78369">
        <ele>62</ele>
        <time>2020-09-12T10:31:19.000Z</time>
      </trkpt>
      <trkpt lat="43.60657" lon="3.78373">
        <ele>62</ele>
        <time>2020-09-12T10:31:20.000Z</time>
      </trkpt>
      <trkpt lat="43.60657" lon="3.78378">
        <ele>62</ele>
        <time>2020-09-12T10:31:21.000Z</time>
      </trkpt>
      <trkpt lat="43.60659" lon="3.78382">
        <ele>62</ele>
        <time>2020-09-12T10:31:22.000Z</time>
      </trkpt>
      <trkpt lat="43.60661" lon="3.78386">
        <ele>62</ele>
        <time>2020-09-12T10:31:23.000Z</time>
      </trkpt>
      <trkpt lat="43.60663" lon="3.78389">
        <ele>62</ele>
        <time>2020-09-12T10:31:24.000Z</time>
      </trkpt>
      <trkpt lat="43.60666" lon="3.78393">
        <ele>62</ele>
        <time>2020-09-12T10:31:25.000Z</time>
      </trkpt>
      <trkpt lat="43.60668" lon="3.78396">
        <ele>62</ele>
        <time>2020-09-12T10:31:26.000Z</time>
      </trkpt>
      <trkpt lat="43.6067" lon="3.784">
        <ele>62</ele>
        <time>2020-09-12T10:31:27.000Z</time>
      </trkpt>
      <trkpt lat="43.60671" lon="3.78404">
        <ele>62.05699968</ele>
        <time>2020-09-12T10:31:28.000Z</time>
      </trkpt>
      <trkpt lat="43.60672" lon="3.78408">
        <ele>62.15699968</ele>
        <time>2020-09-12T10:31:29.000Z</time>
      </trkpt>
      <trkpt lat="43.60675" lon="3.7841">
        <ele>62.25699968</ele>
        <time>2020-09-12T10:31:30.000Z</time>
      </trkpt>
      <trkpt lat="43.60678" lon="3.78411">
        <ele>62.35699968</ele>
        <time>2020-09-12T10:31:31.000Z</time>
      </trkpt>
      <trkpt lat="43.60681" lon="3.78413">
        <ele>62.45699968</ele>
        <time>2020-09-12T10:31:32.000Z</time>
      </trkpt>
      <trkpt lat="43.60683" lon="3.78417">
        <ele>62.55699968</ele>
        <time>2020-09-12T10:31:33.000Z</time>
      </trkpt>
      <trkpt lat="43.60685" lon="3.7842">
        <ele>62.65699968</ele>
        <time>2020-09-12T10:31:34.000Z</time>
      </trkpt>
      <trkpt lat="43.60688" lon="3.78424">
        <ele>62.75699968</ele>
        <time>2020-09-12T10:31:35.000Z</time>
      </trkpt>
      <trkpt lat="43.6069" lon="3.78428">
        <ele>62.85699968</ele>
        <time>2020-09-12T10:31:36.000Z</time>
      </trkpt>
      <trkpt lat="43.60692" lon="3.78432">
        <ele>62.95699968</ele>
        <time>2020-09-12T10:31:37.000Z</time>
      </trkpt>
      <trkpt lat="43.60694" lon="3.78436">
        <ele>63.05699968</ele>
        <time>2020-09-12T10:31:38.000Z</time>
      </trkpt>
      <trkpt lat="43.60696" lon="3.7844">
        <ele>63.15699968</ele>
        <time>2020-09-12T10:31:39.000Z</time>
      </trkpt>
      <trkpt lat="43.60699" lon="3.78445">
        <ele>63.25699968</ele>
        <time>2020-09-12T10:31:40.000Z</time>
      </trkpt>
      <trkpt lat="43.60701" lon="3.78449">
        <ele>63.35699968</ele>
        <time>2020-09-12T10:31:41.000Z</time>
      </trkpt>
      <trkpt lat="43.60703" lon="3.78453">
        <ele>63.45699968</ele>
        <time>2020-09-12T10:31:42.000Z</time>
      </trkpt>
      <trkpt lat="43.60705" lon="3.78457">
        <ele>63.55699968</ele>
        <time>2020-09-12T10:31:43.000Z</time>
      </trkpt>
      <trkpt lat="43.60707" lon="3.78462">
        <ele>63.65699968</ele>
        <time>2020-09-12T10:31:44.000Z</time>
      </trkpt>
      <trkpt lat="43.60709" lon="3.78466">
        <ele>63.75699968</ele>
        <time>2020-09-12T10:31:45.000Z</time>
      </trkpt>
      <trkpt lat="43.60712" lon="3.78471">
        <ele>63.85699968</ele>
        <time>2020-09-12T10:31:46.000Z</time>
      </trkpt>
      <trkpt lat="43.60714" lon="3.78475">
        <ele>63.95699968</ele>
        <time>2020-09-12T10:31:47.000Z</time>
      </trkpt>
      <trkpt lat="43.60716" lon="3.78479">
        <ele>64.05699968</ele>
        <time>2020-09-12T10:31:48.000Z</time>
      </trkpt>
      <trkpt lat="43.60718" lon="3.78482">
        <ele>64.15699968</ele>
        <time>2020-09-12T10:31:49.000Z</time>
      </trkpt>
      <trkpt lat="43.6072" lon="3.78485">
        <ele>64.25699968</ele>
        <time>2020-09-12T10:31:50.000Z</time>
      </trkpt>
      <trkpt lat="43.60722" lon="3.78489">
        <ele>64.35699968</ele>
        <time>2020-09-12T10:31:51.000Z</time>
      </trkpt>
      <trkpt lat="43.60724" lon="3.78494">
        <ele>64.45699968</ele>
        <time>2020-09-12T10:31:52.000Z</time>
      </trkpt>
      <trkpt lat="43.60725" lon="3.78499">
        <ele>64.55699968</ele>
        <time>2020-09-12T10:31:53.000Z</time>
      </trkpt>
      <trkpt lat="43.60727" lon="3.78503">
        <ele>64.65699968</ele>
        <time>2020-09-12T10:31:54.000Z</time>
      </trkpt>
      <trkpt lat="43.60728" lon="3.78508">
        <ele>64.75699968</ele>
        <time>2020-09-12T10:31:55.000Z</time>
      </trkpt>
      <trkpt lat="43.6073" lon="3.78513">
        <ele>64.85699968</ele>
        <time>2020-09-12T10:31:56.000Z</time>
      </trkpt>
      <trkpt lat="43.60732" lon="3.78517">
        <ele>64.95699968</ele>
        <time>2020-09-12T10:31:57.000Z</time>
      </trkpt>
      <trkpt lat="43.60733" lon="3.78521">
        <ele>65.11399936</ele>
        <time>2020-09-12T10:31:58.000Z</time>
      </trkpt>
      <trkpt lat="43.60735" lon="3.78526">
        <ele>65.31399936</ele>
        <time>2020-09-12T10:31:59.000Z</time>
      </trkpt>
      <trkpt lat="43.60737" lon="3.7853">
        <ele>65.51399936</ele>
        <time>2020-09-12T10:32:00.000Z</time>
      </trkpt>
      <trkpt lat="43.60739" lon="3.78535">
        <ele>65.71399936</ele>
        <time>2020-09-12T10:32:01.000Z</time>
      </trkpt>
      <trkpt lat="43.6074" lon="3.78539">
        <ele>65.91399936</ele>
        <time>2020-09-12T10:32:02.000Z</time>
      </trkpt>
      <trkpt lat="43.60742" lon="3.78544">
        <ele>66.11399936</ele>
        <time>2020-09-12T10:32:03.000Z</time>
      </trkpt>
      <trkpt lat="43.60744" lon="3.78548">
        <ele>66.31399936</ele>
        <time>2020-09-12T10:32:04.000Z</time>
      </trkpt>
      <trkpt lat="43.60746" lon="3.78552">
        <ele>66.51399936</ele>
        <time>2020-09-12T10:32:05.000Z</time>
      </trkpt>
      <trkpt lat="43.60748" lon="3.78557">
        <ele>66.71399936</ele>
        <time>2020-09-12T10:32:06.000Z</time>
      </trkpt>
      <trkpt lat="43.60749" lon="3.78561">
        <ele>66.91399936</ele>
        <time>2020-09-12T10:32:07.000Z</time>
      </trkpt>
      <trkpt lat="43.60752" lon="3.78565">
        <ele>67</ele>
        <time>2020-09-12T10:32:08.000Z</time>
      </trkpt>
      <trkpt lat="43.60754" lon="3.7857">
        <ele>67</ele>
        <time>2020-09-12T10:32:09.000Z</time>
      </trkpt>
      <trkpt lat="43.60756" lon="3.78574">
        <ele>67</ele>
        <time>2020-09-12T10:32:10.000Z</time>
      </trkpt>
      <trkpt lat="43.60758" lon="3.78579">
        <ele>67</ele>
        <time>2020-09-12T10:32:11.000Z</time>
      </trkpt>
      <trkpt lat="43.6076" lon="3.78584">
        <ele>67</ele>
        <time>2020-09-12T10:32:12.000Z</time>
      </trkpt>
      <trkpt lat="43.60763" lon="3.78588">
        <ele>67</ele>
        <time>2020-09-12T10:32:13.000Z</time>
      </trkpt>
      <trkpt lat="43.60765" lon="3.78593">
        <ele>67</ele>
        <time>2020-09-12T10:32:14.000Z</time>
      </trkpt>
      <trkpt lat="43.60767" lon="3.78597">
        <ele>67</ele>
        <time>2020-09-12T10:32:15.000Z</time>
      </trkpt>
      <trkpt lat="43.60769" lon="3.78601">
        <ele>67</ele>
        <time>2020-09-12T10:32:16.000Z</time>
      </trkpt>
      <trkpt lat="43.60771" lon="3.78606">
        <ele>67</ele>
        <time>2020-09-12T10:32:17.000Z</time>
      </trkpt>
      <trkpt lat="43.60773" lon="3.7861">
        <ele>67</ele>
        <time>2020-09-12T10:32:18.000Z</time>
      </trkpt>
      <trkpt lat="43.60775" lon="3.78614">
        <ele>67</ele>
        <time>2020-09-12T10:32:19.000Z</time>
      </trkpt>
      <trkpt lat="43.60778" lon="3.78618">
        <ele>67</ele>
        <time>2020-09-12T10:32:20.000Z</time>
      </trkpt>
      <trkpt lat="43.6078" lon="3.78623">
        <ele>67</ele>
        <time>2020-09-12T10:32:21.000Z</time>
      </trkpt>
      <trkpt lat="43.60783" lon="3.78627">
        <ele>67</ele>
        <time>2020-09-12T10:32:22.000Z</time>
      </trkpt>
      <trkpt lat="43.60786" lon="3.7863">
        <ele>67</ele>
        <time>2020-09-12T10:32:23.000Z</time>
      </trkpt>
      <trkpt lat="43.60788" lon="3.78634">
        <ele>67</ele>
        <time>2020-09-12T10:32:24.000Z</time>
      </trkpt>
      <trkpt lat="43.6079" lon="3.78638">
        <ele>67</ele>
        <time>2020-09-12T10:32:25.000Z</time>
      </trkpt>
      <trkpt lat="43.60793" lon="3.78642">
        <ele>67</ele>
        <time>2020-09-12T10:32:26.000Z</time>
      </trkpt>
      <trkpt lat="43.60795" lon="3.78647">
        <ele>67</ele>
        <time>2020-09-12T10:32:27.000Z</time>
      </trkpt>
      <trkpt lat="43.60796" lon="3.78651">
        <ele>67</ele>
        <time>2020-09-12T10:32:28.000Z</time>
      </trkpt>
      <trkpt lat="43.60798" lon="3.78654">
        <ele>67</ele>
        <time>2020-09-12T10:32:29.000Z</time>
      </trkpt>
      <trkpt lat="43.608" lon="3.78658">
        <ele>67</ele>
        <time>2020-09-12T10:32:30.000Z</time>
      </trkpt>
      <trkpt lat="43.60801" lon="3.78662">
        <ele>67</ele>
        <time>2020-09-12T10:32:31.000Z</time>
      </trkpt>
      <trkpt lat="43.60803" lon="3.78666">
        <ele>67</ele>
        <time>2020-09-12T10:32:32.000Z</time>
      </trkpt>
      <trkpt lat="43.60805" lon="3.7867">
        <ele>67</ele>
        <time>2020-09-12T10:32:33.000Z</time>
      </trkpt>
      <trkpt lat="43.60807" lon="3.78674">
        <ele>67</ele>
        <time>2020-09-12T10:32:34.000Z</time>
      </trkpt>
      <trkpt lat="43.60808" lon="3.78678">
        <ele>67</ele>
        <time>2020-09-12T10:32:35.000Z</time>
      </trkpt>
      <trkpt lat="43.6081" lon="3.78681">
        <ele>67</ele>
        <time>2020-09-12T10:32:36.000Z</time>
      </trkpt>
      <trkpt lat="43.60811" lon="3.78685">
        <ele>67</ele>
        <time>2020-09-12T10:32:37.000Z</time>
      </trkpt>
      <trkpt lat="43.60813" lon="3.78689">
        <ele>67.05699968</ele>
        <time>2020-09-12T10:32:38.000Z</time>
      </trkpt>
      <trkpt lat="43.60815" lon="3.78693">
        <ele>67.15699968</ele>
        <time>2020-09-12T10:32:39.000Z</time>
      </trkpt>
      <trkpt lat="43.60816" lon="3.78697">
        <ele>67.25699968</ele>
        <time>2020-09-12T10:32:40.000Z</time>
      </trkpt>
      <trkpt lat="43.60818" lon="3.78701">
        <ele>67.35699968</ele>
        <time>2020-09-12T10:32:41.000Z</time>
      </trkpt>
      <trkpt lat="43.60819" lon="3.78705">
        <ele>67.45699968</ele>
        <time>2020-09-12T10:32:42.000Z</time>
      </trkpt>
      <trkpt lat="43.60821" lon="3.78709">
        <ele>67.55699968</ele>
        <time>2020-09-12T10:32:43.000Z</time>
      </trkpt>
      <trkpt lat="43.60822" lon="3.78713">
        <ele>67.65699968</ele>
        <time>2020-09-12T10:32:44.000Z</time>
      </trkpt>
      <trkpt lat="43.60824" lon="3.78717">
        <ele>67.75699968</ele>
        <time>2020-09-12T10:32:45.000Z</time>
      </trkpt>
      <trkpt lat="43.60825" lon="3.78721">
        <ele>67.85699968</ele>
        <time>2020-09-12T10:32:46.000Z</time>
      </trkpt>
      <trkpt lat="43.60827" lon="3.78725">
        <ele>67.95699968</ele>
        <time>2020-09-12T10:32:47.000Z</time>
      </trkpt>
      <trkpt lat="43.60828" lon="3.78728">
        <ele>68.055232248062</ele>
        <time>2020-09-12T10:32:48.000Z</time>
      </trkpt>
      <trkpt lat="43.6083" lon="3.78731">
        <ele>68.152131472868</ele>
        <time>2020-09-12T10:32:49.000Z</time>
      </trkpt>
      <trkpt lat="43.60831" lon="3.78735">
        <ele>68.249030697674</ele>
        <time>2020-09-12T10:32:50.000Z</time>
      </trkpt>
      <trkpt lat="43.60833" lon="3.78738">
        <ele>68.345929922481</ele>
        <time>2020-09-12T10:32:51.000Z</time>
      </trkpt>
      <trkpt lat="43.60834" lon="3.78741">
        <ele>68.442829147287</ele>
        <time>2020-09-12T10:32:52.000Z</time>
      </trkpt>
      <trkpt lat="43.60835" lon="3.78744">
        <ele>68.539728372093</ele>
        <time>2020-09-12T10:32:53.000Z</time>
      </trkpt>
      <trkpt lat="43.60836" lon="3.78747">
        <ele>68.636627596899</ele>
        <time>2020-09-12T10:32:54.000Z</time>
      </trkpt>
      <trkpt lat="43.60837" lon="3.7875">
        <ele>68.733526821705</ele>
        <time>2020-09-12T10:32:55.000Z</time>
      </trkpt>
      <trkpt lat="43.60839" lon="3.78752">
        <ele>68.830426046512</ele>
        <time>2020-09-12T10:32:56.000Z</time>
      </trkpt>
      <trkpt lat="43.6084" lon="3.78755">
        <ele>68.927325271318</ele>
        <time>2020-09-12T10:32:57.000Z</time>
      </trkpt>
      <trkpt lat="43.60841" lon="3.78758">
        <ele>69.025826115703</ele>
        <time>2020-09-12T10:32:58.000Z</time>
      </trkpt>
      <trkpt lat="43.60842" lon="3.7876">
        <ele>69.129131900826</ele>
        <time>2020-09-12T10:32:59.000Z</time>
      </trkpt>
      <trkpt lat="43.60844" lon="3.78763">
        <ele>69.23243768595</ele>
        <time>2020-09-12T10:33:00.000Z</time>
      </trkpt>
      <trkpt lat="43.60845" lon="3.78766">
        <ele>69.335743471074</ele>
        <time>2020-09-12T10:33:01.000Z</time>
      </trkpt>
      <trkpt lat="43.60847" lon="3.78768">
        <ele>69.439049256198</ele>
        <time>2020-09-12T10:33:02.000Z</time>
      </trkpt>
      <trkpt lat="43.60848" lon="3.78771">
        <ele>69.542355041322</ele>
        <time>2020-09-12T10:33:03.000Z</time>
      </trkpt>
      <trkpt lat="43.60849" lon="3.78774">
        <ele>69.645660826446</ele>
        <time>2020-09-12T10:33:04.000Z</time>
      </trkpt>
      <trkpt lat="43.6085" lon="3.78777">
        <ele>69.74896661157</ele>
        <time>2020-09-12T10:33:05.000Z</time>
      </trkpt>
      <trkpt lat="43.60851" lon="3.7878">
        <ele>69.852272396694</ele>
        <time>2020-09-12T10:33:06.000Z</time>
      </trkpt>
      <trkpt lat="43.60852" lon="3.78782">
        <ele>69.955578181818</ele>
        <time>2020-09-12T10:33:07.000Z</time>
      </trkpt>
      <trkpt lat="43.60853" lon="3.78785">
        <ele>70.11399936</ele>
        <time>2020-09-12T10:33:08.000Z</time>
      </trkpt>
      <trkpt lat="43.60854" lon="3.78788">
        <ele>70.31399936</ele>
        <time>2020-09-12T10:33:09.000Z</time>
      </trkpt>
      <trkpt lat="43.60856" lon="3.78791">
        <ele>70.51399936</ele>
        <time>2020-09-12T10:33:10.000Z</time>
      </trkpt>
      <trkpt lat="43.60857" lon="3.78794">
        <ele>70.71399936</ele>
        <time>2020-09-12T10:33:11.000Z</time>
      </trkpt>
      <trkpt lat="43.60858" lon="3.78796">
        <ele>70.91399936</ele>
        <time>2020-09-12T10:33:12.000Z</time>
      </trkpt>
      <trkpt lat="43.60859" lon="3.78799">
        <ele>71.11399936</ele>
        <time>2020-09-12T10:33:13.000Z</time>
      </trkpt>
      <trkpt lat="43.6086" lon="3.78802">
        <ele>71.31399936</ele>
        <time>2020-09-12T10:33:14.000Z</time>
      </trkpt>
      <trkpt lat="43.60862" lon="3.78804">
        <ele>71.51399936</ele>
        <time>2020-09-12T10:33:15.000Z</time>
      </trkpt>
      <trkpt lat="43.60863" lon="3.78807">
        <ele>71.71399936</ele>
        <time>2020-09-12T10:33:16.000Z</time>
      </trkpt>
      <trkpt lat="43.60864" lon="3.7881">
        <ele>71.91399936</ele>
        <time>2020-09-12T10:33:17.000Z</time>
      </trkpt>
      <trkpt lat="43.60865" lon="3.78813">
        <ele>72.05699968</ele>
        <time>2020-09-12T10:33:18.000Z</time>
      </trkpt>
      <trkpt lat="43.60866" lon="3.78815">
        <ele>72.15699968</ele>
        <time>2020-09-12T10:33:19.000Z</time>
      </trkpt>
      <trkpt lat="43.60867" lon="3.78818">
        <ele>72.25699968</ele>
        <time>2020-09-12T10:33:20.000Z</time>
      </trkpt>
      <trkpt lat="43.60869" lon="3.78821">
        <ele>72.35699968</ele>
        <time>2020-09-12T10:33:21.000Z</time>
      </trkpt>
      <trkpt lat="43.6087" lon="3.78823">
        <ele>72.45699968</ele>
        <time>2020-09-12T10:33:22.000Z</time>
      </trkpt>
      <trkpt lat="43.60872" lon="3.78826">
        <ele>72.55699968</ele>
        <time>2020-09-12T10:33:23.000Z</time>
      </trkpt>
      <trkpt lat="43.60873" lon="3.78828">
        <ele>72.65699968</ele>
        <time>2020-09-12T10:33:24.000Z</time>
      </trkpt>
      <trkpt lat="43.60874" lon="3.7883">
        <ele>72.75699968</ele>
        <time>2020-09-12T10:33:25.000Z</time>
      </trkpt>
      <trkpt lat="43.60875" lon="3.78833">
        <ele>72.85699968</ele>
        <time>2020-09-12T10:33:26.000Z</time>
      </trkpt>
      <trkpt lat="43.60876" lon="3.78835">
        <ele>72.95699968</ele>
        <time>2020-09-12T10:33:27.000Z</time>
      </trkpt>
      <trkpt lat="43.60876" lon="3.78838">
        <ele>73.11399936</ele>
        <time>2020-09-12T10:33:28.000Z</time>
      </trkpt>
      <trkpt lat="43.60876" lon="3.78841">
        <ele>73.31399936</ele>
        <time>2020-09-12T10:33:29.000Z</time>
      </trkpt>
      <trkpt lat="43.60877" lon="3.78844">
        <ele>73.51399936</ele>
        <time>2020-09-12T10:33:30.000Z</time>
      </trkpt>
      <trkpt lat="43.60877" lon="3.78847">
        <ele>73.71399936</ele>
        <time>2020-09-12T10:33:31.000Z</time>
      </trkpt>
      <trkpt lat="43.60878" lon="3.78851">
        <ele>73.91399936</ele>
        <time>2020-09-12T10:33:32.000Z</time>
      </trkpt>
      <trkpt lat="43.60879" lon="3.78854">
        <ele>74.11399936</ele>
        <time>2020-09-12T10:33:33.000Z</time>
      </trkpt>
      <trkpt lat="43.6088" lon="3.78857">
        <ele>74.31399936</ele>
        <time>2020-09-12T10:33:34.000Z</time>
      </trkpt>
      <trkpt lat="43.60881" lon="3.7886">
        <ele>74.51399936</ele>
        <time>2020-09-12T10:33:35.000Z</time>
      </trkpt>
      <trkpt lat="43.60881" lon="3.78864">
        <ele>74.71399936</ele>
        <time>2020-09-12T10:33:36.000Z</time>
      </trkpt>
      <trkpt lat="43.60882" lon="3.78867">
        <ele>74.91399936</ele>
        <time>2020-09-12T10:33:37.000Z</time>
      </trkpt>
      <trkpt lat="43.60882" lon="3.7887">
        <ele>75.17099904</ele>
        <time>2020-09-12T10:33:38.000Z</time>
      </trkpt>
      <trkpt lat="43.60883" lon="3.78873">
        <ele>75.47099904</ele>
        <time>2020-09-12T10:33:39.000Z</time>
      </trkpt>
      <trkpt lat="43.60884" lon="3.78876">
        <ele>75.77099904</ele>
        <time>2020-09-12T10:33:40.000Z</time>
      </trkpt>
      <trkpt lat="43.60884" lon="3.78879">
        <ele>76.07099904</ele>
        <time>2020-09-12T10:33:41.000Z</time>
      </trkpt>
      <trkpt lat="43.60885" lon="3.78882">
        <ele>76.37099904</ele>
        <time>2020-09-12T10:33:42.000Z</time>
      </trkpt>
      <trkpt lat="43.60885" lon="3.78886">
        <ele>76.67099904</ele>
        <time>2020-09-12T10:33:43.000Z</time>
      </trkpt>
      <trkpt lat="43.60886" lon="3.78889">
        <ele>76.97099904</ele>
        <time>2020-09-12T10:33:44.000Z</time>
      </trkpt>
      <trkpt lat="43.60886" lon="3.78892">
        <ele>77.27099904</ele>
        <time>2020-09-12T10:33:45.000Z</time>
      </trkpt>
      <trkpt lat="43.60886" lon="3.78895">
        <ele>77.57099904</ele>
        <time>2020-09-12T10:33:46.000Z</time>
      </trkpt>
      <trkpt lat="43.60886" lon="3.78899">
        <ele>77.87099904</ele>
        <time>2020-09-12T10:33:47.000Z</time>
      </trkpt>
      <trkpt lat="43.60886" lon="3.78902">
        <ele>78.05699968</ele>
        <time>2020-09-12T10:33:48.000Z</time>
      </trkpt>
      <trkpt lat="43.60886" lon="3.78905">
        <ele>78.15699968</ele>
        <time>2020-09-12T10:33:49.000Z</time>
      </trkpt>
      <trkpt lat="43.60886" lon="3.78909">
        <ele>78.25699968</ele>
        <time>2020-09-12T10:33:50.000Z</time>
      </trkpt>
      <trkpt lat="43.60886" lon="3.78912">
        <ele>78.35699968</ele>
        <time>2020-09-12T10:33:51.000Z</time>
      </trkpt>
      <trkpt lat="43.60886" lon="3.78916">
        <ele>78.45699968</ele>
        <time>2020-09-12T10:33:52.000Z</time>
      </trkpt>
      <trkpt lat="43.60886" lon="3.7892">
        <ele>78.55699968</ele>
        <time>2020-09-12T10:33:53.000Z</time>
      </trkpt>
      <trkpt lat="43.60886" lon="3.78923">
        <ele>78.65699968</ele>
        <time>2020-09-12T10:33:54.000Z</time>
      </trkpt>
      <trkpt lat="43.60885" lon="3.78927">
        <ele>78.75699968</ele>
        <time>2020-09-12T10:33:55.000Z</time>
      </trkpt>
      <trkpt lat="43.60884" lon="3.78931">
        <ele>78.85699968</ele>
        <time>2020-09-12T10:33:56.000Z</time>
      </trkpt>
      <trkpt lat="43.60882" lon="3.78935">
        <ele>78.95699968</ele>
        <time>2020-09-12T10:33:57.000Z</time>
      </trkpt>
      <trkpt lat="43.60881" lon="3.7894">
        <ele>79.113885510932</ele>
        <time>2020-09-12T10:33:58.000Z</time>
      </trkpt>
      <trkpt lat="43.6088" lon="3.78944">
        <ele>79.313685774605</ele>
        <time>2020-09-12T10:33:59.000Z</time>
      </trkpt>
      <trkpt lat="43.60879" lon="3.78949">
        <ele>79.513486038277</ele>
        <time>2020-09-12T10:34:00.000Z</time>
      </trkpt>
      <trkpt lat="43.60878" lon="3.78953">
        <ele>79.71328630195</ele>
        <time>2020-09-12T10:34:01.000Z</time>
      </trkpt>
      <trkpt lat="43.60877" lon="3.78958">
        <ele>79.913086565622</ele>
        <time>2020-09-12T10:34:02.000Z</time>
      </trkpt>
      <trkpt lat="43.60876" lon="3.78963">
        <ele>80.112886829294</ele>
        <time>2020-09-12T10:34:03.000Z</time>
      </trkpt>
      <trkpt lat="43.60875" lon="3.78968">
        <ele>80.312687092967</ele>
        <time>2020-09-12T10:34:04.000Z</time>
      </trkpt>
      <trkpt lat="43.60874" lon="3.78972">
        <ele>80.512487356639</ele>
        <time>2020-09-12T10:34:05.000Z</time>
      </trkpt>
      <trkpt lat="43.60873" lon="3.78977">
        <ele>80.712287620312</ele>
        <time>2020-09-12T10:34:06.000Z</time>
      </trkpt>
      <trkpt lat="43.60872" lon="3.78982">
        <ele>80.912087883984</ele>
        <time>2020-09-12T10:34:07.000Z</time>
      </trkpt>
      <trkpt lat="43.60871" lon="3.78987">
        <ele>80.944</ele>
        <time>2020-09-12T10:34:08.000Z</time>
      </trkpt>
      <trkpt lat="43.60871" lon="3.78992">
        <ele>80.844</ele>
        <time>2020-09-12T10:34:09.000Z</time>
      </trkpt>
      <trkpt lat="43.60869" lon="3.78997">
        <ele>80.744</ele>
        <time>2020-09-12T10:34:10.000Z</time>
      </trkpt>
      <trkpt lat="43.60868" lon="3.79002">
        <ele>80.644</ele>
        <time>2020-09-12T10:34:11.000Z</time>
      </trkpt>
      <trkpt lat="43.60867" lon="3.79007">
        <ele>80.544</ele>
        <time>2020-09-12T10:34:12.000Z</time>
      </trkpt>
      <trkpt lat="43.60866" lon="3.79013">
        <ele>80.444</ele>
        <time>2020-09-12T10:34:13.000Z</time>
      </trkpt>
      <trkpt lat="43.60865" lon="3.7902">
        <ele>80.344</ele>
        <time>2020-09-12T10:34:14.000Z</time>
      </trkpt>
      <trkpt lat="43.60864" lon="3.79027">
        <ele>80.244</ele>
        <time>2020-09-12T10:34:15.000Z</time>
      </trkpt>
      <trkpt lat="43.60863" lon="3.79034">
        <ele>80.144</ele>
        <time>2020-09-12T10:34:16.000Z</time>
      </trkpt>
      <trkpt lat="43.60862" lon="3.7904">
        <ele>80.044</ele>
        <time>2020-09-12T10:34:17.000Z</time>
      </trkpt>
      <trkpt lat="43.6086" lon="3.79046">
        <ele>79.891050583658</ele>
        <time>2020-09-12T10:34:18.000Z</time>
      </trkpt>
      <trkpt lat="43.60859" lon="3.79052">
        <ele>79.696498054475</ele>
        <time>2020-09-12T10:34:19.000Z</time>
      </trkpt>
      <trkpt lat="43.60858" lon="3.79058">
        <ele>79.501945525292</ele>
        <time>2020-09-12T10:34:20.000Z</time>
      </trkpt>
      <trkpt lat="43.60857" lon="3.79063">
        <ele>79.307392996109</ele>
        <time>2020-09-12T10:34:21.000Z</time>
      </trkpt>
      <trkpt lat="43.60856" lon="3.79069">
        <ele>79.112840466926</ele>
        <time>2020-09-12T10:34:22.000Z</time>
      </trkpt>
      <trkpt lat="43.60855" lon="3.79076">
        <ele>78.918287937743</ele>
        <time>2020-09-12T10:34:23.000Z</time>
      </trkpt>
      <trkpt lat="43.60854" lon="3.79083">
        <ele>78.72373540856</ele>
        <time>2020-09-12T10:34:24.000Z</time>
      </trkpt>
      <trkpt lat="43.60853" lon="3.7909">
        <ele>78.529182879377</ele>
        <time>2020-09-12T10:34:25.000Z</time>
      </trkpt>
      <trkpt lat="43.60852" lon="3.79097">
        <ele>78.334630350195</ele>
        <time>2020-09-12T10:34:26.000Z</time>
      </trkpt>
      <trkpt lat="43.60851" lon="3.79104">
        <ele>78.140077821012</ele>
        <time>2020-09-12T10:34:27.000Z</time>
      </trkpt>
      <trkpt lat="43.6085" lon="3.79112">
        <ele>77.916334661355</ele>
        <time>2020-09-12T10:34:28.000Z</time>
      </trkpt>
      <trkpt lat="43.60849" lon="3.7912">
        <ele>77.617529880478</ele>
        <time>2020-09-12T10:34:29.000Z</time>
      </trkpt>
      <trkpt lat="43.60848" lon="3.79128">
        <ele>77.318725099602</ele>
        <time>2020-09-12T10:34:30.000Z</time>
      </trkpt>
      <trkpt lat="43.60847" lon="3.79136">
        <ele>77.019920318725</ele>
        <time>2020-09-12T10:34:31.000Z</time>
      </trkpt>
      <trkpt lat="43.60846" lon="3.79145">
        <ele>76.721115537849</ele>
        <time>2020-09-12T10:34:32.000Z</time>
      </trkpt>
      <trkpt lat="43.60844" lon="3.79155">
        <ele>76.422310756972</ele>
        <time>2020-09-12T10:34:33.000Z</time>
      </trkpt>
      <trkpt lat="43.60843" lon="3.79164">
        <ele>76.123505976096</ele>
        <time>2020-09-12T10:34:34.000Z</time>
      </trkpt>
      <trkpt lat="43.60843" lon="3.79174">
        <ele>75.824701195219</ele>
        <time>2020-09-12T10:34:35.000Z</time>
      </trkpt>
      <trkpt lat="43.60842" lon="3.79184">
        <ele>75.525896414343</ele>
        <time>2020-09-12T10:34:36.000Z</time>
      </trkpt>
      <trkpt lat="43.60841" lon="3.79194">
        <ele>75.227091633466</ele>
        <time>2020-09-12T10:34:37.000Z</time>
      </trkpt>
      <trkpt lat="43.6084" lon="3.79205">
        <ele>74.900723921167</ele>
        <time>2020-09-12T10:34:38.000Z</time>
      </trkpt>
      <trkpt lat="43.60839" lon="3.79216">
        <ele>74.487073592695</ele>
        <time>2020-09-12T10:34:39.000Z</time>
      </trkpt>
      <trkpt lat="43.60839" lon="3.79227">
        <ele>74.073423264224</ele>
        <time>2020-09-12T10:34:40.000Z</time>
      </trkpt>
      <trkpt lat="43.60838" lon="3.79238">
        <ele>73.659772935752</ele>
        <time>2020-09-12T10:34:41.000Z</time>
      </trkpt>
      <trkpt lat="43.60838" lon="3.79249">
        <ele>73.246122607281</ele>
        <time>2020-09-12T10:34:42.000Z</time>
      </trkpt>
      <trkpt lat="43.60837" lon="3.7926">
        <ele>72.83247227881</ele>
        <time>2020-09-12T10:34:43.000Z</time>
      </trkpt>
      <trkpt lat="43.60837" lon="3.79271">
        <ele>72.418821950338</ele>
        <time>2020-09-12T10:34:44.000Z</time>
      </trkpt>
      <trkpt lat="43.60837" lon="3.79283">
        <ele>72.005171621867</ele>
        <time>2020-09-12T10:34:45.000Z</time>
      </trkpt>
      <trkpt lat="43.60837" lon="3.79294">
        <ele>71.591521293395</ele>
        <time>2020-09-12T10:34:46.000Z</time>
      </trkpt>
      <trkpt lat="43.60837" lon="3.79305">
        <ele>71.177870964924</ele>
        <time>2020-09-12T10:34:47.000Z</time>
      </trkpt>
      <trkpt lat="43.60837" lon="3.79317">
        <ele>70.7150016</ele>
        <time>2020-09-12T10:34:48.000Z</time>
      </trkpt>
      <trkpt lat="43.60838" lon="3.79328">
        <ele>70.2150016</ele>
        <time>2020-09-12T10:34:49.000Z</time>
      </trkpt>
      <trkpt lat="43.60838" lon="3.7934">
        <ele>69.7150016</ele>
        <time>2020-09-12T10:34:50.000Z</time>
      </trkpt>
      <trkpt lat="43.60839" lon="3.79351">
        <ele>69.2150016</ele>
        <time>2020-09-12T10:34:51.000Z</time>
      </trkpt>
      <trkpt lat="43.60839" lon="3.79363">
        <ele>68.7150016</ele>
        <time>2020-09-12T10:34:52.000Z</time>
      </trkpt>
      <trkpt lat="43.6084" lon="3.79374">
        <ele>68.2150016</ele>
        <time>2020-09-12T10:34:53.000Z</time>
      </trkpt>
      <trkpt lat="43.60841" lon="3.79385">
        <ele>67.7150016</ele>
        <time>2020-09-12T10:34:54.000Z</time>
      </trkpt>
      <trkpt lat="43.60842" lon="3.79397">
        <ele>67.2150016</ele>
        <time>2020-09-12T10:34:55.000Z</time>
      </trkpt>
      <trkpt lat="43.60843" lon="3.79408">
        <ele>66.7150016</ele>
        <time>2020-09-12T10:34:56.000Z</time>
      </trkpt>
      <trkpt lat="43.60844" lon="3.7942">
        <ele>66.2150016</ele>
        <time>2020-09-12T10:34:57.000Z</time>
      </trkpt>
      <trkpt lat="43.60845" lon="3.79431">
        <ele>65.834142592701</ele>
        <time>2020-09-12T10:34:58.000Z</time>
      </trkpt>
      <trkpt lat="43.60846" lon="3.79443">
        <ele>65.543163051589</ele>
        <time>2020-09-12T10:34:59.000Z</time>
      </trkpt>
      <trkpt lat="43.60847" lon="3.79454">
        <ele>65.252183510476</ele>
        <time>2020-09-12T10:35:00.000Z</time>
      </trkpt>
      <trkpt lat="43.60849" lon="3.79466">
        <ele>64.961203969364</ele>
        <time>2020-09-12T10:35:01.000Z</time>
      </trkpt>
      <trkpt lat="43.60851" lon="3.79478">
        <ele>64.670224428252</ele>
        <time>2020-09-12T10:35:02.000Z</time>
      </trkpt>
      <trkpt lat="43.60852" lon="3.79489">
        <ele>64.37924488714</ele>
        <time>2020-09-12T10:35:03.000Z</time>
      </trkpt>
      <trkpt lat="43.60854" lon="3.79501">
        <ele>64.088265346028</ele>
        <time>2020-09-12T10:35:04.000Z</time>
      </trkpt>
      <trkpt lat="43.60856" lon="3.79512">
        <ele>63.797285804916</ele>
        <time>2020-09-12T10:35:05.000Z</time>
      </trkpt>
      <trkpt lat="43.60858" lon="3.79524">
        <ele>63.506306263804</ele>
        <time>2020-09-12T10:35:06.000Z</time>
      </trkpt>
      <trkpt lat="43.60859" lon="3.79535">
        <ele>63.215326722692</ele>
        <time>2020-09-12T10:35:07.000Z</time>
      </trkpt>
      <trkpt lat="43.60861" lon="3.79547">
        <ele>62.919506598805</ele>
        <time>2020-09-12T10:35:08.000Z</time>
      </trkpt>
      <trkpt lat="43.60863" lon="3.79558">
        <ele>62.609908973345</ele>
        <time>2020-09-12T10:35:09.000Z</time>
      </trkpt>
      <trkpt lat="43.60865" lon="3.7957">
        <ele>62.300311347884</ele>
        <time>2020-09-12T10:35:10.000Z</time>
      </trkpt>
      <trkpt lat="43.60867" lon="3.79581">
        <ele>61.990713722424</ele>
        <time>2020-09-12T10:35:11.000Z</time>
      </trkpt>
      <trkpt lat="43.60869" lon="3.79593">
        <ele>61.681116096963</ele>
        <time>2020-09-12T10:35:12.000Z</time>
      </trkpt>
      <trkpt lat="43.60872" lon="3.79604">
        <ele>61.371518471502</ele>
        <time>2020-09-12T10:35:13.000Z</time>
      </trkpt>
      <trkpt lat="43.60874" lon="3.79615">
        <ele>61.061920846042</ele>
        <time>2020-09-12T10:35:14.000Z</time>
      </trkpt>
      <trkpt lat="43.60877" lon="3.79627">
        <ele>60.752323220582</ele>
        <time>2020-09-12T10:35:15.000Z</time>
      </trkpt>
      <trkpt lat="43.60879" lon="3.79638">
        <ele>60.442725595121</ele>
        <time>2020-09-12T10:35:16.000Z</time>
      </trkpt>
      <trkpt lat="43.60882" lon="3.7965">
        <ele>60.13312796966</ele>
        <time>2020-09-12T10:35:17.000Z</time>
      </trkpt>
      <trkpt lat="43.60884" lon="3.79662">
        <ele>59.77200128</ele>
        <time>2020-09-12T10:35:18.000Z</time>
      </trkpt>
      <trkpt lat="43.60886" lon="3.79674">
        <ele>59.37200128</ele>
        <time>2020-09-12T10:35:19.000Z</time>
      </trkpt>
      <trkpt lat="43.60889" lon="3.79686">
        <ele>58.97200128</ele>
        <time>2020-09-12T10:35:20.000Z</time>
      </trkpt>
      <trkpt lat="43.60891" lon="3.79698">
        <ele>58.57200128</ele>
        <time>2020-09-12T10:35:21.000Z</time>
      </trkpt>
      <trkpt lat="43.60893" lon="3.7971">
        <ele>58.17200128</ele>
        <time>2020-09-12T10:35:22.000Z</time>
      </trkpt>
      <trkpt lat="43.60895" lon="3.79722">
        <ele>57.77200128</ele>
        <time>2020-09-12T10:35:23.000Z</time>
      </trkpt>
      <trkpt lat="43.60899" lon="3.79734">
        <ele>57.37200128</ele>
        <time>2020-09-12T10:35:24.000Z</time>
      </trkpt>
      <trkpt lat="43.60902" lon="3.79745">
        <ele>56.97200128</ele>
        <time>2020-09-12T10:35:25.000Z</time>
      </trkpt>
      <trkpt lat="43.60905" lon="3.79757">
        <ele>56.57200128</ele>
        <time>2020-09-12T10:35:26.000Z</time>
      </trkpt>
      <trkpt lat="43.60908" lon="3.79769">
        <ele>56.17200128</ele>
        <time>2020-09-12T10:35:27.000Z</time>
      </trkpt>
      <trkpt lat="43.60911" lon="3.7978">
        <ele>55.82900096</ele>
        <time>2020-09-12T10:35:28.000Z</time>
      </trkpt>
      <trkpt lat="43.60913" lon="3.79792">
        <ele>55.52900096</ele>
        <time>2020-09-12T10:35:29.000Z</time>
      </trkpt>
      <trkpt lat="43.60916" lon="3.79804">
        <ele>55.22900096</ele>
        <time>2020-09-12T10:35:30.000Z</time>
      </trkpt>
      <trkpt lat="43.60918" lon="3.79816">
        <ele>54.92900096</ele>
        <time>2020-09-12T10:35:31.000Z</time>
      </trkpt>
      <trkpt lat="43.6092" lon="3.79827">
        <ele>54.62900096</ele>
        <time>2020-09-12T10:35:32.000Z</time>
      </trkpt>
      <trkpt lat="43.60923" lon="3.79838">
        <ele>54.32900096</ele>
        <time>2020-09-12T10:35:33.000Z</time>
      </trkpt>
      <trkpt lat="43.60925" lon="3.7985">
        <ele>54.02900096</ele>
        <time>2020-09-12T10:35:34.000Z</time>
      </trkpt>
      <trkpt lat="43.60927" lon="3.79861">
        <ele>53.72900096</ele>
        <time>2020-09-12T10:35:35.000Z</time>
      </trkpt>
      <trkpt lat="43.6093" lon="3.79872">
        <ele>53.42900096</ele>
        <time>2020-09-12T10:35:36.000Z</time>
      </trkpt>
      <trkpt lat="43.60933" lon="3.79883">
        <ele>53.12900096</ele>
        <time>2020-09-12T10:35:37.000Z</time>
      </trkpt>
      <trkpt lat="43.60936" lon="3.79893">
        <ele>52.88600064</ele>
        <time>2020-09-12T10:35:38.000Z</time>
      </trkpt>
      <trkpt lat="43.6094" lon="3.79904">
        <ele>52.68600064</ele>
        <time>2020-09-12T10:35:39.000Z</time>
      </trkpt>
      <trkpt lat="43.60943" lon="3.79915">
        <ele>52.48600064</ele>
        <time>2020-09-12T10:35:40.000Z</time>
      </trkpt>
      <trkpt lat="43.60946" lon="3.79926">
        <ele>52.28600064</ele>
        <time>2020-09-12T10:35:41.000Z</time>
      </trkpt>
      <trkpt lat="43.60948" lon="3.79936">
        <ele>52.08600064</ele>
        <time>2020-09-12T10:35:42.000Z</time>
      </trkpt>
      <trkpt lat="43.6095" lon="3.79947">
        <ele>51.88600064</ele>
        <time>2020-09-12T10:35:43.000Z</time>
      </trkpt>
      <trkpt lat="43.60953" lon="3.79958">
        <ele>51.68600064</ele>
        <time>2020-09-12T10:35:44.000Z</time>
      </trkpt>
      <trkpt lat="43.60955" lon="3.79968">
        <ele>51.48600064</ele>
        <time>2020-09-12T10:35:45.000Z</time>
      </trkpt>
      <trkpt lat="43.60957" lon="3.79979">
        <ele>51.28600064</ele>
        <time>2020-09-12T10:35:46.000Z</time>
      </trkpt>
      <trkpt lat="43.60959" lon="3.79989">
        <ele>51.08600064</ele>
        <time>2020-09-12T10:35:47.000Z</time>
      </trkpt>
      <trkpt lat="43.60961" lon="3.79999">
        <ele>50.88600064</ele>
        <time>2020-09-12T10:35:48.000Z</time>
      </trkpt>
      <trkpt lat="43.60963" lon="3.80009">
        <ele>50.68600064</ele>
        <time>2020-09-12T10:35:49.000Z</time>
      </trkpt>
      <trkpt lat="43.60964" lon="3.80019">
        <ele>50.48600064</ele>
        <time>2020-09-12T10:35:50.000Z</time>
      </trkpt>
      <trkpt lat="43.60966" lon="3.80028">
        <ele>50.28600064</ele>
        <time>2020-09-12T10:35:51.000Z</time>
      </trkpt>
      <trkpt lat="43.60967" lon="3.80038">
        <ele>50.08600064</ele>
        <time>2020-09-12T10:35:52.000Z</time>
      </trkpt>
      <trkpt lat="43.60968" lon="3.80047">
        <ele>49.88600064</ele>
        <time>2020-09-12T10:35:53.000Z</time>
      </trkpt>
      <trkpt lat="43.6097" lon="3.80056">
        <ele>49.68600064</ele>
        <time>2020-09-12T10:35:54.000Z</time>
      </trkpt>
      <trkpt lat="43.60971" lon="3.80065">
        <ele>49.48600064</ele>
        <time>2020-09-12T10:35:55.000Z</time>
      </trkpt>
      <trkpt lat="43.60974" lon="3.80073">
        <ele>49.28600064</ele>
        <time>2020-09-12T10:35:56.000Z</time>
      </trkpt>
      <trkpt lat="43.60976" lon="3.80082">
        <ele>49.08600064</ele>
        <time>2020-09-12T10:35:57.000Z</time>
      </trkpt>
      <trkpt lat="43.60978" lon="3.80091">
        <ele>49.05699968</ele>
        <time>2020-09-12T10:35:58.000Z</time>
      </trkpt>
      <trkpt lat="43.60981" lon="3.801">
        <ele>49.15699968</ele>
        <time>2020-09-12T10:35:59.000Z</time>
      </trkpt>
      <trkpt lat="43.60983" lon="3.80108">
        <ele>49.25699968</ele>
        <time>2020-09-12T10:36:00.000Z</time>
      </trkpt>
      <trkpt lat="43.60985" lon="3.80117">
        <ele>49.35699968</ele>
        <time>2020-09-12T10:36:01.000Z</time>
      </trkpt>
      <trkpt lat="43.60987" lon="3.80125">
        <ele>49.45699968</ele>
        <time>2020-09-12T10:36:02.000Z</time>
      </trkpt>
      <trkpt lat="43.60988" lon="3.80134">
        <ele>49.55699968</ele>
        <time>2020-09-12T10:36:03.000Z</time>
      </trkpt>
      <trkpt lat="43.6099" lon="3.80142">
        <ele>49.65699968</ele>
        <time>2020-09-12T10:36:04.000Z</time>
      </trkpt>
      <trkpt lat="43.60991" lon="3.8015">
        <ele>49.75699968</ele>
        <time>2020-09-12T10:36:05.000Z</time>
      </trkpt>
      <trkpt lat="43.60993" lon="3.80158">
        <ele>49.85699968</ele>
        <time>2020-09-12T10:36:06.000Z</time>
      </trkpt>
      <trkpt lat="43.60995" lon="3.80166">
        <ele>49.95699968</ele>
        <time>2020-09-12T10:36:07.000Z</time>
      </trkpt>
      <trkpt lat="43.60996" lon="3.80174">
        <ele>50.05699968</ele>
        <time>2020-09-12T10:36:08.000Z</time>
      </trkpt>
      <trkpt lat="43.60998" lon="3.80181">
        <ele>50.15699968</ele>
        <time>2020-09-12T10:36:09.000Z</time>
      </trkpt>
      <trkpt lat="43.60999" lon="3.80189">
        <ele>50.25699968</ele>
        <time>2020-09-12T10:36:10.000Z</time>
      </trkpt>
      <trkpt lat="43.61001" lon="3.80197">
        <ele>50.35699968</ele>
        <time>2020-09-12T10:36:11.000Z</time>
      </trkpt>
      <trkpt lat="43.61002" lon="3.80205">
        <ele>50.45699968</ele>
        <time>2020-09-12T10:36:12.000Z</time>
      </trkpt>
      <trkpt lat="43.61004" lon="3.80212">
        <ele>50.55699968</ele>
        <time>2020-09-12T10:36:13.000Z</time>
      </trkpt>
      <trkpt lat="43.61005" lon="3.8022">
        <ele>50.65699968</ele>
        <time>2020-09-12T10:36:14.000Z</time>
      </trkpt>
      <trkpt lat="43.61006" lon="3.80227">
        <ele>50.75699968</ele>
        <time>2020-09-12T10:36:15.000Z</time>
      </trkpt>
      <trkpt lat="43.61008" lon="3.80235">
        <ele>50.85699968</ele>
        <time>2020-09-12T10:36:16.000Z</time>
      </trkpt>
      <trkpt lat="43.61009" lon="3.80242">
        <ele>50.95699968</ele>
        <time>2020-09-12T10:36:17.000Z</time>
      </trkpt>
      <trkpt lat="43.61011" lon="3.80249">
        <ele>51</ele>
        <time>2020-09-12T10:36:18.000Z</time>
      </trkpt>
      <trkpt lat="43.61013" lon="3.80256">
        <ele>51</ele>
        <time>2020-09-12T10:36:19.000Z</time>
      </trkpt>
      <trkpt lat="43.61014" lon="3.80263">
        <ele>51</ele>
        <time>2020-09-12T10:36:20.000Z</time>
      </trkpt>
      <trkpt lat="43.61016" lon="3.8027">
        <ele>51</ele>
        <time>2020-09-12T10:36:21.000Z</time>
      </trkpt>
      <trkpt lat="43.61017" lon="3.80278">
        <ele>51</ele>
        <time>2020-09-12T10:36:22.000Z</time>
      </trkpt>
      <trkpt lat="43.61019" lon="3.80285">
        <ele>51</ele>
        <time>2020-09-12T10:36:23.000Z</time>
      </trkpt>
      <trkpt lat="43.6102" lon="3.80292">
        <ele>51</ele>
        <time>2020-09-12T10:36:24.000Z</time>
      </trkpt>
      <trkpt lat="43.61022" lon="3.80298">
        <ele>51</ele>
        <time>2020-09-12T10:36:25.000Z</time>
      </trkpt>
      <trkpt lat="43.61023" lon="3.80305">
        <ele>51</ele>
        <time>2020-09-12T10:36:26.000Z</time>
      </trkpt>
      <trkpt lat="43.61025" lon="3.80312">
        <ele>51</ele>
        <time>2020-09-12T10:36:27.000Z</time>
      </trkpt>
      <trkpt lat="43.61026" lon="3.80318">
        <ele>51.05699968</ele>
        <time>2020-09-12T10:36:28.000Z</time>
      </trkpt>
      <trkpt lat="43.61028" lon="3.80324">
        <ele>51.15699968</ele>
        <time>2020-09-12T10:36:29.000Z</time>
      </trkpt>
      <trkpt lat="43.6103" lon="3.8033">
        <ele>51.25699968</ele>
        <time>2020-09-12T10:36:30.000Z</time>
      </trkpt>
      <trkpt lat="43.61032" lon="3.80336">
        <ele>51.35699968</ele>
        <time>2020-09-12T10:36:31.000Z</time>
      </trkpt>
      <trkpt lat="43.61033" lon="3.80341">
        <ele>51.45699968</ele>
        <time>2020-09-12T10:36:32.000Z</time>
      </trkpt>
      <trkpt lat="43.61035" lon="3.80347">
        <ele>51.55699968</ele>
        <time>2020-09-12T10:36:33.000Z</time>
      </trkpt>
      <trkpt lat="43.61037" lon="3.80353">
        <ele>51.65699968</ele>
        <time>2020-09-12T10:36:34.000Z</time>
      </trkpt>
      <trkpt lat="43.61039" lon="3.80358">
        <ele>51.75699968</ele>
        <time>2020-09-12T10:36:35.000Z</time>
      </trkpt>
      <trkpt lat="43.6104" lon="3.80363">
        <ele>51.85699968</ele>
        <time>2020-09-12T10:36:36.000Z</time>
      </trkpt>
      <trkpt lat="43.61042" lon="3.80369">
        <ele>51.95699968</ele>
        <time>2020-09-12T10:36:37.000Z</time>
      </trkpt>
      <trkpt lat="43.61044" lon="3.80374">
        <ele>52</ele>
        <time>2020-09-12T10:36:38.000Z</time>
      </trkpt>
      <trkpt lat="43.61046" lon="3.8038">
        <ele>52</ele>
        <time>2020-09-12T10:36:39.000Z</time>
      </trkpt>
      <trkpt lat="43.61048" lon="3.80385">
        <ele>52</ele>
        <time>2020-09-12T10:36:40.000Z</time>
      </trkpt>
      <trkpt lat="43.6105" lon="3.80391">
        <ele>52</ele>
        <time>2020-09-12T10:36:41.000Z</time>
      </trkpt>
      <trkpt lat="43.61052" lon="3.80396">
        <ele>52</ele>
        <time>2020-09-12T10:36:42.000Z</time>
      </trkpt>
      <trkpt lat="43.61054" lon="3.80401">
        <ele>52</ele>
        <time>2020-09-12T10:36:43.000Z</time>
      </trkpt>
      <trkpt lat="43.61057" lon="3.80406">
        <ele>52</ele>
        <time>2020-09-12T10:36:44.000Z</time>
      </trkpt>
      <trkpt lat="43.61059" lon="3.80412">
        <ele>52</ele>
        <time>2020-09-12T10:36:45.000Z</time>
      </trkpt>
      <trkpt lat="43.61061" lon="3.80417">
        <ele>52</ele>
        <time>2020-09-12T10:36:46.000Z</time>
      </trkpt>
      <trkpt lat="43.61063" lon="3.80422">
        <ele>52</ele>
        <time>2020-09-12T10:36:47.000Z</time>
      </trkpt>
      <trkpt lat="43.61066" lon="3.80427">
        <ele>52</ele>
        <time>2020-09-12T10:36:48.000Z</time>
      </trkpt>
      <trkpt lat="43.61068" lon="3.80432">
        <ele>52</ele>
        <time>2020-09-12T10:36:49.000Z</time>
      </trkpt>
      <trkpt lat="43.61071" lon="3.80438">
        <ele>52</ele>
        <time>2020-09-12T10:36:50.000Z</time>
      </trkpt>
      <trkpt lat="43.61073" lon="3.80443">
        <ele>52</ele>
        <time>2020-09-12T10:36:51.000Z</time>
      </trkpt>
      <trkpt lat="43.61076" lon="3.80448">
        <ele>52</ele>
        <time>2020-09-12T10:36:52.000Z</time>
      </trkpt>
      <trkpt lat="43.61078" lon="3.80454">
        <ele>52</ele>
        <time>2020-09-12T10:36:53.000Z</time>
      </trkpt>
      <trkpt lat="43.61081" lon="3.80459">
        <ele>52</ele>
        <time>2020-09-12T10:36:54.000Z</time>
      </trkpt>
      <trkpt lat="43.61083" lon="3.80464">
        <ele>52</ele>
        <time>2020-09-12T10:36:55.000Z</time>
      </trkpt>
      <trkpt lat="43.61086" lon="3.8047">
        <ele>52</ele>
        <time>2020-09-12T10:36:56.000Z</time>
      </trkpt>
      <trkpt lat="43.61088" lon="3.80475">
        <ele>52</ele>
        <time>2020-09-12T10:36:57.000Z</time>
      </trkpt>
      <trkpt lat="43.6109" lon="3.8048">
        <ele>52</ele>
        <time>2020-09-12T10:36:58.000Z</time>
      </trkpt>
      <trkpt lat="43.61092" lon="3.80485">
        <ele>52</ele>
        <time>2020-09-12T10:36:59.000Z</time>
      </trkpt>
      <trkpt lat="43.61094" lon="3.80491">
        <ele>52</ele>
        <time>2020-09-12T10:37:00.000Z</time>
      </trkpt>
      <trkpt lat="43.61095" lon="3.80496">
        <ele>52</ele>
        <time>2020-09-12T10:37:01.000Z</time>
      </trkpt>
      <trkpt lat="43.61097" lon="3.80501">
        <ele>52</ele>
        <time>2020-09-12T10:37:02.000Z</time>
      </trkpt>
      <trkpt lat="43.611" lon="3.80504">
        <ele>52</ele>
        <time>2020-09-12T10:37:03.000Z</time>
      </trkpt>
      <trkpt lat="43.61103" lon="3.80508">
        <ele>52</ele>
        <time>2020-09-12T10:37:04.000Z</time>
      </trkpt>
      <trkpt lat="43.61106" lon="3.80512">
        <ele>52</ele>
        <time>2020-09-12T10:37:05.000Z</time>
      </trkpt>
      <trkpt lat="43.61109" lon="3.80516">
        <ele>52</ele>
        <time>2020-09-12T10:37:06.000Z</time>
      </trkpt>
      <trkpt lat="43.61111" lon="3.8052">
        <ele>52</ele>
        <time>2020-09-12T10:37:07.000Z</time>
      </trkpt>
      <trkpt lat="43.61113" lon="3.80526">
        <ele>52</ele>
        <time>2020-09-12T10:37:08.000Z</time>
      </trkpt>
      <trkpt lat="43.61114" lon="3.80531">
        <ele>52</ele>
        <time>2020-09-12T10:37:09.000Z</time>
      </trkpt>
      <trkpt lat="43.61116" lon="3.80537">
        <ele>52</ele>
        <time>2020-09-12T10:37:10.000Z</time>
      </trkpt>
      <trkpt lat="43.61118" lon="3.80542">
        <ele>52</ele>
        <time>2020-09-12T10:37:11.000Z</time>
      </trkpt>
      <trkpt lat="43.61121" lon="3.80547">
        <ele>52</ele>
        <time>2020-09-12T10:37:12.000Z</time>
      </trkpt>
      <trkpt lat="43.61124" lon="3.80552">
        <ele>52</ele>
        <time>2020-09-12T10:37:13.000Z</time>
      </trkpt>
      <trkpt lat="43.61126" lon="3.80558">
        <ele>52</ele>
        <time>2020-09-12T10:37:14.000Z</time>
      </trkpt>
      <trkpt lat="43.61129" lon="3.80563">
        <ele>52</ele>
        <time>2020-09-12T10:37:15.000Z</time>
      </trkpt>
      <trkpt lat="43.61131" lon="3.80568">
        <ele>52</ele>
        <time>2020-09-12T10:37:16.000Z</time>
      </trkpt>
      <trkpt lat="43.61134" lon="3.80573">
        <ele>52</ele>
        <time>2020-09-12T10:37:17.000Z</time>
      </trkpt>
      <trkpt lat="43.61137" lon="3.80578">
        <ele>52</ele>
        <time>2020-09-12T10:37:18.000Z</time>
      </trkpt>
      <trkpt lat="43.61139" lon="3.80583">
        <ele>52</ele>
        <time>2020-09-12T10:37:19.000Z</time>
      </trkpt>
      <trkpt lat="43.61142" lon="3.80588">
        <ele>52</ele>
        <time>2020-09-12T10:37:20.000Z</time>
      </trkpt>
      <trkpt lat="43.61145" lon="3.80593">
        <ele>52</ele>
        <time>2020-09-12T10:37:21.000Z</time>
      </trkpt>
      <trkpt lat="43.61148" lon="3.80599">
        <ele>52</ele>
        <time>2020-09-12T10:37:22.000Z</time>
      </trkpt>
      <trkpt lat="43.6115" lon="3.80604">
        <ele>52</ele>
        <time>2020-09-12T10:37:23.000Z</time>
      </trkpt>
      <trkpt lat="43.61153" lon="3.8061">
        <ele>52</ele>
        <time>2020-09-12T10:37:24.000Z</time>
      </trkpt>
      <trkpt lat="43.61156" lon="3.80615">
        <ele>52</ele>
        <time>2020-09-12T10:37:25.000Z</time>
      </trkpt>
      <trkpt lat="43.61159" lon="3.80621">
        <ele>52</ele>
        <time>2020-09-12T10:37:26.000Z</time>
      </trkpt>
      <trkpt lat="43.61162" lon="3.80626">
        <ele>52</ele>
        <time>2020-09-12T10:37:27.000Z</time>
      </trkpt>
      <trkpt lat="43.61165" lon="3.80632">
        <ele>52</ele>
        <time>2020-09-12T10:37:28.000Z</time>
      </trkpt>
      <trkpt lat="43.61168" lon="3.80638">
        <ele>52</ele>
        <time>2020-09-12T10:37:29.000Z</time>
      </trkpt>
      <trkpt lat="43.61171" lon="3.80644">
        <ele>52</ele>
        <time>2020-09-12T10:37:30.000Z</time>
      </trkpt>
      <trkpt lat="43.61174" lon="3.8065">
        <ele>52</ele>
        <time>2020-09-12T10:37:31.000Z</time>
      </trkpt>
      <trkpt lat="43.61177" lon="3.80656">
        <ele>52</ele>
        <time>2020-09-12T10:37:32.000Z</time>
      </trkpt>
      <trkpt lat="43.6118" lon="3.80662">
        <ele>52</ele>
        <time>2020-09-12T10:37:33.000Z</time>
      </trkpt>
      <trkpt lat="43.61183" lon="3.80668">
        <ele>52</ele>
        <time>2020-09-12T10:37:34.000Z</time>
      </trkpt>
      <trkpt lat="43.61185" lon="3.80674">
        <ele>52</ele>
        <time>2020-09-12T10:37:35.000Z</time>
      </trkpt>
      <trkpt lat="43.61188" lon="3.8068">
        <ele>52</ele>
        <time>2020-09-12T10:37:36.000Z</time>
      </trkpt>
      <trkpt lat="43.6119" lon="3.80685">
        <ele>52</ele>
        <time>2020-09-12T10:37:37.000Z</time>
      </trkpt>
      <trkpt lat="43.61193" lon="3.80691">
        <ele>52</ele>
        <time>2020-09-12T10:37:38.000Z</time>
      </trkpt>
      <trkpt lat="43.61195" lon="3.80696">
        <ele>52</ele>
        <time>2020-09-12T10:37:39.000Z</time>
      </trkpt>
      <trkpt lat="43.61198" lon="3.80701">
        <ele>52</ele>
        <time>2020-09-12T10:37:40.000Z</time>
      </trkpt>
      <trkpt lat="43.612" lon="3.80706">
        <ele>52</ele>
        <time>2020-09-12T10:37:41.000Z</time>
      </trkpt>
      <trkpt lat="43.61202" lon="3.8071">
        <ele>52</ele>
        <time>2020-09-12T10:37:42.000Z</time>
      </trkpt>
      <trkpt lat="43.61204" lon="3.80715">
        <ele>52</ele>
        <time>2020-09-12T10:37:43.000Z</time>
      </trkpt>
      <trkpt lat="43.61206" lon="3.8072">
        <ele>52</ele>
        <time>2020-09-12T10:37:44.000Z</time>
      </trkpt>
      <trkpt lat="43.61208" lon="3.80724">
        <ele>52</ele>
        <time>2020-09-12T10:37:45.000Z</time>
      </trkpt>
      <trkpt lat="43.6121" lon="3.80728">
        <ele>52</ele>
        <time>2020-09-12T10:37:46.000Z</time>
      </trkpt>
      <trkpt lat="43.61213" lon="3.80733">
        <ele>52</ele>
        <time>2020-09-12T10:37:47.000Z</time>
      </trkpt>
      <trkpt lat="43.61215" lon="3.80737">
        <ele>52</ele>
        <time>2020-09-12T10:37:48.000Z</time>
      </trkpt>
      <trkpt lat="43.61217" lon="3.80742">
        <ele>52</ele>
        <time>2020-09-12T10:37:49.000Z</time>
      </trkpt>
      <trkpt lat="43.61219" lon="3.80746">
        <ele>52</ele>
        <time>2020-09-12T10:37:50.000Z</time>
      </trkpt>
      <trkpt lat="43.61221" lon="3.80751">
        <ele>52</ele>
        <time>2020-09-12T10:37:51.000Z</time>
      </trkpt>
      <trkpt lat="43.61223" lon="3.80755">
        <ele>52</ele>
        <time>2020-09-12T10:37:52.000Z</time>
      </trkpt>
      <trkpt lat="43.61225" lon="3.8076">
        <ele>52</ele>
        <time>2020-09-12T10:37:53.000Z</time>
      </trkpt>
      <trkpt lat="43.61227" lon="3.80765">
        <ele>52</ele>
        <time>2020-09-12T10:37:54.000Z</time>
      </trkpt>
      <trkpt lat="43.61228" lon="3.8077">
        <ele>52</ele>
        <time>2020-09-12T10:37:55.000Z</time>
      </trkpt>
      <trkpt lat="43.6123" lon="3.80774">
        <ele>52</ele>
        <time>2020-09-12T10:37:56.000Z</time>
      </trkpt>
      <trkpt lat="43.61231" lon="3.80777">
        <ele>52</ele>
        <time>2020-09-12T10:37:57.000Z</time>
      </trkpt>
      <trkpt lat="43.61232" lon="3.8078">
        <ele>52</ele>
        <time>2020-09-12T10:37:58.000Z</time>
      </trkpt>
      <trkpt lat="43.61233" lon="3.80782">
        <ele>52</ele>
        <time>2020-09-12T10:37:59.000Z</time>
      </trkpt>
      <trkpt lat="43.61234" lon="3.80785">
        <ele>52</ele>
        <time>2020-09-12T10:38:00.000Z</time>
      </trkpt>
      <trkpt lat="43.61233" lon="3.80788">
        <ele>52</ele>
        <time>2020-09-12T10:38:01.000Z</time>
      </trkpt>
      <trkpt lat="43.61231" lon="3.80791">
        <ele>52</ele>
        <time>2020-09-12T10:38:02.000Z</time>
      </trkpt>
      <trkpt lat="43.61229" lon="3.80795">
        <ele>52</ele>
        <time>2020-09-12T10:38:03.000Z</time>
      </trkpt>
      <trkpt lat="43.61226" lon="3.80799">
        <ele>52</ele>
        <time>2020-09-12T10:38:04.000Z</time>
      </trkpt>
      <trkpt lat="43.61224" lon="3.80803">
        <ele>52</ele>
        <time>2020-09-12T10:38:05.000Z</time>
      </trkpt>
      <trkpt lat="43.61222" lon="3.80808">
        <ele>52</ele>
        <time>2020-09-12T10:38:06.000Z</time>
      </trkpt>
      <trkpt lat="43.61222" lon="3.80812">
        <ele>52</ele>
        <time>2020-09-12T10:38:07.000Z</time>
      </trkpt>
      <trkpt lat="43.61222" lon="3.80815">
        <ele>51.94300032</ele>
        <time>2020-09-12T10:38:08.000Z</time>
      </trkpt>
      <trkpt lat="43.61224" lon="3.80816">
        <ele>51.74300032</ele>
        <time>2020-09-12T10:38:10.000Z</time>
      </trkpt>
      <trkpt lat="43.61227" lon="3.80813">
        <ele>51.54300032</ele>
        <time>2020-09-12T10:38:12.000Z</time>
      </trkpt>
      <trkpt lat="43.61229" lon="3.8081">
        <ele>51.44300032</ele>
        <time>2020-09-12T10:38:13.000Z</time>
      </trkpt>
      <trkpt lat="43.61231" lon="3.80808">
        <ele>51.34300032</ele>
        <time>2020-09-12T10:38:14.000Z</time>
      </trkpt>
      <trkpt lat="43.61233" lon="3.80807">
        <ele>51.24300032</ele>
        <time>2020-09-12T10:38:15.000Z</time>
      </trkpt>
      <trkpt lat="43.61235" lon="3.80807">
        <ele>51.14300032</ele>
        <time>2020-09-12T10:38:16.000Z</time>
      </trkpt>
      <trkpt lat="43.61237" lon="3.80809">
        <ele>51.04300032</ele>
        <time>2020-09-12T10:38:17.000Z</time>
      </trkpt>
      <trkpt lat="43.6124" lon="3.80813">
        <ele>51</ele>
        <time>2020-09-12T10:38:18.000Z</time>
      </trkpt>
      <trkpt lat="43.61242" lon="3.80817">
        <ele>51</ele>
        <time>2020-09-12T10:38:19.000Z</time>
      </trkpt>
      <trkpt lat="43.61244" lon="3.80821">
        <ele>51</ele>
        <time>2020-09-12T10:38:20.000Z</time>
      </trkpt>
      <trkpt lat="43.61247" lon="3.80824">
        <ele>51</ele>
        <time>2020-09-12T10:38:21.000Z</time>
      </trkpt>
      <trkpt lat="43.61249" lon="3.80828">
        <ele>51</ele>
        <time>2020-09-12T10:38:22.000Z</time>
      </trkpt>
      <trkpt lat="43.61251" lon="3.80833">
        <ele>51</ele>
        <time>2020-09-12T10:38:23.000Z</time>
      </trkpt>
      <trkpt lat="43.61253" lon="3.80839">
        <ele>51</ele>
        <time>2020-09-12T10:38:24.000Z</time>
      </trkpt>
      <trkpt lat="43.61256" lon="3.80844">
        <ele>51</ele>
        <time>2020-09-12T10:38:25.000Z</time>
      </trkpt>
      <trkpt lat="43.61258" lon="3.8085">
        <ele>51</ele>
        <time>2020-09-12T10:38:26.000Z</time>
      </trkpt>
      <trkpt lat="43.6126" lon="3.80855">
        <ele>51</ele>
        <time>2020-09-12T10:38:27.000Z</time>
      </trkpt>
      <trkpt lat="43.61262" lon="3.80861">
        <ele>51.05699968</ele>
        <time>2020-09-12T10:38:28.000Z</time>
      </trkpt>
      <trkpt lat="43.61265" lon="3.80866">
        <ele>51.15699968</ele>
        <time>2020-09-12T10:38:29.000Z</time>
      </trkpt>
      <trkpt lat="43.61268" lon="3.8087">
        <ele>51.25699968</ele>
        <time>2020-09-12T10:38:30.000Z</time>
      </trkpt>
      <trkpt lat="43.61271" lon="3.80875">
        <ele>51.35699968</ele>
        <time>2020-09-12T10:38:31.000Z</time>
      </trkpt>
      <trkpt lat="43.61273" lon="3.8088">
        <ele>51.45699968</ele>
        <time>2020-09-12T10:38:32.000Z</time>
      </trkpt>
      <trkpt lat="43.61275" lon="3.80886">
        <ele>51.55699968</ele>
        <time>2020-09-12T10:38:33.000Z</time>
      </trkpt>
      <trkpt lat="43.61277" lon="3.80891">
        <ele>51.65699968</ele>
        <time>2020-09-12T10:38:34.000Z</time>
      </trkpt>
      <trkpt lat="43.61278" lon="3.80897">
        <ele>51.75699968</ele>
        <time>2020-09-12T10:38:35.000Z</time>
      </trkpt>
      <trkpt lat="43.6128" lon="3.80903">
        <ele>51.85699968</ele>
        <time>2020-09-12T10:38:36.000Z</time>
      </trkpt>
      <trkpt lat="43.61282" lon="3.8091">
        <ele>51.95699968</ele>
        <time>2020-09-12T10:38:37.000Z</time>
      </trkpt>
      <trkpt lat="43.61284" lon="3.80917">
        <ele>51.94300032</ele>
        <time>2020-09-12T10:38:38.000Z</time>
      </trkpt>
      <trkpt lat="43.61285" lon="3.80924">
        <ele>51.84300032</ele>
        <time>2020-09-12T10:38:39.000Z</time>
      </trkpt>
      <trkpt lat="43.61287" lon="3.80931">
        <ele>51.74300032</ele>
        <time>2020-09-12T10:38:40.000Z</time>
      </trkpt>
      <trkpt lat="43.61289" lon="3.80938">
        <ele>51.64300032</ele>
        <time>2020-09-12T10:38:41.000Z</time>
      </trkpt>
      <trkpt lat="43.61291" lon="3.80946">
        <ele>51.54300032</ele>
        <time>2020-09-12T10:38:42.000Z</time>
      </trkpt>
      <trkpt lat="43.61292" lon="3.80953">
        <ele>51.44300032</ele>
        <time>2020-09-12T10:38:43.000Z</time>
      </trkpt>
      <trkpt lat="43.61294" lon="3.8096">
        <ele>51.34300032</ele>
        <time>2020-09-12T10:38:44.000Z</time>
      </trkpt>
      <trkpt lat="43.61295" lon="3.80967">
        <ele>51.24300032</ele>
        <time>2020-09-12T10:38:45.000Z</time>
      </trkpt>
      <trkpt lat="43.61297" lon="3.80975">
        <ele>51.14300032</ele>
        <time>2020-09-12T10:38:46.000Z</time>
      </trkpt>
      <trkpt lat="43.61298" lon="3.80982">
        <ele>51.04300032</ele>
        <time>2020-09-12T10:38:47.000Z</time>
      </trkpt>
      <trkpt lat="43.613" lon="3.80989">
        <ele>51</ele>
        <time>2020-09-12T10:38:48.000Z</time>
      </trkpt>
      <trkpt lat="43.61301" lon="3.80996">
        <ele>51</ele>
        <time>2020-09-12T10:38:49.000Z</time>
      </trkpt>
      <trkpt lat="43.61302" lon="3.81003">
        <ele>51</ele>
        <time>2020-09-12T10:38:50.000Z</time>
      </trkpt>
      <trkpt lat="43.61304" lon="3.8101">
        <ele>51</ele>
        <time>2020-09-12T10:38:51.000Z</time>
      </trkpt>
      <trkpt lat="43.61305" lon="3.81017">
        <ele>51</ele>
        <time>2020-09-12T10:38:52.000Z</time>
      </trkpt>
      <trkpt lat="43.61307" lon="3.81024">
        <ele>51</ele>
        <time>2020-09-12T10:38:53.000Z</time>
      </trkpt>
      <trkpt lat="43.61309" lon="3.81031">
        <ele>51</ele>
        <time>2020-09-12T10:38:54.000Z</time>
      </trkpt>
      <trkpt lat="43.61311" lon="3.81038">
        <ele>51</ele>
        <time>2020-09-12T10:38:55.000Z</time>
      </trkpt>
      <trkpt lat="43.61312" lon="3.81045">
        <ele>51</ele>
        <time>2020-09-12T10:38:56.000Z</time>
      </trkpt>
      <trkpt lat="43.61314" lon="3.81051">
        <ele>51</ele>
        <time>2020-09-12T10:38:57.000Z</time>
      </trkpt>
      <trkpt lat="43.61315" lon="3.81058">
        <ele>51</ele>
        <time>2020-09-12T10:38:58.000Z</time>
      </trkpt>
      <trkpt lat="43.61317" lon="3.81065">
        <ele>51</ele>
        <time>2020-09-12T10:38:59.000Z</time>
      </trkpt>
      <trkpt lat="43.61318" lon="3.81071">
        <ele>51</ele>
        <time>2020-09-12T10:39:00.000Z</time>
      </trkpt>
      <trkpt lat="43.61319" lon="3.81077">
        <ele>51</ele>
        <time>2020-09-12T10:39:01.000Z</time>
      </trkpt>
      <trkpt lat="43.61321" lon="3.81084">
        <ele>51</ele>
        <time>2020-09-12T10:39:02.000Z</time>
      </trkpt>
      <trkpt lat="43.61322" lon="3.8109">
        <ele>51</ele>
        <time>2020-09-12T10:39:03.000Z</time>
      </trkpt>
      <trkpt lat="43.61323" lon="3.81096">
        <ele>51</ele>
        <time>2020-09-12T10:39:04.000Z</time>
      </trkpt>
      <trkpt lat="43.61324" lon="3.81102">
        <ele>51</ele>
        <time>2020-09-12T10:39:05.000Z</time>
      </trkpt>
      <trkpt lat="43.61326" lon="3.81109">
        <ele>51</ele>
        <time>2020-09-12T10:39:06.000Z</time>
      </trkpt>
      <trkpt lat="43.61328" lon="3.81114">
        <ele>51</ele>
        <time>2020-09-12T10:39:07.000Z</time>
      </trkpt>
      <trkpt lat="43.61331" lon="3.81119">
        <ele>50.943842697508</ele>
        <time>2020-09-12T10:39:08.000Z</time>
      </trkpt>
      <trkpt lat="43.61333" lon="3.81123">
        <ele>50.845320561081</ele>
        <time>2020-09-12T10:39:09.000Z</time>
      </trkpt>
      <trkpt lat="43.61335" lon="3.81129">
        <ele>50.746798424655</ele>
        <time>2020-09-12T10:39:10.000Z</time>
      </trkpt>
      <trkpt lat="43.61337" lon="3.81135">
        <ele>50.648276288228</ele>
        <time>2020-09-12T10:39:11.000Z</time>
      </trkpt>
      <trkpt lat="43.61338" lon="3.81141">
        <ele>50.549754151802</ele>
        <time>2020-09-12T10:39:12.000Z</time>
      </trkpt>
      <trkpt lat="43.6134" lon="3.81147">
        <ele>50.451232015375</ele>
        <time>2020-09-12T10:39:13.000Z</time>
      </trkpt>
      <trkpt lat="43.61342" lon="3.81153">
        <ele>50.352709878949</ele>
        <time>2020-09-12T10:39:14.000Z</time>
      </trkpt>
      <trkpt lat="43.61344" lon="3.8116">
        <ele>50.254187742522</ele>
        <time>2020-09-12T10:39:15.000Z</time>
      </trkpt>
      <trkpt lat="43.61346" lon="3.81166">
        <ele>50.155665606096</ele>
        <time>2020-09-12T10:39:16.000Z</time>
      </trkpt>
      <trkpt lat="43.61349" lon="3.81172">
        <ele>50.057143469669</ele>
        <time>2020-09-12T10:39:17.000Z</time>
      </trkpt>
      <trkpt lat="43.61351" lon="3.81178">
        <ele>49.914722083971</ele>
        <time>2020-09-12T10:39:18.000Z</time>
      </trkpt>
      <trkpt lat="43.61353" lon="3.81185">
        <ele>49.711676332727</ele>
        <time>2020-09-12T10:39:19.000Z</time>
      </trkpt>
      <trkpt lat="43.61355" lon="3.81192">
        <ele>49.508630581484</ele>
        <time>2020-09-12T10:39:20.000Z</time>
      </trkpt>
      <trkpt lat="43.61358" lon="3.81198">
        <ele>49.305584830241</ele>
        <time>2020-09-12T10:39:21.000Z</time>
      </trkpt>
      <trkpt lat="43.6136" lon="3.81205">
        <ele>49.102539078998</ele>
        <time>2020-09-12T10:39:22.000Z</time>
      </trkpt>
      <trkpt lat="43.61363" lon="3.81212">
        <ele>48.899493327754</ele>
        <time>2020-09-12T10:39:23.000Z</time>
      </trkpt>
      <trkpt lat="43.61366" lon="3.81219">
        <ele>48.696447576511</ele>
        <time>2020-09-12T10:39:24.000Z</time>
      </trkpt>
      <trkpt lat="43.61368" lon="3.81226">
        <ele>48.493401825268</ele>
        <time>2020-09-12T10:39:25.000Z</time>
      </trkpt>
      <trkpt lat="43.61371" lon="3.81233">
        <ele>48.290356074024</ele>
        <time>2020-09-12T10:39:26.000Z</time>
      </trkpt>
      <trkpt lat="43.61373" lon="3.8124">
        <ele>48.087310322781</ele>
        <time>2020-09-12T10:39:27.000Z</time>
      </trkpt>
      <trkpt lat="43.61376" lon="3.81246">
        <ele>48</ele>
        <time>2020-09-12T10:39:28.000Z</time>
      </trkpt>
      <trkpt lat="43.61378" lon="3.81253">
        <ele>48</ele>
        <time>2020-09-12T10:39:29.000Z</time>
      </trkpt>
      <trkpt lat="43.61381" lon="3.81259">
        <ele>48</ele>
        <time>2020-09-12T10:39:30.000Z</time>
      </trkpt>
      <trkpt lat="43.61383" lon="3.81266">
        <ele>48</ele>
        <time>2020-09-12T10:39:31.000Z</time>
      </trkpt>
      <trkpt lat="43.61386" lon="3.81272">
        <ele>48</ele>
        <time>2020-09-12T10:39:32.000Z</time>
      </trkpt>
      <trkpt lat="43.61388" lon="3.81279">
        <ele>48</ele>
        <time>2020-09-12T10:39:33.000Z</time>
      </trkpt>
      <trkpt lat="43.61391" lon="3.81285">
        <ele>48</ele>
        <time>2020-09-12T10:39:34.000Z</time>
      </trkpt>
      <trkpt lat="43.61393" lon="3.81292">
        <ele>48</ele>
        <time>2020-09-12T10:39:35.000Z</time>
      </trkpt>
      <trkpt lat="43.61396" lon="3.81299">
        <ele>48</ele>
        <time>2020-09-12T10:39:36.000Z</time>
      </trkpt>
      <trkpt lat="43.61398" lon="3.81306">
        <ele>48</ele>
        <time>2020-09-12T10:39:37.000Z</time>
      </trkpt>
      <trkpt lat="43.614" lon="3.81313">
        <ele>47.94300032</ele>
        <time>2020-09-12T10:39:38.000Z</time>
      </trkpt>
      <trkpt lat="43.61401" lon="3.81321">
        <ele>47.84300032</ele>
        <time>2020-09-12T10:39:39.000Z</time>
      </trkpt>
      <trkpt lat="43.61402" lon="3.81329">
        <ele>47.74300032</ele>
        <time>2020-09-12T10:39:40.000Z</time>
      </trkpt>
      <trkpt lat="43.61403" lon="3.81337">
        <ele>47.64300032</ele>
        <time>2020-09-12T10:39:41.000Z</time>
      </trkpt>
      <trkpt lat="43.61404" lon="3.81345">
        <ele>47.54300032</ele>
        <time>2020-09-12T10:39:42.000Z</time>
      </trkpt>
      <trkpt lat="43.61405" lon="3.81354">
        <ele>47.44300032</ele>
        <time>2020-09-12T10:39:43.000Z</time>
      </trkpt>
      <trkpt lat="43.61405" lon="3.81362">
        <ele>47.34300032</ele>
        <time>2020-09-12T10:39:44.000Z</time>
      </trkpt>
      <trkpt lat="43.61406" lon="3.81371">
        <ele>47.24300032</ele>
        <time>2020-09-12T10:39:45.000Z</time>
      </trkpt>
      <trkpt lat="43.61407" lon="3.81379">
        <ele>47.14300032</ele>
        <time>2020-09-12T10:39:46.000Z</time>
      </trkpt>
      <trkpt lat="43.61407" lon="3.81388">
        <ele>47.04300032</ele>
        <time>2020-09-12T10:39:47.000Z</time>
      </trkpt>
      <trkpt lat="43.61408" lon="3.81397">
        <ele>46.88600064</ele>
        <time>2020-09-12T10:39:48.000Z</time>
      </trkpt>
      <trkpt lat="43.61409" lon="3.81406">
        <ele>46.68600064</ele>
        <time>2020-09-12T10:39:49.000Z</time>
      </trkpt>
      <trkpt lat="43.6141" lon="3.81414">
        <ele>46.48600064</ele>
        <time>2020-09-12T10:39:50.000Z</time>
      </trkpt>
      <trkpt lat="43.61411" lon="3.81423">
        <ele>46.28600064</ele>
        <time>2020-09-12T10:39:51.000Z</time>
      </trkpt>
      <trkpt lat="43.61411" lon="3.81432">
        <ele>46.08600064</ele>
        <time>2020-09-12T10:39:52.000Z</time>
      </trkpt>
      <trkpt lat="43.61412" lon="3.81441">
        <ele>45.88600064</ele>
        <time>2020-09-12T10:39:53.000Z</time>
      </trkpt>
      <trkpt lat="43.61412" lon="3.8145">
        <ele>45.68600064</ele>
        <time>2020-09-12T10:39:54.000Z</time>
      </trkpt>
      <trkpt lat="43.61413" lon="3.81458">
        <ele>45.48600064</ele>
        <time>2020-09-12T10:39:55.000Z</time>
      </trkpt>
      <trkpt lat="43.61413" lon="3.81467">
        <ele>45.28600064</ele>
        <time>2020-09-12T10:39:56.000Z</time>
      </trkpt>
      <trkpt lat="43.61413" lon="3.81476">
        <ele>45.08600064</ele>
        <time>2020-09-12T10:39:57.000Z</time>
      </trkpt>
      <trkpt lat="43.61413" lon="3.81485">
        <ele>44.94300032</ele>
        <time>2020-09-12T10:39:58.000Z</time>
      </trkpt>
      <trkpt lat="43.61414" lon="3.81494">
        <ele>44.84300032</ele>
        <time>2020-09-12T10:39:59.000Z</time>
      </trkpt>
      <trkpt lat="43.61414" lon="3.81502">
        <ele>44.74300032</ele>
        <time>2020-09-12T10:40:00.000Z</time>
      </trkpt>
      <trkpt lat="43.61414" lon="3.81511">
        <ele>44.64300032</ele>
        <time>2020-09-12T10:40:01.000Z</time>
      </trkpt>
      <trkpt lat="43.61415" lon="3.8152">
        <ele>44.54300032</ele>
        <time>2020-09-12T10:40:02.000Z</time>
      </trkpt>
      <trkpt lat="43.61415" lon="3.81528">
        <ele>44.44300032</ele>
        <time>2020-09-12T10:40:03.000Z</time>
      </trkpt>
      <trkpt lat="43.61416" lon="3.81537">
        <ele>44.34300032</ele>
        <time>2020-09-12T10:40:04.000Z</time>
      </trkpt>
      <trkpt lat="43.61416" lon="3.81544">
        <ele>44.24300032</ele>
        <time>2020-09-12T10:40:05.000Z</time>
      </trkpt>
      <trkpt lat="43.61416" lon="3.8155">
        <ele>44.14300032</ele>
        <time>2020-09-12T10:40:06.000Z</time>
      </trkpt>
      <trkpt lat="43.61417" lon="3.81555">
        <ele>44.04300032</ele>
        <time>2020-09-12T10:40:07.000Z</time>
      </trkpt>
      <trkpt lat="43.61417" lon="3.81559">
        <ele>43.88600064</ele>
        <time>2020-09-12T10:40:08.000Z</time>
      </trkpt>
      <trkpt lat="43.61418" lon="3.81562">
        <ele>43.68600064</ele>
        <time>2020-09-12T10:40:09.000Z</time>
      </trkpt>
      <trkpt lat="43.61419" lon="3.81564">
        <ele>43.48600064</ele>
        <time>2020-09-12T10:40:10.000Z</time>
      </trkpt>
      <trkpt lat="43.61422" lon="3.81565">
        <ele>43.28600064</ele>
        <time>2020-09-12T10:40:11.000Z</time>
      </trkpt>
      <trkpt lat="43.61425" lon="3.81565">
        <ele>43.08600064</ele>
        <time>2020-09-12T10:40:12.000Z</time>
      </trkpt>
      <trkpt lat="43.61428" lon="3.81564">
        <ele>42.88600064</ele>
        <time>2020-09-12T10:40:13.000Z</time>
      </trkpt>
      <trkpt lat="43.61432" lon="3.81562">
        <ele>42.68600064</ele>
        <time>2020-09-12T10:40:14.000Z</time>
      </trkpt>
      <trkpt lat="43.61436" lon="3.81561">
        <ele>42.48600064</ele>
        <time>2020-09-12T10:40:15.000Z</time>
      </trkpt>
      <trkpt lat="43.6144" lon="3.81559">
        <ele>42.28600064</ele>
        <time>2020-09-12T10:40:16.000Z</time>
      </trkpt>
      <trkpt lat="43.61443" lon="3.81558">
        <ele>42.08600064</ele>
        <time>2020-09-12T10:40:17.000Z</time>
      </trkpt>
      <trkpt lat="43.61447" lon="3.81557">
        <ele>41.94300032</ele>
        <time>2020-09-12T10:40:18.000Z</time>
      </trkpt>
      <trkpt lat="43.61451" lon="3.81556">
        <ele>41.84300032</ele>
        <time>2020-09-12T10:40:19.000Z</time>
      </trkpt>
      <trkpt lat="43.61454" lon="3.81554">
        <ele>41.74300032</ele>
        <time>2020-09-12T10:40:20.000Z</time>
      </trkpt>
      <trkpt lat="43.61458" lon="3.81552">
        <ele>41.64300032</ele>
        <time>2020-09-12T10:40:21.000Z</time>
      </trkpt>
      <trkpt lat="43.6146" lon="3.81551">
        <ele>41.54300032</ele>
        <time>2020-09-12T10:40:22.000Z</time>
      </trkpt>
      <trkpt lat="43.61463" lon="3.81551">
        <ele>41.34300032</ele>
        <time>2020-09-12T10:40:24.000Z</time>
      </trkpt>
      <trkpt lat="43.61465" lon="3.81551">
        <ele>41.14300032</ele>
        <time>2020-09-12T10:40:26.000Z</time>
      </trkpt>
      <trkpt lat="43.61467" lon="3.81553">
        <ele>41</ele>
        <time>2020-09-12T10:40:28.000Z</time>
      </trkpt>
      <trkpt lat="43.61469" lon="3.81554">
        <ele>41</ele>
        <time>2020-09-12T10:40:30.000Z</time>
      </trkpt>
      <trkpt lat="43.6147" lon="3.81557">
        <ele>41</ele>
        <time>2020-09-12T10:40:36.000Z</time>
      </trkpt>
      <trkpt lat="43.61472" lon="3.8156">
        <ele>40.944606707749</ele>
        <time>2020-09-12T10:40:38.000Z</time>
      </trkpt>
      <trkpt lat="43.61474" lon="3.81563">
        <ele>40.847424947693</ele>
        <time>2020-09-12T10:40:39.000Z</time>
      </trkpt>
      <trkpt lat="43.61475" lon="3.81568">
        <ele>40.750243187636</ele>
        <time>2020-09-12T10:40:40.000Z</time>
      </trkpt>
      <trkpt lat="43.61476" lon="3.81573">
        <ele>40.65306142758</ele>
        <time>2020-09-12T10:40:41.000Z</time>
      </trkpt>
      <trkpt lat="43.61477" lon="3.81578">
        <ele>40.555879667523</ele>
        <time>2020-09-12T10:40:42.000Z</time>
      </trkpt>
      <trkpt lat="43.61478" lon="3.81583">
        <ele>40.458697907467</ele>
        <time>2020-09-12T10:40:43.000Z</time>
      </trkpt>
      <trkpt lat="43.6148" lon="3.81589">
        <ele>40.36151614741</ele>
        <time>2020-09-12T10:40:44.000Z</time>
      </trkpt>
      <trkpt lat="43.61481" lon="3.81594">
        <ele>40.264334387354</ele>
        <time>2020-09-12T10:40:45.000Z</time>
      </trkpt>
      <trkpt lat="43.61483" lon="3.816">
        <ele>40.167152627297</ele>
        <time>2020-09-12T10:40:46.000Z</time>
      </trkpt>
      <trkpt lat="43.61484" lon="3.81606">
        <ele>40.069970867241</ele>
        <time>2020-09-12T10:40:47.000Z</time>
      </trkpt>
      <trkpt lat="43.61486" lon="3.81612">
        <ele>40.028836241784</ele>
        <time>2020-09-12T10:40:48.000Z</time>
      </trkpt>
      <trkpt lat="43.61487" lon="3.81618">
        <ele>40.131822819585</ele>
        <time>2020-09-12T10:40:49.000Z</time>
      </trkpt>
      <trkpt lat="43.61489" lon="3.81624">
        <ele>40.234809397385</ele>
        <time>2020-09-12T10:40:50.000Z</time>
      </trkpt>
      <trkpt lat="43.6149" lon="3.81629">
        <ele>40.337795975186</ele>
        <time>2020-09-12T10:40:51.000Z</time>
      </trkpt>
      <trkpt lat="43.61492" lon="3.81635">
        <ele>40.440782552986</ele>
        <time>2020-09-12T10:40:52.000Z</time>
      </trkpt>
      <trkpt lat="43.61494" lon="3.8164">
        <ele>40.543769130787</ele>
        <time>2020-09-12T10:40:53.000Z</time>
      </trkpt>
      <trkpt lat="43.61495" lon="3.81646">
        <ele>40.646755708587</ele>
        <time>2020-09-12T10:40:54.000Z</time>
      </trkpt>
      <trkpt lat="43.61497" lon="3.81651">
        <ele>40.749742286388</ele>
        <time>2020-09-12T10:40:55.000Z</time>
      </trkpt>
      <trkpt lat="43.61498" lon="3.81657">
        <ele>40.852728864188</ele>
        <time>2020-09-12T10:40:56.000Z</time>
      </trkpt>
      <trkpt lat="43.615" lon="3.81662">
        <ele>40.955715441989</ele>
        <time>2020-09-12T10:40:57.000Z</time>
      </trkpt>
      <trkpt lat="43.61501" lon="3.81668">
        <ele>41</ele>
        <time>2020-09-12T10:40:58.000Z</time>
      </trkpt>
      <trkpt lat="43.61502" lon="3.81673">
        <ele>41</ele>
        <time>2020-09-12T10:40:59.000Z</time>
      </trkpt>
      <trkpt lat="43.61504" lon="3.81678">
        <ele>41</ele>
        <time>2020-09-12T10:41:00.000Z</time>
      </trkpt>
      <trkpt lat="43.61506" lon="3.81683">
        <ele>41</ele>
        <time>2020-09-12T10:41:01.000Z</time>
      </trkpt>
      <trkpt lat="43.61507" lon="3.81688">
        <ele>41</ele>
        <time>2020-09-12T10:41:02.000Z</time>
      </trkpt>
      <trkpt lat="43.61509" lon="3.81694">
        <ele>41</ele>
        <time>2020-09-12T10:41:03.000Z</time>
      </trkpt>
      <trkpt lat="43.61511" lon="3.81699">
        <ele>41</ele>
        <time>2020-09-12T10:41:04.000Z</time>
      </trkpt>
      <trkpt lat="43.61512" lon="3.81705">
        <ele>41</ele>
        <time>2020-09-12T10:41:05.000Z</time>
      </trkpt>
      <trkpt lat="43.61514" lon="3.81711">
        <ele>41</ele>
        <time>2020-09-12T10:41:06.000Z</time>
      </trkpt>
      <trkpt lat="43.61515" lon="3.81716">
        <ele>41</ele>
        <time>2020-09-12T10:41:07.000Z</time>
      </trkpt>
      <trkpt lat="43.61517" lon="3.81722">
        <ele>40.94300032</ele>
        <time>2020-09-12T10:41:08.000Z</time>
      </trkpt>
      <trkpt lat="43.61518" lon="3.81728">
        <ele>40.84300032</ele>
        <time>2020-09-12T10:41:09.000Z</time>
      </trkpt>
      <trkpt lat="43.6152" lon="3.81734">
        <ele>40.74300032</ele>
        <time>2020-09-12T10:41:10.000Z</time>
      </trkpt>
      <trkpt lat="43.61521" lon="3.81739">
        <ele>40.64300032</ele>
        <time>2020-09-12T10:41:11.000Z</time>
      </trkpt>
      <trkpt lat="43.61523" lon="3.81745">
        <ele>40.54300032</ele>
        <time>2020-09-12T10:41:12.000Z</time>
      </trkpt>
      <trkpt lat="43.61525" lon="3.81751">
        <ele>40.44300032</ele>
        <time>2020-09-12T10:41:13.000Z</time>
      </trkpt>
      <trkpt lat="43.61526" lon="3.81758">
        <ele>40.34300032</ele>
        <time>2020-09-12T10:41:14.000Z</time>
      </trkpt>
      <trkpt lat="43.61528" lon="3.81764">
        <ele>40.24300032</ele>
        <time>2020-09-12T10:41:15.000Z</time>
      </trkpt>
      <trkpt lat="43.61529" lon="3.81771">
        <ele>40.14300032</ele>
        <time>2020-09-12T10:41:16.000Z</time>
      </trkpt>
      <trkpt lat="43.61531" lon="3.81778">
        <ele>40.04300032</ele>
        <time>2020-09-12T10:41:17.000Z</time>
      </trkpt>
      <trkpt lat="43.61533" lon="3.81785">
        <ele>40</ele>
        <time>2020-09-12T10:41:18.000Z</time>
      </trkpt>
      <trkpt lat="43.61535" lon="3.81792">
        <ele>40</ele>
        <time>2020-09-12T10:41:19.000Z</time>
      </trkpt>
      <trkpt lat="43.61537" lon="3.81799">
        <ele>40</ele>
        <time>2020-09-12T10:41:20.000Z</time>
      </trkpt>
      <trkpt lat="43.61539" lon="3.81806">
        <ele>40</ele>
        <time>2020-09-12T10:41:21.000Z</time>
      </trkpt>
      <trkpt lat="43.6154" lon="3.81813">
        <ele>40</ele>
        <time>2020-09-12T10:41:22.000Z</time>
      </trkpt>
      <trkpt lat="43.61542" lon="3.8182">
        <ele>40</ele>
        <time>2020-09-12T10:41:23.000Z</time>
      </trkpt>
      <trkpt lat="43.61544" lon="3.81827">
        <ele>40</ele>
        <time>2020-09-12T10:41:24.000Z</time>
      </trkpt>
      <trkpt lat="43.61546" lon="3.81834">
        <ele>40</ele>
        <time>2020-09-12T10:41:25.000Z</time>
      </trkpt>
      <trkpt lat="43.61548" lon="3.81841">
        <ele>40</ele>
        <time>2020-09-12T10:41:26.000Z</time>
      </trkpt>
      <trkpt lat="43.6155" lon="3.81847">
        <ele>40</ele>
        <time>2020-09-12T10:41:27.000Z</time>
      </trkpt>
      <trkpt lat="43.61551" lon="3.81854">
        <ele>40</ele>
        <time>2020-09-12T10:41:28.000Z</time>
      </trkpt>
      <trkpt lat="43.61552" lon="3.81861">
        <ele>40</ele>
        <time>2020-09-12T10:41:29.000Z</time>
      </trkpt>
      <trkpt lat="43.61554" lon="3.81868">
        <ele>40</ele>
        <time>2020-09-12T10:41:30.000Z</time>
      </trkpt>
      <trkpt lat="43.61555" lon="3.81875">
        <ele>40</ele>
        <time>2020-09-12T10:41:31.000Z</time>
      </trkpt>
      <trkpt lat="43.61555" lon="3.81882">
        <ele>40</ele>
        <time>2020-09-12T10:41:32.000Z</time>
      </trkpt>
      <trkpt lat="43.61555" lon="3.81889">
        <ele>40</ele>
        <time>2020-09-12T10:41:33.000Z</time>
      </trkpt>
      <trkpt lat="43.61555" lon="3.81895">
        <ele>40</ele>
        <time>2020-09-12T10:41:34.000Z</time>
      </trkpt>
      <trkpt lat="43.61555" lon="3.81902">
        <ele>40</ele>
        <time>2020-09-12T10:41:35.000Z</time>
      </trkpt>
      <trkpt lat="43.61554" lon="3.81908">
        <ele>40</ele>
        <time>2020-09-12T10:41:36.000Z</time>
      </trkpt>
      <trkpt lat="43.61553" lon="3.81914">
        <ele>40</ele>
        <time>2020-09-12T10:41:37.000Z</time>
      </trkpt>
      <trkpt lat="43.61552" lon="3.8192">
        <ele>40</ele>
        <time>2020-09-12T10:41:38.000Z</time>
      </trkpt>
      <trkpt lat="43.61552" lon="3.81926">
        <ele>40</ele>
        <time>2020-09-12T10:41:39.000Z</time>
      </trkpt>
      <trkpt lat="43.61551" lon="3.81932">
        <ele>40</ele>
        <time>2020-09-12T10:41:40.000Z</time>
      </trkpt>
      <trkpt lat="43.6155" lon="3.81938">
        <ele>40</ele>
        <time>2020-09-12T10:41:41.000Z</time>
      </trkpt>
      <trkpt lat="43.61549" lon="3.81943">
        <ele>40</ele>
        <time>2020-09-12T10:41:42.000Z</time>
      </trkpt>
      <trkpt lat="43.61548" lon="3.81949">
        <ele>40</ele>
        <time>2020-09-12T10:41:43.000Z</time>
      </trkpt>
      <trkpt lat="43.61547" lon="3.81954">
        <ele>40</ele>
        <time>2020-09-12T10:41:44.000Z</time>
      </trkpt>
      <trkpt lat="43.61545" lon="3.81959">
        <ele>40</ele>
        <time>2020-09-12T10:41:45.000Z</time>
      </trkpt>
      <trkpt lat="43.61544" lon="3.81964">
        <ele>40</ele>
        <time>2020-09-12T10:41:46.000Z</time>
      </trkpt>
      <trkpt lat="43.61543" lon="3.8197">
        <ele>40</ele>
        <time>2020-09-12T10:41:47.000Z</time>
      </trkpt>
      <trkpt lat="43.61542" lon="3.81975">
        <ele>40.05699968</ele>
        <time>2020-09-12T10:41:48.000Z</time>
      </trkpt>
      <trkpt lat="43.61541" lon="3.8198">
        <ele>40.15699968</ele>
        <time>2020-09-12T10:41:49.000Z</time>
      </trkpt>
      <trkpt lat="43.61541" lon="3.81986">
        <ele>40.25699968</ele>
        <time>2020-09-12T10:41:50.000Z</time>
      </trkpt>
      <trkpt lat="43.6154" lon="3.81991">
        <ele>40.35699968</ele>
        <time>2020-09-12T10:41:51.000Z</time>
      </trkpt>
      <trkpt lat="43.61539" lon="3.81997">
        <ele>40.45699968</ele>
        <time>2020-09-12T10:41:52.000Z</time>
      </trkpt>
      <trkpt lat="43.61538" lon="3.82002">
        <ele>40.55699968</ele>
        <time>2020-09-12T10:41:53.000Z</time>
      </trkpt>
      <trkpt lat="43.61537" lon="3.82007">
        <ele>40.65699968</ele>
        <time>2020-09-12T10:41:54.000Z</time>
      </trkpt>
      <trkpt lat="43.61536" lon="3.82013">
        <ele>40.75699968</ele>
        <time>2020-09-12T10:41:55.000Z</time>
      </trkpt>
      <trkpt lat="43.61535" lon="3.82018">
        <ele>40.85699968</ele>
        <time>2020-09-12T10:41:56.000Z</time>
      </trkpt>
      <trkpt lat="43.61533" lon="3.82023">
        <ele>40.95699968</ele>
        <time>2020-09-12T10:41:57.000Z</time>
      </trkpt>
      <trkpt lat="43.61532" lon="3.82028">
        <ele>41.05699968</ele>
        <time>2020-09-12T10:41:58.000Z</time>
      </trkpt>
      <trkpt lat="43.61532" lon="3.82034">
        <ele>41.15699968</ele>
        <time>2020-09-12T10:41:59.000Z</time>
      </trkpt>
      <trkpt lat="43.61531" lon="3.8204">
        <ele>41.25699968</ele>
        <time>2020-09-12T10:42:00.000Z</time>
      </trkpt>
      <trkpt lat="43.61531" lon="3.82045">
        <ele>41.35699968</ele>
        <time>2020-09-12T10:42:01.000Z</time>
      </trkpt>
      <trkpt lat="43.6153" lon="3.82051">
        <ele>41.45699968</ele>
        <time>2020-09-12T10:42:02.000Z</time>
      </trkpt>
      <trkpt lat="43.6153" lon="3.82056">
        <ele>41.55699968</ele>
        <time>2020-09-12T10:42:03.000Z</time>
      </trkpt>
      <trkpt lat="43.61529" lon="3.82062">
        <ele>41.65699968</ele>
        <time>2020-09-12T10:42:04.000Z</time>
      </trkpt>
      <trkpt lat="43.61529" lon="3.82067">
        <ele>41.75699968</ele>
        <time>2020-09-12T10:42:05.000Z</time>
      </trkpt>
      <trkpt lat="43.61528" lon="3.82072">
        <ele>41.85699968</ele>
        <time>2020-09-12T10:42:06.000Z</time>
      </trkpt>
      <trkpt lat="43.61528" lon="3.82077">
        <ele>41.95699968</ele>
        <time>2020-09-12T10:42:07.000Z</time>
      </trkpt>
      <trkpt lat="43.61527" lon="3.82082">
        <ele>42</ele>
        <time>2020-09-12T10:42:08.000Z</time>
      </trkpt>
      <trkpt lat="43.61527" lon="3.82086">
        <ele>42</ele>
        <time>2020-09-12T10:42:09.000Z</time>
      </trkpt>
      <trkpt lat="43.61526" lon="3.82091">
        <ele>42</ele>
        <time>2020-09-12T10:42:10.000Z</time>
      </trkpt>
      <trkpt lat="43.61525" lon="3.82095">
        <ele>42</ele>
        <time>2020-09-12T10:42:11.000Z</time>
      </trkpt>
      <trkpt lat="43.61525" lon="3.821">
        <ele>42</ele>
        <time>2020-09-12T10:42:12.000Z</time>
      </trkpt>
      <trkpt lat="43.61525" lon="3.82104">
        <ele>42</ele>
        <time>2020-09-12T10:42:13.000Z</time>
      </trkpt>
      <trkpt lat="43.61525" lon="3.82107">
        <ele>42</ele>
        <time>2020-09-12T10:42:14.000Z</time>
      </trkpt>
      <trkpt lat="43.61525" lon="3.8211">
        <ele>42</ele>
        <time>2020-09-12T10:42:15.000Z</time>
      </trkpt>
      <trkpt lat="43.61525" lon="3.82114">
        <ele>42</ele>
        <time>2020-09-12T10:42:16.000Z</time>
      </trkpt>
      <trkpt lat="43.61524" lon="3.82119">
        <ele>42</ele>
        <time>2020-09-12T10:42:17.000Z</time>
      </trkpt>
      <trkpt lat="43.61524" lon="3.82122">
        <ele>42</ele>
        <time>2020-09-12T10:42:18.000Z</time>
      </trkpt>
      <trkpt lat="43.61523" lon="3.82127">
        <ele>42</ele>
        <time>2020-09-12T10:42:19.000Z</time>
      </trkpt>
      <trkpt lat="43.61522" lon="3.82132">
        <ele>42</ele>
        <time>2020-09-12T10:42:20.000Z</time>
      </trkpt>
      <trkpt lat="43.61521" lon="3.82137">
        <ele>42</ele>
        <time>2020-09-12T10:42:21.000Z</time>
      </trkpt>
      <trkpt lat="43.6152" lon="3.82143">
        <ele>42</ele>
        <time>2020-09-12T10:42:22.000Z</time>
      </trkpt>
      <trkpt lat="43.61519" lon="3.82148">
        <ele>42</ele>
        <time>2020-09-12T10:42:23.000Z</time>
      </trkpt>
      <trkpt lat="43.61519" lon="3.82152">
        <ele>42</ele>
        <time>2020-09-12T10:42:24.000Z</time>
      </trkpt>
      <trkpt lat="43.61518" lon="3.82157">
        <ele>42</ele>
        <time>2020-09-12T10:42:25.000Z</time>
      </trkpt>
      <trkpt lat="43.61518" lon="3.82161">
        <ele>42</ele>
        <time>2020-09-12T10:42:26.000Z</time>
      </trkpt>
      <trkpt lat="43.61518" lon="3.82164">
        <ele>42</ele>
        <time>2020-09-12T10:42:27.000Z</time>
      </trkpt>
      <trkpt lat="43.61517" lon="3.82168">
        <ele>42.284842226704</ele>
        <time>2020-09-12T10:42:29.000Z</time>
      </trkpt>
      <trkpt lat="43.61516" lon="3.82172">
        <ele>42.691759693425</ele>
        <time>2020-09-12T10:42:31.000Z</time>
      </trkpt>
      <trkpt lat="43.61516" lon="3.82176">
        <ele>43.098677160146</ele>
        <time>2020-09-12T10:42:33.000Z</time>
      </trkpt>
      <trkpt lat="43.61516" lon="3.82181">
        <ele>43.505594626866</ele>
        <time>2020-09-12T10:42:35.000Z</time>
      </trkpt>
      <trkpt lat="43.61516" lon="3.82184">
        <ele>43.709053360227</ele>
        <time>2020-09-12T10:42:36.000Z</time>
      </trkpt>
      <trkpt lat="43.61516" lon="3.82188">
        <ele>43.912512093587</ele>
        <time>2020-09-12T10:42:37.000Z</time>
      </trkpt>
      <trkpt lat="43.61515" lon="3.82191">
        <ele>44.05699968</ele>
        <time>2020-09-12T10:42:38.000Z</time>
      </trkpt>
      <trkpt lat="43.61515" lon="3.82194">
        <ele>44.15699968</ele>
        <time>2020-09-12T10:42:39.000Z</time>
      </trkpt>
      <trkpt lat="43.61514" lon="3.82198">
        <ele>44.25699968</ele>
        <time>2020-09-12T10:42:40.000Z</time>
      </trkpt>
      <trkpt lat="43.61513" lon="3.82201">
        <ele>44.35699968</ele>
        <time>2020-09-12T10:42:41.000Z</time>
      </trkpt>
      <trkpt lat="43.61512" lon="3.82204">
        <ele>44.45699968</ele>
        <time>2020-09-12T10:42:42.000Z</time>
      </trkpt>
      <trkpt lat="43.6151" lon="3.82206">
        <ele>44.55699968</ele>
        <time>2020-09-12T10:42:43.000Z</time>
      </trkpt>
      <trkpt lat="43.61509" lon="3.82208">
        <ele>44.65699968</ele>
        <time>2020-09-12T10:42:44.000Z</time>
      </trkpt>
      <trkpt lat="43.61509" lon="3.82211">
        <ele>44.85699968</ele>
        <time>2020-09-12T10:42:46.000Z</time>
      </trkpt>
      <trkpt lat="43.61511" lon="3.82209">
        <ele>45</ele>
        <time>2020-09-12T10:42:48.000Z</time>
      </trkpt>
      <trkpt lat="43.6151" lon="3.82207">
        <ele>45</ele>
        <time>2020-09-12T10:42:50.000Z</time>
      </trkpt>
      <trkpt lat="43.61506" lon="3.82209">
        <ele>45</ele>
        <time>2020-09-12T10:42:52.000Z</time>
      </trkpt>
      <trkpt lat="43.61504" lon="3.8221">
        <ele>45</ele>
        <time>2020-09-12T10:42:53.000Z</time>
      </trkpt>
      <trkpt lat="43.61501" lon="3.8221">
        <ele>45</ele>
        <time>2020-09-12T10:42:54.000Z</time>
      </trkpt>
      <trkpt lat="43.61498" lon="3.82209">
        <ele>45</ele>
        <time>2020-09-12T10:42:55.000Z</time>
      </trkpt>
      <trkpt lat="43.61495" lon="3.82209">
        <ele>45</ele>
        <time>2020-09-12T10:42:56.000Z</time>
      </trkpt>
      <trkpt lat="43.61491" lon="3.82209">
        <ele>45</ele>
        <time>2020-09-12T10:42:57.000Z</time>
      </trkpt>
      <trkpt lat="43.61487" lon="3.82209">
        <ele>44.94300032</ele>
        <time>2020-09-12T10:42:58.000Z</time>
      </trkpt>
      <trkpt lat="43.61483" lon="3.82209">
        <ele>44.84300032</ele>
        <time>2020-09-12T10:42:59.000Z</time>
      </trkpt>
      <trkpt lat="43.61479" lon="3.82209">
        <ele>44.74300032</ele>
        <time>2020-09-12T10:43:00.000Z</time>
      </trkpt>
      <trkpt lat="43.61475" lon="3.8221">
        <ele>44.64300032</ele>
        <time>2020-09-12T10:43:01.000Z</time>
      </trkpt>
      <trkpt lat="43.6147" lon="3.82211">
        <ele>44.54300032</ele>
        <time>2020-09-12T10:43:02.000Z</time>
      </trkpt>
      <trkpt lat="43.61466" lon="3.82212">
        <ele>44.44300032</ele>
        <time>2020-09-12T10:43:03.000Z</time>
      </trkpt>
      <trkpt lat="43.61462" lon="3.82213">
        <ele>44.34300032</ele>
        <time>2020-09-12T10:43:04.000Z</time>
      </trkpt>
      <trkpt lat="43.61458" lon="3.82214">
        <ele>44.24300032</ele>
        <time>2020-09-12T10:43:05.000Z</time>
      </trkpt>
      <trkpt lat="43.61454" lon="3.82216">
        <ele>44.14300032</ele>
        <time>2020-09-12T10:43:06.000Z</time>
      </trkpt>
      <trkpt lat="43.61449" lon="3.82218">
        <ele>44.04300032</ele>
        <time>2020-09-12T10:43:07.000Z</time>
      </trkpt>
      <trkpt lat="43.61445" lon="3.82221">
        <ele>44.05699968</ele>
        <time>2020-09-12T10:43:08.000Z</time>
      </trkpt>
      <trkpt lat="43.61441" lon="3.82223">
        <ele>44.15699968</ele>
        <time>2020-09-12T10:43:09.000Z</time>
      </trkpt>
      <trkpt lat="43.61437" lon="3.82225">
        <ele>44.25699968</ele>
        <time>2020-09-12T10:43:10.000Z</time>
      </trkpt>
      <trkpt lat="43.61434" lon="3.82227">
        <ele>44.35699968</ele>
        <time>2020-09-12T10:43:11.000Z</time>
      </trkpt>
      <trkpt lat="43.61432" lon="3.82229">
        <ele>44.45699968</ele>
        <time>2020-09-12T10:43:12.000Z</time>
      </trkpt>
      <trkpt lat="43.61429" lon="3.8223">
        <ele>44.55699968</ele>
        <time>2020-09-12T10:43:13.000Z</time>
      </trkpt>
      <trkpt lat="43.61427" lon="3.82232">
        <ele>44.65699968</ele>
        <time>2020-09-12T10:43:14.000Z</time>
      </trkpt>
      <trkpt lat="43.61424" lon="3.82234">
        <ele>44.75699968</ele>
        <time>2020-09-12T10:43:15.000Z</time>
      </trkpt>
      <trkpt lat="43.61421" lon="3.82235">
        <ele>44.85699968</ele>
        <time>2020-09-12T10:43:16.000Z</time>
      </trkpt>
      <trkpt lat="43.61418" lon="3.82237">
        <ele>44.95699968</ele>
        <time>2020-09-12T10:43:17.000Z</time>
      </trkpt>
      <trkpt lat="43.61415" lon="3.82239">
        <ele>45.056323794466</ele>
        <time>2020-09-12T10:43:18.000Z</time>
      </trkpt>
      <trkpt lat="43.61412" lon="3.82241">
        <ele>45.155138023715</ele>
        <time>2020-09-12T10:43:19.000Z</time>
      </trkpt>
      <trkpt lat="43.6141" lon="3.82243">
        <ele>45.253952252964</ele>
        <time>2020-09-12T10:43:20.000Z</time>
      </trkpt>
      <trkpt lat="43.61407" lon="3.82245">
        <ele>45.352766482213</ele>
        <time>2020-09-12T10:43:21.000Z</time>
      </trkpt>
      <trkpt lat="43.61404" lon="3.82248">
        <ele>45.451580711462</ele>
        <time>2020-09-12T10:43:22.000Z</time>
      </trkpt>
      <trkpt lat="43.61401" lon="3.8225">
        <ele>45.550394940711</ele>
        <time>2020-09-12T10:43:23.000Z</time>
      </trkpt>
      <trkpt lat="43.61399" lon="3.82253">
        <ele>45.64920916996</ele>
        <time>2020-09-12T10:43:24.000Z</time>
      </trkpt>
      <trkpt lat="43.61396" lon="3.82256">
        <ele>45.74802339921</ele>
        <time>2020-09-12T10:43:25.000Z</time>
      </trkpt>
      <trkpt lat="43.61394" lon="3.82259">
        <ele>45.846837628459</ele>
        <time>2020-09-12T10:43:26.000Z</time>
      </trkpt>
      <trkpt lat="43.61392" lon="3.82262">
        <ele>45.945651857708</ele>
        <time>2020-09-12T10:43:27.000Z</time>
      </trkpt>
      <trkpt lat="43.6139" lon="3.82264">
        <ele>46.090908503214</ele>
        <time>2020-09-12T10:43:28.000Z</time>
      </trkpt>
      <trkpt lat="43.61388" lon="3.82268">
        <ele>46.292928835833</ele>
        <time>2020-09-12T10:43:29.000Z</time>
      </trkpt>
      <trkpt lat="43.61387" lon="3.82271">
        <ele>46.494949168452</ele>
        <time>2020-09-12T10:43:30.000Z</time>
      </trkpt>
      <trkpt lat="43.61385" lon="3.82273">
        <ele>46.696969501071</ele>
        <time>2020-09-12T10:43:31.000Z</time>
      </trkpt>
      <trkpt lat="43.61384" lon="3.82276">
        <ele>46.89898983369</ele>
        <time>2020-09-12T10:43:32.000Z</time>
      </trkpt>
      <trkpt lat="43.61382" lon="3.82279">
        <ele>47.10101016631</ele>
        <time>2020-09-12T10:43:33.000Z</time>
      </trkpt>
      <trkpt lat="43.61381" lon="3.82282">
        <ele>47.303030498929</ele>
        <time>2020-09-12T10:43:34.000Z</time>
      </trkpt>
      <trkpt lat="43.61379" lon="3.82284">
        <ele>47.505050831548</ele>
        <time>2020-09-12T10:43:35.000Z</time>
      </trkpt>
      <trkpt lat="43.61378" lon="3.82287">
        <ele>47.707071164167</ele>
        <time>2020-09-12T10:43:36.000Z</time>
      </trkpt>
      <trkpt lat="43.61376" lon="3.82289">
        <ele>47.909091496786</ele>
        <time>2020-09-12T10:43:37.000Z</time>
      </trkpt>
      <trkpt lat="43.61374" lon="3.82292">
        <ele>48.110221011481</ele>
        <time>2020-09-12T10:43:38.000Z</time>
      </trkpt>
      <trkpt lat="43.61372" lon="3.82293">
        <ele>48.310621684571</ele>
        <time>2020-09-12T10:43:39.000Z</time>
      </trkpt>
      <trkpt lat="43.6137" lon="3.82295">
        <ele>48.511022357661</ele>
        <time>2020-09-12T10:43:40.000Z</time>
      </trkpt>
      <trkpt lat="43.61368" lon="3.82296">
        <ele>48.711423030751</ele>
        <time>2020-09-12T10:43:41.000Z</time>
      </trkpt>
      <trkpt lat="43.61367" lon="3.82296">
        <ele>48.91182370384</ele>
        <time>2020-09-12T10:43:42.000Z</time>
      </trkpt>
      <trkpt lat="43.61365" lon="3.82297">
        <ele>49.11222437693</ele>
        <time>2020-09-12T10:43:43.000Z</time>
      </trkpt>
      <trkpt lat="43.61363" lon="3.82297">
        <ele>49.31262505002</ele>
        <time>2020-09-12T10:43:44.000Z</time>
      </trkpt>
      <trkpt lat="43.61361" lon="3.82297">
        <ele>49.51302572311</ele>
        <time>2020-09-12T10:43:45.000Z</time>
      </trkpt>
      <trkpt lat="43.61358" lon="3.82298">
        <ele>49.913827069289</ele>
        <time>2020-09-12T10:43:47.000Z</time>
      </trkpt>
      <trkpt lat="43.61355" lon="3.82298">
        <ele>50.305150104614</ele>
        <time>2020-09-12T10:43:49.000Z</time>
      </trkpt>
      <trkpt lat="43.61352" lon="3.82299">
        <ele>50.69387714484</ele>
        <time>2020-09-12T10:43:51.000Z</time>
      </trkpt>
      <trkpt lat="43.61349" lon="3.823">
        <ele>51.082604185066</ele>
        <time>2020-09-12T10:43:53.000Z</time>
      </trkpt>
      <trkpt lat="43.61347" lon="3.82301">
        <ele>51.27696770518</ele>
        <time>2020-09-12T10:43:54.000Z</time>
      </trkpt>
      <trkpt lat="43.61345" lon="3.82302">
        <ele>51.471331225293</ele>
        <time>2020-09-12T10:43:55.000Z</time>
      </trkpt>
      <trkpt lat="43.61342" lon="3.82303">
        <ele>51.860058265519</ele>
        <time>2020-09-12T10:43:57.000Z</time>
      </trkpt>
      <trkpt lat="43.6134" lon="3.82306">
        <ele>52.131822819585</ele>
        <time>2020-09-12T10:43:59.000Z</time>
      </trkpt>
      <trkpt lat="43.61337" lon="3.8231">
        <ele>52.337795975186</ele>
        <time>2020-09-12T10:44:01.000Z</time>
      </trkpt>
      <trkpt lat="43.61336" lon="3.82312">
        <ele>52.440782552986</ele>
        <time>2020-09-12T10:44:02.000Z</time>
      </trkpt>
      <trkpt lat="43.61335" lon="3.82314">
        <ele>52.543769130787</ele>
        <time>2020-09-12T10:44:03.000Z</time>
      </trkpt>
      <trkpt lat="43.61333" lon="3.82315">
        <ele>52.646755708587</ele>
        <time>2020-09-12T10:44:04.000Z</time>
      </trkpt>
      <trkpt lat="43.61332" lon="3.82317">
        <ele>52.749742286388</ele>
        <time>2020-09-12T10:44:05.000Z</time>
      </trkpt>
      <trkpt lat="43.6133" lon="3.8232">
        <ele>52.852728864188</ele>
        <time>2020-09-12T10:44:06.000Z</time>
      </trkpt>
      <trkpt lat="43.61327" lon="3.82322">
        <ele>52.955715441989</ele>
        <time>2020-09-12T10:44:07.000Z</time>
      </trkpt>
      <trkpt lat="43.61325" lon="3.82325">
        <ele>53</ele>
        <time>2020-09-12T10:44:08.000Z</time>
      </trkpt>
      <trkpt lat="43.61322" lon="3.82328">
        <ele>53</ele>
        <time>2020-09-12T10:44:09.000Z</time>
      </trkpt>
      <trkpt lat="43.61319" lon="3.82332">
        <ele>53</ele>
        <time>2020-09-12T10:44:10.000Z</time>
      </trkpt>
      <trkpt lat="43.61317" lon="3.82335">
        <ele>53</ele>
        <time>2020-09-12T10:44:11.000Z</time>
      </trkpt>
      <trkpt lat="43.61314" lon="3.82339">
        <ele>53</ele>
        <time>2020-09-12T10:44:12.000Z</time>
      </trkpt>
      <trkpt lat="43.61312" lon="3.82342">
        <ele>53</ele>
        <time>2020-09-12T10:44:13.000Z</time>
      </trkpt>
      <trkpt lat="43.6131" lon="3.82345">
        <ele>53</ele>
        <time>2020-09-12T10:44:14.000Z</time>
      </trkpt>
      <trkpt lat="43.61308" lon="3.82349">
        <ele>53</ele>
        <time>2020-09-12T10:44:15.000Z</time>
      </trkpt>
      <trkpt lat="43.61307" lon="3.82354">
        <ele>53</ele>
        <time>2020-09-12T10:44:16.000Z</time>
      </trkpt>
      <trkpt lat="43.61307" lon="3.82359">
        <ele>53</ele>
        <time>2020-09-12T10:44:17.000Z</time>
      </trkpt>
      <trkpt lat="43.61308" lon="3.82364">
        <ele>53</ele>
        <time>2020-09-12T10:44:18.000Z</time>
      </trkpt>
      <trkpt lat="43.61308" lon="3.82369">
        <ele>53</ele>
        <time>2020-09-12T10:44:19.000Z</time>
      </trkpt>
      <trkpt lat="43.61309" lon="3.82374">
        <ele>53</ele>
        <time>2020-09-12T10:44:20.000Z</time>
      </trkpt>
      <trkpt lat="43.6131" lon="3.82379">
        <ele>53</ele>
        <time>2020-09-12T10:44:21.000Z</time>
      </trkpt>
      <trkpt lat="43.61311" lon="3.82384">
        <ele>53</ele>
        <time>2020-09-12T10:44:22.000Z</time>
      </trkpt>
      <trkpt lat="43.61312" lon="3.82388">
        <ele>53</ele>
        <time>2020-09-12T10:44:23.000Z</time>
      </trkpt>
      <trkpt lat="43.61313" lon="3.82393">
        <ele>53</ele>
        <time>2020-09-12T10:44:24.000Z</time>
      </trkpt>
      <trkpt lat="43.61314" lon="3.82398">
        <ele>53</ele>
        <time>2020-09-12T10:44:25.000Z</time>
      </trkpt>
      <trkpt lat="43.61314" lon="3.82403">
        <ele>53</ele>
        <time>2020-09-12T10:44:26.000Z</time>
      </trkpt>
      <trkpt lat="43.61314" lon="3.82408">
        <ele>53</ele>
        <time>2020-09-12T10:44:27.000Z</time>
      </trkpt>
      <trkpt lat="43.61314" lon="3.82412">
        <ele>52.94300032</ele>
        <time>2020-09-12T10:44:28.000Z</time>
      </trkpt>
      <trkpt lat="43.61314" lon="3.82416">
        <ele>52.84300032</ele>
        <time>2020-09-12T10:44:29.000Z</time>
      </trkpt>
      <trkpt lat="43.61314" lon="3.82421">
        <ele>52.74300032</ele>
        <time>2020-09-12T10:44:30.000Z</time>
      </trkpt>
      <trkpt lat="43.61314" lon="3.82425">
        <ele>52.64300032</ele>
        <time>2020-09-12T10:44:31.000Z</time>
      </trkpt>
      <trkpt lat="43.61314" lon="3.8243">
        <ele>52.54300032</ele>
        <time>2020-09-12T10:44:32.000Z</time>
      </trkpt>
      <trkpt lat="43.61313" lon="3.82435">
        <ele>52.44300032</ele>
        <time>2020-09-12T10:44:33.000Z</time>
      </trkpt>
      <trkpt lat="43.61312" lon="3.82439">
        <ele>52.34300032</ele>
        <time>2020-09-12T10:44:34.000Z</time>
      </trkpt>
      <trkpt lat="43.61311" lon="3.82444">
        <ele>52.24300032</ele>
        <time>2020-09-12T10:44:35.000Z</time>
      </trkpt>
      <trkpt lat="43.61309" lon="3.82449">
        <ele>52.14300032</ele>
        <time>2020-09-12T10:44:36.000Z</time>
      </trkpt>
      <trkpt lat="43.61308" lon="3.82454">
        <ele>52.04300032</ele>
        <time>2020-09-12T10:44:37.000Z</time>
      </trkpt>
      <trkpt lat="43.61306" lon="3.82458">
        <ele>52.05699968</ele>
        <time>2020-09-12T10:44:38.000Z</time>
      </trkpt>
      <trkpt lat="43.61305" lon="3.82463">
        <ele>52.15699968</ele>
        <time>2020-09-12T10:44:39.000Z</time>
      </trkpt>
      <trkpt lat="43.61303" lon="3.82467">
        <ele>52.25699968</ele>
        <time>2020-09-12T10:44:40.000Z</time>
      </trkpt>
      <trkpt lat="43.61301" lon="3.82471">
        <ele>52.35699968</ele>
        <time>2020-09-12T10:44:41.000Z</time>
      </trkpt>
      <trkpt lat="43.61299" lon="3.82475">
        <ele>52.45699968</ele>
        <time>2020-09-12T10:44:42.000Z</time>
      </trkpt>
      <trkpt lat="43.61297" lon="3.82479">
        <ele>52.55699968</ele>
        <time>2020-09-12T10:44:43.000Z</time>
      </trkpt>
      <trkpt lat="43.61295" lon="3.82482">
        <ele>52.65699968</ele>
        <time>2020-09-12T10:44:44.000Z</time>
      </trkpt>
      <trkpt lat="43.61292" lon="3.82486">
        <ele>52.75699968</ele>
        <time>2020-09-12T10:44:45.000Z</time>
      </trkpt>
      <trkpt lat="43.6129" lon="3.82489">
        <ele>52.85699968</ele>
        <time>2020-09-12T10:44:46.000Z</time>
      </trkpt>
      <trkpt lat="43.61288" lon="3.82492">
        <ele>52.95699968</ele>
        <time>2020-09-12T10:44:47.000Z</time>
      </trkpt>
      <trkpt lat="43.61285" lon="3.82494">
        <ele>53.05699968</ele>
        <time>2020-09-12T10:44:48.000Z</time>
      </trkpt>
      <trkpt lat="43.61283" lon="3.82498">
        <ele>53.15699968</ele>
        <time>2020-09-12T10:44:49.000Z</time>
      </trkpt>
      <trkpt lat="43.6128" lon="3.82501">
        <ele>53.25699968</ele>
        <time>2020-09-12T10:44:50.000Z</time>
      </trkpt>
      <trkpt lat="43.61277" lon="3.82503">
        <ele>53.35699968</ele>
        <time>2020-09-12T10:44:51.000Z</time>
      </trkpt>
      <trkpt lat="43.61274" lon="3.82506">
        <ele>53.45699968</ele>
        <time>2020-09-12T10:44:52.000Z</time>
      </trkpt>
      <trkpt lat="43.6127" lon="3.82508">
        <ele>53.55699968</ele>
        <time>2020-09-12T10:44:53.000Z</time>
      </trkpt>
      <trkpt lat="43.61267" lon="3.82511">
        <ele>53.65699968</ele>
        <time>2020-09-12T10:44:54.000Z</time>
      </trkpt>
      <trkpt lat="43.61264" lon="3.82514">
        <ele>53.75699968</ele>
        <time>2020-09-12T10:44:55.000Z</time>
      </trkpt>
      <trkpt lat="43.6126" lon="3.82515">
        <ele>53.85699968</ele>
        <time>2020-09-12T10:44:56.000Z</time>
      </trkpt>
      <trkpt lat="43.61256" lon="3.82517">
        <ele>53.95699968</ele>
        <time>2020-09-12T10:44:57.000Z</time>
      </trkpt>
      <trkpt lat="43.61252" lon="3.82518">
        <ele>54.05699968</ele>
        <time>2020-09-12T10:44:58.000Z</time>
      </trkpt>
      <trkpt lat="43.61249" lon="3.8252">
        <ele>54.15699968</ele>
        <time>2020-09-12T10:44:59.000Z</time>
      </trkpt>
      <trkpt lat="43.61245" lon="3.82521">
        <ele>54.25699968</ele>
        <time>2020-09-12T10:45:00.000Z</time>
      </trkpt>
      <trkpt lat="43.61242" lon="3.82523">
        <ele>54.35699968</ele>
        <time>2020-09-12T10:45:01.000Z</time>
      </trkpt>
      <trkpt lat="43.61239" lon="3.82524">
        <ele>54.45699968</ele>
        <time>2020-09-12T10:45:02.000Z</time>
      </trkpt>
      <trkpt lat="43.61236" lon="3.82526">
        <ele>54.55699968</ele>
        <time>2020-09-12T10:45:03.000Z</time>
      </trkpt>
      <trkpt lat="43.61233" lon="3.82529">
        <ele>54.65699968</ele>
        <time>2020-09-12T10:45:04.000Z</time>
      </trkpt>
      <trkpt lat="43.6123" lon="3.82531">
        <ele>54.75699968</ele>
        <time>2020-09-12T10:45:05.000Z</time>
      </trkpt>
      <trkpt lat="43.61227" lon="3.82533">
        <ele>54.85699968</ele>
        <time>2020-09-12T10:45:06.000Z</time>
      </trkpt>
      <trkpt lat="43.61224" lon="3.82535">
        <ele>54.95699968</ele>
        <time>2020-09-12T10:45:07.000Z</time>
      </trkpt>
      <trkpt lat="43.61222" lon="3.82537">
        <ele>55.05699968</ele>
        <time>2020-09-12T10:45:08.000Z</time>
      </trkpt>
      <trkpt lat="43.61219" lon="3.82539">
        <ele>55.15699968</ele>
        <time>2020-09-12T10:45:09.000Z</time>
      </trkpt>
      <trkpt lat="43.61217" lon="3.82541">
        <ele>55.25699968</ele>
        <time>2020-09-12T10:45:10.000Z</time>
      </trkpt>
      <trkpt lat="43.61214" lon="3.82544">
        <ele>55.35699968</ele>
        <time>2020-09-12T10:45:11.000Z</time>
      </trkpt>
      <trkpt lat="43.61211" lon="3.82547">
        <ele>55.45699968</ele>
        <time>2020-09-12T10:45:12.000Z</time>
      </trkpt>
      <trkpt lat="43.61209" lon="3.8255">
        <ele>55.55699968</ele>
        <time>2020-09-12T10:45:13.000Z</time>
      </trkpt>
      <trkpt lat="43.61206" lon="3.82554">
        <ele>55.65699968</ele>
        <time>2020-09-12T10:45:14.000Z</time>
      </trkpt>
      <trkpt lat="43.61204" lon="3.82559">
        <ele>55.75699968</ele>
        <time>2020-09-12T10:45:15.000Z</time>
      </trkpt>
      <trkpt lat="43.61202" lon="3.82564">
        <ele>55.85699968</ele>
        <time>2020-09-12T10:45:16.000Z</time>
      </trkpt>
      <trkpt lat="43.612" lon="3.82569">
        <ele>55.95699968</ele>
        <time>2020-09-12T10:45:17.000Z</time>
      </trkpt>
      <trkpt lat="43.61198" lon="3.82574">
        <ele>56.05699968</ele>
        <time>2020-09-12T10:45:18.000Z</time>
      </trkpt>
      <trkpt lat="43.61197" lon="3.82579">
        <ele>56.15699968</ele>
        <time>2020-09-12T10:45:19.000Z</time>
      </trkpt>
      <trkpt lat="43.61196" lon="3.82584">
        <ele>56.25699968</ele>
        <time>2020-09-12T10:45:20.000Z</time>
      </trkpt>
      <trkpt lat="43.61195" lon="3.8259">
        <ele>56.35699968</ele>
        <time>2020-09-12T10:45:21.000Z</time>
      </trkpt>
      <trkpt lat="43.61194" lon="3.82595">
        <ele>56.45699968</ele>
        <time>2020-09-12T10:45:22.000Z</time>
      </trkpt>
      <trkpt lat="43.61193" lon="3.82601">
        <ele>56.55699968</ele>
        <time>2020-09-12T10:45:23.000Z</time>
      </trkpt>
      <trkpt lat="43.61192" lon="3.82606">
        <ele>56.65699968</ele>
        <time>2020-09-12T10:45:24.000Z</time>
      </trkpt>
      <trkpt lat="43.61191" lon="3.82612">
        <ele>56.75699968</ele>
        <time>2020-09-12T10:45:25.000Z</time>
      </trkpt>
      <trkpt lat="43.6119" lon="3.82618">
        <ele>56.85699968</ele>
        <time>2020-09-12T10:45:26.000Z</time>
      </trkpt>
      <trkpt lat="43.6119" lon="3.82623">
        <ele>56.95699968</ele>
        <time>2020-09-12T10:45:27.000Z</time>
      </trkpt>
      <trkpt lat="43.61189" lon="3.82629">
        <ele>57.05699968</ele>
        <time>2020-09-12T10:45:28.000Z</time>
      </trkpt>
      <trkpt lat="43.61188" lon="3.82635">
        <ele>57.15699968</ele>
        <time>2020-09-12T10:45:29.000Z</time>
      </trkpt>
      <trkpt lat="43.61187" lon="3.8264">
        <ele>57.25699968</ele>
        <time>2020-09-12T10:45:30.000Z</time>
      </trkpt>
      <trkpt lat="43.61187" lon="3.82646">
        <ele>57.35699968</ele>
        <time>2020-09-12T10:45:31.000Z</time>
      </trkpt>
      <trkpt lat="43.61186" lon="3.82651">
        <ele>57.45699968</ele>
        <time>2020-09-12T10:45:32.000Z</time>
      </trkpt>
      <trkpt lat="43.61185" lon="3.82657">
        <ele>57.55699968</ele>
        <time>2020-09-12T10:45:33.000Z</time>
      </trkpt>
      <trkpt lat="43.61185" lon="3.82663">
        <ele>57.65699968</ele>
        <time>2020-09-12T10:45:34.000Z</time>
      </trkpt>
      <trkpt lat="43.61184" lon="3.82668">
        <ele>57.75699968</ele>
        <time>2020-09-12T10:45:35.000Z</time>
      </trkpt>
      <trkpt lat="43.61183" lon="3.82673">
        <ele>57.85699968</ele>
        <time>2020-09-12T10:45:36.000Z</time>
      </trkpt>
      <trkpt lat="43.61182" lon="3.82678">
        <ele>57.95699968</ele>
        <time>2020-09-12T10:45:37.000Z</time>
      </trkpt>
      <trkpt lat="43.61181" lon="3.82683">
        <ele>58</ele>
        <time>2020-09-12T10:45:38.000Z</time>
      </trkpt>
      <trkpt lat="43.6118" lon="3.82688">
        <ele>58</ele>
        <time>2020-09-12T10:45:39.000Z</time>
      </trkpt>
      <trkpt lat="43.61179" lon="3.82693">
        <ele>58</ele>
        <time>2020-09-12T10:45:40.000Z</time>
      </trkpt>
      <trkpt lat="43.61179" lon="3.82699">
        <ele>58</ele>
        <time>2020-09-12T10:45:41.000Z</time>
      </trkpt>
      <trkpt lat="43.61178" lon="3.82704">
        <ele>58</ele>
        <time>2020-09-12T10:45:42.000Z</time>
      </trkpt>
      <trkpt lat="43.61177" lon="3.8271">
        <ele>58</ele>
        <time>2020-09-12T10:45:43.000Z</time>
      </trkpt>
      <trkpt lat="43.61176" lon="3.82715">
        <ele>58</ele>
        <time>2020-09-12T10:45:44.000Z</time>
      </trkpt>
      <trkpt lat="43.61175" lon="3.82721">
        <ele>58</ele>
        <time>2020-09-12T10:45:45.000Z</time>
      </trkpt>
      <trkpt lat="43.61174" lon="3.82727">
        <ele>58</ele>
        <time>2020-09-12T10:45:46.000Z</time>
      </trkpt>
      <trkpt lat="43.61173" lon="3.82732">
        <ele>58</ele>
        <time>2020-09-12T10:45:47.000Z</time>
      </trkpt>
      <trkpt lat="43.61172" lon="3.82738">
        <ele>58</ele>
        <time>2020-09-12T10:45:48.000Z</time>
      </trkpt>
      <trkpt lat="43.61171" lon="3.82744">
        <ele>58</ele>
        <time>2020-09-12T10:45:49.000Z</time>
      </trkpt>
      <trkpt lat="43.6117" lon="3.8275">
        <ele>58</ele>
        <time>2020-09-12T10:45:50.000Z</time>
      </trkpt>
      <trkpt lat="43.61169" lon="3.82755">
        <ele>58</ele>
        <time>2020-09-12T10:45:51.000Z</time>
      </trkpt>
      <trkpt lat="43.61169" lon="3.82761">
        <ele>58</ele>
        <time>2020-09-12T10:45:52.000Z</time>
      </trkpt>
      <trkpt lat="43.61168" lon="3.82766">
        <ele>58</ele>
        <time>2020-09-12T10:45:53.000Z</time>
      </trkpt>
      <trkpt lat="43.61167" lon="3.82772">
        <ele>58</ele>
        <time>2020-09-12T10:45:54.000Z</time>
      </trkpt>
      <trkpt lat="43.61166" lon="3.82778">
        <ele>58</ele>
        <time>2020-09-12T10:45:55.000Z</time>
      </trkpt>
      <trkpt lat="43.61165" lon="3.82783">
        <ele>58</ele>
        <time>2020-09-12T10:45:56.000Z</time>
      </trkpt>
      <trkpt lat="43.61163" lon="3.82789">
        <ele>58</ele>
        <time>2020-09-12T10:45:57.000Z</time>
      </trkpt>
      <trkpt lat="43.61162" lon="3.82795">
        <ele>58</ele>
        <time>2020-09-12T10:45:58.000Z</time>
      </trkpt>
      <trkpt lat="43.61162" lon="3.82801">
        <ele>58</ele>
        <time>2020-09-12T10:45:59.000Z</time>
      </trkpt>
      <trkpt lat="43.61161" lon="3.82807">
        <ele>58</ele>
        <time>2020-09-12T10:46:00.000Z</time>
      </trkpt>
      <trkpt lat="43.61161" lon="3.82813">
        <ele>58</ele>
        <time>2020-09-12T10:46:01.000Z</time>
      </trkpt>
      <trkpt lat="43.61161" lon="3.82818">
        <ele>58</ele>
        <time>2020-09-12T10:46:02.000Z</time>
      </trkpt>
      <trkpt lat="43.61162" lon="3.82824">
        <ele>58</ele>
        <time>2020-09-12T10:46:03.000Z</time>
      </trkpt>
      <trkpt lat="43.61163" lon="3.8283">
        <ele>58</ele>
        <time>2020-09-12T10:46:04.000Z</time>
      </trkpt>
      <trkpt lat="43.61164" lon="3.82835">
        <ele>58</ele>
        <time>2020-09-12T10:46:05.000Z</time>
      </trkpt>
      <trkpt lat="43.61166" lon="3.8284">
        <ele>58</ele>
        <time>2020-09-12T10:46:06.000Z</time>
      </trkpt>
      <trkpt lat="43.61167" lon="3.82846">
        <ele>58</ele>
        <time>2020-09-12T10:46:07.000Z</time>
      </trkpt>
      <trkpt lat="43.61168" lon="3.82851">
        <ele>58.05699968</ele>
        <time>2020-09-12T10:46:08.000Z</time>
      </trkpt>
      <trkpt lat="43.6117" lon="3.82855">
        <ele>58.15699968</ele>
        <time>2020-09-12T10:46:09.000Z</time>
      </trkpt>
      <trkpt lat="43.61171" lon="3.8286">
        <ele>58.25699968</ele>
        <time>2020-09-12T10:46:10.000Z</time>
      </trkpt>
      <trkpt lat="43.61172" lon="3.82865">
        <ele>58.35699968</ele>
        <time>2020-09-12T10:46:11.000Z</time>
      </trkpt>
      <trkpt lat="43.61174" lon="3.82869">
        <ele>58.45699968</ele>
        <time>2020-09-12T10:46:12.000Z</time>
      </trkpt>
      <trkpt lat="43.61174" lon="3.82874">
        <ele>58.55699968</ele>
        <time>2020-09-12T10:46:13.000Z</time>
      </trkpt>
      <trkpt lat="43.61175" lon="3.82878">
        <ele>58.65699968</ele>
        <time>2020-09-12T10:46:14.000Z</time>
      </trkpt>
      <trkpt lat="43.61176" lon="3.82881">
        <ele>58.75699968</ele>
        <time>2020-09-12T10:46:15.000Z</time>
      </trkpt>
      <trkpt lat="43.61176" lon="3.82884">
        <ele>58.85699968</ele>
        <time>2020-09-12T10:46:16.000Z</time>
      </trkpt>
      <trkpt lat="43.61176" lon="3.82884">
        <ele>60</ele>
        <time>2020-09-12T10:46:23.000Z</time>
      </trkpt>
    </trkseg>
  </trk>
</gpx>